<?xml version="1.0" encoding="UTF-8" standalone="no" ?>
<gpx xmlns="http://www.topografix.com/GPX/1/1" xmlns:xsi="http://www.w3.org/2001/XMLSchema-instance" xsi:schemaLocation="http://www.topografix.com/GPX/1/1 http://www.topografix.com/GPX/1/1/gpx.xsd" version="1.1" creator="VisuGPX - https://www.visugpx.com">
  <metadata>
    <name>Lac de vassiviere J2</name>
  </metadata>
  <trk>
    <name><![CDATA[Trace 1783495502000]]></name>
    <trkseg>
      <trkpt lat="45.80946" lon="1.89478">
        <ele>698.2</ele>
        <time>2026-07-08T07:25:02.000Z</time>
      </trkpt>
      <trkpt lat="45.80947" lon="1.89479">
        <ele>696.9</ele>
        <time>2026-07-08T07:25:03.000Z</time>
      </trkpt>
      <trkpt lat="45.80947" lon="1.8948">
        <ele>696.2</ele>
        <time>2026-07-08T07:25:04.000Z</time>
      </trkpt>
      <trkpt lat="45.80948" lon="1.8948">
        <ele>695.9</ele>
        <time>2026-07-08T07:25:05.000Z</time>
      </trkpt>
      <trkpt lat="45.80948" lon="1.8948">
        <ele>695.7</ele>
        <time>2026-07-08T07:25:06.000Z</time>
      </trkpt>
      <trkpt lat="45.80949" lon="1.8948">
        <ele>695.8</ele>
        <time>2026-07-08T07:25:07.000Z</time>
      </trkpt>
      <trkpt lat="45.80948" lon="1.8948">
        <ele>696.4</ele>
        <time>2026-07-08T07:25:08.000Z</time>
      </trkpt>
      <trkpt lat="45.80949" lon="1.8948">
        <ele>697.2</ele>
        <time>2026-07-08T07:25:09.000Z</time>
      </trkpt>
      <trkpt lat="45.80949" lon="1.8948">
        <ele>697.4</ele>
        <time>2026-07-08T07:25:10.000Z</time>
      </trkpt>
      <trkpt lat="45.80948" lon="1.8948">
        <ele>698</ele>
        <time>2026-07-08T07:25:11.000Z</time>
      </trkpt>
      <trkpt lat="45.80948" lon="1.8948">
        <ele>698.3</ele>
        <time>2026-07-08T07:25:12.000Z</time>
      </trkpt>
      <trkpt lat="45.80948" lon="1.8948">
        <ele>698.5</ele>
        <time>2026-07-08T07:25:13.000Z</time>
      </trkpt>
      <trkpt lat="45.80948" lon="1.8948">
        <ele>698.3</ele>
        <time>2026-07-08T07:25:14.000Z</time>
      </trkpt>
      <trkpt lat="45.80947" lon="1.8948">
        <ele>698</ele>
        <time>2026-07-08T07:25:15.000Z</time>
      </trkpt>
      <trkpt lat="45.80947" lon="1.89481">
        <ele>697.8</ele>
        <time>2026-07-08T07:25:16.000Z</time>
      </trkpt>
      <trkpt lat="45.80947" lon="1.89481">
        <ele>697.7</ele>
        <time>2026-07-08T07:25:17.000Z</time>
      </trkpt>
      <trkpt lat="45.80947" lon="1.89481">
        <ele>698.2</ele>
        <time>2026-07-08T07:25:18.000Z</time>
      </trkpt>
      <trkpt lat="45.80946" lon="1.89482">
        <ele>698.6</ele>
        <time>2026-07-08T07:25:19.000Z</time>
      </trkpt>
      <trkpt lat="45.80947" lon="1.89482">
        <ele>698.1</ele>
        <time>2026-07-08T07:25:20.000Z</time>
      </trkpt>
      <trkpt lat="45.80947" lon="1.89482">
        <ele>698.4</ele>
        <time>2026-07-08T07:25:21.000Z</time>
      </trkpt>
      <trkpt lat="45.80947" lon="1.89482">
        <ele>698.6</ele>
        <time>2026-07-08T07:25:22.000Z</time>
      </trkpt>
      <trkpt lat="45.80947" lon="1.89482">
        <ele>698.7</ele>
        <time>2026-07-08T07:25:23.000Z</time>
      </trkpt>
      <trkpt lat="45.80947" lon="1.89482">
        <ele>698.7</ele>
        <time>2026-07-08T07:25:24.000Z</time>
      </trkpt>
      <trkpt lat="45.80946" lon="1.89481">
        <ele>698.2</ele>
        <time>2026-07-08T07:25:25.000Z</time>
      </trkpt>
      <trkpt lat="45.80945" lon="1.89481">
        <ele>697.3</ele>
        <time>2026-07-08T07:25:26.000Z</time>
      </trkpt>
      <trkpt lat="45.80945" lon="1.89482">
        <ele>698.2</ele>
        <time>2026-07-08T07:25:27.000Z</time>
      </trkpt>
      <trkpt lat="45.80946" lon="1.89483">
        <ele>698.7</ele>
        <time>2026-07-08T07:25:28.000Z</time>
      </trkpt>
      <trkpt lat="45.80947" lon="1.89484">
        <ele>698.7</ele>
        <time>2026-07-08T07:25:29.000Z</time>
      </trkpt>
      <trkpt lat="45.80947" lon="1.89483">
        <ele>699.4</ele>
        <time>2026-07-08T07:25:30.000Z</time>
      </trkpt>
      <trkpt lat="45.80947" lon="1.89481">
        <ele>698.9</ele>
        <time>2026-07-08T07:25:31.000Z</time>
      </trkpt>
      <trkpt lat="45.80947" lon="1.89479">
        <ele>699</ele>
        <time>2026-07-08T07:25:32.000Z</time>
      </trkpt>
      <trkpt lat="45.80946" lon="1.89477">
        <ele>699</ele>
        <time>2026-07-08T07:25:33.000Z</time>
      </trkpt>
      <trkpt lat="45.80945" lon="1.89475">
        <ele>698.8</ele>
        <time>2026-07-08T07:25:34.000Z</time>
      </trkpt>
      <trkpt lat="45.80945" lon="1.89475">
        <ele>698.5</ele>
        <time>2026-07-08T07:25:35.000Z</time>
      </trkpt>
      <trkpt lat="45.80945" lon="1.89475">
        <ele>698.5</ele>
        <time>2026-07-08T07:25:36.000Z</time>
      </trkpt>
      <trkpt lat="45.80945" lon="1.89475">
        <ele>698.5</ele>
        <time>2026-07-08T07:25:37.000Z</time>
      </trkpt>
      <trkpt lat="45.80945" lon="1.89475">
        <ele>698.5</ele>
        <time>2026-07-08T07:25:38.000Z</time>
      </trkpt>
      <trkpt lat="45.80945" lon="1.89475">
        <ele>698.5</ele>
        <time>2026-07-08T07:25:39.000Z</time>
      </trkpt>
      <trkpt lat="45.80945" lon="1.89475">
        <ele>698.5</ele>
        <time>2026-07-08T07:25:40.000Z</time>
      </trkpt>
      <trkpt lat="45.80945" lon="1.89475">
        <ele>698.7</ele>
        <time>2026-07-08T07:25:41.000Z</time>
      </trkpt>
      <trkpt lat="45.80945" lon="1.89476">
        <ele>698.4</ele>
        <time>2026-07-08T07:25:42.000Z</time>
      </trkpt>
      <trkpt lat="45.80946" lon="1.89476">
        <ele>698.4</ele>
        <time>2026-07-08T07:25:43.000Z</time>
      </trkpt>
      <trkpt lat="45.80946" lon="1.89476">
        <ele>698.4</ele>
        <time>2026-07-08T07:25:44.000Z</time>
      </trkpt>
      <trkpt lat="45.80946" lon="1.89476">
        <ele>698.4</ele>
        <time>2026-07-08T07:25:45.000Z</time>
      </trkpt>
      <trkpt lat="45.80946" lon="1.89476">
        <ele>698.4</ele>
        <time>2026-07-08T07:25:46.000Z</time>
      </trkpt>
      <trkpt lat="45.80946" lon="1.89476">
        <ele>698.5</ele>
        <time>2026-07-08T07:25:47.000Z</time>
      </trkpt>
      <trkpt lat="45.80946" lon="1.89476">
        <ele>698.5</ele>
        <time>2026-07-08T07:25:48.000Z</time>
      </trkpt>
      <trkpt lat="45.80946" lon="1.89474">
        <ele>699.7</ele>
        <time>2026-07-08T07:25:49.000Z</time>
      </trkpt>
      <trkpt lat="45.80947" lon="1.89473">
        <ele>699.3</ele>
        <time>2026-07-08T07:25:50.000Z</time>
      </trkpt>
      <trkpt lat="45.80947" lon="1.89474">
        <ele>698.9</ele>
        <time>2026-07-08T07:25:51.000Z</time>
      </trkpt>
      <trkpt lat="45.80948" lon="1.89475">
        <ele>698.5</ele>
        <time>2026-07-08T07:25:52.000Z</time>
      </trkpt>
      <trkpt lat="45.80949" lon="1.89477">
        <ele>698.9</ele>
        <time>2026-07-08T07:25:53.000Z</time>
      </trkpt>
      <trkpt lat="45.8095" lon="1.89478">
        <ele>698.8</ele>
        <time>2026-07-08T07:25:54.000Z</time>
      </trkpt>
      <trkpt lat="45.8095" lon="1.8948">
        <ele>699.3</ele>
        <time>2026-07-08T07:25:55.000Z</time>
      </trkpt>
      <trkpt lat="45.80951" lon="1.89481">
        <ele>699</ele>
        <time>2026-07-08T07:25:56.000Z</time>
      </trkpt>
      <trkpt lat="45.80953" lon="1.89482">
        <ele>699</ele>
        <time>2026-07-08T07:25:57.000Z</time>
      </trkpt>
      <trkpt lat="45.80954" lon="1.89482">
        <ele>699.2</ele>
        <time>2026-07-08T07:25:58.000Z</time>
      </trkpt>
      <trkpt lat="45.80955" lon="1.89482">
        <ele>699.1</ele>
        <time>2026-07-08T07:25:59.000Z</time>
      </trkpt>
      <trkpt lat="45.80957" lon="1.89483">
        <ele>698.9</ele>
        <time>2026-07-08T07:26:00.000Z</time>
      </trkpt>
      <trkpt lat="45.80958" lon="1.89483">
        <ele>698.4</ele>
        <time>2026-07-08T07:26:01.000Z</time>
      </trkpt>
      <trkpt lat="45.80959" lon="1.89484">
        <ele>698.2</ele>
        <time>2026-07-08T07:26:02.000Z</time>
      </trkpt>
      <trkpt lat="45.8096" lon="1.89484">
        <ele>697.7</ele>
        <time>2026-07-08T07:26:03.000Z</time>
      </trkpt>
      <trkpt lat="45.80961" lon="1.89484">
        <ele>698</ele>
        <time>2026-07-08T07:26:04.000Z</time>
      </trkpt>
      <trkpt lat="45.80963" lon="1.89484">
        <ele>697.7</ele>
        <time>2026-07-08T07:26:05.000Z</time>
      </trkpt>
      <trkpt lat="45.80964" lon="1.89484">
        <ele>697.7</ele>
        <time>2026-07-08T07:26:06.000Z</time>
      </trkpt>
      <trkpt lat="45.80965" lon="1.89484">
        <ele>697.6</ele>
        <time>2026-07-08T07:26:07.000Z</time>
      </trkpt>
      <trkpt lat="45.80966" lon="1.89484">
        <ele>697.4</ele>
        <time>2026-07-08T07:26:08.000Z</time>
      </trkpt>
      <trkpt lat="45.80967" lon="1.89484">
        <ele>697.4</ele>
        <time>2026-07-08T07:26:09.000Z</time>
      </trkpt>
      <trkpt lat="45.80968" lon="1.89484">
        <ele>697.6</ele>
        <time>2026-07-08T07:26:10.000Z</time>
      </trkpt>
      <trkpt lat="45.80969" lon="1.89484">
        <ele>697.7</ele>
        <time>2026-07-08T07:26:11.000Z</time>
      </trkpt>
      <trkpt lat="45.8097" lon="1.89485">
        <ele>697.6</ele>
        <time>2026-07-08T07:26:12.000Z</time>
      </trkpt>
      <trkpt lat="45.80972" lon="1.89486">
        <ele>698</ele>
        <time>2026-07-08T07:26:13.000Z</time>
      </trkpt>
      <trkpt lat="45.80973" lon="1.89486">
        <ele>698.4</ele>
        <time>2026-07-08T07:26:14.000Z</time>
      </trkpt>
      <trkpt lat="45.80974" lon="1.89486">
        <ele>698.4</ele>
        <time>2026-07-08T07:26:15.000Z</time>
      </trkpt>
      <trkpt lat="45.80975" lon="1.89487">
        <ele>698.4</ele>
        <time>2026-07-08T07:26:16.000Z</time>
      </trkpt>
      <trkpt lat="45.80976" lon="1.89487">
        <ele>698.6</ele>
        <time>2026-07-08T07:26:17.000Z</time>
      </trkpt>
      <trkpt lat="45.80977" lon="1.89486">
        <ele>698.7</ele>
        <time>2026-07-08T07:26:18.000Z</time>
      </trkpt>
      <trkpt lat="45.80978" lon="1.89486">
        <ele>699.2</ele>
        <time>2026-07-08T07:26:19.000Z</time>
      </trkpt>
      <trkpt lat="45.80979" lon="1.89486">
        <ele>699.6</ele>
        <time>2026-07-08T07:26:20.000Z</time>
      </trkpt>
      <trkpt lat="45.8098" lon="1.89485">
        <ele>699.8</ele>
        <time>2026-07-08T07:26:21.000Z</time>
      </trkpt>
      <trkpt lat="45.80981" lon="1.89485">
        <ele>700</ele>
        <time>2026-07-08T07:26:22.000Z</time>
      </trkpt>
      <trkpt lat="45.80983" lon="1.89485">
        <ele>700</ele>
        <time>2026-07-08T07:26:23.000Z</time>
      </trkpt>
      <trkpt lat="45.80984" lon="1.89486">
        <ele>699.9</ele>
        <time>2026-07-08T07:26:24.000Z</time>
      </trkpt>
      <trkpt lat="45.80985" lon="1.89486">
        <ele>699</ele>
        <time>2026-07-08T07:26:25.000Z</time>
      </trkpt>
      <trkpt lat="45.80986" lon="1.89487">
        <ele>698.3</ele>
        <time>2026-07-08T07:26:26.000Z</time>
      </trkpt>
      <trkpt lat="45.80987" lon="1.89488">
        <ele>698.5</ele>
        <time>2026-07-08T07:26:27.000Z</time>
      </trkpt>
      <trkpt lat="45.80988" lon="1.89489">
        <ele>699</ele>
        <time>2026-07-08T07:26:28.000Z</time>
      </trkpt>
      <trkpt lat="45.80988" lon="1.8949">
        <ele>699.2</ele>
        <time>2026-07-08T07:26:29.000Z</time>
      </trkpt>
      <trkpt lat="45.80989" lon="1.89492">
        <ele>699.2</ele>
        <time>2026-07-08T07:26:30.000Z</time>
      </trkpt>
      <trkpt lat="45.8099" lon="1.89493">
        <ele>699.8</ele>
        <time>2026-07-08T07:26:31.000Z</time>
      </trkpt>
      <trkpt lat="45.80991" lon="1.89494">
        <ele>699.6</ele>
        <time>2026-07-08T07:26:32.000Z</time>
      </trkpt>
      <trkpt lat="45.80992" lon="1.89495">
        <ele>699.4</ele>
        <time>2026-07-08T07:26:33.000Z</time>
      </trkpt>
      <trkpt lat="45.80993" lon="1.89497">
        <ele>699</ele>
        <time>2026-07-08T07:26:34.000Z</time>
      </trkpt>
      <trkpt lat="45.80994" lon="1.89498">
        <ele>698.6</ele>
        <time>2026-07-08T07:26:35.000Z</time>
      </trkpt>
      <trkpt lat="45.80995" lon="1.895">
        <ele>698.7</ele>
        <time>2026-07-08T07:26:36.000Z</time>
      </trkpt>
      <trkpt lat="45.80996" lon="1.89501">
        <ele>698.2</ele>
        <time>2026-07-08T07:26:37.000Z</time>
      </trkpt>
      <trkpt lat="45.80997" lon="1.89502">
        <ele>697.8</ele>
        <time>2026-07-08T07:26:38.000Z</time>
      </trkpt>
      <trkpt lat="45.80999" lon="1.89504">
        <ele>698.2</ele>
        <time>2026-07-08T07:26:39.000Z</time>
      </trkpt>
      <trkpt lat="45.81001" lon="1.89506">
        <ele>698.5</ele>
        <time>2026-07-08T07:26:40.000Z</time>
      </trkpt>
      <trkpt lat="45.81002" lon="1.89507">
        <ele>699</ele>
        <time>2026-07-08T07:26:41.000Z</time>
      </trkpt>
      <trkpt lat="45.81004" lon="1.89507">
        <ele>699.3</ele>
        <time>2026-07-08T07:26:42.000Z</time>
      </trkpt>
      <trkpt lat="45.81006" lon="1.89507">
        <ele>699.2</ele>
        <time>2026-07-08T07:26:43.000Z</time>
      </trkpt>
      <trkpt lat="45.81007" lon="1.89506">
        <ele>698.1</ele>
        <time>2026-07-08T07:26:44.000Z</time>
      </trkpt>
      <trkpt lat="45.81008" lon="1.89506">
        <ele>697.5</ele>
        <time>2026-07-08T07:26:45.000Z</time>
      </trkpt>
      <trkpt lat="45.81009" lon="1.89505">
        <ele>697.5</ele>
        <time>2026-07-08T07:26:46.000Z</time>
      </trkpt>
      <trkpt lat="45.81011" lon="1.89505">
        <ele>697.6</ele>
        <time>2026-07-08T07:26:47.000Z</time>
      </trkpt>
      <trkpt lat="45.81012" lon="1.89505">
        <ele>697.6</ele>
        <time>2026-07-08T07:26:48.000Z</time>
      </trkpt>
      <trkpt lat="45.81013" lon="1.89506">
        <ele>698.1</ele>
        <time>2026-07-08T07:26:49.000Z</time>
      </trkpt>
      <trkpt lat="45.81015" lon="1.89506">
        <ele>697.6</ele>
        <time>2026-07-08T07:26:50.000Z</time>
      </trkpt>
      <trkpt lat="45.81016" lon="1.89506">
        <ele>697.4</ele>
        <time>2026-07-08T07:26:51.000Z</time>
      </trkpt>
      <trkpt lat="45.81017" lon="1.89507">
        <ele>697.5</ele>
        <time>2026-07-08T07:26:52.000Z</time>
      </trkpt>
      <trkpt lat="45.81018" lon="1.89507">
        <ele>697.5</ele>
        <time>2026-07-08T07:26:53.000Z</time>
      </trkpt>
      <trkpt lat="45.81018" lon="1.89507">
        <ele>697.9</ele>
        <time>2026-07-08T07:26:54.000Z</time>
      </trkpt>
      <trkpt lat="45.8102" lon="1.89507">
        <ele>698</ele>
        <time>2026-07-08T07:26:55.000Z</time>
      </trkpt>
      <trkpt lat="45.81021" lon="1.89508">
        <ele>697.7</ele>
        <time>2026-07-08T07:26:56.000Z</time>
      </trkpt>
      <trkpt lat="45.81023" lon="1.89507">
        <ele>697.6</ele>
        <time>2026-07-08T07:26:57.000Z</time>
      </trkpt>
      <trkpt lat="45.81024" lon="1.89507">
        <ele>697.2</ele>
        <time>2026-07-08T07:26:58.000Z</time>
      </trkpt>
      <trkpt lat="45.81026" lon="1.89506">
        <ele>697.5</ele>
        <time>2026-07-08T07:26:59.000Z</time>
      </trkpt>
      <trkpt lat="45.81027" lon="1.89505">
        <ele>697.4</ele>
        <time>2026-07-08T07:27:00.000Z</time>
      </trkpt>
      <trkpt lat="45.81028" lon="1.89505">
        <ele>697.5</ele>
        <time>2026-07-08T07:27:01.000Z</time>
      </trkpt>
      <trkpt lat="45.8103" lon="1.89504">
        <ele>698.8</ele>
        <time>2026-07-08T07:27:02.000Z</time>
      </trkpt>
      <trkpt lat="45.81032" lon="1.89504">
        <ele>698.3</ele>
        <time>2026-07-08T07:27:03.000Z</time>
      </trkpt>
      <trkpt lat="45.81033" lon="1.89503">
        <ele>697.8</ele>
        <time>2026-07-08T07:27:04.000Z</time>
      </trkpt>
      <trkpt lat="45.81035" lon="1.89503">
        <ele>698.1</ele>
        <time>2026-07-08T07:27:05.000Z</time>
      </trkpt>
      <trkpt lat="45.81036" lon="1.89502">
        <ele>698.6</ele>
        <time>2026-07-08T07:27:06.000Z</time>
      </trkpt>
      <trkpt lat="45.81037" lon="1.89502">
        <ele>698.2</ele>
        <time>2026-07-08T07:27:07.000Z</time>
      </trkpt>
      <trkpt lat="45.81038" lon="1.895">
        <ele>697</ele>
        <time>2026-07-08T07:27:08.000Z</time>
      </trkpt>
      <trkpt lat="45.81039" lon="1.89499">
        <ele>697.1</ele>
        <time>2026-07-08T07:27:09.000Z</time>
      </trkpt>
      <trkpt lat="45.81041" lon="1.89498">
        <ele>697.2</ele>
        <time>2026-07-08T07:27:10.000Z</time>
      </trkpt>
      <trkpt lat="45.81042" lon="1.89497">
        <ele>697.5</ele>
        <time>2026-07-08T07:27:11.000Z</time>
      </trkpt>
      <trkpt lat="45.81043" lon="1.89496">
        <ele>697</ele>
        <time>2026-07-08T07:27:12.000Z</time>
      </trkpt>
      <trkpt lat="45.81044" lon="1.89495">
        <ele>697.4</ele>
        <time>2026-07-08T07:27:13.000Z</time>
      </trkpt>
      <trkpt lat="45.81045" lon="1.89493">
        <ele>697</ele>
        <time>2026-07-08T07:27:14.000Z</time>
      </trkpt>
      <trkpt lat="45.81046" lon="1.89492">
        <ele>698.2</ele>
        <time>2026-07-08T07:27:15.000Z</time>
      </trkpt>
      <trkpt lat="45.81047" lon="1.89491">
        <ele>698.3</ele>
        <time>2026-07-08T07:27:16.000Z</time>
      </trkpt>
      <trkpt lat="45.81049" lon="1.89489">
        <ele>697.5</ele>
        <time>2026-07-08T07:27:17.000Z</time>
      </trkpt>
      <trkpt lat="45.81051" lon="1.89487">
        <ele>698.2</ele>
        <time>2026-07-08T07:27:18.000Z</time>
      </trkpt>
      <trkpt lat="45.81053" lon="1.89485">
        <ele>698.3</ele>
        <time>2026-07-08T07:27:19.000Z</time>
      </trkpt>
      <trkpt lat="45.81054" lon="1.89483">
        <ele>698.3</ele>
        <time>2026-07-08T07:27:20.000Z</time>
      </trkpt>
      <trkpt lat="45.81055" lon="1.89482">
        <ele>697.9</ele>
        <time>2026-07-08T07:27:21.000Z</time>
      </trkpt>
      <trkpt lat="45.81056" lon="1.89481">
        <ele>697.7</ele>
        <time>2026-07-08T07:27:22.000Z</time>
      </trkpt>
      <trkpt lat="45.81057" lon="1.89479">
        <ele>697.9</ele>
        <time>2026-07-08T07:27:23.000Z</time>
      </trkpt>
      <trkpt lat="45.81059" lon="1.89478">
        <ele>698.9</ele>
        <time>2026-07-08T07:27:24.000Z</time>
      </trkpt>
      <trkpt lat="45.8106" lon="1.89477">
        <ele>699</ele>
        <time>2026-07-08T07:27:25.000Z</time>
      </trkpt>
      <trkpt lat="45.81062" lon="1.89476">
        <ele>699.2</ele>
        <time>2026-07-08T07:27:26.000Z</time>
      </trkpt>
      <trkpt lat="45.81064" lon="1.89474">
        <ele>699.2</ele>
        <time>2026-07-08T07:27:27.000Z</time>
      </trkpt>
      <trkpt lat="45.81065" lon="1.89471">
        <ele>698.4</ele>
        <time>2026-07-08T07:27:28.000Z</time>
      </trkpt>
      <trkpt lat="45.81067" lon="1.89469">
        <ele>698.4</ele>
        <time>2026-07-08T07:27:29.000Z</time>
      </trkpt>
      <trkpt lat="45.81068" lon="1.89468">
        <ele>698.7</ele>
        <time>2026-07-08T07:27:30.000Z</time>
      </trkpt>
      <trkpt lat="45.81069" lon="1.89467">
        <ele>699.6</ele>
        <time>2026-07-08T07:27:31.000Z</time>
      </trkpt>
      <trkpt lat="45.8107" lon="1.89466">
        <ele>699.3</ele>
        <time>2026-07-08T07:27:32.000Z</time>
      </trkpt>
      <trkpt lat="45.81071" lon="1.89464">
        <ele>699.1</ele>
        <time>2026-07-08T07:27:33.000Z</time>
      </trkpt>
      <trkpt lat="45.81071" lon="1.89462">
        <ele>698.7</ele>
        <time>2026-07-08T07:27:34.000Z</time>
      </trkpt>
      <trkpt lat="45.81073" lon="1.89461">
        <ele>698.7</ele>
        <time>2026-07-08T07:27:35.000Z</time>
      </trkpt>
      <trkpt lat="45.81074" lon="1.89461">
        <ele>698.7</ele>
        <time>2026-07-08T07:27:36.000Z</time>
      </trkpt>
      <trkpt lat="45.81076" lon="1.89461">
        <ele>699.8</ele>
        <time>2026-07-08T07:27:37.000Z</time>
      </trkpt>
      <trkpt lat="45.81078" lon="1.89461">
        <ele>700</ele>
        <time>2026-07-08T07:27:38.000Z</time>
      </trkpt>
      <trkpt lat="45.81079" lon="1.8946">
        <ele>699.8</ele>
        <time>2026-07-08T07:27:39.000Z</time>
      </trkpt>
      <trkpt lat="45.81079" lon="1.89458">
        <ele>699.4</ele>
        <time>2026-07-08T07:27:40.000Z</time>
      </trkpt>
      <trkpt lat="45.8108" lon="1.89456">
        <ele>699.5</ele>
        <time>2026-07-08T07:27:41.000Z</time>
      </trkpt>
      <trkpt lat="45.81081" lon="1.89454">
        <ele>699.7</ele>
        <time>2026-07-08T07:27:42.000Z</time>
      </trkpt>
      <trkpt lat="45.81082" lon="1.89452">
        <ele>700.3</ele>
        <time>2026-07-08T07:27:43.000Z</time>
      </trkpt>
      <trkpt lat="45.81082" lon="1.89451">
        <ele>700.3</ele>
        <time>2026-07-08T07:27:44.000Z</time>
      </trkpt>
      <trkpt lat="45.81083" lon="1.89449">
        <ele>701.1</ele>
        <time>2026-07-08T07:27:45.000Z</time>
      </trkpt>
      <trkpt lat="45.81084" lon="1.89448">
        <ele>701.4</ele>
        <time>2026-07-08T07:27:46.000Z</time>
      </trkpt>
      <trkpt lat="45.81085" lon="1.89446">
        <ele>701.2</ele>
        <time>2026-07-08T07:27:47.000Z</time>
      </trkpt>
      <trkpt lat="45.81086" lon="1.89445">
        <ele>702.2</ele>
        <time>2026-07-08T07:27:48.000Z</time>
      </trkpt>
      <trkpt lat="45.81087" lon="1.89444">
        <ele>701.3</ele>
        <time>2026-07-08T07:27:49.000Z</time>
      </trkpt>
      <trkpt lat="45.81088" lon="1.89442">
        <ele>700.3</ele>
        <time>2026-07-08T07:27:50.000Z</time>
      </trkpt>
      <trkpt lat="45.81089" lon="1.89441">
        <ele>700</ele>
        <time>2026-07-08T07:27:51.000Z</time>
      </trkpt>
      <trkpt lat="45.8109" lon="1.89439">
        <ele>701.5</ele>
        <time>2026-07-08T07:27:52.000Z</time>
      </trkpt>
      <trkpt lat="45.81091" lon="1.89438">
        <ele>702.5</ele>
        <time>2026-07-08T07:27:53.000Z</time>
      </trkpt>
      <trkpt lat="45.81092" lon="1.89437">
        <ele>699.9</ele>
        <time>2026-07-08T07:27:54.000Z</time>
      </trkpt>
      <trkpt lat="45.81092" lon="1.89437">
        <ele>701.1</ele>
        <time>2026-07-08T07:27:55.000Z</time>
      </trkpt>
      <trkpt lat="45.81092" lon="1.89437">
        <ele>701</ele>
        <time>2026-07-08T07:27:56.000Z</time>
      </trkpt>
      <trkpt lat="45.81092" lon="1.89437">
        <ele>701</ele>
        <time>2026-07-08T07:27:57.000Z</time>
      </trkpt>
      <trkpt lat="45.81092" lon="1.89437">
        <ele>701</ele>
        <time>2026-07-08T07:27:58.000Z</time>
      </trkpt>
      <trkpt lat="45.81093" lon="1.89436">
        <ele>701.3</ele>
        <time>2026-07-08T07:27:59.000Z</time>
      </trkpt>
      <trkpt lat="45.81093" lon="1.89435">
        <ele>701.1</ele>
        <time>2026-07-08T07:28:00.000Z</time>
      </trkpt>
      <trkpt lat="45.81094" lon="1.89434">
        <ele>702.3</ele>
        <time>2026-07-08T07:28:01.000Z</time>
      </trkpt>
      <trkpt lat="45.81095" lon="1.89431">
        <ele>702.6</ele>
        <time>2026-07-08T07:28:02.000Z</time>
      </trkpt>
      <trkpt lat="45.81095" lon="1.89429">
        <ele>702.6</ele>
        <time>2026-07-08T07:28:03.000Z</time>
      </trkpt>
      <trkpt lat="45.81097" lon="1.89427">
        <ele>701.8</ele>
        <time>2026-07-08T07:28:04.000Z</time>
      </trkpt>
      <trkpt lat="45.81099" lon="1.89425">
        <ele>701.6</ele>
        <time>2026-07-08T07:28:05.000Z</time>
      </trkpt>
      <trkpt lat="45.81101" lon="1.89423">
        <ele>702.2</ele>
        <time>2026-07-08T07:28:06.000Z</time>
      </trkpt>
      <trkpt lat="45.81103" lon="1.8942">
        <ele>702.7</ele>
        <time>2026-07-08T07:28:07.000Z</time>
      </trkpt>
      <trkpt lat="45.81103" lon="1.89418">
        <ele>702.7</ele>
        <time>2026-07-08T07:28:08.000Z</time>
      </trkpt>
      <trkpt lat="45.81103" lon="1.89416">
        <ele>704.1</ele>
        <time>2026-07-08T07:28:09.000Z</time>
      </trkpt>
      <trkpt lat="45.81104" lon="1.89414">
        <ele>703.7</ele>
        <time>2026-07-08T07:28:10.000Z</time>
      </trkpt>
      <trkpt lat="45.81104" lon="1.89412">
        <ele>702.7</ele>
        <time>2026-07-08T07:28:11.000Z</time>
      </trkpt>
      <trkpt lat="45.81104" lon="1.8941">
        <ele>703</ele>
        <time>2026-07-08T07:28:12.000Z</time>
      </trkpt>
      <trkpt lat="45.81105" lon="1.89408">
        <ele>703.5</ele>
        <time>2026-07-08T07:28:13.000Z</time>
      </trkpt>
      <trkpt lat="45.81106" lon="1.89406">
        <ele>703.8</ele>
        <time>2026-07-08T07:28:14.000Z</time>
      </trkpt>
      <trkpt lat="45.81106" lon="1.89405">
        <ele>704.4</ele>
        <time>2026-07-08T07:28:15.000Z</time>
      </trkpt>
      <trkpt lat="45.81107" lon="1.89404">
        <ele>706</ele>
        <time>2026-07-08T07:28:16.000Z</time>
      </trkpt>
      <trkpt lat="45.81107" lon="1.89402">
        <ele>705.6</ele>
        <time>2026-07-08T07:28:17.000Z</time>
      </trkpt>
      <trkpt lat="45.81108" lon="1.894">
        <ele>705.1</ele>
        <time>2026-07-08T07:28:18.000Z</time>
      </trkpt>
      <trkpt lat="45.81109" lon="1.89398">
        <ele>705.1</ele>
        <time>2026-07-08T07:28:19.000Z</time>
      </trkpt>
      <trkpt lat="45.8111" lon="1.89397">
        <ele>706</ele>
        <time>2026-07-08T07:28:20.000Z</time>
      </trkpt>
      <trkpt lat="45.81111" lon="1.89395">
        <ele>705.8</ele>
        <time>2026-07-08T07:28:21.000Z</time>
      </trkpt>
      <trkpt lat="45.81112" lon="1.89394">
        <ele>706.9</ele>
        <time>2026-07-08T07:28:22.000Z</time>
      </trkpt>
      <trkpt lat="45.81112" lon="1.89392">
        <ele>707.9</ele>
        <time>2026-07-08T07:28:23.000Z</time>
      </trkpt>
      <trkpt lat="45.81113" lon="1.8939">
        <ele>708</ele>
        <time>2026-07-08T07:28:24.000Z</time>
      </trkpt>
      <trkpt lat="45.81114" lon="1.89388">
        <ele>707.9</ele>
        <time>2026-07-08T07:28:25.000Z</time>
      </trkpt>
      <trkpt lat="45.81114" lon="1.89386">
        <ele>708.7</ele>
        <time>2026-07-08T07:28:26.000Z</time>
      </trkpt>
      <trkpt lat="45.81114" lon="1.89385">
        <ele>708.7</ele>
        <time>2026-07-08T07:28:27.000Z</time>
      </trkpt>
      <trkpt lat="45.81115" lon="1.89382">
        <ele>707</ele>
        <time>2026-07-08T07:28:28.000Z</time>
      </trkpt>
      <trkpt lat="45.81115" lon="1.89381">
        <ele>706.8</ele>
        <time>2026-07-08T07:28:29.000Z</time>
      </trkpt>
      <trkpt lat="45.81116" lon="1.89379">
        <ele>705.5</ele>
        <time>2026-07-08T07:28:30.000Z</time>
      </trkpt>
      <trkpt lat="45.81117" lon="1.89377">
        <ele>705.8</ele>
        <time>2026-07-08T07:28:31.000Z</time>
      </trkpt>
      <trkpt lat="45.81117" lon="1.89376">
        <ele>707.5</ele>
        <time>2026-07-08T07:28:32.000Z</time>
      </trkpt>
      <trkpt lat="45.81117" lon="1.89374">
        <ele>708.2</ele>
        <time>2026-07-08T07:28:33.000Z</time>
      </trkpt>
      <trkpt lat="45.81117" lon="1.89373">
        <ele>707.5</ele>
        <time>2026-07-08T07:28:34.000Z</time>
      </trkpt>
      <trkpt lat="45.81118" lon="1.89371">
        <ele>708</ele>
        <time>2026-07-08T07:28:35.000Z</time>
      </trkpt>
      <trkpt lat="45.81118" lon="1.89369">
        <ele>708.7</ele>
        <time>2026-07-08T07:28:36.000Z</time>
      </trkpt>
      <trkpt lat="45.81118" lon="1.89366">
        <ele>708.5</ele>
        <time>2026-07-08T07:28:37.000Z</time>
      </trkpt>
      <trkpt lat="45.81117" lon="1.89364">
        <ele>708.2</ele>
        <time>2026-07-08T07:28:38.000Z</time>
      </trkpt>
      <trkpt lat="45.81118" lon="1.89361">
        <ele>707.1</ele>
        <time>2026-07-08T07:28:39.000Z</time>
      </trkpt>
      <trkpt lat="45.81117" lon="1.89356">
        <ele>707.4</ele>
        <time>2026-07-08T07:28:40.000Z</time>
      </trkpt>
      <trkpt lat="45.81117" lon="1.89354">
        <ele>707.9</ele>
        <time>2026-07-08T07:28:41.000Z</time>
      </trkpt>
      <trkpt lat="45.81117" lon="1.89351">
        <ele>708.3</ele>
        <time>2026-07-08T07:28:42.000Z</time>
      </trkpt>
      <trkpt lat="45.81118" lon="1.89349">
        <ele>709.3</ele>
        <time>2026-07-08T07:28:43.000Z</time>
      </trkpt>
      <trkpt lat="45.81118" lon="1.89346">
        <ele>709.2</ele>
        <time>2026-07-08T07:28:44.000Z</time>
      </trkpt>
      <trkpt lat="45.81119" lon="1.89344">
        <ele>708.8</ele>
        <time>2026-07-08T07:28:45.000Z</time>
      </trkpt>
      <trkpt lat="45.8112" lon="1.89342">
        <ele>708.6</ele>
        <time>2026-07-08T07:28:46.000Z</time>
      </trkpt>
      <trkpt lat="45.81122" lon="1.89337">
        <ele>708.6</ele>
        <time>2026-07-08T07:28:47.000Z</time>
      </trkpt>
      <trkpt lat="45.81124" lon="1.89336">
        <ele>708.3</ele>
        <time>2026-07-08T07:28:48.000Z</time>
      </trkpt>
      <trkpt lat="45.81126" lon="1.89334">
        <ele>707.8</ele>
        <time>2026-07-08T07:28:49.000Z</time>
      </trkpt>
      <trkpt lat="45.81127" lon="1.89333">
        <ele>706.8</ele>
        <time>2026-07-08T07:28:50.000Z</time>
      </trkpt>
      <trkpt lat="45.81129" lon="1.89332">
        <ele>706.8</ele>
        <time>2026-07-08T07:28:51.000Z</time>
      </trkpt>
      <trkpt lat="45.81131" lon="1.89331">
        <ele>706.5</ele>
        <time>2026-07-08T07:28:52.000Z</time>
      </trkpt>
      <trkpt lat="45.81133" lon="1.8933">
        <ele>707.5</ele>
        <time>2026-07-08T07:28:53.000Z</time>
      </trkpt>
      <trkpt lat="45.81134" lon="1.8933">
        <ele>708</ele>
        <time>2026-07-08T07:28:54.000Z</time>
      </trkpt>
      <trkpt lat="45.81136" lon="1.89329">
        <ele>708.5</ele>
        <time>2026-07-08T07:28:55.000Z</time>
      </trkpt>
      <trkpt lat="45.81137" lon="1.89329">
        <ele>708.3</ele>
        <time>2026-07-08T07:28:56.000Z</time>
      </trkpt>
      <trkpt lat="45.81139" lon="1.89329">
        <ele>707.7</ele>
        <time>2026-07-08T07:28:57.000Z</time>
      </trkpt>
      <trkpt lat="45.8114" lon="1.89329">
        <ele>707.3</ele>
        <time>2026-07-08T07:28:58.000Z</time>
      </trkpt>
      <trkpt lat="45.81141" lon="1.89328">
        <ele>706.8</ele>
        <time>2026-07-08T07:28:59.000Z</time>
      </trkpt>
      <trkpt lat="45.81142" lon="1.89327">
        <ele>706.6</ele>
        <time>2026-07-08T07:29:00.000Z</time>
      </trkpt>
      <trkpt lat="45.81144" lon="1.89327">
        <ele>706.3</ele>
        <time>2026-07-08T07:29:01.000Z</time>
      </trkpt>
      <trkpt lat="45.81145" lon="1.89327">
        <ele>706.7</ele>
        <time>2026-07-08T07:29:02.000Z</time>
      </trkpt>
      <trkpt lat="45.81146" lon="1.89327">
        <ele>708.3</ele>
        <time>2026-07-08T07:29:03.000Z</time>
      </trkpt>
      <trkpt lat="45.81147" lon="1.89326">
        <ele>707.7</ele>
        <time>2026-07-08T07:29:04.000Z</time>
      </trkpt>
      <trkpt lat="45.81149" lon="1.89325">
        <ele>708.1</ele>
        <time>2026-07-08T07:29:05.000Z</time>
      </trkpt>
      <trkpt lat="45.81151" lon="1.89323">
        <ele>709</ele>
        <time>2026-07-08T07:29:06.000Z</time>
      </trkpt>
      <trkpt lat="45.81152" lon="1.89322">
        <ele>709.3</ele>
        <time>2026-07-08T07:29:07.000Z</time>
      </trkpt>
      <trkpt lat="45.81152" lon="1.8932">
        <ele>708.1</ele>
        <time>2026-07-08T07:29:08.000Z</time>
      </trkpt>
      <trkpt lat="45.81152" lon="1.89318">
        <ele>708.2</ele>
        <time>2026-07-08T07:29:09.000Z</time>
      </trkpt>
      <trkpt lat="45.81153" lon="1.89316">
        <ele>707.5</ele>
        <time>2026-07-08T07:29:10.000Z</time>
      </trkpt>
      <trkpt lat="45.81153" lon="1.89314">
        <ele>707.3</ele>
        <time>2026-07-08T07:29:11.000Z</time>
      </trkpt>
      <trkpt lat="45.81153" lon="1.89312">
        <ele>706.9</ele>
        <time>2026-07-08T07:29:12.000Z</time>
      </trkpt>
      <trkpt lat="45.81154" lon="1.89309">
        <ele>706.8</ele>
        <time>2026-07-08T07:29:13.000Z</time>
      </trkpt>
      <trkpt lat="45.81154" lon="1.89307">
        <ele>707</ele>
        <time>2026-07-08T07:29:14.000Z</time>
      </trkpt>
      <trkpt lat="45.81154" lon="1.89304">
        <ele>706.2</ele>
        <time>2026-07-08T07:29:15.000Z</time>
      </trkpt>
      <trkpt lat="45.81153" lon="1.89303">
        <ele>706</ele>
        <time>2026-07-08T07:29:16.000Z</time>
      </trkpt>
      <trkpt lat="45.81153" lon="1.89301">
        <ele>706.2</ele>
        <time>2026-07-08T07:29:17.000Z</time>
      </trkpt>
      <trkpt lat="45.81152" lon="1.89298">
        <ele>705.9</ele>
        <time>2026-07-08T07:29:18.000Z</time>
      </trkpt>
      <trkpt lat="45.81151" lon="1.89295">
        <ele>706.9</ele>
        <time>2026-07-08T07:29:19.000Z</time>
      </trkpt>
      <trkpt lat="45.8115" lon="1.89293">
        <ele>710.5</ele>
        <time>2026-07-08T07:29:20.000Z</time>
      </trkpt>
      <trkpt lat="45.8115" lon="1.8929">
        <ele>710.5</ele>
        <time>2026-07-08T07:29:21.000Z</time>
      </trkpt>
      <trkpt lat="45.8115" lon="1.89288">
        <ele>711</ele>
        <time>2026-07-08T07:29:22.000Z</time>
      </trkpt>
      <trkpt lat="45.81149" lon="1.89286">
        <ele>711.3</ele>
        <time>2026-07-08T07:29:23.000Z</time>
      </trkpt>
      <trkpt lat="45.81148" lon="1.89285">
        <ele>711</ele>
        <time>2026-07-08T07:29:24.000Z</time>
      </trkpt>
      <trkpt lat="45.81147" lon="1.89283">
        <ele>711</ele>
        <time>2026-07-08T07:29:25.000Z</time>
      </trkpt>
      <trkpt lat="45.81146" lon="1.89282">
        <ele>710.3</ele>
        <time>2026-07-08T07:29:26.000Z</time>
      </trkpt>
      <trkpt lat="45.81145" lon="1.8928">
        <ele>710.1</ele>
        <time>2026-07-08T07:29:27.000Z</time>
      </trkpt>
      <trkpt lat="45.81144" lon="1.89278">
        <ele>710.1</ele>
        <time>2026-07-08T07:29:28.000Z</time>
      </trkpt>
      <trkpt lat="45.81143" lon="1.89276">
        <ele>710.2</ele>
        <time>2026-07-08T07:29:29.000Z</time>
      </trkpt>
      <trkpt lat="45.81142" lon="1.89274">
        <ele>709.4</ele>
        <time>2026-07-08T07:29:30.000Z</time>
      </trkpt>
      <trkpt lat="45.81141" lon="1.89272">
        <ele>708.6</ele>
        <time>2026-07-08T07:29:31.000Z</time>
      </trkpt>
      <trkpt lat="45.81141" lon="1.89269">
        <ele>708.6</ele>
        <time>2026-07-08T07:29:32.000Z</time>
      </trkpt>
      <trkpt lat="45.8114" lon="1.89267">
        <ele>708.6</ele>
        <time>2026-07-08T07:29:33.000Z</time>
      </trkpt>
      <trkpt lat="45.81139" lon="1.89265">
        <ele>709.1</ele>
        <time>2026-07-08T07:29:34.000Z</time>
      </trkpt>
      <trkpt lat="45.81138" lon="1.89263">
        <ele>710</ele>
        <time>2026-07-08T07:29:35.000Z</time>
      </trkpt>
      <trkpt lat="45.81137" lon="1.89261">
        <ele>710.7</ele>
        <time>2026-07-08T07:29:36.000Z</time>
      </trkpt>
      <trkpt lat="45.81138" lon="1.89258">
        <ele>709.7</ele>
        <time>2026-07-08T07:29:37.000Z</time>
      </trkpt>
      <trkpt lat="45.81138" lon="1.89255">
        <ele>710.4</ele>
        <time>2026-07-08T07:29:38.000Z</time>
      </trkpt>
      <trkpt lat="45.81138" lon="1.89253">
        <ele>710.8</ele>
        <time>2026-07-08T07:29:39.000Z</time>
      </trkpt>
      <trkpt lat="45.81138" lon="1.8925">
        <ele>711.4</ele>
        <time>2026-07-08T07:29:40.000Z</time>
      </trkpt>
      <trkpt lat="45.81139" lon="1.89248">
        <ele>710.9</ele>
        <time>2026-07-08T07:29:41.000Z</time>
      </trkpt>
      <trkpt lat="45.8114" lon="1.89246">
        <ele>711.1</ele>
        <time>2026-07-08T07:29:42.000Z</time>
      </trkpt>
      <trkpt lat="45.81141" lon="1.89244">
        <ele>712.3</ele>
        <time>2026-07-08T07:29:43.000Z</time>
      </trkpt>
      <trkpt lat="45.81142" lon="1.89243">
        <ele>712</ele>
        <time>2026-07-08T07:29:44.000Z</time>
      </trkpt>
      <trkpt lat="45.81143" lon="1.89241">
        <ele>712.4</ele>
        <time>2026-07-08T07:29:45.000Z</time>
      </trkpt>
      <trkpt lat="45.81144" lon="1.89239">
        <ele>712.7</ele>
        <time>2026-07-08T07:29:46.000Z</time>
      </trkpt>
      <trkpt lat="45.81145" lon="1.89238">
        <ele>713.2</ele>
        <time>2026-07-08T07:29:47.000Z</time>
      </trkpt>
      <trkpt lat="45.81146" lon="1.89236">
        <ele>713.8</ele>
        <time>2026-07-08T07:29:48.000Z</time>
      </trkpt>
      <trkpt lat="45.81147" lon="1.89234">
        <ele>712.9</ele>
        <time>2026-07-08T07:29:49.000Z</time>
      </trkpt>
      <trkpt lat="45.81149" lon="1.89232">
        <ele>711.6</ele>
        <time>2026-07-08T07:29:50.000Z</time>
      </trkpt>
      <trkpt lat="45.8115" lon="1.89229">
        <ele>711.2</ele>
        <time>2026-07-08T07:29:51.000Z</time>
      </trkpt>
      <trkpt lat="45.8115" lon="1.89226">
        <ele>710.6</ele>
        <time>2026-07-08T07:29:52.000Z</time>
      </trkpt>
      <trkpt lat="45.81151" lon="1.89223">
        <ele>709.9</ele>
        <time>2026-07-08T07:29:53.000Z</time>
      </trkpt>
      <trkpt lat="45.81152" lon="1.8922">
        <ele>709.4</ele>
        <time>2026-07-08T07:29:54.000Z</time>
      </trkpt>
      <trkpt lat="45.81153" lon="1.89218">
        <ele>709.8</ele>
        <time>2026-07-08T07:29:55.000Z</time>
      </trkpt>
      <trkpt lat="45.81154" lon="1.89215">
        <ele>709.8</ele>
        <time>2026-07-08T07:29:56.000Z</time>
      </trkpt>
      <trkpt lat="45.81155" lon="1.89213">
        <ele>709.5</ele>
        <time>2026-07-08T07:29:57.000Z</time>
      </trkpt>
      <trkpt lat="45.81157" lon="1.89212">
        <ele>709.5</ele>
        <time>2026-07-08T07:29:58.000Z</time>
      </trkpt>
      <trkpt lat="45.81158" lon="1.89212">
        <ele>710.8</ele>
        <time>2026-07-08T07:29:59.000Z</time>
      </trkpt>
      <trkpt lat="45.81158" lon="1.89211">
        <ele>710.9</ele>
        <time>2026-07-08T07:30:00.000Z</time>
      </trkpt>
      <trkpt lat="45.81159" lon="1.8921">
        <ele>710.9</ele>
        <time>2026-07-08T07:30:01.000Z</time>
      </trkpt>
      <trkpt lat="45.8116" lon="1.89209">
        <ele>711.3</ele>
        <time>2026-07-08T07:30:02.000Z</time>
      </trkpt>
      <trkpt lat="45.81161" lon="1.89208">
        <ele>710.9</ele>
        <time>2026-07-08T07:30:03.000Z</time>
      </trkpt>
      <trkpt lat="45.81163" lon="1.89207">
        <ele>711.1</ele>
        <time>2026-07-08T07:30:04.000Z</time>
      </trkpt>
      <trkpt lat="45.81164" lon="1.89205">
        <ele>711.3</ele>
        <time>2026-07-08T07:30:05.000Z</time>
      </trkpt>
      <trkpt lat="45.81166" lon="1.89203">
        <ele>711.4</ele>
        <time>2026-07-08T07:30:06.000Z</time>
      </trkpt>
      <trkpt lat="45.81167" lon="1.89202">
        <ele>711.6</ele>
        <time>2026-07-08T07:30:07.000Z</time>
      </trkpt>
      <trkpt lat="45.81168" lon="1.892">
        <ele>711.5</ele>
        <time>2026-07-08T07:30:08.000Z</time>
      </trkpt>
      <trkpt lat="45.81169" lon="1.89198">
        <ele>711.2</ele>
        <time>2026-07-08T07:30:09.000Z</time>
      </trkpt>
      <trkpt lat="45.81171" lon="1.89196">
        <ele>711.2</ele>
        <time>2026-07-08T07:30:10.000Z</time>
      </trkpt>
      <trkpt lat="45.81172" lon="1.89194">
        <ele>710.8</ele>
        <time>2026-07-08T07:30:11.000Z</time>
      </trkpt>
      <trkpt lat="45.81173" lon="1.89192">
        <ele>710.9</ele>
        <time>2026-07-08T07:30:12.000Z</time>
      </trkpt>
      <trkpt lat="45.81174" lon="1.89189">
        <ele>710.8</ele>
        <time>2026-07-08T07:30:13.000Z</time>
      </trkpt>
      <trkpt lat="45.81175" lon="1.89188">
        <ele>710.5</ele>
        <time>2026-07-08T07:30:14.000Z</time>
      </trkpt>
      <trkpt lat="45.81176" lon="1.89186">
        <ele>710.3</ele>
        <time>2026-07-08T07:30:15.000Z</time>
      </trkpt>
      <trkpt lat="45.81177" lon="1.89184">
        <ele>709.8</ele>
        <time>2026-07-08T07:30:16.000Z</time>
      </trkpt>
      <trkpt lat="45.81178" lon="1.89182">
        <ele>709</ele>
        <time>2026-07-08T07:30:17.000Z</time>
      </trkpt>
      <trkpt lat="45.81179" lon="1.8918">
        <ele>708.7</ele>
        <time>2026-07-08T07:30:18.000Z</time>
      </trkpt>
      <trkpt lat="45.81179" lon="1.89179">
        <ele>710.1</ele>
        <time>2026-07-08T07:30:19.000Z</time>
      </trkpt>
      <trkpt lat="45.8118" lon="1.89178">
        <ele>710.5</ele>
        <time>2026-07-08T07:30:20.000Z</time>
      </trkpt>
      <trkpt lat="45.81181" lon="1.89177">
        <ele>710.9</ele>
        <time>2026-07-08T07:30:21.000Z</time>
      </trkpt>
      <trkpt lat="45.81182" lon="1.89176">
        <ele>711.6</ele>
        <time>2026-07-08T07:30:22.000Z</time>
      </trkpt>
      <trkpt lat="45.81184" lon="1.89175">
        <ele>710</ele>
        <time>2026-07-08T07:30:23.000Z</time>
      </trkpt>
      <trkpt lat="45.81186" lon="1.89174">
        <ele>710.4</ele>
        <time>2026-07-08T07:30:24.000Z</time>
      </trkpt>
      <trkpt lat="45.81188" lon="1.89174">
        <ele>710.2</ele>
        <time>2026-07-08T07:30:25.000Z</time>
      </trkpt>
      <trkpt lat="45.8119" lon="1.89173">
        <ele>710.1</ele>
        <time>2026-07-08T07:30:26.000Z</time>
      </trkpt>
      <trkpt lat="45.81191" lon="1.89173">
        <ele>709.8</ele>
        <time>2026-07-08T07:30:27.000Z</time>
      </trkpt>
      <trkpt lat="45.81192" lon="1.89173">
        <ele>709.7</ele>
        <time>2026-07-08T07:30:28.000Z</time>
      </trkpt>
      <trkpt lat="45.81193" lon="1.89172">
        <ele>710.4</ele>
        <time>2026-07-08T07:30:29.000Z</time>
      </trkpt>
      <trkpt lat="45.81195" lon="1.89172">
        <ele>710.1</ele>
        <time>2026-07-08T07:30:30.000Z</time>
      </trkpt>
      <trkpt lat="45.81196" lon="1.89172">
        <ele>710.3</ele>
        <time>2026-07-08T07:30:31.000Z</time>
      </trkpt>
      <trkpt lat="45.81198" lon="1.89172">
        <ele>710.1</ele>
        <time>2026-07-08T07:30:32.000Z</time>
      </trkpt>
      <trkpt lat="45.81199" lon="1.89172">
        <ele>709.7</ele>
        <time>2026-07-08T07:30:33.000Z</time>
      </trkpt>
      <trkpt lat="45.81201" lon="1.89171">
        <ele>709</ele>
        <time>2026-07-08T07:30:34.000Z</time>
      </trkpt>
      <trkpt lat="45.81202" lon="1.89172">
        <ele>708.2</ele>
        <time>2026-07-08T07:30:35.000Z</time>
      </trkpt>
      <trkpt lat="45.81204" lon="1.89172">
        <ele>708.4</ele>
        <time>2026-07-08T07:30:36.000Z</time>
      </trkpt>
      <trkpt lat="45.81205" lon="1.89171">
        <ele>707.1</ele>
        <time>2026-07-08T07:30:37.000Z</time>
      </trkpt>
      <trkpt lat="45.81206" lon="1.89171">
        <ele>706.3</ele>
        <time>2026-07-08T07:30:38.000Z</time>
      </trkpt>
      <trkpt lat="45.81207" lon="1.89171">
        <ele>706.9</ele>
        <time>2026-07-08T07:30:39.000Z</time>
      </trkpt>
      <trkpt lat="45.81208" lon="1.89171">
        <ele>706.7</ele>
        <time>2026-07-08T07:30:40.000Z</time>
      </trkpt>
      <trkpt lat="45.8121" lon="1.8917">
        <ele>706</ele>
        <time>2026-07-08T07:30:41.000Z</time>
      </trkpt>
      <trkpt lat="45.81211" lon="1.8917">
        <ele>706.2</ele>
        <time>2026-07-08T07:30:42.000Z</time>
      </trkpt>
      <trkpt lat="45.81212" lon="1.89169">
        <ele>706.6</ele>
        <time>2026-07-08T07:30:43.000Z</time>
      </trkpt>
      <trkpt lat="45.81213" lon="1.89169">
        <ele>706.6</ele>
        <time>2026-07-08T07:30:44.000Z</time>
      </trkpt>
      <trkpt lat="45.81214" lon="1.89168">
        <ele>707.7</ele>
        <time>2026-07-08T07:30:45.000Z</time>
      </trkpt>
      <trkpt lat="45.81215" lon="1.89167">
        <ele>709.1</ele>
        <time>2026-07-08T07:30:46.000Z</time>
      </trkpt>
      <trkpt lat="45.81216" lon="1.89166">
        <ele>709.4</ele>
        <time>2026-07-08T07:30:47.000Z</time>
      </trkpt>
      <trkpt lat="45.81218" lon="1.89165">
        <ele>709.9</ele>
        <time>2026-07-08T07:30:48.000Z</time>
      </trkpt>
      <trkpt lat="45.81219" lon="1.89164">
        <ele>710.5</ele>
        <time>2026-07-08T07:30:49.000Z</time>
      </trkpt>
      <trkpt lat="45.8122" lon="1.89163">
        <ele>711.2</ele>
        <time>2026-07-08T07:30:50.000Z</time>
      </trkpt>
      <trkpt lat="45.81221" lon="1.89163">
        <ele>712.3</ele>
        <time>2026-07-08T07:30:51.000Z</time>
      </trkpt>
      <trkpt lat="45.81222" lon="1.89162">
        <ele>712.5</ele>
        <time>2026-07-08T07:30:52.000Z</time>
      </trkpt>
      <trkpt lat="45.81224" lon="1.89161">
        <ele>712.6</ele>
        <time>2026-07-08T07:30:53.000Z</time>
      </trkpt>
      <trkpt lat="45.81225" lon="1.8916">
        <ele>712</ele>
        <time>2026-07-08T07:30:54.000Z</time>
      </trkpt>
      <trkpt lat="45.81227" lon="1.89159">
        <ele>712.1</ele>
        <time>2026-07-08T07:30:55.000Z</time>
      </trkpt>
      <trkpt lat="45.81228" lon="1.89157">
        <ele>711.9</ele>
        <time>2026-07-08T07:30:56.000Z</time>
      </trkpt>
      <trkpt lat="45.8123" lon="1.89156">
        <ele>712.3</ele>
        <time>2026-07-08T07:30:57.000Z</time>
      </trkpt>
      <trkpt lat="45.81229" lon="1.89155">
        <ele>715.4</ele>
        <time>2026-07-08T07:30:58.000Z</time>
      </trkpt>
      <trkpt lat="45.81231" lon="1.89155">
        <ele>716.5</ele>
        <time>2026-07-08T07:30:59.000Z</time>
      </trkpt>
      <trkpt lat="45.81233" lon="1.89154">
        <ele>717.1</ele>
        <time>2026-07-08T07:31:00.000Z</time>
      </trkpt>
      <trkpt lat="45.81235" lon="1.89152">
        <ele>717.7</ele>
        <time>2026-07-08T07:31:01.000Z</time>
      </trkpt>
      <trkpt lat="45.81237" lon="1.89152">
        <ele>718.5</ele>
        <time>2026-07-08T07:31:02.000Z</time>
      </trkpt>
      <trkpt lat="45.81239" lon="1.89152">
        <ele>719.2</ele>
        <time>2026-07-08T07:31:03.000Z</time>
      </trkpt>
      <trkpt lat="45.81241" lon="1.89151">
        <ele>719.3</ele>
        <time>2026-07-08T07:31:04.000Z</time>
      </trkpt>
      <trkpt lat="45.81243" lon="1.89151">
        <ele>719.3</ele>
        <time>2026-07-08T07:31:05.000Z</time>
      </trkpt>
      <trkpt lat="45.81245" lon="1.89151">
        <ele>720.5</ele>
        <time>2026-07-08T07:31:06.000Z</time>
      </trkpt>
      <trkpt lat="45.81247" lon="1.89151">
        <ele>720.6</ele>
        <time>2026-07-08T07:31:07.000Z</time>
      </trkpt>
      <trkpt lat="45.81249" lon="1.8915">
        <ele>720.9</ele>
        <time>2026-07-08T07:31:08.000Z</time>
      </trkpt>
      <trkpt lat="45.81251" lon="1.89149">
        <ele>720.9</ele>
        <time>2026-07-08T07:31:09.000Z</time>
      </trkpt>
      <trkpt lat="45.81252" lon="1.89146">
        <ele>720.9</ele>
        <time>2026-07-08T07:31:10.000Z</time>
      </trkpt>
      <trkpt lat="45.81254" lon="1.89144">
        <ele>720.3</ele>
        <time>2026-07-08T07:31:11.000Z</time>
      </trkpt>
      <trkpt lat="45.81255" lon="1.89142">
        <ele>720.3</ele>
        <time>2026-07-08T07:31:12.000Z</time>
      </trkpt>
      <trkpt lat="45.81256" lon="1.8914">
        <ele>720.5</ele>
        <time>2026-07-08T07:31:13.000Z</time>
      </trkpt>
      <trkpt lat="45.81257" lon="1.89138">
        <ele>719.4</ele>
        <time>2026-07-08T07:31:14.000Z</time>
      </trkpt>
      <trkpt lat="45.81258" lon="1.89137">
        <ele>718.2</ele>
        <time>2026-07-08T07:31:15.000Z</time>
      </trkpt>
      <trkpt lat="45.81257" lon="1.89136">
        <ele>717.6</ele>
        <time>2026-07-08T07:31:16.000Z</time>
      </trkpt>
      <trkpt lat="45.81257" lon="1.89134">
        <ele>716.9</ele>
        <time>2026-07-08T07:31:17.000Z</time>
      </trkpt>
      <trkpt lat="45.81257" lon="1.89132">
        <ele>717.3</ele>
        <time>2026-07-08T07:31:18.000Z</time>
      </trkpt>
      <trkpt lat="45.81258" lon="1.8913">
        <ele>717</ele>
        <time>2026-07-08T07:31:19.000Z</time>
      </trkpt>
      <trkpt lat="45.81259" lon="1.89128">
        <ele>716.4</ele>
        <time>2026-07-08T07:31:20.000Z</time>
      </trkpt>
      <trkpt lat="45.8126" lon="1.89126">
        <ele>717.5</ele>
        <time>2026-07-08T07:31:21.000Z</time>
      </trkpt>
      <trkpt lat="45.81261" lon="1.89124">
        <ele>718.7</ele>
        <time>2026-07-08T07:31:22.000Z</time>
      </trkpt>
      <trkpt lat="45.81262" lon="1.89122">
        <ele>719.6</ele>
        <time>2026-07-08T07:31:23.000Z</time>
      </trkpt>
      <trkpt lat="45.81264" lon="1.8912">
        <ele>720.3</ele>
        <time>2026-07-08T07:31:24.000Z</time>
      </trkpt>
      <trkpt lat="45.81265" lon="1.89119">
        <ele>720.5</ele>
        <time>2026-07-08T07:31:25.000Z</time>
      </trkpt>
      <trkpt lat="45.81267" lon="1.89118">
        <ele>721.7</ele>
        <time>2026-07-08T07:31:26.000Z</time>
      </trkpt>
      <trkpt lat="45.81269" lon="1.89116">
        <ele>722</ele>
        <time>2026-07-08T07:31:27.000Z</time>
      </trkpt>
      <trkpt lat="45.81271" lon="1.89114">
        <ele>721.8</ele>
        <time>2026-07-08T07:31:28.000Z</time>
      </trkpt>
      <trkpt lat="45.81273" lon="1.89111">
        <ele>721.8</ele>
        <time>2026-07-08T07:31:29.000Z</time>
      </trkpt>
      <trkpt lat="45.81274" lon="1.89108">
        <ele>722.4</ele>
        <time>2026-07-08T07:31:30.000Z</time>
      </trkpt>
      <trkpt lat="45.81274" lon="1.89105">
        <ele>723.4</ele>
        <time>2026-07-08T07:31:31.000Z</time>
      </trkpt>
      <trkpt lat="45.81274" lon="1.89103">
        <ele>722.7</ele>
        <time>2026-07-08T07:31:32.000Z</time>
      </trkpt>
      <trkpt lat="45.81274" lon="1.89101">
        <ele>721.9</ele>
        <time>2026-07-08T07:31:33.000Z</time>
      </trkpt>
      <trkpt lat="45.81275" lon="1.89098">
        <ele>721.6</ele>
        <time>2026-07-08T07:31:34.000Z</time>
      </trkpt>
      <trkpt lat="45.81275" lon="1.89096">
        <ele>721.9</ele>
        <time>2026-07-08T07:31:35.000Z</time>
      </trkpt>
      <trkpt lat="45.81276" lon="1.89095">
        <ele>721.5</ele>
        <time>2026-07-08T07:31:36.000Z</time>
      </trkpt>
      <trkpt lat="45.81277" lon="1.89093">
        <ele>721.2</ele>
        <time>2026-07-08T07:31:37.000Z</time>
      </trkpt>
      <trkpt lat="45.81278" lon="1.89091">
        <ele>721.3</ele>
        <time>2026-07-08T07:31:38.000Z</time>
      </trkpt>
      <trkpt lat="45.81278" lon="1.89089">
        <ele>721.2</ele>
        <time>2026-07-08T07:31:39.000Z</time>
      </trkpt>
      <trkpt lat="45.81279" lon="1.89087">
        <ele>721.6</ele>
        <time>2026-07-08T07:31:40.000Z</time>
      </trkpt>
      <trkpt lat="45.8128" lon="1.89085">
        <ele>722</ele>
        <time>2026-07-08T07:31:41.000Z</time>
      </trkpt>
      <trkpt lat="45.8128" lon="1.89083">
        <ele>721.4</ele>
        <time>2026-07-08T07:31:42.000Z</time>
      </trkpt>
      <trkpt lat="45.81279" lon="1.89085">
        <ele>719.4</ele>
        <time>2026-07-08T07:31:43.000Z</time>
      </trkpt>
      <trkpt lat="45.81279" lon="1.89086">
        <ele>719.4</ele>
        <time>2026-07-08T07:31:44.000Z</time>
      </trkpt>
      <trkpt lat="45.81279" lon="1.89086">
        <ele>719.4</ele>
        <time>2026-07-08T07:31:45.000Z</time>
      </trkpt>
      <trkpt lat="45.81279" lon="1.89086">
        <ele>719.4</ele>
        <time>2026-07-08T07:31:46.000Z</time>
      </trkpt>
      <trkpt lat="45.81279" lon="1.89086">
        <ele>719.4</ele>
        <time>2026-07-08T07:31:47.000Z</time>
      </trkpt>
      <trkpt lat="45.81279" lon="1.89084">
        <ele>719.8</ele>
        <time>2026-07-08T07:31:48.000Z</time>
      </trkpt>
      <trkpt lat="45.81279" lon="1.89082">
        <ele>720.1</ele>
        <time>2026-07-08T07:31:49.000Z</time>
      </trkpt>
      <trkpt lat="45.81279" lon="1.8908">
        <ele>719.6</ele>
        <time>2026-07-08T07:31:50.000Z</time>
      </trkpt>
      <trkpt lat="45.8128" lon="1.89078">
        <ele>719.4</ele>
        <time>2026-07-08T07:31:51.000Z</time>
      </trkpt>
      <trkpt lat="45.8128" lon="1.89076">
        <ele>718.9</ele>
        <time>2026-07-08T07:31:52.000Z</time>
      </trkpt>
      <trkpt lat="45.8128" lon="1.89074">
        <ele>719.2</ele>
        <time>2026-07-08T07:31:53.000Z</time>
      </trkpt>
      <trkpt lat="45.8128" lon="1.89072">
        <ele>719.3</ele>
        <time>2026-07-08T07:31:54.000Z</time>
      </trkpt>
      <trkpt lat="45.8128" lon="1.8907">
        <ele>719</ele>
        <time>2026-07-08T07:31:55.000Z</time>
      </trkpt>
      <trkpt lat="45.81279" lon="1.89067">
        <ele>718.9</ele>
        <time>2026-07-08T07:31:56.000Z</time>
      </trkpt>
      <trkpt lat="45.81279" lon="1.89065">
        <ele>718.7</ele>
        <time>2026-07-08T07:31:57.000Z</time>
      </trkpt>
      <trkpt lat="45.81279" lon="1.89063">
        <ele>718.9</ele>
        <time>2026-07-08T07:31:58.000Z</time>
      </trkpt>
      <trkpt lat="45.81279" lon="1.89061">
        <ele>719.2</ele>
        <time>2026-07-08T07:31:59.000Z</time>
      </trkpt>
      <trkpt lat="45.81279" lon="1.8906">
        <ele>719.1</ele>
        <time>2026-07-08T07:32:00.000Z</time>
      </trkpt>
      <trkpt lat="45.81279" lon="1.89059">
        <ele>718.9</ele>
        <time>2026-07-08T07:32:01.000Z</time>
      </trkpt>
      <trkpt lat="45.81278" lon="1.89057">
        <ele>718.4</ele>
        <time>2026-07-08T07:32:02.000Z</time>
      </trkpt>
      <trkpt lat="45.81277" lon="1.89055">
        <ele>717.9</ele>
        <time>2026-07-08T07:32:03.000Z</time>
      </trkpt>
      <trkpt lat="45.81277" lon="1.89053">
        <ele>718.1</ele>
        <time>2026-07-08T07:32:04.000Z</time>
      </trkpt>
      <trkpt lat="45.81276" lon="1.8905">
        <ele>718.5</ele>
        <time>2026-07-08T07:32:05.000Z</time>
      </trkpt>
      <trkpt lat="45.81275" lon="1.89048">
        <ele>718.9</ele>
        <time>2026-07-08T07:32:06.000Z</time>
      </trkpt>
      <trkpt lat="45.81274" lon="1.89046">
        <ele>718.7</ele>
        <time>2026-07-08T07:32:07.000Z</time>
      </trkpt>
      <trkpt lat="45.81273" lon="1.89044">
        <ele>718.4</ele>
        <time>2026-07-08T07:32:08.000Z</time>
      </trkpt>
      <trkpt lat="45.81273" lon="1.89041">
        <ele>718.6</ele>
        <time>2026-07-08T07:32:09.000Z</time>
      </trkpt>
      <trkpt lat="45.81272" lon="1.89039">
        <ele>718.9</ele>
        <time>2026-07-08T07:32:10.000Z</time>
      </trkpt>
      <trkpt lat="45.8127" lon="1.89038">
        <ele>718.4</ele>
        <time>2026-07-08T07:32:11.000Z</time>
      </trkpt>
      <trkpt lat="45.8127" lon="1.89035">
        <ele>718.9</ele>
        <time>2026-07-08T07:32:12.000Z</time>
      </trkpt>
      <trkpt lat="45.81269" lon="1.89033">
        <ele>719</ele>
        <time>2026-07-08T07:32:13.000Z</time>
      </trkpt>
      <trkpt lat="45.81268" lon="1.89031">
        <ele>719.6</ele>
        <time>2026-07-08T07:32:14.000Z</time>
      </trkpt>
      <trkpt lat="45.81268" lon="1.89029">
        <ele>719.2</ele>
        <time>2026-07-08T07:32:15.000Z</time>
      </trkpt>
      <trkpt lat="45.81267" lon="1.89027">
        <ele>719.5</ele>
        <time>2026-07-08T07:32:16.000Z</time>
      </trkpt>
      <trkpt lat="45.81266" lon="1.89024">
        <ele>719.8</ele>
        <time>2026-07-08T07:32:17.000Z</time>
      </trkpt>
      <trkpt lat="45.81265" lon="1.89022">
        <ele>719.9</ele>
        <time>2026-07-08T07:32:18.000Z</time>
      </trkpt>
      <trkpt lat="45.81264" lon="1.8902">
        <ele>719.9</ele>
        <time>2026-07-08T07:32:19.000Z</time>
      </trkpt>
      <trkpt lat="45.81263" lon="1.89018">
        <ele>719.9</ele>
        <time>2026-07-08T07:32:20.000Z</time>
      </trkpt>
      <trkpt lat="45.81262" lon="1.89016">
        <ele>720.1</ele>
        <time>2026-07-08T07:32:21.000Z</time>
      </trkpt>
      <trkpt lat="45.81261" lon="1.89014">
        <ele>720.3</ele>
        <time>2026-07-08T07:32:22.000Z</time>
      </trkpt>
      <trkpt lat="45.8126" lon="1.89012">
        <ele>720.7</ele>
        <time>2026-07-08T07:32:23.000Z</time>
      </trkpt>
      <trkpt lat="45.81259" lon="1.8901">
        <ele>720.5</ele>
        <time>2026-07-08T07:32:24.000Z</time>
      </trkpt>
      <trkpt lat="45.81258" lon="1.89009">
        <ele>720.7</ele>
        <time>2026-07-08T07:32:25.000Z</time>
      </trkpt>
      <trkpt lat="45.81257" lon="1.89007">
        <ele>720.8</ele>
        <time>2026-07-08T07:32:26.000Z</time>
      </trkpt>
      <trkpt lat="45.81256" lon="1.89005">
        <ele>721</ele>
        <time>2026-07-08T07:32:27.000Z</time>
      </trkpt>
      <trkpt lat="45.81255" lon="1.89003">
        <ele>720.7</ele>
        <time>2026-07-08T07:32:28.000Z</time>
      </trkpt>
      <trkpt lat="45.81253" lon="1.89001">
        <ele>721.1</ele>
        <time>2026-07-08T07:32:29.000Z</time>
      </trkpt>
      <trkpt lat="45.81253" lon="1.88999">
        <ele>721</ele>
        <time>2026-07-08T07:32:30.000Z</time>
      </trkpt>
      <trkpt lat="45.81252" lon="1.88998">
        <ele>720.7</ele>
        <time>2026-07-08T07:32:31.000Z</time>
      </trkpt>
      <trkpt lat="45.81251" lon="1.88996">
        <ele>720.8</ele>
        <time>2026-07-08T07:32:32.000Z</time>
      </trkpt>
      <trkpt lat="45.81249" lon="1.88994">
        <ele>721.4</ele>
        <time>2026-07-08T07:32:33.000Z</time>
      </trkpt>
      <trkpt lat="45.81248" lon="1.88992">
        <ele>721.7</ele>
        <time>2026-07-08T07:32:34.000Z</time>
      </trkpt>
      <trkpt lat="45.81247" lon="1.88991">
        <ele>721.3</ele>
        <time>2026-07-08T07:32:35.000Z</time>
      </trkpt>
      <trkpt lat="45.81247" lon="1.88988">
        <ele>721.9</ele>
        <time>2026-07-08T07:32:36.000Z</time>
      </trkpt>
      <trkpt lat="45.81246" lon="1.88987">
        <ele>722.1</ele>
        <time>2026-07-08T07:32:37.000Z</time>
      </trkpt>
      <trkpt lat="45.81245" lon="1.88985">
        <ele>722.4</ele>
        <time>2026-07-08T07:32:38.000Z</time>
      </trkpt>
      <trkpt lat="45.81244" lon="1.88983">
        <ele>722.6</ele>
        <time>2026-07-08T07:32:39.000Z</time>
      </trkpt>
      <trkpt lat="45.81243" lon="1.88981">
        <ele>723.1</ele>
        <time>2026-07-08T07:32:40.000Z</time>
      </trkpt>
      <trkpt lat="45.81242" lon="1.88979">
        <ele>723.5</ele>
        <time>2026-07-08T07:32:41.000Z</time>
      </trkpt>
      <trkpt lat="45.81241" lon="1.88977">
        <ele>723.9</ele>
        <time>2026-07-08T07:32:42.000Z</time>
      </trkpt>
      <trkpt lat="45.8124" lon="1.88975">
        <ele>723.9</ele>
        <time>2026-07-08T07:32:43.000Z</time>
      </trkpt>
      <trkpt lat="45.81239" lon="1.88973">
        <ele>723.9</ele>
        <time>2026-07-08T07:32:44.000Z</time>
      </trkpt>
      <trkpt lat="45.81238" lon="1.88971">
        <ele>724</ele>
        <time>2026-07-08T07:32:45.000Z</time>
      </trkpt>
      <trkpt lat="45.81237" lon="1.88969">
        <ele>724.2</ele>
        <time>2026-07-08T07:32:46.000Z</time>
      </trkpt>
      <trkpt lat="45.81236" lon="1.88966">
        <ele>724.9</ele>
        <time>2026-07-08T07:32:47.000Z</time>
      </trkpt>
      <trkpt lat="45.81235" lon="1.88963">
        <ele>725.6</ele>
        <time>2026-07-08T07:32:48.000Z</time>
      </trkpt>
      <trkpt lat="45.81235" lon="1.8896">
        <ele>726.2</ele>
        <time>2026-07-08T07:32:49.000Z</time>
      </trkpt>
      <trkpt lat="45.81234" lon="1.88959">
        <ele>725.8</ele>
        <time>2026-07-08T07:32:50.000Z</time>
      </trkpt>
      <trkpt lat="45.81233" lon="1.88956">
        <ele>726.3</ele>
        <time>2026-07-08T07:32:51.000Z</time>
      </trkpt>
      <trkpt lat="45.81232" lon="1.88955">
        <ele>726</ele>
        <time>2026-07-08T07:32:52.000Z</time>
      </trkpt>
      <trkpt lat="45.81231" lon="1.88953">
        <ele>725.9</ele>
        <time>2026-07-08T07:32:53.000Z</time>
      </trkpt>
      <trkpt lat="45.8123" lon="1.88952">
        <ele>725.9</ele>
        <time>2026-07-08T07:32:54.000Z</time>
      </trkpt>
      <trkpt lat="45.8123" lon="1.8895">
        <ele>725.9</ele>
        <time>2026-07-08T07:32:55.000Z</time>
      </trkpt>
      <trkpt lat="45.81229" lon="1.88949">
        <ele>725.1</ele>
        <time>2026-07-08T07:32:56.000Z</time>
      </trkpt>
      <trkpt lat="45.81228" lon="1.88947">
        <ele>725</ele>
        <time>2026-07-08T07:32:57.000Z</time>
      </trkpt>
      <trkpt lat="45.81228" lon="1.88946">
        <ele>724.8</ele>
        <time>2026-07-08T07:32:58.000Z</time>
      </trkpt>
      <trkpt lat="45.81227" lon="1.88944">
        <ele>724.6</ele>
        <time>2026-07-08T07:32:59.000Z</time>
      </trkpt>
      <trkpt lat="45.81227" lon="1.88942">
        <ele>724.3</ele>
        <time>2026-07-08T07:33:00.000Z</time>
      </trkpt>
      <trkpt lat="45.81226" lon="1.8894">
        <ele>724.2</ele>
        <time>2026-07-08T07:33:01.000Z</time>
      </trkpt>
      <trkpt lat="45.81226" lon="1.88938">
        <ele>724.4</ele>
        <time>2026-07-08T07:33:02.000Z</time>
      </trkpt>
      <trkpt lat="45.81226" lon="1.88936">
        <ele>724.5</ele>
        <time>2026-07-08T07:33:03.000Z</time>
      </trkpt>
      <trkpt lat="45.81225" lon="1.88934">
        <ele>724.6</ele>
        <time>2026-07-08T07:33:04.000Z</time>
      </trkpt>
      <trkpt lat="45.81225" lon="1.88932">
        <ele>724.6</ele>
        <time>2026-07-08T07:33:05.000Z</time>
      </trkpt>
      <trkpt lat="45.81225" lon="1.8893">
        <ele>724.7</ele>
        <time>2026-07-08T07:33:06.000Z</time>
      </trkpt>
      <trkpt lat="45.81224" lon="1.88928">
        <ele>724.6</ele>
        <time>2026-07-08T07:33:07.000Z</time>
      </trkpt>
      <trkpt lat="45.81224" lon="1.88926">
        <ele>724.5</ele>
        <time>2026-07-08T07:33:08.000Z</time>
      </trkpt>
      <trkpt lat="45.81224" lon="1.88924">
        <ele>724.5</ele>
        <time>2026-07-08T07:33:09.000Z</time>
      </trkpt>
      <trkpt lat="45.81224" lon="1.88922">
        <ele>724.4</ele>
        <time>2026-07-08T07:33:10.000Z</time>
      </trkpt>
      <trkpt lat="45.81224" lon="1.8892">
        <ele>724.6</ele>
        <time>2026-07-08T07:33:11.000Z</time>
      </trkpt>
      <trkpt lat="45.81224" lon="1.88918">
        <ele>724.7</ele>
        <time>2026-07-08T07:33:12.000Z</time>
      </trkpt>
      <trkpt lat="45.81225" lon="1.88916">
        <ele>724.7</ele>
        <time>2026-07-08T07:33:13.000Z</time>
      </trkpt>
      <trkpt lat="45.81225" lon="1.88914">
        <ele>724.8</ele>
        <time>2026-07-08T07:33:14.000Z</time>
      </trkpt>
      <trkpt lat="45.81226" lon="1.88913">
        <ele>724.8</ele>
        <time>2026-07-08T07:33:15.000Z</time>
      </trkpt>
      <trkpt lat="45.81227" lon="1.88911">
        <ele>724.7</ele>
        <time>2026-07-08T07:33:16.000Z</time>
      </trkpt>
      <trkpt lat="45.81228" lon="1.8891">
        <ele>724.9</ele>
        <time>2026-07-08T07:33:17.000Z</time>
      </trkpt>
      <trkpt lat="45.81229" lon="1.88908">
        <ele>725</ele>
        <time>2026-07-08T07:33:18.000Z</time>
      </trkpt>
      <trkpt lat="45.8123" lon="1.88907">
        <ele>725</ele>
        <time>2026-07-08T07:33:19.000Z</time>
      </trkpt>
      <trkpt lat="45.81231" lon="1.88905">
        <ele>724.8</ele>
        <time>2026-07-08T07:33:20.000Z</time>
      </trkpt>
      <trkpt lat="45.81231" lon="1.88903">
        <ele>725.1</ele>
        <time>2026-07-08T07:33:21.000Z</time>
      </trkpt>
      <trkpt lat="45.81231" lon="1.889">
        <ele>725.3</ele>
        <time>2026-07-08T07:33:22.000Z</time>
      </trkpt>
      <trkpt lat="45.81232" lon="1.88898">
        <ele>725.4</ele>
        <time>2026-07-08T07:33:23.000Z</time>
      </trkpt>
      <trkpt lat="45.81233" lon="1.88896">
        <ele>725.6</ele>
        <time>2026-07-08T07:33:24.000Z</time>
      </trkpt>
      <trkpt lat="45.81233" lon="1.88894">
        <ele>725.4</ele>
        <time>2026-07-08T07:33:25.000Z</time>
      </trkpt>
      <trkpt lat="45.81234" lon="1.88892">
        <ele>725.5</ele>
        <time>2026-07-08T07:33:26.000Z</time>
      </trkpt>
      <trkpt lat="45.81234" lon="1.88891">
        <ele>725.7</ele>
        <time>2026-07-08T07:33:27.000Z</time>
      </trkpt>
      <trkpt lat="45.81233" lon="1.88889">
        <ele>725.4</ele>
        <time>2026-07-08T07:33:28.000Z</time>
      </trkpt>
      <trkpt lat="45.81232" lon="1.88887">
        <ele>725.4</ele>
        <time>2026-07-08T07:33:29.000Z</time>
      </trkpt>
      <trkpt lat="45.81231" lon="1.88885">
        <ele>725.7</ele>
        <time>2026-07-08T07:33:30.000Z</time>
      </trkpt>
      <trkpt lat="45.8123" lon="1.88883">
        <ele>725.5</ele>
        <time>2026-07-08T07:33:31.000Z</time>
      </trkpt>
      <trkpt lat="45.81228" lon="1.8888">
        <ele>726</ele>
        <time>2026-07-08T07:33:32.000Z</time>
      </trkpt>
      <trkpt lat="45.81226" lon="1.88877">
        <ele>726.4</ele>
        <time>2026-07-08T07:33:33.000Z</time>
      </trkpt>
      <trkpt lat="45.81224" lon="1.88875">
        <ele>726.4</ele>
        <time>2026-07-08T07:33:34.000Z</time>
      </trkpt>
      <trkpt lat="45.81223" lon="1.88873">
        <ele>726.3</ele>
        <time>2026-07-08T07:33:35.000Z</time>
      </trkpt>
      <trkpt lat="45.81221" lon="1.88871">
        <ele>726.3</ele>
        <time>2026-07-08T07:33:36.000Z</time>
      </trkpt>
      <trkpt lat="45.8122" lon="1.88869">
        <ele>726.6</ele>
        <time>2026-07-08T07:33:37.000Z</time>
      </trkpt>
      <trkpt lat="45.81218" lon="1.88868">
        <ele>727.2</ele>
        <time>2026-07-08T07:33:38.000Z</time>
      </trkpt>
      <trkpt lat="45.81218" lon="1.88866">
        <ele>727.6</ele>
        <time>2026-07-08T07:33:39.000Z</time>
      </trkpt>
      <trkpt lat="45.81217" lon="1.88863">
        <ele>727.3</ele>
        <time>2026-07-08T07:33:40.000Z</time>
      </trkpt>
      <trkpt lat="45.81217" lon="1.88861">
        <ele>727.8</ele>
        <time>2026-07-08T07:33:41.000Z</time>
      </trkpt>
      <trkpt lat="45.81217" lon="1.88857">
        <ele>727.9</ele>
        <time>2026-07-08T07:33:42.000Z</time>
      </trkpt>
      <trkpt lat="45.81219" lon="1.88855">
        <ele>725.9</ele>
        <time>2026-07-08T07:33:43.000Z</time>
      </trkpt>
      <trkpt lat="45.8122" lon="1.88854">
        <ele>725.7</ele>
        <time>2026-07-08T07:33:44.000Z</time>
      </trkpt>
      <trkpt lat="45.81222" lon="1.88854">
        <ele>725.3</ele>
        <time>2026-07-08T07:33:45.000Z</time>
      </trkpt>
      <trkpt lat="45.81223" lon="1.88853">
        <ele>725.3</ele>
        <time>2026-07-08T07:33:46.000Z</time>
      </trkpt>
      <trkpt lat="45.81224" lon="1.88853">
        <ele>725.4</ele>
        <time>2026-07-08T07:33:47.000Z</time>
      </trkpt>
      <trkpt lat="45.81225" lon="1.88852">
        <ele>725.4</ele>
        <time>2026-07-08T07:33:48.000Z</time>
      </trkpt>
      <trkpt lat="45.81227" lon="1.88851">
        <ele>725.2</ele>
        <time>2026-07-08T07:33:49.000Z</time>
      </trkpt>
      <trkpt lat="45.81228" lon="1.88851">
        <ele>725.2</ele>
        <time>2026-07-08T07:33:50.000Z</time>
      </trkpt>
      <trkpt lat="45.81229" lon="1.8885">
        <ele>725.1</ele>
        <time>2026-07-08T07:33:51.000Z</time>
      </trkpt>
      <trkpt lat="45.81231" lon="1.88849">
        <ele>724.7</ele>
        <time>2026-07-08T07:33:52.000Z</time>
      </trkpt>
      <trkpt lat="45.81232" lon="1.88848">
        <ele>724.7</ele>
        <time>2026-07-08T07:33:53.000Z</time>
      </trkpt>
      <trkpt lat="45.81233" lon="1.88847">
        <ele>724.9</ele>
        <time>2026-07-08T07:33:54.000Z</time>
      </trkpt>
      <trkpt lat="45.81234" lon="1.88846">
        <ele>725</ele>
        <time>2026-07-08T07:33:55.000Z</time>
      </trkpt>
      <trkpt lat="45.81234" lon="1.88844">
        <ele>725.1</ele>
        <time>2026-07-08T07:33:56.000Z</time>
      </trkpt>
      <trkpt lat="45.81235" lon="1.88842">
        <ele>725.5</ele>
        <time>2026-07-08T07:33:57.000Z</time>
      </trkpt>
      <trkpt lat="45.81235" lon="1.88841">
        <ele>725.9</ele>
        <time>2026-07-08T07:33:58.000Z</time>
      </trkpt>
      <trkpt lat="45.81235" lon="1.88839">
        <ele>725.9</ele>
        <time>2026-07-08T07:33:59.000Z</time>
      </trkpt>
      <trkpt lat="45.81234" lon="1.88837">
        <ele>725.7</ele>
        <time>2026-07-08T07:34:00.000Z</time>
      </trkpt>
      <trkpt lat="45.81234" lon="1.88835">
        <ele>725.7</ele>
        <time>2026-07-08T07:34:01.000Z</time>
      </trkpt>
      <trkpt lat="45.81233" lon="1.88833">
        <ele>725.7</ele>
        <time>2026-07-08T07:34:02.000Z</time>
      </trkpt>
      <trkpt lat="45.81232" lon="1.88832">
        <ele>725.3</ele>
        <time>2026-07-08T07:34:03.000Z</time>
      </trkpt>
      <trkpt lat="45.81231" lon="1.8883">
        <ele>725.1</ele>
        <time>2026-07-08T07:34:04.000Z</time>
      </trkpt>
      <trkpt lat="45.8123" lon="1.88828">
        <ele>725.1</ele>
        <time>2026-07-08T07:34:05.000Z</time>
      </trkpt>
      <trkpt lat="45.81229" lon="1.88826">
        <ele>725.2</ele>
        <time>2026-07-08T07:34:06.000Z</time>
      </trkpt>
      <trkpt lat="45.81228" lon="1.88825">
        <ele>725</ele>
        <time>2026-07-08T07:34:07.000Z</time>
      </trkpt>
      <trkpt lat="45.81227" lon="1.88823">
        <ele>725</ele>
        <time>2026-07-08T07:34:08.000Z</time>
      </trkpt>
      <trkpt lat="45.81226" lon="1.88821">
        <ele>725.1</ele>
        <time>2026-07-08T07:34:09.000Z</time>
      </trkpt>
      <trkpt lat="45.81225" lon="1.88819">
        <ele>725.2</ele>
        <time>2026-07-08T07:34:10.000Z</time>
      </trkpt>
      <trkpt lat="45.81225" lon="1.88817">
        <ele>725.1</ele>
        <time>2026-07-08T07:34:11.000Z</time>
      </trkpt>
      <trkpt lat="45.81224" lon="1.88815">
        <ele>725</ele>
        <time>2026-07-08T07:34:12.000Z</time>
      </trkpt>
      <trkpt lat="45.81223" lon="1.88813">
        <ele>725.1</ele>
        <time>2026-07-08T07:34:13.000Z</time>
      </trkpt>
      <trkpt lat="45.81221" lon="1.88811">
        <ele>725.4</ele>
        <time>2026-07-08T07:34:14.000Z</time>
      </trkpt>
      <trkpt lat="45.81221" lon="1.88809">
        <ele>725.2</ele>
        <time>2026-07-08T07:34:15.000Z</time>
      </trkpt>
      <trkpt lat="45.8122" lon="1.88807">
        <ele>725.5</ele>
        <time>2026-07-08T07:34:16.000Z</time>
      </trkpt>
      <trkpt lat="45.81219" lon="1.88805">
        <ele>725.2</ele>
        <time>2026-07-08T07:34:17.000Z</time>
      </trkpt>
      <trkpt lat="45.81217" lon="1.88803">
        <ele>725.2</ele>
        <time>2026-07-08T07:34:18.000Z</time>
      </trkpt>
      <trkpt lat="45.81217" lon="1.88802">
        <ele>725</ele>
        <time>2026-07-08T07:34:19.000Z</time>
      </trkpt>
      <trkpt lat="45.81215" lon="1.888">
        <ele>724.9</ele>
        <time>2026-07-08T07:34:20.000Z</time>
      </trkpt>
      <trkpt lat="45.81214" lon="1.88798">
        <ele>725</ele>
        <time>2026-07-08T07:34:21.000Z</time>
      </trkpt>
      <trkpt lat="45.81214" lon="1.88796">
        <ele>725.3</ele>
        <time>2026-07-08T07:34:22.000Z</time>
      </trkpt>
      <trkpt lat="45.81212" lon="1.88794">
        <ele>725.1</ele>
        <time>2026-07-08T07:34:23.000Z</time>
      </trkpt>
      <trkpt lat="45.81211" lon="1.88792">
        <ele>725.2</ele>
        <time>2026-07-08T07:34:24.000Z</time>
      </trkpt>
      <trkpt lat="45.81211" lon="1.88791">
        <ele>725.1</ele>
        <time>2026-07-08T07:34:25.000Z</time>
      </trkpt>
      <trkpt lat="45.8121" lon="1.88789">
        <ele>725.2</ele>
        <time>2026-07-08T07:34:26.000Z</time>
      </trkpt>
      <trkpt lat="45.81209" lon="1.88787">
        <ele>725.3</ele>
        <time>2026-07-08T07:34:27.000Z</time>
      </trkpt>
      <trkpt lat="45.81208" lon="1.88785">
        <ele>725.2</ele>
        <time>2026-07-08T07:34:28.000Z</time>
      </trkpt>
      <trkpt lat="45.81207" lon="1.88783">
        <ele>725.2</ele>
        <time>2026-07-08T07:34:29.000Z</time>
      </trkpt>
      <trkpt lat="45.81206" lon="1.88781">
        <ele>725.3</ele>
        <time>2026-07-08T07:34:30.000Z</time>
      </trkpt>
      <trkpt lat="45.81205" lon="1.88779">
        <ele>725.6</ele>
        <time>2026-07-08T07:34:31.000Z</time>
      </trkpt>
      <trkpt lat="45.81204" lon="1.88777">
        <ele>725.6</ele>
        <time>2026-07-08T07:34:32.000Z</time>
      </trkpt>
      <trkpt lat="45.81204" lon="1.88775">
        <ele>725.6</ele>
        <time>2026-07-08T07:34:33.000Z</time>
      </trkpt>
      <trkpt lat="45.81203" lon="1.88773">
        <ele>725.6</ele>
        <time>2026-07-08T07:34:34.000Z</time>
      </trkpt>
      <trkpt lat="45.81202" lon="1.88771">
        <ele>725.6</ele>
        <time>2026-07-08T07:34:35.000Z</time>
      </trkpt>
      <trkpt lat="45.81201" lon="1.88769">
        <ele>725.6</ele>
        <time>2026-07-08T07:34:36.000Z</time>
      </trkpt>
      <trkpt lat="45.81201" lon="1.88767">
        <ele>725.7</ele>
        <time>2026-07-08T07:34:37.000Z</time>
      </trkpt>
      <trkpt lat="45.812" lon="1.88765">
        <ele>725.8</ele>
        <time>2026-07-08T07:34:38.000Z</time>
      </trkpt>
      <trkpt lat="45.81199" lon="1.88764">
        <ele>725.8</ele>
        <time>2026-07-08T07:34:39.000Z</time>
      </trkpt>
      <trkpt lat="45.81198" lon="1.88762">
        <ele>725.7</ele>
        <time>2026-07-08T07:34:40.000Z</time>
      </trkpt>
      <trkpt lat="45.81197" lon="1.88761">
        <ele>726</ele>
        <time>2026-07-08T07:34:41.000Z</time>
      </trkpt>
      <trkpt lat="45.81196" lon="1.88759">
        <ele>726</ele>
        <time>2026-07-08T07:34:42.000Z</time>
      </trkpt>
      <trkpt lat="45.81196" lon="1.88757">
        <ele>726.1</ele>
        <time>2026-07-08T07:34:43.000Z</time>
      </trkpt>
      <trkpt lat="45.81195" lon="1.88756">
        <ele>726.1</ele>
        <time>2026-07-08T07:34:44.000Z</time>
      </trkpt>
      <trkpt lat="45.81194" lon="1.88754">
        <ele>726.2</ele>
        <time>2026-07-08T07:34:45.000Z</time>
      </trkpt>
      <trkpt lat="45.81193" lon="1.88752">
        <ele>726.1</ele>
        <time>2026-07-08T07:34:46.000Z</time>
      </trkpt>
      <trkpt lat="45.81193" lon="1.88751">
        <ele>726.3</ele>
        <time>2026-07-08T07:34:47.000Z</time>
      </trkpt>
      <trkpt lat="45.81192" lon="1.88749">
        <ele>726.6</ele>
        <time>2026-07-08T07:34:48.000Z</time>
      </trkpt>
      <trkpt lat="45.81191" lon="1.88748">
        <ele>726.9</ele>
        <time>2026-07-08T07:34:49.000Z</time>
      </trkpt>
      <trkpt lat="45.8119" lon="1.88746">
        <ele>726.9</ele>
        <time>2026-07-08T07:34:50.000Z</time>
      </trkpt>
      <trkpt lat="45.81189" lon="1.88745">
        <ele>726.9</ele>
        <time>2026-07-08T07:34:51.000Z</time>
      </trkpt>
      <trkpt lat="45.81188" lon="1.88743">
        <ele>726.9</ele>
        <time>2026-07-08T07:34:52.000Z</time>
      </trkpt>
      <trkpt lat="45.81187" lon="1.88741">
        <ele>726.9</ele>
        <time>2026-07-08T07:34:53.000Z</time>
      </trkpt>
      <trkpt lat="45.81186" lon="1.88739">
        <ele>726.8</ele>
        <time>2026-07-08T07:34:54.000Z</time>
      </trkpt>
      <trkpt lat="45.81185" lon="1.88737">
        <ele>727</ele>
        <time>2026-07-08T07:34:55.000Z</time>
      </trkpt>
      <trkpt lat="45.81184" lon="1.88735">
        <ele>726.9</ele>
        <time>2026-07-08T07:34:56.000Z</time>
      </trkpt>
      <trkpt lat="45.81183" lon="1.88733">
        <ele>727.1</ele>
        <time>2026-07-08T07:34:57.000Z</time>
      </trkpt>
      <trkpt lat="45.81182" lon="1.88732">
        <ele>726.9</ele>
        <time>2026-07-08T07:34:58.000Z</time>
      </trkpt>
      <trkpt lat="45.81181" lon="1.8873">
        <ele>726.7</ele>
        <time>2026-07-08T07:34:59.000Z</time>
      </trkpt>
      <trkpt lat="45.8118" lon="1.88728">
        <ele>726.7</ele>
        <time>2026-07-08T07:35:00.000Z</time>
      </trkpt>
      <trkpt lat="45.8118" lon="1.88727">
        <ele>726.5</ele>
        <time>2026-07-08T07:35:01.000Z</time>
      </trkpt>
      <trkpt lat="45.81179" lon="1.88725">
        <ele>726.7</ele>
        <time>2026-07-08T07:35:02.000Z</time>
      </trkpt>
      <trkpt lat="45.81178" lon="1.88723">
        <ele>726.8</ele>
        <time>2026-07-08T07:35:03.000Z</time>
      </trkpt>
      <trkpt lat="45.81177" lon="1.88721">
        <ele>726.9</ele>
        <time>2026-07-08T07:35:04.000Z</time>
      </trkpt>
      <trkpt lat="45.81176" lon="1.88719">
        <ele>727</ele>
        <time>2026-07-08T07:35:05.000Z</time>
      </trkpt>
      <trkpt lat="45.81175" lon="1.88717">
        <ele>727</ele>
        <time>2026-07-08T07:35:06.000Z</time>
      </trkpt>
      <trkpt lat="45.81174" lon="1.88715">
        <ele>726.9</ele>
        <time>2026-07-08T07:35:07.000Z</time>
      </trkpt>
      <trkpt lat="45.81173" lon="1.88714">
        <ele>726.8</ele>
        <time>2026-07-08T07:35:08.000Z</time>
      </trkpt>
      <trkpt lat="45.81172" lon="1.88712">
        <ele>726.8</ele>
        <time>2026-07-08T07:35:09.000Z</time>
      </trkpt>
      <trkpt lat="45.81171" lon="1.88711">
        <ele>726.9</ele>
        <time>2026-07-08T07:35:10.000Z</time>
      </trkpt>
      <trkpt lat="45.8117" lon="1.88709">
        <ele>726.9</ele>
        <time>2026-07-08T07:35:11.000Z</time>
      </trkpt>
      <trkpt lat="45.8117" lon="1.88707">
        <ele>726.6</ele>
        <time>2026-07-08T07:35:12.000Z</time>
      </trkpt>
      <trkpt lat="45.81169" lon="1.88705">
        <ele>726.6</ele>
        <time>2026-07-08T07:35:13.000Z</time>
      </trkpt>
      <trkpt lat="45.81168" lon="1.88703">
        <ele>726.6</ele>
        <time>2026-07-08T07:35:14.000Z</time>
      </trkpt>
      <trkpt lat="45.81167" lon="1.88702">
        <ele>726.6</ele>
        <time>2026-07-08T07:35:15.000Z</time>
      </trkpt>
      <trkpt lat="45.81166" lon="1.887">
        <ele>726.6</ele>
        <time>2026-07-08T07:35:16.000Z</time>
      </trkpt>
      <trkpt lat="45.81165" lon="1.88698">
        <ele>726.7</ele>
        <time>2026-07-08T07:35:17.000Z</time>
      </trkpt>
      <trkpt lat="45.81164" lon="1.88696">
        <ele>726.9</ele>
        <time>2026-07-08T07:35:18.000Z</time>
      </trkpt>
      <trkpt lat="45.81163" lon="1.88695">
        <ele>727.7</ele>
        <time>2026-07-08T07:35:19.000Z</time>
      </trkpt>
      <trkpt lat="45.81161" lon="1.88694">
        <ele>728.1</ele>
        <time>2026-07-08T07:35:20.000Z</time>
      </trkpt>
      <trkpt lat="45.8116" lon="1.88693">
        <ele>728.9</ele>
        <time>2026-07-08T07:35:21.000Z</time>
      </trkpt>
      <trkpt lat="45.81159" lon="1.88691">
        <ele>728.5</ele>
        <time>2026-07-08T07:35:22.000Z</time>
      </trkpt>
      <trkpt lat="45.81158" lon="1.8869">
        <ele>728.2</ele>
        <time>2026-07-08T07:35:23.000Z</time>
      </trkpt>
      <trkpt lat="45.81158" lon="1.88689">
        <ele>729.2</ele>
        <time>2026-07-08T07:35:24.000Z</time>
      </trkpt>
      <trkpt lat="45.81157" lon="1.88687">
        <ele>729.3</ele>
        <time>2026-07-08T07:35:25.000Z</time>
      </trkpt>
      <trkpt lat="45.81156" lon="1.88685">
        <ele>729.3</ele>
        <time>2026-07-08T07:35:26.000Z</time>
      </trkpt>
      <trkpt lat="45.81155" lon="1.88683">
        <ele>729.3</ele>
        <time>2026-07-08T07:35:27.000Z</time>
      </trkpt>
      <trkpt lat="45.81154" lon="1.88681">
        <ele>729.1</ele>
        <time>2026-07-08T07:35:28.000Z</time>
      </trkpt>
      <trkpt lat="45.81153" lon="1.88679">
        <ele>728.9</ele>
        <time>2026-07-08T07:35:29.000Z</time>
      </trkpt>
      <trkpt lat="45.81152" lon="1.88676">
        <ele>727.6</ele>
        <time>2026-07-08T07:35:30.000Z</time>
      </trkpt>
      <trkpt lat="45.81152" lon="1.88674">
        <ele>727.5</ele>
        <time>2026-07-08T07:35:31.000Z</time>
      </trkpt>
      <trkpt lat="45.81153" lon="1.88674">
        <ele>727.5</ele>
        <time>2026-07-08T07:35:32.000Z</time>
      </trkpt>
      <trkpt lat="45.81155" lon="1.88672">
        <ele>727.7</ele>
        <time>2026-07-08T07:35:33.000Z</time>
      </trkpt>
      <trkpt lat="45.81155" lon="1.8867">
        <ele>728</ele>
        <time>2026-07-08T07:35:34.000Z</time>
      </trkpt>
      <trkpt lat="45.81155" lon="1.88668">
        <ele>728.2</ele>
        <time>2026-07-08T07:35:35.000Z</time>
      </trkpt>
      <trkpt lat="45.81153" lon="1.88665">
        <ele>727.5</ele>
        <time>2026-07-08T07:35:36.000Z</time>
      </trkpt>
      <trkpt lat="45.81151" lon="1.88663">
        <ele>727.5</ele>
        <time>2026-07-08T07:35:37.000Z</time>
      </trkpt>
      <trkpt lat="45.81149" lon="1.88662">
        <ele>727</ele>
        <time>2026-07-08T07:35:38.000Z</time>
      </trkpt>
      <trkpt lat="45.81148" lon="1.8866">
        <ele>726.6</ele>
        <time>2026-07-08T07:35:39.000Z</time>
      </trkpt>
      <trkpt lat="45.81146" lon="1.88658">
        <ele>727.6</ele>
        <time>2026-07-08T07:35:40.000Z</time>
      </trkpt>
      <trkpt lat="45.81144" lon="1.88655">
        <ele>727.8</ele>
        <time>2026-07-08T07:35:41.000Z</time>
      </trkpt>
      <trkpt lat="45.81143" lon="1.88654">
        <ele>727</ele>
        <time>2026-07-08T07:35:42.000Z</time>
      </trkpt>
      <trkpt lat="45.81141" lon="1.88653">
        <ele>727.4</ele>
        <time>2026-07-08T07:35:43.000Z</time>
      </trkpt>
      <trkpt lat="45.81139" lon="1.88652">
        <ele>726.9</ele>
        <time>2026-07-08T07:35:44.000Z</time>
      </trkpt>
      <trkpt lat="45.81138" lon="1.88651">
        <ele>726.9</ele>
        <time>2026-07-08T07:35:45.000Z</time>
      </trkpt>
      <trkpt lat="45.81136" lon="1.88651">
        <ele>726.6</ele>
        <time>2026-07-08T07:35:46.000Z</time>
      </trkpt>
      <trkpt lat="45.81133" lon="1.88651">
        <ele>725.8</ele>
        <time>2026-07-08T07:35:47.000Z</time>
      </trkpt>
      <trkpt lat="45.81131" lon="1.88651">
        <ele>726.5</ele>
        <time>2026-07-08T07:35:48.000Z</time>
      </trkpt>
      <trkpt lat="45.81128" lon="1.88652">
        <ele>725.6</ele>
        <time>2026-07-08T07:35:49.000Z</time>
      </trkpt>
      <trkpt lat="45.81125" lon="1.88653">
        <ele>725.5</ele>
        <time>2026-07-08T07:35:50.000Z</time>
      </trkpt>
      <trkpt lat="45.81122" lon="1.88653">
        <ele>725.5</ele>
        <time>2026-07-08T07:35:51.000Z</time>
      </trkpt>
      <trkpt lat="45.8112" lon="1.88654">
        <ele>725.1</ele>
        <time>2026-07-08T07:35:52.000Z</time>
      </trkpt>
      <trkpt lat="45.81117" lon="1.88654">
        <ele>726.8</ele>
        <time>2026-07-08T07:35:53.000Z</time>
      </trkpt>
      <trkpt lat="45.81114" lon="1.88654">
        <ele>726.9</ele>
        <time>2026-07-08T07:35:54.000Z</time>
      </trkpt>
      <trkpt lat="45.81112" lon="1.88654">
        <ele>727.1</ele>
        <time>2026-07-08T07:35:55.000Z</time>
      </trkpt>
      <trkpt lat="45.81108" lon="1.88654">
        <ele>728.1</ele>
        <time>2026-07-08T07:35:56.000Z</time>
      </trkpt>
      <trkpt lat="45.81106" lon="1.88655">
        <ele>726.8</ele>
        <time>2026-07-08T07:35:57.000Z</time>
      </trkpt>
      <trkpt lat="45.81104" lon="1.88656">
        <ele>724.3</ele>
        <time>2026-07-08T07:35:58.000Z</time>
      </trkpt>
      <trkpt lat="45.81102" lon="1.88658">
        <ele>723.9</ele>
        <time>2026-07-08T07:35:59.000Z</time>
      </trkpt>
      <trkpt lat="45.81099" lon="1.8866">
        <ele>724.1</ele>
        <time>2026-07-08T07:36:00.000Z</time>
      </trkpt>
      <trkpt lat="45.81097" lon="1.88661">
        <ele>724.1</ele>
        <time>2026-07-08T07:36:01.000Z</time>
      </trkpt>
      <trkpt lat="45.81094" lon="1.88662">
        <ele>723.3</ele>
        <time>2026-07-08T07:36:02.000Z</time>
      </trkpt>
      <trkpt lat="45.81091" lon="1.88662">
        <ele>723.1</ele>
        <time>2026-07-08T07:36:03.000Z</time>
      </trkpt>
      <trkpt lat="45.81089" lon="1.88662">
        <ele>723.7</ele>
        <time>2026-07-08T07:36:04.000Z</time>
      </trkpt>
      <trkpt lat="45.81087" lon="1.88662">
        <ele>724</ele>
        <time>2026-07-08T07:36:05.000Z</time>
      </trkpt>
      <trkpt lat="45.81085" lon="1.88662">
        <ele>723.7</ele>
        <time>2026-07-08T07:36:06.000Z</time>
      </trkpt>
      <trkpt lat="45.81083" lon="1.88661">
        <ele>723.8</ele>
        <time>2026-07-08T07:36:07.000Z</time>
      </trkpt>
      <trkpt lat="45.81081" lon="1.88661">
        <ele>723.3</ele>
        <time>2026-07-08T07:36:08.000Z</time>
      </trkpt>
      <trkpt lat="45.81079" lon="1.8866">
        <ele>723.3</ele>
        <time>2026-07-08T07:36:09.000Z</time>
      </trkpt>
      <trkpt lat="45.81077" lon="1.88659">
        <ele>722.3</ele>
        <time>2026-07-08T07:36:10.000Z</time>
      </trkpt>
      <trkpt lat="45.81075" lon="1.88658">
        <ele>722.4</ele>
        <time>2026-07-08T07:36:11.000Z</time>
      </trkpt>
      <trkpt lat="45.81074" lon="1.88657">
        <ele>721.1</ele>
        <time>2026-07-08T07:36:12.000Z</time>
      </trkpt>
      <trkpt lat="45.81072" lon="1.88656">
        <ele>720.9</ele>
        <time>2026-07-08T07:36:13.000Z</time>
      </trkpt>
      <trkpt lat="45.81071" lon="1.88654">
        <ele>720.7</ele>
        <time>2026-07-08T07:36:14.000Z</time>
      </trkpt>
      <trkpt lat="45.81069" lon="1.88652">
        <ele>720</ele>
        <time>2026-07-08T07:36:15.000Z</time>
      </trkpt>
      <trkpt lat="45.81068" lon="1.8865">
        <ele>719.9</ele>
        <time>2026-07-08T07:36:16.000Z</time>
      </trkpt>
      <trkpt lat="45.81066" lon="1.88648">
        <ele>719.9</ele>
        <time>2026-07-08T07:36:17.000Z</time>
      </trkpt>
      <trkpt lat="45.81066" lon="1.88647">
        <ele>719.2</ele>
        <time>2026-07-08T07:36:18.000Z</time>
      </trkpt>
      <trkpt lat="45.81066" lon="1.88645">
        <ele>719.3</ele>
        <time>2026-07-08T07:36:19.000Z</time>
      </trkpt>
      <trkpt lat="45.81066" lon="1.88643">
        <ele>718.6</ele>
        <time>2026-07-08T07:36:20.000Z</time>
      </trkpt>
      <trkpt lat="45.81065" lon="1.88641">
        <ele>719</ele>
        <time>2026-07-08T07:36:21.000Z</time>
      </trkpt>
      <trkpt lat="45.81064" lon="1.88636">
        <ele>721.4</ele>
        <time>2026-07-08T07:36:22.000Z</time>
      </trkpt>
      <trkpt lat="45.81063" lon="1.88631">
        <ele>724.2</ele>
        <time>2026-07-08T07:36:23.000Z</time>
      </trkpt>
      <trkpt lat="45.81062" lon="1.88627">
        <ele>724.4</ele>
        <time>2026-07-08T07:36:24.000Z</time>
      </trkpt>
      <trkpt lat="45.81062" lon="1.88625">
        <ele>723.8</ele>
        <time>2026-07-08T07:36:25.000Z</time>
      </trkpt>
      <trkpt lat="45.81061" lon="1.88623">
        <ele>724</ele>
        <time>2026-07-08T07:36:26.000Z</time>
      </trkpt>
      <trkpt lat="45.8106" lon="1.8862">
        <ele>726.4</ele>
        <time>2026-07-08T07:36:27.000Z</time>
      </trkpt>
      <trkpt lat="45.81059" lon="1.88616">
        <ele>726.9</ele>
        <time>2026-07-08T07:36:28.000Z</time>
      </trkpt>
      <trkpt lat="45.81056" lon="1.88614">
        <ele>728.1</ele>
        <time>2026-07-08T07:36:29.000Z</time>
      </trkpt>
      <trkpt lat="45.81054" lon="1.88612">
        <ele>727.7</ele>
        <time>2026-07-08T07:36:30.000Z</time>
      </trkpt>
      <trkpt lat="45.81051" lon="1.8861">
        <ele>727.6</ele>
        <time>2026-07-08T07:36:31.000Z</time>
      </trkpt>
      <trkpt lat="45.81048" lon="1.88607">
        <ele>728.4</ele>
        <time>2026-07-08T07:36:32.000Z</time>
      </trkpt>
      <trkpt lat="45.81045" lon="1.88606">
        <ele>728.9</ele>
        <time>2026-07-08T07:36:33.000Z</time>
      </trkpt>
      <trkpt lat="45.81042" lon="1.88605">
        <ele>728.6</ele>
        <time>2026-07-08T07:36:34.000Z</time>
      </trkpt>
      <trkpt lat="45.81039" lon="1.88606">
        <ele>728.2</ele>
        <time>2026-07-08T07:36:35.000Z</time>
      </trkpt>
      <trkpt lat="45.81038" lon="1.88605">
        <ele>727.8</ele>
        <time>2026-07-08T07:36:36.000Z</time>
      </trkpt>
      <trkpt lat="45.81035" lon="1.88605">
        <ele>727.5</ele>
        <time>2026-07-08T07:36:37.000Z</time>
      </trkpt>
      <trkpt lat="45.81032" lon="1.88606">
        <ele>727.6</ele>
        <time>2026-07-08T07:36:38.000Z</time>
      </trkpt>
      <trkpt lat="45.8103" lon="1.88606">
        <ele>724.2</ele>
        <time>2026-07-08T07:36:39.000Z</time>
      </trkpt>
      <trkpt lat="45.81028" lon="1.88608">
        <ele>721.9</ele>
        <time>2026-07-08T07:36:40.000Z</time>
      </trkpt>
      <trkpt lat="45.81025" lon="1.88609">
        <ele>719.7</ele>
        <time>2026-07-08T07:36:41.000Z</time>
      </trkpt>
      <trkpt lat="45.81021" lon="1.88611">
        <ele>719</ele>
        <time>2026-07-08T07:36:42.000Z</time>
      </trkpt>
      <trkpt lat="45.81018" lon="1.88613">
        <ele>717.9</ele>
        <time>2026-07-08T07:36:43.000Z</time>
      </trkpt>
      <trkpt lat="45.81016" lon="1.88616">
        <ele>718.3</ele>
        <time>2026-07-08T07:36:44.000Z</time>
      </trkpt>
      <trkpt lat="45.81014" lon="1.88618">
        <ele>717.5</ele>
        <time>2026-07-08T07:36:45.000Z</time>
      </trkpt>
      <trkpt lat="45.81012" lon="1.88621">
        <ele>716.7</ele>
        <time>2026-07-08T07:36:46.000Z</time>
      </trkpt>
      <trkpt lat="45.81011" lon="1.88623">
        <ele>715.7</ele>
        <time>2026-07-08T07:36:47.000Z</time>
      </trkpt>
      <trkpt lat="45.81008" lon="1.88626">
        <ele>715.1</ele>
        <time>2026-07-08T07:36:48.000Z</time>
      </trkpt>
      <trkpt lat="45.81006" lon="1.88627">
        <ele>715.9</ele>
        <time>2026-07-08T07:36:49.000Z</time>
      </trkpt>
      <trkpt lat="45.81004" lon="1.88628">
        <ele>715.7</ele>
        <time>2026-07-08T07:36:50.000Z</time>
      </trkpt>
      <trkpt lat="45.81002" lon="1.8863">
        <ele>715.3</ele>
        <time>2026-07-08T07:36:51.000Z</time>
      </trkpt>
      <trkpt lat="45.81" lon="1.88633">
        <ele>714.8</ele>
        <time>2026-07-08T07:36:52.000Z</time>
      </trkpt>
      <trkpt lat="45.80998" lon="1.88636">
        <ele>714.4</ele>
        <time>2026-07-08T07:36:53.000Z</time>
      </trkpt>
      <trkpt lat="45.80997" lon="1.88639">
        <ele>713.6</ele>
        <time>2026-07-08T07:36:54.000Z</time>
      </trkpt>
      <trkpt lat="45.80996" lon="1.88642">
        <ele>712</ele>
        <time>2026-07-08T07:36:55.000Z</time>
      </trkpt>
      <trkpt lat="45.80994" lon="1.88648">
        <ele>711.1</ele>
        <time>2026-07-08T07:36:56.000Z</time>
      </trkpt>
      <trkpt lat="45.80993" lon="1.88653">
        <ele>710.3</ele>
        <time>2026-07-08T07:36:57.000Z</time>
      </trkpt>
      <trkpt lat="45.80991" lon="1.88656">
        <ele>711.2</ele>
        <time>2026-07-08T07:36:58.000Z</time>
      </trkpt>
      <trkpt lat="45.8099" lon="1.88658">
        <ele>710.2</ele>
        <time>2026-07-08T07:36:59.000Z</time>
      </trkpt>
      <trkpt lat="45.80988" lon="1.88661">
        <ele>710.4</ele>
        <time>2026-07-08T07:37:00.000Z</time>
      </trkpt>
      <trkpt lat="45.80986" lon="1.88664">
        <ele>710.5</ele>
        <time>2026-07-08T07:37:01.000Z</time>
      </trkpt>
      <trkpt lat="45.80984" lon="1.88668">
        <ele>711.7</ele>
        <time>2026-07-08T07:37:02.000Z</time>
      </trkpt>
      <trkpt lat="45.80982" lon="1.88672">
        <ele>712.3</ele>
        <time>2026-07-08T07:37:03.000Z</time>
      </trkpt>
      <trkpt lat="45.8098" lon="1.88678">
        <ele>713.5</ele>
        <time>2026-07-08T07:37:04.000Z</time>
      </trkpt>
      <trkpt lat="45.80976" lon="1.88681">
        <ele>715.6</ele>
        <time>2026-07-08T07:37:05.000Z</time>
      </trkpt>
      <trkpt lat="45.80973" lon="1.88684">
        <ele>716.4</ele>
        <time>2026-07-08T07:37:06.000Z</time>
      </trkpt>
      <trkpt lat="45.8097" lon="1.88685">
        <ele>715.9</ele>
        <time>2026-07-08T07:37:07.000Z</time>
      </trkpt>
      <trkpt lat="45.80967" lon="1.88687">
        <ele>717.1</ele>
        <time>2026-07-08T07:37:08.000Z</time>
      </trkpt>
      <trkpt lat="45.80964" lon="1.88689">
        <ele>718.4</ele>
        <time>2026-07-08T07:37:09.000Z</time>
      </trkpt>
      <trkpt lat="45.80961" lon="1.88691">
        <ele>718.6</ele>
        <time>2026-07-08T07:37:10.000Z</time>
      </trkpt>
      <trkpt lat="45.80958" lon="1.88693">
        <ele>718.6</ele>
        <time>2026-07-08T07:37:11.000Z</time>
      </trkpt>
      <trkpt lat="45.80954" lon="1.88697">
        <ele>718.2</ele>
        <time>2026-07-08T07:37:12.000Z</time>
      </trkpt>
      <trkpt lat="45.80949" lon="1.887">
        <ele>718.4</ele>
        <time>2026-07-08T07:37:13.000Z</time>
      </trkpt>
      <trkpt lat="45.80944" lon="1.88702">
        <ele>718.8</ele>
        <time>2026-07-08T07:37:14.000Z</time>
      </trkpt>
      <trkpt lat="45.80939" lon="1.88704">
        <ele>719.3</ele>
        <time>2026-07-08T07:37:15.000Z</time>
      </trkpt>
      <trkpt lat="45.80935" lon="1.88705">
        <ele>720.8</ele>
        <time>2026-07-08T07:37:16.000Z</time>
      </trkpt>
      <trkpt lat="45.8093" lon="1.88707">
        <ele>721.2</ele>
        <time>2026-07-08T07:37:17.000Z</time>
      </trkpt>
      <trkpt lat="45.80926" lon="1.88708">
        <ele>722.2</ele>
        <time>2026-07-08T07:37:18.000Z</time>
      </trkpt>
      <trkpt lat="45.80922" lon="1.88708">
        <ele>722.6</ele>
        <time>2026-07-08T07:37:19.000Z</time>
      </trkpt>
      <trkpt lat="45.80919" lon="1.88709">
        <ele>722.7</ele>
        <time>2026-07-08T07:37:20.000Z</time>
      </trkpt>
      <trkpt lat="45.80917" lon="1.88711">
        <ele>721.8</ele>
        <time>2026-07-08T07:37:21.000Z</time>
      </trkpt>
      <trkpt lat="45.80914" lon="1.88712">
        <ele>721.6</ele>
        <time>2026-07-08T07:37:22.000Z</time>
      </trkpt>
      <trkpt lat="45.80912" lon="1.88713">
        <ele>721.6</ele>
        <time>2026-07-08T07:37:23.000Z</time>
      </trkpt>
      <trkpt lat="45.80908" lon="1.88715">
        <ele>721.9</ele>
        <time>2026-07-08T07:37:24.000Z</time>
      </trkpt>
      <trkpt lat="45.80905" lon="1.88716">
        <ele>721.5</ele>
        <time>2026-07-08T07:37:25.000Z</time>
      </trkpt>
      <trkpt lat="45.80902" lon="1.88718">
        <ele>722.1</ele>
        <time>2026-07-08T07:37:26.000Z</time>
      </trkpt>
      <trkpt lat="45.80899" lon="1.8872">
        <ele>722.8</ele>
        <time>2026-07-08T07:37:27.000Z</time>
      </trkpt>
      <trkpt lat="45.80895" lon="1.88721">
        <ele>723.7</ele>
        <time>2026-07-08T07:37:28.000Z</time>
      </trkpt>
      <trkpt lat="45.80892" lon="1.88724">
        <ele>724.6</ele>
        <time>2026-07-08T07:37:29.000Z</time>
      </trkpt>
      <trkpt lat="45.80888" lon="1.88726">
        <ele>725.6</ele>
        <time>2026-07-08T07:37:30.000Z</time>
      </trkpt>
      <trkpt lat="45.80884" lon="1.8873">
        <ele>726.5</ele>
        <time>2026-07-08T07:37:31.000Z</time>
      </trkpt>
      <trkpt lat="45.80881" lon="1.88732">
        <ele>727.1</ele>
        <time>2026-07-08T07:37:32.000Z</time>
      </trkpt>
      <trkpt lat="45.80877" lon="1.88734">
        <ele>725</ele>
        <time>2026-07-08T07:37:33.000Z</time>
      </trkpt>
      <trkpt lat="45.80873" lon="1.88735">
        <ele>724.1</ele>
        <time>2026-07-08T07:37:34.000Z</time>
      </trkpt>
      <trkpt lat="45.80869" lon="1.88736">
        <ele>722.5</ele>
        <time>2026-07-08T07:37:35.000Z</time>
      </trkpt>
      <trkpt lat="45.80864" lon="1.88735">
        <ele>722.4</ele>
        <time>2026-07-08T07:37:36.000Z</time>
      </trkpt>
      <trkpt lat="45.80859" lon="1.88733">
        <ele>724.2</ele>
        <time>2026-07-08T07:37:37.000Z</time>
      </trkpt>
      <trkpt lat="45.80856" lon="1.88729">
        <ele>724.6</ele>
        <time>2026-07-08T07:37:38.000Z</time>
      </trkpt>
      <trkpt lat="45.80853" lon="1.88726">
        <ele>724.4</ele>
        <time>2026-07-08T07:37:39.000Z</time>
      </trkpt>
      <trkpt lat="45.8085" lon="1.88722">
        <ele>724.8</ele>
        <time>2026-07-08T07:37:40.000Z</time>
      </trkpt>
      <trkpt lat="45.80847" lon="1.88721">
        <ele>725.5</ele>
        <time>2026-07-08T07:37:41.000Z</time>
      </trkpt>
      <trkpt lat="45.80844" lon="1.88719">
        <ele>726.3</ele>
        <time>2026-07-08T07:37:42.000Z</time>
      </trkpt>
      <trkpt lat="45.8084" lon="1.88718">
        <ele>726.3</ele>
        <time>2026-07-08T07:37:43.000Z</time>
      </trkpt>
      <trkpt lat="45.80837" lon="1.88714">
        <ele>725.6</ele>
        <time>2026-07-08T07:37:44.000Z</time>
      </trkpt>
      <trkpt lat="45.80833" lon="1.88709">
        <ele>726.1</ele>
        <time>2026-07-08T07:37:45.000Z</time>
      </trkpt>
      <trkpt lat="45.8083" lon="1.88703">
        <ele>725.9</ele>
        <time>2026-07-08T07:37:46.000Z</time>
      </trkpt>
      <trkpt lat="45.80829" lon="1.88696">
        <ele>726</ele>
        <time>2026-07-08T07:37:47.000Z</time>
      </trkpt>
      <trkpt lat="45.80829" lon="1.88689">
        <ele>726.6</ele>
        <time>2026-07-08T07:37:48.000Z</time>
      </trkpt>
      <trkpt lat="45.8083" lon="1.88684">
        <ele>727.7</ele>
        <time>2026-07-08T07:37:49.000Z</time>
      </trkpt>
      <trkpt lat="45.80833" lon="1.88679">
        <ele>726</ele>
        <time>2026-07-08T07:37:50.000Z</time>
      </trkpt>
      <trkpt lat="45.80836" lon="1.88676">
        <ele>726.2</ele>
        <time>2026-07-08T07:37:51.000Z</time>
      </trkpt>
      <trkpt lat="45.80839" lon="1.88673">
        <ele>726.6</ele>
        <time>2026-07-08T07:37:52.000Z</time>
      </trkpt>
      <trkpt lat="45.80842" lon="1.8867">
        <ele>727</ele>
        <time>2026-07-08T07:37:53.000Z</time>
      </trkpt>
      <trkpt lat="45.80845" lon="1.88666">
        <ele>727.3</ele>
        <time>2026-07-08T07:37:54.000Z</time>
      </trkpt>
      <trkpt lat="45.80846" lon="1.88662">
        <ele>728.2</ele>
        <time>2026-07-08T07:37:55.000Z</time>
      </trkpt>
      <trkpt lat="45.80847" lon="1.88657">
        <ele>728.1</ele>
        <time>2026-07-08T07:37:56.000Z</time>
      </trkpt>
      <trkpt lat="45.80848" lon="1.88652">
        <ele>727.9</ele>
        <time>2026-07-08T07:37:57.000Z</time>
      </trkpt>
      <trkpt lat="45.80849" lon="1.88645">
        <ele>728.7</ele>
        <time>2026-07-08T07:37:58.000Z</time>
      </trkpt>
      <trkpt lat="45.80849" lon="1.88641">
        <ele>729.6</ele>
        <time>2026-07-08T07:37:59.000Z</time>
      </trkpt>
      <trkpt lat="45.8085" lon="1.88636">
        <ele>730.5</ele>
        <time>2026-07-08T07:38:00.000Z</time>
      </trkpt>
      <trkpt lat="45.80851" lon="1.88631">
        <ele>731.1</ele>
        <time>2026-07-08T07:38:01.000Z</time>
      </trkpt>
      <trkpt lat="45.80852" lon="1.88624">
        <ele>731.2</ele>
        <time>2026-07-08T07:38:02.000Z</time>
      </trkpt>
      <trkpt lat="45.80852" lon="1.88618">
        <ele>731.9</ele>
        <time>2026-07-08T07:38:03.000Z</time>
      </trkpt>
      <trkpt lat="45.80851" lon="1.88612">
        <ele>731.6</ele>
        <time>2026-07-08T07:38:04.000Z</time>
      </trkpt>
      <trkpt lat="45.8085" lon="1.88607">
        <ele>731.3</ele>
        <time>2026-07-08T07:38:05.000Z</time>
      </trkpt>
      <trkpt lat="45.80848" lon="1.88601">
        <ele>730.9</ele>
        <time>2026-07-08T07:38:06.000Z</time>
      </trkpt>
      <trkpt lat="45.80847" lon="1.88595">
        <ele>732.4</ele>
        <time>2026-07-08T07:38:07.000Z</time>
      </trkpt>
      <trkpt lat="45.80845" lon="1.88587">
        <ele>732.4</ele>
        <time>2026-07-08T07:38:08.000Z</time>
      </trkpt>
      <trkpt lat="45.80843" lon="1.88581">
        <ele>732.1</ele>
        <time>2026-07-08T07:38:09.000Z</time>
      </trkpt>
      <trkpt lat="45.80841" lon="1.88573">
        <ele>731.4</ele>
        <time>2026-07-08T07:38:10.000Z</time>
      </trkpt>
      <trkpt lat="45.8084" lon="1.88565">
        <ele>732.6</ele>
        <time>2026-07-08T07:38:11.000Z</time>
      </trkpt>
      <trkpt lat="45.80837" lon="1.88557">
        <ele>732.4</ele>
        <time>2026-07-08T07:38:12.000Z</time>
      </trkpt>
      <trkpt lat="45.80834" lon="1.88552">
        <ele>732.6</ele>
        <time>2026-07-08T07:38:13.000Z</time>
      </trkpt>
      <trkpt lat="45.80832" lon="1.88547">
        <ele>732.7</ele>
        <time>2026-07-08T07:38:14.000Z</time>
      </trkpt>
      <trkpt lat="45.8083" lon="1.88542">
        <ele>732</ele>
        <time>2026-07-08T07:38:15.000Z</time>
      </trkpt>
      <trkpt lat="45.80829" lon="1.88537">
        <ele>731.9</ele>
        <time>2026-07-08T07:38:16.000Z</time>
      </trkpt>
      <trkpt lat="45.80828" lon="1.88533">
        <ele>732.8</ele>
        <time>2026-07-08T07:38:17.000Z</time>
      </trkpt>
      <trkpt lat="45.80826" lon="1.88528">
        <ele>734</ele>
        <time>2026-07-08T07:38:18.000Z</time>
      </trkpt>
      <trkpt lat="45.80825" lon="1.88524">
        <ele>735</ele>
        <time>2026-07-08T07:38:19.000Z</time>
      </trkpt>
      <trkpt lat="45.80823" lon="1.88521">
        <ele>736.2</ele>
        <time>2026-07-08T07:38:20.000Z</time>
      </trkpt>
      <trkpt lat="45.80822" lon="1.88518">
        <ele>736.6</ele>
        <time>2026-07-08T07:38:21.000Z</time>
      </trkpt>
      <trkpt lat="45.80821" lon="1.88516">
        <ele>736.8</ele>
        <time>2026-07-08T07:38:22.000Z</time>
      </trkpt>
      <trkpt lat="45.8082" lon="1.88514">
        <ele>738.4</ele>
        <time>2026-07-08T07:38:23.000Z</time>
      </trkpt>
      <trkpt lat="45.80818" lon="1.88513">
        <ele>737.4</ele>
        <time>2026-07-08T07:38:24.000Z</time>
      </trkpt>
      <trkpt lat="45.80816" lon="1.88512">
        <ele>737.1</ele>
        <time>2026-07-08T07:38:25.000Z</time>
      </trkpt>
      <trkpt lat="45.80814" lon="1.88511">
        <ele>738</ele>
        <time>2026-07-08T07:38:26.000Z</time>
      </trkpt>
      <trkpt lat="45.80813" lon="1.8851">
        <ele>738.8</ele>
        <time>2026-07-08T07:38:27.000Z</time>
      </trkpt>
      <trkpt lat="45.80811" lon="1.88509">
        <ele>738.5</ele>
        <time>2026-07-08T07:38:28.000Z</time>
      </trkpt>
      <trkpt lat="45.80811" lon="1.88508">
        <ele>737.7</ele>
        <time>2026-07-08T07:38:29.000Z</time>
      </trkpt>
      <trkpt lat="45.8081" lon="1.88506">
        <ele>737.4</ele>
        <time>2026-07-08T07:38:30.000Z</time>
      </trkpt>
      <trkpt lat="45.80809" lon="1.88505">
        <ele>737</ele>
        <time>2026-07-08T07:38:31.000Z</time>
      </trkpt>
      <trkpt lat="45.80808" lon="1.88505">
        <ele>737.1</ele>
        <time>2026-07-08T07:38:32.000Z</time>
      </trkpt>
      <trkpt lat="45.80806" lon="1.88506">
        <ele>736.8</ele>
        <time>2026-07-08T07:38:33.000Z</time>
      </trkpt>
      <trkpt lat="45.80806" lon="1.88507">
        <ele>734.9</ele>
        <time>2026-07-08T07:38:34.000Z</time>
      </trkpt>
      <trkpt lat="45.80806" lon="1.88508">
        <ele>734.5</ele>
        <time>2026-07-08T07:38:35.000Z</time>
      </trkpt>
      <trkpt lat="45.80807" lon="1.88508">
        <ele>734.5</ele>
        <time>2026-07-08T07:38:36.000Z</time>
      </trkpt>
      <trkpt lat="45.80805" lon="1.8851">
        <ele>734.5</ele>
        <time>2026-07-08T07:38:37.000Z</time>
      </trkpt>
      <trkpt lat="45.80805" lon="1.8851">
        <ele>734.5</ele>
        <time>2026-07-08T07:38:38.000Z</time>
      </trkpt>
      <trkpt lat="45.80805" lon="1.8851">
        <ele>734.5</ele>
        <time>2026-07-08T07:38:39.000Z</time>
      </trkpt>
      <trkpt lat="45.80805" lon="1.8851">
        <ele>734.5</ele>
        <time>2026-07-08T07:38:40.000Z</time>
      </trkpt>
      <trkpt lat="45.80805" lon="1.8851">
        <ele>734.5</ele>
        <time>2026-07-08T07:38:41.000Z</time>
      </trkpt>
      <trkpt lat="45.80805" lon="1.8851">
        <ele>734.5</ele>
        <time>2026-07-08T07:38:42.000Z</time>
      </trkpt>
      <trkpt lat="45.80805" lon="1.8851">
        <ele>735.7</ele>
        <time>2026-07-08T07:38:43.000Z</time>
      </trkpt>
      <trkpt lat="45.80805" lon="1.8851">
        <ele>735.5</ele>
        <time>2026-07-08T07:38:44.000Z</time>
      </trkpt>
      <trkpt lat="45.80805" lon="1.8851">
        <ele>736</ele>
        <time>2026-07-08T07:38:45.000Z</time>
      </trkpt>
      <trkpt lat="45.80803" lon="1.8851">
        <ele>736.4</ele>
        <time>2026-07-08T07:38:46.000Z</time>
      </trkpt>
      <trkpt lat="45.80802" lon="1.88511">
        <ele>735.9</ele>
        <time>2026-07-08T07:38:47.000Z</time>
      </trkpt>
      <trkpt lat="45.80801" lon="1.88512">
        <ele>735.4</ele>
        <time>2026-07-08T07:38:48.000Z</time>
      </trkpt>
      <trkpt lat="45.80801" lon="1.88513">
        <ele>735.6</ele>
        <time>2026-07-08T07:38:49.000Z</time>
      </trkpt>
      <trkpt lat="45.80802" lon="1.88513">
        <ele>735.5</ele>
        <time>2026-07-08T07:38:50.000Z</time>
      </trkpt>
      <trkpt lat="45.808" lon="1.88515">
        <ele>735.4</ele>
        <time>2026-07-08T07:38:51.000Z</time>
      </trkpt>
      <trkpt lat="45.808" lon="1.88516">
        <ele>735</ele>
        <time>2026-07-08T07:38:52.000Z</time>
      </trkpt>
      <trkpt lat="45.80799" lon="1.88516">
        <ele>735.1</ele>
        <time>2026-07-08T07:38:53.000Z</time>
      </trkpt>
      <trkpt lat="45.80799" lon="1.88516">
        <ele>735.1</ele>
        <time>2026-07-08T07:38:54.000Z</time>
      </trkpt>
      <trkpt lat="45.80799" lon="1.88516">
        <ele>734.8</ele>
        <time>2026-07-08T07:38:55.000Z</time>
      </trkpt>
      <trkpt lat="45.80798" lon="1.88516">
        <ele>735</ele>
        <time>2026-07-08T07:38:56.000Z</time>
      </trkpt>
      <trkpt lat="45.80798" lon="1.88515">
        <ele>735.4</ele>
        <time>2026-07-08T07:38:57.000Z</time>
      </trkpt>
      <trkpt lat="45.80798" lon="1.88515">
        <ele>735.5</ele>
        <time>2026-07-08T07:38:58.000Z</time>
      </trkpt>
      <trkpt lat="45.80798" lon="1.88514">
        <ele>735.5</ele>
        <time>2026-07-08T07:38:59.000Z</time>
      </trkpt>
      <trkpt lat="45.80798" lon="1.88514">
        <ele>735.6</ele>
        <time>2026-07-08T07:39:00.000Z</time>
      </trkpt>
      <trkpt lat="45.80798" lon="1.88514">
        <ele>735.7</ele>
        <time>2026-07-08T07:39:01.000Z</time>
      </trkpt>
      <trkpt lat="45.80798" lon="1.88514">
        <ele>735.9</ele>
        <time>2026-07-08T07:39:02.000Z</time>
      </trkpt>
      <trkpt lat="45.80798" lon="1.88514">
        <ele>735.9</ele>
        <time>2026-07-08T07:39:03.000Z</time>
      </trkpt>
      <trkpt lat="45.80798" lon="1.88514">
        <ele>735.9</ele>
        <time>2026-07-08T07:39:04.000Z</time>
      </trkpt>
      <trkpt lat="45.80798" lon="1.88514">
        <ele>735.9</ele>
        <time>2026-07-08T07:39:05.000Z</time>
      </trkpt>
      <trkpt lat="45.80798" lon="1.88514">
        <ele>735.9</ele>
        <time>2026-07-08T07:39:06.000Z</time>
      </trkpt>
      <trkpt lat="45.80798" lon="1.88514">
        <ele>735.8</ele>
        <time>2026-07-08T07:39:07.000Z</time>
      </trkpt>
      <trkpt lat="45.80798" lon="1.88514">
        <ele>735.8</ele>
        <time>2026-07-08T07:39:08.000Z</time>
      </trkpt>
      <trkpt lat="45.80797" lon="1.88514">
        <ele>735.9</ele>
        <time>2026-07-08T07:39:09.000Z</time>
      </trkpt>
      <trkpt lat="45.80796" lon="1.88515">
        <ele>735.8</ele>
        <time>2026-07-08T07:39:10.000Z</time>
      </trkpt>
      <trkpt lat="45.80795" lon="1.88515">
        <ele>735.7</ele>
        <time>2026-07-08T07:39:11.000Z</time>
      </trkpt>
      <trkpt lat="45.80793" lon="1.88516">
        <ele>735.7</ele>
        <time>2026-07-08T07:39:12.000Z</time>
      </trkpt>
      <trkpt lat="45.80791" lon="1.88517">
        <ele>735.9</ele>
        <time>2026-07-08T07:39:13.000Z</time>
      </trkpt>
      <trkpt lat="45.8079" lon="1.88518">
        <ele>735.3</ele>
        <time>2026-07-08T07:39:14.000Z</time>
      </trkpt>
      <trkpt lat="45.80789" lon="1.8852">
        <ele>735.1</ele>
        <time>2026-07-08T07:39:15.000Z</time>
      </trkpt>
      <trkpt lat="45.80787" lon="1.88521">
        <ele>735.2</ele>
        <time>2026-07-08T07:39:16.000Z</time>
      </trkpt>
      <trkpt lat="45.80786" lon="1.88523">
        <ele>735.4</ele>
        <time>2026-07-08T07:39:17.000Z</time>
      </trkpt>
      <trkpt lat="45.80785" lon="1.88524">
        <ele>736</ele>
        <time>2026-07-08T07:39:18.000Z</time>
      </trkpt>
      <trkpt lat="45.80783" lon="1.88525">
        <ele>736.1</ele>
        <time>2026-07-08T07:39:19.000Z</time>
      </trkpt>
      <trkpt lat="45.80782" lon="1.88524">
        <ele>736.2</ele>
        <time>2026-07-08T07:39:20.000Z</time>
      </trkpt>
      <trkpt lat="45.80782" lon="1.88524">
        <ele>735.9</ele>
        <time>2026-07-08T07:39:21.000Z</time>
      </trkpt>
      <trkpt lat="45.80783" lon="1.88523">
        <ele>736.1</ele>
        <time>2026-07-08T07:39:22.000Z</time>
      </trkpt>
      <trkpt lat="45.80783" lon="1.88523">
        <ele>736.4</ele>
        <time>2026-07-08T07:39:23.000Z</time>
      </trkpt>
      <trkpt lat="45.80783" lon="1.88523">
        <ele>736.4</ele>
        <time>2026-07-08T07:39:24.000Z</time>
      </trkpt>
      <trkpt lat="45.80783" lon="1.88523">
        <ele>736.4</ele>
        <time>2026-07-08T07:39:25.000Z</time>
      </trkpt>
      <trkpt lat="45.80784" lon="1.88523">
        <ele>735.7</ele>
        <time>2026-07-08T07:39:26.000Z</time>
      </trkpt>
      <trkpt lat="45.80784" lon="1.88523">
        <ele>736.5</ele>
        <time>2026-07-08T07:39:27.000Z</time>
      </trkpt>
      <trkpt lat="45.80783" lon="1.88523">
        <ele>736.5</ele>
        <time>2026-07-08T07:39:28.000Z</time>
      </trkpt>
      <trkpt lat="45.80783" lon="1.88523">
        <ele>736.5</ele>
        <time>2026-07-08T07:39:29.000Z</time>
      </trkpt>
      <trkpt lat="45.80783" lon="1.88523">
        <ele>737</ele>
        <time>2026-07-08T07:39:30.000Z</time>
      </trkpt>
      <trkpt lat="45.80783" lon="1.88523">
        <ele>736.9</ele>
        <time>2026-07-08T07:39:31.000Z</time>
      </trkpt>
      <trkpt lat="45.80783" lon="1.88523">
        <ele>736.9</ele>
        <time>2026-07-08T07:39:32.000Z</time>
      </trkpt>
      <trkpt lat="45.80783" lon="1.88524">
        <ele>736.5</ele>
        <time>2026-07-08T07:39:33.000Z</time>
      </trkpt>
      <trkpt lat="45.80783" lon="1.88523">
        <ele>736.1</ele>
        <time>2026-07-08T07:39:34.000Z</time>
      </trkpt>
      <trkpt lat="45.80782" lon="1.88523">
        <ele>736.1</ele>
        <time>2026-07-08T07:39:35.000Z</time>
      </trkpt>
      <trkpt lat="45.80781" lon="1.88523">
        <ele>736.1</ele>
        <time>2026-07-08T07:39:36.000Z</time>
      </trkpt>
      <trkpt lat="45.8078" lon="1.88522">
        <ele>735.7</ele>
        <time>2026-07-08T07:39:37.000Z</time>
      </trkpt>
      <trkpt lat="45.8078" lon="1.88522">
        <ele>735.6</ele>
        <time>2026-07-08T07:39:38.000Z</time>
      </trkpt>
      <trkpt lat="45.8078" lon="1.88522">
        <ele>735.6</ele>
        <time>2026-07-08T07:39:39.000Z</time>
      </trkpt>
      <trkpt lat="45.8078" lon="1.88521">
        <ele>735.3</ele>
        <time>2026-07-08T07:39:40.000Z</time>
      </trkpt>
      <trkpt lat="45.8078" lon="1.88521">
        <ele>735.3</ele>
        <time>2026-07-08T07:39:41.000Z</time>
      </trkpt>
      <trkpt lat="45.8078" lon="1.88521">
        <ele>735.3</ele>
        <time>2026-07-08T07:39:42.000Z</time>
      </trkpt>
      <trkpt lat="45.8078" lon="1.88521">
        <ele>735.3</ele>
        <time>2026-07-08T07:39:43.000Z</time>
      </trkpt>
      <trkpt lat="45.8078" lon="1.88521">
        <ele>735.3</ele>
        <time>2026-07-08T07:39:44.000Z</time>
      </trkpt>
      <trkpt lat="45.8078" lon="1.88521">
        <ele>735.3</ele>
        <time>2026-07-08T07:39:45.000Z</time>
      </trkpt>
      <trkpt lat="45.80781" lon="1.88521">
        <ele>735.7</ele>
        <time>2026-07-08T07:39:46.000Z</time>
      </trkpt>
      <trkpt lat="45.80781" lon="1.88521">
        <ele>735.7</ele>
        <time>2026-07-08T07:39:47.000Z</time>
      </trkpt>
      <trkpt lat="45.80781" lon="1.88522">
        <ele>735.7</ele>
        <time>2026-07-08T07:39:48.000Z</time>
      </trkpt>
      <trkpt lat="45.80781" lon="1.88522">
        <ele>735.7</ele>
        <time>2026-07-08T07:39:49.000Z</time>
      </trkpt>
      <trkpt lat="45.80781" lon="1.88522">
        <ele>735.7</ele>
        <time>2026-07-08T07:39:50.000Z</time>
      </trkpt>
      <trkpt lat="45.80781" lon="1.88522">
        <ele>735.7</ele>
        <time>2026-07-08T07:39:51.000Z</time>
      </trkpt>
      <trkpt lat="45.80781" lon="1.88522">
        <ele>735.7</ele>
        <time>2026-07-08T07:39:52.000Z</time>
      </trkpt>
      <trkpt lat="45.80781" lon="1.88522">
        <ele>735.7</ele>
        <time>2026-07-08T07:39:53.000Z</time>
      </trkpt>
      <trkpt lat="45.80781" lon="1.88522">
        <ele>735.7</ele>
        <time>2026-07-08T07:39:54.000Z</time>
      </trkpt>
      <trkpt lat="45.80781" lon="1.88522">
        <ele>735.7</ele>
        <time>2026-07-08T07:39:55.000Z</time>
      </trkpt>
      <trkpt lat="45.80781" lon="1.88522">
        <ele>735.7</ele>
        <time>2026-07-08T07:39:56.000Z</time>
      </trkpt>
      <trkpt lat="45.80781" lon="1.88522">
        <ele>735.7</ele>
        <time>2026-07-08T07:39:57.000Z</time>
      </trkpt>
      <trkpt lat="45.80781" lon="1.88522">
        <ele>735.7</ele>
        <time>2026-07-08T07:39:58.000Z</time>
      </trkpt>
      <trkpt lat="45.80781" lon="1.88522">
        <ele>735.7</ele>
        <time>2026-07-08T07:39:59.000Z</time>
      </trkpt>
      <trkpt lat="45.80781" lon="1.88522">
        <ele>735.7</ele>
        <time>2026-07-08T07:40:00.000Z</time>
      </trkpt>
      <trkpt lat="45.80781" lon="1.88522">
        <ele>735.7</ele>
        <time>2026-07-08T07:40:01.000Z</time>
      </trkpt>
      <trkpt lat="45.80781" lon="1.88522">
        <ele>735.7</ele>
        <time>2026-07-08T07:40:02.000Z</time>
      </trkpt>
      <trkpt lat="45.80781" lon="1.88522">
        <ele>735.7</ele>
        <time>2026-07-08T07:40:03.000Z</time>
      </trkpt>
      <trkpt lat="45.80781" lon="1.88522">
        <ele>735.7</ele>
        <time>2026-07-08T07:40:04.000Z</time>
      </trkpt>
      <trkpt lat="45.80781" lon="1.88522">
        <ele>735.7</ele>
        <time>2026-07-08T07:40:05.000Z</time>
      </trkpt>
      <trkpt lat="45.80781" lon="1.88522">
        <ele>735.8</ele>
        <time>2026-07-08T07:40:06.000Z</time>
      </trkpt>
      <trkpt lat="45.80781" lon="1.88522">
        <ele>735.4</ele>
        <time>2026-07-08T07:40:07.000Z</time>
      </trkpt>
      <trkpt lat="45.80781" lon="1.88522">
        <ele>735.2</ele>
        <time>2026-07-08T07:40:08.000Z</time>
      </trkpt>
      <trkpt lat="45.80781" lon="1.88522">
        <ele>734.8</ele>
        <time>2026-07-08T07:40:09.000Z</time>
      </trkpt>
      <trkpt lat="45.80781" lon="1.88521">
        <ele>734.4</ele>
        <time>2026-07-08T07:40:10.000Z</time>
      </trkpt>
      <trkpt lat="45.80782" lon="1.88522">
        <ele>734.2</ele>
        <time>2026-07-08T07:40:11.000Z</time>
      </trkpt>
      <trkpt lat="45.80782" lon="1.88522">
        <ele>734.3</ele>
        <time>2026-07-08T07:40:12.000Z</time>
      </trkpt>
      <trkpt lat="45.80782" lon="1.88522">
        <ele>734.6</ele>
        <time>2026-07-08T07:40:13.000Z</time>
      </trkpt>
      <trkpt lat="45.80781" lon="1.88521">
        <ele>735.3</ele>
        <time>2026-07-08T07:40:14.000Z</time>
      </trkpt>
      <trkpt lat="45.80781" lon="1.88521">
        <ele>735.3</ele>
        <time>2026-07-08T07:40:15.000Z</time>
      </trkpt>
      <trkpt lat="45.8078" lon="1.88521">
        <ele>734.9</ele>
        <time>2026-07-08T07:40:16.000Z</time>
      </trkpt>
      <trkpt lat="45.8078" lon="1.88521">
        <ele>734.9</ele>
        <time>2026-07-08T07:40:17.000Z</time>
      </trkpt>
      <trkpt lat="45.8078" lon="1.88522">
        <ele>735</ele>
        <time>2026-07-08T07:40:18.000Z</time>
      </trkpt>
      <trkpt lat="45.80781" lon="1.88522">
        <ele>734.9</ele>
        <time>2026-07-08T07:40:19.000Z</time>
      </trkpt>
      <trkpt lat="45.80781" lon="1.88523">
        <ele>734.8</ele>
        <time>2026-07-08T07:40:20.000Z</time>
      </trkpt>
      <trkpt lat="45.80781" lon="1.88523">
        <ele>734.8</ele>
        <time>2026-07-08T07:40:21.000Z</time>
      </trkpt>
      <trkpt lat="45.80782" lon="1.88523">
        <ele>735</ele>
        <time>2026-07-08T07:40:22.000Z</time>
      </trkpt>
      <trkpt lat="45.80781" lon="1.88523">
        <ele>735</ele>
        <time>2026-07-08T07:40:23.000Z</time>
      </trkpt>
      <trkpt lat="45.8078" lon="1.88523">
        <ele>735.6</ele>
        <time>2026-07-08T07:40:24.000Z</time>
      </trkpt>
      <trkpt lat="45.80779" lon="1.88524">
        <ele>735.7</ele>
        <time>2026-07-08T07:40:25.000Z</time>
      </trkpt>
      <trkpt lat="45.80779" lon="1.88524">
        <ele>735.6</ele>
        <time>2026-07-08T07:40:26.000Z</time>
      </trkpt>
      <trkpt lat="45.80779" lon="1.88524">
        <ele>735.6</ele>
        <time>2026-07-08T07:40:27.000Z</time>
      </trkpt>
      <trkpt lat="45.8078" lon="1.88525">
        <ele>735.2</ele>
        <time>2026-07-08T07:40:28.000Z</time>
      </trkpt>
      <trkpt lat="45.8078" lon="1.88525">
        <ele>735.2</ele>
        <time>2026-07-08T07:40:29.000Z</time>
      </trkpt>
      <trkpt lat="45.8078" lon="1.88525">
        <ele>735.2</ele>
        <time>2026-07-08T07:40:30.000Z</time>
      </trkpt>
      <trkpt lat="45.8078" lon="1.88525">
        <ele>735.2</ele>
        <time>2026-07-08T07:40:31.000Z</time>
      </trkpt>
      <trkpt lat="45.8078" lon="1.88525">
        <ele>735</ele>
        <time>2026-07-08T07:40:32.000Z</time>
      </trkpt>
      <trkpt lat="45.8078" lon="1.88525">
        <ele>735.7</ele>
        <time>2026-07-08T07:40:33.000Z</time>
      </trkpt>
      <trkpt lat="45.80782" lon="1.88524">
        <ele>735.1</ele>
        <time>2026-07-08T07:40:34.000Z</time>
      </trkpt>
      <trkpt lat="45.80782" lon="1.88524">
        <ele>736.1</ele>
        <time>2026-07-08T07:40:35.000Z</time>
      </trkpt>
      <trkpt lat="45.80783" lon="1.88522">
        <ele>736.3</ele>
        <time>2026-07-08T07:40:36.000Z</time>
      </trkpt>
      <trkpt lat="45.80784" lon="1.88521">
        <ele>736.1</ele>
        <time>2026-07-08T07:40:37.000Z</time>
      </trkpt>
      <trkpt lat="45.80784" lon="1.88519">
        <ele>735.9</ele>
        <time>2026-07-08T07:40:38.000Z</time>
      </trkpt>
      <trkpt lat="45.80783" lon="1.88517">
        <ele>735.3</ele>
        <time>2026-07-08T07:40:39.000Z</time>
      </trkpt>
      <trkpt lat="45.80783" lon="1.88516">
        <ele>735.7</ele>
        <time>2026-07-08T07:40:40.000Z</time>
      </trkpt>
      <trkpt lat="45.80782" lon="1.88516">
        <ele>736.8</ele>
        <time>2026-07-08T07:40:41.000Z</time>
      </trkpt>
      <trkpt lat="45.80781" lon="1.88517">
        <ele>736.9</ele>
        <time>2026-07-08T07:40:42.000Z</time>
      </trkpt>
      <trkpt lat="45.80781" lon="1.88517">
        <ele>738.4</ele>
        <time>2026-07-08T07:40:43.000Z</time>
      </trkpt>
      <trkpt lat="45.80781" lon="1.88517">
        <ele>738.5</ele>
        <time>2026-07-08T07:40:44.000Z</time>
      </trkpt>
      <trkpt lat="45.8078" lon="1.88517">
        <ele>738.4</ele>
        <time>2026-07-08T07:40:45.000Z</time>
      </trkpt>
      <trkpt lat="45.80779" lon="1.88518">
        <ele>739.2</ele>
        <time>2026-07-08T07:40:46.000Z</time>
      </trkpt>
      <trkpt lat="45.80777" lon="1.88518">
        <ele>740.2</ele>
        <time>2026-07-08T07:40:47.000Z</time>
      </trkpt>
      <trkpt lat="45.80777" lon="1.88518">
        <ele>741.1</ele>
        <time>2026-07-08T07:40:48.000Z</time>
      </trkpt>
      <trkpt lat="45.80775" lon="1.88518">
        <ele>741.6</ele>
        <time>2026-07-08T07:40:49.000Z</time>
      </trkpt>
      <trkpt lat="45.80775" lon="1.88518">
        <ele>741.9</ele>
        <time>2026-07-08T07:40:50.000Z</time>
      </trkpt>
      <trkpt lat="45.80774" lon="1.88518">
        <ele>741.8</ele>
        <time>2026-07-08T07:40:51.000Z</time>
      </trkpt>
      <trkpt lat="45.80773" lon="1.88517">
        <ele>741.8</ele>
        <time>2026-07-08T07:40:52.000Z</time>
      </trkpt>
      <trkpt lat="45.80771" lon="1.88516">
        <ele>742.4</ele>
        <time>2026-07-08T07:40:53.000Z</time>
      </trkpt>
      <trkpt lat="45.80772" lon="1.88517">
        <ele>741.8</ele>
        <time>2026-07-08T07:40:54.000Z</time>
      </trkpt>
      <trkpt lat="45.80771" lon="1.88517">
        <ele>742.3</ele>
        <time>2026-07-08T07:40:55.000Z</time>
      </trkpt>
      <trkpt lat="45.80771" lon="1.88517">
        <ele>743</ele>
        <time>2026-07-08T07:40:56.000Z</time>
      </trkpt>
      <trkpt lat="45.8077" lon="1.88517">
        <ele>742.6</ele>
        <time>2026-07-08T07:40:57.000Z</time>
      </trkpt>
      <trkpt lat="45.8077" lon="1.88518">
        <ele>739.6</ele>
        <time>2026-07-08T07:40:58.000Z</time>
      </trkpt>
      <trkpt lat="45.8077" lon="1.8852">
        <ele>740.1</ele>
        <time>2026-07-08T07:40:59.000Z</time>
      </trkpt>
      <trkpt lat="45.80769" lon="1.88521">
        <ele>740.5</ele>
        <time>2026-07-08T07:41:00.000Z</time>
      </trkpt>
      <trkpt lat="45.80769" lon="1.88521">
        <ele>740.5</ele>
        <time>2026-07-08T07:41:01.000Z</time>
      </trkpt>
      <trkpt lat="45.80769" lon="1.8852">
        <ele>741.7</ele>
        <time>2026-07-08T07:41:02.000Z</time>
      </trkpt>
      <trkpt lat="45.8077" lon="1.88519">
        <ele>741.8</ele>
        <time>2026-07-08T07:41:03.000Z</time>
      </trkpt>
      <trkpt lat="45.8077" lon="1.88519">
        <ele>740.4</ele>
        <time>2026-07-08T07:41:04.000Z</time>
      </trkpt>
      <trkpt lat="45.80772" lon="1.88518">
        <ele>738.4</ele>
        <time>2026-07-08T07:41:05.000Z</time>
      </trkpt>
      <trkpt lat="45.80774" lon="1.88517">
        <ele>736.4</ele>
        <time>2026-07-08T07:41:06.000Z</time>
      </trkpt>
      <trkpt lat="45.80776" lon="1.88516">
        <ele>735.5</ele>
        <time>2026-07-08T07:41:07.000Z</time>
      </trkpt>
      <trkpt lat="45.80778" lon="1.88516">
        <ele>735.4</ele>
        <time>2026-07-08T07:41:08.000Z</time>
      </trkpt>
      <trkpt lat="45.8078" lon="1.88515">
        <ele>734.1</ele>
        <time>2026-07-08T07:41:09.000Z</time>
      </trkpt>
      <trkpt lat="45.80782" lon="1.88514">
        <ele>733.5</ele>
        <time>2026-07-08T07:41:10.000Z</time>
      </trkpt>
      <trkpt lat="45.80783" lon="1.88513">
        <ele>732.6</ele>
        <time>2026-07-08T07:41:11.000Z</time>
      </trkpt>
      <trkpt lat="45.80785" lon="1.88512">
        <ele>731.2</ele>
        <time>2026-07-08T07:41:12.000Z</time>
      </trkpt>
      <trkpt lat="45.80787" lon="1.88511">
        <ele>731.8</ele>
        <time>2026-07-08T07:41:13.000Z</time>
      </trkpt>
      <trkpt lat="45.80788" lon="1.88511">
        <ele>731.2</ele>
        <time>2026-07-08T07:41:14.000Z</time>
      </trkpt>
      <trkpt lat="45.80791" lon="1.8851">
        <ele>731.5</ele>
        <time>2026-07-08T07:41:15.000Z</time>
      </trkpt>
      <trkpt lat="45.80793" lon="1.88509">
        <ele>732.1</ele>
        <time>2026-07-08T07:41:16.000Z</time>
      </trkpt>
      <trkpt lat="45.80796" lon="1.88509">
        <ele>732.3</ele>
        <time>2026-07-08T07:41:17.000Z</time>
      </trkpt>
      <trkpt lat="45.80799" lon="1.88508">
        <ele>732.9</ele>
        <time>2026-07-08T07:41:18.000Z</time>
      </trkpt>
      <trkpt lat="45.80802" lon="1.88506">
        <ele>733.5</ele>
        <time>2026-07-08T07:41:19.000Z</time>
      </trkpt>
      <trkpt lat="45.80803" lon="1.88505">
        <ele>733.9</ele>
        <time>2026-07-08T07:41:20.000Z</time>
      </trkpt>
      <trkpt lat="45.80805" lon="1.88504">
        <ele>734.3</ele>
        <time>2026-07-08T07:41:21.000Z</time>
      </trkpt>
      <trkpt lat="45.80807" lon="1.88503">
        <ele>734.6</ele>
        <time>2026-07-08T07:41:22.000Z</time>
      </trkpt>
      <trkpt lat="45.80809" lon="1.88502">
        <ele>734.8</ele>
        <time>2026-07-08T07:41:23.000Z</time>
      </trkpt>
      <trkpt lat="45.80811" lon="1.88501">
        <ele>734.9</ele>
        <time>2026-07-08T07:41:24.000Z</time>
      </trkpt>
      <trkpt lat="45.80814" lon="1.88499">
        <ele>735.6</ele>
        <time>2026-07-08T07:41:25.000Z</time>
      </trkpt>
      <trkpt lat="45.80816" lon="1.88498">
        <ele>736.6</ele>
        <time>2026-07-08T07:41:26.000Z</time>
      </trkpt>
      <trkpt lat="45.80818" lon="1.88497">
        <ele>736.5</ele>
        <time>2026-07-08T07:41:27.000Z</time>
      </trkpt>
      <trkpt lat="45.8082" lon="1.88496">
        <ele>736.8</ele>
        <time>2026-07-08T07:41:28.000Z</time>
      </trkpt>
      <trkpt lat="45.80822" lon="1.88495">
        <ele>736.8</ele>
        <time>2026-07-08T07:41:29.000Z</time>
      </trkpt>
      <trkpt lat="45.80824" lon="1.88494">
        <ele>737.2</ele>
        <time>2026-07-08T07:41:30.000Z</time>
      </trkpt>
      <trkpt lat="45.80827" lon="1.88493">
        <ele>736.4</ele>
        <time>2026-07-08T07:41:31.000Z</time>
      </trkpt>
      <trkpt lat="45.80829" lon="1.88492">
        <ele>736.3</ele>
        <time>2026-07-08T07:41:32.000Z</time>
      </trkpt>
      <trkpt lat="45.80831" lon="1.88491">
        <ele>737</ele>
        <time>2026-07-08T07:41:33.000Z</time>
      </trkpt>
      <trkpt lat="45.80832" lon="1.8849">
        <ele>737.7</ele>
        <time>2026-07-08T07:41:34.000Z</time>
      </trkpt>
      <trkpt lat="45.80834" lon="1.8849">
        <ele>737</ele>
        <time>2026-07-08T07:41:35.000Z</time>
      </trkpt>
      <trkpt lat="45.80836" lon="1.88488">
        <ele>738</ele>
        <time>2026-07-08T07:41:36.000Z</time>
      </trkpt>
      <trkpt lat="45.80837" lon="1.88487">
        <ele>737.7</ele>
        <time>2026-07-08T07:41:37.000Z</time>
      </trkpt>
      <trkpt lat="45.80839" lon="1.88486">
        <ele>737.7</ele>
        <time>2026-07-08T07:41:38.000Z</time>
      </trkpt>
      <trkpt lat="45.8084" lon="1.88485">
        <ele>737.7</ele>
        <time>2026-07-08T07:41:39.000Z</time>
      </trkpt>
      <trkpt lat="45.80841" lon="1.88484">
        <ele>737.5</ele>
        <time>2026-07-08T07:41:40.000Z</time>
      </trkpt>
      <trkpt lat="45.80843" lon="1.88482">
        <ele>738.1</ele>
        <time>2026-07-08T07:41:41.000Z</time>
      </trkpt>
      <trkpt lat="45.80844" lon="1.88481">
        <ele>737.3</ele>
        <time>2026-07-08T07:41:42.000Z</time>
      </trkpt>
      <trkpt lat="45.80845" lon="1.88479">
        <ele>737.4</ele>
        <time>2026-07-08T07:41:43.000Z</time>
      </trkpt>
      <trkpt lat="45.80847" lon="1.88477">
        <ele>736.5</ele>
        <time>2026-07-08T07:41:44.000Z</time>
      </trkpt>
      <trkpt lat="45.80847" lon="1.88474">
        <ele>735.9</ele>
        <time>2026-07-08T07:41:45.000Z</time>
      </trkpt>
      <trkpt lat="45.80847" lon="1.88472">
        <ele>735.9</ele>
        <time>2026-07-08T07:41:46.000Z</time>
      </trkpt>
      <trkpt lat="45.80848" lon="1.8847">
        <ele>736</ele>
        <time>2026-07-08T07:41:47.000Z</time>
      </trkpt>
      <trkpt lat="45.80848" lon="1.88468">
        <ele>736.1</ele>
        <time>2026-07-08T07:41:48.000Z</time>
      </trkpt>
      <trkpt lat="45.80848" lon="1.88465">
        <ele>734.5</ele>
        <time>2026-07-08T07:41:49.000Z</time>
      </trkpt>
      <trkpt lat="45.80848" lon="1.88463">
        <ele>734.5</ele>
        <time>2026-07-08T07:41:50.000Z</time>
      </trkpt>
      <trkpt lat="45.80849" lon="1.88461">
        <ele>734.5</ele>
        <time>2026-07-08T07:41:51.000Z</time>
      </trkpt>
      <trkpt lat="45.80848" lon="1.88459">
        <ele>735</ele>
        <time>2026-07-08T07:41:52.000Z</time>
      </trkpt>
      <trkpt lat="45.80849" lon="1.88457">
        <ele>737.1</ele>
        <time>2026-07-08T07:41:53.000Z</time>
      </trkpt>
      <trkpt lat="45.8085" lon="1.88455">
        <ele>737.4</ele>
        <time>2026-07-08T07:41:54.000Z</time>
      </trkpt>
      <trkpt lat="45.80852" lon="1.88453">
        <ele>737.7</ele>
        <time>2026-07-08T07:41:55.000Z</time>
      </trkpt>
      <trkpt lat="45.80852" lon="1.8845">
        <ele>738.7</ele>
        <time>2026-07-08T07:41:56.000Z</time>
      </trkpt>
      <trkpt lat="45.80853" lon="1.88448">
        <ele>737.3</ele>
        <time>2026-07-08T07:41:57.000Z</time>
      </trkpt>
      <trkpt lat="45.80854" lon="1.88446">
        <ele>737.1</ele>
        <time>2026-07-08T07:41:58.000Z</time>
      </trkpt>
      <trkpt lat="45.80856" lon="1.88444">
        <ele>738.6</ele>
        <time>2026-07-08T07:41:59.000Z</time>
      </trkpt>
      <trkpt lat="45.80857" lon="1.88443">
        <ele>737.6</ele>
        <time>2026-07-08T07:42:00.000Z</time>
      </trkpt>
      <trkpt lat="45.80858" lon="1.88441">
        <ele>738.3</ele>
        <time>2026-07-08T07:42:01.000Z</time>
      </trkpt>
      <trkpt lat="45.80857" lon="1.88436">
        <ele>738.1</ele>
        <time>2026-07-08T07:42:02.000Z</time>
      </trkpt>
      <trkpt lat="45.80857" lon="1.88434">
        <ele>739.2</ele>
        <time>2026-07-08T07:42:03.000Z</time>
      </trkpt>
      <trkpt lat="45.80858" lon="1.88432">
        <ele>738.6</ele>
        <time>2026-07-08T07:42:04.000Z</time>
      </trkpt>
      <trkpt lat="45.80859" lon="1.8843">
        <ele>738.1</ele>
        <time>2026-07-08T07:42:05.000Z</time>
      </trkpt>
      <trkpt lat="45.80859" lon="1.88427">
        <ele>737.8</ele>
        <time>2026-07-08T07:42:06.000Z</time>
      </trkpt>
      <trkpt lat="45.80859" lon="1.88425">
        <ele>737.6</ele>
        <time>2026-07-08T07:42:07.000Z</time>
      </trkpt>
      <trkpt lat="45.80859" lon="1.88423">
        <ele>737.2</ele>
        <time>2026-07-08T07:42:08.000Z</time>
      </trkpt>
      <trkpt lat="45.80859" lon="1.8842">
        <ele>737.1</ele>
        <time>2026-07-08T07:42:09.000Z</time>
      </trkpt>
      <trkpt lat="45.8086" lon="1.88416">
        <ele>736</ele>
        <time>2026-07-08T07:42:10.000Z</time>
      </trkpt>
      <trkpt lat="45.8086" lon="1.88413">
        <ele>735.9</ele>
        <time>2026-07-08T07:42:11.000Z</time>
      </trkpt>
      <trkpt lat="45.80861" lon="1.8841">
        <ele>735.6</ele>
        <time>2026-07-08T07:42:12.000Z</time>
      </trkpt>
      <trkpt lat="45.80861" lon="1.88407">
        <ele>736.9</ele>
        <time>2026-07-08T07:42:13.000Z</time>
      </trkpt>
      <trkpt lat="45.80859" lon="1.88405">
        <ele>737.5</ele>
        <time>2026-07-08T07:42:14.000Z</time>
      </trkpt>
      <trkpt lat="45.80858" lon="1.88403">
        <ele>737.9</ele>
        <time>2026-07-08T07:42:15.000Z</time>
      </trkpt>
      <trkpt lat="45.80858" lon="1.88401">
        <ele>738.3</ele>
        <time>2026-07-08T07:42:16.000Z</time>
      </trkpt>
      <trkpt lat="45.80857" lon="1.88399">
        <ele>738.8</ele>
        <time>2026-07-08T07:42:17.000Z</time>
      </trkpt>
      <trkpt lat="45.80857" lon="1.88396">
        <ele>739</ele>
        <time>2026-07-08T07:42:18.000Z</time>
      </trkpt>
      <trkpt lat="45.80856" lon="1.88392">
        <ele>739.1</ele>
        <time>2026-07-08T07:42:19.000Z</time>
      </trkpt>
      <trkpt lat="45.80856" lon="1.88388">
        <ele>739</ele>
        <time>2026-07-08T07:42:20.000Z</time>
      </trkpt>
      <trkpt lat="45.80856" lon="1.88385">
        <ele>738.9</ele>
        <time>2026-07-08T07:42:21.000Z</time>
      </trkpt>
      <trkpt lat="45.80856" lon="1.88381">
        <ele>738.8</ele>
        <time>2026-07-08T07:42:22.000Z</time>
      </trkpt>
      <trkpt lat="45.80857" lon="1.88375">
        <ele>739.3</ele>
        <time>2026-07-08T07:42:23.000Z</time>
      </trkpt>
      <trkpt lat="45.80858" lon="1.8837">
        <ele>739.3</ele>
        <time>2026-07-08T07:42:24.000Z</time>
      </trkpt>
      <trkpt lat="45.80858" lon="1.88365">
        <ele>739.7</ele>
        <time>2026-07-08T07:42:25.000Z</time>
      </trkpt>
      <trkpt lat="45.8086" lon="1.8836">
        <ele>739.4</ele>
        <time>2026-07-08T07:42:26.000Z</time>
      </trkpt>
      <trkpt lat="45.8086" lon="1.88356">
        <ele>739.2</ele>
        <time>2026-07-08T07:42:27.000Z</time>
      </trkpt>
      <trkpt lat="45.80862" lon="1.88352">
        <ele>739.3</ele>
        <time>2026-07-08T07:42:28.000Z</time>
      </trkpt>
      <trkpt lat="45.80863" lon="1.88348">
        <ele>739.2</ele>
        <time>2026-07-08T07:42:29.000Z</time>
      </trkpt>
      <trkpt lat="45.80864" lon="1.88343">
        <ele>739.4</ele>
        <time>2026-07-08T07:42:30.000Z</time>
      </trkpt>
      <trkpt lat="45.80864" lon="1.88339">
        <ele>739.4</ele>
        <time>2026-07-08T07:42:31.000Z</time>
      </trkpt>
      <trkpt lat="45.80865" lon="1.88334">
        <ele>739.1</ele>
        <time>2026-07-08T07:42:32.000Z</time>
      </trkpt>
      <trkpt lat="45.80866" lon="1.88329">
        <ele>738.8</ele>
        <time>2026-07-08T07:42:33.000Z</time>
      </trkpt>
      <trkpt lat="45.80867" lon="1.88324">
        <ele>739</ele>
        <time>2026-07-08T07:42:34.000Z</time>
      </trkpt>
      <trkpt lat="45.80868" lon="1.8832">
        <ele>739</ele>
        <time>2026-07-08T07:42:35.000Z</time>
      </trkpt>
      <trkpt lat="45.80868" lon="1.88315">
        <ele>737.9</ele>
        <time>2026-07-08T07:42:36.000Z</time>
      </trkpt>
      <trkpt lat="45.80869" lon="1.88311">
        <ele>737.8</ele>
        <time>2026-07-08T07:42:37.000Z</time>
      </trkpt>
      <trkpt lat="45.80871" lon="1.88308">
        <ele>737.4</ele>
        <time>2026-07-08T07:42:38.000Z</time>
      </trkpt>
      <trkpt lat="45.80872" lon="1.88304">
        <ele>737.4</ele>
        <time>2026-07-08T07:42:39.000Z</time>
      </trkpt>
      <trkpt lat="45.80873" lon="1.883">
        <ele>736.1</ele>
        <time>2026-07-08T07:42:40.000Z</time>
      </trkpt>
      <trkpt lat="45.80873" lon="1.88298">
        <ele>736.8</ele>
        <time>2026-07-08T07:42:41.000Z</time>
      </trkpt>
      <trkpt lat="45.80874" lon="1.88297">
        <ele>736.6</ele>
        <time>2026-07-08T07:42:42.000Z</time>
      </trkpt>
      <trkpt lat="45.80874" lon="1.88295">
        <ele>736.7</ele>
        <time>2026-07-08T07:42:43.000Z</time>
      </trkpt>
      <trkpt lat="45.80875" lon="1.88293">
        <ele>736.8</ele>
        <time>2026-07-08T07:42:44.000Z</time>
      </trkpt>
      <trkpt lat="45.80875" lon="1.88291">
        <ele>736.4</ele>
        <time>2026-07-08T07:42:45.000Z</time>
      </trkpt>
      <trkpt lat="45.80875" lon="1.88289">
        <ele>736</ele>
        <time>2026-07-08T07:42:46.000Z</time>
      </trkpt>
      <trkpt lat="45.80875" lon="1.88287">
        <ele>735.9</ele>
        <time>2026-07-08T07:42:47.000Z</time>
      </trkpt>
      <trkpt lat="45.80875" lon="1.88285">
        <ele>735.9</ele>
        <time>2026-07-08T07:42:48.000Z</time>
      </trkpt>
      <trkpt lat="45.80875" lon="1.88283">
        <ele>736.4</ele>
        <time>2026-07-08T07:42:49.000Z</time>
      </trkpt>
      <trkpt lat="45.80876" lon="1.88281">
        <ele>736.2</ele>
        <time>2026-07-08T07:42:50.000Z</time>
      </trkpt>
      <trkpt lat="45.80877" lon="1.88279">
        <ele>735.8</ele>
        <time>2026-07-08T07:42:51.000Z</time>
      </trkpt>
      <trkpt lat="45.80878" lon="1.88277">
        <ele>735.6</ele>
        <time>2026-07-08T07:42:52.000Z</time>
      </trkpt>
      <trkpt lat="45.8088" lon="1.88275">
        <ele>735.5</ele>
        <time>2026-07-08T07:42:53.000Z</time>
      </trkpt>
      <trkpt lat="45.80881" lon="1.88272">
        <ele>735.6</ele>
        <time>2026-07-08T07:42:54.000Z</time>
      </trkpt>
      <trkpt lat="45.80882" lon="1.8827">
        <ele>735.9</ele>
        <time>2026-07-08T07:42:55.000Z</time>
      </trkpt>
      <trkpt lat="45.80884" lon="1.88267">
        <ele>736.5</ele>
        <time>2026-07-08T07:42:56.000Z</time>
      </trkpt>
      <trkpt lat="45.80885" lon="1.88265">
        <ele>736</ele>
        <time>2026-07-08T07:42:57.000Z</time>
      </trkpt>
      <trkpt lat="45.80886" lon="1.88262">
        <ele>735.9</ele>
        <time>2026-07-08T07:42:58.000Z</time>
      </trkpt>
      <trkpt lat="45.80887" lon="1.8826">
        <ele>736.7</ele>
        <time>2026-07-08T07:42:59.000Z</time>
      </trkpt>
      <trkpt lat="45.80888" lon="1.88258">
        <ele>735.3</ele>
        <time>2026-07-08T07:43:00.000Z</time>
      </trkpt>
      <trkpt lat="45.80889" lon="1.88256">
        <ele>735.2</ele>
        <time>2026-07-08T07:43:01.000Z</time>
      </trkpt>
      <trkpt lat="45.8089" lon="1.88253">
        <ele>735.8</ele>
        <time>2026-07-08T07:43:02.000Z</time>
      </trkpt>
      <trkpt lat="45.8089" lon="1.88251">
        <ele>734.3</ele>
        <time>2026-07-08T07:43:03.000Z</time>
      </trkpt>
      <trkpt lat="45.80891" lon="1.88248">
        <ele>733.7</ele>
        <time>2026-07-08T07:43:04.000Z</time>
      </trkpt>
      <trkpt lat="45.80891" lon="1.88246">
        <ele>732.3</ele>
        <time>2026-07-08T07:43:05.000Z</time>
      </trkpt>
      <trkpt lat="45.80892" lon="1.88244">
        <ele>732</ele>
        <time>2026-07-08T07:43:06.000Z</time>
      </trkpt>
      <trkpt lat="45.80892" lon="1.88241">
        <ele>730.4</ele>
        <time>2026-07-08T07:43:07.000Z</time>
      </trkpt>
      <trkpt lat="45.80893" lon="1.88238">
        <ele>729.9</ele>
        <time>2026-07-08T07:43:08.000Z</time>
      </trkpt>
      <trkpt lat="45.80894" lon="1.88235">
        <ele>730</ele>
        <time>2026-07-08T07:43:09.000Z</time>
      </trkpt>
      <trkpt lat="45.80895" lon="1.88233">
        <ele>729.9</ele>
        <time>2026-07-08T07:43:10.000Z</time>
      </trkpt>
      <trkpt lat="45.80895" lon="1.88231">
        <ele>729.5</ele>
        <time>2026-07-08T07:43:11.000Z</time>
      </trkpt>
      <trkpt lat="45.80896" lon="1.88229">
        <ele>729.5</ele>
        <time>2026-07-08T07:43:12.000Z</time>
      </trkpt>
      <trkpt lat="45.80897" lon="1.88227">
        <ele>729.4</ele>
        <time>2026-07-08T07:43:13.000Z</time>
      </trkpt>
      <trkpt lat="45.80899" lon="1.88225">
        <ele>729.6</ele>
        <time>2026-07-08T07:43:14.000Z</time>
      </trkpt>
      <trkpt lat="45.809" lon="1.88224">
        <ele>729.4</ele>
        <time>2026-07-08T07:43:15.000Z</time>
      </trkpt>
      <trkpt lat="45.80901" lon="1.88222">
        <ele>728.8</ele>
        <time>2026-07-08T07:43:16.000Z</time>
      </trkpt>
      <trkpt lat="45.80902" lon="1.8822">
        <ele>729.5</ele>
        <time>2026-07-08T07:43:17.000Z</time>
      </trkpt>
      <trkpt lat="45.80903" lon="1.88218">
        <ele>730</ele>
        <time>2026-07-08T07:43:18.000Z</time>
      </trkpt>
      <trkpt lat="45.80905" lon="1.88216">
        <ele>729.7</ele>
        <time>2026-07-08T07:43:19.000Z</time>
      </trkpt>
      <trkpt lat="45.80907" lon="1.88214">
        <ele>729.3</ele>
        <time>2026-07-08T07:43:20.000Z</time>
      </trkpt>
      <trkpt lat="45.80909" lon="1.88212">
        <ele>729.1</ele>
        <time>2026-07-08T07:43:21.000Z</time>
      </trkpt>
      <trkpt lat="45.80909" lon="1.8821">
        <ele>728.2</ele>
        <time>2026-07-08T07:43:22.000Z</time>
      </trkpt>
      <trkpt lat="45.8091" lon="1.88208">
        <ele>728.2</ele>
        <time>2026-07-08T07:43:23.000Z</time>
      </trkpt>
      <trkpt lat="45.8091" lon="1.88208">
        <ele>728.1</ele>
        <time>2026-07-08T07:43:24.000Z</time>
      </trkpt>
      <trkpt lat="45.80909" lon="1.88206">
        <ele>727.3</ele>
        <time>2026-07-08T07:43:25.000Z</time>
      </trkpt>
      <trkpt lat="45.8091" lon="1.88204">
        <ele>727</ele>
        <time>2026-07-08T07:43:26.000Z</time>
      </trkpt>
      <trkpt lat="45.8091" lon="1.88201">
        <ele>726.5</ele>
        <time>2026-07-08T07:43:27.000Z</time>
      </trkpt>
      <trkpt lat="45.80911" lon="1.88199">
        <ele>725.6</ele>
        <time>2026-07-08T07:43:28.000Z</time>
      </trkpt>
      <trkpt lat="45.80911" lon="1.88197">
        <ele>724.3</ele>
        <time>2026-07-08T07:43:29.000Z</time>
      </trkpt>
      <trkpt lat="45.80912" lon="1.88194">
        <ele>723.8</ele>
        <time>2026-07-08T07:43:30.000Z</time>
      </trkpt>
      <trkpt lat="45.80912" lon="1.88192">
        <ele>723.2</ele>
        <time>2026-07-08T07:43:31.000Z</time>
      </trkpt>
      <trkpt lat="45.80913" lon="1.8819">
        <ele>722.4</ele>
        <time>2026-07-08T07:43:32.000Z</time>
      </trkpt>
      <trkpt lat="45.80913" lon="1.88187">
        <ele>722.1</ele>
        <time>2026-07-08T07:43:33.000Z</time>
      </trkpt>
      <trkpt lat="45.80914" lon="1.88185">
        <ele>721.7</ele>
        <time>2026-07-08T07:43:34.000Z</time>
      </trkpt>
      <trkpt lat="45.80914" lon="1.88183">
        <ele>721.4</ele>
        <time>2026-07-08T07:43:35.000Z</time>
      </trkpt>
      <trkpt lat="45.80915" lon="1.88181">
        <ele>721.3</ele>
        <time>2026-07-08T07:43:36.000Z</time>
      </trkpt>
      <trkpt lat="45.80915" lon="1.88178">
        <ele>721.7</ele>
        <time>2026-07-08T07:43:37.000Z</time>
      </trkpt>
      <trkpt lat="45.80915" lon="1.88176">
        <ele>721.6</ele>
        <time>2026-07-08T07:43:38.000Z</time>
      </trkpt>
      <trkpt lat="45.80915" lon="1.88175">
        <ele>721.1</ele>
        <time>2026-07-08T07:43:39.000Z</time>
      </trkpt>
      <trkpt lat="45.80915" lon="1.88175">
        <ele>721.1</ele>
        <time>2026-07-08T07:43:40.000Z</time>
      </trkpt>
      <trkpt lat="45.80915" lon="1.88174">
        <ele>721.6</ele>
        <time>2026-07-08T07:43:41.000Z</time>
      </trkpt>
      <trkpt lat="45.80916" lon="1.88173">
        <ele>721.7</ele>
        <time>2026-07-08T07:43:42.000Z</time>
      </trkpt>
      <trkpt lat="45.80917" lon="1.8817">
        <ele>722.1</ele>
        <time>2026-07-08T07:43:43.000Z</time>
      </trkpt>
      <trkpt lat="45.80917" lon="1.88168">
        <ele>721.9</ele>
        <time>2026-07-08T07:43:44.000Z</time>
      </trkpt>
      <trkpt lat="45.80918" lon="1.88166">
        <ele>721.4</ele>
        <time>2026-07-08T07:43:45.000Z</time>
      </trkpt>
      <trkpt lat="45.80919" lon="1.88163">
        <ele>721</ele>
        <time>2026-07-08T07:43:46.000Z</time>
      </trkpt>
      <trkpt lat="45.8092" lon="1.88161">
        <ele>721.2</ele>
        <time>2026-07-08T07:43:47.000Z</time>
      </trkpt>
      <trkpt lat="45.8092" lon="1.88159">
        <ele>720.7</ele>
        <time>2026-07-08T07:43:48.000Z</time>
      </trkpt>
      <trkpt lat="45.8092" lon="1.88156">
        <ele>720.6</ele>
        <time>2026-07-08T07:43:49.000Z</time>
      </trkpt>
      <trkpt lat="45.8092" lon="1.88154">
        <ele>720.4</ele>
        <time>2026-07-08T07:43:50.000Z</time>
      </trkpt>
      <trkpt lat="45.80921" lon="1.88152">
        <ele>720</ele>
        <time>2026-07-08T07:43:51.000Z</time>
      </trkpt>
      <trkpt lat="45.80923" lon="1.88151">
        <ele>720.9</ele>
        <time>2026-07-08T07:43:52.000Z</time>
      </trkpt>
      <trkpt lat="45.80924" lon="1.88149">
        <ele>720</ele>
        <time>2026-07-08T07:43:53.000Z</time>
      </trkpt>
      <trkpt lat="45.80924" lon="1.88148">
        <ele>718.8</ele>
        <time>2026-07-08T07:43:54.000Z</time>
      </trkpt>
      <trkpt lat="45.80925" lon="1.88146">
        <ele>718.1</ele>
        <time>2026-07-08T07:43:55.000Z</time>
      </trkpt>
      <trkpt lat="45.80926" lon="1.88144">
        <ele>717.5</ele>
        <time>2026-07-08T07:43:56.000Z</time>
      </trkpt>
      <trkpt lat="45.80926" lon="1.8814">
        <ele>719.7</ele>
        <time>2026-07-08T07:43:57.000Z</time>
      </trkpt>
      <trkpt lat="45.80927" lon="1.88136">
        <ele>719.7</ele>
        <time>2026-07-08T07:43:58.000Z</time>
      </trkpt>
      <trkpt lat="45.80928" lon="1.88133">
        <ele>719.3</ele>
        <time>2026-07-08T07:43:59.000Z</time>
      </trkpt>
      <trkpt lat="45.80928" lon="1.88131">
        <ele>719</ele>
        <time>2026-07-08T07:44:00.000Z</time>
      </trkpt>
      <trkpt lat="45.80929" lon="1.88128">
        <ele>718.4</ele>
        <time>2026-07-08T07:44:01.000Z</time>
      </trkpt>
      <trkpt lat="45.80929" lon="1.88126">
        <ele>718.3</ele>
        <time>2026-07-08T07:44:02.000Z</time>
      </trkpt>
      <trkpt lat="45.80929" lon="1.88124">
        <ele>718.1</ele>
        <time>2026-07-08T07:44:03.000Z</time>
      </trkpt>
      <trkpt lat="45.8093" lon="1.88122">
        <ele>717.7</ele>
        <time>2026-07-08T07:44:04.000Z</time>
      </trkpt>
      <trkpt lat="45.80931" lon="1.88121">
        <ele>717.4</ele>
        <time>2026-07-08T07:44:05.000Z</time>
      </trkpt>
      <trkpt lat="45.80933" lon="1.88119">
        <ele>717.3</ele>
        <time>2026-07-08T07:44:06.000Z</time>
      </trkpt>
      <trkpt lat="45.80934" lon="1.88119">
        <ele>717.2</ele>
        <time>2026-07-08T07:44:07.000Z</time>
      </trkpt>
      <trkpt lat="45.80936" lon="1.88118">
        <ele>717</ele>
        <time>2026-07-08T07:44:08.000Z</time>
      </trkpt>
      <trkpt lat="45.80938" lon="1.88118">
        <ele>716.8</ele>
        <time>2026-07-08T07:44:09.000Z</time>
      </trkpt>
      <trkpt lat="45.8094" lon="1.88116">
        <ele>716.9</ele>
        <time>2026-07-08T07:44:10.000Z</time>
      </trkpt>
      <trkpt lat="45.80941" lon="1.88117">
        <ele>717</ele>
        <time>2026-07-08T07:44:11.000Z</time>
      </trkpt>
      <trkpt lat="45.80943" lon="1.88118">
        <ele>717.1</ele>
        <time>2026-07-08T07:44:12.000Z</time>
      </trkpt>
      <trkpt lat="45.80945" lon="1.88118">
        <ele>717.1</ele>
        <time>2026-07-08T07:44:13.000Z</time>
      </trkpt>
      <trkpt lat="45.80947" lon="1.88119">
        <ele>717.4</ele>
        <time>2026-07-08T07:44:14.000Z</time>
      </trkpt>
      <trkpt lat="45.80948" lon="1.88119">
        <ele>717.2</ele>
        <time>2026-07-08T07:44:15.000Z</time>
      </trkpt>
      <trkpt lat="45.8095" lon="1.88119">
        <ele>717.3</ele>
        <time>2026-07-08T07:44:16.000Z</time>
      </trkpt>
      <trkpt lat="45.80952" lon="1.8812">
        <ele>717.3</ele>
        <time>2026-07-08T07:44:17.000Z</time>
      </trkpt>
      <trkpt lat="45.80954" lon="1.8812">
        <ele>717.3</ele>
        <time>2026-07-08T07:44:18.000Z</time>
      </trkpt>
      <trkpt lat="45.80956" lon="1.88121">
        <ele>717.6</ele>
        <time>2026-07-08T07:44:19.000Z</time>
      </trkpt>
      <trkpt lat="45.80958" lon="1.88122">
        <ele>717.5</ele>
        <time>2026-07-08T07:44:20.000Z</time>
      </trkpt>
      <trkpt lat="45.8096" lon="1.88123">
        <ele>717.4</ele>
        <time>2026-07-08T07:44:21.000Z</time>
      </trkpt>
      <trkpt lat="45.80962" lon="1.88124">
        <ele>717.7</ele>
        <time>2026-07-08T07:44:22.000Z</time>
      </trkpt>
      <trkpt lat="45.80964" lon="1.88126">
        <ele>718.4</ele>
        <time>2026-07-08T07:44:23.000Z</time>
      </trkpt>
      <trkpt lat="45.80966" lon="1.88128">
        <ele>718.8</ele>
        <time>2026-07-08T07:44:24.000Z</time>
      </trkpt>
      <trkpt lat="45.80968" lon="1.88131">
        <ele>719</ele>
        <time>2026-07-08T07:44:25.000Z</time>
      </trkpt>
      <trkpt lat="45.8097" lon="1.88133">
        <ele>719.3</ele>
        <time>2026-07-08T07:44:26.000Z</time>
      </trkpt>
      <trkpt lat="45.80972" lon="1.88135">
        <ele>719.9</ele>
        <time>2026-07-08T07:44:27.000Z</time>
      </trkpt>
      <trkpt lat="45.80975" lon="1.88137">
        <ele>720.6</ele>
        <time>2026-07-08T07:44:28.000Z</time>
      </trkpt>
      <trkpt lat="45.80976" lon="1.88139">
        <ele>721.1</ele>
        <time>2026-07-08T07:44:29.000Z</time>
      </trkpt>
      <trkpt lat="45.80978" lon="1.88141">
        <ele>721.5</ele>
        <time>2026-07-08T07:44:30.000Z</time>
      </trkpt>
      <trkpt lat="45.8098" lon="1.88144">
        <ele>721.6</ele>
        <time>2026-07-08T07:44:31.000Z</time>
      </trkpt>
      <trkpt lat="45.80982" lon="1.88146">
        <ele>721.9</ele>
        <time>2026-07-08T07:44:32.000Z</time>
      </trkpt>
      <trkpt lat="45.80984" lon="1.88148">
        <ele>722.4</ele>
        <time>2026-07-08T07:44:33.000Z</time>
      </trkpt>
      <trkpt lat="45.80986" lon="1.8815">
        <ele>722.9</ele>
        <time>2026-07-08T07:44:34.000Z</time>
      </trkpt>
      <trkpt lat="45.80988" lon="1.88151">
        <ele>722.9</ele>
        <time>2026-07-08T07:44:35.000Z</time>
      </trkpt>
      <trkpt lat="45.8099" lon="1.88153">
        <ele>722.6</ele>
        <time>2026-07-08T07:44:36.000Z</time>
      </trkpt>
      <trkpt lat="45.80992" lon="1.88155">
        <ele>723.2</ele>
        <time>2026-07-08T07:44:37.000Z</time>
      </trkpt>
      <trkpt lat="45.80994" lon="1.88158">
        <ele>723</ele>
        <time>2026-07-08T07:44:38.000Z</time>
      </trkpt>
      <trkpt lat="45.80997" lon="1.8816">
        <ele>723.6</ele>
        <time>2026-07-08T07:44:39.000Z</time>
      </trkpt>
      <trkpt lat="45.80999" lon="1.88162">
        <ele>724.6</ele>
        <time>2026-07-08T07:44:40.000Z</time>
      </trkpt>
      <trkpt lat="45.81001" lon="1.88164">
        <ele>724.8</ele>
        <time>2026-07-08T07:44:41.000Z</time>
      </trkpt>
      <trkpt lat="45.81003" lon="1.88166">
        <ele>725.2</ele>
        <time>2026-07-08T07:44:42.000Z</time>
      </trkpt>
      <trkpt lat="45.81005" lon="1.88167">
        <ele>725.3</ele>
        <time>2026-07-08T07:44:43.000Z</time>
      </trkpt>
      <trkpt lat="45.81007" lon="1.88169">
        <ele>725.2</ele>
        <time>2026-07-08T07:44:44.000Z</time>
      </trkpt>
      <trkpt lat="45.8101" lon="1.8817">
        <ele>725.4</ele>
        <time>2026-07-08T07:44:45.000Z</time>
      </trkpt>
      <trkpt lat="45.81012" lon="1.88173">
        <ele>724.9</ele>
        <time>2026-07-08T07:44:46.000Z</time>
      </trkpt>
      <trkpt lat="45.81015" lon="1.88175">
        <ele>725.6</ele>
        <time>2026-07-08T07:44:47.000Z</time>
      </trkpt>
      <trkpt lat="45.81017" lon="1.88177">
        <ele>723.1</ele>
        <time>2026-07-08T07:44:48.000Z</time>
      </trkpt>
      <trkpt lat="45.81019" lon="1.88179">
        <ele>722.7</ele>
        <time>2026-07-08T07:44:49.000Z</time>
      </trkpt>
      <trkpt lat="45.8102" lon="1.88181">
        <ele>724.3</ele>
        <time>2026-07-08T07:44:50.000Z</time>
      </trkpt>
      <trkpt lat="45.81021" lon="1.88184">
        <ele>725.3</ele>
        <time>2026-07-08T07:44:51.000Z</time>
      </trkpt>
      <trkpt lat="45.81022" lon="1.88184">
        <ele>722.8</ele>
        <time>2026-07-08T07:44:52.000Z</time>
      </trkpt>
      <trkpt lat="45.81023" lon="1.88183">
        <ele>720.6</ele>
        <time>2026-07-08T07:44:53.000Z</time>
      </trkpt>
      <trkpt lat="45.81025" lon="1.88183">
        <ele>721.5</ele>
        <time>2026-07-08T07:44:54.000Z</time>
      </trkpt>
      <trkpt lat="45.81027" lon="1.88182">
        <ele>720.9</ele>
        <time>2026-07-08T07:44:55.000Z</time>
      </trkpt>
      <trkpt lat="45.81029" lon="1.88182">
        <ele>720</ele>
        <time>2026-07-08T07:44:56.000Z</time>
      </trkpt>
      <trkpt lat="45.81031" lon="1.88182">
        <ele>719.7</ele>
        <time>2026-07-08T07:44:57.000Z</time>
      </trkpt>
      <trkpt lat="45.81033" lon="1.88184">
        <ele>719.6</ele>
        <time>2026-07-08T07:44:58.000Z</time>
      </trkpt>
      <trkpt lat="45.81035" lon="1.88186">
        <ele>720.4</ele>
        <time>2026-07-08T07:44:59.000Z</time>
      </trkpt>
      <trkpt lat="45.81037" lon="1.88187">
        <ele>720.5</ele>
        <time>2026-07-08T07:45:00.000Z</time>
      </trkpt>
      <trkpt lat="45.81039" lon="1.88189">
        <ele>721.5</ele>
        <time>2026-07-08T07:45:01.000Z</time>
      </trkpt>
      <trkpt lat="45.81042" lon="1.8819">
        <ele>721.9</ele>
        <time>2026-07-08T07:45:02.000Z</time>
      </trkpt>
      <trkpt lat="45.81044" lon="1.88191">
        <ele>722</ele>
        <time>2026-07-08T07:45:03.000Z</time>
      </trkpt>
      <trkpt lat="45.81046" lon="1.88191">
        <ele>723.3</ele>
        <time>2026-07-08T07:45:04.000Z</time>
      </trkpt>
      <trkpt lat="45.81047" lon="1.88193">
        <ele>723.2</ele>
        <time>2026-07-08T07:45:05.000Z</time>
      </trkpt>
      <trkpt lat="45.8105" lon="1.88194">
        <ele>724.1</ele>
        <time>2026-07-08T07:45:06.000Z</time>
      </trkpt>
      <trkpt lat="45.81052" lon="1.88196">
        <ele>724</ele>
        <time>2026-07-08T07:45:07.000Z</time>
      </trkpt>
      <trkpt lat="45.81054" lon="1.88196">
        <ele>723.9</ele>
        <time>2026-07-08T07:45:08.000Z</time>
      </trkpt>
      <trkpt lat="45.81056" lon="1.88198">
        <ele>723.8</ele>
        <time>2026-07-08T07:45:09.000Z</time>
      </trkpt>
      <trkpt lat="45.81058" lon="1.88198">
        <ele>723.8</ele>
        <time>2026-07-08T07:45:10.000Z</time>
      </trkpt>
      <trkpt lat="45.81061" lon="1.88199">
        <ele>723.8</ele>
        <time>2026-07-08T07:45:11.000Z</time>
      </trkpt>
      <trkpt lat="45.81063" lon="1.882">
        <ele>724.1</ele>
        <time>2026-07-08T07:45:12.000Z</time>
      </trkpt>
      <trkpt lat="45.81065" lon="1.88201">
        <ele>724.2</ele>
        <time>2026-07-08T07:45:13.000Z</time>
      </trkpt>
      <trkpt lat="45.81066" lon="1.88201">
        <ele>723.3</ele>
        <time>2026-07-08T07:45:14.000Z</time>
      </trkpt>
      <trkpt lat="45.81068" lon="1.88202">
        <ele>722.8</ele>
        <time>2026-07-08T07:45:15.000Z</time>
      </trkpt>
      <trkpt lat="45.8107" lon="1.88203">
        <ele>722.5</ele>
        <time>2026-07-08T07:45:16.000Z</time>
      </trkpt>
      <trkpt lat="45.81071" lon="1.88203">
        <ele>722.8</ele>
        <time>2026-07-08T07:45:17.000Z</time>
      </trkpt>
      <trkpt lat="45.81073" lon="1.88204">
        <ele>722.3</ele>
        <time>2026-07-08T07:45:18.000Z</time>
      </trkpt>
      <trkpt lat="45.81075" lon="1.88204">
        <ele>722.2</ele>
        <time>2026-07-08T07:45:19.000Z</time>
      </trkpt>
      <trkpt lat="45.81077" lon="1.88204">
        <ele>722.8</ele>
        <time>2026-07-08T07:45:20.000Z</time>
      </trkpt>
      <trkpt lat="45.81078" lon="1.88204">
        <ele>723.1</ele>
        <time>2026-07-08T07:45:21.000Z</time>
      </trkpt>
      <trkpt lat="45.8108" lon="1.88204">
        <ele>723.3</ele>
        <time>2026-07-08T07:45:22.000Z</time>
      </trkpt>
      <trkpt lat="45.81081" lon="1.88204">
        <ele>722.7</ele>
        <time>2026-07-08T07:45:23.000Z</time>
      </trkpt>
      <trkpt lat="45.81083" lon="1.88204">
        <ele>722.2</ele>
        <time>2026-07-08T07:45:24.000Z</time>
      </trkpt>
      <trkpt lat="45.81085" lon="1.88204">
        <ele>722.3</ele>
        <time>2026-07-08T07:45:25.000Z</time>
      </trkpt>
      <trkpt lat="45.81088" lon="1.88203">
        <ele>722.7</ele>
        <time>2026-07-08T07:45:26.000Z</time>
      </trkpt>
      <trkpt lat="45.8109" lon="1.88202">
        <ele>722.5</ele>
        <time>2026-07-08T07:45:27.000Z</time>
      </trkpt>
      <trkpt lat="45.81092" lon="1.88202">
        <ele>722.9</ele>
        <time>2026-07-08T07:45:28.000Z</time>
      </trkpt>
      <trkpt lat="45.81093" lon="1.882">
        <ele>722.4</ele>
        <time>2026-07-08T07:45:29.000Z</time>
      </trkpt>
      <trkpt lat="45.81095" lon="1.88199">
        <ele>722.1</ele>
        <time>2026-07-08T07:45:30.000Z</time>
      </trkpt>
      <trkpt lat="45.81097" lon="1.88198">
        <ele>722</ele>
        <time>2026-07-08T07:45:31.000Z</time>
      </trkpt>
      <trkpt lat="45.81099" lon="1.88197">
        <ele>721.9</ele>
        <time>2026-07-08T07:45:32.000Z</time>
      </trkpt>
      <trkpt lat="45.81101" lon="1.88197">
        <ele>721.9</ele>
        <time>2026-07-08T07:45:33.000Z</time>
      </trkpt>
      <trkpt lat="45.81103" lon="1.88196">
        <ele>722.5</ele>
        <time>2026-07-08T07:45:34.000Z</time>
      </trkpt>
      <trkpt lat="45.81105" lon="1.88195">
        <ele>723.2</ele>
        <time>2026-07-08T07:45:35.000Z</time>
      </trkpt>
      <trkpt lat="45.81107" lon="1.88193">
        <ele>723.1</ele>
        <time>2026-07-08T07:45:36.000Z</time>
      </trkpt>
      <trkpt lat="45.8111" lon="1.88192">
        <ele>723.4</ele>
        <time>2026-07-08T07:45:37.000Z</time>
      </trkpt>
      <trkpt lat="45.81113" lon="1.8819">
        <ele>723.8</ele>
        <time>2026-07-08T07:45:38.000Z</time>
      </trkpt>
      <trkpt lat="45.81115" lon="1.88188">
        <ele>724.5</ele>
        <time>2026-07-08T07:45:39.000Z</time>
      </trkpt>
      <trkpt lat="45.81117" lon="1.88186">
        <ele>724.4</ele>
        <time>2026-07-08T07:45:40.000Z</time>
      </trkpt>
      <trkpt lat="45.81119" lon="1.88185">
        <ele>724.8</ele>
        <time>2026-07-08T07:45:41.000Z</time>
      </trkpt>
      <trkpt lat="45.81121" lon="1.88183">
        <ele>724.9</ele>
        <time>2026-07-08T07:45:42.000Z</time>
      </trkpt>
      <trkpt lat="45.81123" lon="1.88182">
        <ele>725.2</ele>
        <time>2026-07-08T07:45:43.000Z</time>
      </trkpt>
      <trkpt lat="45.81126" lon="1.88179">
        <ele>725.1</ele>
        <time>2026-07-08T07:45:44.000Z</time>
      </trkpt>
      <trkpt lat="45.81128" lon="1.88177">
        <ele>724.9</ele>
        <time>2026-07-08T07:45:45.000Z</time>
      </trkpt>
      <trkpt lat="45.8113" lon="1.88175">
        <ele>725.7</ele>
        <time>2026-07-08T07:45:46.000Z</time>
      </trkpt>
      <trkpt lat="45.81133" lon="1.88173">
        <ele>726.2</ele>
        <time>2026-07-08T07:45:47.000Z</time>
      </trkpt>
      <trkpt lat="45.81135" lon="1.88172">
        <ele>726.8</ele>
        <time>2026-07-08T07:45:48.000Z</time>
      </trkpt>
      <trkpt lat="45.81137" lon="1.8817">
        <ele>727.4</ele>
        <time>2026-07-08T07:45:49.000Z</time>
      </trkpt>
      <trkpt lat="45.8114" lon="1.88169">
        <ele>728</ele>
        <time>2026-07-08T07:45:50.000Z</time>
      </trkpt>
      <trkpt lat="45.81143" lon="1.88167">
        <ele>727.7</ele>
        <time>2026-07-08T07:45:51.000Z</time>
      </trkpt>
      <trkpt lat="45.81146" lon="1.88166">
        <ele>726.7</ele>
        <time>2026-07-08T07:45:52.000Z</time>
      </trkpt>
      <trkpt lat="45.81148" lon="1.88165">
        <ele>726.5</ele>
        <time>2026-07-08T07:45:53.000Z</time>
      </trkpt>
      <trkpt lat="45.8115" lon="1.88165">
        <ele>726.3</ele>
        <time>2026-07-08T07:45:54.000Z</time>
      </trkpt>
      <trkpt lat="45.81152" lon="1.88164">
        <ele>726.5</ele>
        <time>2026-07-08T07:45:55.000Z</time>
      </trkpt>
      <trkpt lat="45.81154" lon="1.88163">
        <ele>726.8</ele>
        <time>2026-07-08T07:45:56.000Z</time>
      </trkpt>
      <trkpt lat="45.81154" lon="1.88161">
        <ele>726.5</ele>
        <time>2026-07-08T07:45:57.000Z</time>
      </trkpt>
      <trkpt lat="45.81156" lon="1.88159">
        <ele>726.3</ele>
        <time>2026-07-08T07:45:58.000Z</time>
      </trkpt>
      <trkpt lat="45.81157" lon="1.88156">
        <ele>727.1</ele>
        <time>2026-07-08T07:45:59.000Z</time>
      </trkpt>
      <trkpt lat="45.81158" lon="1.88154">
        <ele>727.2</ele>
        <time>2026-07-08T07:46:00.000Z</time>
      </trkpt>
      <trkpt lat="45.81159" lon="1.88152">
        <ele>727</ele>
        <time>2026-07-08T07:46:01.000Z</time>
      </trkpt>
      <trkpt lat="45.8116" lon="1.88149">
        <ele>726.9</ele>
        <time>2026-07-08T07:46:02.000Z</time>
      </trkpt>
      <trkpt lat="45.81161" lon="1.88147">
        <ele>726.7</ele>
        <time>2026-07-08T07:46:03.000Z</time>
      </trkpt>
      <trkpt lat="45.81162" lon="1.88144">
        <ele>726.7</ele>
        <time>2026-07-08T07:46:04.000Z</time>
      </trkpt>
      <trkpt lat="45.81164" lon="1.88143">
        <ele>726.5</ele>
        <time>2026-07-08T07:46:05.000Z</time>
      </trkpt>
      <trkpt lat="45.81166" lon="1.88141">
        <ele>726.4</ele>
        <time>2026-07-08T07:46:06.000Z</time>
      </trkpt>
      <trkpt lat="45.81167" lon="1.88139">
        <ele>726.3</ele>
        <time>2026-07-08T07:46:07.000Z</time>
      </trkpt>
      <trkpt lat="45.81168" lon="1.88136">
        <ele>726.1</ele>
        <time>2026-07-08T07:46:08.000Z</time>
      </trkpt>
      <trkpt lat="45.81169" lon="1.88134">
        <ele>726.1</ele>
        <time>2026-07-08T07:46:09.000Z</time>
      </trkpt>
      <trkpt lat="45.8117" lon="1.88132">
        <ele>727.1</ele>
        <time>2026-07-08T07:46:10.000Z</time>
      </trkpt>
      <trkpt lat="45.81171" lon="1.88131">
        <ele>727.2</ele>
        <time>2026-07-08T07:46:11.000Z</time>
      </trkpt>
      <trkpt lat="45.81172" lon="1.88129">
        <ele>727.2</ele>
        <time>2026-07-08T07:46:12.000Z</time>
      </trkpt>
      <trkpt lat="45.81174" lon="1.88127">
        <ele>726.7</ele>
        <time>2026-07-08T07:46:13.000Z</time>
      </trkpt>
      <trkpt lat="45.81174" lon="1.88125">
        <ele>726.4</ele>
        <time>2026-07-08T07:46:14.000Z</time>
      </trkpt>
      <trkpt lat="45.81175" lon="1.88123">
        <ele>726.6</ele>
        <time>2026-07-08T07:46:15.000Z</time>
      </trkpt>
      <trkpt lat="45.81174" lon="1.88121">
        <ele>726.5</ele>
        <time>2026-07-08T07:46:16.000Z</time>
      </trkpt>
      <trkpt lat="45.81174" lon="1.88118">
        <ele>726.2</ele>
        <time>2026-07-08T07:46:17.000Z</time>
      </trkpt>
      <trkpt lat="45.81175" lon="1.88116">
        <ele>726.7</ele>
        <time>2026-07-08T07:46:18.000Z</time>
      </trkpt>
      <trkpt lat="45.81176" lon="1.88113">
        <ele>727.3</ele>
        <time>2026-07-08T07:46:19.000Z</time>
      </trkpt>
      <trkpt lat="45.81176" lon="1.8811">
        <ele>727.6</ele>
        <time>2026-07-08T07:46:20.000Z</time>
      </trkpt>
      <trkpt lat="45.81177" lon="1.88107">
        <ele>727.6</ele>
        <time>2026-07-08T07:46:21.000Z</time>
      </trkpt>
      <trkpt lat="45.81178" lon="1.88106">
        <ele>727.3</ele>
        <time>2026-07-08T07:46:22.000Z</time>
      </trkpt>
      <trkpt lat="45.81179" lon="1.88104">
        <ele>726.8</ele>
        <time>2026-07-08T07:46:23.000Z</time>
      </trkpt>
      <trkpt lat="45.8118" lon="1.88102">
        <ele>726.2</ele>
        <time>2026-07-08T07:46:24.000Z</time>
      </trkpt>
      <trkpt lat="45.81181" lon="1.881">
        <ele>725.7</ele>
        <time>2026-07-08T07:46:25.000Z</time>
      </trkpt>
      <trkpt lat="45.81183" lon="1.88099">
        <ele>725.3</ele>
        <time>2026-07-08T07:46:26.000Z</time>
      </trkpt>
      <trkpt lat="45.81184" lon="1.88097">
        <ele>724.5</ele>
        <time>2026-07-08T07:46:27.000Z</time>
      </trkpt>
      <trkpt lat="45.81184" lon="1.88095">
        <ele>724.1</ele>
        <time>2026-07-08T07:46:28.000Z</time>
      </trkpt>
      <trkpt lat="45.81186" lon="1.88093">
        <ele>723.5</ele>
        <time>2026-07-08T07:46:29.000Z</time>
      </trkpt>
      <trkpt lat="45.81187" lon="1.88093">
        <ele>723.8</ele>
        <time>2026-07-08T07:46:30.000Z</time>
      </trkpt>
      <trkpt lat="45.81189" lon="1.88092">
        <ele>723.3</ele>
        <time>2026-07-08T07:46:31.000Z</time>
      </trkpt>
      <trkpt lat="45.8119" lon="1.88091">
        <ele>722.6</ele>
        <time>2026-07-08T07:46:32.000Z</time>
      </trkpt>
      <trkpt lat="45.81192" lon="1.8809">
        <ele>722.8</ele>
        <time>2026-07-08T07:46:33.000Z</time>
      </trkpt>
      <trkpt lat="45.81193" lon="1.88089">
        <ele>722.4</ele>
        <time>2026-07-08T07:46:34.000Z</time>
      </trkpt>
      <trkpt lat="45.81193" lon="1.88089">
        <ele>721.9</ele>
        <time>2026-07-08T07:46:35.000Z</time>
      </trkpt>
      <trkpt lat="45.81195" lon="1.88088">
        <ele>721.5</ele>
        <time>2026-07-08T07:46:36.000Z</time>
      </trkpt>
      <trkpt lat="45.81196" lon="1.88087">
        <ele>721.5</ele>
        <time>2026-07-08T07:46:37.000Z</time>
      </trkpt>
      <trkpt lat="45.81197" lon="1.88086">
        <ele>721.7</ele>
        <time>2026-07-08T07:46:38.000Z</time>
      </trkpt>
      <trkpt lat="45.81198" lon="1.88085">
        <ele>721.5</ele>
        <time>2026-07-08T07:46:39.000Z</time>
      </trkpt>
      <trkpt lat="45.812" lon="1.88082">
        <ele>720.8</ele>
        <time>2026-07-08T07:46:40.000Z</time>
      </trkpt>
      <trkpt lat="45.81201" lon="1.8808">
        <ele>719.6</ele>
        <time>2026-07-08T07:46:41.000Z</time>
      </trkpt>
      <trkpt lat="45.81202" lon="1.88078">
        <ele>719.4</ele>
        <time>2026-07-08T07:46:42.000Z</time>
      </trkpt>
      <trkpt lat="45.81202" lon="1.88077">
        <ele>718.7</ele>
        <time>2026-07-08T07:46:43.000Z</time>
      </trkpt>
      <trkpt lat="45.81203" lon="1.88075">
        <ele>718.7</ele>
        <time>2026-07-08T07:46:44.000Z</time>
      </trkpt>
      <trkpt lat="45.81204" lon="1.88073">
        <ele>719.2</ele>
        <time>2026-07-08T07:46:45.000Z</time>
      </trkpt>
      <trkpt lat="45.81205" lon="1.88072">
        <ele>719.8</ele>
        <time>2026-07-08T07:46:46.000Z</time>
      </trkpt>
      <trkpt lat="45.81207" lon="1.8807">
        <ele>719.5</ele>
        <time>2026-07-08T07:46:47.000Z</time>
      </trkpt>
      <trkpt lat="45.81208" lon="1.88069">
        <ele>718</ele>
        <time>2026-07-08T07:46:48.000Z</time>
      </trkpt>
      <trkpt lat="45.81209" lon="1.88067">
        <ele>718.2</ele>
        <time>2026-07-08T07:46:49.000Z</time>
      </trkpt>
      <trkpt lat="45.8121" lon="1.88066">
        <ele>717.5</ele>
        <time>2026-07-08T07:46:50.000Z</time>
      </trkpt>
      <trkpt lat="45.81212" lon="1.88065">
        <ele>717.8</ele>
        <time>2026-07-08T07:46:51.000Z</time>
      </trkpt>
      <trkpt lat="45.81213" lon="1.88063">
        <ele>717.6</ele>
        <time>2026-07-08T07:46:52.000Z</time>
      </trkpt>
      <trkpt lat="45.81214" lon="1.88061">
        <ele>717.4</ele>
        <time>2026-07-08T07:46:53.000Z</time>
      </trkpt>
      <trkpt lat="45.81216" lon="1.8806">
        <ele>717</ele>
        <time>2026-07-08T07:46:54.000Z</time>
      </trkpt>
      <trkpt lat="45.81216" lon="1.88058">
        <ele>717.2</ele>
        <time>2026-07-08T07:46:55.000Z</time>
      </trkpt>
      <trkpt lat="45.81217" lon="1.88056">
        <ele>716.6</ele>
        <time>2026-07-08T07:46:56.000Z</time>
      </trkpt>
      <trkpt lat="45.81218" lon="1.88054">
        <ele>716.6</ele>
        <time>2026-07-08T07:46:57.000Z</time>
      </trkpt>
      <trkpt lat="45.81219" lon="1.88051">
        <ele>716.1</ele>
        <time>2026-07-08T07:46:58.000Z</time>
      </trkpt>
      <trkpt lat="45.81219" lon="1.88048">
        <ele>715.2</ele>
        <time>2026-07-08T07:46:59.000Z</time>
      </trkpt>
      <trkpt lat="45.81219" lon="1.88045">
        <ele>714.4</ele>
        <time>2026-07-08T07:47:00.000Z</time>
      </trkpt>
      <trkpt lat="45.81219" lon="1.88042">
        <ele>714.4</ele>
        <time>2026-07-08T07:47:01.000Z</time>
      </trkpt>
      <trkpt lat="45.81218" lon="1.8804">
        <ele>714.5</ele>
        <time>2026-07-08T07:47:02.000Z</time>
      </trkpt>
      <trkpt lat="45.81217" lon="1.88038">
        <ele>714.2</ele>
        <time>2026-07-08T07:47:03.000Z</time>
      </trkpt>
      <trkpt lat="45.81216" lon="1.88036">
        <ele>713.8</ele>
        <time>2026-07-08T07:47:04.000Z</time>
      </trkpt>
      <trkpt lat="45.81215" lon="1.88034">
        <ele>714.1</ele>
        <time>2026-07-08T07:47:05.000Z</time>
      </trkpt>
      <trkpt lat="45.81215" lon="1.88031">
        <ele>713.8</ele>
        <time>2026-07-08T07:47:06.000Z</time>
      </trkpt>
      <trkpt lat="45.81214" lon="1.88029">
        <ele>713.1</ele>
        <time>2026-07-08T07:47:07.000Z</time>
      </trkpt>
      <trkpt lat="45.81214" lon="1.88027">
        <ele>713.1</ele>
        <time>2026-07-08T07:47:08.000Z</time>
      </trkpt>
      <trkpt lat="45.81214" lon="1.88026">
        <ele>712.8</ele>
        <time>2026-07-08T07:47:09.000Z</time>
      </trkpt>
      <trkpt lat="45.81215" lon="1.88025">
        <ele>711.7</ele>
        <time>2026-07-08T07:47:10.000Z</time>
      </trkpt>
      <trkpt lat="45.81215" lon="1.88023">
        <ele>710.9</ele>
        <time>2026-07-08T07:47:11.000Z</time>
      </trkpt>
      <trkpt lat="45.81215" lon="1.8802">
        <ele>710.2</ele>
        <time>2026-07-08T07:47:12.000Z</time>
      </trkpt>
      <trkpt lat="45.81216" lon="1.88018">
        <ele>710.7</ele>
        <time>2026-07-08T07:47:13.000Z</time>
      </trkpt>
      <trkpt lat="45.81216" lon="1.88015">
        <ele>710.9</ele>
        <time>2026-07-08T07:47:14.000Z</time>
      </trkpt>
      <trkpt lat="45.81218" lon="1.88013">
        <ele>710.5</ele>
        <time>2026-07-08T07:47:15.000Z</time>
      </trkpt>
      <trkpt lat="45.81219" lon="1.88011">
        <ele>710.4</ele>
        <time>2026-07-08T07:47:16.000Z</time>
      </trkpt>
      <trkpt lat="45.81221" lon="1.8801">
        <ele>710.7</ele>
        <time>2026-07-08T07:47:17.000Z</time>
      </trkpt>
      <trkpt lat="45.81222" lon="1.88008">
        <ele>710.1</ele>
        <time>2026-07-08T07:47:18.000Z</time>
      </trkpt>
      <trkpt lat="45.81223" lon="1.88007">
        <ele>709.6</ele>
        <time>2026-07-08T07:47:19.000Z</time>
      </trkpt>
      <trkpt lat="45.81224" lon="1.88006">
        <ele>709.4</ele>
        <time>2026-07-08T07:47:20.000Z</time>
      </trkpt>
      <trkpt lat="45.81226" lon="1.88006">
        <ele>709.9</ele>
        <time>2026-07-08T07:47:21.000Z</time>
      </trkpt>
      <trkpt lat="45.81228" lon="1.88006">
        <ele>711.2</ele>
        <time>2026-07-08T07:47:22.000Z</time>
      </trkpt>
      <trkpt lat="45.81229" lon="1.88005">
        <ele>711.3</ele>
        <time>2026-07-08T07:47:23.000Z</time>
      </trkpt>
      <trkpt lat="45.8123" lon="1.88003">
        <ele>711.1</ele>
        <time>2026-07-08T07:47:24.000Z</time>
      </trkpt>
      <trkpt lat="45.81232" lon="1.88002">
        <ele>711.3</ele>
        <time>2026-07-08T07:47:25.000Z</time>
      </trkpt>
      <trkpt lat="45.81234" lon="1.88">
        <ele>713.2</ele>
        <time>2026-07-08T07:47:26.000Z</time>
      </trkpt>
      <trkpt lat="45.81236" lon="1.87999">
        <ele>713.3</ele>
        <time>2026-07-08T07:47:27.000Z</time>
      </trkpt>
      <trkpt lat="45.81238" lon="1.87998">
        <ele>713.3</ele>
        <time>2026-07-08T07:47:28.000Z</time>
      </trkpt>
      <trkpt lat="45.8124" lon="1.87997">
        <ele>713</ele>
        <time>2026-07-08T07:47:29.000Z</time>
      </trkpt>
      <trkpt lat="45.81241" lon="1.87994">
        <ele>712.8</ele>
        <time>2026-07-08T07:47:30.000Z</time>
      </trkpt>
      <trkpt lat="45.81242" lon="1.87991">
        <ele>712.8</ele>
        <time>2026-07-08T07:47:31.000Z</time>
      </trkpt>
      <trkpt lat="45.81242" lon="1.87988">
        <ele>712.7</ele>
        <time>2026-07-08T07:47:32.000Z</time>
      </trkpt>
      <trkpt lat="45.81243" lon="1.87985">
        <ele>712.3</ele>
        <time>2026-07-08T07:47:33.000Z</time>
      </trkpt>
      <trkpt lat="45.81243" lon="1.87982">
        <ele>711.7</ele>
        <time>2026-07-08T07:47:34.000Z</time>
      </trkpt>
      <trkpt lat="45.81243" lon="1.87979">
        <ele>711.9</ele>
        <time>2026-07-08T07:47:35.000Z</time>
      </trkpt>
      <trkpt lat="45.81244" lon="1.87976">
        <ele>712.7</ele>
        <time>2026-07-08T07:47:36.000Z</time>
      </trkpt>
      <trkpt lat="45.81245" lon="1.87974">
        <ele>713.3</ele>
        <time>2026-07-08T07:47:37.000Z</time>
      </trkpt>
      <trkpt lat="45.81246" lon="1.87972">
        <ele>711.6</ele>
        <time>2026-07-08T07:47:38.000Z</time>
      </trkpt>
      <trkpt lat="45.81247" lon="1.87971">
        <ele>712.1</ele>
        <time>2026-07-08T07:47:39.000Z</time>
      </trkpt>
      <trkpt lat="45.81249" lon="1.87969">
        <ele>711.6</ele>
        <time>2026-07-08T07:47:40.000Z</time>
      </trkpt>
      <trkpt lat="45.8125" lon="1.87968">
        <ele>710.8</ele>
        <time>2026-07-08T07:47:41.000Z</time>
      </trkpt>
      <trkpt lat="45.81251" lon="1.87967">
        <ele>710.8</ele>
        <time>2026-07-08T07:47:42.000Z</time>
      </trkpt>
      <trkpt lat="45.81253" lon="1.87967">
        <ele>710.2</ele>
        <time>2026-07-08T07:47:43.000Z</time>
      </trkpt>
      <trkpt lat="45.81255" lon="1.87966">
        <ele>710.6</ele>
        <time>2026-07-08T07:47:44.000Z</time>
      </trkpt>
      <trkpt lat="45.81258" lon="1.87965">
        <ele>710.2</ele>
        <time>2026-07-08T07:47:45.000Z</time>
      </trkpt>
      <trkpt lat="45.8126" lon="1.87964">
        <ele>710.1</ele>
        <time>2026-07-08T07:47:46.000Z</time>
      </trkpt>
      <trkpt lat="45.81262" lon="1.87963">
        <ele>710.4</ele>
        <time>2026-07-08T07:47:47.000Z</time>
      </trkpt>
      <trkpt lat="45.81263" lon="1.87961">
        <ele>709.7</ele>
        <time>2026-07-08T07:47:48.000Z</time>
      </trkpt>
      <trkpt lat="45.81264" lon="1.8796">
        <ele>709</ele>
        <time>2026-07-08T07:47:49.000Z</time>
      </trkpt>
      <trkpt lat="45.81265" lon="1.87958">
        <ele>708.7</ele>
        <time>2026-07-08T07:47:50.000Z</time>
      </trkpt>
      <trkpt lat="45.81266" lon="1.87956">
        <ele>708</ele>
        <time>2026-07-08T07:47:51.000Z</time>
      </trkpt>
      <trkpt lat="45.81266" lon="1.87954">
        <ele>707.7</ele>
        <time>2026-07-08T07:47:52.000Z</time>
      </trkpt>
      <trkpt lat="45.81267" lon="1.87952">
        <ele>707.7</ele>
        <time>2026-07-08T07:47:53.000Z</time>
      </trkpt>
      <trkpt lat="45.81268" lon="1.8795">
        <ele>706.9</ele>
        <time>2026-07-08T07:47:54.000Z</time>
      </trkpt>
      <trkpt lat="45.81268" lon="1.87949">
        <ele>707</ele>
        <time>2026-07-08T07:47:55.000Z</time>
      </trkpt>
      <trkpt lat="45.81269" lon="1.87946">
        <ele>708.7</ele>
        <time>2026-07-08T07:47:56.000Z</time>
      </trkpt>
      <trkpt lat="45.8127" lon="1.87944">
        <ele>708.3</ele>
        <time>2026-07-08T07:47:57.000Z</time>
      </trkpt>
      <trkpt lat="45.81271" lon="1.87942">
        <ele>707.1</ele>
        <time>2026-07-08T07:47:58.000Z</time>
      </trkpt>
      <trkpt lat="45.81272" lon="1.87939">
        <ele>705.5</ele>
        <time>2026-07-08T07:47:59.000Z</time>
      </trkpt>
      <trkpt lat="45.81274" lon="1.87937">
        <ele>706.3</ele>
        <time>2026-07-08T07:48:00.000Z</time>
      </trkpt>
      <trkpt lat="45.81277" lon="1.87934">
        <ele>707.4</ele>
        <time>2026-07-08T07:48:01.000Z</time>
      </trkpt>
      <trkpt lat="45.8128" lon="1.87932">
        <ele>707.9</ele>
        <time>2026-07-08T07:48:02.000Z</time>
      </trkpt>
      <trkpt lat="45.81282" lon="1.87931">
        <ele>707.9</ele>
        <time>2026-07-08T07:48:03.000Z</time>
      </trkpt>
      <trkpt lat="45.81284" lon="1.87931">
        <ele>706.6</ele>
        <time>2026-07-08T07:48:04.000Z</time>
      </trkpt>
      <trkpt lat="45.81285" lon="1.87931">
        <ele>706.2</ele>
        <time>2026-07-08T07:48:05.000Z</time>
      </trkpt>
      <trkpt lat="45.81286" lon="1.87931">
        <ele>705.7</ele>
        <time>2026-07-08T07:48:06.000Z</time>
      </trkpt>
      <trkpt lat="45.81287" lon="1.8793">
        <ele>704.8</ele>
        <time>2026-07-08T07:48:07.000Z</time>
      </trkpt>
      <trkpt lat="45.81288" lon="1.8793">
        <ele>703.6</ele>
        <time>2026-07-08T07:48:08.000Z</time>
      </trkpt>
      <trkpt lat="45.8129" lon="1.8793">
        <ele>702.8</ele>
        <time>2026-07-08T07:48:09.000Z</time>
      </trkpt>
      <trkpt lat="45.81291" lon="1.8793">
        <ele>701.5</ele>
        <time>2026-07-08T07:48:10.000Z</time>
      </trkpt>
      <trkpt lat="45.81293" lon="1.8793">
        <ele>701.2</ele>
        <time>2026-07-08T07:48:11.000Z</time>
      </trkpt>
      <trkpt lat="45.81294" lon="1.87931">
        <ele>700.9</ele>
        <time>2026-07-08T07:48:12.000Z</time>
      </trkpt>
      <trkpt lat="45.81295" lon="1.87932">
        <ele>700.7</ele>
        <time>2026-07-08T07:48:13.000Z</time>
      </trkpt>
      <trkpt lat="45.81297" lon="1.87933">
        <ele>700.9</ele>
        <time>2026-07-08T07:48:14.000Z</time>
      </trkpt>
      <trkpt lat="45.81298" lon="1.87935">
        <ele>700.8</ele>
        <time>2026-07-08T07:48:15.000Z</time>
      </trkpt>
      <trkpt lat="45.81298" lon="1.87936">
        <ele>701.9</ele>
        <time>2026-07-08T07:48:16.000Z</time>
      </trkpt>
      <trkpt lat="45.81299" lon="1.87937">
        <ele>702.4</ele>
        <time>2026-07-08T07:48:17.000Z</time>
      </trkpt>
      <trkpt lat="45.813" lon="1.87939">
        <ele>701.9</ele>
        <time>2026-07-08T07:48:18.000Z</time>
      </trkpt>
      <trkpt lat="45.81301" lon="1.87939">
        <ele>702.9</ele>
        <time>2026-07-08T07:48:19.000Z</time>
      </trkpt>
      <trkpt lat="45.81303" lon="1.87939">
        <ele>702.5</ele>
        <time>2026-07-08T07:48:20.000Z</time>
      </trkpt>
      <trkpt lat="45.81304" lon="1.8794">
        <ele>702.3</ele>
        <time>2026-07-08T07:48:21.000Z</time>
      </trkpt>
      <trkpt lat="45.81306" lon="1.8794">
        <ele>700.9</ele>
        <time>2026-07-08T07:48:22.000Z</time>
      </trkpt>
      <trkpt lat="45.81307" lon="1.87939">
        <ele>700.7</ele>
        <time>2026-07-08T07:48:23.000Z</time>
      </trkpt>
      <trkpt lat="45.81309" lon="1.8794">
        <ele>700.4</ele>
        <time>2026-07-08T07:48:24.000Z</time>
      </trkpt>
      <trkpt lat="45.81311" lon="1.87939">
        <ele>702.2</ele>
        <time>2026-07-08T07:48:25.000Z</time>
      </trkpt>
      <trkpt lat="45.81312" lon="1.87938">
        <ele>703.5</ele>
        <time>2026-07-08T07:48:26.000Z</time>
      </trkpt>
      <trkpt lat="45.81314" lon="1.87938">
        <ele>703.2</ele>
        <time>2026-07-08T07:48:27.000Z</time>
      </trkpt>
      <trkpt lat="45.81316" lon="1.87937">
        <ele>703</ele>
        <time>2026-07-08T07:48:28.000Z</time>
      </trkpt>
      <trkpt lat="45.81318" lon="1.87937">
        <ele>703.5</ele>
        <time>2026-07-08T07:48:29.000Z</time>
      </trkpt>
      <trkpt lat="45.8132" lon="1.87938">
        <ele>703.1</ele>
        <time>2026-07-08T07:48:30.000Z</time>
      </trkpt>
      <trkpt lat="45.81322" lon="1.87938">
        <ele>703.1</ele>
        <time>2026-07-08T07:48:31.000Z</time>
      </trkpt>
      <trkpt lat="45.81324" lon="1.87938">
        <ele>703.1</ele>
        <time>2026-07-08T07:48:32.000Z</time>
      </trkpt>
      <trkpt lat="45.81326" lon="1.87938">
        <ele>702.6</ele>
        <time>2026-07-08T07:48:33.000Z</time>
      </trkpt>
      <trkpt lat="45.81328" lon="1.87937">
        <ele>703.5</ele>
        <time>2026-07-08T07:48:34.000Z</time>
      </trkpt>
      <trkpt lat="45.8133" lon="1.87936">
        <ele>704.1</ele>
        <time>2026-07-08T07:48:35.000Z</time>
      </trkpt>
      <trkpt lat="45.81332" lon="1.87936">
        <ele>704.1</ele>
        <time>2026-07-08T07:48:36.000Z</time>
      </trkpt>
      <trkpt lat="45.81334" lon="1.87935">
        <ele>703.8</ele>
        <time>2026-07-08T07:48:37.000Z</time>
      </trkpt>
      <trkpt lat="45.81336" lon="1.87934">
        <ele>704.1</ele>
        <time>2026-07-08T07:48:38.000Z</time>
      </trkpt>
      <trkpt lat="45.81338" lon="1.87933">
        <ele>704.3</ele>
        <time>2026-07-08T07:48:39.000Z</time>
      </trkpt>
      <trkpt lat="45.8134" lon="1.87932">
        <ele>705.1</ele>
        <time>2026-07-08T07:48:40.000Z</time>
      </trkpt>
      <trkpt lat="45.81343" lon="1.87931">
        <ele>704.4</ele>
        <time>2026-07-08T07:48:41.000Z</time>
      </trkpt>
      <trkpt lat="45.81345" lon="1.87931">
        <ele>704.1</ele>
        <time>2026-07-08T07:48:42.000Z</time>
      </trkpt>
      <trkpt lat="45.81347" lon="1.87931">
        <ele>704.3</ele>
        <time>2026-07-08T07:48:43.000Z</time>
      </trkpt>
      <trkpt lat="45.81348" lon="1.87931">
        <ele>705.4</ele>
        <time>2026-07-08T07:48:44.000Z</time>
      </trkpt>
      <trkpt lat="45.8135" lon="1.87931">
        <ele>705.4</ele>
        <time>2026-07-08T07:48:45.000Z</time>
      </trkpt>
      <trkpt lat="45.81352" lon="1.87928">
        <ele>705.5</ele>
        <time>2026-07-08T07:48:46.000Z</time>
      </trkpt>
      <trkpt lat="45.81353" lon="1.87926">
        <ele>706.1</ele>
        <time>2026-07-08T07:48:47.000Z</time>
      </trkpt>
      <trkpt lat="45.81354" lon="1.87928">
        <ele>705.8</ele>
        <time>2026-07-08T07:48:48.000Z</time>
      </trkpt>
      <trkpt lat="45.81355" lon="1.87926">
        <ele>705.7</ele>
        <time>2026-07-08T07:48:49.000Z</time>
      </trkpt>
      <trkpt lat="45.81356" lon="1.87926">
        <ele>705.8</ele>
        <time>2026-07-08T07:48:50.000Z</time>
      </trkpt>
      <trkpt lat="45.81358" lon="1.87927">
        <ele>705.7</ele>
        <time>2026-07-08T07:48:51.000Z</time>
      </trkpt>
      <trkpt lat="45.8136" lon="1.87928">
        <ele>705.5</ele>
        <time>2026-07-08T07:48:52.000Z</time>
      </trkpt>
      <trkpt lat="45.81362" lon="1.87928">
        <ele>705.2</ele>
        <time>2026-07-08T07:48:53.000Z</time>
      </trkpt>
      <trkpt lat="45.81364" lon="1.87928">
        <ele>706.1</ele>
        <time>2026-07-08T07:48:54.000Z</time>
      </trkpt>
      <trkpt lat="45.81366" lon="1.87928">
        <ele>706.1</ele>
        <time>2026-07-08T07:48:55.000Z</time>
      </trkpt>
      <trkpt lat="45.81369" lon="1.87928">
        <ele>706.8</ele>
        <time>2026-07-08T07:48:56.000Z</time>
      </trkpt>
      <trkpt lat="45.81372" lon="1.87929">
        <ele>707</ele>
        <time>2026-07-08T07:48:57.000Z</time>
      </trkpt>
      <trkpt lat="45.81374" lon="1.8793">
        <ele>707.2</ele>
        <time>2026-07-08T07:48:58.000Z</time>
      </trkpt>
      <trkpt lat="45.81376" lon="1.8793">
        <ele>707.1</ele>
        <time>2026-07-08T07:48:59.000Z</time>
      </trkpt>
      <trkpt lat="45.81378" lon="1.8793">
        <ele>706.9</ele>
        <time>2026-07-08T07:49:00.000Z</time>
      </trkpt>
      <trkpt lat="45.8138" lon="1.8793">
        <ele>707</ele>
        <time>2026-07-08T07:49:01.000Z</time>
      </trkpt>
      <trkpt lat="45.81382" lon="1.87928">
        <ele>707</ele>
        <time>2026-07-08T07:49:02.000Z</time>
      </trkpt>
      <trkpt lat="45.81383" lon="1.87926">
        <ele>706.8</ele>
        <time>2026-07-08T07:49:03.000Z</time>
      </trkpt>
      <trkpt lat="45.81385" lon="1.87923">
        <ele>707.4</ele>
        <time>2026-07-08T07:49:04.000Z</time>
      </trkpt>
      <trkpt lat="45.81387" lon="1.87921">
        <ele>706.4</ele>
        <time>2026-07-08T07:49:05.000Z</time>
      </trkpt>
      <trkpt lat="45.81388" lon="1.87918">
        <ele>706.7</ele>
        <time>2026-07-08T07:49:06.000Z</time>
      </trkpt>
      <trkpt lat="45.8139" lon="1.87916">
        <ele>707.3</ele>
        <time>2026-07-08T07:49:07.000Z</time>
      </trkpt>
      <trkpt lat="45.8139" lon="1.87913">
        <ele>706.9</ele>
        <time>2026-07-08T07:49:08.000Z</time>
      </trkpt>
      <trkpt lat="45.81391" lon="1.8791">
        <ele>706.9</ele>
        <time>2026-07-08T07:49:09.000Z</time>
      </trkpt>
      <trkpt lat="45.81391" lon="1.87907">
        <ele>706.9</ele>
        <time>2026-07-08T07:49:10.000Z</time>
      </trkpt>
      <trkpt lat="45.81392" lon="1.87904">
        <ele>707.2</ele>
        <time>2026-07-08T07:49:11.000Z</time>
      </trkpt>
      <trkpt lat="45.81394" lon="1.87901">
        <ele>708.1</ele>
        <time>2026-07-08T07:49:12.000Z</time>
      </trkpt>
      <trkpt lat="45.81396" lon="1.87898">
        <ele>708.2</ele>
        <time>2026-07-08T07:49:13.000Z</time>
      </trkpt>
      <trkpt lat="45.81395" lon="1.87897">
        <ele>705.7</ele>
        <time>2026-07-08T07:49:14.000Z</time>
      </trkpt>
      <trkpt lat="45.81395" lon="1.87895">
        <ele>705.6</ele>
        <time>2026-07-08T07:49:15.000Z</time>
      </trkpt>
      <trkpt lat="45.81397" lon="1.87892">
        <ele>706.4</ele>
        <time>2026-07-08T07:49:16.000Z</time>
      </trkpt>
      <trkpt lat="45.81398" lon="1.8789">
        <ele>706.6</ele>
        <time>2026-07-08T07:49:17.000Z</time>
      </trkpt>
      <trkpt lat="45.814" lon="1.87887">
        <ele>707.2</ele>
        <time>2026-07-08T07:49:18.000Z</time>
      </trkpt>
      <trkpt lat="45.81402" lon="1.87884">
        <ele>707.2</ele>
        <time>2026-07-08T07:49:19.000Z</time>
      </trkpt>
      <trkpt lat="45.81403" lon="1.87882">
        <ele>707.2</ele>
        <time>2026-07-08T07:49:20.000Z</time>
      </trkpt>
      <trkpt lat="45.81404" lon="1.87878">
        <ele>707.5</ele>
        <time>2026-07-08T07:49:21.000Z</time>
      </trkpt>
      <trkpt lat="45.81405" lon="1.87875">
        <ele>707.8</ele>
        <time>2026-07-08T07:49:22.000Z</time>
      </trkpt>
      <trkpt lat="45.81405" lon="1.8787">
        <ele>708</ele>
        <time>2026-07-08T07:49:23.000Z</time>
      </trkpt>
      <trkpt lat="45.81405" lon="1.87867">
        <ele>708.7</ele>
        <time>2026-07-08T07:49:24.000Z</time>
      </trkpt>
      <trkpt lat="45.81406" lon="1.87861">
        <ele>709.3</ele>
        <time>2026-07-08T07:49:25.000Z</time>
      </trkpt>
      <trkpt lat="45.81408" lon="1.87858">
        <ele>709.3</ele>
        <time>2026-07-08T07:49:26.000Z</time>
      </trkpt>
      <trkpt lat="45.8141" lon="1.87856">
        <ele>708.8</ele>
        <time>2026-07-08T07:49:27.000Z</time>
      </trkpt>
      <trkpt lat="45.81413" lon="1.87855">
        <ele>708.6</ele>
        <time>2026-07-08T07:49:28.000Z</time>
      </trkpt>
      <trkpt lat="45.81417" lon="1.87858">
        <ele>708.2</ele>
        <time>2026-07-08T07:49:29.000Z</time>
      </trkpt>
      <trkpt lat="45.81422" lon="1.87862">
        <ele>710.4</ele>
        <time>2026-07-08T07:49:30.000Z</time>
      </trkpt>
      <trkpt lat="45.81427" lon="1.87866">
        <ele>710.9</ele>
        <time>2026-07-08T07:49:31.000Z</time>
      </trkpt>
      <trkpt lat="45.81431" lon="1.87867">
        <ele>712.6</ele>
        <time>2026-07-08T07:49:32.000Z</time>
      </trkpt>
      <trkpt lat="45.81436" lon="1.87864">
        <ele>711.8</ele>
        <time>2026-07-08T07:49:33.000Z</time>
      </trkpt>
      <trkpt lat="45.81438" lon="1.8786">
        <ele>712.8</ele>
        <time>2026-07-08T07:49:34.000Z</time>
      </trkpt>
      <trkpt lat="45.8144" lon="1.87856">
        <ele>713.2</ele>
        <time>2026-07-08T07:49:35.000Z</time>
      </trkpt>
      <trkpt lat="45.81442" lon="1.87853">
        <ele>713.8</ele>
        <time>2026-07-08T07:49:36.000Z</time>
      </trkpt>
      <trkpt lat="45.81445" lon="1.87851">
        <ele>714.8</ele>
        <time>2026-07-08T07:49:37.000Z</time>
      </trkpt>
      <trkpt lat="45.81448" lon="1.87852">
        <ele>715.8</ele>
        <time>2026-07-08T07:49:38.000Z</time>
      </trkpt>
      <trkpt lat="45.81452" lon="1.87853">
        <ele>715.8</ele>
        <time>2026-07-08T07:49:39.000Z</time>
      </trkpt>
      <trkpt lat="45.81455" lon="1.87855">
        <ele>715.7</ele>
        <time>2026-07-08T07:49:40.000Z</time>
      </trkpt>
      <trkpt lat="45.81458" lon="1.87856">
        <ele>715.4</ele>
        <time>2026-07-08T07:49:41.000Z</time>
      </trkpt>
      <trkpt lat="45.81461" lon="1.87855">
        <ele>715.5</ele>
        <time>2026-07-08T07:49:42.000Z</time>
      </trkpt>
      <trkpt lat="45.81465" lon="1.87854">
        <ele>716.3</ele>
        <time>2026-07-08T07:49:43.000Z</time>
      </trkpt>
      <trkpt lat="45.81468" lon="1.87854">
        <ele>717.4</ele>
        <time>2026-07-08T07:49:44.000Z</time>
      </trkpt>
      <trkpt lat="45.81471" lon="1.87855">
        <ele>718.7</ele>
        <time>2026-07-08T07:49:45.000Z</time>
      </trkpt>
      <trkpt lat="45.81473" lon="1.87857">
        <ele>719.6</ele>
        <time>2026-07-08T07:49:46.000Z</time>
      </trkpt>
      <trkpt lat="45.81476" lon="1.8786">
        <ele>720.1</ele>
        <time>2026-07-08T07:49:47.000Z</time>
      </trkpt>
      <trkpt lat="45.81479" lon="1.87863">
        <ele>719.9</ele>
        <time>2026-07-08T07:49:48.000Z</time>
      </trkpt>
      <trkpt lat="45.81482" lon="1.87866">
        <ele>719.4</ele>
        <time>2026-07-08T07:49:49.000Z</time>
      </trkpt>
      <trkpt lat="45.81483" lon="1.8787">
        <ele>719.4</ele>
        <time>2026-07-08T07:49:50.000Z</time>
      </trkpt>
      <trkpt lat="45.81483" lon="1.87874">
        <ele>721.9</ele>
        <time>2026-07-08T07:49:51.000Z</time>
      </trkpt>
      <trkpt lat="45.81484" lon="1.87876">
        <ele>720</ele>
        <time>2026-07-08T07:49:52.000Z</time>
      </trkpt>
      <trkpt lat="45.81486" lon="1.87878">
        <ele>719.5</ele>
        <time>2026-07-08T07:49:53.000Z</time>
      </trkpt>
      <trkpt lat="45.81487" lon="1.8788">
        <ele>719.7</ele>
        <time>2026-07-08T07:49:54.000Z</time>
      </trkpt>
      <trkpt lat="45.81489" lon="1.87881">
        <ele>719.7</ele>
        <time>2026-07-08T07:49:55.000Z</time>
      </trkpt>
      <trkpt lat="45.81491" lon="1.87883">
        <ele>719.8</ele>
        <time>2026-07-08T07:49:56.000Z</time>
      </trkpt>
      <trkpt lat="45.81492" lon="1.87884">
        <ele>720.5</ele>
        <time>2026-07-08T07:49:57.000Z</time>
      </trkpt>
      <trkpt lat="45.81494" lon="1.87885">
        <ele>720.9</ele>
        <time>2026-07-08T07:49:58.000Z</time>
      </trkpt>
      <trkpt lat="45.81495" lon="1.87886">
        <ele>721.9</ele>
        <time>2026-07-08T07:49:59.000Z</time>
      </trkpt>
      <trkpt lat="45.81497" lon="1.87885">
        <ele>721.6</ele>
        <time>2026-07-08T07:50:00.000Z</time>
      </trkpt>
      <trkpt lat="45.81498" lon="1.87883">
        <ele>722.8</ele>
        <time>2026-07-08T07:50:01.000Z</time>
      </trkpt>
      <trkpt lat="45.81499" lon="1.8788">
        <ele>723.5</ele>
        <time>2026-07-08T07:50:02.000Z</time>
      </trkpt>
      <trkpt lat="45.81498" lon="1.87877">
        <ele>723.1</ele>
        <time>2026-07-08T07:50:03.000Z</time>
      </trkpt>
      <trkpt lat="45.81496" lon="1.87874">
        <ele>722.1</ele>
        <time>2026-07-08T07:50:04.000Z</time>
      </trkpt>
      <trkpt lat="45.81495" lon="1.8787">
        <ele>722</ele>
        <time>2026-07-08T07:50:05.000Z</time>
      </trkpt>
      <trkpt lat="45.81494" lon="1.87868">
        <ele>721.9</ele>
        <time>2026-07-08T07:50:06.000Z</time>
      </trkpt>
      <trkpt lat="45.81494" lon="1.87865">
        <ele>722.5</ele>
        <time>2026-07-08T07:50:07.000Z</time>
      </trkpt>
      <trkpt lat="45.81492" lon="1.87863">
        <ele>723.4</ele>
        <time>2026-07-08T07:50:08.000Z</time>
      </trkpt>
      <trkpt lat="45.81491" lon="1.87859">
        <ele>723.6</ele>
        <time>2026-07-08T07:50:09.000Z</time>
      </trkpt>
      <trkpt lat="45.81489" lon="1.87856">
        <ele>723.6</ele>
        <time>2026-07-08T07:50:10.000Z</time>
      </trkpt>
      <trkpt lat="45.81488" lon="1.87852">
        <ele>723.7</ele>
        <time>2026-07-08T07:50:11.000Z</time>
      </trkpt>
      <trkpt lat="45.81488" lon="1.8785">
        <ele>723.6</ele>
        <time>2026-07-08T07:50:12.000Z</time>
      </trkpt>
      <trkpt lat="45.81487" lon="1.87847">
        <ele>724.2</ele>
        <time>2026-07-08T07:50:13.000Z</time>
      </trkpt>
      <trkpt lat="45.81486" lon="1.87845">
        <ele>724.8</ele>
        <time>2026-07-08T07:50:14.000Z</time>
      </trkpt>
      <trkpt lat="45.81485" lon="1.87842">
        <ele>725.1</ele>
        <time>2026-07-08T07:50:15.000Z</time>
      </trkpt>
      <trkpt lat="45.81484" lon="1.87839">
        <ele>724.7</ele>
        <time>2026-07-08T07:50:16.000Z</time>
      </trkpt>
      <trkpt lat="45.81484" lon="1.87836">
        <ele>725</ele>
        <time>2026-07-08T07:50:17.000Z</time>
      </trkpt>
      <trkpt lat="45.81485" lon="1.87834">
        <ele>725.4</ele>
        <time>2026-07-08T07:50:18.000Z</time>
      </trkpt>
      <trkpt lat="45.81487" lon="1.87833">
        <ele>724.2</ele>
        <time>2026-07-08T07:50:19.000Z</time>
      </trkpt>
      <trkpt lat="45.81487" lon="1.8783">
        <ele>724.7</ele>
        <time>2026-07-08T07:50:20.000Z</time>
      </trkpt>
      <trkpt lat="45.81488" lon="1.87828">
        <ele>725</ele>
        <time>2026-07-08T07:50:21.000Z</time>
      </trkpt>
      <trkpt lat="45.81488" lon="1.87827">
        <ele>725.1</ele>
        <time>2026-07-08T07:50:22.000Z</time>
      </trkpt>
      <trkpt lat="45.81489" lon="1.87824">
        <ele>725.5</ele>
        <time>2026-07-08T07:50:23.000Z</time>
      </trkpt>
      <trkpt lat="45.81488" lon="1.87823">
        <ele>727.7</ele>
        <time>2026-07-08T07:50:24.000Z</time>
      </trkpt>
      <trkpt lat="45.81487" lon="1.87821">
        <ele>727.7</ele>
        <time>2026-07-08T07:50:25.000Z</time>
      </trkpt>
      <trkpt lat="45.81487" lon="1.8782">
        <ele>727.9</ele>
        <time>2026-07-08T07:50:26.000Z</time>
      </trkpt>
      <trkpt lat="45.81486" lon="1.87819">
        <ele>727.6</ele>
        <time>2026-07-08T07:50:27.000Z</time>
      </trkpt>
      <trkpt lat="45.81485" lon="1.87817">
        <ele>727.4</ele>
        <time>2026-07-08T07:50:28.000Z</time>
      </trkpt>
      <trkpt lat="45.81484" lon="1.87815">
        <ele>728</ele>
        <time>2026-07-08T07:50:29.000Z</time>
      </trkpt>
      <trkpt lat="45.81483" lon="1.87812">
        <ele>727.9</ele>
        <time>2026-07-08T07:50:30.000Z</time>
      </trkpt>
      <trkpt lat="45.81481" lon="1.8781">
        <ele>728.6</ele>
        <time>2026-07-08T07:50:31.000Z</time>
      </trkpt>
      <trkpt lat="45.8148" lon="1.87808">
        <ele>728.7</ele>
        <time>2026-07-08T07:50:32.000Z</time>
      </trkpt>
      <trkpt lat="45.81479" lon="1.87805">
        <ele>728.8</ele>
        <time>2026-07-08T07:50:33.000Z</time>
      </trkpt>
      <trkpt lat="45.81478" lon="1.87803">
        <ele>729.1</ele>
        <time>2026-07-08T07:50:34.000Z</time>
      </trkpt>
      <trkpt lat="45.81477" lon="1.878">
        <ele>729.1</ele>
        <time>2026-07-08T07:50:35.000Z</time>
      </trkpt>
      <trkpt lat="45.81477" lon="1.87798">
        <ele>729.3</ele>
        <time>2026-07-08T07:50:36.000Z</time>
      </trkpt>
      <trkpt lat="45.81475" lon="1.87796">
        <ele>729.6</ele>
        <time>2026-07-08T07:50:37.000Z</time>
      </trkpt>
      <trkpt lat="45.81474" lon="1.87794">
        <ele>729.9</ele>
        <time>2026-07-08T07:50:38.000Z</time>
      </trkpt>
      <trkpt lat="45.81473" lon="1.87792">
        <ele>730.2</ele>
        <time>2026-07-08T07:50:39.000Z</time>
      </trkpt>
      <trkpt lat="45.81472" lon="1.87791">
        <ele>730.2</ele>
        <time>2026-07-08T07:50:40.000Z</time>
      </trkpt>
      <trkpt lat="45.81471" lon="1.87789">
        <ele>729.9</ele>
        <time>2026-07-08T07:50:41.000Z</time>
      </trkpt>
      <trkpt lat="45.81471" lon="1.87787">
        <ele>729.6</ele>
        <time>2026-07-08T07:50:42.000Z</time>
      </trkpt>
      <trkpt lat="45.8147" lon="1.87784">
        <ele>729.2</ele>
        <time>2026-07-08T07:50:43.000Z</time>
      </trkpt>
      <trkpt lat="45.81469" lon="1.87782">
        <ele>729.2</ele>
        <time>2026-07-08T07:50:44.000Z</time>
      </trkpt>
      <trkpt lat="45.81467" lon="1.87779">
        <ele>728.7</ele>
        <time>2026-07-08T07:50:45.000Z</time>
      </trkpt>
      <trkpt lat="45.81467" lon="1.87776">
        <ele>728.5</ele>
        <time>2026-07-08T07:50:46.000Z</time>
      </trkpt>
      <trkpt lat="45.81466" lon="1.87773">
        <ele>728.2</ele>
        <time>2026-07-08T07:50:47.000Z</time>
      </trkpt>
      <trkpt lat="45.81464" lon="1.87771">
        <ele>727.8</ele>
        <time>2026-07-08T07:50:48.000Z</time>
      </trkpt>
      <trkpt lat="45.81464" lon="1.87768">
        <ele>728</ele>
        <time>2026-07-08T07:50:49.000Z</time>
      </trkpt>
      <trkpt lat="45.81463" lon="1.87766">
        <ele>727.8</ele>
        <time>2026-07-08T07:50:50.000Z</time>
      </trkpt>
      <trkpt lat="45.81463" lon="1.87763">
        <ele>727.4</ele>
        <time>2026-07-08T07:50:51.000Z</time>
      </trkpt>
      <trkpt lat="45.81463" lon="1.87761">
        <ele>727.1</ele>
        <time>2026-07-08T07:50:52.000Z</time>
      </trkpt>
      <trkpt lat="45.81462" lon="1.87758">
        <ele>726.4</ele>
        <time>2026-07-08T07:50:53.000Z</time>
      </trkpt>
      <trkpt lat="45.81462" lon="1.87756">
        <ele>727</ele>
        <time>2026-07-08T07:50:54.000Z</time>
      </trkpt>
      <trkpt lat="45.81461" lon="1.87753">
        <ele>727.6</ele>
        <time>2026-07-08T07:50:55.000Z</time>
      </trkpt>
      <trkpt lat="45.81459" lon="1.87751">
        <ele>727.9</ele>
        <time>2026-07-08T07:50:56.000Z</time>
      </trkpt>
      <trkpt lat="45.81459" lon="1.87749">
        <ele>727.9</ele>
        <time>2026-07-08T07:50:57.000Z</time>
      </trkpt>
      <trkpt lat="45.81458" lon="1.87747">
        <ele>728</ele>
        <time>2026-07-08T07:50:58.000Z</time>
      </trkpt>
      <trkpt lat="45.81457" lon="1.87744">
        <ele>728.4</ele>
        <time>2026-07-08T07:50:59.000Z</time>
      </trkpt>
      <trkpt lat="45.81456" lon="1.87742">
        <ele>728.6</ele>
        <time>2026-07-08T07:51:00.000Z</time>
      </trkpt>
      <trkpt lat="45.81455" lon="1.87739">
        <ele>728.7</ele>
        <time>2026-07-08T07:51:01.000Z</time>
      </trkpt>
      <trkpt lat="45.81454" lon="1.87737">
        <ele>728.5</ele>
        <time>2026-07-08T07:51:02.000Z</time>
      </trkpt>
      <trkpt lat="45.81453" lon="1.87735">
        <ele>727.8</ele>
        <time>2026-07-08T07:51:03.000Z</time>
      </trkpt>
      <trkpt lat="45.81452" lon="1.87733">
        <ele>729.8</ele>
        <time>2026-07-08T07:51:04.000Z</time>
      </trkpt>
      <trkpt lat="45.81451" lon="1.87732">
        <ele>730</ele>
        <time>2026-07-08T07:51:05.000Z</time>
      </trkpt>
      <trkpt lat="45.8145" lon="1.8773">
        <ele>729.4</ele>
        <time>2026-07-08T07:51:06.000Z</time>
      </trkpt>
      <trkpt lat="45.81449" lon="1.87728">
        <ele>729.2</ele>
        <time>2026-07-08T07:51:07.000Z</time>
      </trkpt>
      <trkpt lat="45.81448" lon="1.87726">
        <ele>729.6</ele>
        <time>2026-07-08T07:51:08.000Z</time>
      </trkpt>
      <trkpt lat="45.81449" lon="1.87722">
        <ele>728.4</ele>
        <time>2026-07-08T07:51:09.000Z</time>
      </trkpt>
      <trkpt lat="45.8145" lon="1.87719">
        <ele>726.7</ele>
        <time>2026-07-08T07:51:10.000Z</time>
      </trkpt>
      <trkpt lat="45.8145" lon="1.87718">
        <ele>726.6</ele>
        <time>2026-07-08T07:51:11.000Z</time>
      </trkpt>
      <trkpt lat="45.81451" lon="1.87716">
        <ele>726.7</ele>
        <time>2026-07-08T07:51:12.000Z</time>
      </trkpt>
      <trkpt lat="45.81449" lon="1.87713">
        <ele>725.6</ele>
        <time>2026-07-08T07:51:13.000Z</time>
      </trkpt>
      <trkpt lat="45.81448" lon="1.87711">
        <ele>725.3</ele>
        <time>2026-07-08T07:51:14.000Z</time>
      </trkpt>
      <trkpt lat="45.81436" lon="1.87711">
        <ele>734.2</ele>
        <time>2026-07-08T07:51:15.000Z</time>
      </trkpt>
      <trkpt lat="45.81436" lon="1.87708">
        <ele>734</ele>
        <time>2026-07-08T07:51:16.000Z</time>
      </trkpt>
      <trkpt lat="45.81437" lon="1.87709">
        <ele>735.5</ele>
        <time>2026-07-08T07:51:17.000Z</time>
      </trkpt>
      <trkpt lat="45.81436" lon="1.87708">
        <ele>735.3</ele>
        <time>2026-07-08T07:51:18.000Z</time>
      </trkpt>
      <trkpt lat="45.81434" lon="1.87706">
        <ele>735.7</ele>
        <time>2026-07-08T07:51:19.000Z</time>
      </trkpt>
      <trkpt lat="45.81433" lon="1.87705">
        <ele>734.9</ele>
        <time>2026-07-08T07:51:20.000Z</time>
      </trkpt>
      <trkpt lat="45.81431" lon="1.877">
        <ele>737</ele>
        <time>2026-07-08T07:51:21.000Z</time>
      </trkpt>
      <trkpt lat="45.81431" lon="1.87697">
        <ele>735.1</ele>
        <time>2026-07-08T07:51:22.000Z</time>
      </trkpt>
      <trkpt lat="45.81429" lon="1.87696">
        <ele>736.4</ele>
        <time>2026-07-08T07:51:23.000Z</time>
      </trkpt>
      <trkpt lat="45.81428" lon="1.87696">
        <ele>736</ele>
        <time>2026-07-08T07:51:24.000Z</time>
      </trkpt>
      <trkpt lat="45.81426" lon="1.87695">
        <ele>737.2</ele>
        <time>2026-07-08T07:51:25.000Z</time>
      </trkpt>
      <trkpt lat="45.81425" lon="1.87695">
        <ele>737.7</ele>
        <time>2026-07-08T07:51:26.000Z</time>
      </trkpt>
      <trkpt lat="45.81423" lon="1.87694">
        <ele>736.7</ele>
        <time>2026-07-08T07:51:27.000Z</time>
      </trkpt>
      <trkpt lat="45.81422" lon="1.87692">
        <ele>738.2</ele>
        <time>2026-07-08T07:51:28.000Z</time>
      </trkpt>
      <trkpt lat="45.8142" lon="1.87692">
        <ele>738.5</ele>
        <time>2026-07-08T07:51:29.000Z</time>
      </trkpt>
      <trkpt lat="45.81419" lon="1.87691">
        <ele>737.5</ele>
        <time>2026-07-08T07:51:30.000Z</time>
      </trkpt>
      <trkpt lat="45.81417" lon="1.8769">
        <ele>737.9</ele>
        <time>2026-07-08T07:51:31.000Z</time>
      </trkpt>
      <trkpt lat="45.81416" lon="1.87688">
        <ele>736.5</ele>
        <time>2026-07-08T07:51:32.000Z</time>
      </trkpt>
      <trkpt lat="45.81416" lon="1.87686">
        <ele>735.7</ele>
        <time>2026-07-08T07:51:33.000Z</time>
      </trkpt>
      <trkpt lat="45.81415" lon="1.87685">
        <ele>735.5</ele>
        <time>2026-07-08T07:51:34.000Z</time>
      </trkpt>
      <trkpt lat="45.81414" lon="1.87682">
        <ele>733.3</ele>
        <time>2026-07-08T07:51:35.000Z</time>
      </trkpt>
      <trkpt lat="45.81414" lon="1.8768">
        <ele>732.1</ele>
        <time>2026-07-08T07:51:36.000Z</time>
      </trkpt>
      <trkpt lat="45.81413" lon="1.87678">
        <ele>730.5</ele>
        <time>2026-07-08T07:51:37.000Z</time>
      </trkpt>
      <trkpt lat="45.81412" lon="1.87676">
        <ele>730.3</ele>
        <time>2026-07-08T07:51:38.000Z</time>
      </trkpt>
      <trkpt lat="45.81411" lon="1.87675">
        <ele>730</ele>
        <time>2026-07-08T07:51:39.000Z</time>
      </trkpt>
      <trkpt lat="45.81409" lon="1.87674">
        <ele>729.5</ele>
        <time>2026-07-08T07:51:40.000Z</time>
      </trkpt>
      <trkpt lat="45.81408" lon="1.87673">
        <ele>729.2</ele>
        <time>2026-07-08T07:51:41.000Z</time>
      </trkpt>
      <trkpt lat="45.81407" lon="1.87672">
        <ele>729.1</ele>
        <time>2026-07-08T07:51:42.000Z</time>
      </trkpt>
      <trkpt lat="45.81405" lon="1.87671">
        <ele>728.7</ele>
        <time>2026-07-08T07:51:43.000Z</time>
      </trkpt>
      <trkpt lat="45.81404" lon="1.8767">
        <ele>728.1</ele>
        <time>2026-07-08T07:51:44.000Z</time>
      </trkpt>
      <trkpt lat="45.81402" lon="1.87668">
        <ele>726.5</ele>
        <time>2026-07-08T07:51:45.000Z</time>
      </trkpt>
      <trkpt lat="45.81401" lon="1.87666">
        <ele>726.1</ele>
        <time>2026-07-08T07:51:46.000Z</time>
      </trkpt>
      <trkpt lat="45.814" lon="1.87663">
        <ele>725.5</ele>
        <time>2026-07-08T07:51:47.000Z</time>
      </trkpt>
      <trkpt lat="45.81399" lon="1.87659">
        <ele>725.3</ele>
        <time>2026-07-08T07:51:48.000Z</time>
      </trkpt>
      <trkpt lat="45.81398" lon="1.87656">
        <ele>724.7</ele>
        <time>2026-07-08T07:51:49.000Z</time>
      </trkpt>
      <trkpt lat="45.81397" lon="1.87655">
        <ele>723.9</ele>
        <time>2026-07-08T07:51:50.000Z</time>
      </trkpt>
      <trkpt lat="45.81395" lon="1.87654">
        <ele>723.7</ele>
        <time>2026-07-08T07:51:51.000Z</time>
      </trkpt>
      <trkpt lat="45.81394" lon="1.87652">
        <ele>723.7</ele>
        <time>2026-07-08T07:51:52.000Z</time>
      </trkpt>
      <trkpt lat="45.81394" lon="1.87652">
        <ele>723.4</ele>
        <time>2026-07-08T07:51:53.000Z</time>
      </trkpt>
      <trkpt lat="45.81394" lon="1.87651">
        <ele>723.4</ele>
        <time>2026-07-08T07:51:54.000Z</time>
      </trkpt>
      <trkpt lat="45.81393" lon="1.87651">
        <ele>723.1</ele>
        <time>2026-07-08T07:51:55.000Z</time>
      </trkpt>
      <trkpt lat="45.81393" lon="1.87652">
        <ele>722.7</ele>
        <time>2026-07-08T07:51:56.000Z</time>
      </trkpt>
      <trkpt lat="45.81391" lon="1.87651">
        <ele>722.1</ele>
        <time>2026-07-08T07:51:57.000Z</time>
      </trkpt>
      <trkpt lat="45.81388" lon="1.87651">
        <ele>722.6</ele>
        <time>2026-07-08T07:51:58.000Z</time>
      </trkpt>
      <trkpt lat="45.81386" lon="1.8765">
        <ele>724.2</ele>
        <time>2026-07-08T07:51:59.000Z</time>
      </trkpt>
      <trkpt lat="45.81384" lon="1.87649">
        <ele>725.7</ele>
        <time>2026-07-08T07:52:00.000Z</time>
      </trkpt>
      <trkpt lat="45.81382" lon="1.87648">
        <ele>726.6</ele>
        <time>2026-07-08T07:52:01.000Z</time>
      </trkpt>
      <trkpt lat="45.81381" lon="1.87647">
        <ele>727.8</ele>
        <time>2026-07-08T07:52:02.000Z</time>
      </trkpt>
      <trkpt lat="45.81379" lon="1.87645">
        <ele>727.2</ele>
        <time>2026-07-08T07:52:03.000Z</time>
      </trkpt>
      <trkpt lat="45.81377" lon="1.87644">
        <ele>727.5</ele>
        <time>2026-07-08T07:52:04.000Z</time>
      </trkpt>
      <trkpt lat="45.81376" lon="1.87643">
        <ele>727.3</ele>
        <time>2026-07-08T07:52:05.000Z</time>
      </trkpt>
      <trkpt lat="45.81376" lon="1.87643">
        <ele>726.7</ele>
        <time>2026-07-08T07:52:06.000Z</time>
      </trkpt>
      <trkpt lat="45.81375" lon="1.87643">
        <ele>726.9</ele>
        <time>2026-07-08T07:52:07.000Z</time>
      </trkpt>
      <trkpt lat="45.81375" lon="1.87643">
        <ele>727</ele>
        <time>2026-07-08T07:52:08.000Z</time>
      </trkpt>
      <trkpt lat="45.81375" lon="1.87644">
        <ele>727</ele>
        <time>2026-07-08T07:52:09.000Z</time>
      </trkpt>
      <trkpt lat="45.81376" lon="1.87643">
        <ele>727.3</ele>
        <time>2026-07-08T07:52:10.000Z</time>
      </trkpt>
      <trkpt lat="45.81377" lon="1.87643">
        <ele>727.3</ele>
        <time>2026-07-08T07:52:11.000Z</time>
      </trkpt>
      <trkpt lat="45.81377" lon="1.87643">
        <ele>727.3</ele>
        <time>2026-07-08T07:52:12.000Z</time>
      </trkpt>
      <trkpt lat="45.81377" lon="1.87643">
        <ele>727.3</ele>
        <time>2026-07-08T07:52:13.000Z</time>
      </trkpt>
      <trkpt lat="45.81377" lon="1.87643">
        <ele>727.1</ele>
        <time>2026-07-08T07:52:14.000Z</time>
      </trkpt>
      <trkpt lat="45.81377" lon="1.87642">
        <ele>725.7</ele>
        <time>2026-07-08T07:52:15.000Z</time>
      </trkpt>
      <trkpt lat="45.81377" lon="1.87642">
        <ele>726</ele>
        <time>2026-07-08T07:52:16.000Z</time>
      </trkpt>
      <trkpt lat="45.81378" lon="1.8764">
        <ele>726.6</ele>
        <time>2026-07-08T07:52:17.000Z</time>
      </trkpt>
      <trkpt lat="45.81378" lon="1.87639">
        <ele>726.6</ele>
        <time>2026-07-08T07:52:18.000Z</time>
      </trkpt>
      <trkpt lat="45.81379" lon="1.87637">
        <ele>727.4</ele>
        <time>2026-07-08T07:52:19.000Z</time>
      </trkpt>
      <trkpt lat="45.8138" lon="1.87635">
        <ele>727.9</ele>
        <time>2026-07-08T07:52:20.000Z</time>
      </trkpt>
      <trkpt lat="45.8138" lon="1.87633">
        <ele>727.9</ele>
        <time>2026-07-08T07:52:21.000Z</time>
      </trkpt>
      <trkpt lat="45.8138" lon="1.87631">
        <ele>728.5</ele>
        <time>2026-07-08T07:52:22.000Z</time>
      </trkpt>
      <trkpt lat="45.8138" lon="1.87629">
        <ele>728.4</ele>
        <time>2026-07-08T07:52:23.000Z</time>
      </trkpt>
      <trkpt lat="45.81381" lon="1.87626">
        <ele>727.8</ele>
        <time>2026-07-08T07:52:24.000Z</time>
      </trkpt>
      <trkpt lat="45.81381" lon="1.87624">
        <ele>727.9</ele>
        <time>2026-07-08T07:52:25.000Z</time>
      </trkpt>
      <trkpt lat="45.81382" lon="1.87622">
        <ele>728.2</ele>
        <time>2026-07-08T07:52:26.000Z</time>
      </trkpt>
      <trkpt lat="45.81382" lon="1.8762">
        <ele>728.3</ele>
        <time>2026-07-08T07:52:27.000Z</time>
      </trkpt>
      <trkpt lat="45.81382" lon="1.87618">
        <ele>728.3</ele>
        <time>2026-07-08T07:52:28.000Z</time>
      </trkpt>
      <trkpt lat="45.81383" lon="1.87615">
        <ele>728.3</ele>
        <time>2026-07-08T07:52:29.000Z</time>
      </trkpt>
      <trkpt lat="45.81383" lon="1.87613">
        <ele>728.6</ele>
        <time>2026-07-08T07:52:30.000Z</time>
      </trkpt>
      <trkpt lat="45.81384" lon="1.87611">
        <ele>728.2</ele>
        <time>2026-07-08T07:52:31.000Z</time>
      </trkpt>
      <trkpt lat="45.81384" lon="1.87609">
        <ele>728.2</ele>
        <time>2026-07-08T07:52:32.000Z</time>
      </trkpt>
      <trkpt lat="45.81385" lon="1.87606">
        <ele>727.9</ele>
        <time>2026-07-08T07:52:33.000Z</time>
      </trkpt>
      <trkpt lat="45.81385" lon="1.87604">
        <ele>728.2</ele>
        <time>2026-07-08T07:52:34.000Z</time>
      </trkpt>
      <trkpt lat="45.81385" lon="1.87602">
        <ele>728</ele>
        <time>2026-07-08T07:52:35.000Z</time>
      </trkpt>
      <trkpt lat="45.81385" lon="1.876">
        <ele>727.9</ele>
        <time>2026-07-08T07:52:36.000Z</time>
      </trkpt>
      <trkpt lat="45.81386" lon="1.87597">
        <ele>728.5</ele>
        <time>2026-07-08T07:52:37.000Z</time>
      </trkpt>
      <trkpt lat="45.81386" lon="1.87595">
        <ele>728.5</ele>
        <time>2026-07-08T07:52:38.000Z</time>
      </trkpt>
      <trkpt lat="45.81386" lon="1.87592">
        <ele>728.5</ele>
        <time>2026-07-08T07:52:39.000Z</time>
      </trkpt>
      <trkpt lat="45.81386" lon="1.8759">
        <ele>728.3</ele>
        <time>2026-07-08T07:52:40.000Z</time>
      </trkpt>
      <trkpt lat="45.81386" lon="1.87587">
        <ele>728.1</ele>
        <time>2026-07-08T07:52:41.000Z</time>
      </trkpt>
      <trkpt lat="45.81387" lon="1.87585">
        <ele>728.1</ele>
        <time>2026-07-08T07:52:42.000Z</time>
      </trkpt>
      <trkpt lat="45.81387" lon="1.87583">
        <ele>727.8</ele>
        <time>2026-07-08T07:52:43.000Z</time>
      </trkpt>
      <trkpt lat="45.81384" lon="1.87581">
        <ele>727.8</ele>
        <time>2026-07-08T07:52:44.000Z</time>
      </trkpt>
      <trkpt lat="45.81383" lon="1.8758">
        <ele>727.9</ele>
        <time>2026-07-08T07:52:45.000Z</time>
      </trkpt>
      <trkpt lat="45.81383" lon="1.87577">
        <ele>726.9</ele>
        <time>2026-07-08T07:52:46.000Z</time>
      </trkpt>
      <trkpt lat="45.81384" lon="1.87575">
        <ele>726.1</ele>
        <time>2026-07-08T07:52:47.000Z</time>
      </trkpt>
      <trkpt lat="45.81385" lon="1.87572">
        <ele>725.9</ele>
        <time>2026-07-08T07:52:48.000Z</time>
      </trkpt>
      <trkpt lat="45.81385" lon="1.87569">
        <ele>726.1</ele>
        <time>2026-07-08T07:52:49.000Z</time>
      </trkpt>
      <trkpt lat="45.81386" lon="1.87567">
        <ele>727.8</ele>
        <time>2026-07-08T07:52:50.000Z</time>
      </trkpt>
      <trkpt lat="45.81386" lon="1.87565">
        <ele>728.2</ele>
        <time>2026-07-08T07:52:51.000Z</time>
      </trkpt>
      <trkpt lat="45.81387" lon="1.87562">
        <ele>727.5</ele>
        <time>2026-07-08T07:52:52.000Z</time>
      </trkpt>
      <trkpt lat="45.81388" lon="1.8756">
        <ele>728.1</ele>
        <time>2026-07-08T07:52:53.000Z</time>
      </trkpt>
      <trkpt lat="45.81389" lon="1.87558">
        <ele>728.6</ele>
        <time>2026-07-08T07:52:54.000Z</time>
      </trkpt>
      <trkpt lat="45.8139" lon="1.87555">
        <ele>729.3</ele>
        <time>2026-07-08T07:52:55.000Z</time>
      </trkpt>
      <trkpt lat="45.81391" lon="1.87552">
        <ele>728.9</ele>
        <time>2026-07-08T07:52:56.000Z</time>
      </trkpt>
      <trkpt lat="45.81391" lon="1.87551">
        <ele>728.6</ele>
        <time>2026-07-08T07:52:57.000Z</time>
      </trkpt>
      <trkpt lat="45.81392" lon="1.87549">
        <ele>729.4</ele>
        <time>2026-07-08T07:52:58.000Z</time>
      </trkpt>
      <trkpt lat="45.81393" lon="1.87547">
        <ele>728.6</ele>
        <time>2026-07-08T07:52:59.000Z</time>
      </trkpt>
      <trkpt lat="45.81393" lon="1.87545">
        <ele>728.3</ele>
        <time>2026-07-08T07:53:00.000Z</time>
      </trkpt>
      <trkpt lat="45.81393" lon="1.87543">
        <ele>727.9</ele>
        <time>2026-07-08T07:53:01.000Z</time>
      </trkpt>
      <trkpt lat="45.81393" lon="1.87541">
        <ele>727.7</ele>
        <time>2026-07-08T07:53:02.000Z</time>
      </trkpt>
      <trkpt lat="45.81394" lon="1.87538">
        <ele>727.6</ele>
        <time>2026-07-08T07:53:03.000Z</time>
      </trkpt>
      <trkpt lat="45.81394" lon="1.87537">
        <ele>728</ele>
        <time>2026-07-08T07:53:04.000Z</time>
      </trkpt>
      <trkpt lat="45.81395" lon="1.87535">
        <ele>728.5</ele>
        <time>2026-07-08T07:53:05.000Z</time>
      </trkpt>
      <trkpt lat="45.81396" lon="1.87533">
        <ele>729.6</ele>
        <time>2026-07-08T07:53:06.000Z</time>
      </trkpt>
      <trkpt lat="45.81397" lon="1.87531">
        <ele>729.7</ele>
        <time>2026-07-08T07:53:07.000Z</time>
      </trkpt>
      <trkpt lat="45.81397" lon="1.87529">
        <ele>729.5</ele>
        <time>2026-07-08T07:53:08.000Z</time>
      </trkpt>
      <trkpt lat="45.81398" lon="1.87528">
        <ele>729.1</ele>
        <time>2026-07-08T07:53:09.000Z</time>
      </trkpt>
      <trkpt lat="45.81399" lon="1.87526">
        <ele>728.6</ele>
        <time>2026-07-08T07:53:10.000Z</time>
      </trkpt>
      <trkpt lat="45.814" lon="1.87524">
        <ele>728.1</ele>
        <time>2026-07-08T07:53:11.000Z</time>
      </trkpt>
      <trkpt lat="45.81401" lon="1.87523">
        <ele>727.8</ele>
        <time>2026-07-08T07:53:12.000Z</time>
      </trkpt>
      <trkpt lat="45.81402" lon="1.87521">
        <ele>727.1</ele>
        <time>2026-07-08T07:53:13.000Z</time>
      </trkpt>
      <trkpt lat="45.81403" lon="1.8752">
        <ele>726.7</ele>
        <time>2026-07-08T07:53:14.000Z</time>
      </trkpt>
      <trkpt lat="45.81404" lon="1.87518">
        <ele>726.3</ele>
        <time>2026-07-08T07:53:15.000Z</time>
      </trkpt>
      <trkpt lat="45.81406" lon="1.87517">
        <ele>726.5</ele>
        <time>2026-07-08T07:53:16.000Z</time>
      </trkpt>
      <trkpt lat="45.81407" lon="1.87516">
        <ele>725.9</ele>
        <time>2026-07-08T07:53:17.000Z</time>
      </trkpt>
      <trkpt lat="45.81408" lon="1.87515">
        <ele>725.9</ele>
        <time>2026-07-08T07:53:18.000Z</time>
      </trkpt>
      <trkpt lat="45.8141" lon="1.87513">
        <ele>725.6</ele>
        <time>2026-07-08T07:53:19.000Z</time>
      </trkpt>
      <trkpt lat="45.81411" lon="1.87511">
        <ele>726</ele>
        <time>2026-07-08T07:53:20.000Z</time>
      </trkpt>
      <trkpt lat="45.81412" lon="1.8751">
        <ele>727.1</ele>
        <time>2026-07-08T07:53:21.000Z</time>
      </trkpt>
      <trkpt lat="45.81413" lon="1.87507">
        <ele>728.2</ele>
        <time>2026-07-08T07:53:22.000Z</time>
      </trkpt>
      <trkpt lat="45.81413" lon="1.87505">
        <ele>728.1</ele>
        <time>2026-07-08T07:53:23.000Z</time>
      </trkpt>
      <trkpt lat="45.81414" lon="1.87502">
        <ele>728.8</ele>
        <time>2026-07-08T07:53:24.000Z</time>
      </trkpt>
      <trkpt lat="45.81415" lon="1.875">
        <ele>728.7</ele>
        <time>2026-07-08T07:53:25.000Z</time>
      </trkpt>
      <trkpt lat="45.81416" lon="1.87497">
        <ele>728.6</ele>
        <time>2026-07-08T07:53:26.000Z</time>
      </trkpt>
      <trkpt lat="45.81417" lon="1.87494">
        <ele>728.9</ele>
        <time>2026-07-08T07:53:27.000Z</time>
      </trkpt>
      <trkpt lat="45.81419" lon="1.87492">
        <ele>729.4</ele>
        <time>2026-07-08T07:53:28.000Z</time>
      </trkpt>
      <trkpt lat="45.8142" lon="1.8749">
        <ele>729.4</ele>
        <time>2026-07-08T07:53:29.000Z</time>
      </trkpt>
      <trkpt lat="45.81421" lon="1.87488">
        <ele>729.2</ele>
        <time>2026-07-08T07:53:30.000Z</time>
      </trkpt>
      <trkpt lat="45.81422" lon="1.87485">
        <ele>729.6</ele>
        <time>2026-07-08T07:53:31.000Z</time>
      </trkpt>
      <trkpt lat="45.81423" lon="1.87483">
        <ele>729.1</ele>
        <time>2026-07-08T07:53:32.000Z</time>
      </trkpt>
      <trkpt lat="45.81425" lon="1.87481">
        <ele>727.6</ele>
        <time>2026-07-08T07:53:33.000Z</time>
      </trkpt>
      <trkpt lat="45.81426" lon="1.87479">
        <ele>727.9</ele>
        <time>2026-07-08T07:53:34.000Z</time>
      </trkpt>
      <trkpt lat="45.81428" lon="1.87477">
        <ele>727.9</ele>
        <time>2026-07-08T07:53:35.000Z</time>
      </trkpt>
      <trkpt lat="45.8143" lon="1.87475">
        <ele>728.4</ele>
        <time>2026-07-08T07:53:36.000Z</time>
      </trkpt>
      <trkpt lat="45.81432" lon="1.87473">
        <ele>729</ele>
        <time>2026-07-08T07:53:37.000Z</time>
      </trkpt>
      <trkpt lat="45.81434" lon="1.87471">
        <ele>729.2</ele>
        <time>2026-07-08T07:53:38.000Z</time>
      </trkpt>
      <trkpt lat="45.81435" lon="1.87469">
        <ele>729.4</ele>
        <time>2026-07-08T07:53:39.000Z</time>
      </trkpt>
      <trkpt lat="45.81436" lon="1.87468">
        <ele>728.6</ele>
        <time>2026-07-08T07:53:40.000Z</time>
      </trkpt>
      <trkpt lat="45.81438" lon="1.87466">
        <ele>729.4</ele>
        <time>2026-07-08T07:53:41.000Z</time>
      </trkpt>
      <trkpt lat="45.8144" lon="1.87464">
        <ele>729.9</ele>
        <time>2026-07-08T07:53:42.000Z</time>
      </trkpt>
      <trkpt lat="45.81441" lon="1.87462">
        <ele>730.2</ele>
        <time>2026-07-08T07:53:43.000Z</time>
      </trkpt>
      <trkpt lat="45.81442" lon="1.8746">
        <ele>729.7</ele>
        <time>2026-07-08T07:53:44.000Z</time>
      </trkpt>
      <trkpt lat="45.81443" lon="1.87458">
        <ele>730.4</ele>
        <time>2026-07-08T07:53:45.000Z</time>
      </trkpt>
      <trkpt lat="45.81444" lon="1.87456">
        <ele>731</ele>
        <time>2026-07-08T07:53:46.000Z</time>
      </trkpt>
      <trkpt lat="45.81445" lon="1.87454">
        <ele>731.5</ele>
        <time>2026-07-08T07:53:47.000Z</time>
      </trkpt>
      <trkpt lat="45.81446" lon="1.87452">
        <ele>731.9</ele>
        <time>2026-07-08T07:53:48.000Z</time>
      </trkpt>
      <trkpt lat="45.81447" lon="1.8745">
        <ele>732.4</ele>
        <time>2026-07-08T07:53:49.000Z</time>
      </trkpt>
      <trkpt lat="45.81448" lon="1.87448">
        <ele>732.8</ele>
        <time>2026-07-08T07:53:50.000Z</time>
      </trkpt>
      <trkpt lat="45.81449" lon="1.87447">
        <ele>733</ele>
        <time>2026-07-08T07:53:51.000Z</time>
      </trkpt>
      <trkpt lat="45.8145" lon="1.87445">
        <ele>733.5</ele>
        <time>2026-07-08T07:53:52.000Z</time>
      </trkpt>
      <trkpt lat="45.81452" lon="1.87444">
        <ele>732.9</ele>
        <time>2026-07-08T07:53:53.000Z</time>
      </trkpt>
      <trkpt lat="45.81453" lon="1.87443">
        <ele>732.4</ele>
        <time>2026-07-08T07:53:54.000Z</time>
      </trkpt>
      <trkpt lat="45.81455" lon="1.87442">
        <ele>732.5</ele>
        <time>2026-07-08T07:53:55.000Z</time>
      </trkpt>
      <trkpt lat="45.81456" lon="1.87441">
        <ele>733</ele>
        <time>2026-07-08T07:53:56.000Z</time>
      </trkpt>
      <trkpt lat="45.81456" lon="1.87439">
        <ele>734.2</ele>
        <time>2026-07-08T07:53:57.000Z</time>
      </trkpt>
      <trkpt lat="45.81457" lon="1.87436">
        <ele>734.5</ele>
        <time>2026-07-08T07:53:58.000Z</time>
      </trkpt>
      <trkpt lat="45.81458" lon="1.87435">
        <ele>734.4</ele>
        <time>2026-07-08T07:53:59.000Z</time>
      </trkpt>
      <trkpt lat="45.81459" lon="1.87433">
        <ele>735.2</ele>
        <time>2026-07-08T07:54:00.000Z</time>
      </trkpt>
      <trkpt lat="45.8146" lon="1.87432">
        <ele>733.8</ele>
        <time>2026-07-08T07:54:01.000Z</time>
      </trkpt>
      <trkpt lat="45.8146" lon="1.8743">
        <ele>734.5</ele>
        <time>2026-07-08T07:54:02.000Z</time>
      </trkpt>
      <trkpt lat="45.81461" lon="1.87429">
        <ele>734.1</ele>
        <time>2026-07-08T07:54:03.000Z</time>
      </trkpt>
      <trkpt lat="45.81462" lon="1.87427">
        <ele>733.9</ele>
        <time>2026-07-08T07:54:04.000Z</time>
      </trkpt>
      <trkpt lat="45.81462" lon="1.87425">
        <ele>733.3</ele>
        <time>2026-07-08T07:54:05.000Z</time>
      </trkpt>
      <trkpt lat="45.81464" lon="1.87424">
        <ele>732.2</ele>
        <time>2026-07-08T07:54:06.000Z</time>
      </trkpt>
      <trkpt lat="45.81465" lon="1.87423">
        <ele>731.5</ele>
        <time>2026-07-08T07:54:07.000Z</time>
      </trkpt>
      <trkpt lat="45.81466" lon="1.87422">
        <ele>731.4</ele>
        <time>2026-07-08T07:54:08.000Z</time>
      </trkpt>
      <trkpt lat="45.81468" lon="1.87421">
        <ele>731.8</ele>
        <time>2026-07-08T07:54:09.000Z</time>
      </trkpt>
      <trkpt lat="45.81469" lon="1.87419">
        <ele>732.2</ele>
        <time>2026-07-08T07:54:10.000Z</time>
      </trkpt>
      <trkpt lat="45.81469" lon="1.87417">
        <ele>732</ele>
        <time>2026-07-08T07:54:11.000Z</time>
      </trkpt>
      <trkpt lat="45.81471" lon="1.87416">
        <ele>732.4</ele>
        <time>2026-07-08T07:54:12.000Z</time>
      </trkpt>
      <trkpt lat="45.81472" lon="1.87415">
        <ele>733.2</ele>
        <time>2026-07-08T07:54:13.000Z</time>
      </trkpt>
      <trkpt lat="45.81472" lon="1.87414">
        <ele>733.3</ele>
        <time>2026-07-08T07:54:14.000Z</time>
      </trkpt>
      <trkpt lat="45.81472" lon="1.87413">
        <ele>733.4</ele>
        <time>2026-07-08T07:54:15.000Z</time>
      </trkpt>
      <trkpt lat="45.81472" lon="1.87413">
        <ele>733.2</ele>
        <time>2026-07-08T07:54:16.000Z</time>
      </trkpt>
      <trkpt lat="45.81472" lon="1.87413">
        <ele>733.2</ele>
        <time>2026-07-08T07:54:17.000Z</time>
      </trkpt>
      <trkpt lat="45.81472" lon="1.87413">
        <ele>733.2</ele>
        <time>2026-07-08T07:54:18.000Z</time>
      </trkpt>
      <trkpt lat="45.81472" lon="1.87413">
        <ele>733.2</ele>
        <time>2026-07-08T07:54:19.000Z</time>
      </trkpt>
      <trkpt lat="45.81472" lon="1.87413">
        <ele>733.4</ele>
        <time>2026-07-08T07:54:20.000Z</time>
      </trkpt>
      <trkpt lat="45.81472" lon="1.87413">
        <ele>733.4</ele>
        <time>2026-07-08T07:54:21.000Z</time>
      </trkpt>
      <trkpt lat="45.81472" lon="1.87413">
        <ele>733.4</ele>
        <time>2026-07-08T07:54:22.000Z</time>
      </trkpt>
      <trkpt lat="45.81472" lon="1.87413">
        <ele>733.4</ele>
        <time>2026-07-08T07:54:23.000Z</time>
      </trkpt>
      <trkpt lat="45.81472" lon="1.87413">
        <ele>733.4</ele>
        <time>2026-07-08T07:54:24.000Z</time>
      </trkpt>
      <trkpt lat="45.81472" lon="1.87413">
        <ele>733.5</ele>
        <time>2026-07-08T07:54:25.000Z</time>
      </trkpt>
      <trkpt lat="45.81472" lon="1.87413">
        <ele>733.5</ele>
        <time>2026-07-08T07:54:26.000Z</time>
      </trkpt>
      <trkpt lat="45.81472" lon="1.87413">
        <ele>733.2</ele>
        <time>2026-07-08T07:54:27.000Z</time>
      </trkpt>
      <trkpt lat="45.81473" lon="1.87412">
        <ele>733.2</ele>
        <time>2026-07-08T07:54:28.000Z</time>
      </trkpt>
      <trkpt lat="45.81473" lon="1.87412">
        <ele>732.9</ele>
        <time>2026-07-08T07:54:29.000Z</time>
      </trkpt>
      <trkpt lat="45.81473" lon="1.87413">
        <ele>733.1</ele>
        <time>2026-07-08T07:54:30.000Z</time>
      </trkpt>
      <trkpt lat="45.81476" lon="1.8741">
        <ele>731.9</ele>
        <time>2026-07-08T07:54:31.000Z</time>
      </trkpt>
      <trkpt lat="45.81477" lon="1.87408">
        <ele>731.3</ele>
        <time>2026-07-08T07:54:32.000Z</time>
      </trkpt>
      <trkpt lat="45.81479" lon="1.87409">
        <ele>732.5</ele>
        <time>2026-07-08T07:54:33.000Z</time>
      </trkpt>
      <trkpt lat="45.8148" lon="1.8741">
        <ele>731.9</ele>
        <time>2026-07-08T07:54:34.000Z</time>
      </trkpt>
      <trkpt lat="45.81481" lon="1.87412">
        <ele>731.8</ele>
        <time>2026-07-08T07:54:35.000Z</time>
      </trkpt>
      <trkpt lat="45.81482" lon="1.87413">
        <ele>731.7</ele>
        <time>2026-07-08T07:54:36.000Z</time>
      </trkpt>
      <trkpt lat="45.81483" lon="1.87414">
        <ele>731.7</ele>
        <time>2026-07-08T07:54:37.000Z</time>
      </trkpt>
      <trkpt lat="45.81484" lon="1.87414">
        <ele>731.5</ele>
        <time>2026-07-08T07:54:38.000Z</time>
      </trkpt>
      <trkpt lat="45.81484" lon="1.87415">
        <ele>731.5</ele>
        <time>2026-07-08T07:54:39.000Z</time>
      </trkpt>
      <trkpt lat="45.81485" lon="1.87416">
        <ele>731.4</ele>
        <time>2026-07-08T07:54:40.000Z</time>
      </trkpt>
      <trkpt lat="45.81486" lon="1.87418">
        <ele>732.4</ele>
        <time>2026-07-08T07:54:41.000Z</time>
      </trkpt>
      <trkpt lat="45.81486" lon="1.87419">
        <ele>733.4</ele>
        <time>2026-07-08T07:54:42.000Z</time>
      </trkpt>
      <trkpt lat="45.81487" lon="1.8742">
        <ele>733.9</ele>
        <time>2026-07-08T07:54:43.000Z</time>
      </trkpt>
      <trkpt lat="45.81489" lon="1.8742">
        <ele>733.8</ele>
        <time>2026-07-08T07:54:44.000Z</time>
      </trkpt>
      <trkpt lat="45.8149" lon="1.8742">
        <ele>733.8</ele>
        <time>2026-07-08T07:54:45.000Z</time>
      </trkpt>
      <trkpt lat="45.81491" lon="1.87419">
        <ele>734.7</ele>
        <time>2026-07-08T07:54:46.000Z</time>
      </trkpt>
      <trkpt lat="45.81492" lon="1.87418">
        <ele>735.2</ele>
        <time>2026-07-08T07:54:47.000Z</time>
      </trkpt>
      <trkpt lat="45.81493" lon="1.87418">
        <ele>737.1</ele>
        <time>2026-07-08T07:54:48.000Z</time>
      </trkpt>
      <trkpt lat="45.81494" lon="1.87417">
        <ele>737.2</ele>
        <time>2026-07-08T07:54:49.000Z</time>
      </trkpt>
      <trkpt lat="45.81495" lon="1.87417">
        <ele>738.3</ele>
        <time>2026-07-08T07:54:50.000Z</time>
      </trkpt>
      <trkpt lat="45.81496" lon="1.87417">
        <ele>738.2</ele>
        <time>2026-07-08T07:54:51.000Z</time>
      </trkpt>
      <trkpt lat="45.81497" lon="1.87417">
        <ele>738.2</ele>
        <time>2026-07-08T07:54:52.000Z</time>
      </trkpt>
      <trkpt lat="45.81498" lon="1.87417">
        <ele>737.8</ele>
        <time>2026-07-08T07:54:53.000Z</time>
      </trkpt>
      <trkpt lat="45.81499" lon="1.87418">
        <ele>737.9</ele>
        <time>2026-07-08T07:54:54.000Z</time>
      </trkpt>
      <trkpt lat="45.81501" lon="1.87418">
        <ele>737.7</ele>
        <time>2026-07-08T07:54:55.000Z</time>
      </trkpt>
      <trkpt lat="45.81502" lon="1.87418">
        <ele>737.5</ele>
        <time>2026-07-08T07:54:56.000Z</time>
      </trkpt>
      <trkpt lat="45.81503" lon="1.87417">
        <ele>737.2</ele>
        <time>2026-07-08T07:54:57.000Z</time>
      </trkpt>
      <trkpt lat="45.81504" lon="1.87417">
        <ele>738.9</ele>
        <time>2026-07-08T07:54:58.000Z</time>
      </trkpt>
      <trkpt lat="45.81505" lon="1.87415">
        <ele>739.7</ele>
        <time>2026-07-08T07:54:59.000Z</time>
      </trkpt>
      <trkpt lat="45.81505" lon="1.87413">
        <ele>739.3</ele>
        <time>2026-07-08T07:55:00.000Z</time>
      </trkpt>
      <trkpt lat="45.81505" lon="1.87411">
        <ele>739.7</ele>
        <time>2026-07-08T07:55:01.000Z</time>
      </trkpt>
      <trkpt lat="45.81506" lon="1.87409">
        <ele>738.9</ele>
        <time>2026-07-08T07:55:02.000Z</time>
      </trkpt>
      <trkpt lat="45.81507" lon="1.87407">
        <ele>739.7</ele>
        <time>2026-07-08T07:55:03.000Z</time>
      </trkpt>
      <trkpt lat="45.81506" lon="1.87404">
        <ele>740.2</ele>
        <time>2026-07-08T07:55:04.000Z</time>
      </trkpt>
      <trkpt lat="45.81506" lon="1.87402">
        <ele>740.4</ele>
        <time>2026-07-08T07:55:05.000Z</time>
      </trkpt>
      <trkpt lat="45.81506" lon="1.87399">
        <ele>740.8</ele>
        <time>2026-07-08T07:55:06.000Z</time>
      </trkpt>
      <trkpt lat="45.81506" lon="1.87397">
        <ele>740.9</ele>
        <time>2026-07-08T07:55:07.000Z</time>
      </trkpt>
      <trkpt lat="45.81507" lon="1.87395">
        <ele>742.7</ele>
        <time>2026-07-08T07:55:08.000Z</time>
      </trkpt>
      <trkpt lat="45.81508" lon="1.87393">
        <ele>743.9</ele>
        <time>2026-07-08T07:55:09.000Z</time>
      </trkpt>
      <trkpt lat="45.8151" lon="1.87392">
        <ele>743.1</ele>
        <time>2026-07-08T07:55:10.000Z</time>
      </trkpt>
      <trkpt lat="45.81511" lon="1.87391">
        <ele>743.9</ele>
        <time>2026-07-08T07:55:11.000Z</time>
      </trkpt>
      <trkpt lat="45.81513" lon="1.8739">
        <ele>744.6</ele>
        <time>2026-07-08T07:55:12.000Z</time>
      </trkpt>
      <trkpt lat="45.81514" lon="1.87389">
        <ele>744.4</ele>
        <time>2026-07-08T07:55:13.000Z</time>
      </trkpt>
      <trkpt lat="45.81515" lon="1.87388">
        <ele>743.2</ele>
        <time>2026-07-08T07:55:14.000Z</time>
      </trkpt>
      <trkpt lat="45.81516" lon="1.87387">
        <ele>743.4</ele>
        <time>2026-07-08T07:55:15.000Z</time>
      </trkpt>
      <trkpt lat="45.81517" lon="1.87385">
        <ele>744.1</ele>
        <time>2026-07-08T07:55:16.000Z</time>
      </trkpt>
      <trkpt lat="45.81518" lon="1.87383">
        <ele>744.3</ele>
        <time>2026-07-08T07:55:17.000Z</time>
      </trkpt>
      <trkpt lat="45.81518" lon="1.87382">
        <ele>744</ele>
        <time>2026-07-08T07:55:18.000Z</time>
      </trkpt>
      <trkpt lat="45.8152" lon="1.8738">
        <ele>743.6</ele>
        <time>2026-07-08T07:55:19.000Z</time>
      </trkpt>
      <trkpt lat="45.81521" lon="1.87379">
        <ele>744.6</ele>
        <time>2026-07-08T07:55:20.000Z</time>
      </trkpt>
      <trkpt lat="45.81522" lon="1.87377">
        <ele>744.5</ele>
        <time>2026-07-08T07:55:21.000Z</time>
      </trkpt>
      <trkpt lat="45.81523" lon="1.87375">
        <ele>744.9</ele>
        <time>2026-07-08T07:55:22.000Z</time>
      </trkpt>
      <trkpt lat="45.81524" lon="1.87374">
        <ele>744.7</ele>
        <time>2026-07-08T07:55:23.000Z</time>
      </trkpt>
      <trkpt lat="45.81525" lon="1.87372">
        <ele>745</ele>
        <time>2026-07-08T07:55:24.000Z</time>
      </trkpt>
      <trkpt lat="45.81526" lon="1.8737">
        <ele>744.9</ele>
        <time>2026-07-08T07:55:25.000Z</time>
      </trkpt>
      <trkpt lat="45.81527" lon="1.87369">
        <ele>744.7</ele>
        <time>2026-07-08T07:55:26.000Z</time>
      </trkpt>
      <trkpt lat="45.81528" lon="1.87367">
        <ele>745</ele>
        <time>2026-07-08T07:55:27.000Z</time>
      </trkpt>
      <trkpt lat="45.81529" lon="1.87366">
        <ele>745.4</ele>
        <time>2026-07-08T07:55:28.000Z</time>
      </trkpt>
      <trkpt lat="45.81531" lon="1.87364">
        <ele>745.5</ele>
        <time>2026-07-08T07:55:29.000Z</time>
      </trkpt>
      <trkpt lat="45.81531" lon="1.87363">
        <ele>746</ele>
        <time>2026-07-08T07:55:30.000Z</time>
      </trkpt>
      <trkpt lat="45.81532" lon="1.87361">
        <ele>745.8</ele>
        <time>2026-07-08T07:55:31.000Z</time>
      </trkpt>
      <trkpt lat="45.81534" lon="1.87359">
        <ele>745.7</ele>
        <time>2026-07-08T07:55:32.000Z</time>
      </trkpt>
      <trkpt lat="45.81535" lon="1.87357">
        <ele>745.5</ele>
        <time>2026-07-08T07:55:33.000Z</time>
      </trkpt>
      <trkpt lat="45.81536" lon="1.87356">
        <ele>745.6</ele>
        <time>2026-07-08T07:55:34.000Z</time>
      </trkpt>
      <trkpt lat="45.81537" lon="1.87354">
        <ele>744.6</ele>
        <time>2026-07-08T07:55:35.000Z</time>
      </trkpt>
      <trkpt lat="45.81538" lon="1.87352">
        <ele>743.7</ele>
        <time>2026-07-08T07:55:36.000Z</time>
      </trkpt>
      <trkpt lat="45.81539" lon="1.87351">
        <ele>743.8</ele>
        <time>2026-07-08T07:55:37.000Z</time>
      </trkpt>
      <trkpt lat="45.8154" lon="1.87349">
        <ele>744</ele>
        <time>2026-07-08T07:55:38.000Z</time>
      </trkpt>
      <trkpt lat="45.8154" lon="1.87348">
        <ele>743.6</ele>
        <time>2026-07-08T07:55:39.000Z</time>
      </trkpt>
      <trkpt lat="45.81541" lon="1.87348">
        <ele>746.6</ele>
        <time>2026-07-08T07:55:40.000Z</time>
      </trkpt>
      <trkpt lat="45.81542" lon="1.87347">
        <ele>747.3</ele>
        <time>2026-07-08T07:55:41.000Z</time>
      </trkpt>
      <trkpt lat="45.81542" lon="1.87346">
        <ele>746.3</ele>
        <time>2026-07-08T07:55:42.000Z</time>
      </trkpt>
      <trkpt lat="45.81548" lon="1.8734">
        <ele>743.5</ele>
        <time>2026-07-08T07:55:43.000Z</time>
      </trkpt>
      <trkpt lat="45.81549" lon="1.87338">
        <ele>743.3</ele>
        <time>2026-07-08T07:55:44.000Z</time>
      </trkpt>
      <trkpt lat="45.8155" lon="1.87336">
        <ele>742.6</ele>
        <time>2026-07-08T07:55:45.000Z</time>
      </trkpt>
      <trkpt lat="45.81552" lon="1.87334">
        <ele>742.5</ele>
        <time>2026-07-08T07:55:46.000Z</time>
      </trkpt>
      <trkpt lat="45.81553" lon="1.87333">
        <ele>742.3</ele>
        <time>2026-07-08T07:55:47.000Z</time>
      </trkpt>
      <trkpt lat="45.81554" lon="1.8733">
        <ele>741.8</ele>
        <time>2026-07-08T07:55:48.000Z</time>
      </trkpt>
      <trkpt lat="45.81555" lon="1.87329">
        <ele>741.6</ele>
        <time>2026-07-08T07:55:49.000Z</time>
      </trkpt>
      <trkpt lat="45.81557" lon="1.87327">
        <ele>741.2</ele>
        <time>2026-07-08T07:55:50.000Z</time>
      </trkpt>
      <trkpt lat="45.81558" lon="1.87325">
        <ele>741.3</ele>
        <time>2026-07-08T07:55:51.000Z</time>
      </trkpt>
      <trkpt lat="45.81559" lon="1.87323">
        <ele>741.3</ele>
        <time>2026-07-08T07:55:52.000Z</time>
      </trkpt>
      <trkpt lat="45.8156" lon="1.87321">
        <ele>741.4</ele>
        <time>2026-07-08T07:55:53.000Z</time>
      </trkpt>
      <trkpt lat="45.81562" lon="1.8732">
        <ele>741.4</ele>
        <time>2026-07-08T07:55:54.000Z</time>
      </trkpt>
      <trkpt lat="45.81563" lon="1.87318">
        <ele>741.5</ele>
        <time>2026-07-08T07:55:55.000Z</time>
      </trkpt>
      <trkpt lat="45.81564" lon="1.87316">
        <ele>741.6</ele>
        <time>2026-07-08T07:55:56.000Z</time>
      </trkpt>
      <trkpt lat="45.81565" lon="1.87315">
        <ele>741.5</ele>
        <time>2026-07-08T07:55:57.000Z</time>
      </trkpt>
      <trkpt lat="45.81566" lon="1.87313">
        <ele>741.6</ele>
        <time>2026-07-08T07:55:58.000Z</time>
      </trkpt>
      <trkpt lat="45.81567" lon="1.87311">
        <ele>741.2</ele>
        <time>2026-07-08T07:55:59.000Z</time>
      </trkpt>
      <trkpt lat="45.81568" lon="1.87309">
        <ele>741.2</ele>
        <time>2026-07-08T07:56:00.000Z</time>
      </trkpt>
      <trkpt lat="45.81569" lon="1.87308">
        <ele>741.1</ele>
        <time>2026-07-08T07:56:01.000Z</time>
      </trkpt>
      <trkpt lat="45.8157" lon="1.87306">
        <ele>741.4</ele>
        <time>2026-07-08T07:56:02.000Z</time>
      </trkpt>
      <trkpt lat="45.81571" lon="1.87305">
        <ele>741.5</ele>
        <time>2026-07-08T07:56:03.000Z</time>
      </trkpt>
      <trkpt lat="45.81572" lon="1.87303">
        <ele>741.3</ele>
        <time>2026-07-08T07:56:04.000Z</time>
      </trkpt>
      <trkpt lat="45.81574" lon="1.87301">
        <ele>740.7</ele>
        <time>2026-07-08T07:56:05.000Z</time>
      </trkpt>
      <trkpt lat="45.81575" lon="1.87299">
        <ele>740.9</ele>
        <time>2026-07-08T07:56:06.000Z</time>
      </trkpt>
      <trkpt lat="45.81576" lon="1.87297">
        <ele>741.3</ele>
        <time>2026-07-08T07:56:07.000Z</time>
      </trkpt>
      <trkpt lat="45.81577" lon="1.87295">
        <ele>741.2</ele>
        <time>2026-07-08T07:56:08.000Z</time>
      </trkpt>
      <trkpt lat="45.81579" lon="1.87294">
        <ele>741.1</ele>
        <time>2026-07-08T07:56:09.000Z</time>
      </trkpt>
      <trkpt lat="45.8158" lon="1.87292">
        <ele>741</ele>
        <time>2026-07-08T07:56:10.000Z</time>
      </trkpt>
      <trkpt lat="45.81582" lon="1.87291">
        <ele>740.9</ele>
        <time>2026-07-08T07:56:11.000Z</time>
      </trkpt>
      <trkpt lat="45.81583" lon="1.8729">
        <ele>741.4</ele>
        <time>2026-07-08T07:56:12.000Z</time>
      </trkpt>
      <trkpt lat="45.81585" lon="1.87288">
        <ele>742.1</ele>
        <time>2026-07-08T07:56:13.000Z</time>
      </trkpt>
      <trkpt lat="45.81587" lon="1.87287">
        <ele>741.7</ele>
        <time>2026-07-08T07:56:14.000Z</time>
      </trkpt>
      <trkpt lat="45.81589" lon="1.87286">
        <ele>742</ele>
        <time>2026-07-08T07:56:15.000Z</time>
      </trkpt>
      <trkpt lat="45.8159" lon="1.87284">
        <ele>742</ele>
        <time>2026-07-08T07:56:16.000Z</time>
      </trkpt>
      <trkpt lat="45.81592" lon="1.87283">
        <ele>742.5</ele>
        <time>2026-07-08T07:56:17.000Z</time>
      </trkpt>
      <trkpt lat="45.81594" lon="1.87282">
        <ele>742.3</ele>
        <time>2026-07-08T07:56:18.000Z</time>
      </trkpt>
      <trkpt lat="45.81595" lon="1.87281">
        <ele>742.5</ele>
        <time>2026-07-08T07:56:19.000Z</time>
      </trkpt>
      <trkpt lat="45.81596" lon="1.8728">
        <ele>742.4</ele>
        <time>2026-07-08T07:56:20.000Z</time>
      </trkpt>
      <trkpt lat="45.81598" lon="1.87279">
        <ele>742.3</ele>
        <time>2026-07-08T07:56:21.000Z</time>
      </trkpt>
      <trkpt lat="45.81599" lon="1.87278">
        <ele>742</ele>
        <time>2026-07-08T07:56:22.000Z</time>
      </trkpt>
      <trkpt lat="45.816" lon="1.87277">
        <ele>741.7</ele>
        <time>2026-07-08T07:56:23.000Z</time>
      </trkpt>
      <trkpt lat="45.81602" lon="1.87276">
        <ele>741.3</ele>
        <time>2026-07-08T07:56:24.000Z</time>
      </trkpt>
      <trkpt lat="45.81603" lon="1.87275">
        <ele>740.2</ele>
        <time>2026-07-08T07:56:25.000Z</time>
      </trkpt>
      <trkpt lat="45.81604" lon="1.87274">
        <ele>739.7</ele>
        <time>2026-07-08T07:56:26.000Z</time>
      </trkpt>
      <trkpt lat="45.81605" lon="1.87274">
        <ele>739.3</ele>
        <time>2026-07-08T07:56:27.000Z</time>
      </trkpt>
      <trkpt lat="45.81608" lon="1.87273">
        <ele>739.2</ele>
        <time>2026-07-08T07:56:28.000Z</time>
      </trkpt>
      <trkpt lat="45.8161" lon="1.87272">
        <ele>739.4</ele>
        <time>2026-07-08T07:56:29.000Z</time>
      </trkpt>
      <trkpt lat="45.81612" lon="1.87271">
        <ele>738.4</ele>
        <time>2026-07-08T07:56:30.000Z</time>
      </trkpt>
      <trkpt lat="45.81614" lon="1.87269">
        <ele>737.8</ele>
        <time>2026-07-08T07:56:31.000Z</time>
      </trkpt>
      <trkpt lat="45.81615" lon="1.87267">
        <ele>736.6</ele>
        <time>2026-07-08T07:56:32.000Z</time>
      </trkpt>
      <trkpt lat="45.81616" lon="1.87266">
        <ele>736.2</ele>
        <time>2026-07-08T07:56:33.000Z</time>
      </trkpt>
      <trkpt lat="45.81618" lon="1.87266">
        <ele>735.4</ele>
        <time>2026-07-08T07:56:34.000Z</time>
      </trkpt>
      <trkpt lat="45.81618" lon="1.87264">
        <ele>732.9</ele>
        <time>2026-07-08T07:56:35.000Z</time>
      </trkpt>
      <trkpt lat="45.81618" lon="1.87263">
        <ele>734.4</ele>
        <time>2026-07-08T07:56:36.000Z</time>
      </trkpt>
      <trkpt lat="45.81619" lon="1.87263">
        <ele>734.3</ele>
        <time>2026-07-08T07:56:37.000Z</time>
      </trkpt>
      <trkpt lat="45.81621" lon="1.87262">
        <ele>734</ele>
        <time>2026-07-08T07:56:38.000Z</time>
      </trkpt>
      <trkpt lat="45.81622" lon="1.87262">
        <ele>734.3</ele>
        <time>2026-07-08T07:56:39.000Z</time>
      </trkpt>
      <trkpt lat="45.81624" lon="1.87261">
        <ele>734.3</ele>
        <time>2026-07-08T07:56:40.000Z</time>
      </trkpt>
      <trkpt lat="45.81626" lon="1.87261">
        <ele>734.1</ele>
        <time>2026-07-08T07:56:41.000Z</time>
      </trkpt>
      <trkpt lat="45.81627" lon="1.87261">
        <ele>733.9</ele>
        <time>2026-07-08T07:56:42.000Z</time>
      </trkpt>
      <trkpt lat="45.81629" lon="1.87259">
        <ele>734</ele>
        <time>2026-07-08T07:56:43.000Z</time>
      </trkpt>
      <trkpt lat="45.8163" lon="1.87258">
        <ele>734.8</ele>
        <time>2026-07-08T07:56:44.000Z</time>
      </trkpt>
      <trkpt lat="45.81631" lon="1.87256">
        <ele>735.8</ele>
        <time>2026-07-08T07:56:45.000Z</time>
      </trkpt>
      <trkpt lat="45.81632" lon="1.87255">
        <ele>736</ele>
        <time>2026-07-08T07:56:46.000Z</time>
      </trkpt>
      <trkpt lat="45.81634" lon="1.87254">
        <ele>735.5</ele>
        <time>2026-07-08T07:56:47.000Z</time>
      </trkpt>
      <trkpt lat="45.81635" lon="1.87253">
        <ele>735.1</ele>
        <time>2026-07-08T07:56:48.000Z</time>
      </trkpt>
      <trkpt lat="45.81637" lon="1.87252">
        <ele>734.3</ele>
        <time>2026-07-08T07:56:49.000Z</time>
      </trkpt>
      <trkpt lat="45.81638" lon="1.87252">
        <ele>735.7</ele>
        <time>2026-07-08T07:56:50.000Z</time>
      </trkpt>
      <trkpt lat="45.81639" lon="1.8725">
        <ele>735.6</ele>
        <time>2026-07-08T07:56:51.000Z</time>
      </trkpt>
      <trkpt lat="45.8164" lon="1.87249">
        <ele>735.7</ele>
        <time>2026-07-08T07:56:52.000Z</time>
      </trkpt>
      <trkpt lat="45.81641" lon="1.87248">
        <ele>734.9</ele>
        <time>2026-07-08T07:56:53.000Z</time>
      </trkpt>
      <trkpt lat="45.81643" lon="1.87247">
        <ele>734.5</ele>
        <time>2026-07-08T07:56:54.000Z</time>
      </trkpt>
      <trkpt lat="45.81644" lon="1.87245">
        <ele>734.3</ele>
        <time>2026-07-08T07:56:55.000Z</time>
      </trkpt>
      <trkpt lat="45.81645" lon="1.87244">
        <ele>733.7</ele>
        <time>2026-07-08T07:56:56.000Z</time>
      </trkpt>
      <trkpt lat="45.81646" lon="1.87243">
        <ele>733.7</ele>
        <time>2026-07-08T07:56:57.000Z</time>
      </trkpt>
      <trkpt lat="45.81648" lon="1.87242">
        <ele>733.1</ele>
        <time>2026-07-08T07:56:58.000Z</time>
      </trkpt>
      <trkpt lat="45.81651" lon="1.87241">
        <ele>732.8</ele>
        <time>2026-07-08T07:56:59.000Z</time>
      </trkpt>
      <trkpt lat="45.81654" lon="1.87239">
        <ele>732.2</ele>
        <time>2026-07-08T07:57:00.000Z</time>
      </trkpt>
      <trkpt lat="45.81657" lon="1.87237">
        <ele>732.4</ele>
        <time>2026-07-08T07:57:01.000Z</time>
      </trkpt>
      <trkpt lat="45.81659" lon="1.87236">
        <ele>732.6</ele>
        <time>2026-07-08T07:57:02.000Z</time>
      </trkpt>
      <trkpt lat="45.81661" lon="1.87235">
        <ele>732.4</ele>
        <time>2026-07-08T07:57:03.000Z</time>
      </trkpt>
      <trkpt lat="45.81663" lon="1.87233">
        <ele>732.3</ele>
        <time>2026-07-08T07:57:04.000Z</time>
      </trkpt>
      <trkpt lat="45.81665" lon="1.87232">
        <ele>733.1</ele>
        <time>2026-07-08T07:57:05.000Z</time>
      </trkpt>
      <trkpt lat="45.81667" lon="1.87231">
        <ele>734.3</ele>
        <time>2026-07-08T07:57:06.000Z</time>
      </trkpt>
      <trkpt lat="45.81668" lon="1.87229">
        <ele>735.4</ele>
        <time>2026-07-08T07:57:07.000Z</time>
      </trkpt>
      <trkpt lat="45.8167" lon="1.87228">
        <ele>736.7</ele>
        <time>2026-07-08T07:57:08.000Z</time>
      </trkpt>
      <trkpt lat="45.81671" lon="1.87226">
        <ele>736.9</ele>
        <time>2026-07-08T07:57:09.000Z</time>
      </trkpt>
      <trkpt lat="45.81673" lon="1.87225">
        <ele>737.2</ele>
        <time>2026-07-08T07:57:10.000Z</time>
      </trkpt>
      <trkpt lat="45.81674" lon="1.87223">
        <ele>737.3</ele>
        <time>2026-07-08T07:57:11.000Z</time>
      </trkpt>
      <trkpt lat="45.81676" lon="1.87221">
        <ele>737.3</ele>
        <time>2026-07-08T07:57:12.000Z</time>
      </trkpt>
      <trkpt lat="45.81678" lon="1.8722">
        <ele>738.3</ele>
        <time>2026-07-08T07:57:13.000Z</time>
      </trkpt>
      <trkpt lat="45.8168" lon="1.87219">
        <ele>738.6</ele>
        <time>2026-07-08T07:57:14.000Z</time>
      </trkpt>
      <trkpt lat="45.81681" lon="1.87217">
        <ele>738.8</ele>
        <time>2026-07-08T07:57:15.000Z</time>
      </trkpt>
      <trkpt lat="45.81682" lon="1.87214">
        <ele>738.3</ele>
        <time>2026-07-08T07:57:16.000Z</time>
      </trkpt>
      <trkpt lat="45.81683" lon="1.87211">
        <ele>737.2</ele>
        <time>2026-07-08T07:57:17.000Z</time>
      </trkpt>
      <trkpt lat="45.81684" lon="1.87209">
        <ele>736.5</ele>
        <time>2026-07-08T07:57:18.000Z</time>
      </trkpt>
      <trkpt lat="45.81685" lon="1.87207">
        <ele>736.8</ele>
        <time>2026-07-08T07:57:19.000Z</time>
      </trkpt>
      <trkpt lat="45.81686" lon="1.87205">
        <ele>737.1</ele>
        <time>2026-07-08T07:57:20.000Z</time>
      </trkpt>
      <trkpt lat="45.81687" lon="1.87204">
        <ele>736.3</ele>
        <time>2026-07-08T07:57:21.000Z</time>
      </trkpt>
      <trkpt lat="45.81688" lon="1.87202">
        <ele>736.2</ele>
        <time>2026-07-08T07:57:22.000Z</time>
      </trkpt>
      <trkpt lat="45.8169" lon="1.87201">
        <ele>736.2</ele>
        <time>2026-07-08T07:57:23.000Z</time>
      </trkpt>
      <trkpt lat="45.81691" lon="1.87199">
        <ele>736</ele>
        <time>2026-07-08T07:57:24.000Z</time>
      </trkpt>
      <trkpt lat="45.81692" lon="1.87197">
        <ele>736.5</ele>
        <time>2026-07-08T07:57:25.000Z</time>
      </trkpt>
      <trkpt lat="45.81693" lon="1.87195">
        <ele>736.6</ele>
        <time>2026-07-08T07:57:26.000Z</time>
      </trkpt>
      <trkpt lat="45.81694" lon="1.87192">
        <ele>736.7</ele>
        <time>2026-07-08T07:57:27.000Z</time>
      </trkpt>
      <trkpt lat="45.81695" lon="1.8719">
        <ele>736.7</ele>
        <time>2026-07-08T07:57:28.000Z</time>
      </trkpt>
      <trkpt lat="45.81696" lon="1.87187">
        <ele>736.3</ele>
        <time>2026-07-08T07:57:29.000Z</time>
      </trkpt>
      <trkpt lat="45.81698" lon="1.87185">
        <ele>736.2</ele>
        <time>2026-07-08T07:57:30.000Z</time>
      </trkpt>
      <trkpt lat="45.81699" lon="1.87183">
        <ele>736.1</ele>
        <time>2026-07-08T07:57:31.000Z</time>
      </trkpt>
      <trkpt lat="45.817" lon="1.87181">
        <ele>736.7</ele>
        <time>2026-07-08T07:57:32.000Z</time>
      </trkpt>
      <trkpt lat="45.81702" lon="1.8718">
        <ele>737.5</ele>
        <time>2026-07-08T07:57:33.000Z</time>
      </trkpt>
      <trkpt lat="45.81703" lon="1.87178">
        <ele>738.2</ele>
        <time>2026-07-08T07:57:34.000Z</time>
      </trkpt>
      <trkpt lat="45.81706" lon="1.87179">
        <ele>738.1</ele>
        <time>2026-07-08T07:57:35.000Z</time>
      </trkpt>
      <trkpt lat="45.81708" lon="1.87178">
        <ele>738</ele>
        <time>2026-07-08T07:57:36.000Z</time>
      </trkpt>
      <trkpt lat="45.81709" lon="1.87177">
        <ele>738.8</ele>
        <time>2026-07-08T07:57:37.000Z</time>
      </trkpt>
      <trkpt lat="45.81711" lon="1.87175">
        <ele>739.1</ele>
        <time>2026-07-08T07:57:38.000Z</time>
      </trkpt>
      <trkpt lat="45.81713" lon="1.87174">
        <ele>739.5</ele>
        <time>2026-07-08T07:57:39.000Z</time>
      </trkpt>
      <trkpt lat="45.81714" lon="1.87172">
        <ele>739</ele>
        <time>2026-07-08T07:57:40.000Z</time>
      </trkpt>
      <trkpt lat="45.81715" lon="1.8717">
        <ele>738.1</ele>
        <time>2026-07-08T07:57:41.000Z</time>
      </trkpt>
      <trkpt lat="45.81717" lon="1.87168">
        <ele>739.9</ele>
        <time>2026-07-08T07:57:42.000Z</time>
      </trkpt>
      <trkpt lat="45.81718" lon="1.87166">
        <ele>738.3</ele>
        <time>2026-07-08T07:57:43.000Z</time>
      </trkpt>
      <trkpt lat="45.81717" lon="1.87164">
        <ele>737.6</ele>
        <time>2026-07-08T07:57:44.000Z</time>
      </trkpt>
      <trkpt lat="45.81718" lon="1.87163">
        <ele>737.5</ele>
        <time>2026-07-08T07:57:45.000Z</time>
      </trkpt>
      <trkpt lat="45.81718" lon="1.87161">
        <ele>737.1</ele>
        <time>2026-07-08T07:57:46.000Z</time>
      </trkpt>
      <trkpt lat="45.81719" lon="1.87159">
        <ele>737</ele>
        <time>2026-07-08T07:57:47.000Z</time>
      </trkpt>
      <trkpt lat="45.8172" lon="1.87158">
        <ele>737.1</ele>
        <time>2026-07-08T07:57:48.000Z</time>
      </trkpt>
      <trkpt lat="45.81721" lon="1.87157">
        <ele>736.8</ele>
        <time>2026-07-08T07:57:49.000Z</time>
      </trkpt>
      <trkpt lat="45.81723" lon="1.87156">
        <ele>736.3</ele>
        <time>2026-07-08T07:57:50.000Z</time>
      </trkpt>
      <trkpt lat="45.81724" lon="1.87155">
        <ele>735.2</ele>
        <time>2026-07-08T07:57:51.000Z</time>
      </trkpt>
      <trkpt lat="45.81724" lon="1.87154">
        <ele>734.3</ele>
        <time>2026-07-08T07:57:52.000Z</time>
      </trkpt>
      <trkpt lat="45.81725" lon="1.87153">
        <ele>734.2</ele>
        <time>2026-07-08T07:57:53.000Z</time>
      </trkpt>
      <trkpt lat="45.81726" lon="1.87151">
        <ele>734</ele>
        <time>2026-07-08T07:57:54.000Z</time>
      </trkpt>
      <trkpt lat="45.81727" lon="1.8715">
        <ele>734</ele>
        <time>2026-07-08T07:57:55.000Z</time>
      </trkpt>
      <trkpt lat="45.81729" lon="1.87148">
        <ele>734.3</ele>
        <time>2026-07-08T07:57:56.000Z</time>
      </trkpt>
      <trkpt lat="45.8173" lon="1.87147">
        <ele>734.3</ele>
        <time>2026-07-08T07:57:57.000Z</time>
      </trkpt>
      <trkpt lat="45.81731" lon="1.87146">
        <ele>734.3</ele>
        <time>2026-07-08T07:57:58.000Z</time>
      </trkpt>
      <trkpt lat="45.81732" lon="1.87145">
        <ele>734.3</ele>
        <time>2026-07-08T07:57:59.000Z</time>
      </trkpt>
      <trkpt lat="45.81733" lon="1.87143">
        <ele>734.2</ele>
        <time>2026-07-08T07:58:00.000Z</time>
      </trkpt>
      <trkpt lat="45.81734" lon="1.87142">
        <ele>734.2</ele>
        <time>2026-07-08T07:58:01.000Z</time>
      </trkpt>
      <trkpt lat="45.81735" lon="1.8714">
        <ele>734.6</ele>
        <time>2026-07-08T07:58:02.000Z</time>
      </trkpt>
      <trkpt lat="45.81736" lon="1.87138">
        <ele>734.5</ele>
        <time>2026-07-08T07:58:03.000Z</time>
      </trkpt>
      <trkpt lat="45.81737" lon="1.87136">
        <ele>733.9</ele>
        <time>2026-07-08T07:58:04.000Z</time>
      </trkpt>
      <trkpt lat="45.81738" lon="1.87134">
        <ele>733.7</ele>
        <time>2026-07-08T07:58:05.000Z</time>
      </trkpt>
      <trkpt lat="45.81739" lon="1.87132">
        <ele>733.5</ele>
        <time>2026-07-08T07:58:06.000Z</time>
      </trkpt>
      <trkpt lat="45.8174" lon="1.8713">
        <ele>733.5</ele>
        <time>2026-07-08T07:58:07.000Z</time>
      </trkpt>
      <trkpt lat="45.81741" lon="1.87127">
        <ele>733.5</ele>
        <time>2026-07-08T07:58:08.000Z</time>
      </trkpt>
      <trkpt lat="45.81742" lon="1.87125">
        <ele>733.5</ele>
        <time>2026-07-08T07:58:09.000Z</time>
      </trkpt>
      <trkpt lat="45.81743" lon="1.87124">
        <ele>733.3</ele>
        <time>2026-07-08T07:58:10.000Z</time>
      </trkpt>
      <trkpt lat="45.81744" lon="1.87122">
        <ele>733.2</ele>
        <time>2026-07-08T07:58:11.000Z</time>
      </trkpt>
      <trkpt lat="45.81745" lon="1.87119">
        <ele>733.1</ele>
        <time>2026-07-08T07:58:12.000Z</time>
      </trkpt>
      <trkpt lat="45.81746" lon="1.87117">
        <ele>732.8</ele>
        <time>2026-07-08T07:58:13.000Z</time>
      </trkpt>
      <trkpt lat="45.81747" lon="1.87115">
        <ele>732.6</ele>
        <time>2026-07-08T07:58:14.000Z</time>
      </trkpt>
      <trkpt lat="45.81748" lon="1.87113">
        <ele>732.5</ele>
        <time>2026-07-08T07:58:15.000Z</time>
      </trkpt>
      <trkpt lat="45.81748" lon="1.8711">
        <ele>732.5</ele>
        <time>2026-07-08T07:58:16.000Z</time>
      </trkpt>
      <trkpt lat="45.81749" lon="1.87108">
        <ele>732.2</ele>
        <time>2026-07-08T07:58:17.000Z</time>
      </trkpt>
      <trkpt lat="45.8175" lon="1.87106">
        <ele>731.9</ele>
        <time>2026-07-08T07:58:18.000Z</time>
      </trkpt>
      <trkpt lat="45.81751" lon="1.87104">
        <ele>731.8</ele>
        <time>2026-07-08T07:58:19.000Z</time>
      </trkpt>
      <trkpt lat="45.81752" lon="1.87102">
        <ele>731.7</ele>
        <time>2026-07-08T07:58:20.000Z</time>
      </trkpt>
      <trkpt lat="45.81753" lon="1.871">
        <ele>731.6</ele>
        <time>2026-07-08T07:58:21.000Z</time>
      </trkpt>
      <trkpt lat="45.81754" lon="1.87098">
        <ele>731.4</ele>
        <time>2026-07-08T07:58:22.000Z</time>
      </trkpt>
      <trkpt lat="45.81755" lon="1.87096">
        <ele>730.6</ele>
        <time>2026-07-08T07:58:23.000Z</time>
      </trkpt>
      <trkpt lat="45.81756" lon="1.87093">
        <ele>730.6</ele>
        <time>2026-07-08T07:58:24.000Z</time>
      </trkpt>
      <trkpt lat="45.81756" lon="1.87091">
        <ele>730.6</ele>
        <time>2026-07-08T07:58:25.000Z</time>
      </trkpt>
      <trkpt lat="45.81757" lon="1.87088">
        <ele>730.3</ele>
        <time>2026-07-08T07:58:26.000Z</time>
      </trkpt>
      <trkpt lat="45.81757" lon="1.87086">
        <ele>730.1</ele>
        <time>2026-07-08T07:58:27.000Z</time>
      </trkpt>
      <trkpt lat="45.81758" lon="1.87084">
        <ele>730.1</ele>
        <time>2026-07-08T07:58:28.000Z</time>
      </trkpt>
      <trkpt lat="45.81758" lon="1.87081">
        <ele>730</ele>
        <time>2026-07-08T07:58:29.000Z</time>
      </trkpt>
      <trkpt lat="45.81759" lon="1.87079">
        <ele>729.9</ele>
        <time>2026-07-08T07:58:30.000Z</time>
      </trkpt>
      <trkpt lat="45.8176" lon="1.87077">
        <ele>729.8</ele>
        <time>2026-07-08T07:58:31.000Z</time>
      </trkpt>
      <trkpt lat="45.8176" lon="1.87075">
        <ele>729.9</ele>
        <time>2026-07-08T07:58:32.000Z</time>
      </trkpt>
      <trkpt lat="45.81761" lon="1.87072">
        <ele>729.7</ele>
        <time>2026-07-08T07:58:33.000Z</time>
      </trkpt>
      <trkpt lat="45.81761" lon="1.8707">
        <ele>729.5</ele>
        <time>2026-07-08T07:58:34.000Z</time>
      </trkpt>
      <trkpt lat="45.81762" lon="1.87067">
        <ele>729.5</ele>
        <time>2026-07-08T07:58:35.000Z</time>
      </trkpt>
      <trkpt lat="45.81761" lon="1.87065">
        <ele>729.6</ele>
        <time>2026-07-08T07:58:36.000Z</time>
      </trkpt>
      <trkpt lat="45.81759" lon="1.87062">
        <ele>730.3</ele>
        <time>2026-07-08T07:58:37.000Z</time>
      </trkpt>
      <trkpt lat="45.81759" lon="1.8706">
        <ele>730.7</ele>
        <time>2026-07-08T07:58:38.000Z</time>
      </trkpt>
      <trkpt lat="45.81758" lon="1.87058">
        <ele>731</ele>
        <time>2026-07-08T07:58:39.000Z</time>
      </trkpt>
      <trkpt lat="45.81759" lon="1.87055">
        <ele>730.7</ele>
        <time>2026-07-08T07:58:40.000Z</time>
      </trkpt>
      <trkpt lat="45.81759" lon="1.87053">
        <ele>730.7</ele>
        <time>2026-07-08T07:58:41.000Z</time>
      </trkpt>
      <trkpt lat="45.81759" lon="1.8705">
        <ele>730.5</ele>
        <time>2026-07-08T07:58:42.000Z</time>
      </trkpt>
      <trkpt lat="45.81759" lon="1.87048">
        <ele>730.4</ele>
        <time>2026-07-08T07:58:43.000Z</time>
      </trkpt>
      <trkpt lat="45.81759" lon="1.87045">
        <ele>730.6</ele>
        <time>2026-07-08T07:58:44.000Z</time>
      </trkpt>
      <trkpt lat="45.81759" lon="1.87042">
        <ele>730.7</ele>
        <time>2026-07-08T07:58:45.000Z</time>
      </trkpt>
      <trkpt lat="45.81759" lon="1.8704">
        <ele>730.8</ele>
        <time>2026-07-08T07:58:46.000Z</time>
      </trkpt>
      <trkpt lat="45.81759" lon="1.87037">
        <ele>730.6</ele>
        <time>2026-07-08T07:58:47.000Z</time>
      </trkpt>
      <trkpt lat="45.81759" lon="1.87033">
        <ele>730.6</ele>
        <time>2026-07-08T07:58:48.000Z</time>
      </trkpt>
      <trkpt lat="45.81758" lon="1.8703">
        <ele>730.7</ele>
        <time>2026-07-08T07:58:49.000Z</time>
      </trkpt>
      <trkpt lat="45.81758" lon="1.87027">
        <ele>730.7</ele>
        <time>2026-07-08T07:58:50.000Z</time>
      </trkpt>
      <trkpt lat="45.81758" lon="1.87024">
        <ele>730.6</ele>
        <time>2026-07-08T07:58:51.000Z</time>
      </trkpt>
      <trkpt lat="45.81759" lon="1.87021">
        <ele>730.6</ele>
        <time>2026-07-08T07:58:52.000Z</time>
      </trkpt>
      <trkpt lat="45.81759" lon="1.87019">
        <ele>730.3</ele>
        <time>2026-07-08T07:58:53.000Z</time>
      </trkpt>
      <trkpt lat="45.81759" lon="1.87016">
        <ele>729.9</ele>
        <time>2026-07-08T07:58:54.000Z</time>
      </trkpt>
      <trkpt lat="45.81759" lon="1.87013">
        <ele>729.7</ele>
        <time>2026-07-08T07:58:55.000Z</time>
      </trkpt>
      <trkpt lat="45.81759" lon="1.8701">
        <ele>730.2</ele>
        <time>2026-07-08T07:58:56.000Z</time>
      </trkpt>
      <trkpt lat="45.81759" lon="1.87007">
        <ele>729.6</ele>
        <time>2026-07-08T07:58:57.000Z</time>
      </trkpt>
      <trkpt lat="45.8176" lon="1.87005">
        <ele>729.2</ele>
        <time>2026-07-08T07:58:58.000Z</time>
      </trkpt>
      <trkpt lat="45.81761" lon="1.87002">
        <ele>728.6</ele>
        <time>2026-07-08T07:58:59.000Z</time>
      </trkpt>
      <trkpt lat="45.81761" lon="1.86998">
        <ele>727.5</ele>
        <time>2026-07-08T07:59:00.000Z</time>
      </trkpt>
      <trkpt lat="45.81762" lon="1.86995">
        <ele>727.1</ele>
        <time>2026-07-08T07:59:01.000Z</time>
      </trkpt>
      <trkpt lat="45.81763" lon="1.86992">
        <ele>727.2</ele>
        <time>2026-07-08T07:59:02.000Z</time>
      </trkpt>
      <trkpt lat="45.81765" lon="1.86989">
        <ele>727.3</ele>
        <time>2026-07-08T07:59:03.000Z</time>
      </trkpt>
      <trkpt lat="45.81767" lon="1.86986">
        <ele>728.3</ele>
        <time>2026-07-08T07:59:04.000Z</time>
      </trkpt>
      <trkpt lat="45.8177" lon="1.86984">
        <ele>730.1</ele>
        <time>2026-07-08T07:59:05.000Z</time>
      </trkpt>
      <trkpt lat="45.8177" lon="1.86982">
        <ele>731.3</ele>
        <time>2026-07-08T07:59:06.000Z</time>
      </trkpt>
      <trkpt lat="45.8177" lon="1.8698">
        <ele>732.2</ele>
        <time>2026-07-08T07:59:07.000Z</time>
      </trkpt>
      <trkpt lat="45.81771" lon="1.86978">
        <ele>732.2</ele>
        <time>2026-07-08T07:59:08.000Z</time>
      </trkpt>
      <trkpt lat="45.81772" lon="1.86976">
        <ele>732.9</ele>
        <time>2026-07-08T07:59:09.000Z</time>
      </trkpt>
      <trkpt lat="45.81773" lon="1.86974">
        <ele>733.8</ele>
        <time>2026-07-08T07:59:10.000Z</time>
      </trkpt>
      <trkpt lat="45.81774" lon="1.86972">
        <ele>734.2</ele>
        <time>2026-07-08T07:59:11.000Z</time>
      </trkpt>
      <trkpt lat="45.81776" lon="1.8697">
        <ele>734.5</ele>
        <time>2026-07-08T07:59:12.000Z</time>
      </trkpt>
      <trkpt lat="45.81777" lon="1.86967">
        <ele>736</ele>
        <time>2026-07-08T07:59:13.000Z</time>
      </trkpt>
      <trkpt lat="45.81779" lon="1.86963">
        <ele>736.9</ele>
        <time>2026-07-08T07:59:14.000Z</time>
      </trkpt>
      <trkpt lat="45.81782" lon="1.8696">
        <ele>737.5</ele>
        <time>2026-07-08T07:59:15.000Z</time>
      </trkpt>
      <trkpt lat="45.81784" lon="1.86956">
        <ele>738.3</ele>
        <time>2026-07-08T07:59:16.000Z</time>
      </trkpt>
      <trkpt lat="45.81787" lon="1.86954">
        <ele>738.7</ele>
        <time>2026-07-08T07:59:17.000Z</time>
      </trkpt>
      <trkpt lat="45.81789" lon="1.86951">
        <ele>739.4</ele>
        <time>2026-07-08T07:59:18.000Z</time>
      </trkpt>
      <trkpt lat="45.81791" lon="1.86948">
        <ele>740.3</ele>
        <time>2026-07-08T07:59:19.000Z</time>
      </trkpt>
      <trkpt lat="45.81793" lon="1.86946">
        <ele>740.9</ele>
        <time>2026-07-08T07:59:20.000Z</time>
      </trkpt>
      <trkpt lat="45.81796" lon="1.86942">
        <ele>741.7</ele>
        <time>2026-07-08T07:59:21.000Z</time>
      </trkpt>
      <trkpt lat="45.81799" lon="1.8694">
        <ele>741.8</ele>
        <time>2026-07-08T07:59:22.000Z</time>
      </trkpt>
      <trkpt lat="45.81802" lon="1.86938">
        <ele>741.7</ele>
        <time>2026-07-08T07:59:23.000Z</time>
      </trkpt>
      <trkpt lat="45.81803" lon="1.86936">
        <ele>742.7</ele>
        <time>2026-07-08T07:59:24.000Z</time>
      </trkpt>
      <trkpt lat="45.81804" lon="1.86935">
        <ele>743.5</ele>
        <time>2026-07-08T07:59:25.000Z</time>
      </trkpt>
      <trkpt lat="45.81805" lon="1.86934">
        <ele>743.1</ele>
        <time>2026-07-08T07:59:26.000Z</time>
      </trkpt>
      <trkpt lat="45.81805" lon="1.86932">
        <ele>743.2</ele>
        <time>2026-07-08T07:59:27.000Z</time>
      </trkpt>
      <trkpt lat="45.81806" lon="1.86931">
        <ele>742.9</ele>
        <time>2026-07-08T07:59:28.000Z</time>
      </trkpt>
      <trkpt lat="45.81807" lon="1.8693">
        <ele>743.1</ele>
        <time>2026-07-08T07:59:29.000Z</time>
      </trkpt>
      <trkpt lat="45.81808" lon="1.86929">
        <ele>743.7</ele>
        <time>2026-07-08T07:59:30.000Z</time>
      </trkpt>
      <trkpt lat="45.81809" lon="1.86928">
        <ele>743.3</ele>
        <time>2026-07-08T07:59:31.000Z</time>
      </trkpt>
      <trkpt lat="45.81809" lon="1.86926">
        <ele>744.5</ele>
        <time>2026-07-08T07:59:32.000Z</time>
      </trkpt>
      <trkpt lat="45.8181" lon="1.86925">
        <ele>745.2</ele>
        <time>2026-07-08T07:59:33.000Z</time>
      </trkpt>
      <trkpt lat="45.81811" lon="1.86923">
        <ele>745.1</ele>
        <time>2026-07-08T07:59:34.000Z</time>
      </trkpt>
      <trkpt lat="45.81812" lon="1.86921">
        <ele>745</ele>
        <time>2026-07-08T07:59:35.000Z</time>
      </trkpt>
      <trkpt lat="45.81812" lon="1.86918">
        <ele>745</ele>
        <time>2026-07-08T07:59:36.000Z</time>
      </trkpt>
      <trkpt lat="45.81813" lon="1.86915">
        <ele>743.7</ele>
        <time>2026-07-08T07:59:37.000Z</time>
      </trkpt>
      <trkpt lat="45.81814" lon="1.86913">
        <ele>743.4</ele>
        <time>2026-07-08T07:59:38.000Z</time>
      </trkpt>
      <trkpt lat="45.81815" lon="1.8691">
        <ele>743.4</ele>
        <time>2026-07-08T07:59:39.000Z</time>
      </trkpt>
      <trkpt lat="45.81816" lon="1.86909">
        <ele>743.5</ele>
        <time>2026-07-08T07:59:40.000Z</time>
      </trkpt>
      <trkpt lat="45.81817" lon="1.86907">
        <ele>743.5</ele>
        <time>2026-07-08T07:59:41.000Z</time>
      </trkpt>
      <trkpt lat="45.81818" lon="1.86905">
        <ele>743.2</ele>
        <time>2026-07-08T07:59:42.000Z</time>
      </trkpt>
      <trkpt lat="45.81819" lon="1.86902">
        <ele>744.4</ele>
        <time>2026-07-08T07:59:43.000Z</time>
      </trkpt>
      <trkpt lat="45.8182" lon="1.869">
        <ele>742.4</ele>
        <time>2026-07-08T07:59:44.000Z</time>
      </trkpt>
      <trkpt lat="45.81821" lon="1.86898">
        <ele>742.1</ele>
        <time>2026-07-08T07:59:45.000Z</time>
      </trkpt>
      <trkpt lat="45.81823" lon="1.86897">
        <ele>741.7</ele>
        <time>2026-07-08T07:59:46.000Z</time>
      </trkpt>
      <trkpt lat="45.81825" lon="1.86896">
        <ele>741.3</ele>
        <time>2026-07-08T07:59:47.000Z</time>
      </trkpt>
      <trkpt lat="45.81827" lon="1.86895">
        <ele>741.1</ele>
        <time>2026-07-08T07:59:48.000Z</time>
      </trkpt>
      <trkpt lat="45.8183" lon="1.86894">
        <ele>741.4</ele>
        <time>2026-07-08T07:59:49.000Z</time>
      </trkpt>
      <trkpt lat="45.81832" lon="1.86892">
        <ele>741.3</ele>
        <time>2026-07-08T07:59:50.000Z</time>
      </trkpt>
      <trkpt lat="45.81834" lon="1.86891">
        <ele>741.3</ele>
        <time>2026-07-08T07:59:51.000Z</time>
      </trkpt>
      <trkpt lat="45.81837" lon="1.8689">
        <ele>741.3</ele>
        <time>2026-07-08T07:59:52.000Z</time>
      </trkpt>
      <trkpt lat="45.81839" lon="1.86889">
        <ele>741.5</ele>
        <time>2026-07-08T07:59:53.000Z</time>
      </trkpt>
      <trkpt lat="45.81841" lon="1.86888">
        <ele>741.3</ele>
        <time>2026-07-08T07:59:54.000Z</time>
      </trkpt>
      <trkpt lat="45.81844" lon="1.86888">
        <ele>740.9</ele>
        <time>2026-07-08T07:59:55.000Z</time>
      </trkpt>
      <trkpt lat="45.81846" lon="1.86888">
        <ele>739.8</ele>
        <time>2026-07-08T07:59:56.000Z</time>
      </trkpt>
      <trkpt lat="45.81849" lon="1.86888">
        <ele>740.2</ele>
        <time>2026-07-08T07:59:57.000Z</time>
      </trkpt>
      <trkpt lat="45.81851" lon="1.86888">
        <ele>740.4</ele>
        <time>2026-07-08T07:59:58.000Z</time>
      </trkpt>
      <trkpt lat="45.81854" lon="1.86888">
        <ele>739.7</ele>
        <time>2026-07-08T07:59:59.000Z</time>
      </trkpt>
      <trkpt lat="45.81856" lon="1.86887">
        <ele>739.4</ele>
        <time>2026-07-08T08:00:00.000Z</time>
      </trkpt>
      <trkpt lat="45.81859" lon="1.86887">
        <ele>739.2</ele>
        <time>2026-07-08T08:00:01.000Z</time>
      </trkpt>
      <trkpt lat="45.81862" lon="1.86885">
        <ele>738.5</ele>
        <time>2026-07-08T08:00:02.000Z</time>
      </trkpt>
      <trkpt lat="45.81864" lon="1.86885">
        <ele>738.6</ele>
        <time>2026-07-08T08:00:03.000Z</time>
      </trkpt>
      <trkpt lat="45.81866" lon="1.86885">
        <ele>738.1</ele>
        <time>2026-07-08T08:00:04.000Z</time>
      </trkpt>
      <trkpt lat="45.81869" lon="1.86885">
        <ele>737.7</ele>
        <time>2026-07-08T08:00:05.000Z</time>
      </trkpt>
      <trkpt lat="45.81871" lon="1.86885">
        <ele>738</ele>
        <time>2026-07-08T08:00:06.000Z</time>
      </trkpt>
      <trkpt lat="45.81872" lon="1.86884">
        <ele>738</ele>
        <time>2026-07-08T08:00:07.000Z</time>
      </trkpt>
      <trkpt lat="45.81874" lon="1.86885">
        <ele>738.2</ele>
        <time>2026-07-08T08:00:08.000Z</time>
      </trkpt>
      <trkpt lat="45.81876" lon="1.86885">
        <ele>738.3</ele>
        <time>2026-07-08T08:00:09.000Z</time>
      </trkpt>
      <trkpt lat="45.81878" lon="1.86885">
        <ele>738.4</ele>
        <time>2026-07-08T08:00:10.000Z</time>
      </trkpt>
      <trkpt lat="45.8188" lon="1.86885">
        <ele>738.8</ele>
        <time>2026-07-08T08:00:11.000Z</time>
      </trkpt>
      <trkpt lat="45.81882" lon="1.86885">
        <ele>739.5</ele>
        <time>2026-07-08T08:00:12.000Z</time>
      </trkpt>
      <trkpt lat="45.81884" lon="1.86885">
        <ele>740.4</ele>
        <time>2026-07-08T08:00:13.000Z</time>
      </trkpt>
      <trkpt lat="45.81886" lon="1.86885">
        <ele>741.7</ele>
        <time>2026-07-08T08:00:14.000Z</time>
      </trkpt>
      <trkpt lat="45.81888" lon="1.86884">
        <ele>741.9</ele>
        <time>2026-07-08T08:00:15.000Z</time>
      </trkpt>
      <trkpt lat="45.81889" lon="1.86884">
        <ele>741.3</ele>
        <time>2026-07-08T08:00:16.000Z</time>
      </trkpt>
      <trkpt lat="45.81892" lon="1.86884">
        <ele>743</ele>
        <time>2026-07-08T08:00:17.000Z</time>
      </trkpt>
      <trkpt lat="45.81894" lon="1.86884">
        <ele>743.2</ele>
        <time>2026-07-08T08:00:18.000Z</time>
      </trkpt>
      <trkpt lat="45.81895" lon="1.86884">
        <ele>742.9</ele>
        <time>2026-07-08T08:00:19.000Z</time>
      </trkpt>
      <trkpt lat="45.81897" lon="1.86884">
        <ele>742.3</ele>
        <time>2026-07-08T08:00:20.000Z</time>
      </trkpt>
      <trkpt lat="45.81899" lon="1.86883">
        <ele>742.5</ele>
        <time>2026-07-08T08:00:21.000Z</time>
      </trkpt>
      <trkpt lat="45.81901" lon="1.86883">
        <ele>741.1</ele>
        <time>2026-07-08T08:00:22.000Z</time>
      </trkpt>
      <trkpt lat="45.81903" lon="1.86882">
        <ele>741.3</ele>
        <time>2026-07-08T08:00:23.000Z</time>
      </trkpt>
      <trkpt lat="45.81904" lon="1.86882">
        <ele>739.9</ele>
        <time>2026-07-08T08:00:24.000Z</time>
      </trkpt>
      <trkpt lat="45.81906" lon="1.86882">
        <ele>739.9</ele>
        <time>2026-07-08T08:00:25.000Z</time>
      </trkpt>
      <trkpt lat="45.81907" lon="1.86882">
        <ele>740</ele>
        <time>2026-07-08T08:00:26.000Z</time>
      </trkpt>
      <trkpt lat="45.81909" lon="1.86882">
        <ele>740</ele>
        <time>2026-07-08T08:00:27.000Z</time>
      </trkpt>
      <trkpt lat="45.81911" lon="1.86882">
        <ele>740.7</ele>
        <time>2026-07-08T08:00:28.000Z</time>
      </trkpt>
      <trkpt lat="45.81913" lon="1.86883">
        <ele>740.5</ele>
        <time>2026-07-08T08:00:29.000Z</time>
      </trkpt>
      <trkpt lat="45.81914" lon="1.86883">
        <ele>740.7</ele>
        <time>2026-07-08T08:00:30.000Z</time>
      </trkpt>
      <trkpt lat="45.81916" lon="1.86882">
        <ele>741.4</ele>
        <time>2026-07-08T08:00:31.000Z</time>
      </trkpt>
      <trkpt lat="45.81918" lon="1.86882">
        <ele>741.1</ele>
        <time>2026-07-08T08:00:32.000Z</time>
      </trkpt>
      <trkpt lat="45.8192" lon="1.86882">
        <ele>740.6</ele>
        <time>2026-07-08T08:00:33.000Z</time>
      </trkpt>
      <trkpt lat="45.81921" lon="1.86882">
        <ele>740.3</ele>
        <time>2026-07-08T08:00:34.000Z</time>
      </trkpt>
      <trkpt lat="45.81923" lon="1.86881">
        <ele>740.5</ele>
        <time>2026-07-08T08:00:35.000Z</time>
      </trkpt>
      <trkpt lat="45.81925" lon="1.86881">
        <ele>742.3</ele>
        <time>2026-07-08T08:00:36.000Z</time>
      </trkpt>
      <trkpt lat="45.81926" lon="1.86881">
        <ele>741.2</ele>
        <time>2026-07-08T08:00:37.000Z</time>
      </trkpt>
      <trkpt lat="45.81927" lon="1.86881">
        <ele>741</ele>
        <time>2026-07-08T08:00:38.000Z</time>
      </trkpt>
      <trkpt lat="45.81929" lon="1.86881">
        <ele>741.6</ele>
        <time>2026-07-08T08:00:39.000Z</time>
      </trkpt>
      <trkpt lat="45.81931" lon="1.86881">
        <ele>742.9</ele>
        <time>2026-07-08T08:00:40.000Z</time>
      </trkpt>
      <trkpt lat="45.81933" lon="1.86881">
        <ele>743.2</ele>
        <time>2026-07-08T08:00:41.000Z</time>
      </trkpt>
      <trkpt lat="45.81934" lon="1.86881">
        <ele>743.4</ele>
        <time>2026-07-08T08:00:42.000Z</time>
      </trkpt>
      <trkpt lat="45.81935" lon="1.86881">
        <ele>743.5</ele>
        <time>2026-07-08T08:00:43.000Z</time>
      </trkpt>
      <trkpt lat="45.81936" lon="1.86881">
        <ele>742.8</ele>
        <time>2026-07-08T08:00:44.000Z</time>
      </trkpt>
      <trkpt lat="45.81938" lon="1.86881">
        <ele>742.8</ele>
        <time>2026-07-08T08:00:45.000Z</time>
      </trkpt>
      <trkpt lat="45.8194" lon="1.86881">
        <ele>742.5</ele>
        <time>2026-07-08T08:00:46.000Z</time>
      </trkpt>
      <trkpt lat="45.81941" lon="1.8688">
        <ele>744.5</ele>
        <time>2026-07-08T08:00:47.000Z</time>
      </trkpt>
      <trkpt lat="45.81942" lon="1.86881">
        <ele>744.4</ele>
        <time>2026-07-08T08:00:48.000Z</time>
      </trkpt>
      <trkpt lat="45.81943" lon="1.86881">
        <ele>745.3</ele>
        <time>2026-07-08T08:00:49.000Z</time>
      </trkpt>
      <trkpt lat="45.81945" lon="1.86882">
        <ele>745.7</ele>
        <time>2026-07-08T08:00:50.000Z</time>
      </trkpt>
      <trkpt lat="45.81947" lon="1.86882">
        <ele>745.8</ele>
        <time>2026-07-08T08:00:51.000Z</time>
      </trkpt>
      <trkpt lat="45.81949" lon="1.86882">
        <ele>746.1</ele>
        <time>2026-07-08T08:00:52.000Z</time>
      </trkpt>
      <trkpt lat="45.81951" lon="1.86882">
        <ele>745.7</ele>
        <time>2026-07-08T08:00:53.000Z</time>
      </trkpt>
      <trkpt lat="45.81952" lon="1.86882">
        <ele>745</ele>
        <time>2026-07-08T08:00:54.000Z</time>
      </trkpt>
      <trkpt lat="45.81954" lon="1.86881">
        <ele>745.2</ele>
        <time>2026-07-08T08:00:55.000Z</time>
      </trkpt>
      <trkpt lat="45.81956" lon="1.86882">
        <ele>745.1</ele>
        <time>2026-07-08T08:00:56.000Z</time>
      </trkpt>
      <trkpt lat="45.81957" lon="1.86882">
        <ele>744.4</ele>
        <time>2026-07-08T08:00:57.000Z</time>
      </trkpt>
      <trkpt lat="45.81959" lon="1.86882">
        <ele>744.3</ele>
        <time>2026-07-08T08:00:58.000Z</time>
      </trkpt>
      <trkpt lat="45.81961" lon="1.86882">
        <ele>743.4</ele>
        <time>2026-07-08T08:00:59.000Z</time>
      </trkpt>
      <trkpt lat="45.81962" lon="1.86883">
        <ele>742.8</ele>
        <time>2026-07-08T08:01:00.000Z</time>
      </trkpt>
      <trkpt lat="45.81964" lon="1.86883">
        <ele>742.1</ele>
        <time>2026-07-08T08:01:01.000Z</time>
      </trkpt>
      <trkpt lat="45.81966" lon="1.86883">
        <ele>742</ele>
        <time>2026-07-08T08:01:02.000Z</time>
      </trkpt>
      <trkpt lat="45.81967" lon="1.86883">
        <ele>742.2</ele>
        <time>2026-07-08T08:01:03.000Z</time>
      </trkpt>
      <trkpt lat="45.81969" lon="1.86883">
        <ele>742</ele>
        <time>2026-07-08T08:01:04.000Z</time>
      </trkpt>
      <trkpt lat="45.81971" lon="1.86884">
        <ele>741.4</ele>
        <time>2026-07-08T08:01:05.000Z</time>
      </trkpt>
      <trkpt lat="45.81973" lon="1.86884">
        <ele>740.6</ele>
        <time>2026-07-08T08:01:06.000Z</time>
      </trkpt>
      <trkpt lat="45.81976" lon="1.86885">
        <ele>740.5</ele>
        <time>2026-07-08T08:01:07.000Z</time>
      </trkpt>
      <trkpt lat="45.81977" lon="1.86884">
        <ele>739.7</ele>
        <time>2026-07-08T08:01:08.000Z</time>
      </trkpt>
      <trkpt lat="45.81979" lon="1.86885">
        <ele>739.9</ele>
        <time>2026-07-08T08:01:09.000Z</time>
      </trkpt>
      <trkpt lat="45.81981" lon="1.86885">
        <ele>739.3</ele>
        <time>2026-07-08T08:01:10.000Z</time>
      </trkpt>
      <trkpt lat="45.81983" lon="1.86885">
        <ele>739.3</ele>
        <time>2026-07-08T08:01:11.000Z</time>
      </trkpt>
      <trkpt lat="45.81985" lon="1.86885">
        <ele>739</ele>
        <time>2026-07-08T08:01:12.000Z</time>
      </trkpt>
      <trkpt lat="45.81987" lon="1.86886">
        <ele>740.1</ele>
        <time>2026-07-08T08:01:13.000Z</time>
      </trkpt>
      <trkpt lat="45.81989" lon="1.86887">
        <ele>741.5</ele>
        <time>2026-07-08T08:01:14.000Z</time>
      </trkpt>
      <trkpt lat="45.81992" lon="1.86886">
        <ele>740.7</ele>
        <time>2026-07-08T08:01:15.000Z</time>
      </trkpt>
      <trkpt lat="45.81994" lon="1.86886">
        <ele>741.1</ele>
        <time>2026-07-08T08:01:16.000Z</time>
      </trkpt>
      <trkpt lat="45.81995" lon="1.86886">
        <ele>742.8</ele>
        <time>2026-07-08T08:01:17.000Z</time>
      </trkpt>
      <trkpt lat="45.81997" lon="1.86885">
        <ele>743.4</ele>
        <time>2026-07-08T08:01:18.000Z</time>
      </trkpt>
      <trkpt lat="45.81999" lon="1.86885">
        <ele>743.2</ele>
        <time>2026-07-08T08:01:19.000Z</time>
      </trkpt>
      <trkpt lat="45.82001" lon="1.86886">
        <ele>743.3</ele>
        <time>2026-07-08T08:01:20.000Z</time>
      </trkpt>
      <trkpt lat="45.82003" lon="1.86886">
        <ele>743</ele>
        <time>2026-07-08T08:01:21.000Z</time>
      </trkpt>
      <trkpt lat="45.82004" lon="1.86886">
        <ele>743.5</ele>
        <time>2026-07-08T08:01:22.000Z</time>
      </trkpt>
      <trkpt lat="45.82006" lon="1.86886">
        <ele>742.9</ele>
        <time>2026-07-08T08:01:23.000Z</time>
      </trkpt>
      <trkpt lat="45.82007" lon="1.86886">
        <ele>743.4</ele>
        <time>2026-07-08T08:01:24.000Z</time>
      </trkpt>
      <trkpt lat="45.82008" lon="1.86886">
        <ele>743.8</ele>
        <time>2026-07-08T08:01:25.000Z</time>
      </trkpt>
      <trkpt lat="45.82009" lon="1.86886">
        <ele>744.1</ele>
        <time>2026-07-08T08:01:26.000Z</time>
      </trkpt>
      <trkpt lat="45.82011" lon="1.86886">
        <ele>744</ele>
        <time>2026-07-08T08:01:27.000Z</time>
      </trkpt>
      <trkpt lat="45.82012" lon="1.86885">
        <ele>744.6</ele>
        <time>2026-07-08T08:01:28.000Z</time>
      </trkpt>
      <trkpt lat="45.82014" lon="1.86884">
        <ele>745.2</ele>
        <time>2026-07-08T08:01:29.000Z</time>
      </trkpt>
      <trkpt lat="45.82015" lon="1.86883">
        <ele>745.6</ele>
        <time>2026-07-08T08:01:30.000Z</time>
      </trkpt>
      <trkpt lat="45.82016" lon="1.86881">
        <ele>745.5</ele>
        <time>2026-07-08T08:01:31.000Z</time>
      </trkpt>
      <trkpt lat="45.82017" lon="1.86878">
        <ele>745.3</ele>
        <time>2026-07-08T08:01:32.000Z</time>
      </trkpt>
      <trkpt lat="45.82017" lon="1.86876">
        <ele>745.6</ele>
        <time>2026-07-08T08:01:33.000Z</time>
      </trkpt>
      <trkpt lat="45.82017" lon="1.86873">
        <ele>745.1</ele>
        <time>2026-07-08T08:01:34.000Z</time>
      </trkpt>
      <trkpt lat="45.82018" lon="1.8687">
        <ele>744.6</ele>
        <time>2026-07-08T08:01:35.000Z</time>
      </trkpt>
      <trkpt lat="45.82018" lon="1.86868">
        <ele>744.2</ele>
        <time>2026-07-08T08:01:36.000Z</time>
      </trkpt>
      <trkpt lat="45.82018" lon="1.86865">
        <ele>744.1</ele>
        <time>2026-07-08T08:01:37.000Z</time>
      </trkpt>
      <trkpt lat="45.82019" lon="1.86863">
        <ele>743.6</ele>
        <time>2026-07-08T08:01:38.000Z</time>
      </trkpt>
      <trkpt lat="45.82019" lon="1.8686">
        <ele>743.2</ele>
        <time>2026-07-08T08:01:39.000Z</time>
      </trkpt>
      <trkpt lat="45.8202" lon="1.86858">
        <ele>742.6</ele>
        <time>2026-07-08T08:01:40.000Z</time>
      </trkpt>
      <trkpt lat="45.8202" lon="1.86856">
        <ele>742.4</ele>
        <time>2026-07-08T08:01:41.000Z</time>
      </trkpt>
      <trkpt lat="45.82021" lon="1.86853">
        <ele>741.8</ele>
        <time>2026-07-08T08:01:42.000Z</time>
      </trkpt>
      <trkpt lat="45.82021" lon="1.86851">
        <ele>741.5</ele>
        <time>2026-07-08T08:01:43.000Z</time>
      </trkpt>
      <trkpt lat="45.82022" lon="1.86848">
        <ele>741.3</ele>
        <time>2026-07-08T08:01:44.000Z</time>
      </trkpt>
      <trkpt lat="45.82023" lon="1.86846">
        <ele>741.3</ele>
        <time>2026-07-08T08:01:45.000Z</time>
      </trkpt>
      <trkpt lat="45.82024" lon="1.86844">
        <ele>741.1</ele>
        <time>2026-07-08T08:01:46.000Z</time>
      </trkpt>
      <trkpt lat="45.82025" lon="1.86841">
        <ele>741.2</ele>
        <time>2026-07-08T08:01:47.000Z</time>
      </trkpt>
      <trkpt lat="45.82025" lon="1.86839">
        <ele>740.8</ele>
        <time>2026-07-08T08:01:48.000Z</time>
      </trkpt>
      <trkpt lat="45.82026" lon="1.86837">
        <ele>740.5</ele>
        <time>2026-07-08T08:01:49.000Z</time>
      </trkpt>
      <trkpt lat="45.82027" lon="1.86835">
        <ele>740.2</ele>
        <time>2026-07-08T08:01:50.000Z</time>
      </trkpt>
      <trkpt lat="45.82027" lon="1.86833">
        <ele>739.9</ele>
        <time>2026-07-08T08:01:51.000Z</time>
      </trkpt>
      <trkpt lat="45.82028" lon="1.86831">
        <ele>739.7</ele>
        <time>2026-07-08T08:01:52.000Z</time>
      </trkpt>
      <trkpt lat="45.82029" lon="1.86829">
        <ele>739.5</ele>
        <time>2026-07-08T08:01:53.000Z</time>
      </trkpt>
      <trkpt lat="45.8203" lon="1.86827">
        <ele>739.2</ele>
        <time>2026-07-08T08:01:54.000Z</time>
      </trkpt>
      <trkpt lat="45.82031" lon="1.86825">
        <ele>738.8</ele>
        <time>2026-07-08T08:01:55.000Z</time>
      </trkpt>
      <trkpt lat="45.82031" lon="1.86822">
        <ele>738.4</ele>
        <time>2026-07-08T08:01:56.000Z</time>
      </trkpt>
      <trkpt lat="45.82031" lon="1.86819">
        <ele>738</ele>
        <time>2026-07-08T08:01:57.000Z</time>
      </trkpt>
      <trkpt lat="45.82032" lon="1.86817">
        <ele>738.3</ele>
        <time>2026-07-08T08:01:58.000Z</time>
      </trkpt>
      <trkpt lat="45.82032" lon="1.86814">
        <ele>738.1</ele>
        <time>2026-07-08T08:01:59.000Z</time>
      </trkpt>
      <trkpt lat="45.82032" lon="1.86812">
        <ele>738</ele>
        <time>2026-07-08T08:02:00.000Z</time>
      </trkpt>
      <trkpt lat="45.82033" lon="1.86809">
        <ele>738.2</ele>
        <time>2026-07-08T08:02:01.000Z</time>
      </trkpt>
      <trkpt lat="45.82033" lon="1.86806">
        <ele>738.1</ele>
        <time>2026-07-08T08:02:02.000Z</time>
      </trkpt>
      <trkpt lat="45.82033" lon="1.86803">
        <ele>738.2</ele>
        <time>2026-07-08T08:02:03.000Z</time>
      </trkpt>
      <trkpt lat="45.82034" lon="1.86801">
        <ele>737.9</ele>
        <time>2026-07-08T08:02:04.000Z</time>
      </trkpt>
      <trkpt lat="45.82034" lon="1.86798">
        <ele>737.8</ele>
        <time>2026-07-08T08:02:05.000Z</time>
      </trkpt>
      <trkpt lat="45.82034" lon="1.86795">
        <ele>737.6</ele>
        <time>2026-07-08T08:02:06.000Z</time>
      </trkpt>
      <trkpt lat="45.82035" lon="1.86793">
        <ele>737.6</ele>
        <time>2026-07-08T08:02:07.000Z</time>
      </trkpt>
      <trkpt lat="45.82035" lon="1.8679">
        <ele>737.7</ele>
        <time>2026-07-08T08:02:08.000Z</time>
      </trkpt>
      <trkpt lat="45.82036" lon="1.86788">
        <ele>737.9</ele>
        <time>2026-07-08T08:02:09.000Z</time>
      </trkpt>
      <trkpt lat="45.82037" lon="1.86785">
        <ele>738.1</ele>
        <time>2026-07-08T08:02:10.000Z</time>
      </trkpt>
      <trkpt lat="45.82038" lon="1.86782">
        <ele>738.2</ele>
        <time>2026-07-08T08:02:11.000Z</time>
      </trkpt>
      <trkpt lat="45.82038" lon="1.8678">
        <ele>738.2</ele>
        <time>2026-07-08T08:02:12.000Z</time>
      </trkpt>
      <trkpt lat="45.82039" lon="1.86778">
        <ele>737.9</ele>
        <time>2026-07-08T08:02:13.000Z</time>
      </trkpt>
      <trkpt lat="45.8204" lon="1.86776">
        <ele>737.7</ele>
        <time>2026-07-08T08:02:14.000Z</time>
      </trkpt>
      <trkpt lat="45.82041" lon="1.86774">
        <ele>737.8</ele>
        <time>2026-07-08T08:02:15.000Z</time>
      </trkpt>
      <trkpt lat="45.82041" lon="1.86771">
        <ele>737.7</ele>
        <time>2026-07-08T08:02:16.000Z</time>
      </trkpt>
      <trkpt lat="45.82042" lon="1.86768">
        <ele>737.6</ele>
        <time>2026-07-08T08:02:17.000Z</time>
      </trkpt>
      <trkpt lat="45.82041" lon="1.86764">
        <ele>738.1</ele>
        <time>2026-07-08T08:02:18.000Z</time>
      </trkpt>
      <trkpt lat="45.82041" lon="1.86761">
        <ele>737.9</ele>
        <time>2026-07-08T08:02:19.000Z</time>
      </trkpt>
      <trkpt lat="45.82042" lon="1.86759">
        <ele>737.6</ele>
        <time>2026-07-08T08:02:20.000Z</time>
      </trkpt>
      <trkpt lat="45.82043" lon="1.86757">
        <ele>737.5</ele>
        <time>2026-07-08T08:02:21.000Z</time>
      </trkpt>
      <trkpt lat="45.82044" lon="1.86756">
        <ele>737.7</ele>
        <time>2026-07-08T08:02:22.000Z</time>
      </trkpt>
      <trkpt lat="45.82045" lon="1.86754">
        <ele>737.7</ele>
        <time>2026-07-08T08:02:23.000Z</time>
      </trkpt>
      <trkpt lat="45.82046" lon="1.86752">
        <ele>737.6</ele>
        <time>2026-07-08T08:02:24.000Z</time>
      </trkpt>
      <trkpt lat="45.82047" lon="1.8675">
        <ele>737.3</ele>
        <time>2026-07-08T08:02:25.000Z</time>
      </trkpt>
      <trkpt lat="45.82049" lon="1.86748">
        <ele>737.2</ele>
        <time>2026-07-08T08:02:26.000Z</time>
      </trkpt>
      <trkpt lat="45.8205" lon="1.86746">
        <ele>737.2</ele>
        <time>2026-07-08T08:02:27.000Z</time>
      </trkpt>
      <trkpt lat="45.82051" lon="1.86744">
        <ele>737</ele>
        <time>2026-07-08T08:02:28.000Z</time>
      </trkpt>
      <trkpt lat="45.82052" lon="1.86742">
        <ele>737</ele>
        <time>2026-07-08T08:02:29.000Z</time>
      </trkpt>
      <trkpt lat="45.82053" lon="1.8674">
        <ele>737.4</ele>
        <time>2026-07-08T08:02:30.000Z</time>
      </trkpt>
      <trkpt lat="45.82054" lon="1.86738">
        <ele>737.1</ele>
        <time>2026-07-08T08:02:31.000Z</time>
      </trkpt>
      <trkpt lat="45.82055" lon="1.86735">
        <ele>736.8</ele>
        <time>2026-07-08T08:02:32.000Z</time>
      </trkpt>
      <trkpt lat="45.82055" lon="1.86733">
        <ele>736.8</ele>
        <time>2026-07-08T08:02:33.000Z</time>
      </trkpt>
      <trkpt lat="45.82056" lon="1.86731">
        <ele>737.1</ele>
        <time>2026-07-08T08:02:34.000Z</time>
      </trkpt>
      <trkpt lat="45.82057" lon="1.86728">
        <ele>736.4</ele>
        <time>2026-07-08T08:02:35.000Z</time>
      </trkpt>
      <trkpt lat="45.82058" lon="1.86726">
        <ele>736.1</ele>
        <time>2026-07-08T08:02:36.000Z</time>
      </trkpt>
      <trkpt lat="45.82059" lon="1.86724">
        <ele>735.7</ele>
        <time>2026-07-08T08:02:37.000Z</time>
      </trkpt>
      <trkpt lat="45.82059" lon="1.86722">
        <ele>734.8</ele>
        <time>2026-07-08T08:02:38.000Z</time>
      </trkpt>
      <trkpt lat="45.8206" lon="1.8672">
        <ele>734.7</ele>
        <time>2026-07-08T08:02:39.000Z</time>
      </trkpt>
      <trkpt lat="45.82059" lon="1.86717">
        <ele>732.5</ele>
        <time>2026-07-08T08:02:40.000Z</time>
      </trkpt>
      <trkpt lat="45.82058" lon="1.86715">
        <ele>731.6</ele>
        <time>2026-07-08T08:02:41.000Z</time>
      </trkpt>
      <trkpt lat="45.82059" lon="1.86712">
        <ele>732.5</ele>
        <time>2026-07-08T08:02:42.000Z</time>
      </trkpt>
      <trkpt lat="45.82061" lon="1.8671">
        <ele>734.8</ele>
        <time>2026-07-08T08:02:43.000Z</time>
      </trkpt>
      <trkpt lat="45.82062" lon="1.86708">
        <ele>734.9</ele>
        <time>2026-07-08T08:02:44.000Z</time>
      </trkpt>
      <trkpt lat="45.82063" lon="1.86705">
        <ele>735.2</ele>
        <time>2026-07-08T08:02:45.000Z</time>
      </trkpt>
      <trkpt lat="45.82064" lon="1.86703">
        <ele>735</ele>
        <time>2026-07-08T08:02:46.000Z</time>
      </trkpt>
      <trkpt lat="45.82065" lon="1.867">
        <ele>735.1</ele>
        <time>2026-07-08T08:02:47.000Z</time>
      </trkpt>
      <trkpt lat="45.82066" lon="1.86697">
        <ele>735.2</ele>
        <time>2026-07-08T08:02:48.000Z</time>
      </trkpt>
      <trkpt lat="45.82068" lon="1.86695">
        <ele>735.8</ele>
        <time>2026-07-08T08:02:49.000Z</time>
      </trkpt>
      <trkpt lat="45.82068" lon="1.86692">
        <ele>736</ele>
        <time>2026-07-08T08:02:50.000Z</time>
      </trkpt>
      <trkpt lat="45.82069" lon="1.8669">
        <ele>735.8</ele>
        <time>2026-07-08T08:02:51.000Z</time>
      </trkpt>
      <trkpt lat="45.8207" lon="1.86687">
        <ele>736.2</ele>
        <time>2026-07-08T08:02:52.000Z</time>
      </trkpt>
      <trkpt lat="45.8207" lon="1.86685">
        <ele>736.2</ele>
        <time>2026-07-08T08:02:53.000Z</time>
      </trkpt>
      <trkpt lat="45.8207" lon="1.86682">
        <ele>736.2</ele>
        <time>2026-07-08T08:02:54.000Z</time>
      </trkpt>
      <trkpt lat="45.82071" lon="1.8668">
        <ele>737.4</ele>
        <time>2026-07-08T08:02:55.000Z</time>
      </trkpt>
      <trkpt lat="45.82071" lon="1.86677">
        <ele>737.7</ele>
        <time>2026-07-08T08:02:56.000Z</time>
      </trkpt>
      <trkpt lat="45.82072" lon="1.86675">
        <ele>737.5</ele>
        <time>2026-07-08T08:02:57.000Z</time>
      </trkpt>
      <trkpt lat="45.82073" lon="1.86672">
        <ele>737.4</ele>
        <time>2026-07-08T08:02:58.000Z</time>
      </trkpt>
      <trkpt lat="45.82074" lon="1.8667">
        <ele>737.4</ele>
        <time>2026-07-08T08:02:59.000Z</time>
      </trkpt>
      <trkpt lat="45.82074" lon="1.86667">
        <ele>737.3</ele>
        <time>2026-07-08T08:03:00.000Z</time>
      </trkpt>
      <trkpt lat="45.82075" lon="1.86665">
        <ele>737.4</ele>
        <time>2026-07-08T08:03:01.000Z</time>
      </trkpt>
      <trkpt lat="45.82076" lon="1.86662">
        <ele>737.6</ele>
        <time>2026-07-08T08:03:02.000Z</time>
      </trkpt>
      <trkpt lat="45.82078" lon="1.8666">
        <ele>737.8</ele>
        <time>2026-07-08T08:03:03.000Z</time>
      </trkpt>
      <trkpt lat="45.82078" lon="1.86658">
        <ele>737.2</ele>
        <time>2026-07-08T08:03:04.000Z</time>
      </trkpt>
      <trkpt lat="45.82079" lon="1.86656">
        <ele>738</ele>
        <time>2026-07-08T08:03:05.000Z</time>
      </trkpt>
      <trkpt lat="45.82079" lon="1.86654">
        <ele>738.1</ele>
        <time>2026-07-08T08:03:06.000Z</time>
      </trkpt>
      <trkpt lat="45.82079" lon="1.86652">
        <ele>738.8</ele>
        <time>2026-07-08T08:03:07.000Z</time>
      </trkpt>
      <trkpt lat="45.8208" lon="1.86649">
        <ele>739.2</ele>
        <time>2026-07-08T08:03:08.000Z</time>
      </trkpt>
      <trkpt lat="45.8208" lon="1.86646">
        <ele>740.2</ele>
        <time>2026-07-08T08:03:09.000Z</time>
      </trkpt>
      <trkpt lat="45.82081" lon="1.86644">
        <ele>741.1</ele>
        <time>2026-07-08T08:03:10.000Z</time>
      </trkpt>
      <trkpt lat="45.82081" lon="1.86642">
        <ele>741.6</ele>
        <time>2026-07-08T08:03:11.000Z</time>
      </trkpt>
      <trkpt lat="45.82082" lon="1.86639">
        <ele>741.1</ele>
        <time>2026-07-08T08:03:12.000Z</time>
      </trkpt>
      <trkpt lat="45.82082" lon="1.86637">
        <ele>741</ele>
        <time>2026-07-08T08:03:13.000Z</time>
      </trkpt>
      <trkpt lat="45.82082" lon="1.86634">
        <ele>741.6</ele>
        <time>2026-07-08T08:03:14.000Z</time>
      </trkpt>
      <trkpt lat="45.82082" lon="1.86632">
        <ele>742.2</ele>
        <time>2026-07-08T08:03:15.000Z</time>
      </trkpt>
      <trkpt lat="45.82082" lon="1.86629">
        <ele>741.3</ele>
        <time>2026-07-08T08:03:16.000Z</time>
      </trkpt>
      <trkpt lat="45.82083" lon="1.86627">
        <ele>740.8</ele>
        <time>2026-07-08T08:03:17.000Z</time>
      </trkpt>
      <trkpt lat="45.82084" lon="1.86624">
        <ele>741.4</ele>
        <time>2026-07-08T08:03:18.000Z</time>
      </trkpt>
      <trkpt lat="45.82084" lon="1.86622">
        <ele>741.4</ele>
        <time>2026-07-08T08:03:19.000Z</time>
      </trkpt>
      <trkpt lat="45.82085" lon="1.8662">
        <ele>741.6</ele>
        <time>2026-07-08T08:03:20.000Z</time>
      </trkpt>
      <trkpt lat="45.82085" lon="1.86617">
        <ele>742.1</ele>
        <time>2026-07-08T08:03:21.000Z</time>
      </trkpt>
      <trkpt lat="45.82086" lon="1.86614">
        <ele>741.1</ele>
        <time>2026-07-08T08:03:22.000Z</time>
      </trkpt>
      <trkpt lat="45.82087" lon="1.86611">
        <ele>741.1</ele>
        <time>2026-07-08T08:03:23.000Z</time>
      </trkpt>
      <trkpt lat="45.82088" lon="1.86608">
        <ele>740.8</ele>
        <time>2026-07-08T08:03:24.000Z</time>
      </trkpt>
      <trkpt lat="45.82088" lon="1.86606">
        <ele>740.8</ele>
        <time>2026-07-08T08:03:25.000Z</time>
      </trkpt>
      <trkpt lat="45.82089" lon="1.86603">
        <ele>740.3</ele>
        <time>2026-07-08T08:03:26.000Z</time>
      </trkpt>
      <trkpt lat="45.82089" lon="1.86601">
        <ele>740.9</ele>
        <time>2026-07-08T08:03:27.000Z</time>
      </trkpt>
      <trkpt lat="45.82088" lon="1.86598">
        <ele>741.2</ele>
        <time>2026-07-08T08:03:28.000Z</time>
      </trkpt>
      <trkpt lat="45.82088" lon="1.86596">
        <ele>741.9</ele>
        <time>2026-07-08T08:03:29.000Z</time>
      </trkpt>
      <trkpt lat="45.82087" lon="1.86594">
        <ele>742</ele>
        <time>2026-07-08T08:03:30.000Z</time>
      </trkpt>
      <trkpt lat="45.82087" lon="1.86592">
        <ele>741.3</ele>
        <time>2026-07-08T08:03:31.000Z</time>
      </trkpt>
      <trkpt lat="45.82086" lon="1.8659">
        <ele>741.7</ele>
        <time>2026-07-08T08:03:32.000Z</time>
      </trkpt>
      <trkpt lat="45.82085" lon="1.86588">
        <ele>741.2</ele>
        <time>2026-07-08T08:03:33.000Z</time>
      </trkpt>
      <trkpt lat="45.82084" lon="1.86586">
        <ele>740.6</ele>
        <time>2026-07-08T08:03:34.000Z</time>
      </trkpt>
      <trkpt lat="45.82083" lon="1.86584">
        <ele>739.5</ele>
        <time>2026-07-08T08:03:35.000Z</time>
      </trkpt>
      <trkpt lat="45.82083" lon="1.86581">
        <ele>738.5</ele>
        <time>2026-07-08T08:03:36.000Z</time>
      </trkpt>
      <trkpt lat="45.82083" lon="1.86577">
        <ele>738.7</ele>
        <time>2026-07-08T08:03:37.000Z</time>
      </trkpt>
      <trkpt lat="45.82082" lon="1.86575">
        <ele>737.9</ele>
        <time>2026-07-08T08:03:38.000Z</time>
      </trkpt>
      <trkpt lat="45.82082" lon="1.86572">
        <ele>738.2</ele>
        <time>2026-07-08T08:03:39.000Z</time>
      </trkpt>
      <trkpt lat="45.82082" lon="1.8657">
        <ele>738.6</ele>
        <time>2026-07-08T08:03:40.000Z</time>
      </trkpt>
      <trkpt lat="45.82082" lon="1.86567">
        <ele>738.2</ele>
        <time>2026-07-08T08:03:41.000Z</time>
      </trkpt>
      <trkpt lat="45.82082" lon="1.86564">
        <ele>738.2</ele>
        <time>2026-07-08T08:03:42.000Z</time>
      </trkpt>
      <trkpt lat="45.82083" lon="1.86562">
        <ele>738.7</ele>
        <time>2026-07-08T08:03:43.000Z</time>
      </trkpt>
      <trkpt lat="45.82083" lon="1.86559">
        <ele>738.8</ele>
        <time>2026-07-08T08:03:44.000Z</time>
      </trkpt>
      <trkpt lat="45.82083" lon="1.86557">
        <ele>739.7</ele>
        <time>2026-07-08T08:03:45.000Z</time>
      </trkpt>
      <trkpt lat="45.82083" lon="1.86554">
        <ele>740.2</ele>
        <time>2026-07-08T08:03:46.000Z</time>
      </trkpt>
      <trkpt lat="45.82083" lon="1.86552">
        <ele>739.8</ele>
        <time>2026-07-08T08:03:47.000Z</time>
      </trkpt>
      <trkpt lat="45.82083" lon="1.86549">
        <ele>739.4</ele>
        <time>2026-07-08T08:03:48.000Z</time>
      </trkpt>
      <trkpt lat="45.82084" lon="1.86547">
        <ele>739.3</ele>
        <time>2026-07-08T08:03:49.000Z</time>
      </trkpt>
      <trkpt lat="45.82083" lon="1.86545">
        <ele>739.8</ele>
        <time>2026-07-08T08:03:50.000Z</time>
      </trkpt>
      <trkpt lat="45.82084" lon="1.86542">
        <ele>740.4</ele>
        <time>2026-07-08T08:03:51.000Z</time>
      </trkpt>
      <trkpt lat="45.82084" lon="1.86539">
        <ele>740.6</ele>
        <time>2026-07-08T08:03:52.000Z</time>
      </trkpt>
      <trkpt lat="45.82085" lon="1.86537">
        <ele>741</ele>
        <time>2026-07-08T08:03:53.000Z</time>
      </trkpt>
      <trkpt lat="45.82085" lon="1.86534">
        <ele>741.2</ele>
        <time>2026-07-08T08:03:54.000Z</time>
      </trkpt>
      <trkpt lat="45.82085" lon="1.86532">
        <ele>741.3</ele>
        <time>2026-07-08T08:03:55.000Z</time>
      </trkpt>
      <trkpt lat="45.82086" lon="1.86529">
        <ele>741.4</ele>
        <time>2026-07-08T08:03:56.000Z</time>
      </trkpt>
      <trkpt lat="45.82086" lon="1.86526">
        <ele>741.7</ele>
        <time>2026-07-08T08:03:57.000Z</time>
      </trkpt>
      <trkpt lat="45.82086" lon="1.86524">
        <ele>742.3</ele>
        <time>2026-07-08T08:03:58.000Z</time>
      </trkpt>
      <trkpt lat="45.82086" lon="1.86521">
        <ele>742.3</ele>
        <time>2026-07-08T08:03:59.000Z</time>
      </trkpt>
      <trkpt lat="45.82087" lon="1.86519">
        <ele>742.2</ele>
        <time>2026-07-08T08:04:00.000Z</time>
      </trkpt>
      <trkpt lat="45.82087" lon="1.86516">
        <ele>741.8</ele>
        <time>2026-07-08T08:04:01.000Z</time>
      </trkpt>
      <trkpt lat="45.82087" lon="1.86514">
        <ele>742.1</ele>
        <time>2026-07-08T08:04:02.000Z</time>
      </trkpt>
      <trkpt lat="45.82087" lon="1.8651">
        <ele>741.6</ele>
        <time>2026-07-08T08:04:03.000Z</time>
      </trkpt>
      <trkpt lat="45.82087" lon="1.86508">
        <ele>742.3</ele>
        <time>2026-07-08T08:04:04.000Z</time>
      </trkpt>
      <trkpt lat="45.82087" lon="1.86505">
        <ele>741.8</ele>
        <time>2026-07-08T08:04:05.000Z</time>
      </trkpt>
      <trkpt lat="45.82088" lon="1.86503">
        <ele>742.2</ele>
        <time>2026-07-08T08:04:06.000Z</time>
      </trkpt>
      <trkpt lat="45.82088" lon="1.86501">
        <ele>742.6</ele>
        <time>2026-07-08T08:04:07.000Z</time>
      </trkpt>
      <trkpt lat="45.82088" lon="1.86499">
        <ele>742.8</ele>
        <time>2026-07-08T08:04:08.000Z</time>
      </trkpt>
      <trkpt lat="45.82089" lon="1.86496">
        <ele>742.1</ele>
        <time>2026-07-08T08:04:09.000Z</time>
      </trkpt>
      <trkpt lat="45.82089" lon="1.86494">
        <ele>742.4</ele>
        <time>2026-07-08T08:04:10.000Z</time>
      </trkpt>
      <trkpt lat="45.8209" lon="1.86492">
        <ele>742.9</ele>
        <time>2026-07-08T08:04:11.000Z</time>
      </trkpt>
      <trkpt lat="45.82091" lon="1.86489">
        <ele>743.6</ele>
        <time>2026-07-08T08:04:12.000Z</time>
      </trkpt>
      <trkpt lat="45.82091" lon="1.86487">
        <ele>743.1</ele>
        <time>2026-07-08T08:04:13.000Z</time>
      </trkpt>
      <trkpt lat="45.82091" lon="1.86485">
        <ele>743</ele>
        <time>2026-07-08T08:04:14.000Z</time>
      </trkpt>
      <trkpt lat="45.82091" lon="1.86483">
        <ele>743.1</ele>
        <time>2026-07-08T08:04:15.000Z</time>
      </trkpt>
      <trkpt lat="45.82091" lon="1.86481">
        <ele>743.5</ele>
        <time>2026-07-08T08:04:16.000Z</time>
      </trkpt>
      <trkpt lat="45.82091" lon="1.86479">
        <ele>743.1</ele>
        <time>2026-07-08T08:04:17.000Z</time>
      </trkpt>
      <trkpt lat="45.82092" lon="1.86477">
        <ele>742.9</ele>
        <time>2026-07-08T08:04:18.000Z</time>
      </trkpt>
      <trkpt lat="45.82092" lon="1.86475">
        <ele>743.4</ele>
        <time>2026-07-08T08:04:19.000Z</time>
      </trkpt>
      <trkpt lat="45.82093" lon="1.86472">
        <ele>743.5</ele>
        <time>2026-07-08T08:04:20.000Z</time>
      </trkpt>
      <trkpt lat="45.82094" lon="1.8647">
        <ele>744.2</ele>
        <time>2026-07-08T08:04:21.000Z</time>
      </trkpt>
      <trkpt lat="45.82095" lon="1.86468">
        <ele>744</ele>
        <time>2026-07-08T08:04:22.000Z</time>
      </trkpt>
      <trkpt lat="45.82096" lon="1.86466">
        <ele>744.9</ele>
        <time>2026-07-08T08:04:23.000Z</time>
      </trkpt>
      <trkpt lat="45.82096" lon="1.86463">
        <ele>744.6</ele>
        <time>2026-07-08T08:04:24.000Z</time>
      </trkpt>
      <trkpt lat="45.82097" lon="1.86461">
        <ele>744.9</ele>
        <time>2026-07-08T08:04:25.000Z</time>
      </trkpt>
      <trkpt lat="45.82097" lon="1.86459">
        <ele>745.6</ele>
        <time>2026-07-08T08:04:26.000Z</time>
      </trkpt>
      <trkpt lat="45.82098" lon="1.86457">
        <ele>745</ele>
        <time>2026-07-08T08:04:27.000Z</time>
      </trkpt>
      <trkpt lat="45.82098" lon="1.86455">
        <ele>745</ele>
        <time>2026-07-08T08:04:28.000Z</time>
      </trkpt>
      <trkpt lat="45.82099" lon="1.86452">
        <ele>744.1</ele>
        <time>2026-07-08T08:04:29.000Z</time>
      </trkpt>
      <trkpt lat="45.82099" lon="1.8645">
        <ele>743.8</ele>
        <time>2026-07-08T08:04:30.000Z</time>
      </trkpt>
      <trkpt lat="45.82099" lon="1.86448">
        <ele>743.9</ele>
        <time>2026-07-08T08:04:31.000Z</time>
      </trkpt>
      <trkpt lat="45.82099" lon="1.86445">
        <ele>744.8</ele>
        <time>2026-07-08T08:04:32.000Z</time>
      </trkpt>
      <trkpt lat="45.82099" lon="1.86443">
        <ele>744.4</ele>
        <time>2026-07-08T08:04:33.000Z</time>
      </trkpt>
      <trkpt lat="45.821" lon="1.8644">
        <ele>744.1</ele>
        <time>2026-07-08T08:04:34.000Z</time>
      </trkpt>
      <trkpt lat="45.821" lon="1.86437">
        <ele>744.3</ele>
        <time>2026-07-08T08:04:35.000Z</time>
      </trkpt>
      <trkpt lat="45.82101" lon="1.86435">
        <ele>744.1</ele>
        <time>2026-07-08T08:04:36.000Z</time>
      </trkpt>
      <trkpt lat="45.82102" lon="1.86432">
        <ele>744.4</ele>
        <time>2026-07-08T08:04:37.000Z</time>
      </trkpt>
      <trkpt lat="45.82103" lon="1.8643">
        <ele>745.2</ele>
        <time>2026-07-08T08:04:38.000Z</time>
      </trkpt>
      <trkpt lat="45.82104" lon="1.86426">
        <ele>745.2</ele>
        <time>2026-07-08T08:04:39.000Z</time>
      </trkpt>
      <trkpt lat="45.82105" lon="1.86423">
        <ele>746.3</ele>
        <time>2026-07-08T08:04:40.000Z</time>
      </trkpt>
      <trkpt lat="45.82105" lon="1.86421">
        <ele>746.2</ele>
        <time>2026-07-08T08:04:41.000Z</time>
      </trkpt>
      <trkpt lat="45.82106" lon="1.86419">
        <ele>746</ele>
        <time>2026-07-08T08:04:42.000Z</time>
      </trkpt>
      <trkpt lat="45.82106" lon="1.86416">
        <ele>745.7</ele>
        <time>2026-07-08T08:04:43.000Z</time>
      </trkpt>
      <trkpt lat="45.82107" lon="1.86414">
        <ele>745.8</ele>
        <time>2026-07-08T08:04:44.000Z</time>
      </trkpt>
      <trkpt lat="45.82108" lon="1.86412">
        <ele>746.1</ele>
        <time>2026-07-08T08:04:45.000Z</time>
      </trkpt>
      <trkpt lat="45.82109" lon="1.8641">
        <ele>746.3</ele>
        <time>2026-07-08T08:04:46.000Z</time>
      </trkpt>
      <trkpt lat="45.8211" lon="1.86408">
        <ele>747.1</ele>
        <time>2026-07-08T08:04:47.000Z</time>
      </trkpt>
      <trkpt lat="45.82111" lon="1.86406">
        <ele>747.5</ele>
        <time>2026-07-08T08:04:48.000Z</time>
      </trkpt>
      <trkpt lat="45.82111" lon="1.86403">
        <ele>747.8</ele>
        <time>2026-07-08T08:04:49.000Z</time>
      </trkpt>
      <trkpt lat="45.82111" lon="1.86401">
        <ele>748.6</ele>
        <time>2026-07-08T08:04:50.000Z</time>
      </trkpt>
      <trkpt lat="45.82111" lon="1.86398">
        <ele>748.6</ele>
        <time>2026-07-08T08:04:51.000Z</time>
      </trkpt>
      <trkpt lat="45.82111" lon="1.86395">
        <ele>747.9</ele>
        <time>2026-07-08T08:04:52.000Z</time>
      </trkpt>
      <trkpt lat="45.82111" lon="1.86392">
        <ele>747.8</ele>
        <time>2026-07-08T08:04:53.000Z</time>
      </trkpt>
      <trkpt lat="45.82112" lon="1.86389">
        <ele>746.9</ele>
        <time>2026-07-08T08:04:54.000Z</time>
      </trkpt>
      <trkpt lat="45.82112" lon="1.86387">
        <ele>746</ele>
        <time>2026-07-08T08:04:55.000Z</time>
      </trkpt>
      <trkpt lat="45.82113" lon="1.86385">
        <ele>744.1</ele>
        <time>2026-07-08T08:04:56.000Z</time>
      </trkpt>
      <trkpt lat="45.82113" lon="1.86383">
        <ele>743.9</ele>
        <time>2026-07-08T08:04:57.000Z</time>
      </trkpt>
      <trkpt lat="45.82114" lon="1.8638">
        <ele>743</ele>
        <time>2026-07-08T08:04:58.000Z</time>
      </trkpt>
      <trkpt lat="45.82115" lon="1.86378">
        <ele>742.4</ele>
        <time>2026-07-08T08:04:59.000Z</time>
      </trkpt>
      <trkpt lat="45.82117" lon="1.86376">
        <ele>742.4</ele>
        <time>2026-07-08T08:05:00.000Z</time>
      </trkpt>
      <trkpt lat="45.82118" lon="1.86374">
        <ele>743.1</ele>
        <time>2026-07-08T08:05:01.000Z</time>
      </trkpt>
      <trkpt lat="45.8212" lon="1.86372">
        <ele>742.1</ele>
        <time>2026-07-08T08:05:02.000Z</time>
      </trkpt>
      <trkpt lat="45.82122" lon="1.8637">
        <ele>742.1</ele>
        <time>2026-07-08T08:05:03.000Z</time>
      </trkpt>
      <trkpt lat="45.82124" lon="1.86369">
        <ele>743.5</ele>
        <time>2026-07-08T08:05:04.000Z</time>
      </trkpt>
      <trkpt lat="45.82126" lon="1.86367">
        <ele>744.3</ele>
        <time>2026-07-08T08:05:05.000Z</time>
      </trkpt>
      <trkpt lat="45.82127" lon="1.86366">
        <ele>744.9</ele>
        <time>2026-07-08T08:05:06.000Z</time>
      </trkpt>
      <trkpt lat="45.82129" lon="1.86364">
        <ele>744.6</ele>
        <time>2026-07-08T08:05:07.000Z</time>
      </trkpt>
      <trkpt lat="45.8213" lon="1.86363">
        <ele>745.4</ele>
        <time>2026-07-08T08:05:08.000Z</time>
      </trkpt>
      <trkpt lat="45.82132" lon="1.86361">
        <ele>743.7</ele>
        <time>2026-07-08T08:05:09.000Z</time>
      </trkpt>
      <trkpt lat="45.82133" lon="1.86358">
        <ele>743.8</ele>
        <time>2026-07-08T08:05:10.000Z</time>
      </trkpt>
      <trkpt lat="45.82134" lon="1.86355">
        <ele>743.4</ele>
        <time>2026-07-08T08:05:11.000Z</time>
      </trkpt>
      <trkpt lat="45.82135" lon="1.86353">
        <ele>743.5</ele>
        <time>2026-07-08T08:05:12.000Z</time>
      </trkpt>
      <trkpt lat="45.82137" lon="1.86351">
        <ele>743.4</ele>
        <time>2026-07-08T08:05:13.000Z</time>
      </trkpt>
      <trkpt lat="45.82139" lon="1.86349">
        <ele>743.3</ele>
        <time>2026-07-08T08:05:14.000Z</time>
      </trkpt>
      <trkpt lat="45.8214" lon="1.86347">
        <ele>743.8</ele>
        <time>2026-07-08T08:05:15.000Z</time>
      </trkpt>
      <trkpt lat="45.82142" lon="1.86345">
        <ele>744.4</ele>
        <time>2026-07-08T08:05:16.000Z</time>
      </trkpt>
      <trkpt lat="45.82143" lon="1.86344">
        <ele>745.2</ele>
        <time>2026-07-08T08:05:17.000Z</time>
      </trkpt>
      <trkpt lat="45.82145" lon="1.86342">
        <ele>745.8</ele>
        <time>2026-07-08T08:05:18.000Z</time>
      </trkpt>
      <trkpt lat="45.82146" lon="1.8634">
        <ele>745.6</ele>
        <time>2026-07-08T08:05:19.000Z</time>
      </trkpt>
      <trkpt lat="45.82147" lon="1.86338">
        <ele>745.3</ele>
        <time>2026-07-08T08:05:20.000Z</time>
      </trkpt>
      <trkpt lat="45.82149" lon="1.86336">
        <ele>747.1</ele>
        <time>2026-07-08T08:05:21.000Z</time>
      </trkpt>
      <trkpt lat="45.82149" lon="1.86333">
        <ele>745</ele>
        <time>2026-07-08T08:05:22.000Z</time>
      </trkpt>
      <trkpt lat="45.82149" lon="1.86331">
        <ele>743.7</ele>
        <time>2026-07-08T08:05:23.000Z</time>
      </trkpt>
      <trkpt lat="45.82149" lon="1.86329">
        <ele>743.8</ele>
        <time>2026-07-08T08:05:24.000Z</time>
      </trkpt>
      <trkpt lat="45.8215" lon="1.86328">
        <ele>743.6</ele>
        <time>2026-07-08T08:05:25.000Z</time>
      </trkpt>
      <trkpt lat="45.8215" lon="1.86328">
        <ele>743.6</ele>
        <time>2026-07-08T08:05:26.000Z</time>
      </trkpt>
      <trkpt lat="45.8215" lon="1.86328">
        <ele>743.6</ele>
        <time>2026-07-08T08:05:27.000Z</time>
      </trkpt>
      <trkpt lat="45.8215" lon="1.86328">
        <ele>743.6</ele>
        <time>2026-07-08T08:05:28.000Z</time>
      </trkpt>
      <trkpt lat="45.8215" lon="1.86328">
        <ele>743.6</ele>
        <time>2026-07-08T08:05:29.000Z</time>
      </trkpt>
      <trkpt lat="45.8215" lon="1.86328">
        <ele>743.6</ele>
        <time>2026-07-08T08:05:30.000Z</time>
      </trkpt>
      <trkpt lat="45.8215" lon="1.86328">
        <ele>743.6</ele>
        <time>2026-07-08T08:05:31.000Z</time>
      </trkpt>
      <trkpt lat="45.8215" lon="1.86328">
        <ele>743.7</ele>
        <time>2026-07-08T08:05:32.000Z</time>
      </trkpt>
      <trkpt lat="45.8215" lon="1.86328">
        <ele>743.7</ele>
        <time>2026-07-08T08:05:33.000Z</time>
      </trkpt>
      <trkpt lat="45.8215" lon="1.86328">
        <ele>743.7</ele>
        <time>2026-07-08T08:05:34.000Z</time>
      </trkpt>
      <trkpt lat="45.8215" lon="1.86328">
        <ele>743.7</ele>
        <time>2026-07-08T08:05:35.000Z</time>
      </trkpt>
      <trkpt lat="45.8215" lon="1.86328">
        <ele>743.7</ele>
        <time>2026-07-08T08:05:36.000Z</time>
      </trkpt>
      <trkpt lat="45.8215" lon="1.86328">
        <ele>743.7</ele>
        <time>2026-07-08T08:05:37.000Z</time>
      </trkpt>
      <trkpt lat="45.8215" lon="1.86328">
        <ele>743.6</ele>
        <time>2026-07-08T08:05:38.000Z</time>
      </trkpt>
      <trkpt lat="45.8215" lon="1.86328">
        <ele>743.6</ele>
        <time>2026-07-08T08:05:39.000Z</time>
      </trkpt>
      <trkpt lat="45.8215" lon="1.86328">
        <ele>743.6</ele>
        <time>2026-07-08T08:05:40.000Z</time>
      </trkpt>
      <trkpt lat="45.8215" lon="1.86328">
        <ele>743.5</ele>
        <time>2026-07-08T08:05:41.000Z</time>
      </trkpt>
      <trkpt lat="45.8215" lon="1.86328">
        <ele>743.5</ele>
        <time>2026-07-08T08:05:42.000Z</time>
      </trkpt>
      <trkpt lat="45.8215" lon="1.86328">
        <ele>743.5</ele>
        <time>2026-07-08T08:05:43.000Z</time>
      </trkpt>
      <trkpt lat="45.8215" lon="1.86328">
        <ele>743.5</ele>
        <time>2026-07-08T08:05:44.000Z</time>
      </trkpt>
      <trkpt lat="45.8215" lon="1.86329">
        <ele>743.5</ele>
        <time>2026-07-08T08:05:45.000Z</time>
      </trkpt>
      <trkpt lat="45.8215" lon="1.86329">
        <ele>743.5</ele>
        <time>2026-07-08T08:05:46.000Z</time>
      </trkpt>
      <trkpt lat="45.8215" lon="1.86329">
        <ele>743.1</ele>
        <time>2026-07-08T08:05:47.000Z</time>
      </trkpt>
      <trkpt lat="45.82151" lon="1.86328">
        <ele>744.6</ele>
        <time>2026-07-08T08:05:48.000Z</time>
      </trkpt>
      <trkpt lat="45.82153" lon="1.86328">
        <ele>745.4</ele>
        <time>2026-07-08T08:05:49.000Z</time>
      </trkpt>
      <trkpt lat="45.82154" lon="1.86328">
        <ele>745.5</ele>
        <time>2026-07-08T08:05:50.000Z</time>
      </trkpt>
      <trkpt lat="45.82154" lon="1.86327">
        <ele>746</ele>
        <time>2026-07-08T08:05:51.000Z</time>
      </trkpt>
      <trkpt lat="45.82155" lon="1.86326">
        <ele>746.6</ele>
        <time>2026-07-08T08:05:52.000Z</time>
      </trkpt>
      <trkpt lat="45.82156" lon="1.86326">
        <ele>746.6</ele>
        <time>2026-07-08T08:05:53.000Z</time>
      </trkpt>
      <trkpt lat="45.82156" lon="1.86326">
        <ele>746.6</ele>
        <time>2026-07-08T08:05:54.000Z</time>
      </trkpt>
      <trkpt lat="45.82156" lon="1.86326">
        <ele>747.2</ele>
        <time>2026-07-08T08:05:55.000Z</time>
      </trkpt>
      <trkpt lat="45.82158" lon="1.86325">
        <ele>747.8</ele>
        <time>2026-07-08T08:05:56.000Z</time>
      </trkpt>
      <trkpt lat="45.82158" lon="1.86324">
        <ele>748.2</ele>
        <time>2026-07-08T08:05:57.000Z</time>
      </trkpt>
      <trkpt lat="45.82159" lon="1.86324">
        <ele>748.2</ele>
        <time>2026-07-08T08:05:58.000Z</time>
      </trkpt>
      <trkpt lat="45.82159" lon="1.86324">
        <ele>748.2</ele>
        <time>2026-07-08T08:05:59.000Z</time>
      </trkpt>
      <trkpt lat="45.82159" lon="1.86323">
        <ele>748</ele>
        <time>2026-07-08T08:06:00.000Z</time>
      </trkpt>
      <trkpt lat="45.82159" lon="1.86322">
        <ele>747.4</ele>
        <time>2026-07-08T08:06:01.000Z</time>
      </trkpt>
      <trkpt lat="45.82159" lon="1.86321">
        <ele>747.4</ele>
        <time>2026-07-08T08:06:02.000Z</time>
      </trkpt>
      <trkpt lat="45.8216" lon="1.86318">
        <ele>746.9</ele>
        <time>2026-07-08T08:06:03.000Z</time>
      </trkpt>
      <trkpt lat="45.82161" lon="1.86316">
        <ele>746.7</ele>
        <time>2026-07-08T08:06:04.000Z</time>
      </trkpt>
      <trkpt lat="45.82161" lon="1.86313">
        <ele>746.6</ele>
        <time>2026-07-08T08:06:05.000Z</time>
      </trkpt>
      <trkpt lat="45.82161" lon="1.86311">
        <ele>747.4</ele>
        <time>2026-07-08T08:06:06.000Z</time>
      </trkpt>
      <trkpt lat="45.82161" lon="1.86309">
        <ele>747.2</ele>
        <time>2026-07-08T08:06:07.000Z</time>
      </trkpt>
      <trkpt lat="45.82161" lon="1.86306">
        <ele>747.4</ele>
        <time>2026-07-08T08:06:08.000Z</time>
      </trkpt>
      <trkpt lat="45.82161" lon="1.86303">
        <ele>747.7</ele>
        <time>2026-07-08T08:06:09.000Z</time>
      </trkpt>
      <trkpt lat="45.82161" lon="1.86301">
        <ele>748.1</ele>
        <time>2026-07-08T08:06:10.000Z</time>
      </trkpt>
      <trkpt lat="45.8216" lon="1.86299">
        <ele>748.5</ele>
        <time>2026-07-08T08:06:11.000Z</time>
      </trkpt>
      <trkpt lat="45.8216" lon="1.86297">
        <ele>748.5</ele>
        <time>2026-07-08T08:06:12.000Z</time>
      </trkpt>
      <trkpt lat="45.8216" lon="1.86294">
        <ele>747.9</ele>
        <time>2026-07-08T08:06:13.000Z</time>
      </trkpt>
      <trkpt lat="45.8216" lon="1.86292">
        <ele>745.7</ele>
        <time>2026-07-08T08:06:14.000Z</time>
      </trkpt>
      <trkpt lat="45.8216" lon="1.86288">
        <ele>744.9</ele>
        <time>2026-07-08T08:06:15.000Z</time>
      </trkpt>
      <trkpt lat="45.8216" lon="1.86286">
        <ele>744.3</ele>
        <time>2026-07-08T08:06:16.000Z</time>
      </trkpt>
      <trkpt lat="45.8216" lon="1.86283">
        <ele>745.1</ele>
        <time>2026-07-08T08:06:17.000Z</time>
      </trkpt>
      <trkpt lat="45.82159" lon="1.86281">
        <ele>744.5</ele>
        <time>2026-07-08T08:06:18.000Z</time>
      </trkpt>
      <trkpt lat="45.82159" lon="1.86279">
        <ele>744.5</ele>
        <time>2026-07-08T08:06:19.000Z</time>
      </trkpt>
      <trkpt lat="45.82159" lon="1.86277">
        <ele>743.8</ele>
        <time>2026-07-08T08:06:20.000Z</time>
      </trkpt>
      <trkpt lat="45.82158" lon="1.86274">
        <ele>743.2</ele>
        <time>2026-07-08T08:06:21.000Z</time>
      </trkpt>
      <trkpt lat="45.82158" lon="1.86271">
        <ele>743.1</ele>
        <time>2026-07-08T08:06:22.000Z</time>
      </trkpt>
      <trkpt lat="45.82157" lon="1.86269">
        <ele>743</ele>
        <time>2026-07-08T08:06:23.000Z</time>
      </trkpt>
      <trkpt lat="45.82158" lon="1.86266">
        <ele>742.5</ele>
        <time>2026-07-08T08:06:24.000Z</time>
      </trkpt>
      <trkpt lat="45.82157" lon="1.86264">
        <ele>741.7</ele>
        <time>2026-07-08T08:06:25.000Z</time>
      </trkpt>
      <trkpt lat="45.82158" lon="1.86261">
        <ele>742.3</ele>
        <time>2026-07-08T08:06:26.000Z</time>
      </trkpt>
      <trkpt lat="45.82157" lon="1.86259">
        <ele>741.5</ele>
        <time>2026-07-08T08:06:27.000Z</time>
      </trkpt>
      <trkpt lat="45.82157" lon="1.86256">
        <ele>741.4</ele>
        <time>2026-07-08T08:06:28.000Z</time>
      </trkpt>
      <trkpt lat="45.82157" lon="1.86254">
        <ele>741.1</ele>
        <time>2026-07-08T08:06:29.000Z</time>
      </trkpt>
      <trkpt lat="45.82158" lon="1.86252">
        <ele>740.9</ele>
        <time>2026-07-08T08:06:30.000Z</time>
      </trkpt>
      <trkpt lat="45.82158" lon="1.86249">
        <ele>740.9</ele>
        <time>2026-07-08T08:06:31.000Z</time>
      </trkpt>
      <trkpt lat="45.82157" lon="1.86247">
        <ele>741</ele>
        <time>2026-07-08T08:06:32.000Z</time>
      </trkpt>
      <trkpt lat="45.82158" lon="1.86244">
        <ele>741.3</ele>
        <time>2026-07-08T08:06:33.000Z</time>
      </trkpt>
      <trkpt lat="45.82158" lon="1.86242">
        <ele>741.4</ele>
        <time>2026-07-08T08:06:34.000Z</time>
      </trkpt>
      <trkpt lat="45.82157" lon="1.86239">
        <ele>741.4</ele>
        <time>2026-07-08T08:06:35.000Z</time>
      </trkpt>
      <trkpt lat="45.82157" lon="1.86237">
        <ele>741.2</ele>
        <time>2026-07-08T08:06:36.000Z</time>
      </trkpt>
      <trkpt lat="45.82158" lon="1.86234">
        <ele>740.9</ele>
        <time>2026-07-08T08:06:37.000Z</time>
      </trkpt>
      <trkpt lat="45.82157" lon="1.86232">
        <ele>741.3</ele>
        <time>2026-07-08T08:06:38.000Z</time>
      </trkpt>
      <trkpt lat="45.82156" lon="1.86229">
        <ele>741.9</ele>
        <time>2026-07-08T08:06:39.000Z</time>
      </trkpt>
      <trkpt lat="45.82156" lon="1.86226">
        <ele>743.4</ele>
        <time>2026-07-08T08:06:40.000Z</time>
      </trkpt>
      <trkpt lat="45.82156" lon="1.86224">
        <ele>743.8</ele>
        <time>2026-07-08T08:06:41.000Z</time>
      </trkpt>
      <trkpt lat="45.82157" lon="1.86221">
        <ele>744.3</ele>
        <time>2026-07-08T08:06:42.000Z</time>
      </trkpt>
      <trkpt lat="45.82158" lon="1.86218">
        <ele>744.7</ele>
        <time>2026-07-08T08:06:43.000Z</time>
      </trkpt>
      <trkpt lat="45.82158" lon="1.86216">
        <ele>744.3</ele>
        <time>2026-07-08T08:06:44.000Z</time>
      </trkpt>
      <trkpt lat="45.82159" lon="1.86213">
        <ele>742.8</ele>
        <time>2026-07-08T08:06:45.000Z</time>
      </trkpt>
      <trkpt lat="45.8216" lon="1.86211">
        <ele>743</ele>
        <time>2026-07-08T08:06:46.000Z</time>
      </trkpt>
      <trkpt lat="45.82161" lon="1.86209">
        <ele>743.2</ele>
        <time>2026-07-08T08:06:47.000Z</time>
      </trkpt>
      <trkpt lat="45.82162" lon="1.86207">
        <ele>743.3</ele>
        <time>2026-07-08T08:06:48.000Z</time>
      </trkpt>
      <trkpt lat="45.82162" lon="1.86205">
        <ele>742.7</ele>
        <time>2026-07-08T08:06:49.000Z</time>
      </trkpt>
      <trkpt lat="45.82163" lon="1.86202">
        <ele>742</ele>
        <time>2026-07-08T08:06:50.000Z</time>
      </trkpt>
      <trkpt lat="45.82163" lon="1.862">
        <ele>740.9</ele>
        <time>2026-07-08T08:06:51.000Z</time>
      </trkpt>
      <trkpt lat="45.82162" lon="1.86198">
        <ele>740.1</ele>
        <time>2026-07-08T08:06:52.000Z</time>
      </trkpt>
      <trkpt lat="45.82163" lon="1.86196">
        <ele>740</ele>
        <time>2026-07-08T08:06:53.000Z</time>
      </trkpt>
      <trkpt lat="45.82163" lon="1.86195">
        <ele>739.6</ele>
        <time>2026-07-08T08:06:54.000Z</time>
      </trkpt>
      <trkpt lat="45.82164" lon="1.86193">
        <ele>739.3</ele>
        <time>2026-07-08T08:06:55.000Z</time>
      </trkpt>
      <trkpt lat="45.82164" lon="1.86192">
        <ele>740.9</ele>
        <time>2026-07-08T08:06:56.000Z</time>
      </trkpt>
      <trkpt lat="45.82164" lon="1.8619">
        <ele>741.6</ele>
        <time>2026-07-08T08:06:57.000Z</time>
      </trkpt>
      <trkpt lat="45.82164" lon="1.86188">
        <ele>741.8</ele>
        <time>2026-07-08T08:06:58.000Z</time>
      </trkpt>
      <trkpt lat="45.82163" lon="1.86186">
        <ele>740.9</ele>
        <time>2026-07-08T08:06:59.000Z</time>
      </trkpt>
      <trkpt lat="45.82162" lon="1.86183">
        <ele>739.7</ele>
        <time>2026-07-08T08:07:00.000Z</time>
      </trkpt>
      <trkpt lat="45.82162" lon="1.86181">
        <ele>739.9</ele>
        <time>2026-07-08T08:07:01.000Z</time>
      </trkpt>
      <trkpt lat="45.82162" lon="1.86179">
        <ele>740.1</ele>
        <time>2026-07-08T08:07:02.000Z</time>
      </trkpt>
      <trkpt lat="45.82162" lon="1.86176">
        <ele>740.3</ele>
        <time>2026-07-08T08:07:03.000Z</time>
      </trkpt>
      <trkpt lat="45.82162" lon="1.86173">
        <ele>740.5</ele>
        <time>2026-07-08T08:07:04.000Z</time>
      </trkpt>
      <trkpt lat="45.82162" lon="1.86171">
        <ele>740.3</ele>
        <time>2026-07-08T08:07:05.000Z</time>
      </trkpt>
      <trkpt lat="45.82161" lon="1.86169">
        <ele>740.3</ele>
        <time>2026-07-08T08:07:06.000Z</time>
      </trkpt>
      <trkpt lat="45.82161" lon="1.86167">
        <ele>740.4</ele>
        <time>2026-07-08T08:07:07.000Z</time>
      </trkpt>
      <trkpt lat="45.82161" lon="1.86164">
        <ele>740.2</ele>
        <time>2026-07-08T08:07:08.000Z</time>
      </trkpt>
      <trkpt lat="45.82161" lon="1.86162">
        <ele>740.7</ele>
        <time>2026-07-08T08:07:09.000Z</time>
      </trkpt>
      <trkpt lat="45.82158" lon="1.86161">
        <ele>738.9</ele>
        <time>2026-07-08T08:07:10.000Z</time>
      </trkpt>
      <trkpt lat="45.82159" lon="1.86159">
        <ele>740.7</ele>
        <time>2026-07-08T08:07:11.000Z</time>
      </trkpt>
      <trkpt lat="45.82161" lon="1.86156">
        <ele>740.3</ele>
        <time>2026-07-08T08:07:12.000Z</time>
      </trkpt>
      <trkpt lat="45.82161" lon="1.86154">
        <ele>739.8</ele>
        <time>2026-07-08T08:07:13.000Z</time>
      </trkpt>
      <trkpt lat="45.8216" lon="1.86152">
        <ele>738.5</ele>
        <time>2026-07-08T08:07:14.000Z</time>
      </trkpt>
      <trkpt lat="45.82159" lon="1.8615">
        <ele>738</ele>
        <time>2026-07-08T08:07:15.000Z</time>
      </trkpt>
      <trkpt lat="45.82158" lon="1.86147">
        <ele>737.8</ele>
        <time>2026-07-08T08:07:16.000Z</time>
      </trkpt>
      <trkpt lat="45.82158" lon="1.86145">
        <ele>737.2</ele>
        <time>2026-07-08T08:07:17.000Z</time>
      </trkpt>
      <trkpt lat="45.82158" lon="1.86142">
        <ele>737.1</ele>
        <time>2026-07-08T08:07:18.000Z</time>
      </trkpt>
      <trkpt lat="45.82157" lon="1.8614">
        <ele>736.4</ele>
        <time>2026-07-08T08:07:19.000Z</time>
      </trkpt>
      <trkpt lat="45.82157" lon="1.86138">
        <ele>735.7</ele>
        <time>2026-07-08T08:07:20.000Z</time>
      </trkpt>
      <trkpt lat="45.82157" lon="1.86136">
        <ele>734.8</ele>
        <time>2026-07-08T08:07:21.000Z</time>
      </trkpt>
      <trkpt lat="45.82156" lon="1.86134">
        <ele>735.1</ele>
        <time>2026-07-08T08:07:22.000Z</time>
      </trkpt>
      <trkpt lat="45.82155" lon="1.86132">
        <ele>735.4</ele>
        <time>2026-07-08T08:07:23.000Z</time>
      </trkpt>
      <trkpt lat="45.82156" lon="1.8613">
        <ele>735</ele>
        <time>2026-07-08T08:07:24.000Z</time>
      </trkpt>
      <trkpt lat="45.82156" lon="1.86127">
        <ele>734.5</ele>
        <time>2026-07-08T08:07:25.000Z</time>
      </trkpt>
      <trkpt lat="45.82156" lon="1.86125">
        <ele>733.9</ele>
        <time>2026-07-08T08:07:26.000Z</time>
      </trkpt>
      <trkpt lat="45.82156" lon="1.86123">
        <ele>733.8</ele>
        <time>2026-07-08T08:07:27.000Z</time>
      </trkpt>
      <trkpt lat="45.82157" lon="1.86121">
        <ele>733.8</ele>
        <time>2026-07-08T08:07:28.000Z</time>
      </trkpt>
      <trkpt lat="45.82157" lon="1.86118">
        <ele>733.1</ele>
        <time>2026-07-08T08:07:29.000Z</time>
      </trkpt>
      <trkpt lat="45.82158" lon="1.86116">
        <ele>732</ele>
        <time>2026-07-08T08:07:30.000Z</time>
      </trkpt>
      <trkpt lat="45.82158" lon="1.86113">
        <ele>731.3</ele>
        <time>2026-07-08T08:07:31.000Z</time>
      </trkpt>
      <trkpt lat="45.82159" lon="1.86111">
        <ele>731</ele>
        <time>2026-07-08T08:07:32.000Z</time>
      </trkpt>
      <trkpt lat="45.82158" lon="1.86108">
        <ele>731</ele>
        <time>2026-07-08T08:07:33.000Z</time>
      </trkpt>
      <trkpt lat="45.82158" lon="1.86107">
        <ele>730.7</ele>
        <time>2026-07-08T08:07:34.000Z</time>
      </trkpt>
      <trkpt lat="45.82157" lon="1.86105">
        <ele>730.6</ele>
        <time>2026-07-08T08:07:35.000Z</time>
      </trkpt>
      <trkpt lat="45.82157" lon="1.86103">
        <ele>730.3</ele>
        <time>2026-07-08T08:07:36.000Z</time>
      </trkpt>
      <trkpt lat="45.82157" lon="1.86101">
        <ele>730.5</ele>
        <time>2026-07-08T08:07:37.000Z</time>
      </trkpt>
      <trkpt lat="45.82157" lon="1.86098">
        <ele>730.6</ele>
        <time>2026-07-08T08:07:38.000Z</time>
      </trkpt>
      <trkpt lat="45.82157" lon="1.86096">
        <ele>730.5</ele>
        <time>2026-07-08T08:07:39.000Z</time>
      </trkpt>
      <trkpt lat="45.82157" lon="1.86094">
        <ele>730.5</ele>
        <time>2026-07-08T08:07:40.000Z</time>
      </trkpt>
      <trkpt lat="45.82157" lon="1.86091">
        <ele>730</ele>
        <time>2026-07-08T08:07:41.000Z</time>
      </trkpt>
      <trkpt lat="45.82157" lon="1.86089">
        <ele>729.3</ele>
        <time>2026-07-08T08:07:42.000Z</time>
      </trkpt>
      <trkpt lat="45.82157" lon="1.86087">
        <ele>729.4</ele>
        <time>2026-07-08T08:07:43.000Z</time>
      </trkpt>
      <trkpt lat="45.82157" lon="1.86084">
        <ele>729.6</ele>
        <time>2026-07-08T08:07:44.000Z</time>
      </trkpt>
      <trkpt lat="45.82156" lon="1.86081">
        <ele>729.9</ele>
        <time>2026-07-08T08:07:45.000Z</time>
      </trkpt>
      <trkpt lat="45.82156" lon="1.86079">
        <ele>730.4</ele>
        <time>2026-07-08T08:07:46.000Z</time>
      </trkpt>
      <trkpt lat="45.82156" lon="1.86076">
        <ele>730.9</ele>
        <time>2026-07-08T08:07:47.000Z</time>
      </trkpt>
      <trkpt lat="45.82156" lon="1.86074">
        <ele>730</ele>
        <time>2026-07-08T08:07:48.000Z</time>
      </trkpt>
      <trkpt lat="45.82156" lon="1.86072">
        <ele>729.4</ele>
        <time>2026-07-08T08:07:49.000Z</time>
      </trkpt>
      <trkpt lat="45.82155" lon="1.8607">
        <ele>728.4</ele>
        <time>2026-07-08T08:07:50.000Z</time>
      </trkpt>
      <trkpt lat="45.82154" lon="1.86067">
        <ele>728.3</ele>
        <time>2026-07-08T08:07:51.000Z</time>
      </trkpt>
      <trkpt lat="45.82153" lon="1.86065">
        <ele>728.5</ele>
        <time>2026-07-08T08:07:52.000Z</time>
      </trkpt>
      <trkpt lat="45.82151" lon="1.86063">
        <ele>727.9</ele>
        <time>2026-07-08T08:07:53.000Z</time>
      </trkpt>
      <trkpt lat="45.8215" lon="1.8606">
        <ele>727.9</ele>
        <time>2026-07-08T08:07:54.000Z</time>
      </trkpt>
      <trkpt lat="45.82149" lon="1.86057">
        <ele>728</ele>
        <time>2026-07-08T08:07:55.000Z</time>
      </trkpt>
      <trkpt lat="45.82148" lon="1.86054">
        <ele>728.9</ele>
        <time>2026-07-08T08:07:56.000Z</time>
      </trkpt>
      <trkpt lat="45.82148" lon="1.86052">
        <ele>727.8</ele>
        <time>2026-07-08T08:07:57.000Z</time>
      </trkpt>
      <trkpt lat="45.82148" lon="1.86048">
        <ele>726.4</ele>
        <time>2026-07-08T08:07:58.000Z</time>
      </trkpt>
      <trkpt lat="45.82147" lon="1.86046">
        <ele>726.3</ele>
        <time>2026-07-08T08:07:59.000Z</time>
      </trkpt>
      <trkpt lat="45.82147" lon="1.86044">
        <ele>727</ele>
        <time>2026-07-08T08:08:00.000Z</time>
      </trkpt>
      <trkpt lat="45.82147" lon="1.86042">
        <ele>727.1</ele>
        <time>2026-07-08T08:08:01.000Z</time>
      </trkpt>
      <trkpt lat="45.82148" lon="1.8604">
        <ele>727.1</ele>
        <time>2026-07-08T08:08:02.000Z</time>
      </trkpt>
      <trkpt lat="45.82148" lon="1.86038">
        <ele>727.3</ele>
        <time>2026-07-08T08:08:03.000Z</time>
      </trkpt>
      <trkpt lat="45.82148" lon="1.86036">
        <ele>727.1</ele>
        <time>2026-07-08T08:08:04.000Z</time>
      </trkpt>
      <trkpt lat="45.82149" lon="1.86034">
        <ele>725.7</ele>
        <time>2026-07-08T08:08:05.000Z</time>
      </trkpt>
      <trkpt lat="45.8215" lon="1.86032">
        <ele>725.7</ele>
        <time>2026-07-08T08:08:06.000Z</time>
      </trkpt>
      <trkpt lat="45.82152" lon="1.86031">
        <ele>725</ele>
        <time>2026-07-08T08:08:07.000Z</time>
      </trkpt>
      <trkpt lat="45.82152" lon="1.86029">
        <ele>724.7</ele>
        <time>2026-07-08T08:08:08.000Z</time>
      </trkpt>
      <trkpt lat="45.82152" lon="1.86027">
        <ele>724.7</ele>
        <time>2026-07-08T08:08:09.000Z</time>
      </trkpt>
      <trkpt lat="45.82153" lon="1.86024">
        <ele>724</ele>
        <time>2026-07-08T08:08:10.000Z</time>
      </trkpt>
      <trkpt lat="45.82154" lon="1.86023">
        <ele>723.7</ele>
        <time>2026-07-08T08:08:11.000Z</time>
      </trkpt>
      <trkpt lat="45.82155" lon="1.86021">
        <ele>723.1</ele>
        <time>2026-07-08T08:08:12.000Z</time>
      </trkpt>
      <trkpt lat="45.82156" lon="1.86019">
        <ele>722.6</ele>
        <time>2026-07-08T08:08:13.000Z</time>
      </trkpt>
      <trkpt lat="45.82157" lon="1.86017">
        <ele>721.7</ele>
        <time>2026-07-08T08:08:14.000Z</time>
      </trkpt>
      <trkpt lat="45.82159" lon="1.86015">
        <ele>721.8</ele>
        <time>2026-07-08T08:08:15.000Z</time>
      </trkpt>
      <trkpt lat="45.8216" lon="1.86013">
        <ele>721.2</ele>
        <time>2026-07-08T08:08:16.000Z</time>
      </trkpt>
      <trkpt lat="45.82162" lon="1.86012">
        <ele>721.1</ele>
        <time>2026-07-08T08:08:17.000Z</time>
      </trkpt>
      <trkpt lat="45.82164" lon="1.86011">
        <ele>721.7</ele>
        <time>2026-07-08T08:08:18.000Z</time>
      </trkpt>
      <trkpt lat="45.82165" lon="1.8601">
        <ele>721.5</ele>
        <time>2026-07-08T08:08:19.000Z</time>
      </trkpt>
      <trkpt lat="45.82167" lon="1.86008">
        <ele>722.3</ele>
        <time>2026-07-08T08:08:20.000Z</time>
      </trkpt>
      <trkpt lat="45.82169" lon="1.86007">
        <ele>722.5</ele>
        <time>2026-07-08T08:08:21.000Z</time>
      </trkpt>
      <trkpt lat="45.8217" lon="1.86007">
        <ele>722.5</ele>
        <time>2026-07-08T08:08:22.000Z</time>
      </trkpt>
      <trkpt lat="45.82172" lon="1.86007">
        <ele>721.6</ele>
        <time>2026-07-08T08:08:23.000Z</time>
      </trkpt>
      <trkpt lat="45.82173" lon="1.86006">
        <ele>721.6</ele>
        <time>2026-07-08T08:08:24.000Z</time>
      </trkpt>
      <trkpt lat="45.82175" lon="1.86006">
        <ele>721.2</ele>
        <time>2026-07-08T08:08:25.000Z</time>
      </trkpt>
      <trkpt lat="45.82176" lon="1.86005">
        <ele>721</ele>
        <time>2026-07-08T08:08:26.000Z</time>
      </trkpt>
      <trkpt lat="45.82177" lon="1.86004">
        <ele>720.9</ele>
        <time>2026-07-08T08:08:27.000Z</time>
      </trkpt>
      <trkpt lat="45.82179" lon="1.86004">
        <ele>720.5</ele>
        <time>2026-07-08T08:08:28.000Z</time>
      </trkpt>
      <trkpt lat="45.8218" lon="1.86003">
        <ele>720.3</ele>
        <time>2026-07-08T08:08:29.000Z</time>
      </trkpt>
      <trkpt lat="45.82181" lon="1.86002">
        <ele>721.3</ele>
        <time>2026-07-08T08:08:30.000Z</time>
      </trkpt>
      <trkpt lat="45.82182" lon="1.86001">
        <ele>721.5</ele>
        <time>2026-07-08T08:08:31.000Z</time>
      </trkpt>
      <trkpt lat="45.82183" lon="1.86">
        <ele>721.1</ele>
        <time>2026-07-08T08:08:32.000Z</time>
      </trkpt>
      <trkpt lat="45.82184" lon="1.85998">
        <ele>720.8</ele>
        <time>2026-07-08T08:08:33.000Z</time>
      </trkpt>
      <trkpt lat="45.82184" lon="1.85996">
        <ele>720.4</ele>
        <time>2026-07-08T08:08:34.000Z</time>
      </trkpt>
      <trkpt lat="45.82185" lon="1.85994">
        <ele>719.8</ele>
        <time>2026-07-08T08:08:35.000Z</time>
      </trkpt>
      <trkpt lat="45.82186" lon="1.85993">
        <ele>719.7</ele>
        <time>2026-07-08T08:08:36.000Z</time>
      </trkpt>
      <trkpt lat="45.82186" lon="1.85991">
        <ele>719.9</ele>
        <time>2026-07-08T08:08:37.000Z</time>
      </trkpt>
      <trkpt lat="45.82188" lon="1.85989">
        <ele>718.9</ele>
        <time>2026-07-08T08:08:38.000Z</time>
      </trkpt>
      <trkpt lat="45.82189" lon="1.85988">
        <ele>719.7</ele>
        <time>2026-07-08T08:08:39.000Z</time>
      </trkpt>
      <trkpt lat="45.82191" lon="1.85986">
        <ele>718.8</ele>
        <time>2026-07-08T08:08:40.000Z</time>
      </trkpt>
      <trkpt lat="45.82192" lon="1.85984">
        <ele>718.7</ele>
        <time>2026-07-08T08:08:41.000Z</time>
      </trkpt>
      <trkpt lat="45.82194" lon="1.85982">
        <ele>718.4</ele>
        <time>2026-07-08T08:08:42.000Z</time>
      </trkpt>
      <trkpt lat="45.82195" lon="1.8598">
        <ele>718.7</ele>
        <time>2026-07-08T08:08:43.000Z</time>
      </trkpt>
      <trkpt lat="45.82197" lon="1.85978">
        <ele>718.1</ele>
        <time>2026-07-08T08:08:44.000Z</time>
      </trkpt>
      <trkpt lat="45.82199" lon="1.85977">
        <ele>717.7</ele>
        <time>2026-07-08T08:08:45.000Z</time>
      </trkpt>
      <trkpt lat="45.822" lon="1.85975">
        <ele>717.7</ele>
        <time>2026-07-08T08:08:46.000Z</time>
      </trkpt>
      <trkpt lat="45.82202" lon="1.85973">
        <ele>717.3</ele>
        <time>2026-07-08T08:08:47.000Z</time>
      </trkpt>
      <trkpt lat="45.82202" lon="1.8597">
        <ele>716.8</ele>
        <time>2026-07-08T08:08:48.000Z</time>
      </trkpt>
      <trkpt lat="45.82204" lon="1.85968">
        <ele>716.6</ele>
        <time>2026-07-08T08:08:49.000Z</time>
      </trkpt>
      <trkpt lat="45.82205" lon="1.85966">
        <ele>717</ele>
        <time>2026-07-08T08:08:50.000Z</time>
      </trkpt>
      <trkpt lat="45.82207" lon="1.85964">
        <ele>717.1</ele>
        <time>2026-07-08T08:08:51.000Z</time>
      </trkpt>
      <trkpt lat="45.82209" lon="1.85962">
        <ele>716.5</ele>
        <time>2026-07-08T08:08:52.000Z</time>
      </trkpt>
      <trkpt lat="45.8221" lon="1.85959">
        <ele>716.2</ele>
        <time>2026-07-08T08:08:53.000Z</time>
      </trkpt>
      <trkpt lat="45.82211" lon="1.85957">
        <ele>717.1</ele>
        <time>2026-07-08T08:08:54.000Z</time>
      </trkpt>
      <trkpt lat="45.82212" lon="1.85955">
        <ele>716.7</ele>
        <time>2026-07-08T08:08:55.000Z</time>
      </trkpt>
      <trkpt lat="45.82212" lon="1.85955">
        <ele>716</ele>
        <time>2026-07-08T08:08:56.000Z</time>
      </trkpt>
      <trkpt lat="45.82212" lon="1.85955">
        <ele>716</ele>
        <time>2026-07-08T08:08:57.000Z</time>
      </trkpt>
      <trkpt lat="45.82214" lon="1.85955">
        <ele>716</ele>
        <time>2026-07-08T08:08:58.000Z</time>
      </trkpt>
      <trkpt lat="45.82215" lon="1.85954">
        <ele>717.4</ele>
        <time>2026-07-08T08:08:59.000Z</time>
      </trkpt>
      <trkpt lat="45.82216" lon="1.85953">
        <ele>717.6</ele>
        <time>2026-07-08T08:09:00.000Z</time>
      </trkpt>
      <trkpt lat="45.82218" lon="1.85953">
        <ele>719.1</ele>
        <time>2026-07-08T08:09:01.000Z</time>
      </trkpt>
      <trkpt lat="45.82219" lon="1.85952">
        <ele>719.9</ele>
        <time>2026-07-08T08:09:02.000Z</time>
      </trkpt>
      <trkpt lat="45.8222" lon="1.85951">
        <ele>718.9</ele>
        <time>2026-07-08T08:09:03.000Z</time>
      </trkpt>
      <trkpt lat="45.82219" lon="1.85951">
        <ele>718.1</ele>
        <time>2026-07-08T08:09:04.000Z</time>
      </trkpt>
      <trkpt lat="45.8222" lon="1.8595">
        <ele>718.9</ele>
        <time>2026-07-08T08:09:05.000Z</time>
      </trkpt>
      <trkpt lat="45.8222" lon="1.8595">
        <ele>718.9</ele>
        <time>2026-07-08T08:09:06.000Z</time>
      </trkpt>
      <trkpt lat="45.8222" lon="1.8595">
        <ele>719.2</ele>
        <time>2026-07-08T08:09:07.000Z</time>
      </trkpt>
      <trkpt lat="45.8222" lon="1.8595">
        <ele>719.2</ele>
        <time>2026-07-08T08:09:08.000Z</time>
      </trkpt>
      <trkpt lat="45.8222" lon="1.85949">
        <ele>719.4</ele>
        <time>2026-07-08T08:09:09.000Z</time>
      </trkpt>
      <trkpt lat="45.8222" lon="1.85948">
        <ele>719.4</ele>
        <time>2026-07-08T08:09:10.000Z</time>
      </trkpt>
      <trkpt lat="45.8222" lon="1.85946">
        <ele>719.1</ele>
        <time>2026-07-08T08:09:11.000Z</time>
      </trkpt>
      <trkpt lat="45.8222" lon="1.85944">
        <ele>718.7</ele>
        <time>2026-07-08T08:09:12.000Z</time>
      </trkpt>
      <trkpt lat="45.8222" lon="1.85942">
        <ele>719.3</ele>
        <time>2026-07-08T08:09:13.000Z</time>
      </trkpt>
      <trkpt lat="45.82221" lon="1.8594">
        <ele>719.5</ele>
        <time>2026-07-08T08:09:14.000Z</time>
      </trkpt>
      <trkpt lat="45.82221" lon="1.85938">
        <ele>719</ele>
        <time>2026-07-08T08:09:15.000Z</time>
      </trkpt>
      <trkpt lat="45.82221" lon="1.85936">
        <ele>719.2</ele>
        <time>2026-07-08T08:09:16.000Z</time>
      </trkpt>
      <trkpt lat="45.82222" lon="1.85934">
        <ele>719</ele>
        <time>2026-07-08T08:09:17.000Z</time>
      </trkpt>
      <trkpt lat="45.82223" lon="1.85932">
        <ele>718.8</ele>
        <time>2026-07-08T08:09:18.000Z</time>
      </trkpt>
      <trkpt lat="45.82222" lon="1.85931">
        <ele>718.5</ele>
        <time>2026-07-08T08:09:19.000Z</time>
      </trkpt>
      <trkpt lat="45.82223" lon="1.85929">
        <ele>718.3</ele>
        <time>2026-07-08T08:09:20.000Z</time>
      </trkpt>
      <trkpt lat="45.82223" lon="1.85927">
        <ele>718</ele>
        <time>2026-07-08T08:09:21.000Z</time>
      </trkpt>
      <trkpt lat="45.82223" lon="1.85924">
        <ele>717.7</ele>
        <time>2026-07-08T08:09:22.000Z</time>
      </trkpt>
      <trkpt lat="45.82223" lon="1.85922">
        <ele>717.5</ele>
        <time>2026-07-08T08:09:23.000Z</time>
      </trkpt>
      <trkpt lat="45.82224" lon="1.8592">
        <ele>717.8</ele>
        <time>2026-07-08T08:09:24.000Z</time>
      </trkpt>
      <trkpt lat="45.82224" lon="1.85919">
        <ele>718.5</ele>
        <time>2026-07-08T08:09:25.000Z</time>
      </trkpt>
      <trkpt lat="45.82225" lon="1.85917">
        <ele>718.4</ele>
        <time>2026-07-08T08:09:26.000Z</time>
      </trkpt>
      <trkpt lat="45.82226" lon="1.85914">
        <ele>717.9</ele>
        <time>2026-07-08T08:09:27.000Z</time>
      </trkpt>
      <trkpt lat="45.82226" lon="1.85912">
        <ele>716.7</ele>
        <time>2026-07-08T08:09:28.000Z</time>
      </trkpt>
      <trkpt lat="45.82227" lon="1.85911">
        <ele>717</ele>
        <time>2026-07-08T08:09:29.000Z</time>
      </trkpt>
      <trkpt lat="45.82228" lon="1.85908">
        <ele>717.8</ele>
        <time>2026-07-08T08:09:30.000Z</time>
      </trkpt>
      <trkpt lat="45.82229" lon="1.85905">
        <ele>716.9</ele>
        <time>2026-07-08T08:09:31.000Z</time>
      </trkpt>
      <trkpt lat="45.82229" lon="1.85903">
        <ele>716.2</ele>
        <time>2026-07-08T08:09:32.000Z</time>
      </trkpt>
      <trkpt lat="45.8223" lon="1.859">
        <ele>716.5</ele>
        <time>2026-07-08T08:09:33.000Z</time>
      </trkpt>
      <trkpt lat="45.82231" lon="1.85898">
        <ele>716.5</ele>
        <time>2026-07-08T08:09:34.000Z</time>
      </trkpt>
      <trkpt lat="45.82232" lon="1.85896">
        <ele>716.6</ele>
        <time>2026-07-08T08:09:35.000Z</time>
      </trkpt>
      <trkpt lat="45.82233" lon="1.85894">
        <ele>716.6</ele>
        <time>2026-07-08T08:09:36.000Z</time>
      </trkpt>
      <trkpt lat="45.82234" lon="1.85891">
        <ele>717.1</ele>
        <time>2026-07-08T08:09:37.000Z</time>
      </trkpt>
      <trkpt lat="45.82234" lon="1.85888">
        <ele>717.8</ele>
        <time>2026-07-08T08:09:38.000Z</time>
      </trkpt>
      <trkpt lat="45.82234" lon="1.85885">
        <ele>718.2</ele>
        <time>2026-07-08T08:09:39.000Z</time>
      </trkpt>
      <trkpt lat="45.82235" lon="1.85883">
        <ele>719</ele>
        <time>2026-07-08T08:09:40.000Z</time>
      </trkpt>
      <trkpt lat="45.82236" lon="1.85881">
        <ele>721</ele>
        <time>2026-07-08T08:09:41.000Z</time>
      </trkpt>
      <trkpt lat="45.82236" lon="1.85879">
        <ele>720.9</ele>
        <time>2026-07-08T08:09:42.000Z</time>
      </trkpt>
      <trkpt lat="45.82237" lon="1.85876">
        <ele>721</ele>
        <time>2026-07-08T08:09:43.000Z</time>
      </trkpt>
      <trkpt lat="45.82238" lon="1.85874">
        <ele>720.9</ele>
        <time>2026-07-08T08:09:44.000Z</time>
      </trkpt>
      <trkpt lat="45.82239" lon="1.85871">
        <ele>719.9</ele>
        <time>2026-07-08T08:09:45.000Z</time>
      </trkpt>
      <trkpt lat="45.8224" lon="1.85869">
        <ele>719.8</ele>
        <time>2026-07-08T08:09:46.000Z</time>
      </trkpt>
      <trkpt lat="45.8224" lon="1.85866">
        <ele>719.3</ele>
        <time>2026-07-08T08:09:47.000Z</time>
      </trkpt>
      <trkpt lat="45.8224" lon="1.85864">
        <ele>718.7</ele>
        <time>2026-07-08T08:09:48.000Z</time>
      </trkpt>
      <trkpt lat="45.82239" lon="1.85861">
        <ele>719.2</ele>
        <time>2026-07-08T08:09:49.000Z</time>
      </trkpt>
      <trkpt lat="45.82239" lon="1.85859">
        <ele>716.6</ele>
        <time>2026-07-08T08:09:50.000Z</time>
      </trkpt>
      <trkpt lat="45.82239" lon="1.85858">
        <ele>715.2</ele>
        <time>2026-07-08T08:09:51.000Z</time>
      </trkpt>
      <trkpt lat="45.82239" lon="1.85856">
        <ele>714.4</ele>
        <time>2026-07-08T08:09:52.000Z</time>
      </trkpt>
      <trkpt lat="45.82239" lon="1.85854">
        <ele>714.9</ele>
        <time>2026-07-08T08:09:53.000Z</time>
      </trkpt>
      <trkpt lat="45.8224" lon="1.85851">
        <ele>713.7</ele>
        <time>2026-07-08T08:09:54.000Z</time>
      </trkpt>
      <trkpt lat="45.82239" lon="1.85849">
        <ele>713.3</ele>
        <time>2026-07-08T08:09:55.000Z</time>
      </trkpt>
      <trkpt lat="45.82239" lon="1.85846">
        <ele>712.8</ele>
        <time>2026-07-08T08:09:56.000Z</time>
      </trkpt>
      <trkpt lat="45.82239" lon="1.85844">
        <ele>712.8</ele>
        <time>2026-07-08T08:09:57.000Z</time>
      </trkpt>
      <trkpt lat="45.82239" lon="1.85842">
        <ele>712.7</ele>
        <time>2026-07-08T08:09:58.000Z</time>
      </trkpt>
      <trkpt lat="45.82238" lon="1.85841">
        <ele>712.7</ele>
        <time>2026-07-08T08:09:59.000Z</time>
      </trkpt>
      <trkpt lat="45.82238" lon="1.85839">
        <ele>713</ele>
        <time>2026-07-08T08:10:00.000Z</time>
      </trkpt>
      <trkpt lat="45.82238" lon="1.85837">
        <ele>712.3</ele>
        <time>2026-07-08T08:10:01.000Z</time>
      </trkpt>
      <trkpt lat="45.82237" lon="1.85835">
        <ele>712.3</ele>
        <time>2026-07-08T08:10:02.000Z</time>
      </trkpt>
      <trkpt lat="45.82237" lon="1.85833">
        <ele>712.6</ele>
        <time>2026-07-08T08:10:03.000Z</time>
      </trkpt>
      <trkpt lat="45.82237" lon="1.8583">
        <ele>713.2</ele>
        <time>2026-07-08T08:10:04.000Z</time>
      </trkpt>
      <trkpt lat="45.82237" lon="1.85828">
        <ele>713.2</ele>
        <time>2026-07-08T08:10:05.000Z</time>
      </trkpt>
      <trkpt lat="45.82237" lon="1.85825">
        <ele>714.2</ele>
        <time>2026-07-08T08:10:06.000Z</time>
      </trkpt>
      <trkpt lat="45.82237" lon="1.85823">
        <ele>713.4</ele>
        <time>2026-07-08T08:10:07.000Z</time>
      </trkpt>
      <trkpt lat="45.82237" lon="1.85821">
        <ele>712.7</ele>
        <time>2026-07-08T08:10:08.000Z</time>
      </trkpt>
      <trkpt lat="45.82237" lon="1.85818">
        <ele>712.4</ele>
        <time>2026-07-08T08:10:09.000Z</time>
      </trkpt>
      <trkpt lat="45.82237" lon="1.85816">
        <ele>711.9</ele>
        <time>2026-07-08T08:10:10.000Z</time>
      </trkpt>
      <trkpt lat="45.82237" lon="1.85813">
        <ele>711.8</ele>
        <time>2026-07-08T08:10:11.000Z</time>
      </trkpt>
      <trkpt lat="45.82237" lon="1.85811">
        <ele>712.1</ele>
        <time>2026-07-08T08:10:12.000Z</time>
      </trkpt>
      <trkpt lat="45.82236" lon="1.85808">
        <ele>712.1</ele>
        <time>2026-07-08T08:10:13.000Z</time>
      </trkpt>
      <trkpt lat="45.82236" lon="1.85805">
        <ele>712.5</ele>
        <time>2026-07-08T08:10:14.000Z</time>
      </trkpt>
      <trkpt lat="45.82237" lon="1.85802">
        <ele>712.8</ele>
        <time>2026-07-08T08:10:15.000Z</time>
      </trkpt>
      <trkpt lat="45.82236" lon="1.858">
        <ele>712.8</ele>
        <time>2026-07-08T08:10:16.000Z</time>
      </trkpt>
      <trkpt lat="45.82236" lon="1.85797">
        <ele>712.4</ele>
        <time>2026-07-08T08:10:17.000Z</time>
      </trkpt>
      <trkpt lat="45.82236" lon="1.85795">
        <ele>712.2</ele>
        <time>2026-07-08T08:10:18.000Z</time>
      </trkpt>
      <trkpt lat="45.82235" lon="1.85793">
        <ele>712.4</ele>
        <time>2026-07-08T08:10:19.000Z</time>
      </trkpt>
      <trkpt lat="45.82235" lon="1.8579">
        <ele>712.6</ele>
        <time>2026-07-08T08:10:20.000Z</time>
      </trkpt>
      <trkpt lat="45.82235" lon="1.85788">
        <ele>713.5</ele>
        <time>2026-07-08T08:10:21.000Z</time>
      </trkpt>
      <trkpt lat="45.82235" lon="1.85785">
        <ele>713.5</ele>
        <time>2026-07-08T08:10:22.000Z</time>
      </trkpt>
      <trkpt lat="45.82235" lon="1.85782">
        <ele>713.4</ele>
        <time>2026-07-08T08:10:23.000Z</time>
      </trkpt>
      <trkpt lat="45.82234" lon="1.8578">
        <ele>713.2</ele>
        <time>2026-07-08T08:10:24.000Z</time>
      </trkpt>
      <trkpt lat="45.82234" lon="1.85778">
        <ele>713.5</ele>
        <time>2026-07-08T08:10:25.000Z</time>
      </trkpt>
      <trkpt lat="45.82233" lon="1.85776">
        <ele>713.1</ele>
        <time>2026-07-08T08:10:26.000Z</time>
      </trkpt>
      <trkpt lat="45.82233" lon="1.85774">
        <ele>712.9</ele>
        <time>2026-07-08T08:10:27.000Z</time>
      </trkpt>
      <trkpt lat="45.82233" lon="1.85771">
        <ele>712.9</ele>
        <time>2026-07-08T08:10:28.000Z</time>
      </trkpt>
      <trkpt lat="45.82232" lon="1.85769">
        <ele>712.8</ele>
        <time>2026-07-08T08:10:29.000Z</time>
      </trkpt>
      <trkpt lat="45.82232" lon="1.85766">
        <ele>712.9</ele>
        <time>2026-07-08T08:10:30.000Z</time>
      </trkpt>
      <trkpt lat="45.82231" lon="1.85764">
        <ele>712.5</ele>
        <time>2026-07-08T08:10:31.000Z</time>
      </trkpt>
      <trkpt lat="45.8223" lon="1.85762">
        <ele>712.1</ele>
        <time>2026-07-08T08:10:32.000Z</time>
      </trkpt>
      <trkpt lat="45.82229" lon="1.85761">
        <ele>712.4</ele>
        <time>2026-07-08T08:10:33.000Z</time>
      </trkpt>
      <trkpt lat="45.82228" lon="1.85759">
        <ele>712.5</ele>
        <time>2026-07-08T08:10:34.000Z</time>
      </trkpt>
      <trkpt lat="45.82227" lon="1.85757">
        <ele>712.4</ele>
        <time>2026-07-08T08:10:35.000Z</time>
      </trkpt>
      <trkpt lat="45.82226" lon="1.85755">
        <ele>712.7</ele>
        <time>2026-07-08T08:10:36.000Z</time>
      </trkpt>
      <trkpt lat="45.82224" lon="1.85753">
        <ele>712.8</ele>
        <time>2026-07-08T08:10:37.000Z</time>
      </trkpt>
      <trkpt lat="45.82223" lon="1.85751">
        <ele>713.4</ele>
        <time>2026-07-08T08:10:38.000Z</time>
      </trkpt>
      <trkpt lat="45.82221" lon="1.8575">
        <ele>712.9</ele>
        <time>2026-07-08T08:10:39.000Z</time>
      </trkpt>
      <trkpt lat="45.8222" lon="1.85749">
        <ele>712.8</ele>
        <time>2026-07-08T08:10:40.000Z</time>
      </trkpt>
      <trkpt lat="45.82218" lon="1.85748">
        <ele>712.3</ele>
        <time>2026-07-08T08:10:41.000Z</time>
      </trkpt>
      <trkpt lat="45.82217" lon="1.85747">
        <ele>712.1</ele>
        <time>2026-07-08T08:10:42.000Z</time>
      </trkpt>
      <trkpt lat="45.82216" lon="1.85746">
        <ele>712.4</ele>
        <time>2026-07-08T08:10:43.000Z</time>
      </trkpt>
      <trkpt lat="45.82215" lon="1.85745">
        <ele>712.1</ele>
        <time>2026-07-08T08:10:44.000Z</time>
      </trkpt>
      <trkpt lat="45.82213" lon="1.85743">
        <ele>712.1</ele>
        <time>2026-07-08T08:10:45.000Z</time>
      </trkpt>
      <trkpt lat="45.82212" lon="1.85742">
        <ele>712.2</ele>
        <time>2026-07-08T08:10:46.000Z</time>
      </trkpt>
      <trkpt lat="45.82211" lon="1.85741">
        <ele>711.9</ele>
        <time>2026-07-08T08:10:47.000Z</time>
      </trkpt>
      <trkpt lat="45.82209" lon="1.85739">
        <ele>711.7</ele>
        <time>2026-07-08T08:10:48.000Z</time>
      </trkpt>
      <trkpt lat="45.82208" lon="1.85738">
        <ele>711.1</ele>
        <time>2026-07-08T08:10:49.000Z</time>
      </trkpt>
      <trkpt lat="45.82207" lon="1.85737">
        <ele>710.7</ele>
        <time>2026-07-08T08:10:50.000Z</time>
      </trkpt>
      <trkpt lat="45.82205" lon="1.85736">
        <ele>710.8</ele>
        <time>2026-07-08T08:10:51.000Z</time>
      </trkpt>
      <trkpt lat="45.82204" lon="1.85735">
        <ele>710.6</ele>
        <time>2026-07-08T08:10:52.000Z</time>
      </trkpt>
      <trkpt lat="45.82202" lon="1.85733">
        <ele>710.4</ele>
        <time>2026-07-08T08:10:53.000Z</time>
      </trkpt>
      <trkpt lat="45.82201" lon="1.85732">
        <ele>710.2</ele>
        <time>2026-07-08T08:10:54.000Z</time>
      </trkpt>
      <trkpt lat="45.82199" lon="1.85731">
        <ele>710.6</ele>
        <time>2026-07-08T08:10:55.000Z</time>
      </trkpt>
      <trkpt lat="45.82198" lon="1.8573">
        <ele>710.8</ele>
        <time>2026-07-08T08:10:56.000Z</time>
      </trkpt>
      <trkpt lat="45.82196" lon="1.85729">
        <ele>710.7</ele>
        <time>2026-07-08T08:10:57.000Z</time>
      </trkpt>
      <trkpt lat="45.82195" lon="1.85727">
        <ele>710.3</ele>
        <time>2026-07-08T08:10:58.000Z</time>
      </trkpt>
      <trkpt lat="45.82194" lon="1.85726">
        <ele>709.9</ele>
        <time>2026-07-08T08:10:59.000Z</time>
      </trkpt>
      <trkpt lat="45.82193" lon="1.85725">
        <ele>709.8</ele>
        <time>2026-07-08T08:11:00.000Z</time>
      </trkpt>
      <trkpt lat="45.82192" lon="1.85724">
        <ele>709.4</ele>
        <time>2026-07-08T08:11:01.000Z</time>
      </trkpt>
      <trkpt lat="45.8219" lon="1.85723">
        <ele>709.2</ele>
        <time>2026-07-08T08:11:02.000Z</time>
      </trkpt>
      <trkpt lat="45.82189" lon="1.85721">
        <ele>709</ele>
        <time>2026-07-08T08:11:03.000Z</time>
      </trkpt>
      <trkpt lat="45.82188" lon="1.8572">
        <ele>708.7</ele>
        <time>2026-07-08T08:11:04.000Z</time>
      </trkpt>
      <trkpt lat="45.82188" lon="1.85719">
        <ele>708.4</ele>
        <time>2026-07-08T08:11:05.000Z</time>
      </trkpt>
      <trkpt lat="45.82187" lon="1.85717">
        <ele>708</ele>
        <time>2026-07-08T08:11:06.000Z</time>
      </trkpt>
      <trkpt lat="45.82187" lon="1.85714">
        <ele>707.8</ele>
        <time>2026-07-08T08:11:07.000Z</time>
      </trkpt>
      <trkpt lat="45.82186" lon="1.85713">
        <ele>707.5</ele>
        <time>2026-07-08T08:11:08.000Z</time>
      </trkpt>
      <trkpt lat="45.82185" lon="1.85712">
        <ele>707.2</ele>
        <time>2026-07-08T08:11:09.000Z</time>
      </trkpt>
      <trkpt lat="45.82183" lon="1.85711">
        <ele>706.9</ele>
        <time>2026-07-08T08:11:10.000Z</time>
      </trkpt>
      <trkpt lat="45.82182" lon="1.85711">
        <ele>707</ele>
        <time>2026-07-08T08:11:11.000Z</time>
      </trkpt>
      <trkpt lat="45.8218" lon="1.85711">
        <ele>706.9</ele>
        <time>2026-07-08T08:11:12.000Z</time>
      </trkpt>
      <trkpt lat="45.82179" lon="1.85713">
        <ele>706.9</ele>
        <time>2026-07-08T08:11:13.000Z</time>
      </trkpt>
      <trkpt lat="45.82178" lon="1.85714">
        <ele>706.9</ele>
        <time>2026-07-08T08:11:14.000Z</time>
      </trkpt>
      <trkpt lat="45.82176" lon="1.85716">
        <ele>706.8</ele>
        <time>2026-07-08T08:11:15.000Z</time>
      </trkpt>
      <trkpt lat="45.82175" lon="1.85717">
        <ele>706.8</ele>
        <time>2026-07-08T08:11:16.000Z</time>
      </trkpt>
      <trkpt lat="45.82174" lon="1.85719">
        <ele>706.5</ele>
        <time>2026-07-08T08:11:17.000Z</time>
      </trkpt>
      <trkpt lat="45.82173" lon="1.85721">
        <ele>706.5</ele>
        <time>2026-07-08T08:11:18.000Z</time>
      </trkpt>
      <trkpt lat="45.82172" lon="1.85723">
        <ele>706.6</ele>
        <time>2026-07-08T08:11:19.000Z</time>
      </trkpt>
      <trkpt lat="45.8217" lon="1.85725">
        <ele>706.5</ele>
        <time>2026-07-08T08:11:20.000Z</time>
      </trkpt>
      <trkpt lat="45.82169" lon="1.85727">
        <ele>706.4</ele>
        <time>2026-07-08T08:11:21.000Z</time>
      </trkpt>
      <trkpt lat="45.82168" lon="1.85729">
        <ele>706.5</ele>
        <time>2026-07-08T08:11:22.000Z</time>
      </trkpt>
      <trkpt lat="45.82167" lon="1.85731">
        <ele>706.6</ele>
        <time>2026-07-08T08:11:23.000Z</time>
      </trkpt>
      <trkpt lat="45.82166" lon="1.85733">
        <ele>706.4</ele>
        <time>2026-07-08T08:11:24.000Z</time>
      </trkpt>
      <trkpt lat="45.82165" lon="1.85735">
        <ele>706.3</ele>
        <time>2026-07-08T08:11:25.000Z</time>
      </trkpt>
      <trkpt lat="45.82164" lon="1.85737">
        <ele>706.2</ele>
        <time>2026-07-08T08:11:26.000Z</time>
      </trkpt>
      <trkpt lat="45.82163" lon="1.85738">
        <ele>706.2</ele>
        <time>2026-07-08T08:11:27.000Z</time>
      </trkpt>
      <trkpt lat="45.82161" lon="1.8574">
        <ele>706.7</ele>
        <time>2026-07-08T08:11:28.000Z</time>
      </trkpt>
      <trkpt lat="45.82161" lon="1.85741">
        <ele>706.6</ele>
        <time>2026-07-08T08:11:29.000Z</time>
      </trkpt>
      <trkpt lat="45.8216" lon="1.85743">
        <ele>706.9</ele>
        <time>2026-07-08T08:11:30.000Z</time>
      </trkpt>
      <trkpt lat="45.82159" lon="1.85745">
        <ele>706.7</ele>
        <time>2026-07-08T08:11:31.000Z</time>
      </trkpt>
      <trkpt lat="45.82159" lon="1.85747">
        <ele>706.5</ele>
        <time>2026-07-08T08:11:32.000Z</time>
      </trkpt>
      <trkpt lat="45.82159" lon="1.85749">
        <ele>706.3</ele>
        <time>2026-07-08T08:11:33.000Z</time>
      </trkpt>
      <trkpt lat="45.82159" lon="1.85752">
        <ele>706.4</ele>
        <time>2026-07-08T08:11:34.000Z</time>
      </trkpt>
      <trkpt lat="45.82158" lon="1.85754">
        <ele>706.4</ele>
        <time>2026-07-08T08:11:35.000Z</time>
      </trkpt>
      <trkpt lat="45.82157" lon="1.85756">
        <ele>706.3</ele>
        <time>2026-07-08T08:11:36.000Z</time>
      </trkpt>
      <trkpt lat="45.82157" lon="1.85758">
        <ele>706.5</ele>
        <time>2026-07-08T08:11:37.000Z</time>
      </trkpt>
      <trkpt lat="45.82156" lon="1.8576">
        <ele>706.3</ele>
        <time>2026-07-08T08:11:38.000Z</time>
      </trkpt>
      <trkpt lat="45.82155" lon="1.85761">
        <ele>706.2</ele>
        <time>2026-07-08T08:11:39.000Z</time>
      </trkpt>
      <trkpt lat="45.82154" lon="1.85763">
        <ele>706</ele>
        <time>2026-07-08T08:11:40.000Z</time>
      </trkpt>
      <trkpt lat="45.82153" lon="1.85765">
        <ele>705.9</ele>
        <time>2026-07-08T08:11:41.000Z</time>
      </trkpt>
      <trkpt lat="45.82152" lon="1.85767">
        <ele>705.8</ele>
        <time>2026-07-08T08:11:42.000Z</time>
      </trkpt>
      <trkpt lat="45.8215" lon="1.85769">
        <ele>705.2</ele>
        <time>2026-07-08T08:11:43.000Z</time>
      </trkpt>
      <trkpt lat="45.82149" lon="1.85771">
        <ele>705.4</ele>
        <time>2026-07-08T08:11:44.000Z</time>
      </trkpt>
      <trkpt lat="45.82147" lon="1.85772">
        <ele>705.3</ele>
        <time>2026-07-08T08:11:45.000Z</time>
      </trkpt>
      <trkpt lat="45.82146" lon="1.85773">
        <ele>705.3</ele>
        <time>2026-07-08T08:11:46.000Z</time>
      </trkpt>
      <trkpt lat="45.82144" lon="1.85773">
        <ele>705.1</ele>
        <time>2026-07-08T08:11:47.000Z</time>
      </trkpt>
      <trkpt lat="45.82142" lon="1.85774">
        <ele>705.2</ele>
        <time>2026-07-08T08:11:48.000Z</time>
      </trkpt>
      <trkpt lat="45.82141" lon="1.85775">
        <ele>705.3</ele>
        <time>2026-07-08T08:11:49.000Z</time>
      </trkpt>
      <trkpt lat="45.82139" lon="1.85776">
        <ele>705.5</ele>
        <time>2026-07-08T08:11:50.000Z</time>
      </trkpt>
      <trkpt lat="45.82137" lon="1.85777">
        <ele>705.5</ele>
        <time>2026-07-08T08:11:51.000Z</time>
      </trkpt>
      <trkpt lat="45.82136" lon="1.85777">
        <ele>705.3</ele>
        <time>2026-07-08T08:11:52.000Z</time>
      </trkpt>
      <trkpt lat="45.82134" lon="1.85777">
        <ele>704.9</ele>
        <time>2026-07-08T08:11:53.000Z</time>
      </trkpt>
      <trkpt lat="45.82132" lon="1.85778">
        <ele>704.8</ele>
        <time>2026-07-08T08:11:54.000Z</time>
      </trkpt>
      <trkpt lat="45.8213" lon="1.85778">
        <ele>704.7</ele>
        <time>2026-07-08T08:11:55.000Z</time>
      </trkpt>
      <trkpt lat="45.82129" lon="1.85779">
        <ele>704.6</ele>
        <time>2026-07-08T08:11:56.000Z</time>
      </trkpt>
      <trkpt lat="45.82127" lon="1.8578">
        <ele>704.4</ele>
        <time>2026-07-08T08:11:57.000Z</time>
      </trkpt>
      <trkpt lat="45.82126" lon="1.85781">
        <ele>704.5</ele>
        <time>2026-07-08T08:11:58.000Z</time>
      </trkpt>
      <trkpt lat="45.82125" lon="1.85783">
        <ele>705.2</ele>
        <time>2026-07-08T08:11:59.000Z</time>
      </trkpt>
      <trkpt lat="45.82124" lon="1.85785">
        <ele>704.8</ele>
        <time>2026-07-08T08:12:00.000Z</time>
      </trkpt>
      <trkpt lat="45.82125" lon="1.85788">
        <ele>705.3</ele>
        <time>2026-07-08T08:12:01.000Z</time>
      </trkpt>
      <trkpt lat="45.82126" lon="1.8579">
        <ele>705.1</ele>
        <time>2026-07-08T08:12:02.000Z</time>
      </trkpt>
      <trkpt lat="45.82127" lon="1.85791">
        <ele>704.4</ele>
        <time>2026-07-08T08:12:03.000Z</time>
      </trkpt>
      <trkpt lat="45.82128" lon="1.85793">
        <ele>704.5</ele>
        <time>2026-07-08T08:12:04.000Z</time>
      </trkpt>
      <trkpt lat="45.82128" lon="1.85795">
        <ele>704.7</ele>
        <time>2026-07-08T08:12:05.000Z</time>
      </trkpt>
      <trkpt lat="45.82129" lon="1.85798">
        <ele>705.6</ele>
        <time>2026-07-08T08:12:06.000Z</time>
      </trkpt>
      <trkpt lat="45.8213" lon="1.85801">
        <ele>706.4</ele>
        <time>2026-07-08T08:12:07.000Z</time>
      </trkpt>
      <trkpt lat="45.82129" lon="1.85804">
        <ele>706.1</ele>
        <time>2026-07-08T08:12:08.000Z</time>
      </trkpt>
      <trkpt lat="45.82128" lon="1.85806">
        <ele>705.8</ele>
        <time>2026-07-08T08:12:09.000Z</time>
      </trkpt>
      <trkpt lat="45.82127" lon="1.85808">
        <ele>706.4</ele>
        <time>2026-07-08T08:12:10.000Z</time>
      </trkpt>
      <trkpt lat="45.82126" lon="1.8581">
        <ele>705.6</ele>
        <time>2026-07-08T08:12:11.000Z</time>
      </trkpt>
      <trkpt lat="45.82127" lon="1.85813">
        <ele>705.1</ele>
        <time>2026-07-08T08:12:12.000Z</time>
      </trkpt>
      <trkpt lat="45.8213" lon="1.85814">
        <ele>705.7</ele>
        <time>2026-07-08T08:12:13.000Z</time>
      </trkpt>
      <trkpt lat="45.82128" lon="1.85817">
        <ele>703</ele>
        <time>2026-07-08T08:12:14.000Z</time>
      </trkpt>
      <trkpt lat="45.82126" lon="1.8582">
        <ele>702</ele>
        <time>2026-07-08T08:12:15.000Z</time>
      </trkpt>
      <trkpt lat="45.82124" lon="1.85823">
        <ele>701.6</ele>
        <time>2026-07-08T08:12:16.000Z</time>
      </trkpt>
      <trkpt lat="45.82122" lon="1.85825">
        <ele>701.5</ele>
        <time>2026-07-08T08:12:17.000Z</time>
      </trkpt>
      <trkpt lat="45.82119" lon="1.85826">
        <ele>703.1</ele>
        <time>2026-07-08T08:12:18.000Z</time>
      </trkpt>
      <trkpt lat="45.82116" lon="1.85827">
        <ele>703</ele>
        <time>2026-07-08T08:12:19.000Z</time>
      </trkpt>
      <trkpt lat="45.82114" lon="1.85827">
        <ele>703.6</ele>
        <time>2026-07-08T08:12:20.000Z</time>
      </trkpt>
      <trkpt lat="45.82112" lon="1.85828">
        <ele>703.6</ele>
        <time>2026-07-08T08:12:21.000Z</time>
      </trkpt>
      <trkpt lat="45.82111" lon="1.85828">
        <ele>704.1</ele>
        <time>2026-07-08T08:12:22.000Z</time>
      </trkpt>
      <trkpt lat="45.8211" lon="1.85829">
        <ele>704.6</ele>
        <time>2026-07-08T08:12:23.000Z</time>
      </trkpt>
      <trkpt lat="45.82109" lon="1.8583">
        <ele>705.1</ele>
        <time>2026-07-08T08:12:24.000Z</time>
      </trkpt>
      <trkpt lat="45.82108" lon="1.85831">
        <ele>704.9</ele>
        <time>2026-07-08T08:12:25.000Z</time>
      </trkpt>
      <trkpt lat="45.82107" lon="1.85832">
        <ele>704.6</ele>
        <time>2026-07-08T08:12:26.000Z</time>
      </trkpt>
      <trkpt lat="45.82105" lon="1.85832">
        <ele>704.3</ele>
        <time>2026-07-08T08:12:27.000Z</time>
      </trkpt>
      <trkpt lat="45.82103" lon="1.85833">
        <ele>706.3</ele>
        <time>2026-07-08T08:12:28.000Z</time>
      </trkpt>
      <trkpt lat="45.82102" lon="1.85834">
        <ele>706.2</ele>
        <time>2026-07-08T08:12:29.000Z</time>
      </trkpt>
      <trkpt lat="45.821" lon="1.85835">
        <ele>707.5</ele>
        <time>2026-07-08T08:12:30.000Z</time>
      </trkpt>
      <trkpt lat="45.82098" lon="1.85836">
        <ele>707.1</ele>
        <time>2026-07-08T08:12:31.000Z</time>
      </trkpt>
      <trkpt lat="45.82096" lon="1.85837">
        <ele>706.9</ele>
        <time>2026-07-08T08:12:32.000Z</time>
      </trkpt>
      <trkpt lat="45.82094" lon="1.85838">
        <ele>707.3</ele>
        <time>2026-07-08T08:12:33.000Z</time>
      </trkpt>
      <trkpt lat="45.82092" lon="1.85839">
        <ele>707.2</ele>
        <time>2026-07-08T08:12:34.000Z</time>
      </trkpt>
      <trkpt lat="45.8209" lon="1.85839">
        <ele>708.3</ele>
        <time>2026-07-08T08:12:35.000Z</time>
      </trkpt>
      <trkpt lat="45.82089" lon="1.8584">
        <ele>708.7</ele>
        <time>2026-07-08T08:12:36.000Z</time>
      </trkpt>
      <trkpt lat="45.82087" lon="1.85841">
        <ele>709.7</ele>
        <time>2026-07-08T08:12:37.000Z</time>
      </trkpt>
      <trkpt lat="45.82085" lon="1.85841">
        <ele>710</ele>
        <time>2026-07-08T08:12:38.000Z</time>
      </trkpt>
      <trkpt lat="45.82084" lon="1.85842">
        <ele>710.1</ele>
        <time>2026-07-08T08:12:39.000Z</time>
      </trkpt>
      <trkpt lat="45.82082" lon="1.85843">
        <ele>710.1</ele>
        <time>2026-07-08T08:12:40.000Z</time>
      </trkpt>
      <trkpt lat="45.82081" lon="1.85844">
        <ele>709.4</ele>
        <time>2026-07-08T08:12:41.000Z</time>
      </trkpt>
      <trkpt lat="45.82079" lon="1.85845">
        <ele>710.6</ele>
        <time>2026-07-08T08:12:42.000Z</time>
      </trkpt>
      <trkpt lat="45.82077" lon="1.85846">
        <ele>711.1</ele>
        <time>2026-07-08T08:12:43.000Z</time>
      </trkpt>
      <trkpt lat="45.82075" lon="1.85847">
        <ele>710.6</ele>
        <time>2026-07-08T08:12:44.000Z</time>
      </trkpt>
      <trkpt lat="45.82074" lon="1.85847">
        <ele>710.7</ele>
        <time>2026-07-08T08:12:45.000Z</time>
      </trkpt>
      <trkpt lat="45.82073" lon="1.85849">
        <ele>710.2</ele>
        <time>2026-07-08T08:12:46.000Z</time>
      </trkpt>
      <trkpt lat="45.82071" lon="1.85851">
        <ele>710.2</ele>
        <time>2026-07-08T08:12:47.000Z</time>
      </trkpt>
      <trkpt lat="45.8207" lon="1.85853">
        <ele>709.4</ele>
        <time>2026-07-08T08:12:48.000Z</time>
      </trkpt>
      <trkpt lat="45.82069" lon="1.85855">
        <ele>709.6</ele>
        <time>2026-07-08T08:12:49.000Z</time>
      </trkpt>
      <trkpt lat="45.82067" lon="1.85856">
        <ele>709.5</ele>
        <time>2026-07-08T08:12:50.000Z</time>
      </trkpt>
      <trkpt lat="45.82066" lon="1.85858">
        <ele>710.3</ele>
        <time>2026-07-08T08:12:51.000Z</time>
      </trkpt>
      <trkpt lat="45.82064" lon="1.85859">
        <ele>711.1</ele>
        <time>2026-07-08T08:12:52.000Z</time>
      </trkpt>
      <trkpt lat="45.82063" lon="1.85861">
        <ele>711.1</ele>
        <time>2026-07-08T08:12:53.000Z</time>
      </trkpt>
      <trkpt lat="45.82062" lon="1.85862">
        <ele>710.9</ele>
        <time>2026-07-08T08:12:54.000Z</time>
      </trkpt>
      <trkpt lat="45.8206" lon="1.85864">
        <ele>710.7</ele>
        <time>2026-07-08T08:12:55.000Z</time>
      </trkpt>
      <trkpt lat="45.82059" lon="1.85865">
        <ele>710.7</ele>
        <time>2026-07-08T08:12:56.000Z</time>
      </trkpt>
      <trkpt lat="45.82057" lon="1.85867">
        <ele>710.6</ele>
        <time>2026-07-08T08:12:57.000Z</time>
      </trkpt>
      <trkpt lat="45.82056" lon="1.85868">
        <ele>710.3</ele>
        <time>2026-07-08T08:12:58.000Z</time>
      </trkpt>
      <trkpt lat="45.82054" lon="1.85868">
        <ele>710</ele>
        <time>2026-07-08T08:12:59.000Z</time>
      </trkpt>
      <trkpt lat="45.82053" lon="1.85869">
        <ele>710.3</ele>
        <time>2026-07-08T08:13:00.000Z</time>
      </trkpt>
      <trkpt lat="45.82052" lon="1.8587">
        <ele>709.9</ele>
        <time>2026-07-08T08:13:01.000Z</time>
      </trkpt>
      <trkpt lat="45.8205" lon="1.85871">
        <ele>709.7</ele>
        <time>2026-07-08T08:13:02.000Z</time>
      </trkpt>
      <trkpt lat="45.82049" lon="1.85873">
        <ele>709.7</ele>
        <time>2026-07-08T08:13:03.000Z</time>
      </trkpt>
      <trkpt lat="45.82047" lon="1.85874">
        <ele>709.2</ele>
        <time>2026-07-08T08:13:04.000Z</time>
      </trkpt>
      <trkpt lat="45.82046" lon="1.85875">
        <ele>709.9</ele>
        <time>2026-07-08T08:13:05.000Z</time>
      </trkpt>
      <trkpt lat="45.82045" lon="1.85876">
        <ele>710.1</ele>
        <time>2026-07-08T08:13:06.000Z</time>
      </trkpt>
      <trkpt lat="45.82043" lon="1.85877">
        <ele>710.2</ele>
        <time>2026-07-08T08:13:07.000Z</time>
      </trkpt>
      <trkpt lat="45.82042" lon="1.85879">
        <ele>710.1</ele>
        <time>2026-07-08T08:13:08.000Z</time>
      </trkpt>
      <trkpt lat="45.82041" lon="1.8588">
        <ele>711.2</ele>
        <time>2026-07-08T08:13:09.000Z</time>
      </trkpt>
      <trkpt lat="45.82039" lon="1.85881">
        <ele>711.7</ele>
        <time>2026-07-08T08:13:10.000Z</time>
      </trkpt>
      <trkpt lat="45.82038" lon="1.85882">
        <ele>712.1</ele>
        <time>2026-07-08T08:13:11.000Z</time>
      </trkpt>
      <trkpt lat="45.82037" lon="1.85883">
        <ele>712.6</ele>
        <time>2026-07-08T08:13:12.000Z</time>
      </trkpt>
      <trkpt lat="45.82035" lon="1.85884">
        <ele>712.7</ele>
        <time>2026-07-08T08:13:13.000Z</time>
      </trkpt>
      <trkpt lat="45.82034" lon="1.85885">
        <ele>712.1</ele>
        <time>2026-07-08T08:13:14.000Z</time>
      </trkpt>
      <trkpt lat="45.82033" lon="1.85887">
        <ele>711.8</ele>
        <time>2026-07-08T08:13:15.000Z</time>
      </trkpt>
      <trkpt lat="45.82031" lon="1.85888">
        <ele>712</ele>
        <time>2026-07-08T08:13:16.000Z</time>
      </trkpt>
      <trkpt lat="45.8203" lon="1.85889">
        <ele>711.9</ele>
        <time>2026-07-08T08:13:17.000Z</time>
      </trkpt>
      <trkpt lat="45.82029" lon="1.85891">
        <ele>712</ele>
        <time>2026-07-08T08:13:18.000Z</time>
      </trkpt>
      <trkpt lat="45.82027" lon="1.85892">
        <ele>711.9</ele>
        <time>2026-07-08T08:13:19.000Z</time>
      </trkpt>
      <trkpt lat="45.82026" lon="1.85893">
        <ele>711.1</ele>
        <time>2026-07-08T08:13:20.000Z</time>
      </trkpt>
      <trkpt lat="45.82025" lon="1.85894">
        <ele>711</ele>
        <time>2026-07-08T08:13:21.000Z</time>
      </trkpt>
      <trkpt lat="45.82023" lon="1.85896">
        <ele>710.9</ele>
        <time>2026-07-08T08:13:22.000Z</time>
      </trkpt>
      <trkpt lat="45.82022" lon="1.85897">
        <ele>711.7</ele>
        <time>2026-07-08T08:13:23.000Z</time>
      </trkpt>
      <trkpt lat="45.8202" lon="1.85898">
        <ele>711.1</ele>
        <time>2026-07-08T08:13:24.000Z</time>
      </trkpt>
      <trkpt lat="45.82019" lon="1.85899">
        <ele>710.2</ele>
        <time>2026-07-08T08:13:25.000Z</time>
      </trkpt>
      <trkpt lat="45.82017" lon="1.85899">
        <ele>710.4</ele>
        <time>2026-07-08T08:13:26.000Z</time>
      </trkpt>
      <trkpt lat="45.82016" lon="1.859">
        <ele>711.6</ele>
        <time>2026-07-08T08:13:27.000Z</time>
      </trkpt>
      <trkpt lat="45.82014" lon="1.859">
        <ele>710.7</ele>
        <time>2026-07-08T08:13:28.000Z</time>
      </trkpt>
      <trkpt lat="45.82013" lon="1.85901">
        <ele>711.8</ele>
        <time>2026-07-08T08:13:29.000Z</time>
      </trkpt>
      <trkpt lat="45.82011" lon="1.85899">
        <ele>713.1</ele>
        <time>2026-07-08T08:13:30.000Z</time>
      </trkpt>
      <trkpt lat="45.82009" lon="1.85899">
        <ele>713.7</ele>
        <time>2026-07-08T08:13:31.000Z</time>
      </trkpt>
      <trkpt lat="45.82008" lon="1.85898">
        <ele>715.1</ele>
        <time>2026-07-08T08:13:32.000Z</time>
      </trkpt>
      <trkpt lat="45.82007" lon="1.85896">
        <ele>715.5</ele>
        <time>2026-07-08T08:13:33.000Z</time>
      </trkpt>
      <trkpt lat="45.82005" lon="1.85896">
        <ele>716.6</ele>
        <time>2026-07-08T08:13:34.000Z</time>
      </trkpt>
      <trkpt lat="45.82004" lon="1.85897">
        <ele>716.4</ele>
        <time>2026-07-08T08:13:35.000Z</time>
      </trkpt>
      <trkpt lat="45.82003" lon="1.85898">
        <ele>716.6</ele>
        <time>2026-07-08T08:13:36.000Z</time>
      </trkpt>
      <trkpt lat="45.82001" lon="1.85897">
        <ele>716.9</ele>
        <time>2026-07-08T08:13:37.000Z</time>
      </trkpt>
      <trkpt lat="45.81999" lon="1.85898">
        <ele>717</ele>
        <time>2026-07-08T08:13:38.000Z</time>
      </trkpt>
      <trkpt lat="45.81998" lon="1.85897">
        <ele>718</ele>
        <time>2026-07-08T08:13:39.000Z</time>
      </trkpt>
      <trkpt lat="45.81996" lon="1.85897">
        <ele>719.4</ele>
        <time>2026-07-08T08:13:40.000Z</time>
      </trkpt>
      <trkpt lat="45.81995" lon="1.85898">
        <ele>719.5</ele>
        <time>2026-07-08T08:13:41.000Z</time>
      </trkpt>
      <trkpt lat="45.81993" lon="1.85898">
        <ele>720.4</ele>
        <time>2026-07-08T08:13:42.000Z</time>
      </trkpt>
      <trkpt lat="45.81992" lon="1.85899">
        <ele>720.5</ele>
        <time>2026-07-08T08:13:43.000Z</time>
      </trkpt>
      <trkpt lat="45.81991" lon="1.859">
        <ele>720</ele>
        <time>2026-07-08T08:13:44.000Z</time>
      </trkpt>
      <trkpt lat="45.81989" lon="1.859">
        <ele>720.5</ele>
        <time>2026-07-08T08:13:45.000Z</time>
      </trkpt>
      <trkpt lat="45.81988" lon="1.85901">
        <ele>720.9</ele>
        <time>2026-07-08T08:13:46.000Z</time>
      </trkpt>
      <trkpt lat="45.81987" lon="1.85902">
        <ele>720</ele>
        <time>2026-07-08T08:13:47.000Z</time>
      </trkpt>
      <trkpt lat="45.81985" lon="1.85903">
        <ele>720.3</ele>
        <time>2026-07-08T08:13:48.000Z</time>
      </trkpt>
      <trkpt lat="45.81984" lon="1.85904">
        <ele>719.9</ele>
        <time>2026-07-08T08:13:49.000Z</time>
      </trkpt>
      <trkpt lat="45.81982" lon="1.85905">
        <ele>719.6</ele>
        <time>2026-07-08T08:13:50.000Z</time>
      </trkpt>
      <trkpt lat="45.81981" lon="1.85907">
        <ele>719.5</ele>
        <time>2026-07-08T08:13:51.000Z</time>
      </trkpt>
      <trkpt lat="45.81979" lon="1.85908">
        <ele>719.8</ele>
        <time>2026-07-08T08:13:52.000Z</time>
      </trkpt>
      <trkpt lat="45.81978" lon="1.85909">
        <ele>719</ele>
        <time>2026-07-08T08:13:53.000Z</time>
      </trkpt>
      <trkpt lat="45.81976" lon="1.85909">
        <ele>719.4</ele>
        <time>2026-07-08T08:13:54.000Z</time>
      </trkpt>
      <trkpt lat="45.81975" lon="1.85911">
        <ele>719</ele>
        <time>2026-07-08T08:13:55.000Z</time>
      </trkpt>
      <trkpt lat="45.81973" lon="1.85913">
        <ele>720.1</ele>
        <time>2026-07-08T08:13:56.000Z</time>
      </trkpt>
      <trkpt lat="45.81971" lon="1.85915">
        <ele>719.8</ele>
        <time>2026-07-08T08:13:57.000Z</time>
      </trkpt>
      <trkpt lat="45.81969" lon="1.85918">
        <ele>719.8</ele>
        <time>2026-07-08T08:13:58.000Z</time>
      </trkpt>
      <trkpt lat="45.81968" lon="1.85919">
        <ele>720</ele>
        <time>2026-07-08T08:13:59.000Z</time>
      </trkpt>
      <trkpt lat="45.81966" lon="1.85921">
        <ele>719.5</ele>
        <time>2026-07-08T08:14:00.000Z</time>
      </trkpt>
      <trkpt lat="45.81965" lon="1.85922">
        <ele>719.6</ele>
        <time>2026-07-08T08:14:01.000Z</time>
      </trkpt>
      <trkpt lat="45.81963" lon="1.85924">
        <ele>719.2</ele>
        <time>2026-07-08T08:14:02.000Z</time>
      </trkpt>
      <trkpt lat="45.81962" lon="1.85926">
        <ele>718.9</ele>
        <time>2026-07-08T08:14:03.000Z</time>
      </trkpt>
      <trkpt lat="45.8196" lon="1.85927">
        <ele>718.5</ele>
        <time>2026-07-08T08:14:04.000Z</time>
      </trkpt>
      <trkpt lat="45.81958" lon="1.85928">
        <ele>719.1</ele>
        <time>2026-07-08T08:14:05.000Z</time>
      </trkpt>
      <trkpt lat="45.81957" lon="1.8593">
        <ele>719.4</ele>
        <time>2026-07-08T08:14:06.000Z</time>
      </trkpt>
      <trkpt lat="45.81956" lon="1.85933">
        <ele>719.8</ele>
        <time>2026-07-08T08:14:07.000Z</time>
      </trkpt>
      <trkpt lat="45.81955" lon="1.85935">
        <ele>719.3</ele>
        <time>2026-07-08T08:14:08.000Z</time>
      </trkpt>
      <trkpt lat="45.81954" lon="1.85938">
        <ele>718.5</ele>
        <time>2026-07-08T08:14:09.000Z</time>
      </trkpt>
      <trkpt lat="45.81954" lon="1.8594">
        <ele>718.6</ele>
        <time>2026-07-08T08:14:10.000Z</time>
      </trkpt>
      <trkpt lat="45.81953" lon="1.85943">
        <ele>718.9</ele>
        <time>2026-07-08T08:14:11.000Z</time>
      </trkpt>
      <trkpt lat="45.81952" lon="1.85945">
        <ele>718.7</ele>
        <time>2026-07-08T08:14:12.000Z</time>
      </trkpt>
      <trkpt lat="45.81951" lon="1.85948">
        <ele>717.9</ele>
        <time>2026-07-08T08:14:13.000Z</time>
      </trkpt>
      <trkpt lat="45.8195" lon="1.8595">
        <ele>718.3</ele>
        <time>2026-07-08T08:14:14.000Z</time>
      </trkpt>
      <trkpt lat="45.81949" lon="1.85952">
        <ele>718.3</ele>
        <time>2026-07-08T08:14:15.000Z</time>
      </trkpt>
      <trkpt lat="45.81948" lon="1.85954">
        <ele>719</ele>
        <time>2026-07-08T08:14:16.000Z</time>
      </trkpt>
      <trkpt lat="45.81947" lon="1.85956">
        <ele>719.1</ele>
        <time>2026-07-08T08:14:17.000Z</time>
      </trkpt>
      <trkpt lat="45.81947" lon="1.85958">
        <ele>719</ele>
        <time>2026-07-08T08:14:18.000Z</time>
      </trkpt>
      <trkpt lat="45.81946" lon="1.8596">
        <ele>718.5</ele>
        <time>2026-07-08T08:14:19.000Z</time>
      </trkpt>
      <trkpt lat="45.81946" lon="1.85963">
        <ele>718</ele>
        <time>2026-07-08T08:14:20.000Z</time>
      </trkpt>
      <trkpt lat="45.81945" lon="1.85965">
        <ele>717.4</ele>
        <time>2026-07-08T08:14:21.000Z</time>
      </trkpt>
      <trkpt lat="45.81944" lon="1.85967">
        <ele>717.3</ele>
        <time>2026-07-08T08:14:22.000Z</time>
      </trkpt>
      <trkpt lat="45.81943" lon="1.8597">
        <ele>716.6</ele>
        <time>2026-07-08T08:14:23.000Z</time>
      </trkpt>
      <trkpt lat="45.81942" lon="1.85972">
        <ele>716.3</ele>
        <time>2026-07-08T08:14:24.000Z</time>
      </trkpt>
      <trkpt lat="45.8194" lon="1.85974">
        <ele>715.8</ele>
        <time>2026-07-08T08:14:25.000Z</time>
      </trkpt>
      <trkpt lat="45.81938" lon="1.85977">
        <ele>715.5</ele>
        <time>2026-07-08T08:14:26.000Z</time>
      </trkpt>
      <trkpt lat="45.81937" lon="1.85979">
        <ele>715.4</ele>
        <time>2026-07-08T08:14:27.000Z</time>
      </trkpt>
      <trkpt lat="45.81935" lon="1.85981">
        <ele>715.2</ele>
        <time>2026-07-08T08:14:28.000Z</time>
      </trkpt>
      <trkpt lat="45.81934" lon="1.85983">
        <ele>715.4</ele>
        <time>2026-07-08T08:14:29.000Z</time>
      </trkpt>
      <trkpt lat="45.81932" lon="1.85984">
        <ele>715.9</ele>
        <time>2026-07-08T08:14:30.000Z</time>
      </trkpt>
      <trkpt lat="45.81931" lon="1.85986">
        <ele>715.9</ele>
        <time>2026-07-08T08:14:31.000Z</time>
      </trkpt>
      <trkpt lat="45.81931" lon="1.8599">
        <ele>715.5</ele>
        <time>2026-07-08T08:14:32.000Z</time>
      </trkpt>
      <trkpt lat="45.81935" lon="1.85991">
        <ele>716.2</ele>
        <time>2026-07-08T08:14:33.000Z</time>
      </trkpt>
      <trkpt lat="45.81931" lon="1.85992">
        <ele>717.6</ele>
        <time>2026-07-08T08:14:34.000Z</time>
      </trkpt>
      <trkpt lat="45.81928" lon="1.85994">
        <ele>716.6</ele>
        <time>2026-07-08T08:14:35.000Z</time>
      </trkpt>
      <trkpt lat="45.81926" lon="1.85996">
        <ele>716</ele>
        <time>2026-07-08T08:14:36.000Z</time>
      </trkpt>
      <trkpt lat="45.81925" lon="1.85997">
        <ele>715.8</ele>
        <time>2026-07-08T08:14:37.000Z</time>
      </trkpt>
      <trkpt lat="45.81923" lon="1.85999">
        <ele>716.4</ele>
        <time>2026-07-08T08:14:38.000Z</time>
      </trkpt>
      <trkpt lat="45.81921" lon="1.86">
        <ele>716.5</ele>
        <time>2026-07-08T08:14:39.000Z</time>
      </trkpt>
      <trkpt lat="45.8192" lon="1.86002">
        <ele>715.6</ele>
        <time>2026-07-08T08:14:40.000Z</time>
      </trkpt>
      <trkpt lat="45.81918" lon="1.86005">
        <ele>715.8</ele>
        <time>2026-07-08T08:14:41.000Z</time>
      </trkpt>
      <trkpt lat="45.81916" lon="1.86007">
        <ele>717.2</ele>
        <time>2026-07-08T08:14:42.000Z</time>
      </trkpt>
      <trkpt lat="45.81914" lon="1.8601">
        <ele>717.3</ele>
        <time>2026-07-08T08:14:43.000Z</time>
      </trkpt>
      <trkpt lat="45.81912" lon="1.86013">
        <ele>717.9</ele>
        <time>2026-07-08T08:14:44.000Z</time>
      </trkpt>
      <trkpt lat="45.81911" lon="1.86014">
        <ele>717.9</ele>
        <time>2026-07-08T08:14:45.000Z</time>
      </trkpt>
      <trkpt lat="45.81909" lon="1.86016">
        <ele>718.8</ele>
        <time>2026-07-08T08:14:46.000Z</time>
      </trkpt>
      <trkpt lat="45.81908" lon="1.86018">
        <ele>720</ele>
        <time>2026-07-08T08:14:47.000Z</time>
      </trkpt>
      <trkpt lat="45.81911" lon="1.86014">
        <ele>717.1</ele>
        <time>2026-07-08T08:14:48.000Z</time>
      </trkpt>
      <trkpt lat="45.8191" lon="1.86017">
        <ele>717.4</ele>
        <time>2026-07-08T08:14:49.000Z</time>
      </trkpt>
      <trkpt lat="45.81909" lon="1.8602">
        <ele>717.2</ele>
        <time>2026-07-08T08:14:50.000Z</time>
      </trkpt>
      <trkpt lat="45.81908" lon="1.86023">
        <ele>716.4</ele>
        <time>2026-07-08T08:14:51.000Z</time>
      </trkpt>
      <trkpt lat="45.81907" lon="1.86025">
        <ele>716.4</ele>
        <time>2026-07-08T08:14:52.000Z</time>
      </trkpt>
      <trkpt lat="45.81906" lon="1.86027">
        <ele>716.7</ele>
        <time>2026-07-08T08:14:53.000Z</time>
      </trkpt>
      <trkpt lat="45.81904" lon="1.86028">
        <ele>716</ele>
        <time>2026-07-08T08:14:54.000Z</time>
      </trkpt>
      <trkpt lat="45.81902" lon="1.86028">
        <ele>715.8</ele>
        <time>2026-07-08T08:14:55.000Z</time>
      </trkpt>
      <trkpt lat="45.81901" lon="1.86029">
        <ele>715.4</ele>
        <time>2026-07-08T08:14:56.000Z</time>
      </trkpt>
      <trkpt lat="45.81899" lon="1.8603">
        <ele>715.3</ele>
        <time>2026-07-08T08:14:57.000Z</time>
      </trkpt>
      <trkpt lat="45.81897" lon="1.86031">
        <ele>715.2</ele>
        <time>2026-07-08T08:14:58.000Z</time>
      </trkpt>
      <trkpt lat="45.81896" lon="1.86032">
        <ele>714.4</ele>
        <time>2026-07-08T08:14:59.000Z</time>
      </trkpt>
      <trkpt lat="45.81893" lon="1.86033">
        <ele>714.5</ele>
        <time>2026-07-08T08:15:00.000Z</time>
      </trkpt>
      <trkpt lat="45.81891" lon="1.86034">
        <ele>714.4</ele>
        <time>2026-07-08T08:15:01.000Z</time>
      </trkpt>
      <trkpt lat="45.81889" lon="1.86034">
        <ele>715.3</ele>
        <time>2026-07-08T08:15:02.000Z</time>
      </trkpt>
      <trkpt lat="45.81887" lon="1.86034">
        <ele>715.5</ele>
        <time>2026-07-08T08:15:03.000Z</time>
      </trkpt>
      <trkpt lat="45.81886" lon="1.86035">
        <ele>715.8</ele>
        <time>2026-07-08T08:15:04.000Z</time>
      </trkpt>
      <trkpt lat="45.81884" lon="1.86035">
        <ele>715.8</ele>
        <time>2026-07-08T08:15:05.000Z</time>
      </trkpt>
      <trkpt lat="45.81882" lon="1.86036">
        <ele>715</ele>
        <time>2026-07-08T08:15:06.000Z</time>
      </trkpt>
      <trkpt lat="45.81881" lon="1.86038">
        <ele>714.9</ele>
        <time>2026-07-08T08:15:07.000Z</time>
      </trkpt>
      <trkpt lat="45.81879" lon="1.8604">
        <ele>714.5</ele>
        <time>2026-07-08T08:15:08.000Z</time>
      </trkpt>
      <trkpt lat="45.81877" lon="1.8604">
        <ele>714.9</ele>
        <time>2026-07-08T08:15:09.000Z</time>
      </trkpt>
      <trkpt lat="45.81876" lon="1.8604">
        <ele>715.7</ele>
        <time>2026-07-08T08:15:10.000Z</time>
      </trkpt>
      <trkpt lat="45.81874" lon="1.8604">
        <ele>716.2</ele>
        <time>2026-07-08T08:15:11.000Z</time>
      </trkpt>
      <trkpt lat="45.81873" lon="1.86039">
        <ele>716.6</ele>
        <time>2026-07-08T08:15:12.000Z</time>
      </trkpt>
      <trkpt lat="45.81872" lon="1.86038">
        <ele>716.5</ele>
        <time>2026-07-08T08:15:13.000Z</time>
      </trkpt>
      <trkpt lat="45.8187" lon="1.86038">
        <ele>715.2</ele>
        <time>2026-07-08T08:15:14.000Z</time>
      </trkpt>
      <trkpt lat="45.81868" lon="1.86038">
        <ele>714.2</ele>
        <time>2026-07-08T08:15:15.000Z</time>
      </trkpt>
      <trkpt lat="45.81867" lon="1.86038">
        <ele>714.5</ele>
        <time>2026-07-08T08:15:16.000Z</time>
      </trkpt>
      <trkpt lat="45.81865" lon="1.86039">
        <ele>714.9</ele>
        <time>2026-07-08T08:15:17.000Z</time>
      </trkpt>
      <trkpt lat="45.81863" lon="1.86039">
        <ele>715.4</ele>
        <time>2026-07-08T08:15:18.000Z</time>
      </trkpt>
      <trkpt lat="45.81861" lon="1.86039">
        <ele>716</ele>
        <time>2026-07-08T08:15:19.000Z</time>
      </trkpt>
      <trkpt lat="45.81859" lon="1.8604">
        <ele>715.6</ele>
        <time>2026-07-08T08:15:20.000Z</time>
      </trkpt>
      <trkpt lat="45.81857" lon="1.86041">
        <ele>714.5</ele>
        <time>2026-07-08T08:15:21.000Z</time>
      </trkpt>
      <trkpt lat="45.81856" lon="1.86042">
        <ele>714.4</ele>
        <time>2026-07-08T08:15:22.000Z</time>
      </trkpt>
      <trkpt lat="45.81854" lon="1.86042">
        <ele>715.9</ele>
        <time>2026-07-08T08:15:23.000Z</time>
      </trkpt>
      <trkpt lat="45.81852" lon="1.86042">
        <ele>716.3</ele>
        <time>2026-07-08T08:15:24.000Z</time>
      </trkpt>
      <trkpt lat="45.8185" lon="1.86042">
        <ele>716</ele>
        <time>2026-07-08T08:15:25.000Z</time>
      </trkpt>
      <trkpt lat="45.81848" lon="1.86044">
        <ele>715.3</ele>
        <time>2026-07-08T08:15:26.000Z</time>
      </trkpt>
      <trkpt lat="45.81846" lon="1.86044">
        <ele>715.3</ele>
        <time>2026-07-08T08:15:27.000Z</time>
      </trkpt>
      <trkpt lat="45.81844" lon="1.86045">
        <ele>714.5</ele>
        <time>2026-07-08T08:15:28.000Z</time>
      </trkpt>
      <trkpt lat="45.81842" lon="1.86046">
        <ele>713.7</ele>
        <time>2026-07-08T08:15:29.000Z</time>
      </trkpt>
      <trkpt lat="45.8184" lon="1.86047">
        <ele>714.1</ele>
        <time>2026-07-08T08:15:30.000Z</time>
      </trkpt>
      <trkpt lat="45.81838" lon="1.86047">
        <ele>713.8</ele>
        <time>2026-07-08T08:15:31.000Z</time>
      </trkpt>
      <trkpt lat="45.81836" lon="1.86047">
        <ele>714.2</ele>
        <time>2026-07-08T08:15:32.000Z</time>
      </trkpt>
      <trkpt lat="45.81834" lon="1.86048">
        <ele>714.1</ele>
        <time>2026-07-08T08:15:33.000Z</time>
      </trkpt>
      <trkpt lat="45.81832" lon="1.86048">
        <ele>714.8</ele>
        <time>2026-07-08T08:15:34.000Z</time>
      </trkpt>
      <trkpt lat="45.8183" lon="1.86049">
        <ele>715.6</ele>
        <time>2026-07-08T08:15:35.000Z</time>
      </trkpt>
      <trkpt lat="45.81829" lon="1.8605">
        <ele>715.3</ele>
        <time>2026-07-08T08:15:36.000Z</time>
      </trkpt>
      <trkpt lat="45.81827" lon="1.8605">
        <ele>715.2</ele>
        <time>2026-07-08T08:15:37.000Z</time>
      </trkpt>
      <trkpt lat="45.81826" lon="1.86051">
        <ele>716</ele>
        <time>2026-07-08T08:15:38.000Z</time>
      </trkpt>
      <trkpt lat="45.81824" lon="1.86052">
        <ele>714.9</ele>
        <time>2026-07-08T08:15:39.000Z</time>
      </trkpt>
      <trkpt lat="45.81823" lon="1.86053">
        <ele>713.5</ele>
        <time>2026-07-08T08:15:40.000Z</time>
      </trkpt>
      <trkpt lat="45.81821" lon="1.86054">
        <ele>713.5</ele>
        <time>2026-07-08T08:15:41.000Z</time>
      </trkpt>
      <trkpt lat="45.8182" lon="1.86054">
        <ele>712.4</ele>
        <time>2026-07-08T08:15:42.000Z</time>
      </trkpt>
      <trkpt lat="45.81819" lon="1.86055">
        <ele>711</ele>
        <time>2026-07-08T08:15:43.000Z</time>
      </trkpt>
      <trkpt lat="45.81817" lon="1.86055">
        <ele>709.9</ele>
        <time>2026-07-08T08:15:44.000Z</time>
      </trkpt>
      <trkpt lat="45.81816" lon="1.86054">
        <ele>709.5</ele>
        <time>2026-07-08T08:15:45.000Z</time>
      </trkpt>
      <trkpt lat="45.81815" lon="1.86054">
        <ele>709.5</ele>
        <time>2026-07-08T08:15:46.000Z</time>
      </trkpt>
      <trkpt lat="45.81817" lon="1.86055">
        <ele>705.2</ele>
        <time>2026-07-08T08:15:47.000Z</time>
      </trkpt>
      <trkpt lat="45.81818" lon="1.86055">
        <ele>705.2</ele>
        <time>2026-07-08T08:15:48.000Z</time>
      </trkpt>
      <trkpt lat="45.81818" lon="1.86055">
        <ele>705.1</ele>
        <time>2026-07-08T08:15:49.000Z</time>
      </trkpt>
      <trkpt lat="45.81818" lon="1.86055">
        <ele>705.1</ele>
        <time>2026-07-08T08:15:50.000Z</time>
      </trkpt>
      <trkpt lat="45.81817" lon="1.86055">
        <ele>704.9</ele>
        <time>2026-07-08T08:15:51.000Z</time>
      </trkpt>
      <trkpt lat="45.81816" lon="1.86055">
        <ele>704.9</ele>
        <time>2026-07-08T08:15:52.000Z</time>
      </trkpt>
      <trkpt lat="45.81813" lon="1.86055">
        <ele>705.4</ele>
        <time>2026-07-08T08:15:53.000Z</time>
      </trkpt>
      <trkpt lat="45.81811" lon="1.86056">
        <ele>705.6</ele>
        <time>2026-07-08T08:15:54.000Z</time>
      </trkpt>
      <trkpt lat="45.81809" lon="1.86057">
        <ele>704.8</ele>
        <time>2026-07-08T08:15:55.000Z</time>
      </trkpt>
      <trkpt lat="45.81807" lon="1.86059">
        <ele>703.7</ele>
        <time>2026-07-08T08:15:56.000Z</time>
      </trkpt>
      <trkpt lat="45.81805" lon="1.86059">
        <ele>703.3</ele>
        <time>2026-07-08T08:15:57.000Z</time>
      </trkpt>
      <trkpt lat="45.81804" lon="1.8606">
        <ele>702.7</ele>
        <time>2026-07-08T08:15:58.000Z</time>
      </trkpt>
      <trkpt lat="45.81802" lon="1.8606">
        <ele>702.7</ele>
        <time>2026-07-08T08:15:59.000Z</time>
      </trkpt>
      <trkpt lat="45.818" lon="1.8606">
        <ele>702.6</ele>
        <time>2026-07-08T08:16:00.000Z</time>
      </trkpt>
      <trkpt lat="45.81799" lon="1.86061">
        <ele>702.4</ele>
        <time>2026-07-08T08:16:01.000Z</time>
      </trkpt>
      <trkpt lat="45.81797" lon="1.8606">
        <ele>702.1</ele>
        <time>2026-07-08T08:16:02.000Z</time>
      </trkpt>
      <trkpt lat="45.81796" lon="1.86059">
        <ele>702</ele>
        <time>2026-07-08T08:16:03.000Z</time>
      </trkpt>
      <trkpt lat="45.81794" lon="1.86058">
        <ele>701.7</ele>
        <time>2026-07-08T08:16:04.000Z</time>
      </trkpt>
      <trkpt lat="45.81793" lon="1.86058">
        <ele>701.6</ele>
        <time>2026-07-08T08:16:05.000Z</time>
      </trkpt>
      <trkpt lat="45.81791" lon="1.86057">
        <ele>701.2</ele>
        <time>2026-07-08T08:16:06.000Z</time>
      </trkpt>
      <trkpt lat="45.8179" lon="1.86056">
        <ele>701.2</ele>
        <time>2026-07-08T08:16:07.000Z</time>
      </trkpt>
      <trkpt lat="45.81788" lon="1.86055">
        <ele>701</ele>
        <time>2026-07-08T08:16:08.000Z</time>
      </trkpt>
      <trkpt lat="45.81787" lon="1.86054">
        <ele>700.8</ele>
        <time>2026-07-08T08:16:09.000Z</time>
      </trkpt>
      <trkpt lat="45.81785" lon="1.86054">
        <ele>701</ele>
        <time>2026-07-08T08:16:10.000Z</time>
      </trkpt>
      <trkpt lat="45.81783" lon="1.86053">
        <ele>700.9</ele>
        <time>2026-07-08T08:16:11.000Z</time>
      </trkpt>
      <trkpt lat="45.81782" lon="1.86052">
        <ele>700.9</ele>
        <time>2026-07-08T08:16:12.000Z</time>
      </trkpt>
      <trkpt lat="45.81781" lon="1.86051">
        <ele>700.4</ele>
        <time>2026-07-08T08:16:13.000Z</time>
      </trkpt>
      <trkpt lat="45.81779" lon="1.8605">
        <ele>700.3</ele>
        <time>2026-07-08T08:16:14.000Z</time>
      </trkpt>
      <trkpt lat="45.81777" lon="1.86049">
        <ele>700.3</ele>
        <time>2026-07-08T08:16:15.000Z</time>
      </trkpt>
      <trkpt lat="45.81776" lon="1.86048">
        <ele>700.2</ele>
        <time>2026-07-08T08:16:16.000Z</time>
      </trkpt>
      <trkpt lat="45.81774" lon="1.86047">
        <ele>700.6</ele>
        <time>2026-07-08T08:16:17.000Z</time>
      </trkpt>
      <trkpt lat="45.81772" lon="1.86046">
        <ele>700.6</ele>
        <time>2026-07-08T08:16:18.000Z</time>
      </trkpt>
      <trkpt lat="45.81771" lon="1.86045">
        <ele>700.5</ele>
        <time>2026-07-08T08:16:19.000Z</time>
      </trkpt>
      <trkpt lat="45.81769" lon="1.86044">
        <ele>700.3</ele>
        <time>2026-07-08T08:16:20.000Z</time>
      </trkpt>
      <trkpt lat="45.81767" lon="1.86042">
        <ele>700.1</ele>
        <time>2026-07-08T08:16:21.000Z</time>
      </trkpt>
      <trkpt lat="45.81766" lon="1.86041">
        <ele>700.2</ele>
        <time>2026-07-08T08:16:22.000Z</time>
      </trkpt>
      <trkpt lat="45.81764" lon="1.8604">
        <ele>700</ele>
        <time>2026-07-08T08:16:23.000Z</time>
      </trkpt>
      <trkpt lat="45.81763" lon="1.86039">
        <ele>700</ele>
        <time>2026-07-08T08:16:24.000Z</time>
      </trkpt>
      <trkpt lat="45.81761" lon="1.86037">
        <ele>699.9</ele>
        <time>2026-07-08T08:16:25.000Z</time>
      </trkpt>
      <trkpt lat="45.8176" lon="1.86036">
        <ele>699.9</ele>
        <time>2026-07-08T08:16:26.000Z</time>
      </trkpt>
      <trkpt lat="45.81758" lon="1.86035">
        <ele>699.9</ele>
        <time>2026-07-08T08:16:27.000Z</time>
      </trkpt>
      <trkpt lat="45.81757" lon="1.86034">
        <ele>699.9</ele>
        <time>2026-07-08T08:16:28.000Z</time>
      </trkpt>
      <trkpt lat="45.81755" lon="1.86032">
        <ele>699.7</ele>
        <time>2026-07-08T08:16:29.000Z</time>
      </trkpt>
      <trkpt lat="45.81754" lon="1.86031">
        <ele>699.7</ele>
        <time>2026-07-08T08:16:30.000Z</time>
      </trkpt>
      <trkpt lat="45.81752" lon="1.8603">
        <ele>699.7</ele>
        <time>2026-07-08T08:16:31.000Z</time>
      </trkpt>
      <trkpt lat="45.8175" lon="1.86029">
        <ele>699.8</ele>
        <time>2026-07-08T08:16:32.000Z</time>
      </trkpt>
      <trkpt lat="45.81749" lon="1.86027">
        <ele>699.7</ele>
        <time>2026-07-08T08:16:33.000Z</time>
      </trkpt>
      <trkpt lat="45.81747" lon="1.86026">
        <ele>699.7</ele>
        <time>2026-07-08T08:16:34.000Z</time>
      </trkpt>
      <trkpt lat="45.81746" lon="1.86025">
        <ele>699.8</ele>
        <time>2026-07-08T08:16:35.000Z</time>
      </trkpt>
      <trkpt lat="45.81744" lon="1.86023">
        <ele>699.7</ele>
        <time>2026-07-08T08:16:36.000Z</time>
      </trkpt>
      <trkpt lat="45.81743" lon="1.86022">
        <ele>699.4</ele>
        <time>2026-07-08T08:16:37.000Z</time>
      </trkpt>
      <trkpt lat="45.81741" lon="1.8602">
        <ele>699.3</ele>
        <time>2026-07-08T08:16:38.000Z</time>
      </trkpt>
      <trkpt lat="45.8174" lon="1.86019">
        <ele>699.3</ele>
        <time>2026-07-08T08:16:39.000Z</time>
      </trkpt>
      <trkpt lat="45.8174" lon="1.86016">
        <ele>699.3</ele>
        <time>2026-07-08T08:16:40.000Z</time>
      </trkpt>
      <trkpt lat="45.81739" lon="1.86013">
        <ele>698.7</ele>
        <time>2026-07-08T08:16:41.000Z</time>
      </trkpt>
      <trkpt lat="45.8174" lon="1.86009">
        <ele>698.6</ele>
        <time>2026-07-08T08:16:42.000Z</time>
      </trkpt>
      <trkpt lat="45.81741" lon="1.86005">
        <ele>698.9</ele>
        <time>2026-07-08T08:16:43.000Z</time>
      </trkpt>
      <trkpt lat="45.8174" lon="1.86003">
        <ele>699.4</ele>
        <time>2026-07-08T08:16:44.000Z</time>
      </trkpt>
      <trkpt lat="45.81738" lon="1.86002">
        <ele>699.1</ele>
        <time>2026-07-08T08:16:45.000Z</time>
      </trkpt>
      <trkpt lat="45.81736" lon="1.86001">
        <ele>698.9</ele>
        <time>2026-07-08T08:16:46.000Z</time>
      </trkpt>
      <trkpt lat="45.81734" lon="1.86">
        <ele>698.8</ele>
        <time>2026-07-08T08:16:47.000Z</time>
      </trkpt>
      <trkpt lat="45.81732" lon="1.85999">
        <ele>698.4</ele>
        <time>2026-07-08T08:16:48.000Z</time>
      </trkpt>
      <trkpt lat="45.8173" lon="1.85998">
        <ele>698.5</ele>
        <time>2026-07-08T08:16:49.000Z</time>
      </trkpt>
      <trkpt lat="45.81729" lon="1.85996">
        <ele>698.5</ele>
        <time>2026-07-08T08:16:50.000Z</time>
      </trkpt>
      <trkpt lat="45.81728" lon="1.85995">
        <ele>698.5</ele>
        <time>2026-07-08T08:16:51.000Z</time>
      </trkpt>
      <trkpt lat="45.81726" lon="1.85994">
        <ele>698.3</ele>
        <time>2026-07-08T08:16:52.000Z</time>
      </trkpt>
      <trkpt lat="45.81725" lon="1.85992">
        <ele>698.3</ele>
        <time>2026-07-08T08:16:53.000Z</time>
      </trkpt>
      <trkpt lat="45.81724" lon="1.8599">
        <ele>698.3</ele>
        <time>2026-07-08T08:16:54.000Z</time>
      </trkpt>
      <trkpt lat="45.81722" lon="1.85988">
        <ele>698.4</ele>
        <time>2026-07-08T08:16:55.000Z</time>
      </trkpt>
      <trkpt lat="45.81721" lon="1.85986">
        <ele>698.4</ele>
        <time>2026-07-08T08:16:56.000Z</time>
      </trkpt>
      <trkpt lat="45.81719" lon="1.85985">
        <ele>698.4</ele>
        <time>2026-07-08T08:16:57.000Z</time>
      </trkpt>
      <trkpt lat="45.81717" lon="1.85984">
        <ele>698.4</ele>
        <time>2026-07-08T08:16:58.000Z</time>
      </trkpt>
      <trkpt lat="45.81716" lon="1.85982">
        <ele>698.6</ele>
        <time>2026-07-08T08:16:59.000Z</time>
      </trkpt>
      <trkpt lat="45.81714" lon="1.85981">
        <ele>698.7</ele>
        <time>2026-07-08T08:17:00.000Z</time>
      </trkpt>
      <trkpt lat="45.81713" lon="1.8598">
        <ele>698.8</ele>
        <time>2026-07-08T08:17:01.000Z</time>
      </trkpt>
      <trkpt lat="45.81711" lon="1.85979">
        <ele>699.1</ele>
        <time>2026-07-08T08:17:02.000Z</time>
      </trkpt>
      <trkpt lat="45.8171" lon="1.85977">
        <ele>699.1</ele>
        <time>2026-07-08T08:17:03.000Z</time>
      </trkpt>
      <trkpt lat="45.81709" lon="1.85976">
        <ele>699.1</ele>
        <time>2026-07-08T08:17:04.000Z</time>
      </trkpt>
      <trkpt lat="45.81709" lon="1.85975">
        <ele>699.1</ele>
        <time>2026-07-08T08:17:05.000Z</time>
      </trkpt>
      <trkpt lat="45.81709" lon="1.85975">
        <ele>699.5</ele>
        <time>2026-07-08T08:17:06.000Z</time>
      </trkpt>
      <trkpt lat="45.81709" lon="1.85975">
        <ele>699.5</ele>
        <time>2026-07-08T08:17:07.000Z</time>
      </trkpt>
      <trkpt lat="45.81709" lon="1.85975">
        <ele>699.5</ele>
        <time>2026-07-08T08:17:08.000Z</time>
      </trkpt>
      <trkpt lat="45.81709" lon="1.85975">
        <ele>699.5</ele>
        <time>2026-07-08T08:17:09.000Z</time>
      </trkpt>
      <trkpt lat="45.81709" lon="1.85975">
        <ele>699.7</ele>
        <time>2026-07-08T08:17:10.000Z</time>
      </trkpt>
      <trkpt lat="45.81709" lon="1.85974">
        <ele>699.7</ele>
        <time>2026-07-08T08:17:11.000Z</time>
      </trkpt>
      <trkpt lat="45.81709" lon="1.85974">
        <ele>699.7</ele>
        <time>2026-07-08T08:17:12.000Z</time>
      </trkpt>
      <trkpt lat="45.81709" lon="1.85974">
        <ele>699.6</ele>
        <time>2026-07-08T08:17:13.000Z</time>
      </trkpt>
      <trkpt lat="45.81709" lon="1.85974">
        <ele>699.6</ele>
        <time>2026-07-08T08:17:14.000Z</time>
      </trkpt>
      <trkpt lat="45.81709" lon="1.85974">
        <ele>699.6</ele>
        <time>2026-07-08T08:17:15.000Z</time>
      </trkpt>
      <trkpt lat="45.81709" lon="1.85974">
        <ele>699.6</ele>
        <time>2026-07-08T08:17:16.000Z</time>
      </trkpt>
      <trkpt lat="45.81709" lon="1.85974">
        <ele>699.8</ele>
        <time>2026-07-08T08:17:17.000Z</time>
      </trkpt>
      <trkpt lat="45.81708" lon="1.85971">
        <ele>700.3</ele>
        <time>2026-07-08T08:17:18.000Z</time>
      </trkpt>
      <trkpt lat="45.81708" lon="1.85971">
        <ele>700.4</ele>
        <time>2026-07-08T08:17:19.000Z</time>
      </trkpt>
      <trkpt lat="45.81709" lon="1.85971">
        <ele>700.7</ele>
        <time>2026-07-08T08:17:20.000Z</time>
      </trkpt>
      <trkpt lat="45.81709" lon="1.85971">
        <ele>700.7</ele>
        <time>2026-07-08T08:17:21.000Z</time>
      </trkpt>
      <trkpt lat="45.81709" lon="1.85971">
        <ele>700.7</ele>
        <time>2026-07-08T08:17:22.000Z</time>
      </trkpt>
      <trkpt lat="45.81709" lon="1.85971">
        <ele>701</ele>
        <time>2026-07-08T08:17:23.000Z</time>
      </trkpt>
      <trkpt lat="45.81709" lon="1.85971">
        <ele>700.9</ele>
        <time>2026-07-08T08:17:24.000Z</time>
      </trkpt>
      <trkpt lat="45.8171" lon="1.8597">
        <ele>700.9</ele>
        <time>2026-07-08T08:17:25.000Z</time>
      </trkpt>
      <trkpt lat="45.8171" lon="1.85968">
        <ele>700.8</ele>
        <time>2026-07-08T08:17:26.000Z</time>
      </trkpt>
      <trkpt lat="45.81711" lon="1.85966">
        <ele>700.7</ele>
        <time>2026-07-08T08:17:27.000Z</time>
      </trkpt>
      <trkpt lat="45.81711" lon="1.85963">
        <ele>700.8</ele>
        <time>2026-07-08T08:17:28.000Z</time>
      </trkpt>
      <trkpt lat="45.81712" lon="1.85961">
        <ele>700.8</ele>
        <time>2026-07-08T08:17:29.000Z</time>
      </trkpt>
      <trkpt lat="45.81712" lon="1.85959">
        <ele>700.9</ele>
        <time>2026-07-08T08:17:30.000Z</time>
      </trkpt>
      <trkpt lat="45.81712" lon="1.85957">
        <ele>700.9</ele>
        <time>2026-07-08T08:17:31.000Z</time>
      </trkpt>
      <trkpt lat="45.81713" lon="1.85955">
        <ele>700.7</ele>
        <time>2026-07-08T08:17:32.000Z</time>
      </trkpt>
      <trkpt lat="45.81713" lon="1.85953">
        <ele>700.7</ele>
        <time>2026-07-08T08:17:33.000Z</time>
      </trkpt>
      <trkpt lat="45.81713" lon="1.8595">
        <ele>700.8</ele>
        <time>2026-07-08T08:17:34.000Z</time>
      </trkpt>
      <trkpt lat="45.81712" lon="1.85948">
        <ele>700.5</ele>
        <time>2026-07-08T08:17:35.000Z</time>
      </trkpt>
      <trkpt lat="45.81711" lon="1.85945">
        <ele>700.4</ele>
        <time>2026-07-08T08:17:36.000Z</time>
      </trkpt>
      <trkpt lat="45.81711" lon="1.85942">
        <ele>700.2</ele>
        <time>2026-07-08T08:17:37.000Z</time>
      </trkpt>
      <trkpt lat="45.8171" lon="1.8594">
        <ele>699.7</ele>
        <time>2026-07-08T08:17:38.000Z</time>
      </trkpt>
      <trkpt lat="45.81709" lon="1.85937">
        <ele>699.8</ele>
        <time>2026-07-08T08:17:39.000Z</time>
      </trkpt>
      <trkpt lat="45.81708" lon="1.85935">
        <ele>699.7</ele>
        <time>2026-07-08T08:17:40.000Z</time>
      </trkpt>
      <trkpt lat="45.81708" lon="1.85932">
        <ele>700</ele>
        <time>2026-07-08T08:17:41.000Z</time>
      </trkpt>
      <trkpt lat="45.81707" lon="1.85929">
        <ele>699.9</ele>
        <time>2026-07-08T08:17:42.000Z</time>
      </trkpt>
      <trkpt lat="45.81707" lon="1.85926">
        <ele>699.7</ele>
        <time>2026-07-08T08:17:43.000Z</time>
      </trkpt>
      <trkpt lat="45.81706" lon="1.85924">
        <ele>699.6</ele>
        <time>2026-07-08T08:17:44.000Z</time>
      </trkpt>
      <trkpt lat="45.81706" lon="1.85921">
        <ele>699.5</ele>
        <time>2026-07-08T08:17:45.000Z</time>
      </trkpt>
      <trkpt lat="45.81705" lon="1.85918">
        <ele>699.6</ele>
        <time>2026-07-08T08:17:46.000Z</time>
      </trkpt>
      <trkpt lat="45.81704" lon="1.85916">
        <ele>699.7</ele>
        <time>2026-07-08T08:17:47.000Z</time>
      </trkpt>
      <trkpt lat="45.81704" lon="1.85913">
        <ele>699.4</ele>
        <time>2026-07-08T08:17:48.000Z</time>
      </trkpt>
      <trkpt lat="45.81703" lon="1.85911">
        <ele>699.5</ele>
        <time>2026-07-08T08:17:49.000Z</time>
      </trkpt>
      <trkpt lat="45.81703" lon="1.85908">
        <ele>699.4</ele>
        <time>2026-07-08T08:17:50.000Z</time>
      </trkpt>
      <trkpt lat="45.81702" lon="1.85905">
        <ele>699.2</ele>
        <time>2026-07-08T08:17:51.000Z</time>
      </trkpt>
      <trkpt lat="45.81702" lon="1.85903">
        <ele>699.1</ele>
        <time>2026-07-08T08:17:52.000Z</time>
      </trkpt>
      <trkpt lat="45.81701" lon="1.859">
        <ele>699.2</ele>
        <time>2026-07-08T08:17:53.000Z</time>
      </trkpt>
      <trkpt lat="45.817" lon="1.85897">
        <ele>699.3</ele>
        <time>2026-07-08T08:17:54.000Z</time>
      </trkpt>
      <trkpt lat="45.817" lon="1.85894">
        <ele>699.1</ele>
        <time>2026-07-08T08:17:55.000Z</time>
      </trkpt>
      <trkpt lat="45.81699" lon="1.85891">
        <ele>699.2</ele>
        <time>2026-07-08T08:17:56.000Z</time>
      </trkpt>
      <trkpt lat="45.81699" lon="1.85888">
        <ele>699.3</ele>
        <time>2026-07-08T08:17:57.000Z</time>
      </trkpt>
      <trkpt lat="45.81698" lon="1.85885">
        <ele>699.5</ele>
        <time>2026-07-08T08:17:58.000Z</time>
      </trkpt>
      <trkpt lat="45.81698" lon="1.85883">
        <ele>699.6</ele>
        <time>2026-07-08T08:17:59.000Z</time>
      </trkpt>
      <trkpt lat="45.81697" lon="1.85881">
        <ele>699.3</ele>
        <time>2026-07-08T08:18:00.000Z</time>
      </trkpt>
      <trkpt lat="45.81696" lon="1.85879">
        <ele>699.1</ele>
        <time>2026-07-08T08:18:01.000Z</time>
      </trkpt>
      <trkpt lat="45.81696" lon="1.85877">
        <ele>699.2</ele>
        <time>2026-07-08T08:18:02.000Z</time>
      </trkpt>
      <trkpt lat="45.81695" lon="1.85875">
        <ele>699.4</ele>
        <time>2026-07-08T08:18:03.000Z</time>
      </trkpt>
      <trkpt lat="45.81694" lon="1.85873">
        <ele>699.7</ele>
        <time>2026-07-08T08:18:04.000Z</time>
      </trkpt>
      <trkpt lat="45.81694" lon="1.85871">
        <ele>699.6</ele>
        <time>2026-07-08T08:18:05.000Z</time>
      </trkpt>
      <trkpt lat="45.8169" lon="1.85871">
        <ele>699.3</ele>
        <time>2026-07-08T08:18:06.000Z</time>
      </trkpt>
      <trkpt lat="45.81688" lon="1.85871">
        <ele>699.7</ele>
        <time>2026-07-08T08:18:07.000Z</time>
      </trkpt>
      <trkpt lat="45.81686" lon="1.85871">
        <ele>700.4</ele>
        <time>2026-07-08T08:18:08.000Z</time>
      </trkpt>
      <trkpt lat="45.81685" lon="1.8587">
        <ele>700.6</ele>
        <time>2026-07-08T08:18:09.000Z</time>
      </trkpt>
      <trkpt lat="45.81684" lon="1.85867">
        <ele>701.9</ele>
        <time>2026-07-08T08:18:10.000Z</time>
      </trkpt>
      <trkpt lat="45.81685" lon="1.85864">
        <ele>701.6</ele>
        <time>2026-07-08T08:18:11.000Z</time>
      </trkpt>
      <trkpt lat="45.81685" lon="1.85862">
        <ele>701.4</ele>
        <time>2026-07-08T08:18:12.000Z</time>
      </trkpt>
      <trkpt lat="45.81685" lon="1.85859">
        <ele>701.7</ele>
        <time>2026-07-08T08:18:13.000Z</time>
      </trkpt>
      <trkpt lat="45.81685" lon="1.85857">
        <ele>701.8</ele>
        <time>2026-07-08T08:18:14.000Z</time>
      </trkpt>
      <trkpt lat="45.81684" lon="1.85854">
        <ele>701.9</ele>
        <time>2026-07-08T08:18:15.000Z</time>
      </trkpt>
      <trkpt lat="45.81684" lon="1.85851">
        <ele>702.1</ele>
        <time>2026-07-08T08:18:16.000Z</time>
      </trkpt>
      <trkpt lat="45.81684" lon="1.85849">
        <ele>702.4</ele>
        <time>2026-07-08T08:18:17.000Z</time>
      </trkpt>
      <trkpt lat="45.81684" lon="1.85847">
        <ele>701.9</ele>
        <time>2026-07-08T08:18:18.000Z</time>
      </trkpt>
      <trkpt lat="45.81689" lon="1.85845">
        <ele>699.7</ele>
        <time>2026-07-08T08:18:19.000Z</time>
      </trkpt>
      <trkpt lat="45.81689" lon="1.85843">
        <ele>699.5</ele>
        <time>2026-07-08T08:18:20.000Z</time>
      </trkpt>
      <trkpt lat="45.81688" lon="1.8584">
        <ele>699.4</ele>
        <time>2026-07-08T08:18:21.000Z</time>
      </trkpt>
      <trkpt lat="45.81688" lon="1.85837">
        <ele>699.3</ele>
        <time>2026-07-08T08:18:22.000Z</time>
      </trkpt>
      <trkpt lat="45.81687" lon="1.85835">
        <ele>699.2</ele>
        <time>2026-07-08T08:18:23.000Z</time>
      </trkpt>
      <trkpt lat="45.81687" lon="1.85832">
        <ele>699</ele>
        <time>2026-07-08T08:18:24.000Z</time>
      </trkpt>
      <trkpt lat="45.81687" lon="1.85829">
        <ele>698.8</ele>
        <time>2026-07-08T08:18:25.000Z</time>
      </trkpt>
      <trkpt lat="45.81686" lon="1.85827">
        <ele>698.9</ele>
        <time>2026-07-08T08:18:26.000Z</time>
      </trkpt>
      <trkpt lat="45.81686" lon="1.85824">
        <ele>698.7</ele>
        <time>2026-07-08T08:18:27.000Z</time>
      </trkpt>
      <trkpt lat="45.81686" lon="1.85821">
        <ele>698.6</ele>
        <time>2026-07-08T08:18:28.000Z</time>
      </trkpt>
      <trkpt lat="45.81685" lon="1.85819">
        <ele>698.6</ele>
        <time>2026-07-08T08:18:29.000Z</time>
      </trkpt>
      <trkpt lat="45.81685" lon="1.85816">
        <ele>698.5</ele>
        <time>2026-07-08T08:18:30.000Z</time>
      </trkpt>
      <trkpt lat="45.81684" lon="1.85814">
        <ele>698.4</ele>
        <time>2026-07-08T08:18:31.000Z</time>
      </trkpt>
      <trkpt lat="45.81683" lon="1.85812">
        <ele>698.5</ele>
        <time>2026-07-08T08:18:32.000Z</time>
      </trkpt>
      <trkpt lat="45.81682" lon="1.8581">
        <ele>698.5</ele>
        <time>2026-07-08T08:18:33.000Z</time>
      </trkpt>
      <trkpt lat="45.81681" lon="1.85808">
        <ele>698.7</ele>
        <time>2026-07-08T08:18:34.000Z</time>
      </trkpt>
      <trkpt lat="45.8168" lon="1.85807">
        <ele>698.7</ele>
        <time>2026-07-08T08:18:35.000Z</time>
      </trkpt>
      <trkpt lat="45.81678" lon="1.85805">
        <ele>698.7</ele>
        <time>2026-07-08T08:18:36.000Z</time>
      </trkpt>
      <trkpt lat="45.81677" lon="1.85804">
        <ele>698.4</ele>
        <time>2026-07-08T08:18:37.000Z</time>
      </trkpt>
      <trkpt lat="45.81675" lon="1.85803">
        <ele>698.6</ele>
        <time>2026-07-08T08:18:38.000Z</time>
      </trkpt>
      <trkpt lat="45.81674" lon="1.85802">
        <ele>699.3</ele>
        <time>2026-07-08T08:18:39.000Z</time>
      </trkpt>
      <trkpt lat="45.81673" lon="1.85801">
        <ele>699.1</ele>
        <time>2026-07-08T08:18:40.000Z</time>
      </trkpt>
      <trkpt lat="45.81672" lon="1.858">
        <ele>699.2</ele>
        <time>2026-07-08T08:18:41.000Z</time>
      </trkpt>
      <trkpt lat="45.8167" lon="1.85799">
        <ele>699.6</ele>
        <time>2026-07-08T08:18:42.000Z</time>
      </trkpt>
      <trkpt lat="45.81669" lon="1.85799">
        <ele>699.8</ele>
        <time>2026-07-08T08:18:43.000Z</time>
      </trkpt>
      <trkpt lat="45.81668" lon="1.85798">
        <ele>699.7</ele>
        <time>2026-07-08T08:18:44.000Z</time>
      </trkpt>
      <trkpt lat="45.81666" lon="1.85797">
        <ele>699.7</ele>
        <time>2026-07-08T08:18:45.000Z</time>
      </trkpt>
      <trkpt lat="45.81665" lon="1.85796">
        <ele>699.3</ele>
        <time>2026-07-08T08:18:46.000Z</time>
      </trkpt>
      <trkpt lat="45.81664" lon="1.85795">
        <ele>699.7</ele>
        <time>2026-07-08T08:18:47.000Z</time>
      </trkpt>
      <trkpt lat="45.81662" lon="1.85793">
        <ele>699.9</ele>
        <time>2026-07-08T08:18:48.000Z</time>
      </trkpt>
      <trkpt lat="45.81661" lon="1.8579">
        <ele>700</ele>
        <time>2026-07-08T08:18:49.000Z</time>
      </trkpt>
      <trkpt lat="45.81658" lon="1.85788">
        <ele>698.3</ele>
        <time>2026-07-08T08:18:50.000Z</time>
      </trkpt>
      <trkpt lat="45.81657" lon="1.85788">
        <ele>697.8</ele>
        <time>2026-07-08T08:18:51.000Z</time>
      </trkpt>
      <trkpt lat="45.81655" lon="1.85789">
        <ele>698.2</ele>
        <time>2026-07-08T08:18:52.000Z</time>
      </trkpt>
      <trkpt lat="45.81653" lon="1.8579">
        <ele>698.7</ele>
        <time>2026-07-08T08:18:53.000Z</time>
      </trkpt>
      <trkpt lat="45.81652" lon="1.8579">
        <ele>700.3</ele>
        <time>2026-07-08T08:18:54.000Z</time>
      </trkpt>
      <trkpt lat="45.8165" lon="1.85789">
        <ele>700.8</ele>
        <time>2026-07-08T08:18:55.000Z</time>
      </trkpt>
      <trkpt lat="45.81648" lon="1.85788">
        <ele>702</ele>
        <time>2026-07-08T08:18:56.000Z</time>
      </trkpt>
      <trkpt lat="45.81647" lon="1.85787">
        <ele>703</ele>
        <time>2026-07-08T08:18:57.000Z</time>
      </trkpt>
      <trkpt lat="45.81645" lon="1.85786">
        <ele>702.6</ele>
        <time>2026-07-08T08:18:58.000Z</time>
      </trkpt>
      <trkpt lat="45.81643" lon="1.85786">
        <ele>703.2</ele>
        <time>2026-07-08T08:18:59.000Z</time>
      </trkpt>
      <trkpt lat="45.8164" lon="1.85785">
        <ele>703.3</ele>
        <time>2026-07-08T08:19:00.000Z</time>
      </trkpt>
      <trkpt lat="45.81638" lon="1.85785">
        <ele>704.2</ele>
        <time>2026-07-08T08:19:01.000Z</time>
      </trkpt>
      <trkpt lat="45.81636" lon="1.85787">
        <ele>704.8</ele>
        <time>2026-07-08T08:19:02.000Z</time>
      </trkpt>
      <trkpt lat="45.81633" lon="1.85788">
        <ele>704.5</ele>
        <time>2026-07-08T08:19:03.000Z</time>
      </trkpt>
      <trkpt lat="45.81631" lon="1.85789">
        <ele>704.3</ele>
        <time>2026-07-08T08:19:04.000Z</time>
      </trkpt>
      <trkpt lat="45.8163" lon="1.85789">
        <ele>704.6</ele>
        <time>2026-07-08T08:19:05.000Z</time>
      </trkpt>
      <trkpt lat="45.81628" lon="1.8579">
        <ele>704.8</ele>
        <time>2026-07-08T08:19:06.000Z</time>
      </trkpt>
      <trkpt lat="45.81626" lon="1.8579">
        <ele>704.6</ele>
        <time>2026-07-08T08:19:07.000Z</time>
      </trkpt>
      <trkpt lat="45.81629" lon="1.8579">
        <ele>699.6</ele>
        <time>2026-07-08T08:19:08.000Z</time>
      </trkpt>
      <trkpt lat="45.81629" lon="1.85792">
        <ele>698.7</ele>
        <time>2026-07-08T08:19:09.000Z</time>
      </trkpt>
      <trkpt lat="45.8163" lon="1.85792">
        <ele>698.5</ele>
        <time>2026-07-08T08:19:10.000Z</time>
      </trkpt>
      <trkpt lat="45.8163" lon="1.85792">
        <ele>698.5</ele>
        <time>2026-07-08T08:19:11.000Z</time>
      </trkpt>
      <trkpt lat="45.8163" lon="1.85792">
        <ele>698.5</ele>
        <time>2026-07-08T08:19:12.000Z</time>
      </trkpt>
      <trkpt lat="45.8163" lon="1.85792">
        <ele>698.5</ele>
        <time>2026-07-08T08:19:13.000Z</time>
      </trkpt>
      <trkpt lat="45.8163" lon="1.85792">
        <ele>698.5</ele>
        <time>2026-07-08T08:19:14.000Z</time>
      </trkpt>
      <trkpt lat="45.8163" lon="1.85792">
        <ele>698.5</ele>
        <time>2026-07-08T08:19:15.000Z</time>
      </trkpt>
      <trkpt lat="45.8163" lon="1.85792">
        <ele>698.5</ele>
        <time>2026-07-08T08:19:16.000Z</time>
      </trkpt>
      <trkpt lat="45.8163" lon="1.85792">
        <ele>698.5</ele>
        <time>2026-07-08T08:19:17.000Z</time>
      </trkpt>
      <trkpt lat="45.8163" lon="1.85792">
        <ele>698.5</ele>
        <time>2026-07-08T08:19:18.000Z</time>
      </trkpt>
      <trkpt lat="45.8163" lon="1.85792">
        <ele>698.5</ele>
        <time>2026-07-08T08:19:19.000Z</time>
      </trkpt>
      <trkpt lat="45.8163" lon="1.85792">
        <ele>698.5</ele>
        <time>2026-07-08T08:19:20.000Z</time>
      </trkpt>
      <trkpt lat="45.8163" lon="1.85792">
        <ele>698.5</ele>
        <time>2026-07-08T08:19:21.000Z</time>
      </trkpt>
      <trkpt lat="45.8163" lon="1.85792">
        <ele>699.4</ele>
        <time>2026-07-08T08:19:22.000Z</time>
      </trkpt>
      <trkpt lat="45.8163" lon="1.85792">
        <ele>699.4</ele>
        <time>2026-07-08T08:19:23.000Z</time>
      </trkpt>
      <trkpt lat="45.81629" lon="1.85792">
        <ele>699.4</ele>
        <time>2026-07-08T08:19:24.000Z</time>
      </trkpt>
      <trkpt lat="45.81629" lon="1.85792">
        <ele>699.5</ele>
        <time>2026-07-08T08:19:25.000Z</time>
      </trkpt>
      <trkpt lat="45.81629" lon="1.85792">
        <ele>699.5</ele>
        <time>2026-07-08T08:19:26.000Z</time>
      </trkpt>
      <trkpt lat="45.81629" lon="1.85792">
        <ele>699.5</ele>
        <time>2026-07-08T08:19:27.000Z</time>
      </trkpt>
      <trkpt lat="45.81629" lon="1.85792">
        <ele>699.5</ele>
        <time>2026-07-08T08:19:28.000Z</time>
      </trkpt>
      <trkpt lat="45.81629" lon="1.85792">
        <ele>699.5</ele>
        <time>2026-07-08T08:19:29.000Z</time>
      </trkpt>
      <trkpt lat="45.81629" lon="1.85792">
        <ele>699.6</ele>
        <time>2026-07-08T08:19:30.000Z</time>
      </trkpt>
      <trkpt lat="45.81629" lon="1.85792">
        <ele>699.7</ele>
        <time>2026-07-08T08:19:31.000Z</time>
      </trkpt>
      <trkpt lat="45.81629" lon="1.85792">
        <ele>699.7</ele>
        <time>2026-07-08T08:19:32.000Z</time>
      </trkpt>
      <trkpt lat="45.81629" lon="1.85792">
        <ele>699.7</ele>
        <time>2026-07-08T08:19:33.000Z</time>
      </trkpt>
      <trkpt lat="45.81629" lon="1.85792">
        <ele>699.7</ele>
        <time>2026-07-08T08:19:34.000Z</time>
      </trkpt>
      <trkpt lat="45.81629" lon="1.85792">
        <ele>699.7</ele>
        <time>2026-07-08T08:19:35.000Z</time>
      </trkpt>
      <trkpt lat="45.81629" lon="1.85792">
        <ele>699.7</ele>
        <time>2026-07-08T08:19:36.000Z</time>
      </trkpt>
      <trkpt lat="45.81629" lon="1.85792">
        <ele>699.7</ele>
        <time>2026-07-08T08:19:37.000Z</time>
      </trkpt>
      <trkpt lat="45.81628" lon="1.85792">
        <ele>700.4</ele>
        <time>2026-07-08T08:19:38.000Z</time>
      </trkpt>
      <trkpt lat="45.81628" lon="1.85792">
        <ele>700.6</ele>
        <time>2026-07-08T08:19:39.000Z</time>
      </trkpt>
      <trkpt lat="45.81627" lon="1.85792">
        <ele>701.1</ele>
        <time>2026-07-08T08:19:40.000Z</time>
      </trkpt>
      <trkpt lat="45.81627" lon="1.85792">
        <ele>700.9</ele>
        <time>2026-07-08T08:19:41.000Z</time>
      </trkpt>
      <trkpt lat="45.81627" lon="1.85792">
        <ele>701</ele>
        <time>2026-07-08T08:19:42.000Z</time>
      </trkpt>
      <trkpt lat="45.81627" lon="1.85792">
        <ele>701</ele>
        <time>2026-07-08T08:19:43.000Z</time>
      </trkpt>
      <trkpt lat="45.81627" lon="1.85792">
        <ele>701</ele>
        <time>2026-07-08T08:19:44.000Z</time>
      </trkpt>
      <trkpt lat="45.81627" lon="1.85792">
        <ele>701</ele>
        <time>2026-07-08T08:19:45.000Z</time>
      </trkpt>
      <trkpt lat="45.81627" lon="1.85792">
        <ele>701</ele>
        <time>2026-07-08T08:19:46.000Z</time>
      </trkpt>
      <trkpt lat="45.81627" lon="1.85792">
        <ele>701</ele>
        <time>2026-07-08T08:19:47.000Z</time>
      </trkpt>
      <trkpt lat="45.81627" lon="1.85792">
        <ele>701</ele>
        <time>2026-07-08T08:19:48.000Z</time>
      </trkpt>
      <trkpt lat="45.81627" lon="1.85792">
        <ele>701.3</ele>
        <time>2026-07-08T08:19:49.000Z</time>
      </trkpt>
      <trkpt lat="45.81627" lon="1.85792">
        <ele>701.6</ele>
        <time>2026-07-08T08:19:50.000Z</time>
      </trkpt>
      <trkpt lat="45.81627" lon="1.85792">
        <ele>701.6</ele>
        <time>2026-07-08T08:19:51.000Z</time>
      </trkpt>
      <trkpt lat="45.81627" lon="1.85792">
        <ele>701.8</ele>
        <time>2026-07-08T08:19:52.000Z</time>
      </trkpt>
      <trkpt lat="45.81627" lon="1.85792">
        <ele>701.9</ele>
        <time>2026-07-08T08:19:53.000Z</time>
      </trkpt>
      <trkpt lat="45.81627" lon="1.85792">
        <ele>701.9</ele>
        <time>2026-07-08T08:19:54.000Z</time>
      </trkpt>
      <trkpt lat="45.81626" lon="1.85792">
        <ele>702</ele>
        <time>2026-07-08T08:19:55.000Z</time>
      </trkpt>
      <trkpt lat="45.81626" lon="1.85791">
        <ele>702.4</ele>
        <time>2026-07-08T08:19:56.000Z</time>
      </trkpt>
      <trkpt lat="45.81625" lon="1.85791">
        <ele>702.7</ele>
        <time>2026-07-08T08:19:57.000Z</time>
      </trkpt>
      <trkpt lat="45.81624" lon="1.8579">
        <ele>703.3</ele>
        <time>2026-07-08T08:19:58.000Z</time>
      </trkpt>
      <trkpt lat="45.81622" lon="1.8579">
        <ele>703.3</ele>
        <time>2026-07-08T08:19:59.000Z</time>
      </trkpt>
      <trkpt lat="45.8162" lon="1.85793">
        <ele>704.7</ele>
        <time>2026-07-08T08:20:00.000Z</time>
      </trkpt>
      <trkpt lat="45.81616" lon="1.85793">
        <ele>703.3</ele>
        <time>2026-07-08T08:20:01.000Z</time>
      </trkpt>
      <trkpt lat="45.81613" lon="1.85793">
        <ele>702.2</ele>
        <time>2026-07-08T08:20:02.000Z</time>
      </trkpt>
      <trkpt lat="45.81612" lon="1.85792">
        <ele>702.7</ele>
        <time>2026-07-08T08:20:03.000Z</time>
      </trkpt>
      <trkpt lat="45.8161" lon="1.8579">
        <ele>702</ele>
        <time>2026-07-08T08:20:04.000Z</time>
      </trkpt>
      <trkpt lat="45.81608" lon="1.85789">
        <ele>702</ele>
        <time>2026-07-08T08:20:05.000Z</time>
      </trkpt>
      <trkpt lat="45.81607" lon="1.85788">
        <ele>702.7</ele>
        <time>2026-07-08T08:20:06.000Z</time>
      </trkpt>
      <trkpt lat="45.81606" lon="1.85788">
        <ele>703.7</ele>
        <time>2026-07-08T08:20:07.000Z</time>
      </trkpt>
      <trkpt lat="45.81605" lon="1.85788">
        <ele>703.2</ele>
        <time>2026-07-08T08:20:08.000Z</time>
      </trkpt>
      <trkpt lat="45.81604" lon="1.85788">
        <ele>702.8</ele>
        <time>2026-07-08T08:20:09.000Z</time>
      </trkpt>
      <trkpt lat="45.81607" lon="1.85787">
        <ele>700.9</ele>
        <time>2026-07-08T08:20:10.000Z</time>
      </trkpt>
      <trkpt lat="45.81607" lon="1.85786">
        <ele>700.9</ele>
        <time>2026-07-08T08:20:11.000Z</time>
      </trkpt>
      <trkpt lat="45.81608" lon="1.85786">
        <ele>700.9</ele>
        <time>2026-07-08T08:20:12.000Z</time>
      </trkpt>
      <trkpt lat="45.81608" lon="1.85786">
        <ele>700.9</ele>
        <time>2026-07-08T08:20:13.000Z</time>
      </trkpt>
      <trkpt lat="45.81608" lon="1.85786">
        <ele>700.9</ele>
        <time>2026-07-08T08:20:14.000Z</time>
      </trkpt>
      <trkpt lat="45.81608" lon="1.85786">
        <ele>700.9</ele>
        <time>2026-07-08T08:20:15.000Z</time>
      </trkpt>
      <trkpt lat="45.81608" lon="1.85786">
        <ele>700.9</ele>
        <time>2026-07-08T08:20:16.000Z</time>
      </trkpt>
      <trkpt lat="45.81608" lon="1.85786">
        <ele>700.9</ele>
        <time>2026-07-08T08:20:17.000Z</time>
      </trkpt>
      <trkpt lat="45.81607" lon="1.85787">
        <ele>701.2</ele>
        <time>2026-07-08T08:20:18.000Z</time>
      </trkpt>
      <trkpt lat="45.81606" lon="1.85787">
        <ele>701.5</ele>
        <time>2026-07-08T08:20:19.000Z</time>
      </trkpt>
      <trkpt lat="45.81604" lon="1.85788">
        <ele>702.1</ele>
        <time>2026-07-08T08:20:20.000Z</time>
      </trkpt>
      <trkpt lat="45.81602" lon="1.85789">
        <ele>702.3</ele>
        <time>2026-07-08T08:20:21.000Z</time>
      </trkpt>
      <trkpt lat="45.81601" lon="1.8579">
        <ele>702.4</ele>
        <time>2026-07-08T08:20:22.000Z</time>
      </trkpt>
      <trkpt lat="45.81599" lon="1.85791">
        <ele>702.8</ele>
        <time>2026-07-08T08:20:23.000Z</time>
      </trkpt>
      <trkpt lat="45.81598" lon="1.85792">
        <ele>702.3</ele>
        <time>2026-07-08T08:20:24.000Z</time>
      </trkpt>
      <trkpt lat="45.81597" lon="1.85793">
        <ele>702.5</ele>
        <time>2026-07-08T08:20:25.000Z</time>
      </trkpt>
      <trkpt lat="45.81596" lon="1.85793">
        <ele>702.8</ele>
        <time>2026-07-08T08:20:26.000Z</time>
      </trkpt>
      <trkpt lat="45.81594" lon="1.85794">
        <ele>702.9</ele>
        <time>2026-07-08T08:20:27.000Z</time>
      </trkpt>
      <trkpt lat="45.81592" lon="1.85794">
        <ele>702.6</ele>
        <time>2026-07-08T08:20:28.000Z</time>
      </trkpt>
      <trkpt lat="45.81591" lon="1.85794">
        <ele>702.1</ele>
        <time>2026-07-08T08:20:29.000Z</time>
      </trkpt>
      <trkpt lat="45.8159" lon="1.85793">
        <ele>703</ele>
        <time>2026-07-08T08:20:30.000Z</time>
      </trkpt>
      <trkpt lat="45.81589" lon="1.85792">
        <ele>703.4</ele>
        <time>2026-07-08T08:20:31.000Z</time>
      </trkpt>
      <trkpt lat="45.81587" lon="1.85792">
        <ele>702.3</ele>
        <time>2026-07-08T08:20:32.000Z</time>
      </trkpt>
      <trkpt lat="45.81586" lon="1.85791">
        <ele>703.1</ele>
        <time>2026-07-08T08:20:33.000Z</time>
      </trkpt>
      <trkpt lat="45.81584" lon="1.85791">
        <ele>703.2</ele>
        <time>2026-07-08T08:20:34.000Z</time>
      </trkpt>
      <trkpt lat="45.81582" lon="1.85791">
        <ele>703.4</ele>
        <time>2026-07-08T08:20:35.000Z</time>
      </trkpt>
      <trkpt lat="45.81581" lon="1.85791">
        <ele>703.4</ele>
        <time>2026-07-08T08:20:36.000Z</time>
      </trkpt>
      <trkpt lat="45.81579" lon="1.8579">
        <ele>703.6</ele>
        <time>2026-07-08T08:20:37.000Z</time>
      </trkpt>
      <trkpt lat="45.81578" lon="1.85789">
        <ele>703.3</ele>
        <time>2026-07-08T08:20:38.000Z</time>
      </trkpt>
      <trkpt lat="45.81577" lon="1.85788">
        <ele>702.3</ele>
        <time>2026-07-08T08:20:39.000Z</time>
      </trkpt>
      <trkpt lat="45.81575" lon="1.85788">
        <ele>701.8</ele>
        <time>2026-07-08T08:20:40.000Z</time>
      </trkpt>
      <trkpt lat="45.81574" lon="1.85787">
        <ele>701.9</ele>
        <time>2026-07-08T08:20:41.000Z</time>
      </trkpt>
      <trkpt lat="45.81572" lon="1.85786">
        <ele>701.1</ele>
        <time>2026-07-08T08:20:42.000Z</time>
      </trkpt>
      <trkpt lat="45.81571" lon="1.85785">
        <ele>700.8</ele>
        <time>2026-07-08T08:20:43.000Z</time>
      </trkpt>
      <trkpt lat="45.81569" lon="1.85784">
        <ele>700.7</ele>
        <time>2026-07-08T08:20:44.000Z</time>
      </trkpt>
      <trkpt lat="45.81567" lon="1.85784">
        <ele>700.4</ele>
        <time>2026-07-08T08:20:45.000Z</time>
      </trkpt>
      <trkpt lat="45.81566" lon="1.85783">
        <ele>699.8</ele>
        <time>2026-07-08T08:20:46.000Z</time>
      </trkpt>
      <trkpt lat="45.81564" lon="1.85781">
        <ele>700</ele>
        <time>2026-07-08T08:20:47.000Z</time>
      </trkpt>
      <trkpt lat="45.81563" lon="1.8578">
        <ele>700.3</ele>
        <time>2026-07-08T08:20:48.000Z</time>
      </trkpt>
      <trkpt lat="45.81561" lon="1.85779">
        <ele>700.1</ele>
        <time>2026-07-08T08:20:49.000Z</time>
      </trkpt>
      <trkpt lat="45.8156" lon="1.85778">
        <ele>700.6</ele>
        <time>2026-07-08T08:20:50.000Z</time>
      </trkpt>
      <trkpt lat="45.81558" lon="1.85777">
        <ele>700.5</ele>
        <time>2026-07-08T08:20:51.000Z</time>
      </trkpt>
      <trkpt lat="45.81557" lon="1.85776">
        <ele>700.9</ele>
        <time>2026-07-08T08:20:52.000Z</time>
      </trkpt>
      <trkpt lat="45.81555" lon="1.85776">
        <ele>700.4</ele>
        <time>2026-07-08T08:20:53.000Z</time>
      </trkpt>
      <trkpt lat="45.81553" lon="1.85775">
        <ele>700.5</ele>
        <time>2026-07-08T08:20:54.000Z</time>
      </trkpt>
      <trkpt lat="45.81551" lon="1.85774">
        <ele>700.5</ele>
        <time>2026-07-08T08:20:55.000Z</time>
      </trkpt>
      <trkpt lat="45.8155" lon="1.85773">
        <ele>700.8</ele>
        <time>2026-07-08T08:20:56.000Z</time>
      </trkpt>
      <trkpt lat="45.81548" lon="1.85772">
        <ele>700.4</ele>
        <time>2026-07-08T08:20:57.000Z</time>
      </trkpt>
      <trkpt lat="45.81547" lon="1.8577">
        <ele>700.1</ele>
        <time>2026-07-08T08:20:58.000Z</time>
      </trkpt>
      <trkpt lat="45.81546" lon="1.85769">
        <ele>700.6</ele>
        <time>2026-07-08T08:20:59.000Z</time>
      </trkpt>
      <trkpt lat="45.81545" lon="1.85767">
        <ele>701</ele>
        <time>2026-07-08T08:21:00.000Z</time>
      </trkpt>
      <trkpt lat="45.81543" lon="1.85765">
        <ele>701.3</ele>
        <time>2026-07-08T08:21:01.000Z</time>
      </trkpt>
      <trkpt lat="45.81542" lon="1.85763">
        <ele>701.8</ele>
        <time>2026-07-08T08:21:02.000Z</time>
      </trkpt>
      <trkpt lat="45.81541" lon="1.85761">
        <ele>702.1</ele>
        <time>2026-07-08T08:21:03.000Z</time>
      </trkpt>
      <trkpt lat="45.8154" lon="1.8576">
        <ele>701.5</ele>
        <time>2026-07-08T08:21:04.000Z</time>
      </trkpt>
      <trkpt lat="45.8154" lon="1.85756">
        <ele>699.5</ele>
        <time>2026-07-08T08:21:05.000Z</time>
      </trkpt>
      <trkpt lat="45.81542" lon="1.85754">
        <ele>699.5</ele>
        <time>2026-07-08T08:21:06.000Z</time>
      </trkpt>
      <trkpt lat="45.81543" lon="1.85754">
        <ele>698.6</ele>
        <time>2026-07-08T08:21:07.000Z</time>
      </trkpt>
      <trkpt lat="45.81545" lon="1.85754">
        <ele>699.2</ele>
        <time>2026-07-08T08:21:08.000Z</time>
      </trkpt>
      <trkpt lat="45.81546" lon="1.85752">
        <ele>699.8</ele>
        <time>2026-07-08T08:21:09.000Z</time>
      </trkpt>
      <trkpt lat="45.81546" lon="1.8575">
        <ele>700.6</ele>
        <time>2026-07-08T08:21:10.000Z</time>
      </trkpt>
      <trkpt lat="45.81545" lon="1.85749">
        <ele>701.2</ele>
        <time>2026-07-08T08:21:11.000Z</time>
      </trkpt>
      <trkpt lat="45.81544" lon="1.85747">
        <ele>701.6</ele>
        <time>2026-07-08T08:21:12.000Z</time>
      </trkpt>
      <trkpt lat="45.81543" lon="1.85747">
        <ele>702.1</ele>
        <time>2026-07-08T08:21:13.000Z</time>
      </trkpt>
      <trkpt lat="45.81542" lon="1.85746">
        <ele>700.1</ele>
        <time>2026-07-08T08:21:14.000Z</time>
      </trkpt>
      <trkpt lat="45.8154" lon="1.85745">
        <ele>699.2</ele>
        <time>2026-07-08T08:21:15.000Z</time>
      </trkpt>
      <trkpt lat="45.81538" lon="1.85744">
        <ele>699.1</ele>
        <time>2026-07-08T08:21:16.000Z</time>
      </trkpt>
      <trkpt lat="45.81536" lon="1.85743">
        <ele>699.6</ele>
        <time>2026-07-08T08:21:17.000Z</time>
      </trkpt>
      <trkpt lat="45.81535" lon="1.85742">
        <ele>699.4</ele>
        <time>2026-07-08T08:21:18.000Z</time>
      </trkpt>
      <trkpt lat="45.81533" lon="1.8574">
        <ele>699.7</ele>
        <time>2026-07-08T08:21:19.000Z</time>
      </trkpt>
      <trkpt lat="45.81532" lon="1.85739">
        <ele>699.8</ele>
        <time>2026-07-08T08:21:20.000Z</time>
      </trkpt>
      <trkpt lat="45.81531" lon="1.85737">
        <ele>700.7</ele>
        <time>2026-07-08T08:21:21.000Z</time>
      </trkpt>
      <trkpt lat="45.8153" lon="1.85735">
        <ele>700.2</ele>
        <time>2026-07-08T08:21:22.000Z</time>
      </trkpt>
      <trkpt lat="45.81529" lon="1.85733">
        <ele>700.4</ele>
        <time>2026-07-08T08:21:23.000Z</time>
      </trkpt>
      <trkpt lat="45.81527" lon="1.85732">
        <ele>700.1</ele>
        <time>2026-07-08T08:21:24.000Z</time>
      </trkpt>
      <trkpt lat="45.81526" lon="1.8573">
        <ele>700</ele>
        <time>2026-07-08T08:21:25.000Z</time>
      </trkpt>
      <trkpt lat="45.81525" lon="1.85728">
        <ele>700.7</ele>
        <time>2026-07-08T08:21:26.000Z</time>
      </trkpt>
      <trkpt lat="45.81524" lon="1.85727">
        <ele>700.7</ele>
        <time>2026-07-08T08:21:27.000Z</time>
      </trkpt>
      <trkpt lat="45.81523" lon="1.85724">
        <ele>701.7</ele>
        <time>2026-07-08T08:21:28.000Z</time>
      </trkpt>
      <trkpt lat="45.81522" lon="1.85722">
        <ele>701.3</ele>
        <time>2026-07-08T08:21:29.000Z</time>
      </trkpt>
      <trkpt lat="45.81521" lon="1.8572">
        <ele>701.5</ele>
        <time>2026-07-08T08:21:30.000Z</time>
      </trkpt>
      <trkpt lat="45.8152" lon="1.85718">
        <ele>699.9</ele>
        <time>2026-07-08T08:21:31.000Z</time>
      </trkpt>
      <trkpt lat="45.81519" lon="1.85717">
        <ele>699.6</ele>
        <time>2026-07-08T08:21:32.000Z</time>
      </trkpt>
      <trkpt lat="45.81518" lon="1.85715">
        <ele>698.7</ele>
        <time>2026-07-08T08:21:33.000Z</time>
      </trkpt>
      <trkpt lat="45.81517" lon="1.85713">
        <ele>698.1</ele>
        <time>2026-07-08T08:21:34.000Z</time>
      </trkpt>
      <trkpt lat="45.81517" lon="1.85711">
        <ele>697.7</ele>
        <time>2026-07-08T08:21:35.000Z</time>
      </trkpt>
      <trkpt lat="45.81516" lon="1.85709">
        <ele>696.3</ele>
        <time>2026-07-08T08:21:36.000Z</time>
      </trkpt>
      <trkpt lat="45.81516" lon="1.85708">
        <ele>695.5</ele>
        <time>2026-07-08T08:21:37.000Z</time>
      </trkpt>
      <trkpt lat="45.81516" lon="1.85707">
        <ele>694.6</ele>
        <time>2026-07-08T08:21:38.000Z</time>
      </trkpt>
      <trkpt lat="45.81516" lon="1.85706">
        <ele>694</ele>
        <time>2026-07-08T08:21:39.000Z</time>
      </trkpt>
      <trkpt lat="45.81516" lon="1.85704">
        <ele>692.6</ele>
        <time>2026-07-08T08:21:40.000Z</time>
      </trkpt>
      <trkpt lat="45.81515" lon="1.85702">
        <ele>691.4</ele>
        <time>2026-07-08T08:21:41.000Z</time>
      </trkpt>
      <trkpt lat="45.81515" lon="1.85701">
        <ele>690.2</ele>
        <time>2026-07-08T08:21:42.000Z</time>
      </trkpt>
      <trkpt lat="45.81515" lon="1.85698">
        <ele>689.8</ele>
        <time>2026-07-08T08:21:43.000Z</time>
      </trkpt>
      <trkpt lat="45.81513" lon="1.85695">
        <ele>689.6</ele>
        <time>2026-07-08T08:21:44.000Z</time>
      </trkpt>
      <trkpt lat="45.81512" lon="1.85693">
        <ele>689.6</ele>
        <time>2026-07-08T08:21:45.000Z</time>
      </trkpt>
      <trkpt lat="45.81511" lon="1.8569">
        <ele>689.8</ele>
        <time>2026-07-08T08:21:46.000Z</time>
      </trkpt>
      <trkpt lat="45.8151" lon="1.85688">
        <ele>690</ele>
        <time>2026-07-08T08:21:47.000Z</time>
      </trkpt>
      <trkpt lat="45.81509" lon="1.85685">
        <ele>690.4</ele>
        <time>2026-07-08T08:21:48.000Z</time>
      </trkpt>
      <trkpt lat="45.81507" lon="1.85683">
        <ele>691.7</ele>
        <time>2026-07-08T08:21:49.000Z</time>
      </trkpt>
      <trkpt lat="45.81505" lon="1.85681">
        <ele>693</ele>
        <time>2026-07-08T08:21:50.000Z</time>
      </trkpt>
      <trkpt lat="45.81503" lon="1.8568">
        <ele>693.4</ele>
        <time>2026-07-08T08:21:51.000Z</time>
      </trkpt>
      <trkpt lat="45.81502" lon="1.8568">
        <ele>694.3</ele>
        <time>2026-07-08T08:21:52.000Z</time>
      </trkpt>
      <trkpt lat="45.81502" lon="1.85682">
        <ele>694.2</ele>
        <time>2026-07-08T08:21:53.000Z</time>
      </trkpt>
      <trkpt lat="45.81501" lon="1.85683">
        <ele>694.3</ele>
        <time>2026-07-08T08:21:54.000Z</time>
      </trkpt>
      <trkpt lat="45.81501" lon="1.85685">
        <ele>695</ele>
        <time>2026-07-08T08:21:55.000Z</time>
      </trkpt>
      <trkpt lat="45.815" lon="1.85686">
        <ele>695.2</ele>
        <time>2026-07-08T08:21:56.000Z</time>
      </trkpt>
      <trkpt lat="45.815" lon="1.85686">
        <ele>695.6</ele>
        <time>2026-07-08T08:21:57.000Z</time>
      </trkpt>
      <trkpt lat="45.81499" lon="1.85686">
        <ele>696.1</ele>
        <time>2026-07-08T08:21:58.000Z</time>
      </trkpt>
      <trkpt lat="45.81499" lon="1.85685">
        <ele>696.1</ele>
        <time>2026-07-08T08:21:59.000Z</time>
      </trkpt>
      <trkpt lat="45.81497" lon="1.85687">
        <ele>697.1</ele>
        <time>2026-07-08T08:22:00.000Z</time>
      </trkpt>
      <trkpt lat="45.81497" lon="1.85687">
        <ele>697.2</ele>
        <time>2026-07-08T08:22:01.000Z</time>
      </trkpt>
      <trkpt lat="45.81497" lon="1.85687">
        <ele>697.6</ele>
        <time>2026-07-08T08:22:02.000Z</time>
      </trkpt>
      <trkpt lat="45.81497" lon="1.85687">
        <ele>697.8</ele>
        <time>2026-07-08T08:22:03.000Z</time>
      </trkpt>
      <trkpt lat="45.81497" lon="1.85687">
        <ele>698.3</ele>
        <time>2026-07-08T08:22:04.000Z</time>
      </trkpt>
      <trkpt lat="45.81497" lon="1.85687">
        <ele>698.2</ele>
        <time>2026-07-08T08:22:05.000Z</time>
      </trkpt>
      <trkpt lat="45.81497" lon="1.85687">
        <ele>698.2</ele>
        <time>2026-07-08T08:22:06.000Z</time>
      </trkpt>
      <trkpt lat="45.81497" lon="1.85687">
        <ele>698.2</ele>
        <time>2026-07-08T08:22:07.000Z</time>
      </trkpt>
      <trkpt lat="45.81497" lon="1.85687">
        <ele>698.3</ele>
        <time>2026-07-08T08:22:08.000Z</time>
      </trkpt>
      <trkpt lat="45.81497" lon="1.85687">
        <ele>698.6</ele>
        <time>2026-07-08T08:22:09.000Z</time>
      </trkpt>
      <trkpt lat="45.81496" lon="1.85687">
        <ele>698.1</ele>
        <time>2026-07-08T08:22:10.000Z</time>
      </trkpt>
      <trkpt lat="45.81495" lon="1.85688">
        <ele>698.2</ele>
        <time>2026-07-08T08:22:11.000Z</time>
      </trkpt>
      <trkpt lat="45.81495" lon="1.85689">
        <ele>698.6</ele>
        <time>2026-07-08T08:22:12.000Z</time>
      </trkpt>
      <trkpt lat="45.81495" lon="1.85689">
        <ele>698.6</ele>
        <time>2026-07-08T08:22:13.000Z</time>
      </trkpt>
      <trkpt lat="45.81494" lon="1.85691">
        <ele>698.7</ele>
        <time>2026-07-08T08:22:14.000Z</time>
      </trkpt>
      <trkpt lat="45.81494" lon="1.85693">
        <ele>698.5</ele>
        <time>2026-07-08T08:22:15.000Z</time>
      </trkpt>
      <trkpt lat="45.81495" lon="1.85694">
        <ele>698.1</ele>
        <time>2026-07-08T08:22:16.000Z</time>
      </trkpt>
      <trkpt lat="45.81495" lon="1.85694">
        <ele>698</ele>
        <time>2026-07-08T08:22:17.000Z</time>
      </trkpt>
      <trkpt lat="45.81495" lon="1.85694">
        <ele>698.1</ele>
        <time>2026-07-08T08:22:18.000Z</time>
      </trkpt>
      <trkpt lat="45.81495" lon="1.85694">
        <ele>698.1</ele>
        <time>2026-07-08T08:22:19.000Z</time>
      </trkpt>
      <trkpt lat="45.81495" lon="1.85694">
        <ele>698.2</ele>
        <time>2026-07-08T08:22:20.000Z</time>
      </trkpt>
      <trkpt lat="45.81495" lon="1.85695">
        <ele>698.7</ele>
        <time>2026-07-08T08:22:21.000Z</time>
      </trkpt>
      <trkpt lat="45.81494" lon="1.85696">
        <ele>698.7</ele>
        <time>2026-07-08T08:22:22.000Z</time>
      </trkpt>
      <trkpt lat="45.81496" lon="1.85697">
        <ele>698.9</ele>
        <time>2026-07-08T08:22:23.000Z</time>
      </trkpt>
      <trkpt lat="45.81496" lon="1.85697">
        <ele>698.8</ele>
        <time>2026-07-08T08:22:24.000Z</time>
      </trkpt>
      <trkpt lat="45.81496" lon="1.85697">
        <ele>698.8</ele>
        <time>2026-07-08T08:22:25.000Z</time>
      </trkpt>
      <trkpt lat="45.81496" lon="1.85697">
        <ele>698.8</ele>
        <time>2026-07-08T08:22:26.000Z</time>
      </trkpt>
      <trkpt lat="45.81496" lon="1.85697">
        <ele>698.8</ele>
        <time>2026-07-08T08:22:27.000Z</time>
      </trkpt>
      <trkpt lat="45.81496" lon="1.85697">
        <ele>698.8</ele>
        <time>2026-07-08T08:22:28.000Z</time>
      </trkpt>
      <trkpt lat="45.81496" lon="1.85697">
        <ele>698.6</ele>
        <time>2026-07-08T08:22:29.000Z</time>
      </trkpt>
      <trkpt lat="45.81496" lon="1.85697">
        <ele>698.6</ele>
        <time>2026-07-08T08:22:30.000Z</time>
      </trkpt>
      <trkpt lat="45.81496" lon="1.85697">
        <ele>698.6</ele>
        <time>2026-07-08T08:22:31.000Z</time>
      </trkpt>
      <trkpt lat="45.81496" lon="1.85697">
        <ele>698.6</ele>
        <time>2026-07-08T08:22:32.000Z</time>
      </trkpt>
      <trkpt lat="45.81496" lon="1.85697">
        <ele>698.6</ele>
        <time>2026-07-08T08:22:33.000Z</time>
      </trkpt>
      <trkpt lat="45.81496" lon="1.85697">
        <ele>698.6</ele>
        <time>2026-07-08T08:22:34.000Z</time>
      </trkpt>
      <trkpt lat="45.81496" lon="1.85697">
        <ele>698.6</ele>
        <time>2026-07-08T08:22:35.000Z</time>
      </trkpt>
      <trkpt lat="45.81496" lon="1.85697">
        <ele>698.6</ele>
        <time>2026-07-08T08:22:36.000Z</time>
      </trkpt>
      <trkpt lat="45.81496" lon="1.85697">
        <ele>698.6</ele>
        <time>2026-07-08T08:22:37.000Z</time>
      </trkpt>
      <trkpt lat="45.81496" lon="1.85697">
        <ele>698.6</ele>
        <time>2026-07-08T08:22:38.000Z</time>
      </trkpt>
      <trkpt lat="45.81496" lon="1.85697">
        <ele>698.9</ele>
        <time>2026-07-08T08:22:39.000Z</time>
      </trkpt>
      <trkpt lat="45.81496" lon="1.85697">
        <ele>698.9</ele>
        <time>2026-07-08T08:22:40.000Z</time>
      </trkpt>
      <trkpt lat="45.81496" lon="1.85698">
        <ele>698.8</ele>
        <time>2026-07-08T08:22:41.000Z</time>
      </trkpt>
      <trkpt lat="45.81495" lon="1.85699">
        <ele>698.7</ele>
        <time>2026-07-08T08:22:42.000Z</time>
      </trkpt>
      <trkpt lat="45.81495" lon="1.85699">
        <ele>698.6</ele>
        <time>2026-07-08T08:22:43.000Z</time>
      </trkpt>
      <trkpt lat="45.81494" lon="1.85698">
        <ele>698.7</ele>
        <time>2026-07-08T08:22:44.000Z</time>
      </trkpt>
      <trkpt lat="45.81494" lon="1.85697">
        <ele>698.5</ele>
        <time>2026-07-08T08:22:45.000Z</time>
      </trkpt>
      <trkpt lat="45.81494" lon="1.85696">
        <ele>698.5</ele>
        <time>2026-07-08T08:22:46.000Z</time>
      </trkpt>
      <trkpt lat="45.81494" lon="1.85695">
        <ele>698.6</ele>
        <time>2026-07-08T08:22:47.000Z</time>
      </trkpt>
      <trkpt lat="45.81496" lon="1.85693">
        <ele>698.9</ele>
        <time>2026-07-08T08:22:48.000Z</time>
      </trkpt>
      <trkpt lat="45.81497" lon="1.85692">
        <ele>698.8</ele>
        <time>2026-07-08T08:22:49.000Z</time>
      </trkpt>
      <trkpt lat="45.81497" lon="1.85691">
        <ele>698.9</ele>
        <time>2026-07-08T08:22:50.000Z</time>
      </trkpt>
      <trkpt lat="45.81497" lon="1.85689">
        <ele>698.6</ele>
        <time>2026-07-08T08:22:51.000Z</time>
      </trkpt>
      <trkpt lat="45.81496" lon="1.85688">
        <ele>698.3</ele>
        <time>2026-07-08T08:22:52.000Z</time>
      </trkpt>
      <trkpt lat="45.81496" lon="1.85688">
        <ele>698.7</ele>
        <time>2026-07-08T08:22:53.000Z</time>
      </trkpt>
      <trkpt lat="45.81495" lon="1.85688">
        <ele>698.9</ele>
        <time>2026-07-08T08:22:54.000Z</time>
      </trkpt>
      <trkpt lat="45.81495" lon="1.85688">
        <ele>698.9</ele>
        <time>2026-07-08T08:22:55.000Z</time>
      </trkpt>
      <trkpt lat="45.81494" lon="1.85689">
        <ele>699</ele>
        <time>2026-07-08T08:22:56.000Z</time>
      </trkpt>
      <trkpt lat="45.81494" lon="1.8569">
        <ele>699</ele>
        <time>2026-07-08T08:22:57.000Z</time>
      </trkpt>
      <trkpt lat="45.81494" lon="1.85692">
        <ele>698.7</ele>
        <time>2026-07-08T08:22:58.000Z</time>
      </trkpt>
      <trkpt lat="45.81494" lon="1.85694">
        <ele>698.5</ele>
        <time>2026-07-08T08:22:59.000Z</time>
      </trkpt>
      <trkpt lat="45.81495" lon="1.85695">
        <ele>698.8</ele>
        <time>2026-07-08T08:23:00.000Z</time>
      </trkpt>
      <trkpt lat="45.81495" lon="1.85695">
        <ele>698.7</ele>
        <time>2026-07-08T08:23:01.000Z</time>
      </trkpt>
      <trkpt lat="45.81497" lon="1.85695">
        <ele>698.5</ele>
        <time>2026-07-08T08:23:02.000Z</time>
      </trkpt>
      <trkpt lat="45.81497" lon="1.85695">
        <ele>698.9</ele>
        <time>2026-07-08T08:23:03.000Z</time>
      </trkpt>
      <trkpt lat="45.81498" lon="1.85694">
        <ele>698.6</ele>
        <time>2026-07-08T08:23:04.000Z</time>
      </trkpt>
      <trkpt lat="45.81498" lon="1.85695">
        <ele>698.5</ele>
        <time>2026-07-08T08:23:05.000Z</time>
      </trkpt>
      <trkpt lat="45.81497" lon="1.85695">
        <ele>698.5</ele>
        <time>2026-07-08T08:23:06.000Z</time>
      </trkpt>
      <trkpt lat="45.81497" lon="1.85696">
        <ele>698.5</ele>
        <time>2026-07-08T08:23:07.000Z</time>
      </trkpt>
      <trkpt lat="45.81497" lon="1.85696">
        <ele>698.5</ele>
        <time>2026-07-08T08:23:08.000Z</time>
      </trkpt>
      <trkpt lat="45.81497" lon="1.85696">
        <ele>698.7</ele>
        <time>2026-07-08T08:23:09.000Z</time>
      </trkpt>
      <trkpt lat="45.81498" lon="1.85697">
        <ele>698.8</ele>
        <time>2026-07-08T08:23:10.000Z</time>
      </trkpt>
      <trkpt lat="45.81498" lon="1.85697">
        <ele>698.7</ele>
        <time>2026-07-08T08:23:11.000Z</time>
      </trkpt>
      <trkpt lat="45.81498" lon="1.85698">
        <ele>698.5</ele>
        <time>2026-07-08T08:23:12.000Z</time>
      </trkpt>
      <trkpt lat="45.81498" lon="1.85699">
        <ele>698.6</ele>
        <time>2026-07-08T08:23:13.000Z</time>
      </trkpt>
      <trkpt lat="45.81498" lon="1.857">
        <ele>698.3</ele>
        <time>2026-07-08T08:23:14.000Z</time>
      </trkpt>
      <trkpt lat="45.81498" lon="1.85701">
        <ele>698.3</ele>
        <time>2026-07-08T08:23:15.000Z</time>
      </trkpt>
      <trkpt lat="45.81498" lon="1.85701">
        <ele>698.6</ele>
        <time>2026-07-08T08:23:16.000Z</time>
      </trkpt>
      <trkpt lat="45.81498" lon="1.85701">
        <ele>698.6</ele>
        <time>2026-07-08T08:23:17.000Z</time>
      </trkpt>
      <trkpt lat="45.81498" lon="1.85701">
        <ele>698.6</ele>
        <time>2026-07-08T08:23:18.000Z</time>
      </trkpt>
      <trkpt lat="45.81498" lon="1.85701">
        <ele>698.5</ele>
        <time>2026-07-08T08:23:19.000Z</time>
      </trkpt>
      <trkpt lat="45.81498" lon="1.85701">
        <ele>698.3</ele>
        <time>2026-07-08T08:23:20.000Z</time>
      </trkpt>
      <trkpt lat="45.81498" lon="1.857">
        <ele>698.3</ele>
        <time>2026-07-08T08:23:21.000Z</time>
      </trkpt>
      <trkpt lat="45.81498" lon="1.857">
        <ele>698.2</ele>
        <time>2026-07-08T08:23:22.000Z</time>
      </trkpt>
      <trkpt lat="45.81497" lon="1.85699">
        <ele>698.6</ele>
        <time>2026-07-08T08:23:23.000Z</time>
      </trkpt>
      <trkpt lat="45.81497" lon="1.85698">
        <ele>698.8</ele>
        <time>2026-07-08T08:23:24.000Z</time>
      </trkpt>
      <trkpt lat="45.81497" lon="1.85698">
        <ele>698.7</ele>
        <time>2026-07-08T08:23:25.000Z</time>
      </trkpt>
      <trkpt lat="45.81497" lon="1.85698">
        <ele>698.7</ele>
        <time>2026-07-08T08:23:26.000Z</time>
      </trkpt>
      <trkpt lat="45.81497" lon="1.85698">
        <ele>698.8</ele>
        <time>2026-07-08T08:23:27.000Z</time>
      </trkpt>
      <trkpt lat="45.81497" lon="1.85698">
        <ele>698.8</ele>
        <time>2026-07-08T08:23:28.000Z</time>
      </trkpt>
      <trkpt lat="45.81497" lon="1.85698">
        <ele>698.7</ele>
        <time>2026-07-08T08:23:29.000Z</time>
      </trkpt>
      <trkpt lat="45.81497" lon="1.85698">
        <ele>698.7</ele>
        <time>2026-07-08T08:23:30.000Z</time>
      </trkpt>
      <trkpt lat="45.81497" lon="1.85698">
        <ele>698.8</ele>
        <time>2026-07-08T08:23:31.000Z</time>
      </trkpt>
      <trkpt lat="45.81497" lon="1.85697">
        <ele>699</ele>
        <time>2026-07-08T08:23:32.000Z</time>
      </trkpt>
      <trkpt lat="45.81497" lon="1.85697">
        <ele>699</ele>
        <time>2026-07-08T08:23:33.000Z</time>
      </trkpt>
      <trkpt lat="45.81497" lon="1.85697">
        <ele>699</ele>
        <time>2026-07-08T08:23:34.000Z</time>
      </trkpt>
      <trkpt lat="45.81497" lon="1.85697">
        <ele>699</ele>
        <time>2026-07-08T08:23:35.000Z</time>
      </trkpt>
      <trkpt lat="45.81497" lon="1.85697">
        <ele>699</ele>
        <time>2026-07-08T08:23:36.000Z</time>
      </trkpt>
      <trkpt lat="45.81497" lon="1.85697">
        <ele>699</ele>
        <time>2026-07-08T08:23:37.000Z</time>
      </trkpt>
      <trkpt lat="45.81497" lon="1.85698">
        <ele>699.1</ele>
        <time>2026-07-08T08:23:38.000Z</time>
      </trkpt>
      <trkpt lat="45.81497" lon="1.85698">
        <ele>699.2</ele>
        <time>2026-07-08T08:23:39.000Z</time>
      </trkpt>
      <trkpt lat="45.81497" lon="1.85697">
        <ele>699.2</ele>
        <time>2026-07-08T08:23:40.000Z</time>
      </trkpt>
      <trkpt lat="45.81497" lon="1.85698">
        <ele>699.5</ele>
        <time>2026-07-08T08:23:41.000Z</time>
      </trkpt>
      <trkpt lat="45.81497" lon="1.85698">
        <ele>699.5</ele>
        <time>2026-07-08T08:23:42.000Z</time>
      </trkpt>
      <trkpt lat="45.81497" lon="1.85698">
        <ele>699.4</ele>
        <time>2026-07-08T08:23:43.000Z</time>
      </trkpt>
      <trkpt lat="45.81497" lon="1.85698">
        <ele>699.4</ele>
        <time>2026-07-08T08:23:44.000Z</time>
      </trkpt>
      <trkpt lat="45.81497" lon="1.85698">
        <ele>699.4</ele>
        <time>2026-07-08T08:23:45.000Z</time>
      </trkpt>
      <trkpt lat="45.81497" lon="1.85698">
        <ele>699.4</ele>
        <time>2026-07-08T08:23:46.000Z</time>
      </trkpt>
      <trkpt lat="45.81497" lon="1.85698">
        <ele>699.4</ele>
        <time>2026-07-08T08:23:47.000Z</time>
      </trkpt>
      <trkpt lat="45.81497" lon="1.85698">
        <ele>699.4</ele>
        <time>2026-07-08T08:23:48.000Z</time>
      </trkpt>
      <trkpt lat="45.81497" lon="1.85698">
        <ele>699.4</ele>
        <time>2026-07-08T08:23:49.000Z</time>
      </trkpt>
      <trkpt lat="45.81497" lon="1.85697">
        <ele>699.6</ele>
        <time>2026-07-08T08:23:50.000Z</time>
      </trkpt>
      <trkpt lat="45.81498" lon="1.85697">
        <ele>699.7</ele>
        <time>2026-07-08T08:23:51.000Z</time>
      </trkpt>
      <trkpt lat="45.81498" lon="1.85697">
        <ele>699.7</ele>
        <time>2026-07-08T08:23:52.000Z</time>
      </trkpt>
      <trkpt lat="45.81499" lon="1.85697">
        <ele>699.9</ele>
        <time>2026-07-08T08:23:53.000Z</time>
      </trkpt>
      <trkpt lat="45.815" lon="1.85696">
        <ele>700</ele>
        <time>2026-07-08T08:23:54.000Z</time>
      </trkpt>
      <trkpt lat="45.815" lon="1.85694">
        <ele>699.8</ele>
        <time>2026-07-08T08:23:55.000Z</time>
      </trkpt>
      <trkpt lat="45.81501" lon="1.85692">
        <ele>699.8</ele>
        <time>2026-07-08T08:23:56.000Z</time>
      </trkpt>
      <trkpt lat="45.81501" lon="1.85691">
        <ele>700</ele>
        <time>2026-07-08T08:23:57.000Z</time>
      </trkpt>
      <trkpt lat="45.81501" lon="1.85691">
        <ele>699.6</ele>
        <time>2026-07-08T08:23:58.000Z</time>
      </trkpt>
      <trkpt lat="45.81501" lon="1.85689">
        <ele>699.6</ele>
        <time>2026-07-08T08:23:59.000Z</time>
      </trkpt>
      <trkpt lat="45.81501" lon="1.85688">
        <ele>699.8</ele>
        <time>2026-07-08T08:24:00.000Z</time>
      </trkpt>
      <trkpt lat="45.81501" lon="1.85686">
        <ele>700</ele>
        <time>2026-07-08T08:24:01.000Z</time>
      </trkpt>
      <trkpt lat="45.81501" lon="1.85684">
        <ele>700.2</ele>
        <time>2026-07-08T08:24:02.000Z</time>
      </trkpt>
      <trkpt lat="45.81501" lon="1.85682">
        <ele>700.4</ele>
        <time>2026-07-08T08:24:03.000Z</time>
      </trkpt>
      <trkpt lat="45.81502" lon="1.85679">
        <ele>701.1</ele>
        <time>2026-07-08T08:24:04.000Z</time>
      </trkpt>
      <trkpt lat="45.81502" lon="1.85677">
        <ele>701.3</ele>
        <time>2026-07-08T08:24:05.000Z</time>
      </trkpt>
      <trkpt lat="45.81502" lon="1.85674">
        <ele>701.1</ele>
        <time>2026-07-08T08:24:06.000Z</time>
      </trkpt>
      <trkpt lat="45.81502" lon="1.85672">
        <ele>701.6</ele>
        <time>2026-07-08T08:24:07.000Z</time>
      </trkpt>
      <trkpt lat="45.81502" lon="1.85669">
        <ele>701.6</ele>
        <time>2026-07-08T08:24:08.000Z</time>
      </trkpt>
      <trkpt lat="45.81501" lon="1.85667">
        <ele>701.6</ele>
        <time>2026-07-08T08:24:09.000Z</time>
      </trkpt>
      <trkpt lat="45.81501" lon="1.85663">
        <ele>701.9</ele>
        <time>2026-07-08T08:24:10.000Z</time>
      </trkpt>
      <trkpt lat="45.81501" lon="1.85661">
        <ele>702.1</ele>
        <time>2026-07-08T08:24:11.000Z</time>
      </trkpt>
      <trkpt lat="45.81502" lon="1.85659">
        <ele>702.8</ele>
        <time>2026-07-08T08:24:12.000Z</time>
      </trkpt>
      <trkpt lat="45.81502" lon="1.85656">
        <ele>703.5</ele>
        <time>2026-07-08T08:24:13.000Z</time>
      </trkpt>
      <trkpt lat="45.81502" lon="1.85653">
        <ele>703.9</ele>
        <time>2026-07-08T08:24:14.000Z</time>
      </trkpt>
      <trkpt lat="45.81503" lon="1.85651">
        <ele>704</ele>
        <time>2026-07-08T08:24:15.000Z</time>
      </trkpt>
      <trkpt lat="45.81504" lon="1.85649">
        <ele>704.2</ele>
        <time>2026-07-08T08:24:16.000Z</time>
      </trkpt>
      <trkpt lat="45.81505" lon="1.85647">
        <ele>704</ele>
        <time>2026-07-08T08:24:17.000Z</time>
      </trkpt>
      <trkpt lat="45.81506" lon="1.85645">
        <ele>704.2</ele>
        <time>2026-07-08T08:24:18.000Z</time>
      </trkpt>
      <trkpt lat="45.81507" lon="1.85643">
        <ele>704.1</ele>
        <time>2026-07-08T08:24:19.000Z</time>
      </trkpt>
      <trkpt lat="45.81508" lon="1.85641">
        <ele>704</ele>
        <time>2026-07-08T08:24:20.000Z</time>
      </trkpt>
      <trkpt lat="45.81509" lon="1.85639">
        <ele>704.4</ele>
        <time>2026-07-08T08:24:21.000Z</time>
      </trkpt>
      <trkpt lat="45.81509" lon="1.85637">
        <ele>704.6</ele>
        <time>2026-07-08T08:24:22.000Z</time>
      </trkpt>
      <trkpt lat="45.8151" lon="1.85637">
        <ele>704.5</ele>
        <time>2026-07-08T08:24:23.000Z</time>
      </trkpt>
      <trkpt lat="45.8151" lon="1.85637">
        <ele>704.1</ele>
        <time>2026-07-08T08:24:24.000Z</time>
      </trkpt>
      <trkpt lat="45.8151" lon="1.85637">
        <ele>703.3</ele>
        <time>2026-07-08T08:24:25.000Z</time>
      </trkpt>
      <trkpt lat="45.81509" lon="1.85637">
        <ele>703.3</ele>
        <time>2026-07-08T08:24:26.000Z</time>
      </trkpt>
      <trkpt lat="45.81509" lon="1.85637">
        <ele>703.3</ele>
        <time>2026-07-08T08:24:27.000Z</time>
      </trkpt>
      <trkpt lat="45.81509" lon="1.85637">
        <ele>703.4</ele>
        <time>2026-07-08T08:24:28.000Z</time>
      </trkpt>
      <trkpt lat="45.81509" lon="1.85637">
        <ele>703.6</ele>
        <time>2026-07-08T08:24:29.000Z</time>
      </trkpt>
      <trkpt lat="45.81509" lon="1.85637">
        <ele>703.6</ele>
        <time>2026-07-08T08:24:30.000Z</time>
      </trkpt>
      <trkpt lat="45.81509" lon="1.85637">
        <ele>703.6</ele>
        <time>2026-07-08T08:24:31.000Z</time>
      </trkpt>
      <trkpt lat="45.81509" lon="1.85637">
        <ele>703.6</ele>
        <time>2026-07-08T08:24:32.000Z</time>
      </trkpt>
      <trkpt lat="45.8151" lon="1.85636">
        <ele>703.6</ele>
        <time>2026-07-08T08:24:33.000Z</time>
      </trkpt>
      <trkpt lat="45.81511" lon="1.85634">
        <ele>703.6</ele>
        <time>2026-07-08T08:24:34.000Z</time>
      </trkpt>
      <trkpt lat="45.81512" lon="1.85633">
        <ele>703.9</ele>
        <time>2026-07-08T08:24:35.000Z</time>
      </trkpt>
      <trkpt lat="45.81513" lon="1.85631">
        <ele>704</ele>
        <time>2026-07-08T08:24:36.000Z</time>
      </trkpt>
      <trkpt lat="45.81515" lon="1.8563">
        <ele>703.5</ele>
        <time>2026-07-08T08:24:37.000Z</time>
      </trkpt>
      <trkpt lat="45.81517" lon="1.85629">
        <ele>703.7</ele>
        <time>2026-07-08T08:24:38.000Z</time>
      </trkpt>
      <trkpt lat="45.81519" lon="1.85628">
        <ele>703.8</ele>
        <time>2026-07-08T08:24:39.000Z</time>
      </trkpt>
      <trkpt lat="45.81521" lon="1.85627">
        <ele>704.5</ele>
        <time>2026-07-08T08:24:40.000Z</time>
      </trkpt>
      <trkpt lat="45.81523" lon="1.85625">
        <ele>704.8</ele>
        <time>2026-07-08T08:24:41.000Z</time>
      </trkpt>
      <trkpt lat="45.81524" lon="1.85623">
        <ele>705.1</ele>
        <time>2026-07-08T08:24:42.000Z</time>
      </trkpt>
      <trkpt lat="45.81526" lon="1.85621">
        <ele>704.8</ele>
        <time>2026-07-08T08:24:43.000Z</time>
      </trkpt>
      <trkpt lat="45.81527" lon="1.85619">
        <ele>704.6</ele>
        <time>2026-07-08T08:24:44.000Z</time>
      </trkpt>
      <trkpt lat="45.81529" lon="1.85618">
        <ele>704.7</ele>
        <time>2026-07-08T08:24:45.000Z</time>
      </trkpt>
      <trkpt lat="45.81531" lon="1.85616">
        <ele>704.6</ele>
        <time>2026-07-08T08:24:46.000Z</time>
      </trkpt>
      <trkpt lat="45.81533" lon="1.85615">
        <ele>704.7</ele>
        <time>2026-07-08T08:24:47.000Z</time>
      </trkpt>
      <trkpt lat="45.81535" lon="1.85613">
        <ele>705.4</ele>
        <time>2026-07-08T08:24:48.000Z</time>
      </trkpt>
      <trkpt lat="45.81536" lon="1.85612">
        <ele>705.6</ele>
        <time>2026-07-08T08:24:49.000Z</time>
      </trkpt>
      <trkpt lat="45.81538" lon="1.85611">
        <ele>706.2</ele>
        <time>2026-07-08T08:24:50.000Z</time>
      </trkpt>
      <trkpt lat="45.81539" lon="1.85609">
        <ele>707.1</ele>
        <time>2026-07-08T08:24:51.000Z</time>
      </trkpt>
      <trkpt lat="45.8154" lon="1.85609">
        <ele>707</ele>
        <time>2026-07-08T08:24:52.000Z</time>
      </trkpt>
      <trkpt lat="45.81542" lon="1.85608">
        <ele>706.9</ele>
        <time>2026-07-08T08:24:53.000Z</time>
      </trkpt>
      <trkpt lat="45.81543" lon="1.85608">
        <ele>706.5</ele>
        <time>2026-07-08T08:24:54.000Z</time>
      </trkpt>
      <trkpt lat="45.81544" lon="1.85609">
        <ele>706.7</ele>
        <time>2026-07-08T08:24:55.000Z</time>
      </trkpt>
      <trkpt lat="45.81545" lon="1.8561">
        <ele>706.7</ele>
        <time>2026-07-08T08:24:56.000Z</time>
      </trkpt>
      <trkpt lat="45.81546" lon="1.85611">
        <ele>707</ele>
        <time>2026-07-08T08:24:57.000Z</time>
      </trkpt>
      <trkpt lat="45.81547" lon="1.85613">
        <ele>707.2</ele>
        <time>2026-07-08T08:24:58.000Z</time>
      </trkpt>
      <trkpt lat="45.81548" lon="1.85614">
        <ele>707.2</ele>
        <time>2026-07-08T08:24:59.000Z</time>
      </trkpt>
      <trkpt lat="45.81549" lon="1.85614">
        <ele>707.4</ele>
        <time>2026-07-08T08:25:00.000Z</time>
      </trkpt>
      <trkpt lat="45.81551" lon="1.85614">
        <ele>707.8</ele>
        <time>2026-07-08T08:25:01.000Z</time>
      </trkpt>
      <trkpt lat="45.81552" lon="1.85613">
        <ele>708.3</ele>
        <time>2026-07-08T08:25:02.000Z</time>
      </trkpt>
      <trkpt lat="45.81554" lon="1.85613">
        <ele>708.7</ele>
        <time>2026-07-08T08:25:03.000Z</time>
      </trkpt>
      <trkpt lat="45.81554" lon="1.85612">
        <ele>708.4</ele>
        <time>2026-07-08T08:25:04.000Z</time>
      </trkpt>
      <trkpt lat="45.81554" lon="1.85609">
        <ele>707.7</ele>
        <time>2026-07-08T08:25:05.000Z</time>
      </trkpt>
      <trkpt lat="45.81552" lon="1.85607">
        <ele>708.3</ele>
        <time>2026-07-08T08:25:06.000Z</time>
      </trkpt>
      <trkpt lat="45.81551" lon="1.85607">
        <ele>707.5</ele>
        <time>2026-07-08T08:25:07.000Z</time>
      </trkpt>
      <trkpt lat="45.81551" lon="1.85607">
        <ele>707.7</ele>
        <time>2026-07-08T08:25:08.000Z</time>
      </trkpt>
      <trkpt lat="45.81549" lon="1.85608">
        <ele>707.4</ele>
        <time>2026-07-08T08:25:09.000Z</time>
      </trkpt>
      <trkpt lat="45.81548" lon="1.8561">
        <ele>707.1</ele>
        <time>2026-07-08T08:25:10.000Z</time>
      </trkpt>
      <trkpt lat="45.81546" lon="1.85611">
        <ele>706.9</ele>
        <time>2026-07-08T08:25:11.000Z</time>
      </trkpt>
      <trkpt lat="45.81545" lon="1.85611">
        <ele>707.1</ele>
        <time>2026-07-08T08:25:12.000Z</time>
      </trkpt>
      <trkpt lat="45.81543" lon="1.85611">
        <ele>706.9</ele>
        <time>2026-07-08T08:25:13.000Z</time>
      </trkpt>
      <trkpt lat="45.81542" lon="1.85611">
        <ele>706.9</ele>
        <time>2026-07-08T08:25:14.000Z</time>
      </trkpt>
      <trkpt lat="45.8154" lon="1.85609">
        <ele>706.2</ele>
        <time>2026-07-08T08:25:15.000Z</time>
      </trkpt>
      <trkpt lat="45.81538" lon="1.8561">
        <ele>706</ele>
        <time>2026-07-08T08:25:16.000Z</time>
      </trkpt>
      <trkpt lat="45.81538" lon="1.8561">
        <ele>704.7</ele>
        <time>2026-07-08T08:25:17.000Z</time>
      </trkpt>
      <trkpt lat="45.81538" lon="1.8561">
        <ele>704.7</ele>
        <time>2026-07-08T08:25:18.000Z</time>
      </trkpt>
      <trkpt lat="45.81537" lon="1.85611">
        <ele>704.6</ele>
        <time>2026-07-08T08:25:19.000Z</time>
      </trkpt>
      <trkpt lat="45.81537" lon="1.85611">
        <ele>704.6</ele>
        <time>2026-07-08T08:25:20.000Z</time>
      </trkpt>
      <trkpt lat="45.81537" lon="1.85611">
        <ele>704.7</ele>
        <time>2026-07-08T08:25:21.000Z</time>
      </trkpt>
      <trkpt lat="45.81537" lon="1.85611">
        <ele>704.7</ele>
        <time>2026-07-08T08:25:22.000Z</time>
      </trkpt>
      <trkpt lat="45.81537" lon="1.85611">
        <ele>704.7</ele>
        <time>2026-07-08T08:25:23.000Z</time>
      </trkpt>
      <trkpt lat="45.81537" lon="1.85611">
        <ele>704.7</ele>
        <time>2026-07-08T08:25:24.000Z</time>
      </trkpt>
      <trkpt lat="45.81537" lon="1.85611">
        <ele>704.7</ele>
        <time>2026-07-08T08:25:25.000Z</time>
      </trkpt>
      <trkpt lat="45.81537" lon="1.85611">
        <ele>704.7</ele>
        <time>2026-07-08T08:25:26.000Z</time>
      </trkpt>
      <trkpt lat="45.81537" lon="1.85611">
        <ele>704.7</ele>
        <time>2026-07-08T08:25:27.000Z</time>
      </trkpt>
      <trkpt lat="45.81537" lon="1.85611">
        <ele>704.7</ele>
        <time>2026-07-08T08:25:28.000Z</time>
      </trkpt>
      <trkpt lat="45.81537" lon="1.85611">
        <ele>704.7</ele>
        <time>2026-07-08T08:25:29.000Z</time>
      </trkpt>
      <trkpt lat="45.81537" lon="1.8561">
        <ele>704.9</ele>
        <time>2026-07-08T08:25:30.000Z</time>
      </trkpt>
      <trkpt lat="45.81537" lon="1.85609">
        <ele>705</ele>
        <time>2026-07-08T08:25:31.000Z</time>
      </trkpt>
      <trkpt lat="45.81537" lon="1.85607">
        <ele>704.9</ele>
        <time>2026-07-08T08:25:32.000Z</time>
      </trkpt>
      <trkpt lat="45.81534" lon="1.85604">
        <ele>704.4</ele>
        <time>2026-07-08T08:25:33.000Z</time>
      </trkpt>
      <trkpt lat="45.81533" lon="1.85605">
        <ele>704.8</ele>
        <time>2026-07-08T08:25:34.000Z</time>
      </trkpt>
      <trkpt lat="45.81532" lon="1.85605">
        <ele>704.3</ele>
        <time>2026-07-08T08:25:35.000Z</time>
      </trkpt>
      <trkpt lat="45.81531" lon="1.85602">
        <ele>701.6</ele>
        <time>2026-07-08T08:25:36.000Z</time>
      </trkpt>
      <trkpt lat="45.81532" lon="1.85599">
        <ele>701.5</ele>
        <time>2026-07-08T08:25:37.000Z</time>
      </trkpt>
      <trkpt lat="45.81533" lon="1.85597">
        <ele>701.4</ele>
        <time>2026-07-08T08:25:38.000Z</time>
      </trkpt>
      <trkpt lat="45.81535" lon="1.85594">
        <ele>700.2</ele>
        <time>2026-07-08T08:25:39.000Z</time>
      </trkpt>
      <trkpt lat="45.81535" lon="1.85591">
        <ele>698.7</ele>
        <time>2026-07-08T08:25:40.000Z</time>
      </trkpt>
      <trkpt lat="45.81536" lon="1.85588">
        <ele>698.7</ele>
        <time>2026-07-08T08:25:41.000Z</time>
      </trkpt>
      <trkpt lat="45.81538" lon="1.85586">
        <ele>698.2</ele>
        <time>2026-07-08T08:25:42.000Z</time>
      </trkpt>
      <trkpt lat="45.8154" lon="1.85585">
        <ele>698.8</ele>
        <time>2026-07-08T08:25:43.000Z</time>
      </trkpt>
      <trkpt lat="45.81543" lon="1.85585">
        <ele>699.9</ele>
        <time>2026-07-08T08:25:44.000Z</time>
      </trkpt>
      <trkpt lat="45.81544" lon="1.85586">
        <ele>701.4</ele>
        <time>2026-07-08T08:25:45.000Z</time>
      </trkpt>
      <trkpt lat="45.81545" lon="1.85588">
        <ele>702.1</ele>
        <time>2026-07-08T08:25:46.000Z</time>
      </trkpt>
      <trkpt lat="45.81546" lon="1.85589">
        <ele>702.3</ele>
        <time>2026-07-08T08:25:47.000Z</time>
      </trkpt>
      <trkpt lat="45.81547" lon="1.85589">
        <ele>703</ele>
        <time>2026-07-08T08:25:48.000Z</time>
      </trkpt>
      <trkpt lat="45.81547" lon="1.8559">
        <ele>704</ele>
        <time>2026-07-08T08:25:49.000Z</time>
      </trkpt>
      <trkpt lat="45.81549" lon="1.85591">
        <ele>705.4</ele>
        <time>2026-07-08T08:25:50.000Z</time>
      </trkpt>
      <trkpt lat="45.8155" lon="1.85591">
        <ele>706.3</ele>
        <time>2026-07-08T08:25:51.000Z</time>
      </trkpt>
      <trkpt lat="45.8155" lon="1.85591">
        <ele>706.3</ele>
        <time>2026-07-08T08:25:52.000Z</time>
      </trkpt>
      <trkpt lat="45.8155" lon="1.85591">
        <ele>706.3</ele>
        <time>2026-07-08T08:25:53.000Z</time>
      </trkpt>
      <trkpt lat="45.8155" lon="1.85591">
        <ele>706.3</ele>
        <time>2026-07-08T08:25:54.000Z</time>
      </trkpt>
      <trkpt lat="45.8155" lon="1.85591">
        <ele>706.3</ele>
        <time>2026-07-08T08:25:55.000Z</time>
      </trkpt>
      <trkpt lat="45.8155" lon="1.85591">
        <ele>706.3</ele>
        <time>2026-07-08T08:25:56.000Z</time>
      </trkpt>
      <trkpt lat="45.81551" lon="1.8559">
        <ele>706.1</ele>
        <time>2026-07-08T08:25:57.000Z</time>
      </trkpt>
      <trkpt lat="45.81553" lon="1.85588">
        <ele>705.2</ele>
        <time>2026-07-08T08:25:58.000Z</time>
      </trkpt>
      <trkpt lat="45.81554" lon="1.85586">
        <ele>704.5</ele>
        <time>2026-07-08T08:25:59.000Z</time>
      </trkpt>
      <trkpt lat="45.81554" lon="1.85584">
        <ele>704.6</ele>
        <time>2026-07-08T08:26:00.000Z</time>
      </trkpt>
      <trkpt lat="45.81555" lon="1.85581">
        <ele>703.8</ele>
        <time>2026-07-08T08:26:01.000Z</time>
      </trkpt>
      <trkpt lat="45.81556" lon="1.85578">
        <ele>704.4</ele>
        <time>2026-07-08T08:26:02.000Z</time>
      </trkpt>
      <trkpt lat="45.81557" lon="1.85575">
        <ele>704</ele>
        <time>2026-07-08T08:26:03.000Z</time>
      </trkpt>
      <trkpt lat="45.81558" lon="1.85572">
        <ele>703.7</ele>
        <time>2026-07-08T08:26:04.000Z</time>
      </trkpt>
      <trkpt lat="45.81559" lon="1.8557">
        <ele>702.6</ele>
        <time>2026-07-08T08:26:05.000Z</time>
      </trkpt>
      <trkpt lat="45.8156" lon="1.85567">
        <ele>703.1</ele>
        <time>2026-07-08T08:26:06.000Z</time>
      </trkpt>
      <trkpt lat="45.81561" lon="1.85564">
        <ele>703.4</ele>
        <time>2026-07-08T08:26:07.000Z</time>
      </trkpt>
      <trkpt lat="45.8156" lon="1.85564">
        <ele>703.6</ele>
        <time>2026-07-08T08:26:08.000Z</time>
      </trkpt>
      <trkpt lat="45.8156" lon="1.85564">
        <ele>703.6</ele>
        <time>2026-07-08T08:26:09.000Z</time>
      </trkpt>
      <trkpt lat="45.8156" lon="1.85564">
        <ele>703.6</ele>
        <time>2026-07-08T08:26:10.000Z</time>
      </trkpt>
      <trkpt lat="45.8156" lon="1.85563">
        <ele>703.9</ele>
        <time>2026-07-08T08:26:11.000Z</time>
      </trkpt>
      <trkpt lat="45.8156" lon="1.85561">
        <ele>703.7</ele>
        <time>2026-07-08T08:26:12.000Z</time>
      </trkpt>
      <trkpt lat="45.81561" lon="1.85559">
        <ele>704</ele>
        <time>2026-07-08T08:26:13.000Z</time>
      </trkpt>
      <trkpt lat="45.81561" lon="1.85557">
        <ele>703.9</ele>
        <time>2026-07-08T08:26:14.000Z</time>
      </trkpt>
      <trkpt lat="45.81562" lon="1.85555">
        <ele>704.6</ele>
        <time>2026-07-08T08:26:15.000Z</time>
      </trkpt>
      <trkpt lat="45.81563" lon="1.85553">
        <ele>704.5</ele>
        <time>2026-07-08T08:26:16.000Z</time>
      </trkpt>
      <trkpt lat="45.81563" lon="1.8555">
        <ele>704.3</ele>
        <time>2026-07-08T08:26:17.000Z</time>
      </trkpt>
      <trkpt lat="45.81564" lon="1.85549">
        <ele>704.3</ele>
        <time>2026-07-08T08:26:18.000Z</time>
      </trkpt>
      <trkpt lat="45.81565" lon="1.85547">
        <ele>703.9</ele>
        <time>2026-07-08T08:26:19.000Z</time>
      </trkpt>
      <trkpt lat="45.81566" lon="1.85545">
        <ele>703.8</ele>
        <time>2026-07-08T08:26:20.000Z</time>
      </trkpt>
      <trkpt lat="45.81567" lon="1.85544">
        <ele>703.5</ele>
        <time>2026-07-08T08:26:21.000Z</time>
      </trkpt>
      <trkpt lat="45.81568" lon="1.85542">
        <ele>703.7</ele>
        <time>2026-07-08T08:26:22.000Z</time>
      </trkpt>
      <trkpt lat="45.81569" lon="1.8554">
        <ele>703.6</ele>
        <time>2026-07-08T08:26:23.000Z</time>
      </trkpt>
      <trkpt lat="45.8157" lon="1.85538">
        <ele>703.5</ele>
        <time>2026-07-08T08:26:24.000Z</time>
      </trkpt>
      <trkpt lat="45.8157" lon="1.85536">
        <ele>703.2</ele>
        <time>2026-07-08T08:26:25.000Z</time>
      </trkpt>
      <trkpt lat="45.81571" lon="1.85534">
        <ele>702.9</ele>
        <time>2026-07-08T08:26:26.000Z</time>
      </trkpt>
      <trkpt lat="45.81572" lon="1.85532">
        <ele>702.4</ele>
        <time>2026-07-08T08:26:27.000Z</time>
      </trkpt>
      <trkpt lat="45.81573" lon="1.85531">
        <ele>702.3</ele>
        <time>2026-07-08T08:26:28.000Z</time>
      </trkpt>
      <trkpt lat="45.81574" lon="1.85529">
        <ele>702.3</ele>
        <time>2026-07-08T08:26:29.000Z</time>
      </trkpt>
      <trkpt lat="45.81575" lon="1.85527">
        <ele>702.6</ele>
        <time>2026-07-08T08:26:30.000Z</time>
      </trkpt>
      <trkpt lat="45.81576" lon="1.85525">
        <ele>702.3</ele>
        <time>2026-07-08T08:26:31.000Z</time>
      </trkpt>
      <trkpt lat="45.81577" lon="1.85523">
        <ele>702.2</ele>
        <time>2026-07-08T08:26:32.000Z</time>
      </trkpt>
      <trkpt lat="45.81579" lon="1.85523">
        <ele>702.1</ele>
        <time>2026-07-08T08:26:33.000Z</time>
      </trkpt>
      <trkpt lat="45.8158" lon="1.85521">
        <ele>703.1</ele>
        <time>2026-07-08T08:26:34.000Z</time>
      </trkpt>
      <trkpt lat="45.81581" lon="1.85519">
        <ele>703.2</ele>
        <time>2026-07-08T08:26:35.000Z</time>
      </trkpt>
      <trkpt lat="45.81582" lon="1.85517">
        <ele>702.9</ele>
        <time>2026-07-08T08:26:36.000Z</time>
      </trkpt>
      <trkpt lat="45.81583" lon="1.85515">
        <ele>702.8</ele>
        <time>2026-07-08T08:26:37.000Z</time>
      </trkpt>
      <trkpt lat="45.81583" lon="1.85513">
        <ele>702.9</ele>
        <time>2026-07-08T08:26:38.000Z</time>
      </trkpt>
      <trkpt lat="45.81584" lon="1.8551">
        <ele>702.7</ele>
        <time>2026-07-08T08:26:39.000Z</time>
      </trkpt>
      <trkpt lat="45.81584" lon="1.85508">
        <ele>702</ele>
        <time>2026-07-08T08:26:40.000Z</time>
      </trkpt>
      <trkpt lat="45.81584" lon="1.85505">
        <ele>701.6</ele>
        <time>2026-07-08T08:26:41.000Z</time>
      </trkpt>
      <trkpt lat="45.81584" lon="1.85503">
        <ele>701.2</ele>
        <time>2026-07-08T08:26:42.000Z</time>
      </trkpt>
      <trkpt lat="45.81584" lon="1.855">
        <ele>701.3</ele>
        <time>2026-07-08T08:26:43.000Z</time>
      </trkpt>
      <trkpt lat="45.81583" lon="1.85498">
        <ele>701.3</ele>
        <time>2026-07-08T08:26:44.000Z</time>
      </trkpt>
      <trkpt lat="45.81583" lon="1.85495">
        <ele>701.7</ele>
        <time>2026-07-08T08:26:45.000Z</time>
      </trkpt>
      <trkpt lat="45.81582" lon="1.85493">
        <ele>701.9</ele>
        <time>2026-07-08T08:26:46.000Z</time>
      </trkpt>
      <trkpt lat="45.81581" lon="1.85488">
        <ele>702.7</ele>
        <time>2026-07-08T08:26:47.000Z</time>
      </trkpt>
      <trkpt lat="45.81581" lon="1.85486">
        <ele>702.5</ele>
        <time>2026-07-08T08:26:48.000Z</time>
      </trkpt>
      <trkpt lat="45.8158" lon="1.85484">
        <ele>702</ele>
        <time>2026-07-08T08:26:49.000Z</time>
      </trkpt>
      <trkpt lat="45.81579" lon="1.85481">
        <ele>702.2</ele>
        <time>2026-07-08T08:26:50.000Z</time>
      </trkpt>
      <trkpt lat="45.81578" lon="1.85479">
        <ele>701.9</ele>
        <time>2026-07-08T08:26:51.000Z</time>
      </trkpt>
      <trkpt lat="45.81577" lon="1.85477">
        <ele>701.9</ele>
        <time>2026-07-08T08:26:52.000Z</time>
      </trkpt>
      <trkpt lat="45.81575" lon="1.85475">
        <ele>702.2</ele>
        <time>2026-07-08T08:26:53.000Z</time>
      </trkpt>
      <trkpt lat="45.81574" lon="1.85473">
        <ele>702.1</ele>
        <time>2026-07-08T08:26:54.000Z</time>
      </trkpt>
      <trkpt lat="45.81573" lon="1.8547">
        <ele>702</ele>
        <time>2026-07-08T08:26:55.000Z</time>
      </trkpt>
      <trkpt lat="45.81573" lon="1.85468">
        <ele>701.7</ele>
        <time>2026-07-08T08:26:56.000Z</time>
      </trkpt>
      <trkpt lat="45.81572" lon="1.85466">
        <ele>701.5</ele>
        <time>2026-07-08T08:26:57.000Z</time>
      </trkpt>
      <trkpt lat="45.81571" lon="1.85464">
        <ele>701.3</ele>
        <time>2026-07-08T08:26:58.000Z</time>
      </trkpt>
      <trkpt lat="45.8157" lon="1.85462">
        <ele>701.2</ele>
        <time>2026-07-08T08:26:59.000Z</time>
      </trkpt>
      <trkpt lat="45.81569" lon="1.8546">
        <ele>701.2</ele>
        <time>2026-07-08T08:27:00.000Z</time>
      </trkpt>
      <trkpt lat="45.81569" lon="1.85458">
        <ele>701.3</ele>
        <time>2026-07-08T08:27:01.000Z</time>
      </trkpt>
      <trkpt lat="45.81568" lon="1.85455">
        <ele>701.3</ele>
        <time>2026-07-08T08:27:02.000Z</time>
      </trkpt>
      <trkpt lat="45.81567" lon="1.85453">
        <ele>701.5</ele>
        <time>2026-07-08T08:27:03.000Z</time>
      </trkpt>
      <trkpt lat="45.81566" lon="1.85451">
        <ele>701.5</ele>
        <time>2026-07-08T08:27:04.000Z</time>
      </trkpt>
      <trkpt lat="45.81565" lon="1.85449">
        <ele>701.7</ele>
        <time>2026-07-08T08:27:05.000Z</time>
      </trkpt>
      <trkpt lat="45.81564" lon="1.85447">
        <ele>701.9</ele>
        <time>2026-07-08T08:27:06.000Z</time>
      </trkpt>
      <trkpt lat="45.81563" lon="1.85445">
        <ele>701.9</ele>
        <time>2026-07-08T08:27:07.000Z</time>
      </trkpt>
      <trkpt lat="45.81562" lon="1.85443">
        <ele>701.8</ele>
        <time>2026-07-08T08:27:08.000Z</time>
      </trkpt>
      <trkpt lat="45.81561" lon="1.85441">
        <ele>701.7</ele>
        <time>2026-07-08T08:27:09.000Z</time>
      </trkpt>
      <trkpt lat="45.81561" lon="1.85439">
        <ele>701.9</ele>
        <time>2026-07-08T08:27:10.000Z</time>
      </trkpt>
      <trkpt lat="45.8156" lon="1.85437">
        <ele>701.8</ele>
        <time>2026-07-08T08:27:11.000Z</time>
      </trkpt>
      <trkpt lat="45.81559" lon="1.85435">
        <ele>701.6</ele>
        <time>2026-07-08T08:27:12.000Z</time>
      </trkpt>
      <trkpt lat="45.81558" lon="1.85433">
        <ele>701.6</ele>
        <time>2026-07-08T08:27:13.000Z</time>
      </trkpt>
      <trkpt lat="45.81557" lon="1.85431">
        <ele>701.8</ele>
        <time>2026-07-08T08:27:14.000Z</time>
      </trkpt>
      <trkpt lat="45.81555" lon="1.8543">
        <ele>701.6</ele>
        <time>2026-07-08T08:27:15.000Z</time>
      </trkpt>
      <trkpt lat="45.81554" lon="1.85428">
        <ele>701.7</ele>
        <time>2026-07-08T08:27:16.000Z</time>
      </trkpt>
      <trkpt lat="45.81554" lon="1.85428">
        <ele>701.8</ele>
        <time>2026-07-08T08:27:17.000Z</time>
      </trkpt>
      <trkpt lat="45.81554" lon="1.85428">
        <ele>701.8</ele>
        <time>2026-07-08T08:27:18.000Z</time>
      </trkpt>
      <trkpt lat="45.81554" lon="1.85428">
        <ele>701.8</ele>
        <time>2026-07-08T08:27:19.000Z</time>
      </trkpt>
      <trkpt lat="45.81554" lon="1.85428">
        <ele>701.8</ele>
        <time>2026-07-08T08:27:20.000Z</time>
      </trkpt>
      <trkpt lat="45.81554" lon="1.85428">
        <ele>701.8</ele>
        <time>2026-07-08T08:27:21.000Z</time>
      </trkpt>
      <trkpt lat="45.81554" lon="1.85428">
        <ele>701.8</ele>
        <time>2026-07-08T08:27:22.000Z</time>
      </trkpt>
      <trkpt lat="45.81554" lon="1.85428">
        <ele>701.8</ele>
        <time>2026-07-08T08:27:23.000Z</time>
      </trkpt>
      <trkpt lat="45.81554" lon="1.85428">
        <ele>701.8</ele>
        <time>2026-07-08T08:27:24.000Z</time>
      </trkpt>
      <trkpt lat="45.81554" lon="1.85428">
        <ele>701.9</ele>
        <time>2026-07-08T08:27:25.000Z</time>
      </trkpt>
      <trkpt lat="45.81554" lon="1.85428">
        <ele>701.9</ele>
        <time>2026-07-08T08:27:26.000Z</time>
      </trkpt>
      <trkpt lat="45.81554" lon="1.85428">
        <ele>701.9</ele>
        <time>2026-07-08T08:27:27.000Z</time>
      </trkpt>
      <trkpt lat="45.81554" lon="1.85428">
        <ele>701.9</ele>
        <time>2026-07-08T08:27:28.000Z</time>
      </trkpt>
      <trkpt lat="45.81554" lon="1.85428">
        <ele>701.9</ele>
        <time>2026-07-08T08:27:29.000Z</time>
      </trkpt>
      <trkpt lat="45.81554" lon="1.85428">
        <ele>701.9</ele>
        <time>2026-07-08T08:27:30.000Z</time>
      </trkpt>
      <trkpt lat="45.81554" lon="1.85427">
        <ele>702.4</ele>
        <time>2026-07-08T08:27:31.000Z</time>
      </trkpt>
      <trkpt lat="45.81553" lon="1.85425">
        <ele>702.8</ele>
        <time>2026-07-08T08:27:32.000Z</time>
      </trkpt>
      <trkpt lat="45.81552" lon="1.85424">
        <ele>702.9</ele>
        <time>2026-07-08T08:27:33.000Z</time>
      </trkpt>
      <trkpt lat="45.81552" lon="1.85422">
        <ele>702.9</ele>
        <time>2026-07-08T08:27:34.000Z</time>
      </trkpt>
      <trkpt lat="45.81551" lon="1.8542">
        <ele>703</ele>
        <time>2026-07-08T08:27:35.000Z</time>
      </trkpt>
      <trkpt lat="45.8155" lon="1.85418">
        <ele>703.1</ele>
        <time>2026-07-08T08:27:36.000Z</time>
      </trkpt>
      <trkpt lat="45.81548" lon="1.85416">
        <ele>703.5</ele>
        <time>2026-07-08T08:27:37.000Z</time>
      </trkpt>
      <trkpt lat="45.81547" lon="1.85414">
        <ele>703.6</ele>
        <time>2026-07-08T08:27:38.000Z</time>
      </trkpt>
      <trkpt lat="45.81546" lon="1.85412">
        <ele>703.7</ele>
        <time>2026-07-08T08:27:39.000Z</time>
      </trkpt>
      <trkpt lat="45.81545" lon="1.85409">
        <ele>703.6</ele>
        <time>2026-07-08T08:27:40.000Z</time>
      </trkpt>
      <trkpt lat="45.81544" lon="1.85408">
        <ele>703.7</ele>
        <time>2026-07-08T08:27:41.000Z</time>
      </trkpt>
      <trkpt lat="45.81543" lon="1.85406">
        <ele>703.7</ele>
        <time>2026-07-08T08:27:42.000Z</time>
      </trkpt>
      <trkpt lat="45.81542" lon="1.85404">
        <ele>703.6</ele>
        <time>2026-07-08T08:27:43.000Z</time>
      </trkpt>
      <trkpt lat="45.81541" lon="1.85402">
        <ele>703.2</ele>
        <time>2026-07-08T08:27:44.000Z</time>
      </trkpt>
      <trkpt lat="45.8154" lon="1.854">
        <ele>703.2</ele>
        <time>2026-07-08T08:27:45.000Z</time>
      </trkpt>
      <trkpt lat="45.81539" lon="1.85398">
        <ele>703.3</ele>
        <time>2026-07-08T08:27:46.000Z</time>
      </trkpt>
      <trkpt lat="45.81538" lon="1.85396">
        <ele>703.4</ele>
        <time>2026-07-08T08:27:47.000Z</time>
      </trkpt>
      <trkpt lat="45.81537" lon="1.85393">
        <ele>703.4</ele>
        <time>2026-07-08T08:27:48.000Z</time>
      </trkpt>
      <trkpt lat="45.81536" lon="1.85391">
        <ele>703.7</ele>
        <time>2026-07-08T08:27:49.000Z</time>
      </trkpt>
      <trkpt lat="45.81534" lon="1.85389">
        <ele>703.5</ele>
        <time>2026-07-08T08:27:50.000Z</time>
      </trkpt>
      <trkpt lat="45.81533" lon="1.85387">
        <ele>703.3</ele>
        <time>2026-07-08T08:27:51.000Z</time>
      </trkpt>
      <trkpt lat="45.81531" lon="1.85385">
        <ele>703.3</ele>
        <time>2026-07-08T08:27:52.000Z</time>
      </trkpt>
      <trkpt lat="45.8153" lon="1.85383">
        <ele>703.4</ele>
        <time>2026-07-08T08:27:53.000Z</time>
      </trkpt>
      <trkpt lat="45.81529" lon="1.85381">
        <ele>703.6</ele>
        <time>2026-07-08T08:27:54.000Z</time>
      </trkpt>
      <trkpt lat="45.81527" lon="1.85379">
        <ele>703.6</ele>
        <time>2026-07-08T08:27:55.000Z</time>
      </trkpt>
      <trkpt lat="45.81526" lon="1.85378">
        <ele>703.6</ele>
        <time>2026-07-08T08:27:56.000Z</time>
      </trkpt>
      <trkpt lat="45.81524" lon="1.85376">
        <ele>703.7</ele>
        <time>2026-07-08T08:27:57.000Z</time>
      </trkpt>
      <trkpt lat="45.81523" lon="1.85375">
        <ele>703.6</ele>
        <time>2026-07-08T08:27:58.000Z</time>
      </trkpt>
      <trkpt lat="45.81521" lon="1.85373">
        <ele>703.7</ele>
        <time>2026-07-08T08:27:59.000Z</time>
      </trkpt>
      <trkpt lat="45.8152" lon="1.85372">
        <ele>703.9</ele>
        <time>2026-07-08T08:28:00.000Z</time>
      </trkpt>
      <trkpt lat="45.81519" lon="1.8537">
        <ele>703.8</ele>
        <time>2026-07-08T08:28:01.000Z</time>
      </trkpt>
      <trkpt lat="45.81518" lon="1.85368">
        <ele>703.7</ele>
        <time>2026-07-08T08:28:02.000Z</time>
      </trkpt>
      <trkpt lat="45.81517" lon="1.85367">
        <ele>703.4</ele>
        <time>2026-07-08T08:28:03.000Z</time>
      </trkpt>
      <trkpt lat="45.81516" lon="1.85365">
        <ele>703.6</ele>
        <time>2026-07-08T08:28:04.000Z</time>
      </trkpt>
      <trkpt lat="45.81515" lon="1.85364">
        <ele>703.4</ele>
        <time>2026-07-08T08:28:05.000Z</time>
      </trkpt>
      <trkpt lat="45.81514" lon="1.85362">
        <ele>703.4</ele>
        <time>2026-07-08T08:28:06.000Z</time>
      </trkpt>
      <trkpt lat="45.81513" lon="1.8536">
        <ele>703.4</ele>
        <time>2026-07-08T08:28:07.000Z</time>
      </trkpt>
      <trkpt lat="45.81511" lon="1.85358">
        <ele>703.4</ele>
        <time>2026-07-08T08:28:08.000Z</time>
      </trkpt>
      <trkpt lat="45.8151" lon="1.85357">
        <ele>703.3</ele>
        <time>2026-07-08T08:28:09.000Z</time>
      </trkpt>
      <trkpt lat="45.81509" lon="1.85355">
        <ele>703.3</ele>
        <time>2026-07-08T08:28:10.000Z</time>
      </trkpt>
      <trkpt lat="45.81508" lon="1.85353">
        <ele>703.4</ele>
        <time>2026-07-08T08:28:11.000Z</time>
      </trkpt>
      <trkpt lat="45.81507" lon="1.85351">
        <ele>703.4</ele>
        <time>2026-07-08T08:28:12.000Z</time>
      </trkpt>
      <trkpt lat="45.81506" lon="1.85349">
        <ele>703.4</ele>
        <time>2026-07-08T08:28:13.000Z</time>
      </trkpt>
      <trkpt lat="45.81505" lon="1.85348">
        <ele>703.6</ele>
        <time>2026-07-08T08:28:14.000Z</time>
      </trkpt>
      <trkpt lat="45.81504" lon="1.85346">
        <ele>703.6</ele>
        <time>2026-07-08T08:28:15.000Z</time>
      </trkpt>
      <trkpt lat="45.81503" lon="1.85345">
        <ele>703.7</ele>
        <time>2026-07-08T08:28:16.000Z</time>
      </trkpt>
      <trkpt lat="45.81502" lon="1.85343">
        <ele>703.6</ele>
        <time>2026-07-08T08:28:17.000Z</time>
      </trkpt>
      <trkpt lat="45.81501" lon="1.85342">
        <ele>703.9</ele>
        <time>2026-07-08T08:28:18.000Z</time>
      </trkpt>
      <trkpt lat="45.815" lon="1.8534">
        <ele>703.8</ele>
        <time>2026-07-08T08:28:19.000Z</time>
      </trkpt>
      <trkpt lat="45.81499" lon="1.85338">
        <ele>704</ele>
        <time>2026-07-08T08:28:20.000Z</time>
      </trkpt>
      <trkpt lat="45.81499" lon="1.85336">
        <ele>703.9</ele>
        <time>2026-07-08T08:28:21.000Z</time>
      </trkpt>
      <trkpt lat="45.81497" lon="1.85334">
        <ele>704</ele>
        <time>2026-07-08T08:28:22.000Z</time>
      </trkpt>
      <trkpt lat="45.81496" lon="1.85332">
        <ele>704.3</ele>
        <time>2026-07-08T08:28:23.000Z</time>
      </trkpt>
      <trkpt lat="45.81495" lon="1.85331">
        <ele>704.4</ele>
        <time>2026-07-08T08:28:24.000Z</time>
      </trkpt>
      <trkpt lat="45.81494" lon="1.85329">
        <ele>704.4</ele>
        <time>2026-07-08T08:28:25.000Z</time>
      </trkpt>
      <trkpt lat="45.81493" lon="1.85327">
        <ele>703.8</ele>
        <time>2026-07-08T08:28:26.000Z</time>
      </trkpt>
      <trkpt lat="45.81492" lon="1.85325">
        <ele>703.7</ele>
        <time>2026-07-08T08:28:27.000Z</time>
      </trkpt>
      <trkpt lat="45.81491" lon="1.85323">
        <ele>703.5</ele>
        <time>2026-07-08T08:28:28.000Z</time>
      </trkpt>
      <trkpt lat="45.8149" lon="1.85321">
        <ele>703.9</ele>
        <time>2026-07-08T08:28:29.000Z</time>
      </trkpt>
      <trkpt lat="45.81489" lon="1.85319">
        <ele>703.7</ele>
        <time>2026-07-08T08:28:30.000Z</time>
      </trkpt>
      <trkpt lat="45.81488" lon="1.85317">
        <ele>703.6</ele>
        <time>2026-07-08T08:28:31.000Z</time>
      </trkpt>
      <trkpt lat="45.81487" lon="1.85315">
        <ele>703.6</ele>
        <time>2026-07-08T08:28:32.000Z</time>
      </trkpt>
      <trkpt lat="45.81486" lon="1.85314">
        <ele>703.6</ele>
        <time>2026-07-08T08:28:33.000Z</time>
      </trkpt>
      <trkpt lat="45.81485" lon="1.85312">
        <ele>703.6</ele>
        <time>2026-07-08T08:28:34.000Z</time>
      </trkpt>
      <trkpt lat="45.81484" lon="1.8531">
        <ele>703.7</ele>
        <time>2026-07-08T08:28:35.000Z</time>
      </trkpt>
      <trkpt lat="45.81483" lon="1.85309">
        <ele>703.6</ele>
        <time>2026-07-08T08:28:36.000Z</time>
      </trkpt>
      <trkpt lat="45.81482" lon="1.85307">
        <ele>703.5</ele>
        <time>2026-07-08T08:28:37.000Z</time>
      </trkpt>
      <trkpt lat="45.81481" lon="1.85305">
        <ele>703.5</ele>
        <time>2026-07-08T08:28:38.000Z</time>
      </trkpt>
      <trkpt lat="45.8148" lon="1.85303">
        <ele>703.4</ele>
        <time>2026-07-08T08:28:39.000Z</time>
      </trkpt>
      <trkpt lat="45.81479" lon="1.85301">
        <ele>703.5</ele>
        <time>2026-07-08T08:28:40.000Z</time>
      </trkpt>
      <trkpt lat="45.81478" lon="1.85299">
        <ele>703.6</ele>
        <time>2026-07-08T08:28:41.000Z</time>
      </trkpt>
      <trkpt lat="45.81477" lon="1.85298">
        <ele>703.3</ele>
        <time>2026-07-08T08:28:42.000Z</time>
      </trkpt>
      <trkpt lat="45.81476" lon="1.85296">
        <ele>703.2</ele>
        <time>2026-07-08T08:28:43.000Z</time>
      </trkpt>
      <trkpt lat="45.81475" lon="1.85294">
        <ele>703</ele>
        <time>2026-07-08T08:28:44.000Z</time>
      </trkpt>
      <trkpt lat="45.81474" lon="1.85292">
        <ele>703</ele>
        <time>2026-07-08T08:28:45.000Z</time>
      </trkpt>
      <trkpt lat="45.81473" lon="1.8529">
        <ele>703.1</ele>
        <time>2026-07-08T08:28:46.000Z</time>
      </trkpt>
      <trkpt lat="45.81472" lon="1.85288">
        <ele>703.1</ele>
        <time>2026-07-08T08:28:47.000Z</time>
      </trkpt>
      <trkpt lat="45.81471" lon="1.85287">
        <ele>703.1</ele>
        <time>2026-07-08T08:28:48.000Z</time>
      </trkpt>
      <trkpt lat="45.8147" lon="1.85285">
        <ele>703</ele>
        <time>2026-07-08T08:28:49.000Z</time>
      </trkpt>
      <trkpt lat="45.81469" lon="1.85284">
        <ele>703</ele>
        <time>2026-07-08T08:28:50.000Z</time>
      </trkpt>
      <trkpt lat="45.81467" lon="1.85282">
        <ele>703.1</ele>
        <time>2026-07-08T08:28:51.000Z</time>
      </trkpt>
      <trkpt lat="45.81466" lon="1.8528">
        <ele>702.9</ele>
        <time>2026-07-08T08:28:52.000Z</time>
      </trkpt>
      <trkpt lat="45.81465" lon="1.85278">
        <ele>702.9</ele>
        <time>2026-07-08T08:28:53.000Z</time>
      </trkpt>
      <trkpt lat="45.81465" lon="1.85277">
        <ele>702.5</ele>
        <time>2026-07-08T08:28:54.000Z</time>
      </trkpt>
      <trkpt lat="45.81464" lon="1.85275">
        <ele>702.4</ele>
        <time>2026-07-08T08:28:55.000Z</time>
      </trkpt>
      <trkpt lat="45.81463" lon="1.85273">
        <ele>702.1</ele>
        <time>2026-07-08T08:28:56.000Z</time>
      </trkpt>
      <trkpt lat="45.81462" lon="1.85271">
        <ele>702.2</ele>
        <time>2026-07-08T08:28:57.000Z</time>
      </trkpt>
      <trkpt lat="45.81462" lon="1.85269">
        <ele>702.1</ele>
        <time>2026-07-08T08:28:58.000Z</time>
      </trkpt>
      <trkpt lat="45.81462" lon="1.85267">
        <ele>702</ele>
        <time>2026-07-08T08:28:59.000Z</time>
      </trkpt>
      <trkpt lat="45.81461" lon="1.85265">
        <ele>702</ele>
        <time>2026-07-08T08:29:00.000Z</time>
      </trkpt>
      <trkpt lat="45.8146" lon="1.85263">
        <ele>702.1</ele>
        <time>2026-07-08T08:29:01.000Z</time>
      </trkpt>
      <trkpt lat="45.81459" lon="1.85261">
        <ele>702.1</ele>
        <time>2026-07-08T08:29:02.000Z</time>
      </trkpt>
      <trkpt lat="45.81458" lon="1.85259">
        <ele>702.1</ele>
        <time>2026-07-08T08:29:03.000Z</time>
      </trkpt>
      <trkpt lat="45.81457" lon="1.85258">
        <ele>702</ele>
        <time>2026-07-08T08:29:04.000Z</time>
      </trkpt>
      <trkpt lat="45.81456" lon="1.85256">
        <ele>702</ele>
        <time>2026-07-08T08:29:05.000Z</time>
      </trkpt>
      <trkpt lat="45.81455" lon="1.85254">
        <ele>702</ele>
        <time>2026-07-08T08:29:06.000Z</time>
      </trkpt>
      <trkpt lat="45.81454" lon="1.85253">
        <ele>702.1</ele>
        <time>2026-07-08T08:29:07.000Z</time>
      </trkpt>
      <trkpt lat="45.81453" lon="1.85251">
        <ele>702.2</ele>
        <time>2026-07-08T08:29:08.000Z</time>
      </trkpt>
      <trkpt lat="45.81452" lon="1.85249">
        <ele>702.3</ele>
        <time>2026-07-08T08:29:09.000Z</time>
      </trkpt>
      <trkpt lat="45.81451" lon="1.85247">
        <ele>702.3</ele>
        <time>2026-07-08T08:29:10.000Z</time>
      </trkpt>
      <trkpt lat="45.8145" lon="1.85246">
        <ele>702.2</ele>
        <time>2026-07-08T08:29:11.000Z</time>
      </trkpt>
      <trkpt lat="45.81449" lon="1.85244">
        <ele>702.2</ele>
        <time>2026-07-08T08:29:12.000Z</time>
      </trkpt>
      <trkpt lat="45.81449" lon="1.85242">
        <ele>702.2</ele>
        <time>2026-07-08T08:29:13.000Z</time>
      </trkpt>
      <trkpt lat="45.81448" lon="1.85241">
        <ele>702.3</ele>
        <time>2026-07-08T08:29:14.000Z</time>
      </trkpt>
      <trkpt lat="45.81447" lon="1.85239">
        <ele>702.3</ele>
        <time>2026-07-08T08:29:15.000Z</time>
      </trkpt>
      <trkpt lat="45.81446" lon="1.85237">
        <ele>702.5</ele>
        <time>2026-07-08T08:29:16.000Z</time>
      </trkpt>
      <trkpt lat="45.81445" lon="1.85235">
        <ele>702.5</ele>
        <time>2026-07-08T08:29:17.000Z</time>
      </trkpt>
      <trkpt lat="45.81444" lon="1.85233">
        <ele>702.3</ele>
        <time>2026-07-08T08:29:18.000Z</time>
      </trkpt>
      <trkpt lat="45.81443" lon="1.85231">
        <ele>702.2</ele>
        <time>2026-07-08T08:29:19.000Z</time>
      </trkpt>
      <trkpt lat="45.81442" lon="1.85229">
        <ele>702.4</ele>
        <time>2026-07-08T08:29:20.000Z</time>
      </trkpt>
      <trkpt lat="45.81441" lon="1.85227">
        <ele>702.4</ele>
        <time>2026-07-08T08:29:21.000Z</time>
      </trkpt>
      <trkpt lat="45.8144" lon="1.85225">
        <ele>702.6</ele>
        <time>2026-07-08T08:29:22.000Z</time>
      </trkpt>
      <trkpt lat="45.81439" lon="1.85224">
        <ele>702.6</ele>
        <time>2026-07-08T08:29:23.000Z</time>
      </trkpt>
      <trkpt lat="45.81438" lon="1.85222">
        <ele>702.5</ele>
        <time>2026-07-08T08:29:24.000Z</time>
      </trkpt>
      <trkpt lat="45.81437" lon="1.8522">
        <ele>702.4</ele>
        <time>2026-07-08T08:29:25.000Z</time>
      </trkpt>
      <trkpt lat="45.81436" lon="1.85219">
        <ele>702.4</ele>
        <time>2026-07-08T08:29:26.000Z</time>
      </trkpt>
      <trkpt lat="45.81435" lon="1.85217">
        <ele>702.3</ele>
        <time>2026-07-08T08:29:27.000Z</time>
      </trkpt>
      <trkpt lat="45.81434" lon="1.85215">
        <ele>702.3</ele>
        <time>2026-07-08T08:29:28.000Z</time>
      </trkpt>
      <trkpt lat="45.81433" lon="1.85213">
        <ele>702.2</ele>
        <time>2026-07-08T08:29:29.000Z</time>
      </trkpt>
      <trkpt lat="45.81432" lon="1.85211">
        <ele>702.3</ele>
        <time>2026-07-08T08:29:30.000Z</time>
      </trkpt>
      <trkpt lat="45.8143" lon="1.85209">
        <ele>702.5</ele>
        <time>2026-07-08T08:29:31.000Z</time>
      </trkpt>
      <trkpt lat="45.81429" lon="1.85207">
        <ele>702.5</ele>
        <time>2026-07-08T08:29:32.000Z</time>
      </trkpt>
      <trkpt lat="45.81428" lon="1.85205">
        <ele>702.7</ele>
        <time>2026-07-08T08:29:33.000Z</time>
      </trkpt>
      <trkpt lat="45.81428" lon="1.85203">
        <ele>703.3</ele>
        <time>2026-07-08T08:29:34.000Z</time>
      </trkpt>
      <trkpt lat="45.81428" lon="1.85204">
        <ele>702.7</ele>
        <time>2026-07-08T08:29:35.000Z</time>
      </trkpt>
      <trkpt lat="45.81428" lon="1.85205">
        <ele>702.7</ele>
        <time>2026-07-08T08:29:36.000Z</time>
      </trkpt>
      <trkpt lat="45.81428" lon="1.85206">
        <ele>702.3</ele>
        <time>2026-07-08T08:29:37.000Z</time>
      </trkpt>
      <trkpt lat="45.81428" lon="1.85207">
        <ele>701.9</ele>
        <time>2026-07-08T08:29:38.000Z</time>
      </trkpt>
      <trkpt lat="45.81427" lon="1.85207">
        <ele>701.7</ele>
        <time>2026-07-08T08:29:39.000Z</time>
      </trkpt>
      <trkpt lat="45.81427" lon="1.85206">
        <ele>701.8</ele>
        <time>2026-07-08T08:29:40.000Z</time>
      </trkpt>
      <trkpt lat="45.81426" lon="1.85203">
        <ele>701.8</ele>
        <time>2026-07-08T08:29:41.000Z</time>
      </trkpt>
      <trkpt lat="45.81424" lon="1.85201">
        <ele>701.8</ele>
        <time>2026-07-08T08:29:42.000Z</time>
      </trkpt>
      <trkpt lat="45.81423" lon="1.85198">
        <ele>701.9</ele>
        <time>2026-07-08T08:29:43.000Z</time>
      </trkpt>
      <trkpt lat="45.81421" lon="1.85195">
        <ele>701.5</ele>
        <time>2026-07-08T08:29:44.000Z</time>
      </trkpt>
      <trkpt lat="45.81419" lon="1.85192">
        <ele>702</ele>
        <time>2026-07-08T08:29:45.000Z</time>
      </trkpt>
      <trkpt lat="45.81418" lon="1.85189">
        <ele>701.9</ele>
        <time>2026-07-08T08:29:46.000Z</time>
      </trkpt>
      <trkpt lat="45.81416" lon="1.85186">
        <ele>701.6</ele>
        <time>2026-07-08T08:29:47.000Z</time>
      </trkpt>
      <trkpt lat="45.81415" lon="1.85183">
        <ele>701.4</ele>
        <time>2026-07-08T08:29:48.000Z</time>
      </trkpt>
      <trkpt lat="45.81414" lon="1.85181">
        <ele>701.3</ele>
        <time>2026-07-08T08:29:49.000Z</time>
      </trkpt>
      <trkpt lat="45.81412" lon="1.85178">
        <ele>701.4</ele>
        <time>2026-07-08T08:29:50.000Z</time>
      </trkpt>
      <trkpt lat="45.81411" lon="1.85176">
        <ele>701.5</ele>
        <time>2026-07-08T08:29:51.000Z</time>
      </trkpt>
      <trkpt lat="45.8141" lon="1.85174">
        <ele>701.7</ele>
        <time>2026-07-08T08:29:52.000Z</time>
      </trkpt>
      <trkpt lat="45.81409" lon="1.85171">
        <ele>701.7</ele>
        <time>2026-07-08T08:29:53.000Z</time>
      </trkpt>
      <trkpt lat="45.81408" lon="1.85169">
        <ele>701.9</ele>
        <time>2026-07-08T08:29:54.000Z</time>
      </trkpt>
      <trkpt lat="45.81407" lon="1.85166">
        <ele>701.7</ele>
        <time>2026-07-08T08:29:55.000Z</time>
      </trkpt>
      <trkpt lat="45.81406" lon="1.85164">
        <ele>701.4</ele>
        <time>2026-07-08T08:29:56.000Z</time>
      </trkpt>
      <trkpt lat="45.81405" lon="1.85161">
        <ele>701.6</ele>
        <time>2026-07-08T08:29:57.000Z</time>
      </trkpt>
      <trkpt lat="45.81403" lon="1.85159">
        <ele>701.6</ele>
        <time>2026-07-08T08:29:58.000Z</time>
      </trkpt>
      <trkpt lat="45.81402" lon="1.85157">
        <ele>702.3</ele>
        <time>2026-07-08T08:29:59.000Z</time>
      </trkpt>
      <trkpt lat="45.81401" lon="1.85154">
        <ele>701.9</ele>
        <time>2026-07-08T08:30:00.000Z</time>
      </trkpt>
      <trkpt lat="45.81399" lon="1.85152">
        <ele>701.8</ele>
        <time>2026-07-08T08:30:01.000Z</time>
      </trkpt>
      <trkpt lat="45.81398" lon="1.8515">
        <ele>701.7</ele>
        <time>2026-07-08T08:30:02.000Z</time>
      </trkpt>
      <trkpt lat="45.81396" lon="1.85148">
        <ele>701.6</ele>
        <time>2026-07-08T08:30:03.000Z</time>
      </trkpt>
      <trkpt lat="45.81395" lon="1.85145">
        <ele>701.6</ele>
        <time>2026-07-08T08:30:04.000Z</time>
      </trkpt>
      <trkpt lat="45.81393" lon="1.85143">
        <ele>701.4</ele>
        <time>2026-07-08T08:30:05.000Z</time>
      </trkpt>
      <trkpt lat="45.81392" lon="1.85141">
        <ele>701.5</ele>
        <time>2026-07-08T08:30:06.000Z</time>
      </trkpt>
      <trkpt lat="45.8139" lon="1.85139">
        <ele>701.7</ele>
        <time>2026-07-08T08:30:07.000Z</time>
      </trkpt>
      <trkpt lat="45.81388" lon="1.85137">
        <ele>701.8</ele>
        <time>2026-07-08T08:30:08.000Z</time>
      </trkpt>
      <trkpt lat="45.81387" lon="1.85136">
        <ele>702</ele>
        <time>2026-07-08T08:30:09.000Z</time>
      </trkpt>
      <trkpt lat="45.81385" lon="1.85135">
        <ele>702.3</ele>
        <time>2026-07-08T08:30:10.000Z</time>
      </trkpt>
      <trkpt lat="45.81383" lon="1.85134">
        <ele>702.5</ele>
        <time>2026-07-08T08:30:11.000Z</time>
      </trkpt>
      <trkpt lat="45.81381" lon="1.85132">
        <ele>702.5</ele>
        <time>2026-07-08T08:30:12.000Z</time>
      </trkpt>
      <trkpt lat="45.8138" lon="1.8513">
        <ele>702.7</ele>
        <time>2026-07-08T08:30:13.000Z</time>
      </trkpt>
      <trkpt lat="45.81378" lon="1.85128">
        <ele>702.8</ele>
        <time>2026-07-08T08:30:14.000Z</time>
      </trkpt>
      <trkpt lat="45.81376" lon="1.85126">
        <ele>702.9</ele>
        <time>2026-07-08T08:30:15.000Z</time>
      </trkpt>
      <trkpt lat="45.81373" lon="1.85124">
        <ele>702.7</ele>
        <time>2026-07-08T08:30:16.000Z</time>
      </trkpt>
      <trkpt lat="45.81371" lon="1.85122">
        <ele>702.9</ele>
        <time>2026-07-08T08:30:17.000Z</time>
      </trkpt>
      <trkpt lat="45.81368" lon="1.8512">
        <ele>703.1</ele>
        <time>2026-07-08T08:30:18.000Z</time>
      </trkpt>
      <trkpt lat="45.81366" lon="1.85117">
        <ele>703</ele>
        <time>2026-07-08T08:30:19.000Z</time>
      </trkpt>
      <trkpt lat="45.81364" lon="1.85115">
        <ele>702.9</ele>
        <time>2026-07-08T08:30:20.000Z</time>
      </trkpt>
      <trkpt lat="45.81362" lon="1.85113">
        <ele>702.5</ele>
        <time>2026-07-08T08:30:21.000Z</time>
      </trkpt>
      <trkpt lat="45.8136" lon="1.85111">
        <ele>701.9</ele>
        <time>2026-07-08T08:30:22.000Z</time>
      </trkpt>
      <trkpt lat="45.81358" lon="1.85109">
        <ele>701.7</ele>
        <time>2026-07-08T08:30:23.000Z</time>
      </trkpt>
      <trkpt lat="45.81356" lon="1.85107">
        <ele>702.3</ele>
        <time>2026-07-08T08:30:24.000Z</time>
      </trkpt>
      <trkpt lat="45.81354" lon="1.85105">
        <ele>702.5</ele>
        <time>2026-07-08T08:30:25.000Z</time>
      </trkpt>
      <trkpt lat="45.81352" lon="1.85103">
        <ele>703</ele>
        <time>2026-07-08T08:30:26.000Z</time>
      </trkpt>
      <trkpt lat="45.8135" lon="1.85101">
        <ele>703.3</ele>
        <time>2026-07-08T08:30:27.000Z</time>
      </trkpt>
      <trkpt lat="45.81349" lon="1.85099">
        <ele>703.4</ele>
        <time>2026-07-08T08:30:28.000Z</time>
      </trkpt>
      <trkpt lat="45.81347" lon="1.85097">
        <ele>703.3</ele>
        <time>2026-07-08T08:30:29.000Z</time>
      </trkpt>
      <trkpt lat="45.81345" lon="1.85096">
        <ele>703.5</ele>
        <time>2026-07-08T08:30:30.000Z</time>
      </trkpt>
      <trkpt lat="45.81344" lon="1.85094">
        <ele>703.8</ele>
        <time>2026-07-08T08:30:31.000Z</time>
      </trkpt>
      <trkpt lat="45.81343" lon="1.85092">
        <ele>703.4</ele>
        <time>2026-07-08T08:30:32.000Z</time>
      </trkpt>
      <trkpt lat="45.81341" lon="1.8509">
        <ele>702.5</ele>
        <time>2026-07-08T08:30:33.000Z</time>
      </trkpt>
      <trkpt lat="45.8134" lon="1.85088">
        <ele>702.2</ele>
        <time>2026-07-08T08:30:34.000Z</time>
      </trkpt>
      <trkpt lat="45.81339" lon="1.85086">
        <ele>702</ele>
        <time>2026-07-08T08:30:35.000Z</time>
      </trkpt>
      <trkpt lat="45.81338" lon="1.85083">
        <ele>702</ele>
        <time>2026-07-08T08:30:36.000Z</time>
      </trkpt>
      <trkpt lat="45.81337" lon="1.85081">
        <ele>702.3</ele>
        <time>2026-07-08T08:30:37.000Z</time>
      </trkpt>
      <trkpt lat="45.81335" lon="1.85079">
        <ele>701.9</ele>
        <time>2026-07-08T08:30:38.000Z</time>
      </trkpt>
      <trkpt lat="45.81333" lon="1.85077">
        <ele>701.8</ele>
        <time>2026-07-08T08:30:39.000Z</time>
      </trkpt>
      <trkpt lat="45.81331" lon="1.85076">
        <ele>700.7</ele>
        <time>2026-07-08T08:30:40.000Z</time>
      </trkpt>
      <trkpt lat="45.8133" lon="1.85075">
        <ele>700.7</ele>
        <time>2026-07-08T08:30:41.000Z</time>
      </trkpt>
      <trkpt lat="45.81329" lon="1.85073">
        <ele>700.8</ele>
        <time>2026-07-08T08:30:42.000Z</time>
      </trkpt>
      <trkpt lat="45.81329" lon="1.85071">
        <ele>701</ele>
        <time>2026-07-08T08:30:43.000Z</time>
      </trkpt>
      <trkpt lat="45.81328" lon="1.85069">
        <ele>701</ele>
        <time>2026-07-08T08:30:44.000Z</time>
      </trkpt>
      <trkpt lat="45.81328" lon="1.85066">
        <ele>701.2</ele>
        <time>2026-07-08T08:30:45.000Z</time>
      </trkpt>
      <trkpt lat="45.81328" lon="1.85064">
        <ele>701.8</ele>
        <time>2026-07-08T08:30:46.000Z</time>
      </trkpt>
      <trkpt lat="45.81327" lon="1.85062">
        <ele>701.8</ele>
        <time>2026-07-08T08:30:47.000Z</time>
      </trkpt>
      <trkpt lat="45.81327" lon="1.8506">
        <ele>701.1</ele>
        <time>2026-07-08T08:30:48.000Z</time>
      </trkpt>
      <trkpt lat="45.81327" lon="1.85057">
        <ele>700.5</ele>
        <time>2026-07-08T08:30:49.000Z</time>
      </trkpt>
      <trkpt lat="45.81328" lon="1.85055">
        <ele>701</ele>
        <time>2026-07-08T08:30:50.000Z</time>
      </trkpt>
      <trkpt lat="45.81328" lon="1.85053">
        <ele>701.4</ele>
        <time>2026-07-08T08:30:51.000Z</time>
      </trkpt>
      <trkpt lat="45.81327" lon="1.8505">
        <ele>701.8</ele>
        <time>2026-07-08T08:30:52.000Z</time>
      </trkpt>
      <trkpt lat="45.81323" lon="1.85048">
        <ele>702.5</ele>
        <time>2026-07-08T08:30:53.000Z</time>
      </trkpt>
      <trkpt lat="45.81323" lon="1.85049">
        <ele>703</ele>
        <time>2026-07-08T08:30:54.000Z</time>
      </trkpt>
      <trkpt lat="45.81323" lon="1.85049">
        <ele>703</ele>
        <time>2026-07-08T08:30:55.000Z</time>
      </trkpt>
      <trkpt lat="45.81323" lon="1.85049">
        <ele>703.9</ele>
        <time>2026-07-08T08:30:56.000Z</time>
      </trkpt>
      <trkpt lat="45.81322" lon="1.8505">
        <ele>702.9</ele>
        <time>2026-07-08T08:30:57.000Z</time>
      </trkpt>
      <trkpt lat="45.81319" lon="1.85049">
        <ele>703.1</ele>
        <time>2026-07-08T08:30:58.000Z</time>
      </trkpt>
      <trkpt lat="45.81317" lon="1.85047">
        <ele>702.7</ele>
        <time>2026-07-08T08:30:59.000Z</time>
      </trkpt>
      <trkpt lat="45.81317" lon="1.85045">
        <ele>703.1</ele>
        <time>2026-07-08T08:31:00.000Z</time>
      </trkpt>
      <trkpt lat="45.81317" lon="1.85042">
        <ele>703.1</ele>
        <time>2026-07-08T08:31:01.000Z</time>
      </trkpt>
      <trkpt lat="45.81317" lon="1.8504">
        <ele>703.3</ele>
        <time>2026-07-08T08:31:02.000Z</time>
      </trkpt>
      <trkpt lat="45.81317" lon="1.85037">
        <ele>703.8</ele>
        <time>2026-07-08T08:31:03.000Z</time>
      </trkpt>
      <trkpt lat="45.81318" lon="1.85035">
        <ele>704.6</ele>
        <time>2026-07-08T08:31:04.000Z</time>
      </trkpt>
      <trkpt lat="45.81318" lon="1.85033">
        <ele>705</ele>
        <time>2026-07-08T08:31:05.000Z</time>
      </trkpt>
      <trkpt lat="45.81319" lon="1.85031">
        <ele>704.6</ele>
        <time>2026-07-08T08:31:06.000Z</time>
      </trkpt>
      <trkpt lat="45.81319" lon="1.85029">
        <ele>704.5</ele>
        <time>2026-07-08T08:31:07.000Z</time>
      </trkpt>
      <trkpt lat="45.8132" lon="1.85027">
        <ele>704.6</ele>
        <time>2026-07-08T08:31:08.000Z</time>
      </trkpt>
      <trkpt lat="45.8132" lon="1.85024">
        <ele>704.8</ele>
        <time>2026-07-08T08:31:09.000Z</time>
      </trkpt>
      <trkpt lat="45.81321" lon="1.85022">
        <ele>705</ele>
        <time>2026-07-08T08:31:10.000Z</time>
      </trkpt>
      <trkpt lat="45.81322" lon="1.85019">
        <ele>705.2</ele>
        <time>2026-07-08T08:31:11.000Z</time>
      </trkpt>
      <trkpt lat="45.81323" lon="1.85017">
        <ele>705.1</ele>
        <time>2026-07-08T08:31:12.000Z</time>
      </trkpt>
      <trkpt lat="45.81324" lon="1.85014">
        <ele>704.7</ele>
        <time>2026-07-08T08:31:13.000Z</time>
      </trkpt>
      <trkpt lat="45.81324" lon="1.85012">
        <ele>704.4</ele>
        <time>2026-07-08T08:31:14.000Z</time>
      </trkpt>
      <trkpt lat="45.81323" lon="1.85009">
        <ele>704.2</ele>
        <time>2026-07-08T08:31:15.000Z</time>
      </trkpt>
      <trkpt lat="45.81322" lon="1.85009">
        <ele>704.2</ele>
        <time>2026-07-08T08:31:16.000Z</time>
      </trkpt>
      <trkpt lat="45.81322" lon="1.85009">
        <ele>704.2</ele>
        <time>2026-07-08T08:31:17.000Z</time>
      </trkpt>
      <trkpt lat="45.81323" lon="1.85009">
        <ele>703.8</ele>
        <time>2026-07-08T08:31:18.000Z</time>
      </trkpt>
      <trkpt lat="45.81324" lon="1.85009">
        <ele>703.5</ele>
        <time>2026-07-08T08:31:19.000Z</time>
      </trkpt>
      <trkpt lat="45.81324" lon="1.85009">
        <ele>703.4</ele>
        <time>2026-07-08T08:31:20.000Z</time>
      </trkpt>
      <trkpt lat="45.81324" lon="1.85009">
        <ele>703.4</ele>
        <time>2026-07-08T08:31:21.000Z</time>
      </trkpt>
      <trkpt lat="45.81324" lon="1.85009">
        <ele>703.4</ele>
        <time>2026-07-08T08:31:22.000Z</time>
      </trkpt>
      <trkpt lat="45.81326" lon="1.85009">
        <ele>704</ele>
        <time>2026-07-08T08:31:23.000Z</time>
      </trkpt>
      <trkpt lat="45.81327" lon="1.85007">
        <ele>704.2</ele>
        <time>2026-07-08T08:31:24.000Z</time>
      </trkpt>
      <trkpt lat="45.81327" lon="1.85007">
        <ele>704.4</ele>
        <time>2026-07-08T08:31:25.000Z</time>
      </trkpt>
      <trkpt lat="45.81328" lon="1.85006">
        <ele>705</ele>
        <time>2026-07-08T08:31:26.000Z</time>
      </trkpt>
      <trkpt lat="45.81328" lon="1.85006">
        <ele>704.9</ele>
        <time>2026-07-08T08:31:27.000Z</time>
      </trkpt>
      <trkpt lat="45.81328" lon="1.85007">
        <ele>704.9</ele>
        <time>2026-07-08T08:31:28.000Z</time>
      </trkpt>
      <trkpt lat="45.81328" lon="1.85007">
        <ele>704.9</ele>
        <time>2026-07-08T08:31:29.000Z</time>
      </trkpt>
      <trkpt lat="45.81327" lon="1.85009">
        <ele>704.9</ele>
        <time>2026-07-08T08:31:30.000Z</time>
      </trkpt>
      <trkpt lat="45.81328" lon="1.85009">
        <ele>704.7</ele>
        <time>2026-07-08T08:31:31.000Z</time>
      </trkpt>
      <trkpt lat="45.81328" lon="1.85009">
        <ele>704.8</ele>
        <time>2026-07-08T08:31:32.000Z</time>
      </trkpt>
      <trkpt lat="45.81328" lon="1.85009">
        <ele>704.8</ele>
        <time>2026-07-08T08:31:33.000Z</time>
      </trkpt>
      <trkpt lat="45.81328" lon="1.85009">
        <ele>704.8</ele>
        <time>2026-07-08T08:31:34.000Z</time>
      </trkpt>
      <trkpt lat="45.81329" lon="1.85008">
        <ele>704.9</ele>
        <time>2026-07-08T08:31:35.000Z</time>
      </trkpt>
      <trkpt lat="45.81329" lon="1.85008">
        <ele>704.6</ele>
        <time>2026-07-08T08:31:36.000Z</time>
      </trkpt>
      <trkpt lat="45.8133" lon="1.85007">
        <ele>704.9</ele>
        <time>2026-07-08T08:31:37.000Z</time>
      </trkpt>
      <trkpt lat="45.8133" lon="1.85005">
        <ele>705</ele>
        <time>2026-07-08T08:31:38.000Z</time>
      </trkpt>
      <trkpt lat="45.81331" lon="1.85004">
        <ele>705.5</ele>
        <time>2026-07-08T08:31:39.000Z</time>
      </trkpt>
      <trkpt lat="45.81331" lon="1.85004">
        <ele>705.5</ele>
        <time>2026-07-08T08:31:40.000Z</time>
      </trkpt>
      <trkpt lat="45.81332" lon="1.85004">
        <ele>706.1</ele>
        <time>2026-07-08T08:31:41.000Z</time>
      </trkpt>
      <trkpt lat="45.81332" lon="1.85003">
        <ele>705.9</ele>
        <time>2026-07-08T08:31:42.000Z</time>
      </trkpt>
      <trkpt lat="45.81333" lon="1.85">
        <ele>706.2</ele>
        <time>2026-07-08T08:31:43.000Z</time>
      </trkpt>
      <trkpt lat="45.81334" lon="1.84998">
        <ele>706.6</ele>
        <time>2026-07-08T08:31:44.000Z</time>
      </trkpt>
      <trkpt lat="45.81335" lon="1.84995">
        <ele>707.1</ele>
        <time>2026-07-08T08:31:45.000Z</time>
      </trkpt>
      <trkpt lat="45.81336" lon="1.84992">
        <ele>707.9</ele>
        <time>2026-07-08T08:31:46.000Z</time>
      </trkpt>
      <trkpt lat="45.81336" lon="1.84989">
        <ele>708.1</ele>
        <time>2026-07-08T08:31:47.000Z</time>
      </trkpt>
      <trkpt lat="45.81336" lon="1.84986">
        <ele>708.1</ele>
        <time>2026-07-08T08:31:48.000Z</time>
      </trkpt>
      <trkpt lat="45.81339" lon="1.84983">
        <ele>710.1</ele>
        <time>2026-07-08T08:31:49.000Z</time>
      </trkpt>
      <trkpt lat="45.81339" lon="1.84981">
        <ele>710.4</ele>
        <time>2026-07-08T08:31:50.000Z</time>
      </trkpt>
      <trkpt lat="45.81339" lon="1.84978">
        <ele>710.5</ele>
        <time>2026-07-08T08:31:51.000Z</time>
      </trkpt>
      <trkpt lat="45.81339" lon="1.84975">
        <ele>711</ele>
        <time>2026-07-08T08:31:52.000Z</time>
      </trkpt>
      <trkpt lat="45.81338" lon="1.84972">
        <ele>710.2</ele>
        <time>2026-07-08T08:31:53.000Z</time>
      </trkpt>
      <trkpt lat="45.81338" lon="1.84969">
        <ele>710.4</ele>
        <time>2026-07-08T08:31:54.000Z</time>
      </trkpt>
      <trkpt lat="45.81338" lon="1.84966">
        <ele>710.3</ele>
        <time>2026-07-08T08:31:55.000Z</time>
      </trkpt>
      <trkpt lat="45.81339" lon="1.84964">
        <ele>710.1</ele>
        <time>2026-07-08T08:31:56.000Z</time>
      </trkpt>
      <trkpt lat="45.81339" lon="1.84961">
        <ele>710.4</ele>
        <time>2026-07-08T08:31:57.000Z</time>
      </trkpt>
      <trkpt lat="45.81339" lon="1.84958">
        <ele>710.1</ele>
        <time>2026-07-08T08:31:58.000Z</time>
      </trkpt>
      <trkpt lat="45.81339" lon="1.84956">
        <ele>710.3</ele>
        <time>2026-07-08T08:31:59.000Z</time>
      </trkpt>
      <trkpt lat="45.8134" lon="1.84953">
        <ele>710.8</ele>
        <time>2026-07-08T08:32:00.000Z</time>
      </trkpt>
      <trkpt lat="45.8134" lon="1.84951">
        <ele>710.9</ele>
        <time>2026-07-08T08:32:01.000Z</time>
      </trkpt>
      <trkpt lat="45.81341" lon="1.84949">
        <ele>711.2</ele>
        <time>2026-07-08T08:32:02.000Z</time>
      </trkpt>
      <trkpt lat="45.81342" lon="1.84946">
        <ele>711.4</ele>
        <time>2026-07-08T08:32:03.000Z</time>
      </trkpt>
      <trkpt lat="45.81342" lon="1.84944">
        <ele>711.7</ele>
        <time>2026-07-08T08:32:04.000Z</time>
      </trkpt>
      <trkpt lat="45.81343" lon="1.84941">
        <ele>712.2</ele>
        <time>2026-07-08T08:32:05.000Z</time>
      </trkpt>
      <trkpt lat="45.81343" lon="1.84939">
        <ele>712.8</ele>
        <time>2026-07-08T08:32:06.000Z</time>
      </trkpt>
      <trkpt lat="45.81344" lon="1.84937">
        <ele>713</ele>
        <time>2026-07-08T08:32:07.000Z</time>
      </trkpt>
      <trkpt lat="45.81345" lon="1.84935">
        <ele>713.3</ele>
        <time>2026-07-08T08:32:08.000Z</time>
      </trkpt>
      <trkpt lat="45.81345" lon="1.84934">
        <ele>713.5</ele>
        <time>2026-07-08T08:32:09.000Z</time>
      </trkpt>
      <trkpt lat="45.81345" lon="1.84932">
        <ele>713.7</ele>
        <time>2026-07-08T08:32:10.000Z</time>
      </trkpt>
      <trkpt lat="45.81346" lon="1.8493">
        <ele>713.9</ele>
        <time>2026-07-08T08:32:11.000Z</time>
      </trkpt>
      <trkpt lat="45.81346" lon="1.84928">
        <ele>714.3</ele>
        <time>2026-07-08T08:32:12.000Z</time>
      </trkpt>
      <trkpt lat="45.81346" lon="1.84927">
        <ele>714.4</ele>
        <time>2026-07-08T08:32:13.000Z</time>
      </trkpt>
      <trkpt lat="45.81346" lon="1.84927">
        <ele>714.3</ele>
        <time>2026-07-08T08:32:14.000Z</time>
      </trkpt>
      <trkpt lat="45.81346" lon="1.84927">
        <ele>714.3</ele>
        <time>2026-07-08T08:32:15.000Z</time>
      </trkpt>
      <trkpt lat="45.81346" lon="1.84927">
        <ele>714.3</ele>
        <time>2026-07-08T08:32:16.000Z</time>
      </trkpt>
      <trkpt lat="45.81345" lon="1.84927">
        <ele>714.4</ele>
        <time>2026-07-08T08:32:17.000Z</time>
      </trkpt>
      <trkpt lat="45.81346" lon="1.84926">
        <ele>714.6</ele>
        <time>2026-07-08T08:32:18.000Z</time>
      </trkpt>
      <trkpt lat="45.81345" lon="1.84925">
        <ele>714.5</ele>
        <time>2026-07-08T08:32:19.000Z</time>
      </trkpt>
      <trkpt lat="45.81345" lon="1.84923">
        <ele>714.6</ele>
        <time>2026-07-08T08:32:20.000Z</time>
      </trkpt>
      <trkpt lat="45.81345" lon="1.84921">
        <ele>715.1</ele>
        <time>2026-07-08T08:32:21.000Z</time>
      </trkpt>
      <trkpt lat="45.81345" lon="1.84919">
        <ele>715.5</ele>
        <time>2026-07-08T08:32:22.000Z</time>
      </trkpt>
      <trkpt lat="45.81344" lon="1.84917">
        <ele>715.3</ele>
        <time>2026-07-08T08:32:23.000Z</time>
      </trkpt>
      <trkpt lat="45.81344" lon="1.84914">
        <ele>716.3</ele>
        <time>2026-07-08T08:32:24.000Z</time>
      </trkpt>
      <trkpt lat="45.81343" lon="1.84912">
        <ele>714</ele>
        <time>2026-07-08T08:32:25.000Z</time>
      </trkpt>
      <trkpt lat="45.81343" lon="1.84909">
        <ele>713.3</ele>
        <time>2026-07-08T08:32:26.000Z</time>
      </trkpt>
      <trkpt lat="45.8134" lon="1.84908">
        <ele>712.7</ele>
        <time>2026-07-08T08:32:27.000Z</time>
      </trkpt>
      <trkpt lat="45.81339" lon="1.84905">
        <ele>712.7</ele>
        <time>2026-07-08T08:32:28.000Z</time>
      </trkpt>
      <trkpt lat="45.81339" lon="1.84903">
        <ele>712.4</ele>
        <time>2026-07-08T08:32:29.000Z</time>
      </trkpt>
      <trkpt lat="45.81338" lon="1.84901">
        <ele>712</ele>
        <time>2026-07-08T08:32:30.000Z</time>
      </trkpt>
      <trkpt lat="45.81337" lon="1.84899">
        <ele>711.4</ele>
        <time>2026-07-08T08:32:31.000Z</time>
      </trkpt>
      <trkpt lat="45.81336" lon="1.84897">
        <ele>710.2</ele>
        <time>2026-07-08T08:32:32.000Z</time>
      </trkpt>
      <trkpt lat="45.81335" lon="1.84895">
        <ele>709.5</ele>
        <time>2026-07-08T08:32:33.000Z</time>
      </trkpt>
      <trkpt lat="45.81333" lon="1.84893">
        <ele>709.4</ele>
        <time>2026-07-08T08:32:34.000Z</time>
      </trkpt>
      <trkpt lat="45.81331" lon="1.84892">
        <ele>708.7</ele>
        <time>2026-07-08T08:32:35.000Z</time>
      </trkpt>
      <trkpt lat="45.8133" lon="1.8489">
        <ele>708.5</ele>
        <time>2026-07-08T08:32:36.000Z</time>
      </trkpt>
      <trkpt lat="45.81329" lon="1.84888">
        <ele>708.4</ele>
        <time>2026-07-08T08:32:37.000Z</time>
      </trkpt>
      <trkpt lat="45.81328" lon="1.84886">
        <ele>707.7</ele>
        <time>2026-07-08T08:32:38.000Z</time>
      </trkpt>
      <trkpt lat="45.81325" lon="1.84885">
        <ele>708.4</ele>
        <time>2026-07-08T08:32:39.000Z</time>
      </trkpt>
      <trkpt lat="45.81323" lon="1.84883">
        <ele>709</ele>
        <time>2026-07-08T08:32:40.000Z</time>
      </trkpt>
      <trkpt lat="45.81322" lon="1.84881">
        <ele>709.2</ele>
        <time>2026-07-08T08:32:41.000Z</time>
      </trkpt>
      <trkpt lat="45.8132" lon="1.8488">
        <ele>709.6</ele>
        <time>2026-07-08T08:32:42.000Z</time>
      </trkpt>
      <trkpt lat="45.81318" lon="1.8488">
        <ele>710.3</ele>
        <time>2026-07-08T08:32:43.000Z</time>
      </trkpt>
      <trkpt lat="45.81316" lon="1.84879">
        <ele>710.2</ele>
        <time>2026-07-08T08:32:44.000Z</time>
      </trkpt>
      <trkpt lat="45.81315" lon="1.84879">
        <ele>710</ele>
        <time>2026-07-08T08:32:45.000Z</time>
      </trkpt>
      <trkpt lat="45.81313" lon="1.84878">
        <ele>710.5</ele>
        <time>2026-07-08T08:32:46.000Z</time>
      </trkpt>
      <trkpt lat="45.81311" lon="1.84878">
        <ele>711.1</ele>
        <time>2026-07-08T08:32:47.000Z</time>
      </trkpt>
      <trkpt lat="45.81309" lon="1.84877">
        <ele>711.3</ele>
        <time>2026-07-08T08:32:48.000Z</time>
      </trkpt>
      <trkpt lat="45.81307" lon="1.84877">
        <ele>712.1</ele>
        <time>2026-07-08T08:32:49.000Z</time>
      </trkpt>
      <trkpt lat="45.81305" lon="1.84876">
        <ele>712.4</ele>
        <time>2026-07-08T08:32:50.000Z</time>
      </trkpt>
      <trkpt lat="45.81303" lon="1.84876">
        <ele>712.9</ele>
        <time>2026-07-08T08:32:51.000Z</time>
      </trkpt>
      <trkpt lat="45.81301" lon="1.84876">
        <ele>712.9</ele>
        <time>2026-07-08T08:32:52.000Z</time>
      </trkpt>
      <trkpt lat="45.81299" lon="1.84876">
        <ele>713.1</ele>
        <time>2026-07-08T08:32:53.000Z</time>
      </trkpt>
      <trkpt lat="45.81297" lon="1.84876">
        <ele>713.9</ele>
        <time>2026-07-08T08:32:54.000Z</time>
      </trkpt>
      <trkpt lat="45.81295" lon="1.84876">
        <ele>714.6</ele>
        <time>2026-07-08T08:32:55.000Z</time>
      </trkpt>
      <trkpt lat="45.81293" lon="1.84876">
        <ele>715.1</ele>
        <time>2026-07-08T08:32:56.000Z</time>
      </trkpt>
      <trkpt lat="45.81291" lon="1.84877">
        <ele>715.2</ele>
        <time>2026-07-08T08:32:57.000Z</time>
      </trkpt>
      <trkpt lat="45.81289" lon="1.84877">
        <ele>715.5</ele>
        <time>2026-07-08T08:32:58.000Z</time>
      </trkpt>
      <trkpt lat="45.81288" lon="1.84878">
        <ele>715.2</ele>
        <time>2026-07-08T08:32:59.000Z</time>
      </trkpt>
      <trkpt lat="45.81286" lon="1.84878">
        <ele>715.3</ele>
        <time>2026-07-08T08:33:00.000Z</time>
      </trkpt>
      <trkpt lat="45.81285" lon="1.84879">
        <ele>715.7</ele>
        <time>2026-07-08T08:33:01.000Z</time>
      </trkpt>
      <trkpt lat="45.81283" lon="1.8488">
        <ele>716.6</ele>
        <time>2026-07-08T08:33:02.000Z</time>
      </trkpt>
      <trkpt lat="45.81282" lon="1.8488">
        <ele>715.3</ele>
        <time>2026-07-08T08:33:03.000Z</time>
      </trkpt>
      <trkpt lat="45.8128" lon="1.84881">
        <ele>715.1</ele>
        <time>2026-07-08T08:33:04.000Z</time>
      </trkpt>
      <trkpt lat="45.81278" lon="1.84883">
        <ele>715.2</ele>
        <time>2026-07-08T08:33:05.000Z</time>
      </trkpt>
      <trkpt lat="45.81277" lon="1.84885">
        <ele>715</ele>
        <time>2026-07-08T08:33:06.000Z</time>
      </trkpt>
      <trkpt lat="45.81276" lon="1.84885">
        <ele>714.9</ele>
        <time>2026-07-08T08:33:07.000Z</time>
      </trkpt>
      <trkpt lat="45.81276" lon="1.84885">
        <ele>714.9</ele>
        <time>2026-07-08T08:33:08.000Z</time>
      </trkpt>
      <trkpt lat="45.81274" lon="1.84885">
        <ele>715.2</ele>
        <time>2026-07-08T08:33:09.000Z</time>
      </trkpt>
      <trkpt lat="45.81274" lon="1.84885">
        <ele>715.2</ele>
        <time>2026-07-08T08:33:10.000Z</time>
      </trkpt>
      <trkpt lat="45.81273" lon="1.84885">
        <ele>715.1</ele>
        <time>2026-07-08T08:33:11.000Z</time>
      </trkpt>
      <trkpt lat="45.81271" lon="1.84885">
        <ele>714.9</ele>
        <time>2026-07-08T08:33:12.000Z</time>
      </trkpt>
      <trkpt lat="45.81269" lon="1.84885">
        <ele>715.2</ele>
        <time>2026-07-08T08:33:13.000Z</time>
      </trkpt>
      <trkpt lat="45.81268" lon="1.84886">
        <ele>715.8</ele>
        <time>2026-07-08T08:33:14.000Z</time>
      </trkpt>
      <trkpt lat="45.81267" lon="1.84888">
        <ele>715.8</ele>
        <time>2026-07-08T08:33:15.000Z</time>
      </trkpt>
      <trkpt lat="45.81265" lon="1.8489">
        <ele>715.9</ele>
        <time>2026-07-08T08:33:16.000Z</time>
      </trkpt>
      <trkpt lat="45.81264" lon="1.84892">
        <ele>714.4</ele>
        <time>2026-07-08T08:33:17.000Z</time>
      </trkpt>
      <trkpt lat="45.81263" lon="1.84894">
        <ele>714.3</ele>
        <time>2026-07-08T08:33:18.000Z</time>
      </trkpt>
      <trkpt lat="45.81262" lon="1.84895">
        <ele>714.5</ele>
        <time>2026-07-08T08:33:19.000Z</time>
      </trkpt>
      <trkpt lat="45.81261" lon="1.84897">
        <ele>714.7</ele>
        <time>2026-07-08T08:33:20.000Z</time>
      </trkpt>
      <trkpt lat="45.8126" lon="1.84898">
        <ele>714.6</ele>
        <time>2026-07-08T08:33:21.000Z</time>
      </trkpt>
      <trkpt lat="45.81258" lon="1.84899">
        <ele>714.3</ele>
        <time>2026-07-08T08:33:22.000Z</time>
      </trkpt>
      <trkpt lat="45.81257" lon="1.849">
        <ele>714.7</ele>
        <time>2026-07-08T08:33:23.000Z</time>
      </trkpt>
      <trkpt lat="45.81255" lon="1.84902">
        <ele>714.6</ele>
        <time>2026-07-08T08:33:24.000Z</time>
      </trkpt>
      <trkpt lat="45.81253" lon="1.84902">
        <ele>715.5</ele>
        <time>2026-07-08T08:33:25.000Z</time>
      </trkpt>
      <trkpt lat="45.81252" lon="1.84903">
        <ele>716.4</ele>
        <time>2026-07-08T08:33:26.000Z</time>
      </trkpt>
      <trkpt lat="45.81252" lon="1.84904">
        <ele>717.5</ele>
        <time>2026-07-08T08:33:27.000Z</time>
      </trkpt>
      <trkpt lat="45.81256" lon="1.84902">
        <ele>717.1</ele>
        <time>2026-07-08T08:33:28.000Z</time>
      </trkpt>
      <trkpt lat="45.81255" lon="1.84904">
        <ele>717.1</ele>
        <time>2026-07-08T08:33:29.000Z</time>
      </trkpt>
      <trkpt lat="45.81255" lon="1.84904">
        <ele>717.4</ele>
        <time>2026-07-08T08:33:30.000Z</time>
      </trkpt>
      <trkpt lat="45.81254" lon="1.84904">
        <ele>718.1</ele>
        <time>2026-07-08T08:33:31.000Z</time>
      </trkpt>
      <trkpt lat="45.81254" lon="1.84904">
        <ele>718.3</ele>
        <time>2026-07-08T08:33:32.000Z</time>
      </trkpt>
      <trkpt lat="45.81254" lon="1.84905">
        <ele>718.6</ele>
        <time>2026-07-08T08:33:33.000Z</time>
      </trkpt>
      <trkpt lat="45.81256" lon="1.84905">
        <ele>718.9</ele>
        <time>2026-07-08T08:33:34.000Z</time>
      </trkpt>
      <trkpt lat="45.81258" lon="1.84903">
        <ele>719.2</ele>
        <time>2026-07-08T08:33:35.000Z</time>
      </trkpt>
      <trkpt lat="45.81261" lon="1.84908">
        <ele>719.9</ele>
        <time>2026-07-08T08:33:36.000Z</time>
      </trkpt>
      <trkpt lat="45.81261" lon="1.84908">
        <ele>721.7</ele>
        <time>2026-07-08T08:33:37.000Z</time>
      </trkpt>
      <trkpt lat="45.81259" lon="1.84906">
        <ele>721.4</ele>
        <time>2026-07-08T08:33:38.000Z</time>
      </trkpt>
      <trkpt lat="45.81258" lon="1.84904">
        <ele>721.4</ele>
        <time>2026-07-08T08:33:39.000Z</time>
      </trkpt>
      <trkpt lat="45.81257" lon="1.84901">
        <ele>722.5</ele>
        <time>2026-07-08T08:33:40.000Z</time>
      </trkpt>
      <trkpt lat="45.81256" lon="1.84899">
        <ele>721.8</ele>
        <time>2026-07-08T08:33:41.000Z</time>
      </trkpt>
      <trkpt lat="45.81255" lon="1.84897">
        <ele>722.8</ele>
        <time>2026-07-08T08:33:42.000Z</time>
      </trkpt>
      <trkpt lat="45.81253" lon="1.84895">
        <ele>722.1</ele>
        <time>2026-07-08T08:33:43.000Z</time>
      </trkpt>
      <trkpt lat="45.81252" lon="1.84894">
        <ele>721</ele>
        <time>2026-07-08T08:33:44.000Z</time>
      </trkpt>
      <trkpt lat="45.8125" lon="1.84893">
        <ele>720.2</ele>
        <time>2026-07-08T08:33:45.000Z</time>
      </trkpt>
      <trkpt lat="45.81248" lon="1.84892">
        <ele>721.1</ele>
        <time>2026-07-08T08:33:46.000Z</time>
      </trkpt>
      <trkpt lat="45.81246" lon="1.84892">
        <ele>721</ele>
        <time>2026-07-08T08:33:47.000Z</time>
      </trkpt>
      <trkpt lat="45.81244" lon="1.8489">
        <ele>722.1</ele>
        <time>2026-07-08T08:33:48.000Z</time>
      </trkpt>
      <trkpt lat="45.81242" lon="1.84888">
        <ele>721.6</ele>
        <time>2026-07-08T08:33:49.000Z</time>
      </trkpt>
      <trkpt lat="45.8124" lon="1.84886">
        <ele>721.1</ele>
        <time>2026-07-08T08:33:50.000Z</time>
      </trkpt>
      <trkpt lat="45.81238" lon="1.84885">
        <ele>722.5</ele>
        <time>2026-07-08T08:33:51.000Z</time>
      </trkpt>
      <trkpt lat="45.81236" lon="1.84884">
        <ele>722.6</ele>
        <time>2026-07-08T08:33:52.000Z</time>
      </trkpt>
      <trkpt lat="45.81234" lon="1.84884">
        <ele>723.3</ele>
        <time>2026-07-08T08:33:53.000Z</time>
      </trkpt>
      <trkpt lat="45.81232" lon="1.84883">
        <ele>723.5</ele>
        <time>2026-07-08T08:33:54.000Z</time>
      </trkpt>
      <trkpt lat="45.81231" lon="1.84882">
        <ele>723.5</ele>
        <time>2026-07-08T08:33:55.000Z</time>
      </trkpt>
      <trkpt lat="45.81229" lon="1.84881">
        <ele>724.7</ele>
        <time>2026-07-08T08:33:56.000Z</time>
      </trkpt>
      <trkpt lat="45.81228" lon="1.84879">
        <ele>724.2</ele>
        <time>2026-07-08T08:33:57.000Z</time>
      </trkpt>
      <trkpt lat="45.8123" lon="1.84875">
        <ele>724.3</ele>
        <time>2026-07-08T08:33:58.000Z</time>
      </trkpt>
      <trkpt lat="45.81231" lon="1.84873">
        <ele>725.3</ele>
        <time>2026-07-08T08:33:59.000Z</time>
      </trkpt>
      <trkpt lat="45.81232" lon="1.84871">
        <ele>725.1</ele>
        <time>2026-07-08T08:34:00.000Z</time>
      </trkpt>
      <trkpt lat="45.81233" lon="1.8487">
        <ele>724.7</ele>
        <time>2026-07-08T08:34:01.000Z</time>
      </trkpt>
      <trkpt lat="45.81233" lon="1.84867">
        <ele>727.7</ele>
        <time>2026-07-08T08:34:02.000Z</time>
      </trkpt>
      <trkpt lat="45.81233" lon="1.84864">
        <ele>727.8</ele>
        <time>2026-07-08T08:34:03.000Z</time>
      </trkpt>
      <trkpt lat="45.81232" lon="1.84861">
        <ele>728.1</ele>
        <time>2026-07-08T08:34:04.000Z</time>
      </trkpt>
      <trkpt lat="45.81231" lon="1.84857">
        <ele>729.1</ele>
        <time>2026-07-08T08:34:05.000Z</time>
      </trkpt>
      <trkpt lat="45.81229" lon="1.84855">
        <ele>730.1</ele>
        <time>2026-07-08T08:34:06.000Z</time>
      </trkpt>
      <trkpt lat="45.81228" lon="1.84853">
        <ele>732</ele>
        <time>2026-07-08T08:34:07.000Z</time>
      </trkpt>
      <trkpt lat="45.81228" lon="1.8485">
        <ele>732.5</ele>
        <time>2026-07-08T08:34:08.000Z</time>
      </trkpt>
      <trkpt lat="45.81227" lon="1.84849">
        <ele>732.7</ele>
        <time>2026-07-08T08:34:09.000Z</time>
      </trkpt>
      <trkpt lat="45.81226" lon="1.84847">
        <ele>732.7</ele>
        <time>2026-07-08T08:34:10.000Z</time>
      </trkpt>
      <trkpt lat="45.81225" lon="1.84846">
        <ele>732.8</ele>
        <time>2026-07-08T08:34:11.000Z</time>
      </trkpt>
      <trkpt lat="45.81223" lon="1.84846">
        <ele>731.7</ele>
        <time>2026-07-08T08:34:12.000Z</time>
      </trkpt>
      <trkpt lat="45.81222" lon="1.84845">
        <ele>730.5</ele>
        <time>2026-07-08T08:34:13.000Z</time>
      </trkpt>
      <trkpt lat="45.8122" lon="1.84844">
        <ele>730.2</ele>
        <time>2026-07-08T08:34:14.000Z</time>
      </trkpt>
      <trkpt lat="45.81218" lon="1.84844">
        <ele>730.4</ele>
        <time>2026-07-08T08:34:15.000Z</time>
      </trkpt>
      <trkpt lat="45.81217" lon="1.84844">
        <ele>730</ele>
        <time>2026-07-08T08:34:16.000Z</time>
      </trkpt>
      <trkpt lat="45.81215" lon="1.84843">
        <ele>730.5</ele>
        <time>2026-07-08T08:34:17.000Z</time>
      </trkpt>
      <trkpt lat="45.81213" lon="1.84843">
        <ele>730.7</ele>
        <time>2026-07-08T08:34:18.000Z</time>
      </trkpt>
      <trkpt lat="45.81212" lon="1.84842">
        <ele>731.1</ele>
        <time>2026-07-08T08:34:19.000Z</time>
      </trkpt>
      <trkpt lat="45.81209" lon="1.84843">
        <ele>731.3</ele>
        <time>2026-07-08T08:34:20.000Z</time>
      </trkpt>
      <trkpt lat="45.81206" lon="1.84843">
        <ele>731.7</ele>
        <time>2026-07-08T08:34:21.000Z</time>
      </trkpt>
      <trkpt lat="45.81204" lon="1.84842">
        <ele>731.9</ele>
        <time>2026-07-08T08:34:22.000Z</time>
      </trkpt>
      <trkpt lat="45.81202" lon="1.84841">
        <ele>731.9</ele>
        <time>2026-07-08T08:34:23.000Z</time>
      </trkpt>
      <trkpt lat="45.81201" lon="1.84839">
        <ele>731.6</ele>
        <time>2026-07-08T08:34:24.000Z</time>
      </trkpt>
      <trkpt lat="45.812" lon="1.84837">
        <ele>731.7</ele>
        <time>2026-07-08T08:34:25.000Z</time>
      </trkpt>
      <trkpt lat="45.81199" lon="1.84835">
        <ele>731.8</ele>
        <time>2026-07-08T08:34:26.000Z</time>
      </trkpt>
      <trkpt lat="45.81198" lon="1.84832">
        <ele>731.7</ele>
        <time>2026-07-08T08:34:27.000Z</time>
      </trkpt>
      <trkpt lat="45.81198" lon="1.8483">
        <ele>731.4</ele>
        <time>2026-07-08T08:34:28.000Z</time>
      </trkpt>
      <trkpt lat="45.81198" lon="1.84827">
        <ele>730.3</ele>
        <time>2026-07-08T08:34:29.000Z</time>
      </trkpt>
      <trkpt lat="45.81198" lon="1.84825">
        <ele>731.6</ele>
        <time>2026-07-08T08:34:30.000Z</time>
      </trkpt>
      <trkpt lat="45.81197" lon="1.84822">
        <ele>730.5</ele>
        <time>2026-07-08T08:34:31.000Z</time>
      </trkpt>
      <trkpt lat="45.81196" lon="1.8482">
        <ele>731.3</ele>
        <time>2026-07-08T08:34:32.000Z</time>
      </trkpt>
      <trkpt lat="45.81195" lon="1.84818">
        <ele>731.2</ele>
        <time>2026-07-08T08:34:33.000Z</time>
      </trkpt>
      <trkpt lat="45.81194" lon="1.84816">
        <ele>731.7</ele>
        <time>2026-07-08T08:34:34.000Z</time>
      </trkpt>
      <trkpt lat="45.81193" lon="1.84814">
        <ele>731.9</ele>
        <time>2026-07-08T08:34:35.000Z</time>
      </trkpt>
      <trkpt lat="45.81191" lon="1.84813">
        <ele>732</ele>
        <time>2026-07-08T08:34:36.000Z</time>
      </trkpt>
      <trkpt lat="45.8119" lon="1.84812">
        <ele>732.8</ele>
        <time>2026-07-08T08:34:37.000Z</time>
      </trkpt>
      <trkpt lat="45.81188" lon="1.84811">
        <ele>732.1</ele>
        <time>2026-07-08T08:34:38.000Z</time>
      </trkpt>
      <trkpt lat="45.81186" lon="1.84811">
        <ele>732</ele>
        <time>2026-07-08T08:34:39.000Z</time>
      </trkpt>
      <trkpt lat="45.81184" lon="1.84809">
        <ele>733.4</ele>
        <time>2026-07-08T08:34:40.000Z</time>
      </trkpt>
      <trkpt lat="45.81181" lon="1.84809">
        <ele>734.1</ele>
        <time>2026-07-08T08:34:41.000Z</time>
      </trkpt>
      <trkpt lat="45.81179" lon="1.84809">
        <ele>734.2</ele>
        <time>2026-07-08T08:34:42.000Z</time>
      </trkpt>
      <trkpt lat="45.81177" lon="1.84809">
        <ele>735.4</ele>
        <time>2026-07-08T08:34:43.000Z</time>
      </trkpt>
      <trkpt lat="45.81175" lon="1.8481">
        <ele>735.4</ele>
        <time>2026-07-08T08:34:44.000Z</time>
      </trkpt>
      <trkpt lat="45.81173" lon="1.84811">
        <ele>735.4</ele>
        <time>2026-07-08T08:34:45.000Z</time>
      </trkpt>
      <trkpt lat="45.81171" lon="1.84811">
        <ele>735.1</ele>
        <time>2026-07-08T08:34:46.000Z</time>
      </trkpt>
      <trkpt lat="45.8117" lon="1.84811">
        <ele>734.2</ele>
        <time>2026-07-08T08:34:47.000Z</time>
      </trkpt>
      <trkpt lat="45.81168" lon="1.8481">
        <ele>733.4</ele>
        <time>2026-07-08T08:34:48.000Z</time>
      </trkpt>
      <trkpt lat="45.81167" lon="1.84809">
        <ele>733.3</ele>
        <time>2026-07-08T08:34:49.000Z</time>
      </trkpt>
      <trkpt lat="45.81166" lon="1.84808">
        <ele>733.8</ele>
        <time>2026-07-08T08:34:50.000Z</time>
      </trkpt>
      <trkpt lat="45.81166" lon="1.84806">
        <ele>733</ele>
        <time>2026-07-08T08:34:51.000Z</time>
      </trkpt>
      <trkpt lat="45.81165" lon="1.84806">
        <ele>733.1</ele>
        <time>2026-07-08T08:34:52.000Z</time>
      </trkpt>
      <trkpt lat="45.81164" lon="1.84805">
        <ele>732.9</ele>
        <time>2026-07-08T08:34:53.000Z</time>
      </trkpt>
      <trkpt lat="45.81163" lon="1.84806">
        <ele>732.7</ele>
        <time>2026-07-08T08:34:54.000Z</time>
      </trkpt>
      <trkpt lat="45.81161" lon="1.84806">
        <ele>732.6</ele>
        <time>2026-07-08T08:34:55.000Z</time>
      </trkpt>
      <trkpt lat="45.8116" lon="1.84806">
        <ele>732.2</ele>
        <time>2026-07-08T08:34:56.000Z</time>
      </trkpt>
      <trkpt lat="45.81158" lon="1.84805">
        <ele>732.7</ele>
        <time>2026-07-08T08:34:57.000Z</time>
      </trkpt>
      <trkpt lat="45.81156" lon="1.84804">
        <ele>732</ele>
        <time>2026-07-08T08:34:58.000Z</time>
      </trkpt>
      <trkpt lat="45.81154" lon="1.84803">
        <ele>731.6</ele>
        <time>2026-07-08T08:34:59.000Z</time>
      </trkpt>
      <trkpt lat="45.81152" lon="1.84803">
        <ele>731.9</ele>
        <time>2026-07-08T08:35:00.000Z</time>
      </trkpt>
      <trkpt lat="45.8115" lon="1.84802">
        <ele>733.2</ele>
        <time>2026-07-08T08:35:01.000Z</time>
      </trkpt>
      <trkpt lat="45.81147" lon="1.84801">
        <ele>732.8</ele>
        <time>2026-07-08T08:35:02.000Z</time>
      </trkpt>
      <trkpt lat="45.81145" lon="1.848">
        <ele>733.1</ele>
        <time>2026-07-08T08:35:03.000Z</time>
      </trkpt>
      <trkpt lat="45.81143" lon="1.84801">
        <ele>733</ele>
        <time>2026-07-08T08:35:04.000Z</time>
      </trkpt>
      <trkpt lat="45.81141" lon="1.848">
        <ele>733.5</ele>
        <time>2026-07-08T08:35:05.000Z</time>
      </trkpt>
      <trkpt lat="45.81139" lon="1.84798">
        <ele>735.2</ele>
        <time>2026-07-08T08:35:06.000Z</time>
      </trkpt>
      <trkpt lat="45.81137" lon="1.84797">
        <ele>736.4</ele>
        <time>2026-07-08T08:35:07.000Z</time>
      </trkpt>
      <trkpt lat="45.81135" lon="1.84795">
        <ele>736.8</ele>
        <time>2026-07-08T08:35:08.000Z</time>
      </trkpt>
      <trkpt lat="45.81133" lon="1.84794">
        <ele>736.7</ele>
        <time>2026-07-08T08:35:09.000Z</time>
      </trkpt>
      <trkpt lat="45.81131" lon="1.84792">
        <ele>737.2</ele>
        <time>2026-07-08T08:35:10.000Z</time>
      </trkpt>
      <trkpt lat="45.81129" lon="1.8479">
        <ele>737.6</ele>
        <time>2026-07-08T08:35:11.000Z</time>
      </trkpt>
      <trkpt lat="45.81127" lon="1.84787">
        <ele>738.5</ele>
        <time>2026-07-08T08:35:12.000Z</time>
      </trkpt>
      <trkpt lat="45.81126" lon="1.84785">
        <ele>739.1</ele>
        <time>2026-07-08T08:35:13.000Z</time>
      </trkpt>
      <trkpt lat="45.81125" lon="1.84782">
        <ele>739.7</ele>
        <time>2026-07-08T08:35:14.000Z</time>
      </trkpt>
      <trkpt lat="45.81124" lon="1.8478">
        <ele>739.1</ele>
        <time>2026-07-08T08:35:15.000Z</time>
      </trkpt>
      <trkpt lat="45.81123" lon="1.84777">
        <ele>740.8</ele>
        <time>2026-07-08T08:35:16.000Z</time>
      </trkpt>
      <trkpt lat="45.81121" lon="1.84777">
        <ele>740.4</ele>
        <time>2026-07-08T08:35:17.000Z</time>
      </trkpt>
      <trkpt lat="45.81119" lon="1.84777">
        <ele>740.5</ele>
        <time>2026-07-08T08:35:18.000Z</time>
      </trkpt>
      <trkpt lat="45.81117" lon="1.84777">
        <ele>740.4</ele>
        <time>2026-07-08T08:35:19.000Z</time>
      </trkpt>
      <trkpt lat="45.81115" lon="1.84778">
        <ele>739.9</ele>
        <time>2026-07-08T08:35:20.000Z</time>
      </trkpt>
      <trkpt lat="45.81114" lon="1.8478">
        <ele>740.2</ele>
        <time>2026-07-08T08:35:21.000Z</time>
      </trkpt>
      <trkpt lat="45.81114" lon="1.84781">
        <ele>740</ele>
        <time>2026-07-08T08:35:22.000Z</time>
      </trkpt>
      <trkpt lat="45.81113" lon="1.84784">
        <ele>738.7</ele>
        <time>2026-07-08T08:35:23.000Z</time>
      </trkpt>
      <trkpt lat="45.81112" lon="1.84787">
        <ele>739.2</ele>
        <time>2026-07-08T08:35:24.000Z</time>
      </trkpt>
      <trkpt lat="45.81112" lon="1.8479">
        <ele>739.8</ele>
        <time>2026-07-08T08:35:25.000Z</time>
      </trkpt>
      <trkpt lat="45.81111" lon="1.84793">
        <ele>740.4</ele>
        <time>2026-07-08T08:35:26.000Z</time>
      </trkpt>
      <trkpt lat="45.81109" lon="1.84795">
        <ele>740</ele>
        <time>2026-07-08T08:35:27.000Z</time>
      </trkpt>
      <trkpt lat="45.81108" lon="1.84798">
        <ele>739.8</ele>
        <time>2026-07-08T08:35:28.000Z</time>
      </trkpt>
      <trkpt lat="45.81108" lon="1.848">
        <ele>739.8</ele>
        <time>2026-07-08T08:35:29.000Z</time>
      </trkpt>
      <trkpt lat="45.81107" lon="1.84803">
        <ele>741.1</ele>
        <time>2026-07-08T08:35:30.000Z</time>
      </trkpt>
      <trkpt lat="45.81106" lon="1.84805">
        <ele>741.4</ele>
        <time>2026-07-08T08:35:31.000Z</time>
      </trkpt>
      <trkpt lat="45.81105" lon="1.84807">
        <ele>741.2</ele>
        <time>2026-07-08T08:35:32.000Z</time>
      </trkpt>
      <trkpt lat="45.81104" lon="1.84809">
        <ele>741.1</ele>
        <time>2026-07-08T08:35:33.000Z</time>
      </trkpt>
      <trkpt lat="45.81103" lon="1.84811">
        <ele>740.4</ele>
        <time>2026-07-08T08:35:34.000Z</time>
      </trkpt>
      <trkpt lat="45.81102" lon="1.84814">
        <ele>740.1</ele>
        <time>2026-07-08T08:35:35.000Z</time>
      </trkpt>
      <trkpt lat="45.81101" lon="1.84816">
        <ele>739.7</ele>
        <time>2026-07-08T08:35:36.000Z</time>
      </trkpt>
      <trkpt lat="45.811" lon="1.84819">
        <ele>739.6</ele>
        <time>2026-07-08T08:35:37.000Z</time>
      </trkpt>
      <trkpt lat="45.81099" lon="1.84821">
        <ele>739.6</ele>
        <time>2026-07-08T08:35:38.000Z</time>
      </trkpt>
      <trkpt lat="45.81099" lon="1.84821">
        <ele>740.8</ele>
        <time>2026-07-08T08:35:39.000Z</time>
      </trkpt>
      <trkpt lat="45.81098" lon="1.84822">
        <ele>740.6</ele>
        <time>2026-07-08T08:35:40.000Z</time>
      </trkpt>
      <trkpt lat="45.81096" lon="1.84823">
        <ele>741.1</ele>
        <time>2026-07-08T08:35:41.000Z</time>
      </trkpt>
      <trkpt lat="45.81095" lon="1.84824">
        <ele>741.8</ele>
        <time>2026-07-08T08:35:42.000Z</time>
      </trkpt>
      <trkpt lat="45.81093" lon="1.84826">
        <ele>741.2</ele>
        <time>2026-07-08T08:35:43.000Z</time>
      </trkpt>
      <trkpt lat="45.81091" lon="1.84827">
        <ele>742.4</ele>
        <time>2026-07-08T08:35:44.000Z</time>
      </trkpt>
      <trkpt lat="45.81089" lon="1.84829">
        <ele>742.9</ele>
        <time>2026-07-08T08:35:45.000Z</time>
      </trkpt>
      <trkpt lat="45.81088" lon="1.8483">
        <ele>742.9</ele>
        <time>2026-07-08T08:35:46.000Z</time>
      </trkpt>
      <trkpt lat="45.81086" lon="1.84832">
        <ele>743</ele>
        <time>2026-07-08T08:35:47.000Z</time>
      </trkpt>
      <trkpt lat="45.81084" lon="1.84833">
        <ele>744.7</ele>
        <time>2026-07-08T08:35:48.000Z</time>
      </trkpt>
      <trkpt lat="45.81083" lon="1.84834">
        <ele>743.4</ele>
        <time>2026-07-08T08:35:49.000Z</time>
      </trkpt>
      <trkpt lat="45.81082" lon="1.84835">
        <ele>745</ele>
        <time>2026-07-08T08:35:50.000Z</time>
      </trkpt>
      <trkpt lat="45.81081" lon="1.84837">
        <ele>746</ele>
        <time>2026-07-08T08:35:51.000Z</time>
      </trkpt>
      <trkpt lat="45.81079" lon="1.84839">
        <ele>746.2</ele>
        <time>2026-07-08T08:35:52.000Z</time>
      </trkpt>
      <trkpt lat="45.81078" lon="1.84841">
        <ele>746.7</ele>
        <time>2026-07-08T08:35:53.000Z</time>
      </trkpt>
      <trkpt lat="45.81077" lon="1.84842">
        <ele>748</ele>
        <time>2026-07-08T08:35:54.000Z</time>
      </trkpt>
      <trkpt lat="45.81076" lon="1.84844">
        <ele>748.1</ele>
        <time>2026-07-08T08:35:55.000Z</time>
      </trkpt>
      <trkpt lat="45.81076" lon="1.84846">
        <ele>748.3</ele>
        <time>2026-07-08T08:35:56.000Z</time>
      </trkpt>
      <trkpt lat="45.81075" lon="1.84849">
        <ele>748.4</ele>
        <time>2026-07-08T08:35:57.000Z</time>
      </trkpt>
      <trkpt lat="45.81074" lon="1.84852">
        <ele>748.7</ele>
        <time>2026-07-08T08:35:58.000Z</time>
      </trkpt>
      <trkpt lat="45.81074" lon="1.84854">
        <ele>748.5</ele>
        <time>2026-07-08T08:35:59.000Z</time>
      </trkpt>
      <trkpt lat="45.81072" lon="1.84857">
        <ele>748.3</ele>
        <time>2026-07-08T08:36:00.000Z</time>
      </trkpt>
      <trkpt lat="45.81071" lon="1.84859">
        <ele>748.3</ele>
        <time>2026-07-08T08:36:01.000Z</time>
      </trkpt>
      <trkpt lat="45.8107" lon="1.84862">
        <ele>748.5</ele>
        <time>2026-07-08T08:36:02.000Z</time>
      </trkpt>
      <trkpt lat="45.81068" lon="1.84864">
        <ele>750</ele>
        <time>2026-07-08T08:36:03.000Z</time>
      </trkpt>
      <trkpt lat="45.81067" lon="1.84866">
        <ele>748.8</ele>
        <time>2026-07-08T08:36:04.000Z</time>
      </trkpt>
      <trkpt lat="45.81066" lon="1.84868">
        <ele>748.1</ele>
        <time>2026-07-08T08:36:05.000Z</time>
      </trkpt>
      <trkpt lat="45.81065" lon="1.8487">
        <ele>748.6</ele>
        <time>2026-07-08T08:36:06.000Z</time>
      </trkpt>
      <trkpt lat="45.81063" lon="1.84872">
        <ele>748.5</ele>
        <time>2026-07-08T08:36:07.000Z</time>
      </trkpt>
      <trkpt lat="45.81062" lon="1.84874">
        <ele>747.9</ele>
        <time>2026-07-08T08:36:08.000Z</time>
      </trkpt>
      <trkpt lat="45.81061" lon="1.84875">
        <ele>748.6</ele>
        <time>2026-07-08T08:36:09.000Z</time>
      </trkpt>
      <trkpt lat="45.81059" lon="1.84877">
        <ele>748.5</ele>
        <time>2026-07-08T08:36:10.000Z</time>
      </trkpt>
      <trkpt lat="45.81057" lon="1.84879">
        <ele>748.5</ele>
        <time>2026-07-08T08:36:11.000Z</time>
      </trkpt>
      <trkpt lat="45.81056" lon="1.8488">
        <ele>749.1</ele>
        <time>2026-07-08T08:36:12.000Z</time>
      </trkpt>
      <trkpt lat="45.81054" lon="1.84882">
        <ele>750.2</ele>
        <time>2026-07-08T08:36:13.000Z</time>
      </trkpt>
      <trkpt lat="45.81053" lon="1.84882">
        <ele>750.4</ele>
        <time>2026-07-08T08:36:14.000Z</time>
      </trkpt>
      <trkpt lat="45.81051" lon="1.84883">
        <ele>749.7</ele>
        <time>2026-07-08T08:36:15.000Z</time>
      </trkpt>
      <trkpt lat="45.81049" lon="1.84883">
        <ele>749.9</ele>
        <time>2026-07-08T08:36:16.000Z</time>
      </trkpt>
      <trkpt lat="45.81048" lon="1.84883">
        <ele>749.9</ele>
        <time>2026-07-08T08:36:17.000Z</time>
      </trkpt>
      <trkpt lat="45.81046" lon="1.84883">
        <ele>750.3</ele>
        <time>2026-07-08T08:36:18.000Z</time>
      </trkpt>
      <trkpt lat="45.81044" lon="1.84882">
        <ele>749.5</ele>
        <time>2026-07-08T08:36:19.000Z</time>
      </trkpt>
      <trkpt lat="45.81042" lon="1.84881">
        <ele>748.9</ele>
        <time>2026-07-08T08:36:20.000Z</time>
      </trkpt>
      <trkpt lat="45.81041" lon="1.8488">
        <ele>748.6</ele>
        <time>2026-07-08T08:36:21.000Z</time>
      </trkpt>
      <trkpt lat="45.81039" lon="1.84879">
        <ele>748.6</ele>
        <time>2026-07-08T08:36:22.000Z</time>
      </trkpt>
      <trkpt lat="45.81037" lon="1.84877">
        <ele>749</ele>
        <time>2026-07-08T08:36:23.000Z</time>
      </trkpt>
      <trkpt lat="45.81036" lon="1.84876">
        <ele>748.9</ele>
        <time>2026-07-08T08:36:24.000Z</time>
      </trkpt>
      <trkpt lat="45.81034" lon="1.84875">
        <ele>749.3</ele>
        <time>2026-07-08T08:36:25.000Z</time>
      </trkpt>
      <trkpt lat="45.81032" lon="1.84874">
        <ele>749.4</ele>
        <time>2026-07-08T08:36:26.000Z</time>
      </trkpt>
      <trkpt lat="45.8103" lon="1.84872">
        <ele>749.3</ele>
        <time>2026-07-08T08:36:27.000Z</time>
      </trkpt>
      <trkpt lat="45.81029" lon="1.84871">
        <ele>750.3</ele>
        <time>2026-07-08T08:36:28.000Z</time>
      </trkpt>
      <trkpt lat="45.81027" lon="1.84869">
        <ele>750.9</ele>
        <time>2026-07-08T08:36:29.000Z</time>
      </trkpt>
      <trkpt lat="45.81025" lon="1.84867">
        <ele>751.4</ele>
        <time>2026-07-08T08:36:30.000Z</time>
      </trkpt>
      <trkpt lat="45.81023" lon="1.84866">
        <ele>751.2</ele>
        <time>2026-07-08T08:36:31.000Z</time>
      </trkpt>
      <trkpt lat="45.81021" lon="1.84866">
        <ele>751.4</ele>
        <time>2026-07-08T08:36:32.000Z</time>
      </trkpt>
      <trkpt lat="45.8102" lon="1.84865">
        <ele>751.7</ele>
        <time>2026-07-08T08:36:33.000Z</time>
      </trkpt>
      <trkpt lat="45.81018" lon="1.84864">
        <ele>751.7</ele>
        <time>2026-07-08T08:36:34.000Z</time>
      </trkpt>
      <trkpt lat="45.81016" lon="1.84864">
        <ele>751.8</ele>
        <time>2026-07-08T08:36:35.000Z</time>
      </trkpt>
      <trkpt lat="45.81015" lon="1.84863">
        <ele>752.3</ele>
        <time>2026-07-08T08:36:36.000Z</time>
      </trkpt>
      <trkpt lat="45.81013" lon="1.84863">
        <ele>752.2</ele>
        <time>2026-07-08T08:36:37.000Z</time>
      </trkpt>
      <trkpt lat="45.81012" lon="1.84863">
        <ele>752.4</ele>
        <time>2026-07-08T08:36:38.000Z</time>
      </trkpt>
      <trkpt lat="45.8101" lon="1.84862">
        <ele>752.8</ele>
        <time>2026-07-08T08:36:39.000Z</time>
      </trkpt>
      <trkpt lat="45.81008" lon="1.84862">
        <ele>753.1</ele>
        <time>2026-07-08T08:36:40.000Z</time>
      </trkpt>
      <trkpt lat="45.81006" lon="1.84861">
        <ele>753.1</ele>
        <time>2026-07-08T08:36:41.000Z</time>
      </trkpt>
      <trkpt lat="45.81005" lon="1.84861">
        <ele>752.7</ele>
        <time>2026-07-08T08:36:42.000Z</time>
      </trkpt>
      <trkpt lat="45.81003" lon="1.8486">
        <ele>752.4</ele>
        <time>2026-07-08T08:36:43.000Z</time>
      </trkpt>
      <trkpt lat="45.81002" lon="1.8486">
        <ele>752.6</ele>
        <time>2026-07-08T08:36:44.000Z</time>
      </trkpt>
      <trkpt lat="45.81" lon="1.84859">
        <ele>752.8</ele>
        <time>2026-07-08T08:36:45.000Z</time>
      </trkpt>
      <trkpt lat="45.80998" lon="1.84858">
        <ele>753.1</ele>
        <time>2026-07-08T08:36:46.000Z</time>
      </trkpt>
      <trkpt lat="45.80997" lon="1.84858">
        <ele>753.2</ele>
        <time>2026-07-08T08:36:47.000Z</time>
      </trkpt>
      <trkpt lat="45.80995" lon="1.84857">
        <ele>753.3</ele>
        <time>2026-07-08T08:36:48.000Z</time>
      </trkpt>
      <trkpt lat="45.80994" lon="1.84857">
        <ele>753.9</ele>
        <time>2026-07-08T08:36:49.000Z</time>
      </trkpt>
      <trkpt lat="45.80992" lon="1.84856">
        <ele>754.1</ele>
        <time>2026-07-08T08:36:50.000Z</time>
      </trkpt>
      <trkpt lat="45.80991" lon="1.84856">
        <ele>754.7</ele>
        <time>2026-07-08T08:36:51.000Z</time>
      </trkpt>
      <trkpt lat="45.80989" lon="1.84855">
        <ele>755.2</ele>
        <time>2026-07-08T08:36:52.000Z</time>
      </trkpt>
      <trkpt lat="45.80987" lon="1.84854">
        <ele>754.7</ele>
        <time>2026-07-08T08:36:53.000Z</time>
      </trkpt>
      <trkpt lat="45.80986" lon="1.84854">
        <ele>754.8</ele>
        <time>2026-07-08T08:36:54.000Z</time>
      </trkpt>
      <trkpt lat="45.80984" lon="1.84853">
        <ele>755.3</ele>
        <time>2026-07-08T08:36:55.000Z</time>
      </trkpt>
      <trkpt lat="45.80982" lon="1.84852">
        <ele>755.1</ele>
        <time>2026-07-08T08:36:56.000Z</time>
      </trkpt>
      <trkpt lat="45.80981" lon="1.84852">
        <ele>755.6</ele>
        <time>2026-07-08T08:36:57.000Z</time>
      </trkpt>
      <trkpt lat="45.80979" lon="1.84851">
        <ele>755.7</ele>
        <time>2026-07-08T08:36:58.000Z</time>
      </trkpt>
      <trkpt lat="45.80977" lon="1.84851">
        <ele>755.6</ele>
        <time>2026-07-08T08:36:59.000Z</time>
      </trkpt>
      <trkpt lat="45.80975" lon="1.84851">
        <ele>755.5</ele>
        <time>2026-07-08T08:37:00.000Z</time>
      </trkpt>
      <trkpt lat="45.80973" lon="1.8485">
        <ele>755.4</ele>
        <time>2026-07-08T08:37:01.000Z</time>
      </trkpt>
      <trkpt lat="45.80971" lon="1.8485">
        <ele>755.3</ele>
        <time>2026-07-08T08:37:02.000Z</time>
      </trkpt>
      <trkpt lat="45.80969" lon="1.8485">
        <ele>755</ele>
        <time>2026-07-08T08:37:03.000Z</time>
      </trkpt>
      <trkpt lat="45.80967" lon="1.8485">
        <ele>755</ele>
        <time>2026-07-08T08:37:04.000Z</time>
      </trkpt>
      <trkpt lat="45.80965" lon="1.8485">
        <ele>754.8</ele>
        <time>2026-07-08T08:37:05.000Z</time>
      </trkpt>
      <trkpt lat="45.80963" lon="1.8485">
        <ele>754.7</ele>
        <time>2026-07-08T08:37:06.000Z</time>
      </trkpt>
      <trkpt lat="45.80961" lon="1.8485">
        <ele>754.8</ele>
        <time>2026-07-08T08:37:07.000Z</time>
      </trkpt>
      <trkpt lat="45.80959" lon="1.8485">
        <ele>754.6</ele>
        <time>2026-07-08T08:37:08.000Z</time>
      </trkpt>
      <trkpt lat="45.80957" lon="1.8485">
        <ele>754.2</ele>
        <time>2026-07-08T08:37:09.000Z</time>
      </trkpt>
      <trkpt lat="45.80955" lon="1.84849">
        <ele>754.4</ele>
        <time>2026-07-08T08:37:10.000Z</time>
      </trkpt>
      <trkpt lat="45.80953" lon="1.84847">
        <ele>754.4</ele>
        <time>2026-07-08T08:37:11.000Z</time>
      </trkpt>
      <trkpt lat="45.80952" lon="1.84846">
        <ele>753.9</ele>
        <time>2026-07-08T08:37:12.000Z</time>
      </trkpt>
      <trkpt lat="45.8095" lon="1.84846">
        <ele>753.6</ele>
        <time>2026-07-08T08:37:13.000Z</time>
      </trkpt>
      <trkpt lat="45.80948" lon="1.84845">
        <ele>753.6</ele>
        <time>2026-07-08T08:37:14.000Z</time>
      </trkpt>
      <trkpt lat="45.80947" lon="1.84843">
        <ele>753.6</ele>
        <time>2026-07-08T08:37:15.000Z</time>
      </trkpt>
      <trkpt lat="45.80946" lon="1.84841">
        <ele>753.7</ele>
        <time>2026-07-08T08:37:16.000Z</time>
      </trkpt>
      <trkpt lat="45.80945" lon="1.8484">
        <ele>753.9</ele>
        <time>2026-07-08T08:37:17.000Z</time>
      </trkpt>
      <trkpt lat="45.80943" lon="1.84838">
        <ele>753.7</ele>
        <time>2026-07-08T08:37:18.000Z</time>
      </trkpt>
      <trkpt lat="45.80942" lon="1.84836">
        <ele>753.8</ele>
        <time>2026-07-08T08:37:19.000Z</time>
      </trkpt>
      <trkpt lat="45.80941" lon="1.84834">
        <ele>753.8</ele>
        <time>2026-07-08T08:37:20.000Z</time>
      </trkpt>
      <trkpt lat="45.8094" lon="1.84833">
        <ele>753.9</ele>
        <time>2026-07-08T08:37:21.000Z</time>
      </trkpt>
      <trkpt lat="45.80938" lon="1.84831">
        <ele>753.4</ele>
        <time>2026-07-08T08:37:22.000Z</time>
      </trkpt>
      <trkpt lat="45.80937" lon="1.8483">
        <ele>753.1</ele>
        <time>2026-07-08T08:37:23.000Z</time>
      </trkpt>
      <trkpt lat="45.80935" lon="1.84829">
        <ele>753</ele>
        <time>2026-07-08T08:37:24.000Z</time>
      </trkpt>
      <trkpt lat="45.80934" lon="1.84828">
        <ele>752.9</ele>
        <time>2026-07-08T08:37:25.000Z</time>
      </trkpt>
      <trkpt lat="45.80933" lon="1.84826">
        <ele>752.4</ele>
        <time>2026-07-08T08:37:26.000Z</time>
      </trkpt>
      <trkpt lat="45.80932" lon="1.84824">
        <ele>751.7</ele>
        <time>2026-07-08T08:37:27.000Z</time>
      </trkpt>
      <trkpt lat="45.80931" lon="1.84823">
        <ele>751.6</ele>
        <time>2026-07-08T08:37:28.000Z</time>
      </trkpt>
      <trkpt lat="45.80929" lon="1.84822">
        <ele>751.3</ele>
        <time>2026-07-08T08:37:29.000Z</time>
      </trkpt>
      <trkpt lat="45.80928" lon="1.84821">
        <ele>751</ele>
        <time>2026-07-08T08:37:30.000Z</time>
      </trkpt>
      <trkpt lat="45.80926" lon="1.8482">
        <ele>750.6</ele>
        <time>2026-07-08T08:37:31.000Z</time>
      </trkpt>
      <trkpt lat="45.80924" lon="1.84819">
        <ele>750.9</ele>
        <time>2026-07-08T08:37:32.000Z</time>
      </trkpt>
      <trkpt lat="45.80922" lon="1.84818">
        <ele>750.5</ele>
        <time>2026-07-08T08:37:33.000Z</time>
      </trkpt>
      <trkpt lat="45.80921" lon="1.84817">
        <ele>750.3</ele>
        <time>2026-07-08T08:37:34.000Z</time>
      </trkpt>
      <trkpt lat="45.80919" lon="1.84817">
        <ele>750.2</ele>
        <time>2026-07-08T08:37:35.000Z</time>
      </trkpt>
      <trkpt lat="45.80917" lon="1.84817">
        <ele>750</ele>
        <time>2026-07-08T08:37:36.000Z</time>
      </trkpt>
      <trkpt lat="45.80915" lon="1.84817">
        <ele>749.8</ele>
        <time>2026-07-08T08:37:37.000Z</time>
      </trkpt>
      <trkpt lat="45.80914" lon="1.84818">
        <ele>749.8</ele>
        <time>2026-07-08T08:37:38.000Z</time>
      </trkpt>
      <trkpt lat="45.80912" lon="1.84818">
        <ele>749.7</ele>
        <time>2026-07-08T08:37:39.000Z</time>
      </trkpt>
      <trkpt lat="45.8091" lon="1.84819">
        <ele>749.3</ele>
        <time>2026-07-08T08:37:40.000Z</time>
      </trkpt>
      <trkpt lat="45.80908" lon="1.8482">
        <ele>749.1</ele>
        <time>2026-07-08T08:37:41.000Z</time>
      </trkpt>
      <trkpt lat="45.80907" lon="1.84821">
        <ele>749.2</ele>
        <time>2026-07-08T08:37:42.000Z</time>
      </trkpt>
      <trkpt lat="45.80905" lon="1.84822">
        <ele>749.2</ele>
        <time>2026-07-08T08:37:43.000Z</time>
      </trkpt>
      <trkpt lat="45.80903" lon="1.84822">
        <ele>749</ele>
        <time>2026-07-08T08:37:44.000Z</time>
      </trkpt>
      <trkpt lat="45.80901" lon="1.84822">
        <ele>748.4</ele>
        <time>2026-07-08T08:37:45.000Z</time>
      </trkpt>
      <trkpt lat="45.80899" lon="1.84823">
        <ele>748.3</ele>
        <time>2026-07-08T08:37:46.000Z</time>
      </trkpt>
      <trkpt lat="45.80898" lon="1.84822">
        <ele>747.9</ele>
        <time>2026-07-08T08:37:47.000Z</time>
      </trkpt>
      <trkpt lat="45.80896" lon="1.84821">
        <ele>747.9</ele>
        <time>2026-07-08T08:37:48.000Z</time>
      </trkpt>
      <trkpt lat="45.80894" lon="1.8482">
        <ele>747.8</ele>
        <time>2026-07-08T08:37:49.000Z</time>
      </trkpt>
      <trkpt lat="45.80893" lon="1.84819">
        <ele>747.4</ele>
        <time>2026-07-08T08:37:50.000Z</time>
      </trkpt>
      <trkpt lat="45.80891" lon="1.84817">
        <ele>747.1</ele>
        <time>2026-07-08T08:37:51.000Z</time>
      </trkpt>
      <trkpt lat="45.8089" lon="1.84816">
        <ele>747.3</ele>
        <time>2026-07-08T08:37:52.000Z</time>
      </trkpt>
      <trkpt lat="45.80889" lon="1.84815">
        <ele>747.2</ele>
        <time>2026-07-08T08:37:53.000Z</time>
      </trkpt>
      <trkpt lat="45.80887" lon="1.84813">
        <ele>747.2</ele>
        <time>2026-07-08T08:37:54.000Z</time>
      </trkpt>
      <trkpt lat="45.80886" lon="1.84811">
        <ele>747.1</ele>
        <time>2026-07-08T08:37:55.000Z</time>
      </trkpt>
      <trkpt lat="45.80884" lon="1.8481">
        <ele>747.2</ele>
        <time>2026-07-08T08:37:56.000Z</time>
      </trkpt>
      <trkpt lat="45.80882" lon="1.84808">
        <ele>746.9</ele>
        <time>2026-07-08T08:37:57.000Z</time>
      </trkpt>
      <trkpt lat="45.80881" lon="1.84807">
        <ele>746.5</ele>
        <time>2026-07-08T08:37:58.000Z</time>
      </trkpt>
      <trkpt lat="45.8088" lon="1.84805">
        <ele>746.4</ele>
        <time>2026-07-08T08:37:59.000Z</time>
      </trkpt>
      <trkpt lat="45.80878" lon="1.84804">
        <ele>746.3</ele>
        <time>2026-07-08T08:38:00.000Z</time>
      </trkpt>
      <trkpt lat="45.80877" lon="1.84802">
        <ele>746</ele>
        <time>2026-07-08T08:38:01.000Z</time>
      </trkpt>
      <trkpt lat="45.80876" lon="1.84801">
        <ele>745.7</ele>
        <time>2026-07-08T08:38:02.000Z</time>
      </trkpt>
      <trkpt lat="45.80874" lon="1.84799">
        <ele>745.4</ele>
        <time>2026-07-08T08:38:03.000Z</time>
      </trkpt>
      <trkpt lat="45.80873" lon="1.84797">
        <ele>745</ele>
        <time>2026-07-08T08:38:04.000Z</time>
      </trkpt>
      <trkpt lat="45.80871" lon="1.84796">
        <ele>744.6</ele>
        <time>2026-07-08T08:38:05.000Z</time>
      </trkpt>
      <trkpt lat="45.8087" lon="1.84795">
        <ele>744.4</ele>
        <time>2026-07-08T08:38:06.000Z</time>
      </trkpt>
      <trkpt lat="45.80868" lon="1.84794">
        <ele>744.2</ele>
        <time>2026-07-08T08:38:07.000Z</time>
      </trkpt>
      <trkpt lat="45.80867" lon="1.84792">
        <ele>744</ele>
        <time>2026-07-08T08:38:08.000Z</time>
      </trkpt>
      <trkpt lat="45.80865" lon="1.84791">
        <ele>744</ele>
        <time>2026-07-08T08:38:09.000Z</time>
      </trkpt>
      <trkpt lat="45.80863" lon="1.8479">
        <ele>744.1</ele>
        <time>2026-07-08T08:38:10.000Z</time>
      </trkpt>
      <trkpt lat="45.80861" lon="1.84789">
        <ele>744.6</ele>
        <time>2026-07-08T08:38:11.000Z</time>
      </trkpt>
      <trkpt lat="45.8086" lon="1.84788">
        <ele>744.5</ele>
        <time>2026-07-08T08:38:12.000Z</time>
      </trkpt>
      <trkpt lat="45.80858" lon="1.84787">
        <ele>744</ele>
        <time>2026-07-08T08:38:13.000Z</time>
      </trkpt>
      <trkpt lat="45.80857" lon="1.84786">
        <ele>743.9</ele>
        <time>2026-07-08T08:38:14.000Z</time>
      </trkpt>
      <trkpt lat="45.80855" lon="1.84785">
        <ele>744</ele>
        <time>2026-07-08T08:38:15.000Z</time>
      </trkpt>
      <trkpt lat="45.80853" lon="1.84784">
        <ele>743.4</ele>
        <time>2026-07-08T08:38:16.000Z</time>
      </trkpt>
      <trkpt lat="45.80852" lon="1.84783">
        <ele>743.1</ele>
        <time>2026-07-08T08:38:17.000Z</time>
      </trkpt>
      <trkpt lat="45.8085" lon="1.84781">
        <ele>743</ele>
        <time>2026-07-08T08:38:18.000Z</time>
      </trkpt>
      <trkpt lat="45.80848" lon="1.8478">
        <ele>742.9</ele>
        <time>2026-07-08T08:38:19.000Z</time>
      </trkpt>
      <trkpt lat="45.80846" lon="1.8478">
        <ele>742.8</ele>
        <time>2026-07-08T08:38:20.000Z</time>
      </trkpt>
      <trkpt lat="45.80845" lon="1.84779">
        <ele>742.4</ele>
        <time>2026-07-08T08:38:21.000Z</time>
      </trkpt>
      <trkpt lat="45.80843" lon="1.84778">
        <ele>742.2</ele>
        <time>2026-07-08T08:38:22.000Z</time>
      </trkpt>
      <trkpt lat="45.80841" lon="1.84777">
        <ele>741.9</ele>
        <time>2026-07-08T08:38:23.000Z</time>
      </trkpt>
      <trkpt lat="45.80839" lon="1.84776">
        <ele>741.8</ele>
        <time>2026-07-08T08:38:24.000Z</time>
      </trkpt>
      <trkpt lat="45.80838" lon="1.84776">
        <ele>741.3</ele>
        <time>2026-07-08T08:38:25.000Z</time>
      </trkpt>
      <trkpt lat="45.80836" lon="1.84775">
        <ele>741</ele>
        <time>2026-07-08T08:38:26.000Z</time>
      </trkpt>
      <trkpt lat="45.80834" lon="1.84774">
        <ele>740.9</ele>
        <time>2026-07-08T08:38:27.000Z</time>
      </trkpt>
      <trkpt lat="45.80832" lon="1.84774">
        <ele>740.9</ele>
        <time>2026-07-08T08:38:28.000Z</time>
      </trkpt>
      <trkpt lat="45.80831" lon="1.84773">
        <ele>740.1</ele>
        <time>2026-07-08T08:38:29.000Z</time>
      </trkpt>
      <trkpt lat="45.80829" lon="1.84774">
        <ele>739.9</ele>
        <time>2026-07-08T08:38:30.000Z</time>
      </trkpt>
      <trkpt lat="45.80826" lon="1.84774">
        <ele>739.5</ele>
        <time>2026-07-08T08:38:31.000Z</time>
      </trkpt>
      <trkpt lat="45.80825" lon="1.84773">
        <ele>739.1</ele>
        <time>2026-07-08T08:38:32.000Z</time>
      </trkpt>
      <trkpt lat="45.80823" lon="1.84773">
        <ele>738.5</ele>
        <time>2026-07-08T08:38:33.000Z</time>
      </trkpt>
      <trkpt lat="45.80821" lon="1.84773">
        <ele>737.9</ele>
        <time>2026-07-08T08:38:34.000Z</time>
      </trkpt>
      <trkpt lat="45.80819" lon="1.84773">
        <ele>737.7</ele>
        <time>2026-07-08T08:38:35.000Z</time>
      </trkpt>
      <trkpt lat="45.80817" lon="1.84772">
        <ele>736.9</ele>
        <time>2026-07-08T08:38:36.000Z</time>
      </trkpt>
      <trkpt lat="45.80815" lon="1.84772">
        <ele>736</ele>
        <time>2026-07-08T08:38:37.000Z</time>
      </trkpt>
      <trkpt lat="45.80813" lon="1.84772">
        <ele>735.7</ele>
        <time>2026-07-08T08:38:38.000Z</time>
      </trkpt>
      <trkpt lat="45.80811" lon="1.84773">
        <ele>735.5</ele>
        <time>2026-07-08T08:38:39.000Z</time>
      </trkpt>
      <trkpt lat="45.80809" lon="1.84773">
        <ele>735.5</ele>
        <time>2026-07-08T08:38:40.000Z</time>
      </trkpt>
      <trkpt lat="45.80807" lon="1.84774">
        <ele>735.8</ele>
        <time>2026-07-08T08:38:41.000Z</time>
      </trkpt>
      <trkpt lat="45.80806" lon="1.84774">
        <ele>736.4</ele>
        <time>2026-07-08T08:38:42.000Z</time>
      </trkpt>
      <trkpt lat="45.80804" lon="1.84775">
        <ele>735.4</ele>
        <time>2026-07-08T08:38:43.000Z</time>
      </trkpt>
      <trkpt lat="45.80802" lon="1.84775">
        <ele>734.8</ele>
        <time>2026-07-08T08:38:44.000Z</time>
      </trkpt>
      <trkpt lat="45.808" lon="1.84775">
        <ele>734.7</ele>
        <time>2026-07-08T08:38:45.000Z</time>
      </trkpt>
      <trkpt lat="45.80798" lon="1.84775">
        <ele>735.2</ele>
        <time>2026-07-08T08:38:46.000Z</time>
      </trkpt>
      <trkpt lat="45.80796" lon="1.84775">
        <ele>734.5</ele>
        <time>2026-07-08T08:38:47.000Z</time>
      </trkpt>
      <trkpt lat="45.80795" lon="1.84774">
        <ele>735.3</ele>
        <time>2026-07-08T08:38:48.000Z</time>
      </trkpt>
      <trkpt lat="45.80792" lon="1.84774">
        <ele>736</ele>
        <time>2026-07-08T08:38:49.000Z</time>
      </trkpt>
      <trkpt lat="45.8079" lon="1.84773">
        <ele>734.9</ele>
        <time>2026-07-08T08:38:50.000Z</time>
      </trkpt>
      <trkpt lat="45.80789" lon="1.84772">
        <ele>734.4</ele>
        <time>2026-07-08T08:38:51.000Z</time>
      </trkpt>
      <trkpt lat="45.80787" lon="1.84772">
        <ele>735.3</ele>
        <time>2026-07-08T08:38:52.000Z</time>
      </trkpt>
      <trkpt lat="45.80785" lon="1.84772">
        <ele>735</ele>
        <time>2026-07-08T08:38:53.000Z</time>
      </trkpt>
      <trkpt lat="45.80783" lon="1.84773">
        <ele>735.4</ele>
        <time>2026-07-08T08:38:54.000Z</time>
      </trkpt>
      <trkpt lat="45.80782" lon="1.84773">
        <ele>735</ele>
        <time>2026-07-08T08:38:55.000Z</time>
      </trkpt>
      <trkpt lat="45.8078" lon="1.84773">
        <ele>736.3</ele>
        <time>2026-07-08T08:38:56.000Z</time>
      </trkpt>
      <trkpt lat="45.80778" lon="1.84772">
        <ele>737.5</ele>
        <time>2026-07-08T08:38:57.000Z</time>
      </trkpt>
      <trkpt lat="45.80777" lon="1.84771">
        <ele>739.3</ele>
        <time>2026-07-08T08:38:58.000Z</time>
      </trkpt>
      <trkpt lat="45.80775" lon="1.84769">
        <ele>742.5</ele>
        <time>2026-07-08T08:38:59.000Z</time>
      </trkpt>
      <trkpt lat="45.80774" lon="1.84768">
        <ele>744.1</ele>
        <time>2026-07-08T08:39:00.000Z</time>
      </trkpt>
      <trkpt lat="45.80773" lon="1.84767">
        <ele>744.4</ele>
        <time>2026-07-08T08:39:01.000Z</time>
      </trkpt>
      <trkpt lat="45.80772" lon="1.84766">
        <ele>746</ele>
        <time>2026-07-08T08:39:02.000Z</time>
      </trkpt>
      <trkpt lat="45.8077" lon="1.84765">
        <ele>746.3</ele>
        <time>2026-07-08T08:39:03.000Z</time>
      </trkpt>
      <trkpt lat="45.8077" lon="1.84764">
        <ele>743.7</ele>
        <time>2026-07-08T08:39:04.000Z</time>
      </trkpt>
      <trkpt lat="45.80769" lon="1.84764">
        <ele>740.8</ele>
        <time>2026-07-08T08:39:05.000Z</time>
      </trkpt>
      <trkpt lat="45.8077" lon="1.84764">
        <ele>740.6</ele>
        <time>2026-07-08T08:39:06.000Z</time>
      </trkpt>
      <trkpt lat="45.8077" lon="1.84764">
        <ele>740.6</ele>
        <time>2026-07-08T08:39:07.000Z</time>
      </trkpt>
      <trkpt lat="45.8077" lon="1.84764">
        <ele>740.6</ele>
        <time>2026-07-08T08:39:08.000Z</time>
      </trkpt>
      <trkpt lat="45.8077" lon="1.84764">
        <ele>740.6</ele>
        <time>2026-07-08T08:39:09.000Z</time>
      </trkpt>
      <trkpt lat="45.8077" lon="1.84764">
        <ele>740.6</ele>
        <time>2026-07-08T08:39:10.000Z</time>
      </trkpt>
      <trkpt lat="45.8077" lon="1.84764">
        <ele>740.6</ele>
        <time>2026-07-08T08:39:11.000Z</time>
      </trkpt>
      <trkpt lat="45.8077" lon="1.84764">
        <ele>740.6</ele>
        <time>2026-07-08T08:39:12.000Z</time>
      </trkpt>
      <trkpt lat="45.8077" lon="1.84764">
        <ele>740.6</ele>
        <time>2026-07-08T08:39:13.000Z</time>
      </trkpt>
      <trkpt lat="45.8077" lon="1.84764">
        <ele>740.6</ele>
        <time>2026-07-08T08:39:14.000Z</time>
      </trkpt>
      <trkpt lat="45.8077" lon="1.84764">
        <ele>740.6</ele>
        <time>2026-07-08T08:39:15.000Z</time>
      </trkpt>
      <trkpt lat="45.8077" lon="1.84764">
        <ele>740.7</ele>
        <time>2026-07-08T08:39:16.000Z</time>
      </trkpt>
      <trkpt lat="45.8077" lon="1.84764">
        <ele>740.1</ele>
        <time>2026-07-08T08:39:17.000Z</time>
      </trkpt>
      <trkpt lat="45.80769" lon="1.84764">
        <ele>740.8</ele>
        <time>2026-07-08T08:39:18.000Z</time>
      </trkpt>
      <trkpt lat="45.80767" lon="1.84763">
        <ele>740.5</ele>
        <time>2026-07-08T08:39:19.000Z</time>
      </trkpt>
      <trkpt lat="45.80766" lon="1.84763">
        <ele>740.6</ele>
        <time>2026-07-08T08:39:20.000Z</time>
      </trkpt>
      <trkpt lat="45.80765" lon="1.84763">
        <ele>740.4</ele>
        <time>2026-07-08T08:39:21.000Z</time>
      </trkpt>
      <trkpt lat="45.80763" lon="1.84762">
        <ele>740.3</ele>
        <time>2026-07-08T08:39:22.000Z</time>
      </trkpt>
      <trkpt lat="45.80762" lon="1.84762">
        <ele>740.7</ele>
        <time>2026-07-08T08:39:23.000Z</time>
      </trkpt>
      <trkpt lat="45.80761" lon="1.84762">
        <ele>737.5</ele>
        <time>2026-07-08T08:39:24.000Z</time>
      </trkpt>
      <trkpt lat="45.8076" lon="1.84763">
        <ele>736.8</ele>
        <time>2026-07-08T08:39:25.000Z</time>
      </trkpt>
      <trkpt lat="45.80759" lon="1.84763">
        <ele>735.5</ele>
        <time>2026-07-08T08:39:26.000Z</time>
      </trkpt>
      <trkpt lat="45.80758" lon="1.84764">
        <ele>735.5</ele>
        <time>2026-07-08T08:39:27.000Z</time>
      </trkpt>
      <trkpt lat="45.80757" lon="1.84765">
        <ele>733.4</ele>
        <time>2026-07-08T08:39:28.000Z</time>
      </trkpt>
      <trkpt lat="45.80755" lon="1.84764">
        <ele>731.8</ele>
        <time>2026-07-08T08:39:29.000Z</time>
      </trkpt>
      <trkpt lat="45.80754" lon="1.84762">
        <ele>730.5</ele>
        <time>2026-07-08T08:39:30.000Z</time>
      </trkpt>
      <trkpt lat="45.80754" lon="1.84761">
        <ele>730.9</ele>
        <time>2026-07-08T08:39:31.000Z</time>
      </trkpt>
      <trkpt lat="45.80754" lon="1.84761">
        <ele>731.3</ele>
        <time>2026-07-08T08:39:32.000Z</time>
      </trkpt>
      <trkpt lat="45.80754" lon="1.8476">
        <ele>732.4</ele>
        <time>2026-07-08T08:39:33.000Z</time>
      </trkpt>
      <trkpt lat="45.80754" lon="1.84758">
        <ele>732.3</ele>
        <time>2026-07-08T08:39:34.000Z</time>
      </trkpt>
      <trkpt lat="45.80753" lon="1.84756">
        <ele>732.4</ele>
        <time>2026-07-08T08:39:35.000Z</time>
      </trkpt>
      <trkpt lat="45.80752" lon="1.84755">
        <ele>732.6</ele>
        <time>2026-07-08T08:39:36.000Z</time>
      </trkpt>
      <trkpt lat="45.80751" lon="1.84753">
        <ele>733</ele>
        <time>2026-07-08T08:39:37.000Z</time>
      </trkpt>
      <trkpt lat="45.80749" lon="1.8475">
        <ele>732.9</ele>
        <time>2026-07-08T08:39:38.000Z</time>
      </trkpt>
      <trkpt lat="45.80748" lon="1.84747">
        <ele>732.8</ele>
        <time>2026-07-08T08:39:39.000Z</time>
      </trkpt>
      <trkpt lat="45.80747" lon="1.84743">
        <ele>732.8</ele>
        <time>2026-07-08T08:39:40.000Z</time>
      </trkpt>
      <trkpt lat="45.80747" lon="1.84742">
        <ele>732.8</ele>
        <time>2026-07-08T08:39:41.000Z</time>
      </trkpt>
      <trkpt lat="45.80746" lon="1.84741">
        <ele>732</ele>
        <time>2026-07-08T08:39:42.000Z</time>
      </trkpt>
      <trkpt lat="45.80746" lon="1.8474">
        <ele>731</ele>
        <time>2026-07-08T08:39:43.000Z</time>
      </trkpt>
      <trkpt lat="45.80745" lon="1.8474">
        <ele>731.5</ele>
        <time>2026-07-08T08:39:44.000Z</time>
      </trkpt>
      <trkpt lat="45.80745" lon="1.84739">
        <ele>732.1</ele>
        <time>2026-07-08T08:39:45.000Z</time>
      </trkpt>
      <trkpt lat="45.80744" lon="1.84738">
        <ele>733.2</ele>
        <time>2026-07-08T08:39:46.000Z</time>
      </trkpt>
      <trkpt lat="45.80743" lon="1.84737">
        <ele>732.9</ele>
        <time>2026-07-08T08:39:47.000Z</time>
      </trkpt>
      <trkpt lat="45.80742" lon="1.84735">
        <ele>733.2</ele>
        <time>2026-07-08T08:39:48.000Z</time>
      </trkpt>
      <trkpt lat="45.80741" lon="1.84734">
        <ele>732.9</ele>
        <time>2026-07-08T08:39:49.000Z</time>
      </trkpt>
      <trkpt lat="45.80741" lon="1.84732">
        <ele>732.9</ele>
        <time>2026-07-08T08:39:50.000Z</time>
      </trkpt>
      <trkpt lat="45.8074" lon="1.8473">
        <ele>733</ele>
        <time>2026-07-08T08:39:51.000Z</time>
      </trkpt>
      <trkpt lat="45.80739" lon="1.84728">
        <ele>731.7</ele>
        <time>2026-07-08T08:39:52.000Z</time>
      </trkpt>
      <trkpt lat="45.80739" lon="1.84727">
        <ele>731.2</ele>
        <time>2026-07-08T08:39:53.000Z</time>
      </trkpt>
      <trkpt lat="45.80739" lon="1.84725">
        <ele>730.6</ele>
        <time>2026-07-08T08:39:54.000Z</time>
      </trkpt>
      <trkpt lat="45.80739" lon="1.84723">
        <ele>730.8</ele>
        <time>2026-07-08T08:39:55.000Z</time>
      </trkpt>
      <trkpt lat="45.80739" lon="1.84721">
        <ele>730.5</ele>
        <time>2026-07-08T08:39:56.000Z</time>
      </trkpt>
      <trkpt lat="45.80738" lon="1.84719">
        <ele>730.3</ele>
        <time>2026-07-08T08:39:57.000Z</time>
      </trkpt>
      <trkpt lat="45.80738" lon="1.84718">
        <ele>730.7</ele>
        <time>2026-07-08T08:39:58.000Z</time>
      </trkpt>
      <trkpt lat="45.80736" lon="1.84717">
        <ele>731.6</ele>
        <time>2026-07-08T08:39:59.000Z</time>
      </trkpt>
      <trkpt lat="45.80734" lon="1.84716">
        <ele>732.2</ele>
        <time>2026-07-08T08:40:00.000Z</time>
      </trkpt>
      <trkpt lat="45.80733" lon="1.84716">
        <ele>732.8</ele>
        <time>2026-07-08T08:40:01.000Z</time>
      </trkpt>
      <trkpt lat="45.80732" lon="1.84716">
        <ele>732.5</ele>
        <time>2026-07-08T08:40:02.000Z</time>
      </trkpt>
      <trkpt lat="45.80731" lon="1.84715">
        <ele>732.4</ele>
        <time>2026-07-08T08:40:03.000Z</time>
      </trkpt>
      <trkpt lat="45.80731" lon="1.84713">
        <ele>732.5</ele>
        <time>2026-07-08T08:40:04.000Z</time>
      </trkpt>
      <trkpt lat="45.80731" lon="1.84711">
        <ele>732.6</ele>
        <time>2026-07-08T08:40:05.000Z</time>
      </trkpt>
      <trkpt lat="45.8073" lon="1.84709">
        <ele>733</ele>
        <time>2026-07-08T08:40:06.000Z</time>
      </trkpt>
      <trkpt lat="45.8073" lon="1.84707">
        <ele>732.9</ele>
        <time>2026-07-08T08:40:07.000Z</time>
      </trkpt>
      <trkpt lat="45.80729" lon="1.84705">
        <ele>733.1</ele>
        <time>2026-07-08T08:40:08.000Z</time>
      </trkpt>
      <trkpt lat="45.80729" lon="1.84703">
        <ele>732.9</ele>
        <time>2026-07-08T08:40:09.000Z</time>
      </trkpt>
      <trkpt lat="45.80729" lon="1.84701">
        <ele>732.7</ele>
        <time>2026-07-08T08:40:10.000Z</time>
      </trkpt>
      <trkpt lat="45.80729" lon="1.84699">
        <ele>732.4</ele>
        <time>2026-07-08T08:40:11.000Z</time>
      </trkpt>
      <trkpt lat="45.80729" lon="1.84697">
        <ele>732.4</ele>
        <time>2026-07-08T08:40:12.000Z</time>
      </trkpt>
      <trkpt lat="45.80728" lon="1.84694">
        <ele>732.3</ele>
        <time>2026-07-08T08:40:13.000Z</time>
      </trkpt>
      <trkpt lat="45.80726" lon="1.84694">
        <ele>731.1</ele>
        <time>2026-07-08T08:40:14.000Z</time>
      </trkpt>
      <trkpt lat="45.80725" lon="1.84693">
        <ele>731</ele>
        <time>2026-07-08T08:40:15.000Z</time>
      </trkpt>
      <trkpt lat="45.80726" lon="1.84689">
        <ele>731.1</ele>
        <time>2026-07-08T08:40:16.000Z</time>
      </trkpt>
      <trkpt lat="45.80727" lon="1.84687">
        <ele>730.9</ele>
        <time>2026-07-08T08:40:17.000Z</time>
      </trkpt>
      <trkpt lat="45.80727" lon="1.84684">
        <ele>731</ele>
        <time>2026-07-08T08:40:18.000Z</time>
      </trkpt>
      <trkpt lat="45.80726" lon="1.84682">
        <ele>730.7</ele>
        <time>2026-07-08T08:40:19.000Z</time>
      </trkpt>
      <trkpt lat="45.80726" lon="1.8468">
        <ele>730.6</ele>
        <time>2026-07-08T08:40:20.000Z</time>
      </trkpt>
      <trkpt lat="45.80725" lon="1.84678">
        <ele>729.8</ele>
        <time>2026-07-08T08:40:21.000Z</time>
      </trkpt>
      <trkpt lat="45.80724" lon="1.84676">
        <ele>729.3</ele>
        <time>2026-07-08T08:40:22.000Z</time>
      </trkpt>
      <trkpt lat="45.80724" lon="1.84673">
        <ele>729</ele>
        <time>2026-07-08T08:40:23.000Z</time>
      </trkpt>
      <trkpt lat="45.80724" lon="1.84671">
        <ele>728.8</ele>
        <time>2026-07-08T08:40:24.000Z</time>
      </trkpt>
      <trkpt lat="45.80723" lon="1.84669">
        <ele>729.2</ele>
        <time>2026-07-08T08:40:25.000Z</time>
      </trkpt>
      <trkpt lat="45.80723" lon="1.84667">
        <ele>729.3</ele>
        <time>2026-07-08T08:40:26.000Z</time>
      </trkpt>
      <trkpt lat="45.80722" lon="1.84665">
        <ele>729</ele>
        <time>2026-07-08T08:40:27.000Z</time>
      </trkpt>
      <trkpt lat="45.80722" lon="1.84662">
        <ele>729.5</ele>
        <time>2026-07-08T08:40:28.000Z</time>
      </trkpt>
      <trkpt lat="45.80721" lon="1.8466">
        <ele>729.7</ele>
        <time>2026-07-08T08:40:29.000Z</time>
      </trkpt>
      <trkpt lat="45.80722" lon="1.84657">
        <ele>729</ele>
        <time>2026-07-08T08:40:30.000Z</time>
      </trkpt>
      <trkpt lat="45.80722" lon="1.84654">
        <ele>728.8</ele>
        <time>2026-07-08T08:40:31.000Z</time>
      </trkpt>
      <trkpt lat="45.80722" lon="1.84651">
        <ele>728.5</ele>
        <time>2026-07-08T08:40:32.000Z</time>
      </trkpt>
      <trkpt lat="45.80722" lon="1.84648">
        <ele>728.4</ele>
        <time>2026-07-08T08:40:33.000Z</time>
      </trkpt>
      <trkpt lat="45.80721" lon="1.84646">
        <ele>728.6</ele>
        <time>2026-07-08T08:40:34.000Z</time>
      </trkpt>
      <trkpt lat="45.8072" lon="1.84645">
        <ele>728.2</ele>
        <time>2026-07-08T08:40:35.000Z</time>
      </trkpt>
      <trkpt lat="45.8072" lon="1.84642">
        <ele>727.9</ele>
        <time>2026-07-08T08:40:36.000Z</time>
      </trkpt>
      <trkpt lat="45.8072" lon="1.8464">
        <ele>727.7</ele>
        <time>2026-07-08T08:40:37.000Z</time>
      </trkpt>
      <trkpt lat="45.8072" lon="1.84638">
        <ele>727.8</ele>
        <time>2026-07-08T08:40:38.000Z</time>
      </trkpt>
      <trkpt lat="45.80719" lon="1.84636">
        <ele>728.7</ele>
        <time>2026-07-08T08:40:39.000Z</time>
      </trkpt>
      <trkpt lat="45.80719" lon="1.84633">
        <ele>728.5</ele>
        <time>2026-07-08T08:40:40.000Z</time>
      </trkpt>
      <trkpt lat="45.8072" lon="1.8463">
        <ele>728.1</ele>
        <time>2026-07-08T08:40:41.000Z</time>
      </trkpt>
      <trkpt lat="45.80721" lon="1.84628">
        <ele>727.7</ele>
        <time>2026-07-08T08:40:42.000Z</time>
      </trkpt>
      <trkpt lat="45.80722" lon="1.84625">
        <ele>727.3</ele>
        <time>2026-07-08T08:40:43.000Z</time>
      </trkpt>
      <trkpt lat="45.80722" lon="1.84623">
        <ele>727.2</ele>
        <time>2026-07-08T08:40:44.000Z</time>
      </trkpt>
      <trkpt lat="45.80722" lon="1.84621">
        <ele>726.8</ele>
        <time>2026-07-08T08:40:45.000Z</time>
      </trkpt>
      <trkpt lat="45.80723" lon="1.84618">
        <ele>726.7</ele>
        <time>2026-07-08T08:40:46.000Z</time>
      </trkpt>
      <trkpt lat="45.80723" lon="1.84616">
        <ele>726.3</ele>
        <time>2026-07-08T08:40:47.000Z</time>
      </trkpt>
      <trkpt lat="45.80724" lon="1.84613">
        <ele>726.2</ele>
        <time>2026-07-08T08:40:48.000Z</time>
      </trkpt>
      <trkpt lat="45.80724" lon="1.84611">
        <ele>726.1</ele>
        <time>2026-07-08T08:40:49.000Z</time>
      </trkpt>
      <trkpt lat="45.80724" lon="1.84608">
        <ele>726</ele>
        <time>2026-07-08T08:40:50.000Z</time>
      </trkpt>
      <trkpt lat="45.80724" lon="1.84606">
        <ele>726.1</ele>
        <time>2026-07-08T08:40:51.000Z</time>
      </trkpt>
      <trkpt lat="45.80724" lon="1.84604">
        <ele>726.4</ele>
        <time>2026-07-08T08:40:52.000Z</time>
      </trkpt>
      <trkpt lat="45.80724" lon="1.84601">
        <ele>726.8</ele>
        <time>2026-07-08T08:40:53.000Z</time>
      </trkpt>
      <trkpt lat="45.80725" lon="1.84599">
        <ele>726.4</ele>
        <time>2026-07-08T08:40:54.000Z</time>
      </trkpt>
      <trkpt lat="45.80725" lon="1.84596">
        <ele>726.3</ele>
        <time>2026-07-08T08:40:55.000Z</time>
      </trkpt>
      <trkpt lat="45.80725" lon="1.84594">
        <ele>726.2</ele>
        <time>2026-07-08T08:40:56.000Z</time>
      </trkpt>
      <trkpt lat="45.80725" lon="1.84591">
        <ele>726.3</ele>
        <time>2026-07-08T08:40:57.000Z</time>
      </trkpt>
      <trkpt lat="45.80726" lon="1.84588">
        <ele>725.8</ele>
        <time>2026-07-08T08:40:58.000Z</time>
      </trkpt>
      <trkpt lat="45.80725" lon="1.84586">
        <ele>725.6</ele>
        <time>2026-07-08T08:40:59.000Z</time>
      </trkpt>
      <trkpt lat="45.80725" lon="1.84583">
        <ele>725.6</ele>
        <time>2026-07-08T08:41:00.000Z</time>
      </trkpt>
      <trkpt lat="45.80725" lon="1.8458">
        <ele>725.6</ele>
        <time>2026-07-08T08:41:01.000Z</time>
      </trkpt>
      <trkpt lat="45.80725" lon="1.84578">
        <ele>725.6</ele>
        <time>2026-07-08T08:41:02.000Z</time>
      </trkpt>
      <trkpt lat="45.80726" lon="1.84576">
        <ele>725.6</ele>
        <time>2026-07-08T08:41:03.000Z</time>
      </trkpt>
      <trkpt lat="45.80726" lon="1.84574">
        <ele>725.3</ele>
        <time>2026-07-08T08:41:04.000Z</time>
      </trkpt>
      <trkpt lat="45.80726" lon="1.84571">
        <ele>725.5</ele>
        <time>2026-07-08T08:41:05.000Z</time>
      </trkpt>
      <trkpt lat="45.80726" lon="1.84569">
        <ele>725.3</ele>
        <time>2026-07-08T08:41:06.000Z</time>
      </trkpt>
      <trkpt lat="45.80726" lon="1.84567">
        <ele>724.7</ele>
        <time>2026-07-08T08:41:07.000Z</time>
      </trkpt>
      <trkpt lat="45.80728" lon="1.84565">
        <ele>724.5</ele>
        <time>2026-07-08T08:41:08.000Z</time>
      </trkpt>
      <trkpt lat="45.80727" lon="1.84563">
        <ele>724.1</ele>
        <time>2026-07-08T08:41:09.000Z</time>
      </trkpt>
      <trkpt lat="45.80727" lon="1.8456">
        <ele>723.6</ele>
        <time>2026-07-08T08:41:10.000Z</time>
      </trkpt>
      <trkpt lat="45.80727" lon="1.84558">
        <ele>723</ele>
        <time>2026-07-08T08:41:11.000Z</time>
      </trkpt>
      <trkpt lat="45.80727" lon="1.84556">
        <ele>722.5</ele>
        <time>2026-07-08T08:41:12.000Z</time>
      </trkpt>
      <trkpt lat="45.80726" lon="1.84554">
        <ele>722.2</ele>
        <time>2026-07-08T08:41:13.000Z</time>
      </trkpt>
      <trkpt lat="45.80726" lon="1.84551">
        <ele>722.1</ele>
        <time>2026-07-08T08:41:14.000Z</time>
      </trkpt>
      <trkpt lat="45.80726" lon="1.84549">
        <ele>721.9</ele>
        <time>2026-07-08T08:41:15.000Z</time>
      </trkpt>
      <trkpt lat="45.80726" lon="1.84547">
        <ele>721.9</ele>
        <time>2026-07-08T08:41:16.000Z</time>
      </trkpt>
      <trkpt lat="45.80726" lon="1.84544">
        <ele>721.5</ele>
        <time>2026-07-08T08:41:17.000Z</time>
      </trkpt>
      <trkpt lat="45.80726" lon="1.84542">
        <ele>721.3</ele>
        <time>2026-07-08T08:41:18.000Z</time>
      </trkpt>
      <trkpt lat="45.80727" lon="1.8454">
        <ele>721.2</ele>
        <time>2026-07-08T08:41:19.000Z</time>
      </trkpt>
      <trkpt lat="45.80727" lon="1.84537">
        <ele>720.9</ele>
        <time>2026-07-08T08:41:20.000Z</time>
      </trkpt>
      <trkpt lat="45.80727" lon="1.84535">
        <ele>720.6</ele>
        <time>2026-07-08T08:41:21.000Z</time>
      </trkpt>
      <trkpt lat="45.80727" lon="1.84533">
        <ele>720.5</ele>
        <time>2026-07-08T08:41:22.000Z</time>
      </trkpt>
      <trkpt lat="45.80727" lon="1.84531">
        <ele>720.3</ele>
        <time>2026-07-08T08:41:23.000Z</time>
      </trkpt>
      <trkpt lat="45.80727" lon="1.84528">
        <ele>719.7</ele>
        <time>2026-07-08T08:41:24.000Z</time>
      </trkpt>
      <trkpt lat="45.80728" lon="1.84526">
        <ele>719.4</ele>
        <time>2026-07-08T08:41:25.000Z</time>
      </trkpt>
      <trkpt lat="45.80728" lon="1.84523">
        <ele>719.3</ele>
        <time>2026-07-08T08:41:26.000Z</time>
      </trkpt>
      <trkpt lat="45.80728" lon="1.84521">
        <ele>718.7</ele>
        <time>2026-07-08T08:41:27.000Z</time>
      </trkpt>
      <trkpt lat="45.80731" lon="1.84519">
        <ele>718.1</ele>
        <time>2026-07-08T08:41:28.000Z</time>
      </trkpt>
      <trkpt lat="45.80732" lon="1.84516">
        <ele>718.1</ele>
        <time>2026-07-08T08:41:29.000Z</time>
      </trkpt>
      <trkpt lat="45.80734" lon="1.84514">
        <ele>718</ele>
        <time>2026-07-08T08:41:30.000Z</time>
      </trkpt>
      <trkpt lat="45.80734" lon="1.84512">
        <ele>717.2</ele>
        <time>2026-07-08T08:41:31.000Z</time>
      </trkpt>
      <trkpt lat="45.80734" lon="1.84509">
        <ele>716.4</ele>
        <time>2026-07-08T08:41:32.000Z</time>
      </trkpt>
      <trkpt lat="45.80733" lon="1.84507">
        <ele>716.5</ele>
        <time>2026-07-08T08:41:33.000Z</time>
      </trkpt>
      <trkpt lat="45.80733" lon="1.84504">
        <ele>716.6</ele>
        <time>2026-07-08T08:41:34.000Z</time>
      </trkpt>
      <trkpt lat="45.80733" lon="1.84501">
        <ele>716.7</ele>
        <time>2026-07-08T08:41:35.000Z</time>
      </trkpt>
      <trkpt lat="45.80732" lon="1.84499">
        <ele>716.7</ele>
        <time>2026-07-08T08:41:36.000Z</time>
      </trkpt>
      <trkpt lat="45.80732" lon="1.84496">
        <ele>716.7</ele>
        <time>2026-07-08T08:41:37.000Z</time>
      </trkpt>
      <trkpt lat="45.80731" lon="1.84493">
        <ele>716.5</ele>
        <time>2026-07-08T08:41:38.000Z</time>
      </trkpt>
      <trkpt lat="45.8073" lon="1.84491">
        <ele>716.4</ele>
        <time>2026-07-08T08:41:39.000Z</time>
      </trkpt>
      <trkpt lat="45.8073" lon="1.84488">
        <ele>716.4</ele>
        <time>2026-07-08T08:41:40.000Z</time>
      </trkpt>
      <trkpt lat="45.80729" lon="1.84486">
        <ele>716.5</ele>
        <time>2026-07-08T08:41:41.000Z</time>
      </trkpt>
      <trkpt lat="45.80729" lon="1.84483">
        <ele>716.6</ele>
        <time>2026-07-08T08:41:42.000Z</time>
      </trkpt>
      <trkpt lat="45.80728" lon="1.8448">
        <ele>716.7</ele>
        <time>2026-07-08T08:41:43.000Z</time>
      </trkpt>
      <trkpt lat="45.80727" lon="1.84478">
        <ele>716.7</ele>
        <time>2026-07-08T08:41:44.000Z</time>
      </trkpt>
      <trkpt lat="45.80726" lon="1.84475">
        <ele>716.7</ele>
        <time>2026-07-08T08:41:45.000Z</time>
      </trkpt>
      <trkpt lat="45.80726" lon="1.84472">
        <ele>716.8</ele>
        <time>2026-07-08T08:41:46.000Z</time>
      </trkpt>
      <trkpt lat="45.80725" lon="1.84471">
        <ele>716.6</ele>
        <time>2026-07-08T08:41:47.000Z</time>
      </trkpt>
      <trkpt lat="45.80723" lon="1.84469">
        <ele>716.6</ele>
        <time>2026-07-08T08:41:48.000Z</time>
      </trkpt>
      <trkpt lat="45.8072" lon="1.84471">
        <ele>716.5</ele>
        <time>2026-07-08T08:41:49.000Z</time>
      </trkpt>
      <trkpt lat="45.80719" lon="1.84474">
        <ele>715.6</ele>
        <time>2026-07-08T08:41:50.000Z</time>
      </trkpt>
      <trkpt lat="45.80719" lon="1.84475">
        <ele>715.3</ele>
        <time>2026-07-08T08:41:51.000Z</time>
      </trkpt>
      <trkpt lat="45.80717" lon="1.84478">
        <ele>714.7</ele>
        <time>2026-07-08T08:41:52.000Z</time>
      </trkpt>
      <trkpt lat="45.80717" lon="1.84479">
        <ele>712.9</ele>
        <time>2026-07-08T08:41:53.000Z</time>
      </trkpt>
      <trkpt lat="45.80716" lon="1.84478">
        <ele>712.5</ele>
        <time>2026-07-08T08:41:54.000Z</time>
      </trkpt>
      <trkpt lat="45.80715" lon="1.84476">
        <ele>712.2</ele>
        <time>2026-07-08T08:41:55.000Z</time>
      </trkpt>
      <trkpt lat="45.80713" lon="1.84475">
        <ele>712</ele>
        <time>2026-07-08T08:41:56.000Z</time>
      </trkpt>
      <trkpt lat="45.80712" lon="1.84475">
        <ele>711.8</ele>
        <time>2026-07-08T08:41:57.000Z</time>
      </trkpt>
      <trkpt lat="45.80711" lon="1.84476">
        <ele>711.7</ele>
        <time>2026-07-08T08:41:58.000Z</time>
      </trkpt>
      <trkpt lat="45.8071" lon="1.84477">
        <ele>711.7</ele>
        <time>2026-07-08T08:41:59.000Z</time>
      </trkpt>
      <trkpt lat="45.8071" lon="1.84478">
        <ele>711.7</ele>
        <time>2026-07-08T08:42:00.000Z</time>
      </trkpt>
      <trkpt lat="45.80709" lon="1.84479">
        <ele>711.8</ele>
        <time>2026-07-08T08:42:01.000Z</time>
      </trkpt>
      <trkpt lat="45.80708" lon="1.8448">
        <ele>711.9</ele>
        <time>2026-07-08T08:42:02.000Z</time>
      </trkpt>
      <trkpt lat="45.80707" lon="1.84481">
        <ele>711.8</ele>
        <time>2026-07-08T08:42:03.000Z</time>
      </trkpt>
      <trkpt lat="45.80705" lon="1.84482">
        <ele>711.8</ele>
        <time>2026-07-08T08:42:04.000Z</time>
      </trkpt>
      <trkpt lat="45.80704" lon="1.84477">
        <ele>716.1</ele>
        <time>2026-07-08T08:42:05.000Z</time>
      </trkpt>
      <trkpt lat="45.80703" lon="1.8448">
        <ele>715.6</ele>
        <time>2026-07-08T08:42:06.000Z</time>
      </trkpt>
      <trkpt lat="45.80704" lon="1.84479">
        <ele>715.9</ele>
        <time>2026-07-08T08:42:07.000Z</time>
      </trkpt>
      <trkpt lat="45.80703" lon="1.84479">
        <ele>715.9</ele>
        <time>2026-07-08T08:42:08.000Z</time>
      </trkpt>
      <trkpt lat="45.80703" lon="1.84479">
        <ele>716</ele>
        <time>2026-07-08T08:42:09.000Z</time>
      </trkpt>
      <trkpt lat="45.80703" lon="1.84479">
        <ele>716.1</ele>
        <time>2026-07-08T08:42:10.000Z</time>
      </trkpt>
      <trkpt lat="45.80701" lon="1.84483">
        <ele>716.3</ele>
        <time>2026-07-08T08:42:11.000Z</time>
      </trkpt>
      <trkpt lat="45.807" lon="1.84485">
        <ele>717.3</ele>
        <time>2026-07-08T08:42:12.000Z</time>
      </trkpt>
      <trkpt lat="45.80698" lon="1.84487">
        <ele>717.7</ele>
        <time>2026-07-08T08:42:13.000Z</time>
      </trkpt>
      <trkpt lat="45.80697" lon="1.84489">
        <ele>718.8</ele>
        <time>2026-07-08T08:42:14.000Z</time>
      </trkpt>
      <trkpt lat="45.80696" lon="1.84492">
        <ele>718.9</ele>
        <time>2026-07-08T08:42:15.000Z</time>
      </trkpt>
      <trkpt lat="45.80695" lon="1.84494">
        <ele>719.8</ele>
        <time>2026-07-08T08:42:16.000Z</time>
      </trkpt>
      <trkpt lat="45.80694" lon="1.84496">
        <ele>720.1</ele>
        <time>2026-07-08T08:42:17.000Z</time>
      </trkpt>
      <trkpt lat="45.80693" lon="1.84498">
        <ele>720.4</ele>
        <time>2026-07-08T08:42:18.000Z</time>
      </trkpt>
      <trkpt lat="45.80692" lon="1.845">
        <ele>720.1</ele>
        <time>2026-07-08T08:42:19.000Z</time>
      </trkpt>
      <trkpt lat="45.80691" lon="1.84502">
        <ele>719.2</ele>
        <time>2026-07-08T08:42:20.000Z</time>
      </trkpt>
      <trkpt lat="45.8069" lon="1.84504">
        <ele>718</ele>
        <time>2026-07-08T08:42:21.000Z</time>
      </trkpt>
      <trkpt lat="45.80689" lon="1.84506">
        <ele>718.1</ele>
        <time>2026-07-08T08:42:22.000Z</time>
      </trkpt>
      <trkpt lat="45.80688" lon="1.84507">
        <ele>717.7</ele>
        <time>2026-07-08T08:42:23.000Z</time>
      </trkpt>
      <trkpt lat="45.80686" lon="1.84509">
        <ele>716.2</ele>
        <time>2026-07-08T08:42:24.000Z</time>
      </trkpt>
      <trkpt lat="45.80686" lon="1.84512">
        <ele>716.3</ele>
        <time>2026-07-08T08:42:25.000Z</time>
      </trkpt>
      <trkpt lat="45.80685" lon="1.84513">
        <ele>716.4</ele>
        <time>2026-07-08T08:42:26.000Z</time>
      </trkpt>
      <trkpt lat="45.80684" lon="1.84515">
        <ele>716.2</ele>
        <time>2026-07-08T08:42:27.000Z</time>
      </trkpt>
      <trkpt lat="45.80683" lon="1.84517">
        <ele>715.6</ele>
        <time>2026-07-08T08:42:28.000Z</time>
      </trkpt>
      <trkpt lat="45.80682" lon="1.84519">
        <ele>715.2</ele>
        <time>2026-07-08T08:42:29.000Z</time>
      </trkpt>
      <trkpt lat="45.80681" lon="1.8452">
        <ele>714.7</ele>
        <time>2026-07-08T08:42:30.000Z</time>
      </trkpt>
      <trkpt lat="45.8068" lon="1.84523">
        <ele>714.6</ele>
        <time>2026-07-08T08:42:31.000Z</time>
      </trkpt>
      <trkpt lat="45.8068" lon="1.84525">
        <ele>713.4</ele>
        <time>2026-07-08T08:42:32.000Z</time>
      </trkpt>
      <trkpt lat="45.80679" lon="1.84527">
        <ele>713.4</ele>
        <time>2026-07-08T08:42:33.000Z</time>
      </trkpt>
      <trkpt lat="45.80679" lon="1.84529">
        <ele>712.6</ele>
        <time>2026-07-08T08:42:34.000Z</time>
      </trkpt>
      <trkpt lat="45.80678" lon="1.84531">
        <ele>712.3</ele>
        <time>2026-07-08T08:42:35.000Z</time>
      </trkpt>
      <trkpt lat="45.80677" lon="1.84533">
        <ele>712</ele>
        <time>2026-07-08T08:42:36.000Z</time>
      </trkpt>
      <trkpt lat="45.80676" lon="1.84535">
        <ele>711.8</ele>
        <time>2026-07-08T08:42:37.000Z</time>
      </trkpt>
      <trkpt lat="45.80675" lon="1.84537">
        <ele>711.4</ele>
        <time>2026-07-08T08:42:38.000Z</time>
      </trkpt>
      <trkpt lat="45.80674" lon="1.84539">
        <ele>711.4</ele>
        <time>2026-07-08T08:42:39.000Z</time>
      </trkpt>
      <trkpt lat="45.80673" lon="1.8454">
        <ele>710.5</ele>
        <time>2026-07-08T08:42:40.000Z</time>
      </trkpt>
      <trkpt lat="45.80671" lon="1.84541">
        <ele>710.6</ele>
        <time>2026-07-08T08:42:41.000Z</time>
      </trkpt>
      <trkpt lat="45.8067" lon="1.8454">
        <ele>710.4</ele>
        <time>2026-07-08T08:42:42.000Z</time>
      </trkpt>
      <trkpt lat="45.80668" lon="1.84539">
        <ele>710.1</ele>
        <time>2026-07-08T08:42:43.000Z</time>
      </trkpt>
      <trkpt lat="45.80667" lon="1.84538">
        <ele>710.2</ele>
        <time>2026-07-08T08:42:44.000Z</time>
      </trkpt>
      <trkpt lat="45.80666" lon="1.84538">
        <ele>709.1</ele>
        <time>2026-07-08T08:42:45.000Z</time>
      </trkpt>
      <trkpt lat="45.80664" lon="1.84538">
        <ele>708.5</ele>
        <time>2026-07-08T08:42:46.000Z</time>
      </trkpt>
      <trkpt lat="45.80663" lon="1.84537">
        <ele>707.8</ele>
        <time>2026-07-08T08:42:47.000Z</time>
      </trkpt>
      <trkpt lat="45.80662" lon="1.84537">
        <ele>706.6</ele>
        <time>2026-07-08T08:42:48.000Z</time>
      </trkpt>
      <trkpt lat="45.8066" lon="1.84536">
        <ele>706</ele>
        <time>2026-07-08T08:42:49.000Z</time>
      </trkpt>
      <trkpt lat="45.80659" lon="1.84535">
        <ele>705.7</ele>
        <time>2026-07-08T08:42:50.000Z</time>
      </trkpt>
      <trkpt lat="45.80658" lon="1.84533">
        <ele>706</ele>
        <time>2026-07-08T08:42:51.000Z</time>
      </trkpt>
      <trkpt lat="45.80658" lon="1.84531">
        <ele>706.6</ele>
        <time>2026-07-08T08:42:52.000Z</time>
      </trkpt>
      <trkpt lat="45.80657" lon="1.8453">
        <ele>705.1</ele>
        <time>2026-07-08T08:42:53.000Z</time>
      </trkpt>
      <trkpt lat="45.80657" lon="1.84528">
        <ele>705.5</ele>
        <time>2026-07-08T08:42:54.000Z</time>
      </trkpt>
      <trkpt lat="45.80657" lon="1.84526">
        <ele>705.5</ele>
        <time>2026-07-08T08:42:55.000Z</time>
      </trkpt>
      <trkpt lat="45.80657" lon="1.84525">
        <ele>705.8</ele>
        <time>2026-07-08T08:42:56.000Z</time>
      </trkpt>
      <trkpt lat="45.80657" lon="1.84523">
        <ele>706.5</ele>
        <time>2026-07-08T08:42:57.000Z</time>
      </trkpt>
      <trkpt lat="45.80657" lon="1.84521">
        <ele>707.4</ele>
        <time>2026-07-08T08:42:58.000Z</time>
      </trkpt>
      <trkpt lat="45.80657" lon="1.84519">
        <ele>708</ele>
        <time>2026-07-08T08:42:59.000Z</time>
      </trkpt>
      <trkpt lat="45.80658" lon="1.84519">
        <ele>708.3</ele>
        <time>2026-07-08T08:43:00.000Z</time>
      </trkpt>
      <trkpt lat="45.80657" lon="1.84517">
        <ele>708.6</ele>
        <time>2026-07-08T08:43:01.000Z</time>
      </trkpt>
      <trkpt lat="45.80655" lon="1.84516">
        <ele>709</ele>
        <time>2026-07-08T08:43:02.000Z</time>
      </trkpt>
      <trkpt lat="45.80654" lon="1.84517">
        <ele>708.3</ele>
        <time>2026-07-08T08:43:03.000Z</time>
      </trkpt>
      <trkpt lat="45.80655" lon="1.84519">
        <ele>706.6</ele>
        <time>2026-07-08T08:43:04.000Z</time>
      </trkpt>
      <trkpt lat="45.80656" lon="1.84519">
        <ele>706.6</ele>
        <time>2026-07-08T08:43:05.000Z</time>
      </trkpt>
      <trkpt lat="45.80656" lon="1.84519">
        <ele>706.6</ele>
        <time>2026-07-08T08:43:06.000Z</time>
      </trkpt>
      <trkpt lat="45.80656" lon="1.84519">
        <ele>706.6</ele>
        <time>2026-07-08T08:43:07.000Z</time>
      </trkpt>
      <trkpt lat="45.80655" lon="1.8452">
        <ele>707.1</ele>
        <time>2026-07-08T08:43:08.000Z</time>
      </trkpt>
      <trkpt lat="45.80654" lon="1.8452">
        <ele>707.2</ele>
        <time>2026-07-08T08:43:09.000Z</time>
      </trkpt>
      <trkpt lat="45.80654" lon="1.8452">
        <ele>707.2</ele>
        <time>2026-07-08T08:43:10.000Z</time>
      </trkpt>
      <trkpt lat="45.80654" lon="1.8452">
        <ele>707.2</ele>
        <time>2026-07-08T08:43:11.000Z</time>
      </trkpt>
      <trkpt lat="45.80654" lon="1.8452">
        <ele>707.2</ele>
        <time>2026-07-08T08:43:12.000Z</time>
      </trkpt>
      <trkpt lat="45.80654" lon="1.8452">
        <ele>707.2</ele>
        <time>2026-07-08T08:43:13.000Z</time>
      </trkpt>
      <trkpt lat="45.80654" lon="1.8452">
        <ele>707.2</ele>
        <time>2026-07-08T08:43:14.000Z</time>
      </trkpt>
      <trkpt lat="45.80654" lon="1.8452">
        <ele>707.2</ele>
        <time>2026-07-08T08:43:15.000Z</time>
      </trkpt>
      <trkpt lat="45.80654" lon="1.8452">
        <ele>707.2</ele>
        <time>2026-07-08T08:43:16.000Z</time>
      </trkpt>
      <trkpt lat="45.80654" lon="1.8452">
        <ele>707.2</ele>
        <time>2026-07-08T08:43:17.000Z</time>
      </trkpt>
      <trkpt lat="45.80654" lon="1.8452">
        <ele>707.2</ele>
        <time>2026-07-08T08:43:18.000Z</time>
      </trkpt>
      <trkpt lat="45.80654" lon="1.8452">
        <ele>707.2</ele>
        <time>2026-07-08T08:43:19.000Z</time>
      </trkpt>
      <trkpt lat="45.80654" lon="1.8452">
        <ele>707.2</ele>
        <time>2026-07-08T08:43:20.000Z</time>
      </trkpt>
      <trkpt lat="45.80654" lon="1.8452">
        <ele>707.2</ele>
        <time>2026-07-08T08:43:21.000Z</time>
      </trkpt>
      <trkpt lat="45.80654" lon="1.8452">
        <ele>706.8</ele>
        <time>2026-07-08T08:43:22.000Z</time>
      </trkpt>
      <trkpt lat="45.80655" lon="1.84519">
        <ele>706.7</ele>
        <time>2026-07-08T08:43:23.000Z</time>
      </trkpt>
      <trkpt lat="45.80655" lon="1.84519">
        <ele>706.7</ele>
        <time>2026-07-08T08:43:24.000Z</time>
      </trkpt>
      <trkpt lat="45.80655" lon="1.84519">
        <ele>706.4</ele>
        <time>2026-07-08T08:43:25.000Z</time>
      </trkpt>
      <trkpt lat="45.80655" lon="1.84519">
        <ele>706.4</ele>
        <time>2026-07-08T08:43:26.000Z</time>
      </trkpt>
      <trkpt lat="45.80655" lon="1.84519">
        <ele>706.3</ele>
        <time>2026-07-08T08:43:27.000Z</time>
      </trkpt>
      <trkpt lat="45.80655" lon="1.84519">
        <ele>706.3</ele>
        <time>2026-07-08T08:43:28.000Z</time>
      </trkpt>
      <trkpt lat="45.80655" lon="1.84519">
        <ele>706.3</ele>
        <time>2026-07-08T08:43:29.000Z</time>
      </trkpt>
      <trkpt lat="45.80655" lon="1.84519">
        <ele>705.9</ele>
        <time>2026-07-08T08:43:30.000Z</time>
      </trkpt>
      <trkpt lat="45.80655" lon="1.84519">
        <ele>705.9</ele>
        <time>2026-07-08T08:43:31.000Z</time>
      </trkpt>
      <trkpt lat="45.80655" lon="1.84519">
        <ele>705.5</ele>
        <time>2026-07-08T08:43:32.000Z</time>
      </trkpt>
      <trkpt lat="45.80655" lon="1.84519">
        <ele>705.8</ele>
        <time>2026-07-08T08:43:33.000Z</time>
      </trkpt>
      <trkpt lat="45.80655" lon="1.84519">
        <ele>705.8</ele>
        <time>2026-07-08T08:43:34.000Z</time>
      </trkpt>
      <trkpt lat="45.80655" lon="1.84519">
        <ele>705.8</ele>
        <time>2026-07-08T08:43:35.000Z</time>
      </trkpt>
      <trkpt lat="45.80655" lon="1.84519">
        <ele>705.6</ele>
        <time>2026-07-08T08:43:36.000Z</time>
      </trkpt>
      <trkpt lat="45.80655" lon="1.84518">
        <ele>706</ele>
        <time>2026-07-08T08:43:37.000Z</time>
      </trkpt>
      <trkpt lat="45.80655" lon="1.84517">
        <ele>706.3</ele>
        <time>2026-07-08T08:43:38.000Z</time>
      </trkpt>
      <trkpt lat="45.80655" lon="1.84516">
        <ele>705.8</ele>
        <time>2026-07-08T08:43:39.000Z</time>
      </trkpt>
      <trkpt lat="45.80655" lon="1.84512">
        <ele>706.3</ele>
        <time>2026-07-08T08:43:40.000Z</time>
      </trkpt>
      <trkpt lat="45.80652" lon="1.8451">
        <ele>706.5</ele>
        <time>2026-07-08T08:43:41.000Z</time>
      </trkpt>
      <trkpt lat="45.80652" lon="1.84509">
        <ele>706.4</ele>
        <time>2026-07-08T08:43:42.000Z</time>
      </trkpt>
      <trkpt lat="45.80652" lon="1.84508">
        <ele>705.9</ele>
        <time>2026-07-08T08:43:43.000Z</time>
      </trkpt>
      <trkpt lat="45.80652" lon="1.84507">
        <ele>705.7</ele>
        <time>2026-07-08T08:43:44.000Z</time>
      </trkpt>
      <trkpt lat="45.80652" lon="1.84505">
        <ele>705.5</ele>
        <time>2026-07-08T08:43:45.000Z</time>
      </trkpt>
      <trkpt lat="45.80652" lon="1.84503">
        <ele>705.4</ele>
        <time>2026-07-08T08:43:46.000Z</time>
      </trkpt>
      <trkpt lat="45.80651" lon="1.84501">
        <ele>705</ele>
        <time>2026-07-08T08:43:47.000Z</time>
      </trkpt>
      <trkpt lat="45.80651" lon="1.84499">
        <ele>704.9</ele>
        <time>2026-07-08T08:43:48.000Z</time>
      </trkpt>
      <trkpt lat="45.8065" lon="1.84497">
        <ele>704.6</ele>
        <time>2026-07-08T08:43:49.000Z</time>
      </trkpt>
      <trkpt lat="45.80648" lon="1.84495">
        <ele>704</ele>
        <time>2026-07-08T08:43:50.000Z</time>
      </trkpt>
      <trkpt lat="45.80647" lon="1.84493">
        <ele>704</ele>
        <time>2026-07-08T08:43:51.000Z</time>
      </trkpt>
      <trkpt lat="45.80646" lon="1.84491">
        <ele>704.3</ele>
        <time>2026-07-08T08:43:52.000Z</time>
      </trkpt>
      <trkpt lat="45.80645" lon="1.84489">
        <ele>704.3</ele>
        <time>2026-07-08T08:43:53.000Z</time>
      </trkpt>
      <trkpt lat="45.80644" lon="1.84487">
        <ele>704.3</ele>
        <time>2026-07-08T08:43:54.000Z</time>
      </trkpt>
      <trkpt lat="45.80642" lon="1.84485">
        <ele>704</ele>
        <time>2026-07-08T08:43:55.000Z</time>
      </trkpt>
      <trkpt lat="45.80641" lon="1.84483">
        <ele>703.8</ele>
        <time>2026-07-08T08:43:56.000Z</time>
      </trkpt>
      <trkpt lat="45.8064" lon="1.84482">
        <ele>703.7</ele>
        <time>2026-07-08T08:43:57.000Z</time>
      </trkpt>
      <trkpt lat="45.80639" lon="1.8448">
        <ele>703.6</ele>
        <time>2026-07-08T08:43:58.000Z</time>
      </trkpt>
      <trkpt lat="45.80637" lon="1.84479">
        <ele>703.5</ele>
        <time>2026-07-08T08:43:59.000Z</time>
      </trkpt>
      <trkpt lat="45.80636" lon="1.84477">
        <ele>703.4</ele>
        <time>2026-07-08T08:44:00.000Z</time>
      </trkpt>
      <trkpt lat="45.80635" lon="1.84475">
        <ele>703.3</ele>
        <time>2026-07-08T08:44:01.000Z</time>
      </trkpt>
      <trkpt lat="45.80633" lon="1.84474">
        <ele>703.4</ele>
        <time>2026-07-08T08:44:02.000Z</time>
      </trkpt>
      <trkpt lat="45.80632" lon="1.84473">
        <ele>703.4</ele>
        <time>2026-07-08T08:44:03.000Z</time>
      </trkpt>
      <trkpt lat="45.8063" lon="1.84471">
        <ele>703.6</ele>
        <time>2026-07-08T08:44:04.000Z</time>
      </trkpt>
      <trkpt lat="45.80629" lon="1.8447">
        <ele>703.8</ele>
        <time>2026-07-08T08:44:05.000Z</time>
      </trkpt>
      <trkpt lat="45.80627" lon="1.84469">
        <ele>703.8</ele>
        <time>2026-07-08T08:44:06.000Z</time>
      </trkpt>
      <trkpt lat="45.80625" lon="1.84468">
        <ele>703.8</ele>
        <time>2026-07-08T08:44:07.000Z</time>
      </trkpt>
      <trkpt lat="45.80624" lon="1.84467">
        <ele>703.9</ele>
        <time>2026-07-08T08:44:08.000Z</time>
      </trkpt>
      <trkpt lat="45.80622" lon="1.84466">
        <ele>704</ele>
        <time>2026-07-08T08:44:09.000Z</time>
      </trkpt>
      <trkpt lat="45.80621" lon="1.84466">
        <ele>703.9</ele>
        <time>2026-07-08T08:44:10.000Z</time>
      </trkpt>
      <trkpt lat="45.80619" lon="1.84466">
        <ele>704.2</ele>
        <time>2026-07-08T08:44:11.000Z</time>
      </trkpt>
      <trkpt lat="45.80618" lon="1.84466">
        <ele>704.5</ele>
        <time>2026-07-08T08:44:12.000Z</time>
      </trkpt>
      <trkpt lat="45.80616" lon="1.84466">
        <ele>704.9</ele>
        <time>2026-07-08T08:44:13.000Z</time>
      </trkpt>
      <trkpt lat="45.80616" lon="1.84467">
        <ele>704.7</ele>
        <time>2026-07-08T08:44:14.000Z</time>
      </trkpt>
      <trkpt lat="45.80616" lon="1.84467">
        <ele>704.5</ele>
        <time>2026-07-08T08:44:15.000Z</time>
      </trkpt>
      <trkpt lat="45.80615" lon="1.84469">
        <ele>704.5</ele>
        <time>2026-07-08T08:44:16.000Z</time>
      </trkpt>
      <trkpt lat="45.80614" lon="1.84469">
        <ele>704.3</ele>
        <time>2026-07-08T08:44:17.000Z</time>
      </trkpt>
      <trkpt lat="45.80614" lon="1.84469">
        <ele>704.6</ele>
        <time>2026-07-08T08:44:18.000Z</time>
      </trkpt>
      <trkpt lat="45.80612" lon="1.84469">
        <ele>705.1</ele>
        <time>2026-07-08T08:44:19.000Z</time>
      </trkpt>
      <trkpt lat="45.80612" lon="1.84467">
        <ele>705</ele>
        <time>2026-07-08T08:44:20.000Z</time>
      </trkpt>
      <trkpt lat="45.80611" lon="1.84465">
        <ele>705</ele>
        <time>2026-07-08T08:44:21.000Z</time>
      </trkpt>
      <trkpt lat="45.80611" lon="1.84463">
        <ele>705.2</ele>
        <time>2026-07-08T08:44:22.000Z</time>
      </trkpt>
      <trkpt lat="45.8061" lon="1.8446">
        <ele>705</ele>
        <time>2026-07-08T08:44:23.000Z</time>
      </trkpt>
      <trkpt lat="45.8061" lon="1.84458">
        <ele>704.7</ele>
        <time>2026-07-08T08:44:24.000Z</time>
      </trkpt>
      <trkpt lat="45.80615" lon="1.84455">
        <ele>704.6</ele>
        <time>2026-07-08T08:44:25.000Z</time>
      </trkpt>
      <trkpt lat="45.80611" lon="1.84454">
        <ele>703.8</ele>
        <time>2026-07-08T08:44:26.000Z</time>
      </trkpt>
      <trkpt lat="45.80611" lon="1.84451">
        <ele>704</ele>
        <time>2026-07-08T08:44:27.000Z</time>
      </trkpt>
      <trkpt lat="45.8061" lon="1.84449">
        <ele>704.1</ele>
        <time>2026-07-08T08:44:28.000Z</time>
      </trkpt>
      <trkpt lat="45.8061" lon="1.84447">
        <ele>704.2</ele>
        <time>2026-07-08T08:44:29.000Z</time>
      </trkpt>
      <trkpt lat="45.80609" lon="1.84444">
        <ele>704.3</ele>
        <time>2026-07-08T08:44:30.000Z</time>
      </trkpt>
      <trkpt lat="45.80608" lon="1.84442">
        <ele>704.3</ele>
        <time>2026-07-08T08:44:31.000Z</time>
      </trkpt>
      <trkpt lat="45.80608" lon="1.84439">
        <ele>704.5</ele>
        <time>2026-07-08T08:44:32.000Z</time>
      </trkpt>
      <trkpt lat="45.80607" lon="1.84436">
        <ele>704.4</ele>
        <time>2026-07-08T08:44:33.000Z</time>
      </trkpt>
      <trkpt lat="45.80606" lon="1.84434">
        <ele>704.5</ele>
        <time>2026-07-08T08:44:34.000Z</time>
      </trkpt>
      <trkpt lat="45.80606" lon="1.84432">
        <ele>704.8</ele>
        <time>2026-07-08T08:44:35.000Z</time>
      </trkpt>
      <trkpt lat="45.80605" lon="1.8443">
        <ele>704.9</ele>
        <time>2026-07-08T08:44:36.000Z</time>
      </trkpt>
      <trkpt lat="45.80604" lon="1.84427">
        <ele>704.8</ele>
        <time>2026-07-08T08:44:37.000Z</time>
      </trkpt>
      <trkpt lat="45.80604" lon="1.84425">
        <ele>704.9</ele>
        <time>2026-07-08T08:44:38.000Z</time>
      </trkpt>
      <trkpt lat="45.80603" lon="1.84423">
        <ele>704.8</ele>
        <time>2026-07-08T08:44:39.000Z</time>
      </trkpt>
      <trkpt lat="45.80602" lon="1.8442">
        <ele>704.9</ele>
        <time>2026-07-08T08:44:40.000Z</time>
      </trkpt>
      <trkpt lat="45.80601" lon="1.84418">
        <ele>704.9</ele>
        <time>2026-07-08T08:44:41.000Z</time>
      </trkpt>
      <trkpt lat="45.806" lon="1.84416">
        <ele>705</ele>
        <time>2026-07-08T08:44:42.000Z</time>
      </trkpt>
      <trkpt lat="45.80599" lon="1.84413">
        <ele>705.2</ele>
        <time>2026-07-08T08:44:43.000Z</time>
      </trkpt>
      <trkpt lat="45.80598" lon="1.84411">
        <ele>705.3</ele>
        <time>2026-07-08T08:44:44.000Z</time>
      </trkpt>
      <trkpt lat="45.80597" lon="1.84408">
        <ele>705.4</ele>
        <time>2026-07-08T08:44:45.000Z</time>
      </trkpt>
      <trkpt lat="45.80596" lon="1.84406">
        <ele>705.5</ele>
        <time>2026-07-08T08:44:46.000Z</time>
      </trkpt>
      <trkpt lat="45.80596" lon="1.84403">
        <ele>705.5</ele>
        <time>2026-07-08T08:44:47.000Z</time>
      </trkpt>
      <trkpt lat="45.80595" lon="1.84401">
        <ele>705.9</ele>
        <time>2026-07-08T08:44:48.000Z</time>
      </trkpt>
      <trkpt lat="45.80594" lon="1.84399">
        <ele>705.9</ele>
        <time>2026-07-08T08:44:49.000Z</time>
      </trkpt>
      <trkpt lat="45.80592" lon="1.84396">
        <ele>706.1</ele>
        <time>2026-07-08T08:44:50.000Z</time>
      </trkpt>
      <trkpt lat="45.80591" lon="1.84394">
        <ele>706.2</ele>
        <time>2026-07-08T08:44:51.000Z</time>
      </trkpt>
      <trkpt lat="45.8059" lon="1.84391">
        <ele>706.3</ele>
        <time>2026-07-08T08:44:52.000Z</time>
      </trkpt>
      <trkpt lat="45.80589" lon="1.84389">
        <ele>706.4</ele>
        <time>2026-07-08T08:44:53.000Z</time>
      </trkpt>
      <trkpt lat="45.80589" lon="1.84386">
        <ele>706.5</ele>
        <time>2026-07-08T08:44:54.000Z</time>
      </trkpt>
      <trkpt lat="45.80588" lon="1.84383">
        <ele>706.6</ele>
        <time>2026-07-08T08:44:55.000Z</time>
      </trkpt>
      <trkpt lat="45.80587" lon="1.84381">
        <ele>706.6</ele>
        <time>2026-07-08T08:44:56.000Z</time>
      </trkpt>
      <trkpt lat="45.80586" lon="1.84378">
        <ele>707</ele>
        <time>2026-07-08T08:44:57.000Z</time>
      </trkpt>
      <trkpt lat="45.80585" lon="1.84376">
        <ele>707</ele>
        <time>2026-07-08T08:44:58.000Z</time>
      </trkpt>
      <trkpt lat="45.80584" lon="1.84373">
        <ele>707.1</ele>
        <time>2026-07-08T08:44:59.000Z</time>
      </trkpt>
      <trkpt lat="45.80583" lon="1.84371">
        <ele>707.2</ele>
        <time>2026-07-08T08:45:00.000Z</time>
      </trkpt>
      <trkpt lat="45.80582" lon="1.84369">
        <ele>707.3</ele>
        <time>2026-07-08T08:45:01.000Z</time>
      </trkpt>
      <trkpt lat="45.80581" lon="1.84366">
        <ele>707.3</ele>
        <time>2026-07-08T08:45:02.000Z</time>
      </trkpt>
      <trkpt lat="45.8058" lon="1.84364">
        <ele>707.4</ele>
        <time>2026-07-08T08:45:03.000Z</time>
      </trkpt>
      <trkpt lat="45.80579" lon="1.84362">
        <ele>707.6</ele>
        <time>2026-07-08T08:45:04.000Z</time>
      </trkpt>
      <trkpt lat="45.80577" lon="1.8436">
        <ele>707.9</ele>
        <time>2026-07-08T08:45:05.000Z</time>
      </trkpt>
      <trkpt lat="45.80576" lon="1.84358">
        <ele>708.2</ele>
        <time>2026-07-08T08:45:06.000Z</time>
      </trkpt>
      <trkpt lat="45.80575" lon="1.84355">
        <ele>708.1</ele>
        <time>2026-07-08T08:45:07.000Z</time>
      </trkpt>
      <trkpt lat="45.80573" lon="1.84354">
        <ele>708.2</ele>
        <time>2026-07-08T08:45:08.000Z</time>
      </trkpt>
      <trkpt lat="45.80572" lon="1.84352">
        <ele>708.4</ele>
        <time>2026-07-08T08:45:09.000Z</time>
      </trkpt>
      <trkpt lat="45.8057" lon="1.84351">
        <ele>708.2</ele>
        <time>2026-07-08T08:45:10.000Z</time>
      </trkpt>
      <trkpt lat="45.80569" lon="1.84349">
        <ele>708.2</ele>
        <time>2026-07-08T08:45:11.000Z</time>
      </trkpt>
      <trkpt lat="45.80567" lon="1.84349">
        <ele>708.2</ele>
        <time>2026-07-08T08:45:12.000Z</time>
      </trkpt>
      <trkpt lat="45.80566" lon="1.84348">
        <ele>708</ele>
        <time>2026-07-08T08:45:13.000Z</time>
      </trkpt>
      <trkpt lat="45.80564" lon="1.84347">
        <ele>707.9</ele>
        <time>2026-07-08T08:45:14.000Z</time>
      </trkpt>
      <trkpt lat="45.80563" lon="1.84346">
        <ele>708.2</ele>
        <time>2026-07-08T08:45:15.000Z</time>
      </trkpt>
      <trkpt lat="45.80561" lon="1.84347">
        <ele>708.1</ele>
        <time>2026-07-08T08:45:16.000Z</time>
      </trkpt>
      <trkpt lat="45.80559" lon="1.84348">
        <ele>708.3</ele>
        <time>2026-07-08T08:45:17.000Z</time>
      </trkpt>
      <trkpt lat="45.80558" lon="1.84349">
        <ele>708.3</ele>
        <time>2026-07-08T08:45:18.000Z</time>
      </trkpt>
      <trkpt lat="45.80556" lon="1.84349">
        <ele>708.1</ele>
        <time>2026-07-08T08:45:19.000Z</time>
      </trkpt>
      <trkpt lat="45.80555" lon="1.84349">
        <ele>707.8</ele>
        <time>2026-07-08T08:45:20.000Z</time>
      </trkpt>
      <trkpt lat="45.80553" lon="1.84349">
        <ele>707.8</ele>
        <time>2026-07-08T08:45:21.000Z</time>
      </trkpt>
      <trkpt lat="45.80551" lon="1.8435">
        <ele>707.6</ele>
        <time>2026-07-08T08:45:22.000Z</time>
      </trkpt>
      <trkpt lat="45.8055" lon="1.8435">
        <ele>707.7</ele>
        <time>2026-07-08T08:45:23.000Z</time>
      </trkpt>
      <trkpt lat="45.80549" lon="1.84351">
        <ele>707.5</ele>
        <time>2026-07-08T08:45:24.000Z</time>
      </trkpt>
      <trkpt lat="45.80547" lon="1.84352">
        <ele>708</ele>
        <time>2026-07-08T08:45:25.000Z</time>
      </trkpt>
      <trkpt lat="45.80546" lon="1.84354">
        <ele>707.5</ele>
        <time>2026-07-08T08:45:26.000Z</time>
      </trkpt>
      <trkpt lat="45.80544" lon="1.84356">
        <ele>707.5</ele>
        <time>2026-07-08T08:45:27.000Z</time>
      </trkpt>
      <trkpt lat="45.80543" lon="1.84358">
        <ele>707.5</ele>
        <time>2026-07-08T08:45:28.000Z</time>
      </trkpt>
      <trkpt lat="45.80542" lon="1.84361">
        <ele>707.4</ele>
        <time>2026-07-08T08:45:29.000Z</time>
      </trkpt>
      <trkpt lat="45.80541" lon="1.84363">
        <ele>707.7</ele>
        <time>2026-07-08T08:45:30.000Z</time>
      </trkpt>
      <trkpt lat="45.8054" lon="1.84365">
        <ele>707.7</ele>
        <time>2026-07-08T08:45:31.000Z</time>
      </trkpt>
      <trkpt lat="45.80539" lon="1.84367">
        <ele>707.5</ele>
        <time>2026-07-08T08:45:32.000Z</time>
      </trkpt>
      <trkpt lat="45.8054" lon="1.84371">
        <ele>707.4</ele>
        <time>2026-07-08T08:45:33.000Z</time>
      </trkpt>
      <trkpt lat="45.80539" lon="1.84373">
        <ele>707.4</ele>
        <time>2026-07-08T08:45:34.000Z</time>
      </trkpt>
      <trkpt lat="45.80539" lon="1.84375">
        <ele>707.2</ele>
        <time>2026-07-08T08:45:35.000Z</time>
      </trkpt>
      <trkpt lat="45.8054" lon="1.84378">
        <ele>707.1</ele>
        <time>2026-07-08T08:45:36.000Z</time>
      </trkpt>
      <trkpt lat="45.80539" lon="1.8438">
        <ele>707.4</ele>
        <time>2026-07-08T08:45:37.000Z</time>
      </trkpt>
      <trkpt lat="45.80538" lon="1.84382">
        <ele>707.1</ele>
        <time>2026-07-08T08:45:38.000Z</time>
      </trkpt>
      <trkpt lat="45.80537" lon="1.84384">
        <ele>707.3</ele>
        <time>2026-07-08T08:45:39.000Z</time>
      </trkpt>
      <trkpt lat="45.80536" lon="1.84386">
        <ele>706.9</ele>
        <time>2026-07-08T08:45:40.000Z</time>
      </trkpt>
      <trkpt lat="45.80535" lon="1.84389">
        <ele>707</ele>
        <time>2026-07-08T08:45:41.000Z</time>
      </trkpt>
      <trkpt lat="45.80534" lon="1.8439">
        <ele>706.8</ele>
        <time>2026-07-08T08:45:42.000Z</time>
      </trkpt>
      <trkpt lat="45.80533" lon="1.84392">
        <ele>706.9</ele>
        <time>2026-07-08T08:45:43.000Z</time>
      </trkpt>
      <trkpt lat="45.80532" lon="1.84394">
        <ele>706.8</ele>
        <time>2026-07-08T08:45:44.000Z</time>
      </trkpt>
      <trkpt lat="45.80531" lon="1.84396">
        <ele>707.1</ele>
        <time>2026-07-08T08:45:45.000Z</time>
      </trkpt>
      <trkpt lat="45.8053" lon="1.84398">
        <ele>706.6</ele>
        <time>2026-07-08T08:45:46.000Z</time>
      </trkpt>
      <trkpt lat="45.80529" lon="1.844">
        <ele>706.5</ele>
        <time>2026-07-08T08:45:47.000Z</time>
      </trkpt>
      <trkpt lat="45.80528" lon="1.84403">
        <ele>706.5</ele>
        <time>2026-07-08T08:45:48.000Z</time>
      </trkpt>
      <trkpt lat="45.80527" lon="1.84405">
        <ele>706.5</ele>
        <time>2026-07-08T08:45:49.000Z</time>
      </trkpt>
      <trkpt lat="45.80528" lon="1.84408">
        <ele>707.1</ele>
        <time>2026-07-08T08:45:50.000Z</time>
      </trkpt>
      <trkpt lat="45.80527" lon="1.84411">
        <ele>706.7</ele>
        <time>2026-07-08T08:45:51.000Z</time>
      </trkpt>
      <trkpt lat="45.80526" lon="1.84413">
        <ele>706.6</ele>
        <time>2026-07-08T08:45:52.000Z</time>
      </trkpt>
      <trkpt lat="45.80524" lon="1.84415">
        <ele>705.8</ele>
        <time>2026-07-08T08:45:53.000Z</time>
      </trkpt>
      <trkpt lat="45.80523" lon="1.84417">
        <ele>705.7</ele>
        <time>2026-07-08T08:45:54.000Z</time>
      </trkpt>
      <trkpt lat="45.80523" lon="1.8442">
        <ele>705.5</ele>
        <time>2026-07-08T08:45:55.000Z</time>
      </trkpt>
      <trkpt lat="45.80522" lon="1.84422">
        <ele>705.4</ele>
        <time>2026-07-08T08:45:56.000Z</time>
      </trkpt>
      <trkpt lat="45.80521" lon="1.84424">
        <ele>705.3</ele>
        <time>2026-07-08T08:45:57.000Z</time>
      </trkpt>
      <trkpt lat="45.8052" lon="1.84426">
        <ele>705.1</ele>
        <time>2026-07-08T08:45:58.000Z</time>
      </trkpt>
      <trkpt lat="45.80519" lon="1.84428">
        <ele>705.4</ele>
        <time>2026-07-08T08:45:59.000Z</time>
      </trkpt>
      <trkpt lat="45.80518" lon="1.84431">
        <ele>705</ele>
        <time>2026-07-08T08:46:00.000Z</time>
      </trkpt>
      <trkpt lat="45.80518" lon="1.84434">
        <ele>704.8</ele>
        <time>2026-07-08T08:46:01.000Z</time>
      </trkpt>
      <trkpt lat="45.80517" lon="1.84436">
        <ele>705.3</ele>
        <time>2026-07-08T08:46:02.000Z</time>
      </trkpt>
      <trkpt lat="45.80517" lon="1.84438">
        <ele>705.1</ele>
        <time>2026-07-08T08:46:03.000Z</time>
      </trkpt>
      <trkpt lat="45.80516" lon="1.8444">
        <ele>705.1</ele>
        <time>2026-07-08T08:46:04.000Z</time>
      </trkpt>
      <trkpt lat="45.80516" lon="1.84443">
        <ele>704.9</ele>
        <time>2026-07-08T08:46:05.000Z</time>
      </trkpt>
      <trkpt lat="45.80515" lon="1.84445">
        <ele>704.8</ele>
        <time>2026-07-08T08:46:06.000Z</time>
      </trkpt>
      <trkpt lat="45.80515" lon="1.84448">
        <ele>704.5</ele>
        <time>2026-07-08T08:46:07.000Z</time>
      </trkpt>
      <trkpt lat="45.80514" lon="1.8445">
        <ele>704.3</ele>
        <time>2026-07-08T08:46:08.000Z</time>
      </trkpt>
      <trkpt lat="45.80513" lon="1.84453">
        <ele>704</ele>
        <time>2026-07-08T08:46:09.000Z</time>
      </trkpt>
      <trkpt lat="45.80512" lon="1.84456">
        <ele>704.2</ele>
        <time>2026-07-08T08:46:10.000Z</time>
      </trkpt>
      <trkpt lat="45.8051" lon="1.8446">
        <ele>704.1</ele>
        <time>2026-07-08T08:46:11.000Z</time>
      </trkpt>
      <trkpt lat="45.80509" lon="1.84462">
        <ele>705.8</ele>
        <time>2026-07-08T08:46:12.000Z</time>
      </trkpt>
      <trkpt lat="45.80508" lon="1.84465">
        <ele>706.2</ele>
        <time>2026-07-08T08:46:13.000Z</time>
      </trkpt>
      <trkpt lat="45.80506" lon="1.84467">
        <ele>704.7</ele>
        <time>2026-07-08T08:46:14.000Z</time>
      </trkpt>
      <trkpt lat="45.80506" lon="1.8447">
        <ele>704.4</ele>
        <time>2026-07-08T08:46:15.000Z</time>
      </trkpt>
      <trkpt lat="45.80505" lon="1.84472">
        <ele>703.7</ele>
        <time>2026-07-08T08:46:16.000Z</time>
      </trkpt>
      <trkpt lat="45.80505" lon="1.84475">
        <ele>704</ele>
        <time>2026-07-08T08:46:17.000Z</time>
      </trkpt>
      <trkpt lat="45.80504" lon="1.84477">
        <ele>703.6</ele>
        <time>2026-07-08T08:46:18.000Z</time>
      </trkpt>
      <trkpt lat="45.80503" lon="1.8448">
        <ele>703.5</ele>
        <time>2026-07-08T08:46:19.000Z</time>
      </trkpt>
      <trkpt lat="45.80502" lon="1.84482">
        <ele>702.9</ele>
        <time>2026-07-08T08:46:20.000Z</time>
      </trkpt>
      <trkpt lat="45.80502" lon="1.84484">
        <ele>702.5</ele>
        <time>2026-07-08T08:46:21.000Z</time>
      </trkpt>
      <trkpt lat="45.80501" lon="1.84486">
        <ele>702.5</ele>
        <time>2026-07-08T08:46:22.000Z</time>
      </trkpt>
      <trkpt lat="45.805" lon="1.84489">
        <ele>702.3</ele>
        <time>2026-07-08T08:46:23.000Z</time>
      </trkpt>
      <trkpt lat="45.805" lon="1.84491">
        <ele>701.9</ele>
        <time>2026-07-08T08:46:24.000Z</time>
      </trkpt>
      <trkpt lat="45.80499" lon="1.84493">
        <ele>701.8</ele>
        <time>2026-07-08T08:46:25.000Z</time>
      </trkpt>
      <trkpt lat="45.80498" lon="1.84496">
        <ele>701.6</ele>
        <time>2026-07-08T08:46:26.000Z</time>
      </trkpt>
      <trkpt lat="45.80497" lon="1.84498">
        <ele>701.4</ele>
        <time>2026-07-08T08:46:27.000Z</time>
      </trkpt>
      <trkpt lat="45.80496" lon="1.845">
        <ele>701.2</ele>
        <time>2026-07-08T08:46:28.000Z</time>
      </trkpt>
      <trkpt lat="45.80495" lon="1.84502">
        <ele>700.7</ele>
        <time>2026-07-08T08:46:29.000Z</time>
      </trkpt>
      <trkpt lat="45.80495" lon="1.84504">
        <ele>700.6</ele>
        <time>2026-07-08T08:46:30.000Z</time>
      </trkpt>
      <trkpt lat="45.80494" lon="1.84506">
        <ele>699.5</ele>
        <time>2026-07-08T08:46:31.000Z</time>
      </trkpt>
      <trkpt lat="45.80493" lon="1.84509">
        <ele>699</ele>
        <time>2026-07-08T08:46:32.000Z</time>
      </trkpt>
      <trkpt lat="45.80492" lon="1.84511">
        <ele>699</ele>
        <time>2026-07-08T08:46:33.000Z</time>
      </trkpt>
      <trkpt lat="45.80491" lon="1.84513">
        <ele>698.9</ele>
        <time>2026-07-08T08:46:34.000Z</time>
      </trkpt>
      <trkpt lat="45.8049" lon="1.84515">
        <ele>698.9</ele>
        <time>2026-07-08T08:46:35.000Z</time>
      </trkpt>
      <trkpt lat="45.80489" lon="1.84517">
        <ele>698.6</ele>
        <time>2026-07-08T08:46:36.000Z</time>
      </trkpt>
      <trkpt lat="45.80489" lon="1.8452">
        <ele>698.5</ele>
        <time>2026-07-08T08:46:37.000Z</time>
      </trkpt>
      <trkpt lat="45.80488" lon="1.84522">
        <ele>698.8</ele>
        <time>2026-07-08T08:46:38.000Z</time>
      </trkpt>
      <trkpt lat="45.80487" lon="1.84523">
        <ele>698.9</ele>
        <time>2026-07-08T08:46:39.000Z</time>
      </trkpt>
      <trkpt lat="45.80485" lon="1.84525">
        <ele>699.3</ele>
        <time>2026-07-08T08:46:40.000Z</time>
      </trkpt>
      <trkpt lat="45.80484" lon="1.84526">
        <ele>699.4</ele>
        <time>2026-07-08T08:46:41.000Z</time>
      </trkpt>
      <trkpt lat="45.80482" lon="1.84527">
        <ele>699.8</ele>
        <time>2026-07-08T08:46:42.000Z</time>
      </trkpt>
      <trkpt lat="45.80481" lon="1.84528">
        <ele>700</ele>
        <time>2026-07-08T08:46:43.000Z</time>
      </trkpt>
      <trkpt lat="45.8048" lon="1.84529">
        <ele>699.9</ele>
        <time>2026-07-08T08:46:44.000Z</time>
      </trkpt>
      <trkpt lat="45.80478" lon="1.84529">
        <ele>699.9</ele>
        <time>2026-07-08T08:46:45.000Z</time>
      </trkpt>
      <trkpt lat="45.80476" lon="1.84529">
        <ele>699.6</ele>
        <time>2026-07-08T08:46:46.000Z</time>
      </trkpt>
      <trkpt lat="45.80475" lon="1.84529">
        <ele>699.4</ele>
        <time>2026-07-08T08:46:47.000Z</time>
      </trkpt>
      <trkpt lat="45.80473" lon="1.84528">
        <ele>699.8</ele>
        <time>2026-07-08T08:46:48.000Z</time>
      </trkpt>
      <trkpt lat="45.80472" lon="1.84528">
        <ele>699.6</ele>
        <time>2026-07-08T08:46:49.000Z</time>
      </trkpt>
      <trkpt lat="45.8047" lon="1.84528">
        <ele>699.6</ele>
        <time>2026-07-08T08:46:50.000Z</time>
      </trkpt>
      <trkpt lat="45.80468" lon="1.84528">
        <ele>699.8</ele>
        <time>2026-07-08T08:46:51.000Z</time>
      </trkpt>
      <trkpt lat="45.80467" lon="1.84527">
        <ele>699.8</ele>
        <time>2026-07-08T08:46:52.000Z</time>
      </trkpt>
      <trkpt lat="45.80465" lon="1.84527">
        <ele>699.9</ele>
        <time>2026-07-08T08:46:53.000Z</time>
      </trkpt>
      <trkpt lat="45.80463" lon="1.84527">
        <ele>700.4</ele>
        <time>2026-07-08T08:46:54.000Z</time>
      </trkpt>
      <trkpt lat="45.80462" lon="1.84527">
        <ele>700.9</ele>
        <time>2026-07-08T08:46:55.000Z</time>
      </trkpt>
      <trkpt lat="45.8046" lon="1.84527">
        <ele>701.2</ele>
        <time>2026-07-08T08:46:56.000Z</time>
      </trkpt>
      <trkpt lat="45.8046" lon="1.84528">
        <ele>700.9</ele>
        <time>2026-07-08T08:46:57.000Z</time>
      </trkpt>
      <trkpt lat="45.8046" lon="1.84528">
        <ele>701.2</ele>
        <time>2026-07-08T08:46:58.000Z</time>
      </trkpt>
      <trkpt lat="45.80459" lon="1.84528">
        <ele>701.1</ele>
        <time>2026-07-08T08:46:59.000Z</time>
      </trkpt>
      <trkpt lat="45.80459" lon="1.84528">
        <ele>701.1</ele>
        <time>2026-07-08T08:47:00.000Z</time>
      </trkpt>
      <trkpt lat="45.80459" lon="1.84528">
        <ele>701.1</ele>
        <time>2026-07-08T08:47:01.000Z</time>
      </trkpt>
      <trkpt lat="45.80459" lon="1.84528">
        <ele>701.1</ele>
        <time>2026-07-08T08:47:02.000Z</time>
      </trkpt>
      <trkpt lat="45.80459" lon="1.84528">
        <ele>701.1</ele>
        <time>2026-07-08T08:47:03.000Z</time>
      </trkpt>
      <trkpt lat="45.80459" lon="1.84528">
        <ele>701.1</ele>
        <time>2026-07-08T08:47:04.000Z</time>
      </trkpt>
      <trkpt lat="45.80459" lon="1.84527">
        <ele>701.5</ele>
        <time>2026-07-08T08:47:05.000Z</time>
      </trkpt>
      <trkpt lat="45.80458" lon="1.84526">
        <ele>701.4</ele>
        <time>2026-07-08T08:47:06.000Z</time>
      </trkpt>
      <trkpt lat="45.80458" lon="1.84526">
        <ele>701.7</ele>
        <time>2026-07-08T08:47:07.000Z</time>
      </trkpt>
      <trkpt lat="45.80458" lon="1.84526">
        <ele>701.9</ele>
        <time>2026-07-08T08:47:08.000Z</time>
      </trkpt>
      <trkpt lat="45.80458" lon="1.84527">
        <ele>701.9</ele>
        <time>2026-07-08T08:47:09.000Z</time>
      </trkpt>
      <trkpt lat="45.80458" lon="1.84527">
        <ele>701.9</ele>
        <time>2026-07-08T08:47:10.000Z</time>
      </trkpt>
      <trkpt lat="45.80458" lon="1.84527">
        <ele>701.8</ele>
        <time>2026-07-08T08:47:11.000Z</time>
      </trkpt>
      <trkpt lat="45.80458" lon="1.84527">
        <ele>701.9</ele>
        <time>2026-07-08T08:47:12.000Z</time>
      </trkpt>
      <trkpt lat="45.80458" lon="1.84527">
        <ele>701.9</ele>
        <time>2026-07-08T08:47:13.000Z</time>
      </trkpt>
      <trkpt lat="45.80457" lon="1.84526">
        <ele>701.8</ele>
        <time>2026-07-08T08:47:14.000Z</time>
      </trkpt>
      <trkpt lat="45.80457" lon="1.84526">
        <ele>701.8</ele>
        <time>2026-07-08T08:47:15.000Z</time>
      </trkpt>
      <trkpt lat="45.80457" lon="1.84526">
        <ele>701.8</ele>
        <time>2026-07-08T08:47:16.000Z</time>
      </trkpt>
      <trkpt lat="45.80457" lon="1.84526">
        <ele>701.8</ele>
        <time>2026-07-08T08:47:17.000Z</time>
      </trkpt>
      <trkpt lat="45.80457" lon="1.84526">
        <ele>702</ele>
        <time>2026-07-08T08:47:18.000Z</time>
      </trkpt>
      <trkpt lat="45.80457" lon="1.84525">
        <ele>702.2</ele>
        <time>2026-07-08T08:47:19.000Z</time>
      </trkpt>
      <trkpt lat="45.80457" lon="1.84525">
        <ele>702.2</ele>
        <time>2026-07-08T08:47:20.000Z</time>
      </trkpt>
      <trkpt lat="45.80457" lon="1.84525">
        <ele>702.4</ele>
        <time>2026-07-08T08:47:21.000Z</time>
      </trkpt>
      <trkpt lat="45.80457" lon="1.84525">
        <ele>702.5</ele>
        <time>2026-07-08T08:47:22.000Z</time>
      </trkpt>
      <trkpt lat="45.80457" lon="1.84525">
        <ele>702.8</ele>
        <time>2026-07-08T08:47:23.000Z</time>
      </trkpt>
      <trkpt lat="45.80456" lon="1.84524">
        <ele>702.8</ele>
        <time>2026-07-08T08:47:24.000Z</time>
      </trkpt>
      <trkpt lat="45.80455" lon="1.84522">
        <ele>702.5</ele>
        <time>2026-07-08T08:47:25.000Z</time>
      </trkpt>
      <trkpt lat="45.80454" lon="1.8452">
        <ele>702.6</ele>
        <time>2026-07-08T08:47:26.000Z</time>
      </trkpt>
      <trkpt lat="45.80453" lon="1.84518">
        <ele>702.7</ele>
        <time>2026-07-08T08:47:27.000Z</time>
      </trkpt>
      <trkpt lat="45.80452" lon="1.84516">
        <ele>702.2</ele>
        <time>2026-07-08T08:47:28.000Z</time>
      </trkpt>
      <trkpt lat="45.80451" lon="1.84514">
        <ele>702</ele>
        <time>2026-07-08T08:47:29.000Z</time>
      </trkpt>
      <trkpt lat="45.80449" lon="1.84512">
        <ele>701.6</ele>
        <time>2026-07-08T08:47:30.000Z</time>
      </trkpt>
      <trkpt lat="45.80447" lon="1.8451">
        <ele>701.9</ele>
        <time>2026-07-08T08:47:31.000Z</time>
      </trkpt>
      <trkpt lat="45.80445" lon="1.84509">
        <ele>701.9</ele>
        <time>2026-07-08T08:47:32.000Z</time>
      </trkpt>
      <trkpt lat="45.80443" lon="1.84507">
        <ele>702.1</ele>
        <time>2026-07-08T08:47:33.000Z</time>
      </trkpt>
      <trkpt lat="45.80441" lon="1.84505">
        <ele>702.6</ele>
        <time>2026-07-08T08:47:34.000Z</time>
      </trkpt>
      <trkpt lat="45.80439" lon="1.84503">
        <ele>702.5</ele>
        <time>2026-07-08T08:47:35.000Z</time>
      </trkpt>
      <trkpt lat="45.80437" lon="1.84502">
        <ele>701.8</ele>
        <time>2026-07-08T08:47:36.000Z</time>
      </trkpt>
      <trkpt lat="45.80436" lon="1.84502">
        <ele>702</ele>
        <time>2026-07-08T08:47:37.000Z</time>
      </trkpt>
      <trkpt lat="45.80434" lon="1.845">
        <ele>701.8</ele>
        <time>2026-07-08T08:47:38.000Z</time>
      </trkpt>
      <trkpt lat="45.80432" lon="1.84499">
        <ele>702.6</ele>
        <time>2026-07-08T08:47:39.000Z</time>
      </trkpt>
      <trkpt lat="45.80431" lon="1.84497">
        <ele>701.6</ele>
        <time>2026-07-08T08:47:40.000Z</time>
      </trkpt>
      <trkpt lat="45.8043" lon="1.84495">
        <ele>702.5</ele>
        <time>2026-07-08T08:47:41.000Z</time>
      </trkpt>
      <trkpt lat="45.80429" lon="1.84493">
        <ele>702.2</ele>
        <time>2026-07-08T08:47:42.000Z</time>
      </trkpt>
      <trkpt lat="45.80428" lon="1.84491">
        <ele>701.8</ele>
        <time>2026-07-08T08:47:43.000Z</time>
      </trkpt>
      <trkpt lat="45.80427" lon="1.8449">
        <ele>701.3</ele>
        <time>2026-07-08T08:47:44.000Z</time>
      </trkpt>
      <trkpt lat="45.80426" lon="1.84488">
        <ele>700.6</ele>
        <time>2026-07-08T08:47:45.000Z</time>
      </trkpt>
      <trkpt lat="45.80424" lon="1.84486">
        <ele>700.9</ele>
        <time>2026-07-08T08:47:46.000Z</time>
      </trkpt>
      <trkpt lat="45.80423" lon="1.84485">
        <ele>700.4</ele>
        <time>2026-07-08T08:47:47.000Z</time>
      </trkpt>
      <trkpt lat="45.80422" lon="1.84484">
        <ele>700.4</ele>
        <time>2026-07-08T08:47:48.000Z</time>
      </trkpt>
      <trkpt lat="45.80421" lon="1.84483">
        <ele>699.8</ele>
        <time>2026-07-08T08:47:49.000Z</time>
      </trkpt>
      <trkpt lat="45.80419" lon="1.84482">
        <ele>699.4</ele>
        <time>2026-07-08T08:47:50.000Z</time>
      </trkpt>
      <trkpt lat="45.80418" lon="1.84481">
        <ele>699.3</ele>
        <time>2026-07-08T08:47:51.000Z</time>
      </trkpt>
      <trkpt lat="45.80416" lon="1.8448">
        <ele>699.1</ele>
        <time>2026-07-08T08:47:52.000Z</time>
      </trkpt>
      <trkpt lat="45.80415" lon="1.84478">
        <ele>698.7</ele>
        <time>2026-07-08T08:47:53.000Z</time>
      </trkpt>
      <trkpt lat="45.80414" lon="1.84477">
        <ele>698.2</ele>
        <time>2026-07-08T08:47:54.000Z</time>
      </trkpt>
      <trkpt lat="45.80412" lon="1.84475">
        <ele>698.2</ele>
        <time>2026-07-08T08:47:55.000Z</time>
      </trkpt>
      <trkpt lat="45.80411" lon="1.84474">
        <ele>698.5</ele>
        <time>2026-07-08T08:47:56.000Z</time>
      </trkpt>
      <trkpt lat="45.8041" lon="1.84472">
        <ele>698.4</ele>
        <time>2026-07-08T08:47:57.000Z</time>
      </trkpt>
      <trkpt lat="45.80408" lon="1.84471">
        <ele>698.4</ele>
        <time>2026-07-08T08:47:58.000Z</time>
      </trkpt>
      <trkpt lat="45.80406" lon="1.8447">
        <ele>698.5</ele>
        <time>2026-07-08T08:47:59.000Z</time>
      </trkpt>
      <trkpt lat="45.80404" lon="1.8447">
        <ele>698.1</ele>
        <time>2026-07-08T08:48:00.000Z</time>
      </trkpt>
      <trkpt lat="45.80403" lon="1.84469">
        <ele>698.6</ele>
        <time>2026-07-08T08:48:01.000Z</time>
      </trkpt>
      <trkpt lat="45.80401" lon="1.84467">
        <ele>698.4</ele>
        <time>2026-07-08T08:48:02.000Z</time>
      </trkpt>
      <trkpt lat="45.804" lon="1.84466">
        <ele>697.9</ele>
        <time>2026-07-08T08:48:03.000Z</time>
      </trkpt>
      <trkpt lat="45.80398" lon="1.84465">
        <ele>697.6</ele>
        <time>2026-07-08T08:48:04.000Z</time>
      </trkpt>
      <trkpt lat="45.80396" lon="1.84467">
        <ele>698.8</ele>
        <time>2026-07-08T08:48:05.000Z</time>
      </trkpt>
      <trkpt lat="45.80395" lon="1.8447">
        <ele>697.9</ele>
        <time>2026-07-08T08:48:06.000Z</time>
      </trkpt>
      <trkpt lat="45.80393" lon="1.84469">
        <ele>699.1</ele>
        <time>2026-07-08T08:48:07.000Z</time>
      </trkpt>
      <trkpt lat="45.80391" lon="1.84469">
        <ele>699.3</ele>
        <time>2026-07-08T08:48:08.000Z</time>
      </trkpt>
      <trkpt lat="45.80389" lon="1.84469">
        <ele>699.5</ele>
        <time>2026-07-08T08:48:09.000Z</time>
      </trkpt>
      <trkpt lat="45.80388" lon="1.84469">
        <ele>699.7</ele>
        <time>2026-07-08T08:48:10.000Z</time>
      </trkpt>
      <trkpt lat="45.80386" lon="1.84469">
        <ele>699.9</ele>
        <time>2026-07-08T08:48:11.000Z</time>
      </trkpt>
      <trkpt lat="45.80384" lon="1.84469">
        <ele>700.1</ele>
        <time>2026-07-08T08:48:12.000Z</time>
      </trkpt>
      <trkpt lat="45.80382" lon="1.84468">
        <ele>700</ele>
        <time>2026-07-08T08:48:13.000Z</time>
      </trkpt>
      <trkpt lat="45.8038" lon="1.84468">
        <ele>700.9</ele>
        <time>2026-07-08T08:48:14.000Z</time>
      </trkpt>
      <trkpt lat="45.80378" lon="1.84467">
        <ele>700.7</ele>
        <time>2026-07-08T08:48:15.000Z</time>
      </trkpt>
      <trkpt lat="45.80377" lon="1.84466">
        <ele>700.9</ele>
        <time>2026-07-08T08:48:16.000Z</time>
      </trkpt>
      <trkpt lat="45.80375" lon="1.84465">
        <ele>700.6</ele>
        <time>2026-07-08T08:48:17.000Z</time>
      </trkpt>
      <trkpt lat="45.80374" lon="1.84463">
        <ele>700.7</ele>
        <time>2026-07-08T08:48:18.000Z</time>
      </trkpt>
      <trkpt lat="45.80372" lon="1.84462">
        <ele>700.8</ele>
        <time>2026-07-08T08:48:19.000Z</time>
      </trkpt>
      <trkpt lat="45.80371" lon="1.84461">
        <ele>701</ele>
        <time>2026-07-08T08:48:20.000Z</time>
      </trkpt>
      <trkpt lat="45.80369" lon="1.8446">
        <ele>701.1</ele>
        <time>2026-07-08T08:48:21.000Z</time>
      </trkpt>
      <trkpt lat="45.80368" lon="1.84458">
        <ele>701.1</ele>
        <time>2026-07-08T08:48:22.000Z</time>
      </trkpt>
      <trkpt lat="45.80367" lon="1.84457">
        <ele>701.4</ele>
        <time>2026-07-08T08:48:23.000Z</time>
      </trkpt>
      <trkpt lat="45.80365" lon="1.84455">
        <ele>701.4</ele>
        <time>2026-07-08T08:48:24.000Z</time>
      </trkpt>
      <trkpt lat="45.80364" lon="1.84454">
        <ele>701.5</ele>
        <time>2026-07-08T08:48:25.000Z</time>
      </trkpt>
      <trkpt lat="45.80362" lon="1.84452">
        <ele>701.7</ele>
        <time>2026-07-08T08:48:26.000Z</time>
      </trkpt>
      <trkpt lat="45.80361" lon="1.84451">
        <ele>701.8</ele>
        <time>2026-07-08T08:48:27.000Z</time>
      </trkpt>
      <trkpt lat="45.8036" lon="1.84448">
        <ele>701.9</ele>
        <time>2026-07-08T08:48:28.000Z</time>
      </trkpt>
      <trkpt lat="45.80359" lon="1.84446">
        <ele>701.5</ele>
        <time>2026-07-08T08:48:29.000Z</time>
      </trkpt>
      <trkpt lat="45.80358" lon="1.84444">
        <ele>701.9</ele>
        <time>2026-07-08T08:48:30.000Z</time>
      </trkpt>
      <trkpt lat="45.80356" lon="1.84442">
        <ele>702.1</ele>
        <time>2026-07-08T08:48:31.000Z</time>
      </trkpt>
      <trkpt lat="45.80354" lon="1.8444">
        <ele>702.5</ele>
        <time>2026-07-08T08:48:32.000Z</time>
      </trkpt>
      <trkpt lat="45.80353" lon="1.84438">
        <ele>702.6</ele>
        <time>2026-07-08T08:48:33.000Z</time>
      </trkpt>
      <trkpt lat="45.80351" lon="1.84436">
        <ele>702.6</ele>
        <time>2026-07-08T08:48:34.000Z</time>
      </trkpt>
      <trkpt lat="45.8035" lon="1.84436">
        <ele>702.7</ele>
        <time>2026-07-08T08:48:35.000Z</time>
      </trkpt>
      <trkpt lat="45.80348" lon="1.84435">
        <ele>702.6</ele>
        <time>2026-07-08T08:48:36.000Z</time>
      </trkpt>
      <trkpt lat="45.80346" lon="1.84434">
        <ele>702.7</ele>
        <time>2026-07-08T08:48:37.000Z</time>
      </trkpt>
      <trkpt lat="45.80344" lon="1.84433">
        <ele>702.6</ele>
        <time>2026-07-08T08:48:38.000Z</time>
      </trkpt>
      <trkpt lat="45.80343" lon="1.84431">
        <ele>702.7</ele>
        <time>2026-07-08T08:48:39.000Z</time>
      </trkpt>
      <trkpt lat="45.80343" lon="1.8443">
        <ele>704.2</ele>
        <time>2026-07-08T08:48:40.000Z</time>
      </trkpt>
      <trkpt lat="45.80342" lon="1.84429">
        <ele>703.1</ele>
        <time>2026-07-08T08:48:41.000Z</time>
      </trkpt>
      <trkpt lat="45.80343" lon="1.84428">
        <ele>702.8</ele>
        <time>2026-07-08T08:48:42.000Z</time>
      </trkpt>
      <trkpt lat="45.80344" lon="1.84429">
        <ele>702.6</ele>
        <time>2026-07-08T08:48:43.000Z</time>
      </trkpt>
      <trkpt lat="45.80344" lon="1.84429">
        <ele>702.6</ele>
        <time>2026-07-08T08:48:44.000Z</time>
      </trkpt>
      <trkpt lat="45.80345" lon="1.8443">
        <ele>702.6</ele>
        <time>2026-07-08T08:48:45.000Z</time>
      </trkpt>
      <trkpt lat="45.80345" lon="1.8443">
        <ele>702.7</ele>
        <time>2026-07-08T08:48:46.000Z</time>
      </trkpt>
      <trkpt lat="45.80345" lon="1.8443">
        <ele>702.7</ele>
        <time>2026-07-08T08:48:47.000Z</time>
      </trkpt>
      <trkpt lat="45.80345" lon="1.8443">
        <ele>702.7</ele>
        <time>2026-07-08T08:48:48.000Z</time>
      </trkpt>
      <trkpt lat="45.80345" lon="1.8443">
        <ele>702.7</ele>
        <time>2026-07-08T08:48:49.000Z</time>
      </trkpt>
      <trkpt lat="45.80345" lon="1.8443">
        <ele>702.7</ele>
        <time>2026-07-08T08:48:50.000Z</time>
      </trkpt>
      <trkpt lat="45.80345" lon="1.8443">
        <ele>702.7</ele>
        <time>2026-07-08T08:48:51.000Z</time>
      </trkpt>
      <trkpt lat="45.80345" lon="1.8443">
        <ele>702.7</ele>
        <time>2026-07-08T08:48:52.000Z</time>
      </trkpt>
      <trkpt lat="45.80345" lon="1.8443">
        <ele>702.7</ele>
        <time>2026-07-08T08:48:53.000Z</time>
      </trkpt>
      <trkpt lat="45.80345" lon="1.8443">
        <ele>702.7</ele>
        <time>2026-07-08T08:48:54.000Z</time>
      </trkpt>
      <trkpt lat="45.80345" lon="1.8443">
        <ele>702.7</ele>
        <time>2026-07-08T08:48:55.000Z</time>
      </trkpt>
      <trkpt lat="45.80345" lon="1.8443">
        <ele>702.7</ele>
        <time>2026-07-08T08:48:56.000Z</time>
      </trkpt>
      <trkpt lat="45.80345" lon="1.8443">
        <ele>702.7</ele>
        <time>2026-07-08T08:48:57.000Z</time>
      </trkpt>
      <trkpt lat="45.80345" lon="1.8443">
        <ele>702.7</ele>
        <time>2026-07-08T08:48:58.000Z</time>
      </trkpt>
      <trkpt lat="45.80345" lon="1.8443">
        <ele>702.7</ele>
        <time>2026-07-08T08:48:59.000Z</time>
      </trkpt>
      <trkpt lat="45.80345" lon="1.8443">
        <ele>702.1</ele>
        <time>2026-07-08T08:49:00.000Z</time>
      </trkpt>
      <trkpt lat="45.80345" lon="1.84429">
        <ele>701.3</ele>
        <time>2026-07-08T08:49:01.000Z</time>
      </trkpt>
      <trkpt lat="45.80344" lon="1.84428">
        <ele>701.6</ele>
        <time>2026-07-08T08:49:02.000Z</time>
      </trkpt>
      <trkpt lat="45.80344" lon="1.84429">
        <ele>701.5</ele>
        <time>2026-07-08T08:49:03.000Z</time>
      </trkpt>
      <trkpt lat="45.80345" lon="1.84429">
        <ele>701.5</ele>
        <time>2026-07-08T08:49:04.000Z</time>
      </trkpt>
      <trkpt lat="45.80345" lon="1.8443">
        <ele>701.4</ele>
        <time>2026-07-08T08:49:05.000Z</time>
      </trkpt>
      <trkpt lat="45.80346" lon="1.84429">
        <ele>701.2</ele>
        <time>2026-07-08T08:49:06.000Z</time>
      </trkpt>
      <trkpt lat="45.80346" lon="1.84429">
        <ele>701.2</ele>
        <time>2026-07-08T08:49:07.000Z</time>
      </trkpt>
      <trkpt lat="45.80346" lon="1.84429">
        <ele>701.2</ele>
        <time>2026-07-08T08:49:08.000Z</time>
      </trkpt>
      <trkpt lat="45.80346" lon="1.84429">
        <ele>701.2</ele>
        <time>2026-07-08T08:49:09.000Z</time>
      </trkpt>
      <trkpt lat="45.80346" lon="1.84429">
        <ele>701.2</ele>
        <time>2026-07-08T08:49:10.000Z</time>
      </trkpt>
      <trkpt lat="45.80346" lon="1.84429">
        <ele>701.2</ele>
        <time>2026-07-08T08:49:11.000Z</time>
      </trkpt>
      <trkpt lat="45.80346" lon="1.84429">
        <ele>701.2</ele>
        <time>2026-07-08T08:49:12.000Z</time>
      </trkpt>
      <trkpt lat="45.80346" lon="1.84429">
        <ele>701.2</ele>
        <time>2026-07-08T08:49:13.000Z</time>
      </trkpt>
      <trkpt lat="45.80346" lon="1.84429">
        <ele>701.2</ele>
        <time>2026-07-08T08:49:14.000Z</time>
      </trkpt>
      <trkpt lat="45.80346" lon="1.84429">
        <ele>701.2</ele>
        <time>2026-07-08T08:49:15.000Z</time>
      </trkpt>
      <trkpt lat="45.80346" lon="1.84429">
        <ele>701.2</ele>
        <time>2026-07-08T08:49:16.000Z</time>
      </trkpt>
      <trkpt lat="45.80346" lon="1.84429">
        <ele>701.2</ele>
        <time>2026-07-08T08:49:17.000Z</time>
      </trkpt>
      <trkpt lat="45.80346" lon="1.84429">
        <ele>701.2</ele>
        <time>2026-07-08T08:49:18.000Z</time>
      </trkpt>
      <trkpt lat="45.80346" lon="1.84429">
        <ele>701.2</ele>
        <time>2026-07-08T08:49:19.000Z</time>
      </trkpt>
      <trkpt lat="45.80346" lon="1.84429">
        <ele>701.2</ele>
        <time>2026-07-08T08:49:20.000Z</time>
      </trkpt>
      <trkpt lat="45.80346" lon="1.84429">
        <ele>701.2</ele>
        <time>2026-07-08T08:49:21.000Z</time>
      </trkpt>
      <trkpt lat="45.80346" lon="1.84429">
        <ele>701.2</ele>
        <time>2026-07-08T08:49:22.000Z</time>
      </trkpt>
      <trkpt lat="45.80346" lon="1.84429">
        <ele>701.2</ele>
        <time>2026-07-08T08:49:23.000Z</time>
      </trkpt>
      <trkpt lat="45.80346" lon="1.84429">
        <ele>701.2</ele>
        <time>2026-07-08T08:49:24.000Z</time>
      </trkpt>
      <trkpt lat="45.80346" lon="1.84429">
        <ele>701.2</ele>
        <time>2026-07-08T08:49:25.000Z</time>
      </trkpt>
      <trkpt lat="45.80346" lon="1.84429">
        <ele>701.2</ele>
        <time>2026-07-08T08:49:26.000Z</time>
      </trkpt>
      <trkpt lat="45.80346" lon="1.84429">
        <ele>701.2</ele>
        <time>2026-07-08T08:49:27.000Z</time>
      </trkpt>
      <trkpt lat="45.80346" lon="1.84429">
        <ele>701.2</ele>
        <time>2026-07-08T08:49:28.000Z</time>
      </trkpt>
      <trkpt lat="45.80346" lon="1.84429">
        <ele>701.2</ele>
        <time>2026-07-08T08:49:29.000Z</time>
      </trkpt>
      <trkpt lat="45.80346" lon="1.84429">
        <ele>701.2</ele>
        <time>2026-07-08T08:49:30.000Z</time>
      </trkpt>
      <trkpt lat="45.80346" lon="1.84429">
        <ele>701.2</ele>
        <time>2026-07-08T08:49:31.000Z</time>
      </trkpt>
      <trkpt lat="45.80346" lon="1.84429">
        <ele>701.2</ele>
        <time>2026-07-08T08:49:32.000Z</time>
      </trkpt>
      <trkpt lat="45.80346" lon="1.84429">
        <ele>701.2</ele>
        <time>2026-07-08T08:49:33.000Z</time>
      </trkpt>
      <trkpt lat="45.80346" lon="1.84429">
        <ele>701.2</ele>
        <time>2026-07-08T08:49:34.000Z</time>
      </trkpt>
      <trkpt lat="45.80346" lon="1.84429">
        <ele>701.4</ele>
        <time>2026-07-08T08:49:35.000Z</time>
      </trkpt>
      <trkpt lat="45.80346" lon="1.84429">
        <ele>701.4</ele>
        <time>2026-07-08T08:49:36.000Z</time>
      </trkpt>
      <trkpt lat="45.80346" lon="1.8443">
        <ele>701.7</ele>
        <time>2026-07-08T08:49:37.000Z</time>
      </trkpt>
      <trkpt lat="45.80347" lon="1.8443">
        <ele>701.7</ele>
        <time>2026-07-08T08:49:38.000Z</time>
      </trkpt>
      <trkpt lat="45.80347" lon="1.8443">
        <ele>701.7</ele>
        <time>2026-07-08T08:49:39.000Z</time>
      </trkpt>
      <trkpt lat="45.80346" lon="1.8443">
        <ele>701.8</ele>
        <time>2026-07-08T08:49:40.000Z</time>
      </trkpt>
      <trkpt lat="45.80346" lon="1.8443">
        <ele>701.8</ele>
        <time>2026-07-08T08:49:41.000Z</time>
      </trkpt>
      <trkpt lat="45.80346" lon="1.8443">
        <ele>701.8</ele>
        <time>2026-07-08T08:49:42.000Z</time>
      </trkpt>
      <trkpt lat="45.80346" lon="1.8443">
        <ele>701.9</ele>
        <time>2026-07-08T08:49:43.000Z</time>
      </trkpt>
      <trkpt lat="45.80346" lon="1.8443">
        <ele>701.9</ele>
        <time>2026-07-08T08:49:44.000Z</time>
      </trkpt>
      <trkpt lat="45.80346" lon="1.8443">
        <ele>701.9</ele>
        <time>2026-07-08T08:49:45.000Z</time>
      </trkpt>
      <trkpt lat="45.80346" lon="1.8443">
        <ele>701.9</ele>
        <time>2026-07-08T08:49:46.000Z</time>
      </trkpt>
      <trkpt lat="45.80346" lon="1.8443">
        <ele>701.9</ele>
        <time>2026-07-08T08:49:47.000Z</time>
      </trkpt>
      <trkpt lat="45.80346" lon="1.8443">
        <ele>701.9</ele>
        <time>2026-07-08T08:49:48.000Z</time>
      </trkpt>
      <trkpt lat="45.80346" lon="1.8443">
        <ele>701.9</ele>
        <time>2026-07-08T08:49:49.000Z</time>
      </trkpt>
      <trkpt lat="45.80346" lon="1.8443">
        <ele>701.9</ele>
        <time>2026-07-08T08:49:50.000Z</time>
      </trkpt>
      <trkpt lat="45.80346" lon="1.8443">
        <ele>701.9</ele>
        <time>2026-07-08T08:49:51.000Z</time>
      </trkpt>
      <trkpt lat="45.80346" lon="1.8443">
        <ele>701.9</ele>
        <time>2026-07-08T08:49:52.000Z</time>
      </trkpt>
      <trkpt lat="45.80346" lon="1.8443">
        <ele>701.9</ele>
        <time>2026-07-08T08:49:53.000Z</time>
      </trkpt>
      <trkpt lat="45.80346" lon="1.8443">
        <ele>701.5</ele>
        <time>2026-07-08T08:49:54.000Z</time>
      </trkpt>
      <trkpt lat="45.80346" lon="1.8443">
        <ele>701.5</ele>
        <time>2026-07-08T08:49:55.000Z</time>
      </trkpt>
      <trkpt lat="45.80346" lon="1.8443">
        <ele>701.5</ele>
        <time>2026-07-08T08:49:56.000Z</time>
      </trkpt>
      <trkpt lat="45.80346" lon="1.8443">
        <ele>701.5</ele>
        <time>2026-07-08T08:49:57.000Z</time>
      </trkpt>
      <trkpt lat="45.80346" lon="1.8443">
        <ele>701.5</ele>
        <time>2026-07-08T08:49:58.000Z</time>
      </trkpt>
      <trkpt lat="45.80346" lon="1.8443">
        <ele>701.5</ele>
        <time>2026-07-08T08:49:59.000Z</time>
      </trkpt>
      <trkpt lat="45.80346" lon="1.8443">
        <ele>701.5</ele>
        <time>2026-07-08T08:50:00.000Z</time>
      </trkpt>
      <trkpt lat="45.80346" lon="1.8443">
        <ele>701.5</ele>
        <time>2026-07-08T08:50:01.000Z</time>
      </trkpt>
      <trkpt lat="45.80346" lon="1.8443">
        <ele>701.5</ele>
        <time>2026-07-08T08:50:02.000Z</time>
      </trkpt>
      <trkpt lat="45.80346" lon="1.8443">
        <ele>701.5</ele>
        <time>2026-07-08T08:50:03.000Z</time>
      </trkpt>
      <trkpt lat="45.80346" lon="1.8443">
        <ele>701.5</ele>
        <time>2026-07-08T08:50:04.000Z</time>
      </trkpt>
      <trkpt lat="45.80346" lon="1.8443">
        <ele>701.5</ele>
        <time>2026-07-08T08:50:05.000Z</time>
      </trkpt>
      <trkpt lat="45.80346" lon="1.8443">
        <ele>701.5</ele>
        <time>2026-07-08T08:50:06.000Z</time>
      </trkpt>
      <trkpt lat="45.80346" lon="1.8443">
        <ele>701.5</ele>
        <time>2026-07-08T08:50:07.000Z</time>
      </trkpt>
      <trkpt lat="45.80346" lon="1.8443">
        <ele>701.5</ele>
        <time>2026-07-08T08:50:08.000Z</time>
      </trkpt>
      <trkpt lat="45.80346" lon="1.8443">
        <ele>701.5</ele>
        <time>2026-07-08T08:50:09.000Z</time>
      </trkpt>
      <trkpt lat="45.80346" lon="1.8443">
        <ele>701.5</ele>
        <time>2026-07-08T08:50:10.000Z</time>
      </trkpt>
      <trkpt lat="45.80346" lon="1.8443">
        <ele>701.8</ele>
        <time>2026-07-08T08:50:11.000Z</time>
      </trkpt>
      <trkpt lat="45.80346" lon="1.8443">
        <ele>701.8</ele>
        <time>2026-07-08T08:50:12.000Z</time>
      </trkpt>
      <trkpt lat="45.80346" lon="1.8443">
        <ele>701.8</ele>
        <time>2026-07-08T08:50:13.000Z</time>
      </trkpt>
      <trkpt lat="45.80346" lon="1.8443">
        <ele>701.8</ele>
        <time>2026-07-08T08:50:14.000Z</time>
      </trkpt>
      <trkpt lat="45.80346" lon="1.8443">
        <ele>701.8</ele>
        <time>2026-07-08T08:50:15.000Z</time>
      </trkpt>
      <trkpt lat="45.80346" lon="1.8443">
        <ele>701.8</ele>
        <time>2026-07-08T08:50:16.000Z</time>
      </trkpt>
      <trkpt lat="45.80346" lon="1.8443">
        <ele>701.8</ele>
        <time>2026-07-08T08:50:17.000Z</time>
      </trkpt>
      <trkpt lat="45.80346" lon="1.8443">
        <ele>701.8</ele>
        <time>2026-07-08T08:50:18.000Z</time>
      </trkpt>
      <trkpt lat="45.80346" lon="1.8443">
        <ele>701.8</ele>
        <time>2026-07-08T08:50:19.000Z</time>
      </trkpt>
      <trkpt lat="45.80346" lon="1.8443">
        <ele>702.2</ele>
        <time>2026-07-08T08:50:20.000Z</time>
      </trkpt>
      <trkpt lat="45.80345" lon="1.8443">
        <ele>702.3</ele>
        <time>2026-07-08T08:50:21.000Z</time>
      </trkpt>
      <trkpt lat="45.80345" lon="1.84429">
        <ele>702.3</ele>
        <time>2026-07-08T08:50:22.000Z</time>
      </trkpt>
      <trkpt lat="45.80344" lon="1.84429">
        <ele>702.5</ele>
        <time>2026-07-08T08:50:23.000Z</time>
      </trkpt>
      <trkpt lat="45.80343" lon="1.84427">
        <ele>702.4</ele>
        <time>2026-07-08T08:50:24.000Z</time>
      </trkpt>
      <trkpt lat="45.80342" lon="1.84426">
        <ele>701.9</ele>
        <time>2026-07-08T08:50:25.000Z</time>
      </trkpt>
      <trkpt lat="45.8034" lon="1.84425">
        <ele>701.7</ele>
        <time>2026-07-08T08:50:26.000Z</time>
      </trkpt>
      <trkpt lat="45.80339" lon="1.84425">
        <ele>700.8</ele>
        <time>2026-07-08T08:50:27.000Z</time>
      </trkpt>
      <trkpt lat="45.80338" lon="1.84424">
        <ele>700.2</ele>
        <time>2026-07-08T08:50:28.000Z</time>
      </trkpt>
      <trkpt lat="45.80336" lon="1.84424">
        <ele>699.4</ele>
        <time>2026-07-08T08:50:29.000Z</time>
      </trkpt>
      <trkpt lat="45.80335" lon="1.84423">
        <ele>699.4</ele>
        <time>2026-07-08T08:50:30.000Z</time>
      </trkpt>
      <trkpt lat="45.80334" lon="1.84422">
        <ele>701.1</ele>
        <time>2026-07-08T08:50:31.000Z</time>
      </trkpt>
      <trkpt lat="45.80332" lon="1.84422">
        <ele>702.9</ele>
        <time>2026-07-08T08:50:32.000Z</time>
      </trkpt>
      <trkpt lat="45.8033" lon="1.84421">
        <ele>703.5</ele>
        <time>2026-07-08T08:50:33.000Z</time>
      </trkpt>
      <trkpt lat="45.80328" lon="1.8442">
        <ele>703.5</ele>
        <time>2026-07-08T08:50:34.000Z</time>
      </trkpt>
      <trkpt lat="45.80326" lon="1.84419">
        <ele>701.1</ele>
        <time>2026-07-08T08:50:35.000Z</time>
      </trkpt>
      <trkpt lat="45.80324" lon="1.84419">
        <ele>700.7</ele>
        <time>2026-07-08T08:50:36.000Z</time>
      </trkpt>
      <trkpt lat="45.80322" lon="1.84419">
        <ele>700.7</ele>
        <time>2026-07-08T08:50:37.000Z</time>
      </trkpt>
      <trkpt lat="45.80321" lon="1.84418">
        <ele>699.9</ele>
        <time>2026-07-08T08:50:38.000Z</time>
      </trkpt>
      <trkpt lat="45.8032" lon="1.84418">
        <ele>700.5</ele>
        <time>2026-07-08T08:50:39.000Z</time>
      </trkpt>
      <trkpt lat="45.80319" lon="1.84417">
        <ele>700.4</ele>
        <time>2026-07-08T08:50:40.000Z</time>
      </trkpt>
      <trkpt lat="45.80318" lon="1.84417">
        <ele>700.1</ele>
        <time>2026-07-08T08:50:41.000Z</time>
      </trkpt>
      <trkpt lat="45.80317" lon="1.84417">
        <ele>699.6</ele>
        <time>2026-07-08T08:50:42.000Z</time>
      </trkpt>
      <trkpt lat="45.80318" lon="1.84417">
        <ele>701.1</ele>
        <time>2026-07-08T08:50:43.000Z</time>
      </trkpt>
      <trkpt lat="45.80316" lon="1.84418">
        <ele>698.8</ele>
        <time>2026-07-08T08:50:44.000Z</time>
      </trkpt>
      <trkpt lat="45.80315" lon="1.84417">
        <ele>699.1</ele>
        <time>2026-07-08T08:50:45.000Z</time>
      </trkpt>
      <trkpt lat="45.80313" lon="1.84416">
        <ele>699.1</ele>
        <time>2026-07-08T08:50:46.000Z</time>
      </trkpt>
      <trkpt lat="45.80312" lon="1.84415">
        <ele>699.2</ele>
        <time>2026-07-08T08:50:47.000Z</time>
      </trkpt>
      <trkpt lat="45.80311" lon="1.84414">
        <ele>699.2</ele>
        <time>2026-07-08T08:50:48.000Z</time>
      </trkpt>
      <trkpt lat="45.80309" lon="1.84414">
        <ele>699.7</ele>
        <time>2026-07-08T08:50:49.000Z</time>
      </trkpt>
      <trkpt lat="45.80308" lon="1.84414">
        <ele>700.4</ele>
        <time>2026-07-08T08:50:50.000Z</time>
      </trkpt>
      <trkpt lat="45.80307" lon="1.84414">
        <ele>701.7</ele>
        <time>2026-07-08T08:50:51.000Z</time>
      </trkpt>
      <trkpt lat="45.80307" lon="1.84413">
        <ele>701.5</ele>
        <time>2026-07-08T08:50:52.000Z</time>
      </trkpt>
      <trkpt lat="45.80306" lon="1.84416">
        <ele>702.5</ele>
        <time>2026-07-08T08:50:53.000Z</time>
      </trkpt>
      <trkpt lat="45.80307" lon="1.84419">
        <ele>704.3</ele>
        <time>2026-07-08T08:50:54.000Z</time>
      </trkpt>
      <trkpt lat="45.80307" lon="1.84417">
        <ele>703.8</ele>
        <time>2026-07-08T08:50:55.000Z</time>
      </trkpt>
      <trkpt lat="45.80307" lon="1.84415">
        <ele>703.8</ele>
        <time>2026-07-08T08:50:56.000Z</time>
      </trkpt>
      <trkpt lat="45.80307" lon="1.84415">
        <ele>703.8</ele>
        <time>2026-07-08T08:50:57.000Z</time>
      </trkpt>
      <trkpt lat="45.80307" lon="1.84415">
        <ele>704.5</ele>
        <time>2026-07-08T08:50:58.000Z</time>
      </trkpt>
      <trkpt lat="45.80307" lon="1.84415">
        <ele>704.5</ele>
        <time>2026-07-08T08:50:59.000Z</time>
      </trkpt>
      <trkpt lat="45.80308" lon="1.84415">
        <ele>704.9</ele>
        <time>2026-07-08T08:51:00.000Z</time>
      </trkpt>
      <trkpt lat="45.80308" lon="1.84415">
        <ele>704.8</ele>
        <time>2026-07-08T08:51:01.000Z</time>
      </trkpt>
      <trkpt lat="45.80308" lon="1.84415">
        <ele>705.4</ele>
        <time>2026-07-08T08:51:02.000Z</time>
      </trkpt>
      <trkpt lat="45.80308" lon="1.84415">
        <ele>705.4</ele>
        <time>2026-07-08T08:51:03.000Z</time>
      </trkpt>
      <trkpt lat="45.80308" lon="1.84415">
        <ele>705.6</ele>
        <time>2026-07-08T08:51:04.000Z</time>
      </trkpt>
      <trkpt lat="45.80308" lon="1.84415">
        <ele>705.6</ele>
        <time>2026-07-08T08:51:05.000Z</time>
      </trkpt>
      <trkpt lat="45.80308" lon="1.84415">
        <ele>705.6</ele>
        <time>2026-07-08T08:51:06.000Z</time>
      </trkpt>
      <trkpt lat="45.80308" lon="1.84415">
        <ele>705.6</ele>
        <time>2026-07-08T08:51:07.000Z</time>
      </trkpt>
      <trkpt lat="45.80308" lon="1.84415">
        <ele>705.6</ele>
        <time>2026-07-08T08:51:08.000Z</time>
      </trkpt>
      <trkpt lat="45.80308" lon="1.84415">
        <ele>705.8</ele>
        <time>2026-07-08T08:51:09.000Z</time>
      </trkpt>
      <trkpt lat="45.80308" lon="1.84415">
        <ele>706.1</ele>
        <time>2026-07-08T08:51:10.000Z</time>
      </trkpt>
      <trkpt lat="45.80308" lon="1.84415">
        <ele>706.6</ele>
        <time>2026-07-08T08:51:11.000Z</time>
      </trkpt>
      <trkpt lat="45.80308" lon="1.84415">
        <ele>706.9</ele>
        <time>2026-07-08T08:51:12.000Z</time>
      </trkpt>
      <trkpt lat="45.80307" lon="1.84415">
        <ele>707.8</ele>
        <time>2026-07-08T08:51:13.000Z</time>
      </trkpt>
      <trkpt lat="45.80306" lon="1.84414">
        <ele>708</ele>
        <time>2026-07-08T08:51:14.000Z</time>
      </trkpt>
      <trkpt lat="45.80305" lon="1.84414">
        <ele>708.4</ele>
        <time>2026-07-08T08:51:15.000Z</time>
      </trkpt>
      <trkpt lat="45.80303" lon="1.84413">
        <ele>708.3</ele>
        <time>2026-07-08T08:51:16.000Z</time>
      </trkpt>
      <trkpt lat="45.80302" lon="1.84412">
        <ele>708.5</ele>
        <time>2026-07-08T08:51:17.000Z</time>
      </trkpt>
      <trkpt lat="45.803" lon="1.84411">
        <ele>708.8</ele>
        <time>2026-07-08T08:51:18.000Z</time>
      </trkpt>
      <trkpt lat="45.80298" lon="1.84411">
        <ele>709.1</ele>
        <time>2026-07-08T08:51:19.000Z</time>
      </trkpt>
      <trkpt lat="45.80297" lon="1.84411">
        <ele>709</ele>
        <time>2026-07-08T08:51:20.000Z</time>
      </trkpt>
      <trkpt lat="45.80295" lon="1.8441">
        <ele>709.3</ele>
        <time>2026-07-08T08:51:21.000Z</time>
      </trkpt>
      <trkpt lat="45.80293" lon="1.8441">
        <ele>709.1</ele>
        <time>2026-07-08T08:51:22.000Z</time>
      </trkpt>
      <trkpt lat="45.80292" lon="1.8441">
        <ele>709.2</ele>
        <time>2026-07-08T08:51:23.000Z</time>
      </trkpt>
      <trkpt lat="45.8029" lon="1.8441">
        <ele>709.2</ele>
        <time>2026-07-08T08:51:24.000Z</time>
      </trkpt>
      <trkpt lat="45.80289" lon="1.8441">
        <ele>709.2</ele>
        <time>2026-07-08T08:51:25.000Z</time>
      </trkpt>
      <trkpt lat="45.80287" lon="1.8441">
        <ele>709.4</ele>
        <time>2026-07-08T08:51:26.000Z</time>
      </trkpt>
      <trkpt lat="45.80285" lon="1.8441">
        <ele>709.6</ele>
        <time>2026-07-08T08:51:27.000Z</time>
      </trkpt>
      <trkpt lat="45.80283" lon="1.8441">
        <ele>710</ele>
        <time>2026-07-08T08:51:28.000Z</time>
      </trkpt>
      <trkpt lat="45.80282" lon="1.84411">
        <ele>710.3</ele>
        <time>2026-07-08T08:51:29.000Z</time>
      </trkpt>
      <trkpt lat="45.8028" lon="1.84411">
        <ele>709.8</ele>
        <time>2026-07-08T08:51:30.000Z</time>
      </trkpt>
      <trkpt lat="45.80278" lon="1.84411">
        <ele>710.1</ele>
        <time>2026-07-08T08:51:31.000Z</time>
      </trkpt>
      <trkpt lat="45.80277" lon="1.84412">
        <ele>710.2</ele>
        <time>2026-07-08T08:51:32.000Z</time>
      </trkpt>
      <trkpt lat="45.80275" lon="1.84412">
        <ele>710.4</ele>
        <time>2026-07-08T08:51:33.000Z</time>
      </trkpt>
      <trkpt lat="45.80273" lon="1.84413">
        <ele>710.8</ele>
        <time>2026-07-08T08:51:34.000Z</time>
      </trkpt>
      <trkpt lat="45.80271" lon="1.84413">
        <ele>711</ele>
        <time>2026-07-08T08:51:35.000Z</time>
      </trkpt>
      <trkpt lat="45.8027" lon="1.84414">
        <ele>711.1</ele>
        <time>2026-07-08T08:51:36.000Z</time>
      </trkpt>
      <trkpt lat="45.80268" lon="1.84415">
        <ele>711.2</ele>
        <time>2026-07-08T08:51:37.000Z</time>
      </trkpt>
      <trkpt lat="45.80267" lon="1.84415">
        <ele>711.2</ele>
        <time>2026-07-08T08:51:38.000Z</time>
      </trkpt>
      <trkpt lat="45.80265" lon="1.84416">
        <ele>711.3</ele>
        <time>2026-07-08T08:51:39.000Z</time>
      </trkpt>
      <trkpt lat="45.80264" lon="1.84416">
        <ele>711.2</ele>
        <time>2026-07-08T08:51:40.000Z</time>
      </trkpt>
      <trkpt lat="45.80262" lon="1.84417">
        <ele>711.1</ele>
        <time>2026-07-08T08:51:41.000Z</time>
      </trkpt>
      <trkpt lat="45.80261" lon="1.84419">
        <ele>711.2</ele>
        <time>2026-07-08T08:51:42.000Z</time>
      </trkpt>
      <trkpt lat="45.80259" lon="1.8442">
        <ele>711.1</ele>
        <time>2026-07-08T08:51:43.000Z</time>
      </trkpt>
      <trkpt lat="45.80258" lon="1.84421">
        <ele>711</ele>
        <time>2026-07-08T08:51:44.000Z</time>
      </trkpt>
      <trkpt lat="45.80256" lon="1.84423">
        <ele>710.8</ele>
        <time>2026-07-08T08:51:45.000Z</time>
      </trkpt>
      <trkpt lat="45.80255" lon="1.84424">
        <ele>710.6</ele>
        <time>2026-07-08T08:51:46.000Z</time>
      </trkpt>
      <trkpt lat="45.80253" lon="1.84426">
        <ele>710.7</ele>
        <time>2026-07-08T08:51:47.000Z</time>
      </trkpt>
      <trkpt lat="45.80252" lon="1.84428">
        <ele>710.9</ele>
        <time>2026-07-08T08:51:48.000Z</time>
      </trkpt>
      <trkpt lat="45.80251" lon="1.8443">
        <ele>710.9</ele>
        <time>2026-07-08T08:51:49.000Z</time>
      </trkpt>
      <trkpt lat="45.80249" lon="1.84432">
        <ele>710.8</ele>
        <time>2026-07-08T08:51:50.000Z</time>
      </trkpt>
      <trkpt lat="45.80248" lon="1.84434">
        <ele>710.4</ele>
        <time>2026-07-08T08:51:51.000Z</time>
      </trkpt>
      <trkpt lat="45.80247" lon="1.84436">
        <ele>710.4</ele>
        <time>2026-07-08T08:51:52.000Z</time>
      </trkpt>
      <trkpt lat="45.80245" lon="1.84438">
        <ele>710.3</ele>
        <time>2026-07-08T08:51:53.000Z</time>
      </trkpt>
      <trkpt lat="45.80244" lon="1.8444">
        <ele>710.3</ele>
        <time>2026-07-08T08:51:54.000Z</time>
      </trkpt>
      <trkpt lat="45.80243" lon="1.84442">
        <ele>710.5</ele>
        <time>2026-07-08T08:51:55.000Z</time>
      </trkpt>
      <trkpt lat="45.80242" lon="1.84443">
        <ele>710.4</ele>
        <time>2026-07-08T08:51:56.000Z</time>
      </trkpt>
      <trkpt lat="45.8024" lon="1.84445">
        <ele>710.5</ele>
        <time>2026-07-08T08:51:57.000Z</time>
      </trkpt>
      <trkpt lat="45.80239" lon="1.84447">
        <ele>710.9</ele>
        <time>2026-07-08T08:51:58.000Z</time>
      </trkpt>
      <trkpt lat="45.80237" lon="1.84449">
        <ele>710.7</ele>
        <time>2026-07-08T08:51:59.000Z</time>
      </trkpt>
      <trkpt lat="45.80236" lon="1.84451">
        <ele>710.7</ele>
        <time>2026-07-08T08:52:00.000Z</time>
      </trkpt>
      <trkpt lat="45.80235" lon="1.84453">
        <ele>711</ele>
        <time>2026-07-08T08:52:01.000Z</time>
      </trkpt>
      <trkpt lat="45.80233" lon="1.84454">
        <ele>711.1</ele>
        <time>2026-07-08T08:52:02.000Z</time>
      </trkpt>
      <trkpt lat="45.80232" lon="1.84456">
        <ele>711.4</ele>
        <time>2026-07-08T08:52:03.000Z</time>
      </trkpt>
      <trkpt lat="45.80231" lon="1.84457">
        <ele>711.6</ele>
        <time>2026-07-08T08:52:04.000Z</time>
      </trkpt>
      <trkpt lat="45.80229" lon="1.84457">
        <ele>711.8</ele>
        <time>2026-07-08T08:52:05.000Z</time>
      </trkpt>
      <trkpt lat="45.80227" lon="1.84457">
        <ele>711.4</ele>
        <time>2026-07-08T08:52:06.000Z</time>
      </trkpt>
      <trkpt lat="45.80225" lon="1.84458">
        <ele>711.3</ele>
        <time>2026-07-08T08:52:07.000Z</time>
      </trkpt>
      <trkpt lat="45.80224" lon="1.84459">
        <ele>711.4</ele>
        <time>2026-07-08T08:52:08.000Z</time>
      </trkpt>
      <trkpt lat="45.80222" lon="1.84459">
        <ele>711.4</ele>
        <time>2026-07-08T08:52:09.000Z</time>
      </trkpt>
      <trkpt lat="45.80221" lon="1.8446">
        <ele>711.3</ele>
        <time>2026-07-08T08:52:10.000Z</time>
      </trkpt>
      <trkpt lat="45.8022" lon="1.84461">
        <ele>711.8</ele>
        <time>2026-07-08T08:52:11.000Z</time>
      </trkpt>
      <trkpt lat="45.80218" lon="1.84462">
        <ele>711.8</ele>
        <time>2026-07-08T08:52:12.000Z</time>
      </trkpt>
      <trkpt lat="45.80217" lon="1.84463">
        <ele>711.7</ele>
        <time>2026-07-08T08:52:13.000Z</time>
      </trkpt>
      <trkpt lat="45.80215" lon="1.84464">
        <ele>711.5</ele>
        <time>2026-07-08T08:52:14.000Z</time>
      </trkpt>
      <trkpt lat="45.80214" lon="1.84465">
        <ele>711.1</ele>
        <time>2026-07-08T08:52:15.000Z</time>
      </trkpt>
      <trkpt lat="45.80212" lon="1.84466">
        <ele>709.9</ele>
        <time>2026-07-08T08:52:16.000Z</time>
      </trkpt>
      <trkpt lat="45.8021" lon="1.84467">
        <ele>709.5</ele>
        <time>2026-07-08T08:52:17.000Z</time>
      </trkpt>
      <trkpt lat="45.80208" lon="1.84469">
        <ele>709.1</ele>
        <time>2026-07-08T08:52:18.000Z</time>
      </trkpt>
      <trkpt lat="45.80206" lon="1.8447">
        <ele>708.3</ele>
        <time>2026-07-08T08:52:19.000Z</time>
      </trkpt>
      <trkpt lat="45.80203" lon="1.84472">
        <ele>708.1</ele>
        <time>2026-07-08T08:52:20.000Z</time>
      </trkpt>
      <trkpt lat="45.80203" lon="1.84474">
        <ele>709</ele>
        <time>2026-07-08T08:52:21.000Z</time>
      </trkpt>
      <trkpt lat="45.80202" lon="1.84477">
        <ele>709.3</ele>
        <time>2026-07-08T08:52:22.000Z</time>
      </trkpt>
      <trkpt lat="45.80201" lon="1.84479">
        <ele>709.4</ele>
        <time>2026-07-08T08:52:23.000Z</time>
      </trkpt>
      <trkpt lat="45.80201" lon="1.84479">
        <ele>708.9</ele>
        <time>2026-07-08T08:52:24.000Z</time>
      </trkpt>
      <trkpt lat="45.802" lon="1.84479">
        <ele>708.3</ele>
        <time>2026-07-08T08:52:25.000Z</time>
      </trkpt>
      <trkpt lat="45.80199" lon="1.84481">
        <ele>708</ele>
        <time>2026-07-08T08:52:26.000Z</time>
      </trkpt>
      <trkpt lat="45.80198" lon="1.84482">
        <ele>707.4</ele>
        <time>2026-07-08T08:52:27.000Z</time>
      </trkpt>
      <trkpt lat="45.80197" lon="1.84483">
        <ele>707.2</ele>
        <time>2026-07-08T08:52:28.000Z</time>
      </trkpt>
      <trkpt lat="45.80196" lon="1.84485">
        <ele>707</ele>
        <time>2026-07-08T08:52:29.000Z</time>
      </trkpt>
      <trkpt lat="45.80194" lon="1.84486">
        <ele>706.8</ele>
        <time>2026-07-08T08:52:30.000Z</time>
      </trkpt>
      <trkpt lat="45.80193" lon="1.84487">
        <ele>706.6</ele>
        <time>2026-07-08T08:52:31.000Z</time>
      </trkpt>
      <trkpt lat="45.80192" lon="1.84488">
        <ele>706.3</ele>
        <time>2026-07-08T08:52:32.000Z</time>
      </trkpt>
      <trkpt lat="45.80191" lon="1.8449">
        <ele>706.9</ele>
        <time>2026-07-08T08:52:33.000Z</time>
      </trkpt>
      <trkpt lat="45.8019" lon="1.84492">
        <ele>706.5</ele>
        <time>2026-07-08T08:52:34.000Z</time>
      </trkpt>
      <trkpt lat="45.80186" lon="1.8449">
        <ele>706</ele>
        <time>2026-07-08T08:52:35.000Z</time>
      </trkpt>
      <trkpt lat="45.80185" lon="1.84491">
        <ele>705.8</ele>
        <time>2026-07-08T08:52:36.000Z</time>
      </trkpt>
      <trkpt lat="45.80184" lon="1.84494">
        <ele>705.9</ele>
        <time>2026-07-08T08:52:37.000Z</time>
      </trkpt>
      <trkpt lat="45.80183" lon="1.84495">
        <ele>705.7</ele>
        <time>2026-07-08T08:52:38.000Z</time>
      </trkpt>
      <trkpt lat="45.80182" lon="1.84497">
        <ele>705.5</ele>
        <time>2026-07-08T08:52:39.000Z</time>
      </trkpt>
      <trkpt lat="45.8018" lon="1.84498">
        <ele>705.5</ele>
        <time>2026-07-08T08:52:40.000Z</time>
      </trkpt>
      <trkpt lat="45.80179" lon="1.84499">
        <ele>705.7</ele>
        <time>2026-07-08T08:52:41.000Z</time>
      </trkpt>
      <trkpt lat="45.80177" lon="1.84499">
        <ele>705.7</ele>
        <time>2026-07-08T08:52:42.000Z</time>
      </trkpt>
      <trkpt lat="45.80176" lon="1.845">
        <ele>705.7</ele>
        <time>2026-07-08T08:52:43.000Z</time>
      </trkpt>
      <trkpt lat="45.80174" lon="1.84501">
        <ele>705.8</ele>
        <time>2026-07-08T08:52:44.000Z</time>
      </trkpt>
      <trkpt lat="45.80173" lon="1.84504">
        <ele>708.2</ele>
        <time>2026-07-08T08:52:45.000Z</time>
      </trkpt>
      <trkpt lat="45.80171" lon="1.84504">
        <ele>706.3</ele>
        <time>2026-07-08T08:52:46.000Z</time>
      </trkpt>
      <trkpt lat="45.8017" lon="1.84505">
        <ele>706.1</ele>
        <time>2026-07-08T08:52:47.000Z</time>
      </trkpt>
      <trkpt lat="45.8017" lon="1.84505">
        <ele>705.6</ele>
        <time>2026-07-08T08:52:48.000Z</time>
      </trkpt>
      <trkpt lat="45.8017" lon="1.84505">
        <ele>705.5</ele>
        <time>2026-07-08T08:52:49.000Z</time>
      </trkpt>
      <trkpt lat="45.80167" lon="1.84505">
        <ele>705</ele>
        <time>2026-07-08T08:52:50.000Z</time>
      </trkpt>
      <trkpt lat="45.80164" lon="1.84505">
        <ele>703.6</ele>
        <time>2026-07-08T08:52:51.000Z</time>
      </trkpt>
      <trkpt lat="45.80162" lon="1.84506">
        <ele>703.4</ele>
        <time>2026-07-08T08:52:52.000Z</time>
      </trkpt>
      <trkpt lat="45.80161" lon="1.84507">
        <ele>703.8</ele>
        <time>2026-07-08T08:52:53.000Z</time>
      </trkpt>
      <trkpt lat="45.80157" lon="1.84507">
        <ele>703.2</ele>
        <time>2026-07-08T08:52:54.000Z</time>
      </trkpt>
      <trkpt lat="45.80156" lon="1.84509">
        <ele>702.5</ele>
        <time>2026-07-08T08:52:55.000Z</time>
      </trkpt>
      <trkpt lat="45.80154" lon="1.84509">
        <ele>702.4</ele>
        <time>2026-07-08T08:52:56.000Z</time>
      </trkpt>
      <trkpt lat="45.80153" lon="1.84509">
        <ele>701.2</ele>
        <time>2026-07-08T08:52:57.000Z</time>
      </trkpt>
      <trkpt lat="45.80152" lon="1.84509">
        <ele>701.1</ele>
        <time>2026-07-08T08:52:58.000Z</time>
      </trkpt>
      <trkpt lat="45.80152" lon="1.84508">
        <ele>701.1</ele>
        <time>2026-07-08T08:52:59.000Z</time>
      </trkpt>
      <trkpt lat="45.8015" lon="1.84508">
        <ele>701.6</ele>
        <time>2026-07-08T08:53:00.000Z</time>
      </trkpt>
      <trkpt lat="45.80149" lon="1.84507">
        <ele>701.5</ele>
        <time>2026-07-08T08:53:01.000Z</time>
      </trkpt>
      <trkpt lat="45.80147" lon="1.84507">
        <ele>702</ele>
        <time>2026-07-08T08:53:02.000Z</time>
      </trkpt>
      <trkpt lat="45.80146" lon="1.84508">
        <ele>702</ele>
        <time>2026-07-08T08:53:03.000Z</time>
      </trkpt>
      <trkpt lat="45.80144" lon="1.84508">
        <ele>701.9</ele>
        <time>2026-07-08T08:53:04.000Z</time>
      </trkpt>
      <trkpt lat="45.80142" lon="1.84509">
        <ele>702.2</ele>
        <time>2026-07-08T08:53:05.000Z</time>
      </trkpt>
      <trkpt lat="45.8014" lon="1.8451">
        <ele>702.5</ele>
        <time>2026-07-08T08:53:06.000Z</time>
      </trkpt>
      <trkpt lat="45.80139" lon="1.84511">
        <ele>702.5</ele>
        <time>2026-07-08T08:53:07.000Z</time>
      </trkpt>
      <trkpt lat="45.80137" lon="1.84512">
        <ele>702.7</ele>
        <time>2026-07-08T08:53:08.000Z</time>
      </trkpt>
      <trkpt lat="45.80135" lon="1.84512">
        <ele>702.7</ele>
        <time>2026-07-08T08:53:09.000Z</time>
      </trkpt>
      <trkpt lat="45.80133" lon="1.84512">
        <ele>703</ele>
        <time>2026-07-08T08:53:10.000Z</time>
      </trkpt>
      <trkpt lat="45.80132" lon="1.84512">
        <ele>703.4</ele>
        <time>2026-07-08T08:53:11.000Z</time>
      </trkpt>
      <trkpt lat="45.8013" lon="1.84512">
        <ele>703.6</ele>
        <time>2026-07-08T08:53:12.000Z</time>
      </trkpt>
      <trkpt lat="45.80128" lon="1.84512">
        <ele>703.7</ele>
        <time>2026-07-08T08:53:13.000Z</time>
      </trkpt>
      <trkpt lat="45.80126" lon="1.84512">
        <ele>704</ele>
        <time>2026-07-08T08:53:14.000Z</time>
      </trkpt>
      <trkpt lat="45.80124" lon="1.84513">
        <ele>704.1</ele>
        <time>2026-07-08T08:53:15.000Z</time>
      </trkpt>
      <trkpt lat="45.80122" lon="1.84513">
        <ele>703.8</ele>
        <time>2026-07-08T08:53:16.000Z</time>
      </trkpt>
      <trkpt lat="45.8012" lon="1.84514">
        <ele>703.6</ele>
        <time>2026-07-08T08:53:17.000Z</time>
      </trkpt>
      <trkpt lat="45.80119" lon="1.84514">
        <ele>703.8</ele>
        <time>2026-07-08T08:53:18.000Z</time>
      </trkpt>
      <trkpt lat="45.80117" lon="1.84514">
        <ele>703.8</ele>
        <time>2026-07-08T08:53:19.000Z</time>
      </trkpt>
      <trkpt lat="45.80115" lon="1.84514">
        <ele>703.7</ele>
        <time>2026-07-08T08:53:20.000Z</time>
      </trkpt>
      <trkpt lat="45.80114" lon="1.84514">
        <ele>703.8</ele>
        <time>2026-07-08T08:53:21.000Z</time>
      </trkpt>
      <trkpt lat="45.80112" lon="1.84513">
        <ele>703.8</ele>
        <time>2026-07-08T08:53:22.000Z</time>
      </trkpt>
      <trkpt lat="45.80111" lon="1.84514">
        <ele>704.6</ele>
        <time>2026-07-08T08:53:23.000Z</time>
      </trkpt>
      <trkpt lat="45.80109" lon="1.84513">
        <ele>703.7</ele>
        <time>2026-07-08T08:53:24.000Z</time>
      </trkpt>
      <trkpt lat="45.80107" lon="1.84513">
        <ele>703.7</ele>
        <time>2026-07-08T08:53:25.000Z</time>
      </trkpt>
      <trkpt lat="45.80106" lon="1.84513">
        <ele>704.1</ele>
        <time>2026-07-08T08:53:26.000Z</time>
      </trkpt>
      <trkpt lat="45.80104" lon="1.84514">
        <ele>704.7</ele>
        <time>2026-07-08T08:53:27.000Z</time>
      </trkpt>
      <trkpt lat="45.80102" lon="1.84513">
        <ele>704.8</ele>
        <time>2026-07-08T08:53:28.000Z</time>
      </trkpt>
      <trkpt lat="45.80101" lon="1.84513">
        <ele>704.6</ele>
        <time>2026-07-08T08:53:29.000Z</time>
      </trkpt>
      <trkpt lat="45.80099" lon="1.84514">
        <ele>704.7</ele>
        <time>2026-07-08T08:53:30.000Z</time>
      </trkpt>
      <trkpt lat="45.80097" lon="1.84514">
        <ele>704.9</ele>
        <time>2026-07-08T08:53:31.000Z</time>
      </trkpt>
      <trkpt lat="45.80095" lon="1.84513">
        <ele>704.9</ele>
        <time>2026-07-08T08:53:32.000Z</time>
      </trkpt>
      <trkpt lat="45.80093" lon="1.84512">
        <ele>704.8</ele>
        <time>2026-07-08T08:53:33.000Z</time>
      </trkpt>
      <trkpt lat="45.80091" lon="1.84511">
        <ele>705</ele>
        <time>2026-07-08T08:53:34.000Z</time>
      </trkpt>
      <trkpt lat="45.8009" lon="1.84511">
        <ele>705.2</ele>
        <time>2026-07-08T08:53:35.000Z</time>
      </trkpt>
      <trkpt lat="45.80088" lon="1.8451">
        <ele>705</ele>
        <time>2026-07-08T08:53:36.000Z</time>
      </trkpt>
      <trkpt lat="45.80086" lon="1.84508">
        <ele>704.9</ele>
        <time>2026-07-08T08:53:37.000Z</time>
      </trkpt>
      <trkpt lat="45.80085" lon="1.84507">
        <ele>705.5</ele>
        <time>2026-07-08T08:53:38.000Z</time>
      </trkpt>
      <trkpt lat="45.80084" lon="1.84506">
        <ele>705.6</ele>
        <time>2026-07-08T08:53:39.000Z</time>
      </trkpt>
      <trkpt lat="45.80082" lon="1.84505">
        <ele>705.5</ele>
        <time>2026-07-08T08:53:40.000Z</time>
      </trkpt>
      <trkpt lat="45.8008" lon="1.84503">
        <ele>705.4</ele>
        <time>2026-07-08T08:53:41.000Z</time>
      </trkpt>
      <trkpt lat="45.80079" lon="1.84502">
        <ele>705.4</ele>
        <time>2026-07-08T08:53:42.000Z</time>
      </trkpt>
      <trkpt lat="45.80077" lon="1.84501">
        <ele>705.8</ele>
        <time>2026-07-08T08:53:43.000Z</time>
      </trkpt>
      <trkpt lat="45.80076" lon="1.84499">
        <ele>705.3</ele>
        <time>2026-07-08T08:53:44.000Z</time>
      </trkpt>
      <trkpt lat="45.80074" lon="1.84498">
        <ele>705</ele>
        <time>2026-07-08T08:53:45.000Z</time>
      </trkpt>
      <trkpt lat="45.80072" lon="1.84497">
        <ele>705.7</ele>
        <time>2026-07-08T08:53:46.000Z</time>
      </trkpt>
      <trkpt lat="45.8007" lon="1.84496">
        <ele>705.9</ele>
        <time>2026-07-08T08:53:47.000Z</time>
      </trkpt>
      <trkpt lat="45.80069" lon="1.84495">
        <ele>705.6</ele>
        <time>2026-07-08T08:53:48.000Z</time>
      </trkpt>
      <trkpt lat="45.80067" lon="1.84495">
        <ele>705.6</ele>
        <time>2026-07-08T08:53:49.000Z</time>
      </trkpt>
      <trkpt lat="45.80065" lon="1.84495">
        <ele>706</ele>
        <time>2026-07-08T08:53:50.000Z</time>
      </trkpt>
      <trkpt lat="45.80064" lon="1.84494">
        <ele>706.2</ele>
        <time>2026-07-08T08:53:51.000Z</time>
      </trkpt>
      <trkpt lat="45.80062" lon="1.84494">
        <ele>706</ele>
        <time>2026-07-08T08:53:52.000Z</time>
      </trkpt>
      <trkpt lat="45.80061" lon="1.84494">
        <ele>705.6</ele>
        <time>2026-07-08T08:53:53.000Z</time>
      </trkpt>
      <trkpt lat="45.8006" lon="1.84494">
        <ele>705.3</ele>
        <time>2026-07-08T08:53:54.000Z</time>
      </trkpt>
      <trkpt lat="45.80058" lon="1.84494">
        <ele>704.9</ele>
        <time>2026-07-08T08:53:55.000Z</time>
      </trkpt>
      <trkpt lat="45.80057" lon="1.84495">
        <ele>705.1</ele>
        <time>2026-07-08T08:53:56.000Z</time>
      </trkpt>
      <trkpt lat="45.80055" lon="1.84496">
        <ele>704.4</ele>
        <time>2026-07-08T08:53:57.000Z</time>
      </trkpt>
      <trkpt lat="45.80053" lon="1.84496">
        <ele>703.8</ele>
        <time>2026-07-08T08:53:58.000Z</time>
      </trkpt>
      <trkpt lat="45.80052" lon="1.84496">
        <ele>703.8</ele>
        <time>2026-07-08T08:53:59.000Z</time>
      </trkpt>
      <trkpt lat="45.8005" lon="1.84498">
        <ele>703.5</ele>
        <time>2026-07-08T08:54:00.000Z</time>
      </trkpt>
      <trkpt lat="45.80049" lon="1.84498">
        <ele>704</ele>
        <time>2026-07-08T08:54:01.000Z</time>
      </trkpt>
      <trkpt lat="45.80047" lon="1.84499">
        <ele>704.2</ele>
        <time>2026-07-08T08:54:02.000Z</time>
      </trkpt>
      <trkpt lat="45.80046" lon="1.845">
        <ele>704.4</ele>
        <time>2026-07-08T08:54:03.000Z</time>
      </trkpt>
      <trkpt lat="45.80045" lon="1.84501">
        <ele>704.2</ele>
        <time>2026-07-08T08:54:04.000Z</time>
      </trkpt>
      <trkpt lat="45.80044" lon="1.84503">
        <ele>703.6</ele>
        <time>2026-07-08T08:54:05.000Z</time>
      </trkpt>
      <trkpt lat="45.80042" lon="1.84504">
        <ele>703.8</ele>
        <time>2026-07-08T08:54:06.000Z</time>
      </trkpt>
      <trkpt lat="45.80041" lon="1.84506">
        <ele>704.2</ele>
        <time>2026-07-08T08:54:07.000Z</time>
      </trkpt>
      <trkpt lat="45.8004" lon="1.84508">
        <ele>704.3</ele>
        <time>2026-07-08T08:54:08.000Z</time>
      </trkpt>
      <trkpt lat="45.80038" lon="1.8451">
        <ele>705</ele>
        <time>2026-07-08T08:54:09.000Z</time>
      </trkpt>
      <trkpt lat="45.80037" lon="1.84511">
        <ele>705.2</ele>
        <time>2026-07-08T08:54:10.000Z</time>
      </trkpt>
      <trkpt lat="45.80036" lon="1.84512">
        <ele>705</ele>
        <time>2026-07-08T08:54:11.000Z</time>
      </trkpt>
      <trkpt lat="45.80034" lon="1.84513">
        <ele>705.3</ele>
        <time>2026-07-08T08:54:12.000Z</time>
      </trkpt>
      <trkpt lat="45.80033" lon="1.84514">
        <ele>705.2</ele>
        <time>2026-07-08T08:54:13.000Z</time>
      </trkpt>
      <trkpt lat="45.80032" lon="1.84515">
        <ele>705.2</ele>
        <time>2026-07-08T08:54:14.000Z</time>
      </trkpt>
      <trkpt lat="45.8003" lon="1.84516">
        <ele>704.1</ele>
        <time>2026-07-08T08:54:15.000Z</time>
      </trkpt>
      <trkpt lat="45.80028" lon="1.84515">
        <ele>704.4</ele>
        <time>2026-07-08T08:54:16.000Z</time>
      </trkpt>
      <trkpt lat="45.80026" lon="1.84514">
        <ele>703.5</ele>
        <time>2026-07-08T08:54:17.000Z</time>
      </trkpt>
      <trkpt lat="45.80025" lon="1.84513">
        <ele>703.5</ele>
        <time>2026-07-08T08:54:18.000Z</time>
      </trkpt>
      <trkpt lat="45.80023" lon="1.84513">
        <ele>704.4</ele>
        <time>2026-07-08T08:54:19.000Z</time>
      </trkpt>
      <trkpt lat="45.80021" lon="1.84512">
        <ele>703.9</ele>
        <time>2026-07-08T08:54:20.000Z</time>
      </trkpt>
      <trkpt lat="45.8002" lon="1.84512">
        <ele>703.9</ele>
        <time>2026-07-08T08:54:21.000Z</time>
      </trkpt>
      <trkpt lat="45.80018" lon="1.84512">
        <ele>704.3</ele>
        <time>2026-07-08T08:54:22.000Z</time>
      </trkpt>
      <trkpt lat="45.80016" lon="1.84512">
        <ele>703.8</ele>
        <time>2026-07-08T08:54:23.000Z</time>
      </trkpt>
      <trkpt lat="45.80015" lon="1.84512">
        <ele>704</ele>
        <time>2026-07-08T08:54:24.000Z</time>
      </trkpt>
      <trkpt lat="45.80013" lon="1.84511">
        <ele>704.1</ele>
        <time>2026-07-08T08:54:25.000Z</time>
      </trkpt>
      <trkpt lat="45.80011" lon="1.84511">
        <ele>704.6</ele>
        <time>2026-07-08T08:54:26.000Z</time>
      </trkpt>
      <trkpt lat="45.8001" lon="1.84511">
        <ele>704.4</ele>
        <time>2026-07-08T08:54:27.000Z</time>
      </trkpt>
      <trkpt lat="45.80008" lon="1.8451">
        <ele>703.7</ele>
        <time>2026-07-08T08:54:28.000Z</time>
      </trkpt>
      <trkpt lat="45.80007" lon="1.8451">
        <ele>703.7</ele>
        <time>2026-07-08T08:54:29.000Z</time>
      </trkpt>
      <trkpt lat="45.80005" lon="1.84511">
        <ele>704</ele>
        <time>2026-07-08T08:54:30.000Z</time>
      </trkpt>
      <trkpt lat="45.80004" lon="1.84511">
        <ele>704.4</ele>
        <time>2026-07-08T08:54:31.000Z</time>
      </trkpt>
      <trkpt lat="45.80002" lon="1.84512">
        <ele>704.9</ele>
        <time>2026-07-08T08:54:32.000Z</time>
      </trkpt>
      <trkpt lat="45.80001" lon="1.84512">
        <ele>705.2</ele>
        <time>2026-07-08T08:54:33.000Z</time>
      </trkpt>
      <trkpt lat="45.8" lon="1.84512">
        <ele>705</ele>
        <time>2026-07-08T08:54:34.000Z</time>
      </trkpt>
      <trkpt lat="45.79998" lon="1.84513">
        <ele>704.8</ele>
        <time>2026-07-08T08:54:35.000Z</time>
      </trkpt>
      <trkpt lat="45.79996" lon="1.84512">
        <ele>704.4</ele>
        <time>2026-07-08T08:54:36.000Z</time>
      </trkpt>
      <trkpt lat="45.79995" lon="1.84512">
        <ele>704.2</ele>
        <time>2026-07-08T08:54:37.000Z</time>
      </trkpt>
      <trkpt lat="45.79993" lon="1.84512">
        <ele>703.6</ele>
        <time>2026-07-08T08:54:38.000Z</time>
      </trkpt>
      <trkpt lat="45.79992" lon="1.84513">
        <ele>703.3</ele>
        <time>2026-07-08T08:54:39.000Z</time>
      </trkpt>
      <trkpt lat="45.7999" lon="1.84513">
        <ele>703.1</ele>
        <time>2026-07-08T08:54:40.000Z</time>
      </trkpt>
      <trkpt lat="45.79988" lon="1.84514">
        <ele>702.9</ele>
        <time>2026-07-08T08:54:41.000Z</time>
      </trkpt>
      <trkpt lat="45.79987" lon="1.84515">
        <ele>703</ele>
        <time>2026-07-08T08:54:42.000Z</time>
      </trkpt>
      <trkpt lat="45.79985" lon="1.84516">
        <ele>703.1</ele>
        <time>2026-07-08T08:54:43.000Z</time>
      </trkpt>
      <trkpt lat="45.79984" lon="1.84516">
        <ele>703.3</ele>
        <time>2026-07-08T08:54:44.000Z</time>
      </trkpt>
      <trkpt lat="45.79982" lon="1.84515">
        <ele>703.1</ele>
        <time>2026-07-08T08:54:45.000Z</time>
      </trkpt>
      <trkpt lat="45.79981" lon="1.84514">
        <ele>702.9</ele>
        <time>2026-07-08T08:54:46.000Z</time>
      </trkpt>
      <trkpt lat="45.7998" lon="1.84513">
        <ele>702.5</ele>
        <time>2026-07-08T08:54:47.000Z</time>
      </trkpt>
      <trkpt lat="45.79979" lon="1.84512">
        <ele>702.5</ele>
        <time>2026-07-08T08:54:48.000Z</time>
      </trkpt>
      <trkpt lat="45.79978" lon="1.8451">
        <ele>702.2</ele>
        <time>2026-07-08T08:54:49.000Z</time>
      </trkpt>
      <trkpt lat="45.79977" lon="1.84509">
        <ele>702</ele>
        <time>2026-07-08T08:54:50.000Z</time>
      </trkpt>
      <trkpt lat="45.79976" lon="1.84508">
        <ele>701.7</ele>
        <time>2026-07-08T08:54:51.000Z</time>
      </trkpt>
      <trkpt lat="45.79974" lon="1.84508">
        <ele>701.4</ele>
        <time>2026-07-08T08:54:52.000Z</time>
      </trkpt>
      <trkpt lat="45.79973" lon="1.84509">
        <ele>701.4</ele>
        <time>2026-07-08T08:54:53.000Z</time>
      </trkpt>
      <trkpt lat="45.79971" lon="1.84509">
        <ele>701.2</ele>
        <time>2026-07-08T08:54:54.000Z</time>
      </trkpt>
      <trkpt lat="45.7997" lon="1.84509">
        <ele>700.9</ele>
        <time>2026-07-08T08:54:55.000Z</time>
      </trkpt>
      <trkpt lat="45.79969" lon="1.84508">
        <ele>701.2</ele>
        <time>2026-07-08T08:54:56.000Z</time>
      </trkpt>
      <trkpt lat="45.79967" lon="1.84508">
        <ele>700.8</ele>
        <time>2026-07-08T08:54:57.000Z</time>
      </trkpt>
      <trkpt lat="45.79966" lon="1.84508">
        <ele>700.7</ele>
        <time>2026-07-08T08:54:58.000Z</time>
      </trkpt>
      <trkpt lat="45.79964" lon="1.84507">
        <ele>700.9</ele>
        <time>2026-07-08T08:54:59.000Z</time>
      </trkpt>
      <trkpt lat="45.79962" lon="1.84507">
        <ele>700.7</ele>
        <time>2026-07-08T08:55:00.000Z</time>
      </trkpt>
      <trkpt lat="45.79961" lon="1.84506">
        <ele>700.7</ele>
        <time>2026-07-08T08:55:01.000Z</time>
      </trkpt>
      <trkpt lat="45.7996" lon="1.84505">
        <ele>701.2</ele>
        <time>2026-07-08T08:55:02.000Z</time>
      </trkpt>
      <trkpt lat="45.79957" lon="1.84505">
        <ele>701.7</ele>
        <time>2026-07-08T08:55:03.000Z</time>
      </trkpt>
      <trkpt lat="45.79955" lon="1.84504">
        <ele>702.1</ele>
        <time>2026-07-08T08:55:04.000Z</time>
      </trkpt>
      <trkpt lat="45.79954" lon="1.84503">
        <ele>703</ele>
        <time>2026-07-08T08:55:05.000Z</time>
      </trkpt>
      <trkpt lat="45.79954" lon="1.845">
        <ele>702.7</ele>
        <time>2026-07-08T08:55:06.000Z</time>
      </trkpt>
      <trkpt lat="45.79955" lon="1.84498">
        <ele>703</ele>
        <time>2026-07-08T08:55:07.000Z</time>
      </trkpt>
      <trkpt lat="45.79955" lon="1.84496">
        <ele>703.2</ele>
        <time>2026-07-08T08:55:08.000Z</time>
      </trkpt>
      <trkpt lat="45.79955" lon="1.84494">
        <ele>703.3</ele>
        <time>2026-07-08T08:55:09.000Z</time>
      </trkpt>
      <trkpt lat="45.79955" lon="1.84492">
        <ele>702.4</ele>
        <time>2026-07-08T08:55:10.000Z</time>
      </trkpt>
      <trkpt lat="45.79956" lon="1.84489">
        <ele>702</ele>
        <time>2026-07-08T08:55:11.000Z</time>
      </trkpt>
      <trkpt lat="45.79957" lon="1.84487">
        <ele>701.5</ele>
        <time>2026-07-08T08:55:12.000Z</time>
      </trkpt>
      <trkpt lat="45.79958" lon="1.84485">
        <ele>701.2</ele>
        <time>2026-07-08T08:55:13.000Z</time>
      </trkpt>
      <trkpt lat="45.79958" lon="1.84484">
        <ele>701</ele>
        <time>2026-07-08T08:55:14.000Z</time>
      </trkpt>
      <trkpt lat="45.79959" lon="1.84481">
        <ele>701</ele>
        <time>2026-07-08T08:55:15.000Z</time>
      </trkpt>
      <trkpt lat="45.79961" lon="1.84479">
        <ele>701.8</ele>
        <time>2026-07-08T08:55:16.000Z</time>
      </trkpt>
      <trkpt lat="45.79963" lon="1.84477">
        <ele>701.2</ele>
        <time>2026-07-08T08:55:17.000Z</time>
      </trkpt>
      <trkpt lat="45.79964" lon="1.84474">
        <ele>701.1</ele>
        <time>2026-07-08T08:55:18.000Z</time>
      </trkpt>
      <trkpt lat="45.79965" lon="1.84471">
        <ele>701.1</ele>
        <time>2026-07-08T08:55:19.000Z</time>
      </trkpt>
      <trkpt lat="45.79966" lon="1.84469">
        <ele>701.1</ele>
        <time>2026-07-08T08:55:20.000Z</time>
      </trkpt>
      <trkpt lat="45.79968" lon="1.84467">
        <ele>700</ele>
        <time>2026-07-08T08:55:21.000Z</time>
      </trkpt>
      <trkpt lat="45.79969" lon="1.84465">
        <ele>700.4</ele>
        <time>2026-07-08T08:55:22.000Z</time>
      </trkpt>
      <trkpt lat="45.7997" lon="1.84462">
        <ele>702</ele>
        <time>2026-07-08T08:55:23.000Z</time>
      </trkpt>
      <trkpt lat="45.79971" lon="1.8446">
        <ele>702.3</ele>
        <time>2026-07-08T08:55:24.000Z</time>
      </trkpt>
      <trkpt lat="45.79972" lon="1.84457">
        <ele>701.7</ele>
        <time>2026-07-08T08:55:25.000Z</time>
      </trkpt>
      <trkpt lat="45.79973" lon="1.84455">
        <ele>701.8</ele>
        <time>2026-07-08T08:55:26.000Z</time>
      </trkpt>
      <trkpt lat="45.79973" lon="1.84452">
        <ele>702.1</ele>
        <time>2026-07-08T08:55:27.000Z</time>
      </trkpt>
      <trkpt lat="45.79974" lon="1.84449">
        <ele>702.5</ele>
        <time>2026-07-08T08:55:28.000Z</time>
      </trkpt>
      <trkpt lat="45.79974" lon="1.84447">
        <ele>703.2</ele>
        <time>2026-07-08T08:55:29.000Z</time>
      </trkpt>
      <trkpt lat="45.79975" lon="1.84445">
        <ele>702.9</ele>
        <time>2026-07-08T08:55:30.000Z</time>
      </trkpt>
      <trkpt lat="45.79975" lon="1.84442">
        <ele>702.8</ele>
        <time>2026-07-08T08:55:31.000Z</time>
      </trkpt>
      <trkpt lat="45.79976" lon="1.8444">
        <ele>703</ele>
        <time>2026-07-08T08:55:32.000Z</time>
      </trkpt>
      <trkpt lat="45.79976" lon="1.84437">
        <ele>703.8</ele>
        <time>2026-07-08T08:55:33.000Z</time>
      </trkpt>
      <trkpt lat="45.79976" lon="1.84435">
        <ele>704</ele>
        <time>2026-07-08T08:55:34.000Z</time>
      </trkpt>
      <trkpt lat="45.79977" lon="1.84433">
        <ele>704.2</ele>
        <time>2026-07-08T08:55:35.000Z</time>
      </trkpt>
      <trkpt lat="45.79977" lon="1.8443">
        <ele>704.5</ele>
        <time>2026-07-08T08:55:36.000Z</time>
      </trkpt>
      <trkpt lat="45.79978" lon="1.84428">
        <ele>704.8</ele>
        <time>2026-07-08T08:55:37.000Z</time>
      </trkpt>
      <trkpt lat="45.79978" lon="1.84426">
        <ele>704.5</ele>
        <time>2026-07-08T08:55:38.000Z</time>
      </trkpt>
      <trkpt lat="45.79978" lon="1.84424">
        <ele>704.3</ele>
        <time>2026-07-08T08:55:39.000Z</time>
      </trkpt>
      <trkpt lat="45.79978" lon="1.84421">
        <ele>704.2</ele>
        <time>2026-07-08T08:55:40.000Z</time>
      </trkpt>
      <trkpt lat="45.79979" lon="1.84419">
        <ele>704.1</ele>
        <time>2026-07-08T08:55:41.000Z</time>
      </trkpt>
      <trkpt lat="45.79979" lon="1.84416">
        <ele>703.9</ele>
        <time>2026-07-08T08:55:42.000Z</time>
      </trkpt>
      <trkpt lat="45.7998" lon="1.84414">
        <ele>703.7</ele>
        <time>2026-07-08T08:55:43.000Z</time>
      </trkpt>
      <trkpt lat="45.7998" lon="1.84412">
        <ele>704.1</ele>
        <time>2026-07-08T08:55:44.000Z</time>
      </trkpt>
      <trkpt lat="45.79981" lon="1.8441">
        <ele>704.2</ele>
        <time>2026-07-08T08:55:45.000Z</time>
      </trkpt>
      <trkpt lat="45.79981" lon="1.84407">
        <ele>704.2</ele>
        <time>2026-07-08T08:55:46.000Z</time>
      </trkpt>
      <trkpt lat="45.79982" lon="1.84406">
        <ele>704.1</ele>
        <time>2026-07-08T08:55:47.000Z</time>
      </trkpt>
      <trkpt lat="45.79983" lon="1.84404">
        <ele>704</ele>
        <time>2026-07-08T08:55:48.000Z</time>
      </trkpt>
      <trkpt lat="45.79983" lon="1.84402">
        <ele>703.6</ele>
        <time>2026-07-08T08:55:49.000Z</time>
      </trkpt>
      <trkpt lat="45.79983" lon="1.844">
        <ele>703.4</ele>
        <time>2026-07-08T08:55:50.000Z</time>
      </trkpt>
      <trkpt lat="45.79983" lon="1.84397">
        <ele>703.8</ele>
        <time>2026-07-08T08:55:51.000Z</time>
      </trkpt>
      <trkpt lat="45.79984" lon="1.84395">
        <ele>703.7</ele>
        <time>2026-07-08T08:55:52.000Z</time>
      </trkpt>
      <trkpt lat="45.79984" lon="1.84393">
        <ele>704</ele>
        <time>2026-07-08T08:55:53.000Z</time>
      </trkpt>
      <trkpt lat="45.79984" lon="1.84391">
        <ele>704.4</ele>
        <time>2026-07-08T08:55:54.000Z</time>
      </trkpt>
      <trkpt lat="45.79985" lon="1.84389">
        <ele>704.4</ele>
        <time>2026-07-08T08:55:55.000Z</time>
      </trkpt>
      <trkpt lat="45.79985" lon="1.84389">
        <ele>704.9</ele>
        <time>2026-07-08T08:55:56.000Z</time>
      </trkpt>
      <trkpt lat="45.79985" lon="1.84387">
        <ele>704.8</ele>
        <time>2026-07-08T08:55:57.000Z</time>
      </trkpt>
      <trkpt lat="45.79984" lon="1.84386">
        <ele>705</ele>
        <time>2026-07-08T08:55:58.000Z</time>
      </trkpt>
      <trkpt lat="45.79984" lon="1.84384">
        <ele>705.3</ele>
        <time>2026-07-08T08:55:59.000Z</time>
      </trkpt>
      <trkpt lat="45.79985" lon="1.84381">
        <ele>705.4</ele>
        <time>2026-07-08T08:56:00.000Z</time>
      </trkpt>
      <trkpt lat="45.79985" lon="1.84379">
        <ele>705.6</ele>
        <time>2026-07-08T08:56:01.000Z</time>
      </trkpt>
      <trkpt lat="45.79986" lon="1.84377">
        <ele>705.7</ele>
        <time>2026-07-08T08:56:02.000Z</time>
      </trkpt>
      <trkpt lat="45.79986" lon="1.84374">
        <ele>705.7</ele>
        <time>2026-07-08T08:56:03.000Z</time>
      </trkpt>
      <trkpt lat="45.79986" lon="1.84372">
        <ele>705.8</ele>
        <time>2026-07-08T08:56:04.000Z</time>
      </trkpt>
      <trkpt lat="45.79986" lon="1.84369">
        <ele>705.7</ele>
        <time>2026-07-08T08:56:05.000Z</time>
      </trkpt>
      <trkpt lat="45.79986" lon="1.84367">
        <ele>705.7</ele>
        <time>2026-07-08T08:56:06.000Z</time>
      </trkpt>
      <trkpt lat="45.79986" lon="1.84364">
        <ele>705.6</ele>
        <time>2026-07-08T08:56:07.000Z</time>
      </trkpt>
      <trkpt lat="45.79985" lon="1.84361">
        <ele>705.8</ele>
        <time>2026-07-08T08:56:08.000Z</time>
      </trkpt>
      <trkpt lat="45.79984" lon="1.84359">
        <ele>705.6</ele>
        <time>2026-07-08T08:56:09.000Z</time>
      </trkpt>
      <trkpt lat="45.79983" lon="1.84357">
        <ele>705</ele>
        <time>2026-07-08T08:56:10.000Z</time>
      </trkpt>
      <trkpt lat="45.79983" lon="1.84354">
        <ele>705</ele>
        <time>2026-07-08T08:56:11.000Z</time>
      </trkpt>
      <trkpt lat="45.79983" lon="1.84352">
        <ele>705.2</ele>
        <time>2026-07-08T08:56:12.000Z</time>
      </trkpt>
      <trkpt lat="45.79983" lon="1.8435">
        <ele>705</ele>
        <time>2026-07-08T08:56:13.000Z</time>
      </trkpt>
      <trkpt lat="45.79982" lon="1.84348">
        <ele>705</ele>
        <time>2026-07-08T08:56:14.000Z</time>
      </trkpt>
      <trkpt lat="45.79982" lon="1.84346">
        <ele>704.5</ele>
        <time>2026-07-08T08:56:15.000Z</time>
      </trkpt>
      <trkpt lat="45.79981" lon="1.84344">
        <ele>704.6</ele>
        <time>2026-07-08T08:56:16.000Z</time>
      </trkpt>
      <trkpt lat="45.7998" lon="1.84343">
        <ele>704.9</ele>
        <time>2026-07-08T08:56:17.000Z</time>
      </trkpt>
      <trkpt lat="45.7998" lon="1.84341">
        <ele>705.4</ele>
        <time>2026-07-08T08:56:18.000Z</time>
      </trkpt>
      <trkpt lat="45.79979" lon="1.84339">
        <ele>705.5</ele>
        <time>2026-07-08T08:56:19.000Z</time>
      </trkpt>
      <trkpt lat="45.79978" lon="1.84337">
        <ele>705.5</ele>
        <time>2026-07-08T08:56:20.000Z</time>
      </trkpt>
      <trkpt lat="45.79978" lon="1.84335">
        <ele>705.5</ele>
        <time>2026-07-08T08:56:21.000Z</time>
      </trkpt>
      <trkpt lat="45.79976" lon="1.84333">
        <ele>705.5</ele>
        <time>2026-07-08T08:56:22.000Z</time>
      </trkpt>
      <trkpt lat="45.79975" lon="1.84332">
        <ele>705</ele>
        <time>2026-07-08T08:56:23.000Z</time>
      </trkpt>
      <trkpt lat="45.79973" lon="1.84331">
        <ele>704.2</ele>
        <time>2026-07-08T08:56:24.000Z</time>
      </trkpt>
      <trkpt lat="45.79971" lon="1.84332">
        <ele>703.7</ele>
        <time>2026-07-08T08:56:25.000Z</time>
      </trkpt>
      <trkpt lat="45.79969" lon="1.84333">
        <ele>703.2</ele>
        <time>2026-07-08T08:56:26.000Z</time>
      </trkpt>
      <trkpt lat="45.79967" lon="1.84334">
        <ele>702.9</ele>
        <time>2026-07-08T08:56:27.000Z</time>
      </trkpt>
      <trkpt lat="45.79966" lon="1.84336">
        <ele>702.5</ele>
        <time>2026-07-08T08:56:28.000Z</time>
      </trkpt>
      <trkpt lat="45.79966" lon="1.84336">
        <ele>702.3</ele>
        <time>2026-07-08T08:56:29.000Z</time>
      </trkpt>
      <trkpt lat="45.79966" lon="1.84336">
        <ele>702.3</ele>
        <time>2026-07-08T08:56:30.000Z</time>
      </trkpt>
      <trkpt lat="45.79965" lon="1.84336">
        <ele>702.3</ele>
        <time>2026-07-08T08:56:31.000Z</time>
      </trkpt>
      <trkpt lat="45.79965" lon="1.84337">
        <ele>702.3</ele>
        <time>2026-07-08T08:56:32.000Z</time>
      </trkpt>
      <trkpt lat="45.79965" lon="1.84337">
        <ele>702.3</ele>
        <time>2026-07-08T08:56:33.000Z</time>
      </trkpt>
      <trkpt lat="45.79964" lon="1.84338">
        <ele>702.2</ele>
        <time>2026-07-08T08:56:34.000Z</time>
      </trkpt>
      <trkpt lat="45.79963" lon="1.84339">
        <ele>703.2</ele>
        <time>2026-07-08T08:56:35.000Z</time>
      </trkpt>
      <trkpt lat="45.79962" lon="1.8434">
        <ele>704</ele>
        <time>2026-07-08T08:56:36.000Z</time>
      </trkpt>
      <trkpt lat="45.79962" lon="1.8434">
        <ele>703.9</ele>
        <time>2026-07-08T08:56:37.000Z</time>
      </trkpt>
      <trkpt lat="45.79962" lon="1.8434">
        <ele>703.9</ele>
        <time>2026-07-08T08:56:38.000Z</time>
      </trkpt>
      <trkpt lat="45.79962" lon="1.8434">
        <ele>703.5</ele>
        <time>2026-07-08T08:56:39.000Z</time>
      </trkpt>
      <trkpt lat="45.79962" lon="1.8434">
        <ele>703.7</ele>
        <time>2026-07-08T08:56:40.000Z</time>
      </trkpt>
      <trkpt lat="45.79962" lon="1.8434">
        <ele>703.6</ele>
        <time>2026-07-08T08:56:41.000Z</time>
      </trkpt>
      <trkpt lat="45.79961" lon="1.84341">
        <ele>703.6</ele>
        <time>2026-07-08T08:56:42.000Z</time>
      </trkpt>
      <trkpt lat="45.7996" lon="1.8434">
        <ele>703.4</ele>
        <time>2026-07-08T08:56:43.000Z</time>
      </trkpt>
      <trkpt lat="45.7996" lon="1.8434">
        <ele>703.6</ele>
        <time>2026-07-08T08:56:44.000Z</time>
      </trkpt>
      <trkpt lat="45.79959" lon="1.8434">
        <ele>703.6</ele>
        <time>2026-07-08T08:56:45.000Z</time>
      </trkpt>
      <trkpt lat="45.79959" lon="1.8434">
        <ele>703.6</ele>
        <time>2026-07-08T08:56:46.000Z</time>
      </trkpt>
      <trkpt lat="45.79959" lon="1.8434">
        <ele>703.3</ele>
        <time>2026-07-08T08:56:47.000Z</time>
      </trkpt>
      <trkpt lat="45.79959" lon="1.84339">
        <ele>703.3</ele>
        <time>2026-07-08T08:56:48.000Z</time>
      </trkpt>
      <trkpt lat="45.79959" lon="1.84339">
        <ele>703.3</ele>
        <time>2026-07-08T08:56:49.000Z</time>
      </trkpt>
      <trkpt lat="45.79959" lon="1.84339">
        <ele>703.3</ele>
        <time>2026-07-08T08:56:50.000Z</time>
      </trkpt>
      <trkpt lat="45.7996" lon="1.84339">
        <ele>703.1</ele>
        <time>2026-07-08T08:56:51.000Z</time>
      </trkpt>
      <trkpt lat="45.7996" lon="1.84339">
        <ele>703.3</ele>
        <time>2026-07-08T08:56:52.000Z</time>
      </trkpt>
      <trkpt lat="45.79961" lon="1.84338">
        <ele>703.3</ele>
        <time>2026-07-08T08:56:53.000Z</time>
      </trkpt>
      <trkpt lat="45.79961" lon="1.84336">
        <ele>703.4</ele>
        <time>2026-07-08T08:56:54.000Z</time>
      </trkpt>
      <trkpt lat="45.79961" lon="1.84334">
        <ele>702.8</ele>
        <time>2026-07-08T08:56:55.000Z</time>
      </trkpt>
      <trkpt lat="45.7996" lon="1.84333">
        <ele>702.3</ele>
        <time>2026-07-08T08:56:56.000Z</time>
      </trkpt>
      <trkpt lat="45.79959" lon="1.84332">
        <ele>702.3</ele>
        <time>2026-07-08T08:56:57.000Z</time>
      </trkpt>
      <trkpt lat="45.79959" lon="1.84332">
        <ele>702.5</ele>
        <time>2026-07-08T08:56:58.000Z</time>
      </trkpt>
      <trkpt lat="45.79958" lon="1.84331">
        <ele>702.3</ele>
        <time>2026-07-08T08:56:59.000Z</time>
      </trkpt>
      <trkpt lat="45.79957" lon="1.8433">
        <ele>702.3</ele>
        <time>2026-07-08T08:57:00.000Z</time>
      </trkpt>
      <trkpt lat="45.79956" lon="1.84329">
        <ele>702.4</ele>
        <time>2026-07-08T08:57:01.000Z</time>
      </trkpt>
      <trkpt lat="45.79956" lon="1.84329">
        <ele>702.4</ele>
        <time>2026-07-08T08:57:02.000Z</time>
      </trkpt>
      <trkpt lat="45.79955" lon="1.8433">
        <ele>702.3</ele>
        <time>2026-07-08T08:57:03.000Z</time>
      </trkpt>
      <trkpt lat="45.79954" lon="1.84331">
        <ele>701.8</ele>
        <time>2026-07-08T08:57:04.000Z</time>
      </trkpt>
      <trkpt lat="45.79954" lon="1.84333">
        <ele>701.6</ele>
        <time>2026-07-08T08:57:05.000Z</time>
      </trkpt>
      <trkpt lat="45.79954" lon="1.84334">
        <ele>701.3</ele>
        <time>2026-07-08T08:57:06.000Z</time>
      </trkpt>
      <trkpt lat="45.79955" lon="1.84335">
        <ele>701.4</ele>
        <time>2026-07-08T08:57:07.000Z</time>
      </trkpt>
      <trkpt lat="45.79955" lon="1.84335">
        <ele>701.4</ele>
        <time>2026-07-08T08:57:08.000Z</time>
      </trkpt>
      <trkpt lat="45.79955" lon="1.84335">
        <ele>701.4</ele>
        <time>2026-07-08T08:57:09.000Z</time>
      </trkpt>
      <trkpt lat="45.79955" lon="1.84336">
        <ele>701.2</ele>
        <time>2026-07-08T08:57:10.000Z</time>
      </trkpt>
      <trkpt lat="45.79955" lon="1.84336">
        <ele>701.2</ele>
        <time>2026-07-08T08:57:11.000Z</time>
      </trkpt>
      <trkpt lat="45.79955" lon="1.84336">
        <ele>701.2</ele>
        <time>2026-07-08T08:57:12.000Z</time>
      </trkpt>
      <trkpt lat="45.79955" lon="1.84336">
        <ele>701.2</ele>
        <time>2026-07-08T08:57:13.000Z</time>
      </trkpt>
      <trkpt lat="45.79955" lon="1.84336">
        <ele>701.1</ele>
        <time>2026-07-08T08:57:14.000Z</time>
      </trkpt>
      <trkpt lat="45.79955" lon="1.84336">
        <ele>701.1</ele>
        <time>2026-07-08T08:57:15.000Z</time>
      </trkpt>
      <trkpt lat="45.79955" lon="1.84336">
        <ele>701.1</ele>
        <time>2026-07-08T08:57:16.000Z</time>
      </trkpt>
      <trkpt lat="45.79955" lon="1.84336">
        <ele>701.1</ele>
        <time>2026-07-08T08:57:17.000Z</time>
      </trkpt>
      <trkpt lat="45.79955" lon="1.84336">
        <ele>701.1</ele>
        <time>2026-07-08T08:57:18.000Z</time>
      </trkpt>
      <trkpt lat="45.79955" lon="1.84336">
        <ele>701.1</ele>
        <time>2026-07-08T08:57:19.000Z</time>
      </trkpt>
      <trkpt lat="45.79955" lon="1.84336">
        <ele>701.1</ele>
        <time>2026-07-08T08:57:20.000Z</time>
      </trkpt>
      <trkpt lat="45.79955" lon="1.84336">
        <ele>701.1</ele>
        <time>2026-07-08T08:57:21.000Z</time>
      </trkpt>
      <trkpt lat="45.79955" lon="1.84336">
        <ele>701.1</ele>
        <time>2026-07-08T08:57:22.000Z</time>
      </trkpt>
      <trkpt lat="45.79955" lon="1.84336">
        <ele>700.9</ele>
        <time>2026-07-08T08:57:23.000Z</time>
      </trkpt>
      <trkpt lat="45.79954" lon="1.84337">
        <ele>700.8</ele>
        <time>2026-07-08T08:57:24.000Z</time>
      </trkpt>
      <trkpt lat="45.79953" lon="1.84337">
        <ele>700.5</ele>
        <time>2026-07-08T08:57:25.000Z</time>
      </trkpt>
      <trkpt lat="45.79952" lon="1.84337">
        <ele>700.3</ele>
        <time>2026-07-08T08:57:26.000Z</time>
      </trkpt>
      <trkpt lat="45.79951" lon="1.84337">
        <ele>700.1</ele>
        <time>2026-07-08T08:57:27.000Z</time>
      </trkpt>
      <trkpt lat="45.7995" lon="1.84337">
        <ele>699.8</ele>
        <time>2026-07-08T08:57:28.000Z</time>
      </trkpt>
      <trkpt lat="45.79949" lon="1.84336">
        <ele>699.3</ele>
        <time>2026-07-08T08:57:29.000Z</time>
      </trkpt>
      <trkpt lat="45.79948" lon="1.84334">
        <ele>699.1</ele>
        <time>2026-07-08T08:57:30.000Z</time>
      </trkpt>
      <trkpt lat="45.79949" lon="1.84334">
        <ele>700</ele>
        <time>2026-07-08T08:57:31.000Z</time>
      </trkpt>
      <trkpt lat="45.7995" lon="1.84334">
        <ele>700.5</ele>
        <time>2026-07-08T08:57:32.000Z</time>
      </trkpt>
      <trkpt lat="45.79952" lon="1.84335">
        <ele>700.9</ele>
        <time>2026-07-08T08:57:33.000Z</time>
      </trkpt>
      <trkpt lat="45.79953" lon="1.84335">
        <ele>700.8</ele>
        <time>2026-07-08T08:57:34.000Z</time>
      </trkpt>
      <trkpt lat="45.79955" lon="1.84336">
        <ele>701.1</ele>
        <time>2026-07-08T08:57:35.000Z</time>
      </trkpt>
      <trkpt lat="45.79956" lon="1.84336">
        <ele>700.8</ele>
        <time>2026-07-08T08:57:36.000Z</time>
      </trkpt>
      <trkpt lat="45.79957" lon="1.84335">
        <ele>701.2</ele>
        <time>2026-07-08T08:57:37.000Z</time>
      </trkpt>
      <trkpt lat="45.79958" lon="1.84335">
        <ele>701.5</ele>
        <time>2026-07-08T08:57:38.000Z</time>
      </trkpt>
      <trkpt lat="45.79958" lon="1.84335">
        <ele>700.8</ele>
        <time>2026-07-08T08:57:39.000Z</time>
      </trkpt>
      <trkpt lat="45.79959" lon="1.84336">
        <ele>700.8</ele>
        <time>2026-07-08T08:57:40.000Z</time>
      </trkpt>
      <trkpt lat="45.79959" lon="1.84336">
        <ele>700.8</ele>
        <time>2026-07-08T08:57:41.000Z</time>
      </trkpt>
      <trkpt lat="45.79959" lon="1.84336">
        <ele>700.8</ele>
        <time>2026-07-08T08:57:42.000Z</time>
      </trkpt>
      <trkpt lat="45.79959" lon="1.84336">
        <ele>700.7</ele>
        <time>2026-07-08T08:57:43.000Z</time>
      </trkpt>
      <trkpt lat="45.79961" lon="1.84336">
        <ele>700.8</ele>
        <time>2026-07-08T08:57:44.000Z</time>
      </trkpt>
      <trkpt lat="45.79962" lon="1.84336">
        <ele>701.1</ele>
        <time>2026-07-08T08:57:45.000Z</time>
      </trkpt>
      <trkpt lat="45.79964" lon="1.84335">
        <ele>701.3</ele>
        <time>2026-07-08T08:57:46.000Z</time>
      </trkpt>
      <trkpt lat="45.79965" lon="1.84333">
        <ele>701.5</ele>
        <time>2026-07-08T08:57:47.000Z</time>
      </trkpt>
      <trkpt lat="45.79967" lon="1.84331">
        <ele>701.6</ele>
        <time>2026-07-08T08:57:48.000Z</time>
      </trkpt>
      <trkpt lat="45.79967" lon="1.84329">
        <ele>701.8</ele>
        <time>2026-07-08T08:57:49.000Z</time>
      </trkpt>
      <trkpt lat="45.79968" lon="1.84326">
        <ele>701.8</ele>
        <time>2026-07-08T08:57:50.000Z</time>
      </trkpt>
      <trkpt lat="45.79967" lon="1.84324">
        <ele>702.3</ele>
        <time>2026-07-08T08:57:51.000Z</time>
      </trkpt>
      <trkpt lat="45.79967" lon="1.84321">
        <ele>702.6</ele>
        <time>2026-07-08T08:57:52.000Z</time>
      </trkpt>
      <trkpt lat="45.79966" lon="1.84319">
        <ele>702.7</ele>
        <time>2026-07-08T08:57:53.000Z</time>
      </trkpt>
      <trkpt lat="45.79965" lon="1.84317">
        <ele>702.6</ele>
        <time>2026-07-08T08:57:54.000Z</time>
      </trkpt>
      <trkpt lat="45.79965" lon="1.84314">
        <ele>703.2</ele>
        <time>2026-07-08T08:57:55.000Z</time>
      </trkpt>
      <trkpt lat="45.79965" lon="1.84312">
        <ele>703.7</ele>
        <time>2026-07-08T08:57:56.000Z</time>
      </trkpt>
      <trkpt lat="45.79964" lon="1.8431">
        <ele>703.4</ele>
        <time>2026-07-08T08:57:57.000Z</time>
      </trkpt>
      <trkpt lat="45.79963" lon="1.84308">
        <ele>703.7</ele>
        <time>2026-07-08T08:57:58.000Z</time>
      </trkpt>
      <trkpt lat="45.79962" lon="1.84307">
        <ele>703.9</ele>
        <time>2026-07-08T08:57:59.000Z</time>
      </trkpt>
      <trkpt lat="45.7996" lon="1.84305">
        <ele>704</ele>
        <time>2026-07-08T08:58:00.000Z</time>
      </trkpt>
      <trkpt lat="45.79959" lon="1.84304">
        <ele>703.9</ele>
        <time>2026-07-08T08:58:01.000Z</time>
      </trkpt>
      <trkpt lat="45.79958" lon="1.84303">
        <ele>704.3</ele>
        <time>2026-07-08T08:58:02.000Z</time>
      </trkpt>
      <trkpt lat="45.79956" lon="1.84302">
        <ele>704.5</ele>
        <time>2026-07-08T08:58:03.000Z</time>
      </trkpt>
      <trkpt lat="45.79954" lon="1.84301">
        <ele>704.8</ele>
        <time>2026-07-08T08:58:04.000Z</time>
      </trkpt>
      <trkpt lat="45.79953" lon="1.843">
        <ele>704.7</ele>
        <time>2026-07-08T08:58:05.000Z</time>
      </trkpt>
      <trkpt lat="45.79951" lon="1.84299">
        <ele>704.8</ele>
        <time>2026-07-08T08:58:06.000Z</time>
      </trkpt>
      <trkpt lat="45.7995" lon="1.84297">
        <ele>705.2</ele>
        <time>2026-07-08T08:58:07.000Z</time>
      </trkpt>
      <trkpt lat="45.79948" lon="1.84296">
        <ele>705.3</ele>
        <time>2026-07-08T08:58:08.000Z</time>
      </trkpt>
      <trkpt lat="45.79947" lon="1.84295">
        <ele>705.5</ele>
        <time>2026-07-08T08:58:09.000Z</time>
      </trkpt>
      <trkpt lat="45.79945" lon="1.84294">
        <ele>705.7</ele>
        <time>2026-07-08T08:58:10.000Z</time>
      </trkpt>
      <trkpt lat="45.79944" lon="1.84292">
        <ele>705.8</ele>
        <time>2026-07-08T08:58:11.000Z</time>
      </trkpt>
      <trkpt lat="45.79943" lon="1.84291">
        <ele>705.7</ele>
        <time>2026-07-08T08:58:12.000Z</time>
      </trkpt>
      <trkpt lat="45.79941" lon="1.84289">
        <ele>706.1</ele>
        <time>2026-07-08T08:58:13.000Z</time>
      </trkpt>
      <trkpt lat="45.7994" lon="1.84288">
        <ele>706.4</ele>
        <time>2026-07-08T08:58:14.000Z</time>
      </trkpt>
      <trkpt lat="45.79939" lon="1.84287">
        <ele>706.4</ele>
        <time>2026-07-08T08:58:15.000Z</time>
      </trkpt>
      <trkpt lat="45.79937" lon="1.84287">
        <ele>706.7</ele>
        <time>2026-07-08T08:58:16.000Z</time>
      </trkpt>
      <trkpt lat="45.79935" lon="1.84287">
        <ele>706.6</ele>
        <time>2026-07-08T08:58:17.000Z</time>
      </trkpt>
      <trkpt lat="45.79935" lon="1.84287">
        <ele>706.4</ele>
        <time>2026-07-08T08:58:18.000Z</time>
      </trkpt>
      <trkpt lat="45.79933" lon="1.84287">
        <ele>706.2</ele>
        <time>2026-07-08T08:58:19.000Z</time>
      </trkpt>
      <trkpt lat="45.79932" lon="1.84287">
        <ele>706.1</ele>
        <time>2026-07-08T08:58:20.000Z</time>
      </trkpt>
      <trkpt lat="45.7993" lon="1.84287">
        <ele>706</ele>
        <time>2026-07-08T08:58:21.000Z</time>
      </trkpt>
      <trkpt lat="45.79929" lon="1.84287">
        <ele>705.8</ele>
        <time>2026-07-08T08:58:22.000Z</time>
      </trkpt>
      <trkpt lat="45.79927" lon="1.84286">
        <ele>706</ele>
        <time>2026-07-08T08:58:23.000Z</time>
      </trkpt>
      <trkpt lat="45.79925" lon="1.84284">
        <ele>705.6</ele>
        <time>2026-07-08T08:58:24.000Z</time>
      </trkpt>
      <trkpt lat="45.79924" lon="1.84283">
        <ele>705.9</ele>
        <time>2026-07-08T08:58:25.000Z</time>
      </trkpt>
      <trkpt lat="45.79923" lon="1.84281">
        <ele>706.3</ele>
        <time>2026-07-08T08:58:26.000Z</time>
      </trkpt>
      <trkpt lat="45.79921" lon="1.84279">
        <ele>706.7</ele>
        <time>2026-07-08T08:58:27.000Z</time>
      </trkpt>
      <trkpt lat="45.79919" lon="1.84278">
        <ele>706.6</ele>
        <time>2026-07-08T08:58:28.000Z</time>
      </trkpt>
      <trkpt lat="45.79916" lon="1.84276">
        <ele>706.6</ele>
        <time>2026-07-08T08:58:29.000Z</time>
      </trkpt>
      <trkpt lat="45.79914" lon="1.84275">
        <ele>706.1</ele>
        <time>2026-07-08T08:58:30.000Z</time>
      </trkpt>
      <trkpt lat="45.79911" lon="1.84275">
        <ele>705.9</ele>
        <time>2026-07-08T08:58:31.000Z</time>
      </trkpt>
      <trkpt lat="45.79909" lon="1.84273">
        <ele>706.5</ele>
        <time>2026-07-08T08:58:32.000Z</time>
      </trkpt>
      <trkpt lat="45.79906" lon="1.84273">
        <ele>704.7</ele>
        <time>2026-07-08T08:58:33.000Z</time>
      </trkpt>
      <trkpt lat="45.79904" lon="1.84274">
        <ele>704.5</ele>
        <time>2026-07-08T08:58:34.000Z</time>
      </trkpt>
      <trkpt lat="45.79901" lon="1.84274">
        <ele>704</ele>
        <time>2026-07-08T08:58:35.000Z</time>
      </trkpt>
      <trkpt lat="45.79899" lon="1.84275">
        <ele>704.5</ele>
        <time>2026-07-08T08:58:36.000Z</time>
      </trkpt>
      <trkpt lat="45.79896" lon="1.84275">
        <ele>704.6</ele>
        <time>2026-07-08T08:58:37.000Z</time>
      </trkpt>
      <trkpt lat="45.79893" lon="1.84274">
        <ele>705.2</ele>
        <time>2026-07-08T08:58:38.000Z</time>
      </trkpt>
      <trkpt lat="45.7989" lon="1.84274">
        <ele>705.2</ele>
        <time>2026-07-08T08:58:39.000Z</time>
      </trkpt>
      <trkpt lat="45.79887" lon="1.84274">
        <ele>705.3</ele>
        <time>2026-07-08T08:58:40.000Z</time>
      </trkpt>
      <trkpt lat="45.79884" lon="1.84274">
        <ele>703.7</ele>
        <time>2026-07-08T08:58:41.000Z</time>
      </trkpt>
      <trkpt lat="45.79881" lon="1.84274">
        <ele>703</ele>
        <time>2026-07-08T08:58:42.000Z</time>
      </trkpt>
      <trkpt lat="45.79879" lon="1.84273">
        <ele>702.4</ele>
        <time>2026-07-08T08:58:43.000Z</time>
      </trkpt>
      <trkpt lat="45.79876" lon="1.84272">
        <ele>701.7</ele>
        <time>2026-07-08T08:58:44.000Z</time>
      </trkpt>
      <trkpt lat="45.79873" lon="1.84272">
        <ele>701.4</ele>
        <time>2026-07-08T08:58:45.000Z</time>
      </trkpt>
      <trkpt lat="45.7987" lon="1.84272">
        <ele>702.2</ele>
        <time>2026-07-08T08:58:46.000Z</time>
      </trkpt>
      <trkpt lat="45.79867" lon="1.84272">
        <ele>703.9</ele>
        <time>2026-07-08T08:58:47.000Z</time>
      </trkpt>
      <trkpt lat="45.79864" lon="1.84272">
        <ele>704.4</ele>
        <time>2026-07-08T08:58:48.000Z</time>
      </trkpt>
      <trkpt lat="45.79859" lon="1.84273">
        <ele>704.1</ele>
        <time>2026-07-08T08:58:49.000Z</time>
      </trkpt>
      <trkpt lat="45.79855" lon="1.84273">
        <ele>702.6</ele>
        <time>2026-07-08T08:58:50.000Z</time>
      </trkpt>
      <trkpt lat="45.7985" lon="1.84274">
        <ele>702.5</ele>
        <time>2026-07-08T08:58:51.000Z</time>
      </trkpt>
      <trkpt lat="45.79846" lon="1.84275">
        <ele>702.5</ele>
        <time>2026-07-08T08:58:52.000Z</time>
      </trkpt>
      <trkpt lat="45.7984" lon="1.84274">
        <ele>701.6</ele>
        <time>2026-07-08T08:58:53.000Z</time>
      </trkpt>
      <trkpt lat="45.79836" lon="1.84274">
        <ele>701.4</ele>
        <time>2026-07-08T08:58:54.000Z</time>
      </trkpt>
      <trkpt lat="45.79832" lon="1.84274">
        <ele>701.1</ele>
        <time>2026-07-08T08:58:55.000Z</time>
      </trkpt>
      <trkpt lat="45.79828" lon="1.84273">
        <ele>701.1</ele>
        <time>2026-07-08T08:58:56.000Z</time>
      </trkpt>
      <trkpt lat="45.79825" lon="1.84272">
        <ele>701.3</ele>
        <time>2026-07-08T08:58:57.000Z</time>
      </trkpt>
      <trkpt lat="45.79821" lon="1.84272">
        <ele>701.2</ele>
        <time>2026-07-08T08:58:58.000Z</time>
      </trkpt>
      <trkpt lat="45.79817" lon="1.84273">
        <ele>701.4</ele>
        <time>2026-07-08T08:58:59.000Z</time>
      </trkpt>
      <trkpt lat="45.79813" lon="1.84275">
        <ele>701.4</ele>
        <time>2026-07-08T08:59:00.000Z</time>
      </trkpt>
      <trkpt lat="45.7981" lon="1.84278">
        <ele>701.5</ele>
        <time>2026-07-08T08:59:01.000Z</time>
      </trkpt>
      <trkpt lat="45.79805" lon="1.8428">
        <ele>701.5</ele>
        <time>2026-07-08T08:59:02.000Z</time>
      </trkpt>
      <trkpt lat="45.79802" lon="1.84281">
        <ele>700.4</ele>
        <time>2026-07-08T08:59:03.000Z</time>
      </trkpt>
      <trkpt lat="45.79798" lon="1.84283">
        <ele>699.7</ele>
        <time>2026-07-08T08:59:04.000Z</time>
      </trkpt>
      <trkpt lat="45.79794" lon="1.84287">
        <ele>698.3</ele>
        <time>2026-07-08T08:59:05.000Z</time>
      </trkpt>
      <trkpt lat="45.7979" lon="1.8429">
        <ele>697.5</ele>
        <time>2026-07-08T08:59:06.000Z</time>
      </trkpt>
      <trkpt lat="45.79787" lon="1.84292">
        <ele>698</ele>
        <time>2026-07-08T08:59:07.000Z</time>
      </trkpt>
      <trkpt lat="45.79783" lon="1.84296">
        <ele>699</ele>
        <time>2026-07-08T08:59:08.000Z</time>
      </trkpt>
      <trkpt lat="45.79778" lon="1.84299">
        <ele>699.8</ele>
        <time>2026-07-08T08:59:09.000Z</time>
      </trkpt>
      <trkpt lat="45.79773" lon="1.84303">
        <ele>701.1</ele>
        <time>2026-07-08T08:59:10.000Z</time>
      </trkpt>
      <trkpt lat="45.79769" lon="1.84306">
        <ele>701.7</ele>
        <time>2026-07-08T08:59:11.000Z</time>
      </trkpt>
      <trkpt lat="45.79766" lon="1.84309">
        <ele>701.9</ele>
        <time>2026-07-08T08:59:12.000Z</time>
      </trkpt>
      <trkpt lat="45.79764" lon="1.84313">
        <ele>703</ele>
        <time>2026-07-08T08:59:13.000Z</time>
      </trkpt>
      <trkpt lat="45.79762" lon="1.84316">
        <ele>703.2</ele>
        <time>2026-07-08T08:59:14.000Z</time>
      </trkpt>
      <trkpt lat="45.79762" lon="1.8432">
        <ele>705.8</ele>
        <time>2026-07-08T08:59:15.000Z</time>
      </trkpt>
      <trkpt lat="45.7976" lon="1.84324">
        <ele>705.8</ele>
        <time>2026-07-08T08:59:16.000Z</time>
      </trkpt>
      <trkpt lat="45.7976" lon="1.84329">
        <ele>706.9</ele>
        <time>2026-07-08T08:59:17.000Z</time>
      </trkpt>
      <trkpt lat="45.7976" lon="1.84332">
        <ele>707.5</ele>
        <time>2026-07-08T08:59:18.000Z</time>
      </trkpt>
      <trkpt lat="45.79761" lon="1.84335">
        <ele>709.1</ele>
        <time>2026-07-08T08:59:19.000Z</time>
      </trkpt>
      <trkpt lat="45.79761" lon="1.84337">
        <ele>710.3</ele>
        <time>2026-07-08T08:59:20.000Z</time>
      </trkpt>
      <trkpt lat="45.79761" lon="1.8434">
        <ele>711</ele>
        <time>2026-07-08T08:59:21.000Z</time>
      </trkpt>
      <trkpt lat="45.79761" lon="1.84343">
        <ele>710.8</ele>
        <time>2026-07-08T08:59:22.000Z</time>
      </trkpt>
      <trkpt lat="45.79761" lon="1.84346">
        <ele>710.9</ele>
        <time>2026-07-08T08:59:23.000Z</time>
      </trkpt>
      <trkpt lat="45.79761" lon="1.84349">
        <ele>710</ele>
        <time>2026-07-08T08:59:24.000Z</time>
      </trkpt>
      <trkpt lat="45.79762" lon="1.84352">
        <ele>709.6</ele>
        <time>2026-07-08T08:59:25.000Z</time>
      </trkpt>
      <trkpt lat="45.79762" lon="1.84355">
        <ele>709.3</ele>
        <time>2026-07-08T08:59:26.000Z</time>
      </trkpt>
      <trkpt lat="45.79763" lon="1.84357">
        <ele>709.6</ele>
        <time>2026-07-08T08:59:27.000Z</time>
      </trkpt>
      <trkpt lat="45.79763" lon="1.8436">
        <ele>709.9</ele>
        <time>2026-07-08T08:59:28.000Z</time>
      </trkpt>
      <trkpt lat="45.79764" lon="1.84363">
        <ele>709.1</ele>
        <time>2026-07-08T08:59:29.000Z</time>
      </trkpt>
      <trkpt lat="45.79764" lon="1.84367">
        <ele>708.9</ele>
        <time>2026-07-08T08:59:30.000Z</time>
      </trkpt>
      <trkpt lat="45.79763" lon="1.84371">
        <ele>709</ele>
        <time>2026-07-08T08:59:31.000Z</time>
      </trkpt>
      <trkpt lat="45.79763" lon="1.84375">
        <ele>709.2</ele>
        <time>2026-07-08T08:59:32.000Z</time>
      </trkpt>
      <trkpt lat="45.79763" lon="1.84379">
        <ele>709.1</ele>
        <time>2026-07-08T08:59:33.000Z</time>
      </trkpt>
      <trkpt lat="45.79762" lon="1.84383">
        <ele>709.4</ele>
        <time>2026-07-08T08:59:34.000Z</time>
      </trkpt>
      <trkpt lat="45.79761" lon="1.84388">
        <ele>709.2</ele>
        <time>2026-07-08T08:59:35.000Z</time>
      </trkpt>
      <trkpt lat="45.79759" lon="1.84392">
        <ele>708</ele>
        <time>2026-07-08T08:59:36.000Z</time>
      </trkpt>
      <trkpt lat="45.79758" lon="1.84396">
        <ele>708.3</ele>
        <time>2026-07-08T08:59:37.000Z</time>
      </trkpt>
      <trkpt lat="45.79758" lon="1.844">
        <ele>707.9</ele>
        <time>2026-07-08T08:59:38.000Z</time>
      </trkpt>
      <trkpt lat="45.79757" lon="1.84404">
        <ele>707.5</ele>
        <time>2026-07-08T08:59:39.000Z</time>
      </trkpt>
      <trkpt lat="45.79755" lon="1.8441">
        <ele>705.8</ele>
        <time>2026-07-08T08:59:40.000Z</time>
      </trkpt>
      <trkpt lat="45.79753" lon="1.84418">
        <ele>705.7</ele>
        <time>2026-07-08T08:59:41.000Z</time>
      </trkpt>
      <trkpt lat="45.79752" lon="1.84427">
        <ele>704.4</ele>
        <time>2026-07-08T08:59:42.000Z</time>
      </trkpt>
      <trkpt lat="45.7975" lon="1.84434">
        <ele>703.2</ele>
        <time>2026-07-08T08:59:43.000Z</time>
      </trkpt>
      <trkpt lat="45.79749" lon="1.84441">
        <ele>703</ele>
        <time>2026-07-08T08:59:44.000Z</time>
      </trkpt>
      <trkpt lat="45.79748" lon="1.84445">
        <ele>703.8</ele>
        <time>2026-07-08T08:59:45.000Z</time>
      </trkpt>
      <trkpt lat="45.79746" lon="1.84449">
        <ele>702.5</ele>
        <time>2026-07-08T08:59:46.000Z</time>
      </trkpt>
      <trkpt lat="45.79745" lon="1.84454">
        <ele>703</ele>
        <time>2026-07-08T08:59:47.000Z</time>
      </trkpt>
      <trkpt lat="45.79744" lon="1.84458">
        <ele>703.2</ele>
        <time>2026-07-08T08:59:48.000Z</time>
      </trkpt>
      <trkpt lat="45.79743" lon="1.84462">
        <ele>704</ele>
        <time>2026-07-08T08:59:49.000Z</time>
      </trkpt>
      <trkpt lat="45.79742" lon="1.84467">
        <ele>704.2</ele>
        <time>2026-07-08T08:59:50.000Z</time>
      </trkpt>
      <trkpt lat="45.79741" lon="1.84473">
        <ele>704.6</ele>
        <time>2026-07-08T08:59:51.000Z</time>
      </trkpt>
      <trkpt lat="45.79741" lon="1.8448">
        <ele>705.8</ele>
        <time>2026-07-08T08:59:52.000Z</time>
      </trkpt>
      <trkpt lat="45.79741" lon="1.84488">
        <ele>709.2</ele>
        <time>2026-07-08T08:59:53.000Z</time>
      </trkpt>
      <trkpt lat="45.79741" lon="1.84495">
        <ele>708.9</ele>
        <time>2026-07-08T08:59:54.000Z</time>
      </trkpt>
      <trkpt lat="45.79741" lon="1.84501">
        <ele>709.3</ele>
        <time>2026-07-08T08:59:55.000Z</time>
      </trkpt>
      <trkpt lat="45.79741" lon="1.84507">
        <ele>709.3</ele>
        <time>2026-07-08T08:59:56.000Z</time>
      </trkpt>
      <trkpt lat="45.79742" lon="1.84511">
        <ele>710</ele>
        <time>2026-07-08T08:59:57.000Z</time>
      </trkpt>
      <trkpt lat="45.79743" lon="1.84514">
        <ele>709.5</ele>
        <time>2026-07-08T08:59:58.000Z</time>
      </trkpt>
      <trkpt lat="45.79745" lon="1.84518">
        <ele>709.3</ele>
        <time>2026-07-08T08:59:59.000Z</time>
      </trkpt>
      <trkpt lat="45.79746" lon="1.84523">
        <ele>708.9</ele>
        <time>2026-07-08T09:00:00.000Z</time>
      </trkpt>
      <trkpt lat="45.79746" lon="1.84527">
        <ele>709.6</ele>
        <time>2026-07-08T09:00:01.000Z</time>
      </trkpt>
      <trkpt lat="45.79746" lon="1.84531">
        <ele>709.7</ele>
        <time>2026-07-08T09:00:02.000Z</time>
      </trkpt>
      <trkpt lat="45.79745" lon="1.84536">
        <ele>709.7</ele>
        <time>2026-07-08T09:00:03.000Z</time>
      </trkpt>
      <trkpt lat="45.79745" lon="1.8454">
        <ele>709.9</ele>
        <time>2026-07-08T09:00:04.000Z</time>
      </trkpt>
      <trkpt lat="45.79744" lon="1.84544">
        <ele>710.1</ele>
        <time>2026-07-08T09:00:05.000Z</time>
      </trkpt>
      <trkpt lat="45.79744" lon="1.84548">
        <ele>710.6</ele>
        <time>2026-07-08T09:00:06.000Z</time>
      </trkpt>
      <trkpt lat="45.79743" lon="1.84552">
        <ele>708.3</ele>
        <time>2026-07-08T09:00:07.000Z</time>
      </trkpt>
      <trkpt lat="45.79743" lon="1.84555">
        <ele>708.9</ele>
        <time>2026-07-08T09:00:08.000Z</time>
      </trkpt>
      <trkpt lat="45.79742" lon="1.84561">
        <ele>710.7</ele>
        <time>2026-07-08T09:00:09.000Z</time>
      </trkpt>
      <trkpt lat="45.7974" lon="1.84568">
        <ele>709.4</ele>
        <time>2026-07-08T09:00:10.000Z</time>
      </trkpt>
      <trkpt lat="45.79738" lon="1.84576">
        <ele>711.6</ele>
        <time>2026-07-08T09:00:11.000Z</time>
      </trkpt>
      <trkpt lat="45.79736" lon="1.84584">
        <ele>711.9</ele>
        <time>2026-07-08T09:00:12.000Z</time>
      </trkpt>
      <trkpt lat="45.79734" lon="1.84591">
        <ele>712.8</ele>
        <time>2026-07-08T09:00:13.000Z</time>
      </trkpt>
      <trkpt lat="45.79732" lon="1.84598">
        <ele>712.8</ele>
        <time>2026-07-08T09:00:14.000Z</time>
      </trkpt>
      <trkpt lat="45.7973" lon="1.84604">
        <ele>712.4</ele>
        <time>2026-07-08T09:00:15.000Z</time>
      </trkpt>
      <trkpt lat="45.79728" lon="1.84611">
        <ele>712.5</ele>
        <time>2026-07-08T09:00:16.000Z</time>
      </trkpt>
      <trkpt lat="45.79726" lon="1.84615">
        <ele>712.1</ele>
        <time>2026-07-08T09:00:17.000Z</time>
      </trkpt>
      <trkpt lat="45.79724" lon="1.84621">
        <ele>711.5</ele>
        <time>2026-07-08T09:00:18.000Z</time>
      </trkpt>
      <trkpt lat="45.79722" lon="1.84627">
        <ele>710.6</ele>
        <time>2026-07-08T09:00:19.000Z</time>
      </trkpt>
      <trkpt lat="45.79721" lon="1.84632">
        <ele>709.3</ele>
        <time>2026-07-08T09:00:20.000Z</time>
      </trkpt>
      <trkpt lat="45.7972" lon="1.84638">
        <ele>707.2</ele>
        <time>2026-07-08T09:00:21.000Z</time>
      </trkpt>
      <trkpt lat="45.79719" lon="1.84642">
        <ele>706.9</ele>
        <time>2026-07-08T09:00:22.000Z</time>
      </trkpt>
      <trkpt lat="45.79717" lon="1.84646">
        <ele>706.6</ele>
        <time>2026-07-08T09:00:23.000Z</time>
      </trkpt>
      <trkpt lat="45.79717" lon="1.84651">
        <ele>707.3</ele>
        <time>2026-07-08T09:00:24.000Z</time>
      </trkpt>
      <trkpt lat="45.79716" lon="1.84657">
        <ele>707.5</ele>
        <time>2026-07-08T09:00:25.000Z</time>
      </trkpt>
      <trkpt lat="45.79714" lon="1.84666">
        <ele>708.7</ele>
        <time>2026-07-08T09:00:26.000Z</time>
      </trkpt>
      <trkpt lat="45.79709" lon="1.84672">
        <ele>708.5</ele>
        <time>2026-07-08T09:00:27.000Z</time>
      </trkpt>
      <trkpt lat="45.79706" lon="1.84679">
        <ele>709.4</ele>
        <time>2026-07-08T09:00:28.000Z</time>
      </trkpt>
      <trkpt lat="45.79703" lon="1.84686">
        <ele>709.6</ele>
        <time>2026-07-08T09:00:29.000Z</time>
      </trkpt>
      <trkpt lat="45.79701" lon="1.84691">
        <ele>709.5</ele>
        <time>2026-07-08T09:00:30.000Z</time>
      </trkpt>
      <trkpt lat="45.79699" lon="1.84696">
        <ele>709.7</ele>
        <time>2026-07-08T09:00:31.000Z</time>
      </trkpt>
      <trkpt lat="45.79699" lon="1.84697">
        <ele>708.5</ele>
        <time>2026-07-08T09:00:32.000Z</time>
      </trkpt>
      <trkpt lat="45.79699" lon="1.84699">
        <ele>708.3</ele>
        <time>2026-07-08T09:00:33.000Z</time>
      </trkpt>
      <trkpt lat="45.79699" lon="1.84702">
        <ele>708</ele>
        <time>2026-07-08T09:00:34.000Z</time>
      </trkpt>
      <trkpt lat="45.797" lon="1.84706">
        <ele>708.3</ele>
        <time>2026-07-08T09:00:35.000Z</time>
      </trkpt>
      <trkpt lat="45.797" lon="1.84711">
        <ele>707.7</ele>
        <time>2026-07-08T09:00:36.000Z</time>
      </trkpt>
      <trkpt lat="45.797" lon="1.84716">
        <ele>707.4</ele>
        <time>2026-07-08T09:00:37.000Z</time>
      </trkpt>
      <trkpt lat="45.797" lon="1.84721">
        <ele>706.8</ele>
        <time>2026-07-08T09:00:38.000Z</time>
      </trkpt>
      <trkpt lat="45.797" lon="1.84725">
        <ele>706.7</ele>
        <time>2026-07-08T09:00:39.000Z</time>
      </trkpt>
      <trkpt lat="45.797" lon="1.84728">
        <ele>706.7</ele>
        <time>2026-07-08T09:00:40.000Z</time>
      </trkpt>
      <trkpt lat="45.797" lon="1.84731">
        <ele>706.8</ele>
        <time>2026-07-08T09:00:41.000Z</time>
      </trkpt>
      <trkpt lat="45.797" lon="1.84732">
        <ele>707.9</ele>
        <time>2026-07-08T09:00:42.000Z</time>
      </trkpt>
      <trkpt lat="45.797" lon="1.84733">
        <ele>708.8</ele>
        <time>2026-07-08T09:00:43.000Z</time>
      </trkpt>
      <trkpt lat="45.797" lon="1.84735">
        <ele>710.5</ele>
        <time>2026-07-08T09:00:44.000Z</time>
      </trkpt>
      <trkpt lat="45.797" lon="1.84738">
        <ele>710.9</ele>
        <time>2026-07-08T09:00:45.000Z</time>
      </trkpt>
      <trkpt lat="45.797" lon="1.8474">
        <ele>711.2</ele>
        <time>2026-07-08T09:00:46.000Z</time>
      </trkpt>
      <trkpt lat="45.797" lon="1.84743">
        <ele>710.6</ele>
        <time>2026-07-08T09:00:47.000Z</time>
      </trkpt>
      <trkpt lat="45.797" lon="1.84745">
        <ele>710.6</ele>
        <time>2026-07-08T09:00:48.000Z</time>
      </trkpt>
      <trkpt lat="45.79699" lon="1.84747">
        <ele>712</ele>
        <time>2026-07-08T09:00:49.000Z</time>
      </trkpt>
      <trkpt lat="45.79699" lon="1.8475">
        <ele>712.4</ele>
        <time>2026-07-08T09:00:50.000Z</time>
      </trkpt>
      <trkpt lat="45.79698" lon="1.84752">
        <ele>711.2</ele>
        <time>2026-07-08T09:00:51.000Z</time>
      </trkpt>
      <trkpt lat="45.79697" lon="1.84754">
        <ele>709.4</ele>
        <time>2026-07-08T09:00:52.000Z</time>
      </trkpt>
      <trkpt lat="45.79696" lon="1.84756">
        <ele>707.7</ele>
        <time>2026-07-08T09:00:53.000Z</time>
      </trkpt>
      <trkpt lat="45.79696" lon="1.84758">
        <ele>707.7</ele>
        <time>2026-07-08T09:00:54.000Z</time>
      </trkpt>
      <trkpt lat="45.79695" lon="1.84761">
        <ele>708.4</ele>
        <time>2026-07-08T09:00:55.000Z</time>
      </trkpt>
      <trkpt lat="45.79694" lon="1.84764">
        <ele>708.6</ele>
        <time>2026-07-08T09:00:56.000Z</time>
      </trkpt>
      <trkpt lat="45.79694" lon="1.84766">
        <ele>708.1</ele>
        <time>2026-07-08T09:00:57.000Z</time>
      </trkpt>
      <trkpt lat="45.79694" lon="1.84769">
        <ele>708.5</ele>
        <time>2026-07-08T09:00:58.000Z</time>
      </trkpt>
      <trkpt lat="45.79694" lon="1.84772">
        <ele>708.7</ele>
        <time>2026-07-08T09:00:59.000Z</time>
      </trkpt>
      <trkpt lat="45.79693" lon="1.84774">
        <ele>709.5</ele>
        <time>2026-07-08T09:01:00.000Z</time>
      </trkpt>
      <trkpt lat="45.79692" lon="1.84776">
        <ele>711.3</ele>
        <time>2026-07-08T09:01:01.000Z</time>
      </trkpt>
      <trkpt lat="45.79691" lon="1.84778">
        <ele>712.3</ele>
        <time>2026-07-08T09:01:02.000Z</time>
      </trkpt>
      <trkpt lat="45.7969" lon="1.8478">
        <ele>711.8</ele>
        <time>2026-07-08T09:01:03.000Z</time>
      </trkpt>
      <trkpt lat="45.79689" lon="1.84782">
        <ele>712.4</ele>
        <time>2026-07-08T09:01:04.000Z</time>
      </trkpt>
      <trkpt lat="45.79688" lon="1.84784">
        <ele>712.6</ele>
        <time>2026-07-08T09:01:05.000Z</time>
      </trkpt>
      <trkpt lat="45.79687" lon="1.84787">
        <ele>711.9</ele>
        <time>2026-07-08T09:01:06.000Z</time>
      </trkpt>
      <trkpt lat="45.79687" lon="1.84789">
        <ele>711.7</ele>
        <time>2026-07-08T09:01:07.000Z</time>
      </trkpt>
      <trkpt lat="45.79686" lon="1.84792">
        <ele>711.5</ele>
        <time>2026-07-08T09:01:08.000Z</time>
      </trkpt>
      <trkpt lat="45.79686" lon="1.84794">
        <ele>711.2</ele>
        <time>2026-07-08T09:01:09.000Z</time>
      </trkpt>
      <trkpt lat="45.79685" lon="1.84797">
        <ele>711.4</ele>
        <time>2026-07-08T09:01:10.000Z</time>
      </trkpt>
      <trkpt lat="45.79685" lon="1.848">
        <ele>710.9</ele>
        <time>2026-07-08T09:01:11.000Z</time>
      </trkpt>
      <trkpt lat="45.79685" lon="1.84803">
        <ele>712.1</ele>
        <time>2026-07-08T09:01:12.000Z</time>
      </trkpt>
      <trkpt lat="45.79684" lon="1.84806">
        <ele>712.7</ele>
        <time>2026-07-08T09:01:13.000Z</time>
      </trkpt>
      <trkpt lat="45.79683" lon="1.84808">
        <ele>713.3</ele>
        <time>2026-07-08T09:01:14.000Z</time>
      </trkpt>
      <trkpt lat="45.79682" lon="1.84812">
        <ele>713.1</ele>
        <time>2026-07-08T09:01:15.000Z</time>
      </trkpt>
      <trkpt lat="45.79681" lon="1.84815">
        <ele>712.9</ele>
        <time>2026-07-08T09:01:16.000Z</time>
      </trkpt>
      <trkpt lat="45.7968" lon="1.84817">
        <ele>712.6</ele>
        <time>2026-07-08T09:01:17.000Z</time>
      </trkpt>
      <trkpt lat="45.79679" lon="1.84819">
        <ele>712.7</ele>
        <time>2026-07-08T09:01:18.000Z</time>
      </trkpt>
      <trkpt lat="45.79678" lon="1.84821">
        <ele>712</ele>
        <time>2026-07-08T09:01:19.000Z</time>
      </trkpt>
      <trkpt lat="45.79677" lon="1.84823">
        <ele>711</ele>
        <time>2026-07-08T09:01:20.000Z</time>
      </trkpt>
      <trkpt lat="45.79677" lon="1.84826">
        <ele>710.9</ele>
        <time>2026-07-08T09:01:21.000Z</time>
      </trkpt>
      <trkpt lat="45.79676" lon="1.84829">
        <ele>710.5</ele>
        <time>2026-07-08T09:01:22.000Z</time>
      </trkpt>
      <trkpt lat="45.79675" lon="1.84831">
        <ele>710.9</ele>
        <time>2026-07-08T09:01:23.000Z</time>
      </trkpt>
      <trkpt lat="45.79675" lon="1.84833">
        <ele>709.3</ele>
        <time>2026-07-08T09:01:24.000Z</time>
      </trkpt>
      <trkpt lat="45.79674" lon="1.84836">
        <ele>709.4</ele>
        <time>2026-07-08T09:01:25.000Z</time>
      </trkpt>
      <trkpt lat="45.79673" lon="1.84838">
        <ele>708.8</ele>
        <time>2026-07-08T09:01:26.000Z</time>
      </trkpt>
      <trkpt lat="45.79672" lon="1.8484">
        <ele>708.8</ele>
        <time>2026-07-08T09:01:27.000Z</time>
      </trkpt>
      <trkpt lat="45.79671" lon="1.84842">
        <ele>708.7</ele>
        <time>2026-07-08T09:01:28.000Z</time>
      </trkpt>
      <trkpt lat="45.7967" lon="1.84845">
        <ele>709.5</ele>
        <time>2026-07-08T09:01:29.000Z</time>
      </trkpt>
      <trkpt lat="45.79669" lon="1.84847">
        <ele>709.2</ele>
        <time>2026-07-08T09:01:30.000Z</time>
      </trkpt>
      <trkpt lat="45.79668" lon="1.8485">
        <ele>709</ele>
        <time>2026-07-08T09:01:31.000Z</time>
      </trkpt>
      <trkpt lat="45.79667" lon="1.84852">
        <ele>709.2</ele>
        <time>2026-07-08T09:01:32.000Z</time>
      </trkpt>
      <trkpt lat="45.79666" lon="1.84854">
        <ele>709.2</ele>
        <time>2026-07-08T09:01:33.000Z</time>
      </trkpt>
      <trkpt lat="45.79665" lon="1.84856">
        <ele>709.7</ele>
        <time>2026-07-08T09:01:34.000Z</time>
      </trkpt>
      <trkpt lat="45.79665" lon="1.84857">
        <ele>709.6</ele>
        <time>2026-07-08T09:01:35.000Z</time>
      </trkpt>
      <trkpt lat="45.79664" lon="1.84859">
        <ele>709.3</ele>
        <time>2026-07-08T09:01:36.000Z</time>
      </trkpt>
      <trkpt lat="45.79663" lon="1.8486">
        <ele>708.5</ele>
        <time>2026-07-08T09:01:37.000Z</time>
      </trkpt>
      <trkpt lat="45.79663" lon="1.84862">
        <ele>708.6</ele>
        <time>2026-07-08T09:01:38.000Z</time>
      </trkpt>
      <trkpt lat="45.79662" lon="1.84864">
        <ele>708.5</ele>
        <time>2026-07-08T09:01:39.000Z</time>
      </trkpt>
      <trkpt lat="45.79662" lon="1.84866">
        <ele>709.3</ele>
        <time>2026-07-08T09:01:40.000Z</time>
      </trkpt>
      <trkpt lat="45.79661" lon="1.84868">
        <ele>708.7</ele>
        <time>2026-07-08T09:01:41.000Z</time>
      </trkpt>
      <trkpt lat="45.7966" lon="1.8487">
        <ele>710.6</ele>
        <time>2026-07-08T09:01:42.000Z</time>
      </trkpt>
      <trkpt lat="45.79659" lon="1.84872">
        <ele>710</ele>
        <time>2026-07-08T09:01:43.000Z</time>
      </trkpt>
      <trkpt lat="45.79659" lon="1.84875">
        <ele>710.6</ele>
        <time>2026-07-08T09:01:44.000Z</time>
      </trkpt>
      <trkpt lat="45.79659" lon="1.84879">
        <ele>711.9</ele>
        <time>2026-07-08T09:01:45.000Z</time>
      </trkpt>
      <trkpt lat="45.79658" lon="1.84882">
        <ele>712.9</ele>
        <time>2026-07-08T09:01:46.000Z</time>
      </trkpt>
      <trkpt lat="45.79657" lon="1.84885">
        <ele>712.9</ele>
        <time>2026-07-08T09:01:47.000Z</time>
      </trkpt>
      <trkpt lat="45.79657" lon="1.84887">
        <ele>712.4</ele>
        <time>2026-07-08T09:01:48.000Z</time>
      </trkpt>
      <trkpt lat="45.79656" lon="1.8489">
        <ele>711.9</ele>
        <time>2026-07-08T09:01:49.000Z</time>
      </trkpt>
      <trkpt lat="45.79655" lon="1.84892">
        <ele>712.4</ele>
        <time>2026-07-08T09:01:50.000Z</time>
      </trkpt>
      <trkpt lat="45.79654" lon="1.84895">
        <ele>712</ele>
        <time>2026-07-08T09:01:51.000Z</time>
      </trkpt>
      <trkpt lat="45.79654" lon="1.84897">
        <ele>713.4</ele>
        <time>2026-07-08T09:01:52.000Z</time>
      </trkpt>
      <trkpt lat="45.79653" lon="1.84899">
        <ele>713.6</ele>
        <time>2026-07-08T09:01:53.000Z</time>
      </trkpt>
      <trkpt lat="45.79652" lon="1.84901">
        <ele>713.8</ele>
        <time>2026-07-08T09:01:54.000Z</time>
      </trkpt>
      <trkpt lat="45.79651" lon="1.84904">
        <ele>713.2</ele>
        <time>2026-07-08T09:01:55.000Z</time>
      </trkpt>
      <trkpt lat="45.7965" lon="1.84906">
        <ele>712.7</ele>
        <time>2026-07-08T09:01:56.000Z</time>
      </trkpt>
      <trkpt lat="45.79649" lon="1.84908">
        <ele>712.7</ele>
        <time>2026-07-08T09:01:57.000Z</time>
      </trkpt>
      <trkpt lat="45.79647" lon="1.8491">
        <ele>712.9</ele>
        <time>2026-07-08T09:01:58.000Z</time>
      </trkpt>
      <trkpt lat="45.79646" lon="1.84912">
        <ele>712.6</ele>
        <time>2026-07-08T09:01:59.000Z</time>
      </trkpt>
      <trkpt lat="45.79645" lon="1.84914">
        <ele>711.5</ele>
        <time>2026-07-08T09:02:00.000Z</time>
      </trkpt>
      <trkpt lat="45.79645" lon="1.84917">
        <ele>710.1</ele>
        <time>2026-07-08T09:02:01.000Z</time>
      </trkpt>
      <trkpt lat="45.79645" lon="1.84919">
        <ele>709.9</ele>
        <time>2026-07-08T09:02:02.000Z</time>
      </trkpt>
      <trkpt lat="45.79644" lon="1.84922">
        <ele>709.7</ele>
        <time>2026-07-08T09:02:03.000Z</time>
      </trkpt>
      <trkpt lat="45.79644" lon="1.84924">
        <ele>709.6</ele>
        <time>2026-07-08T09:02:04.000Z</time>
      </trkpt>
      <trkpt lat="45.79643" lon="1.84926">
        <ele>709.7</ele>
        <time>2026-07-08T09:02:05.000Z</time>
      </trkpt>
      <trkpt lat="45.79642" lon="1.84928">
        <ele>708.4</ele>
        <time>2026-07-08T09:02:06.000Z</time>
      </trkpt>
      <trkpt lat="45.79641" lon="1.8493">
        <ele>708.5</ele>
        <time>2026-07-08T09:02:07.000Z</time>
      </trkpt>
      <trkpt lat="45.79639" lon="1.84932">
        <ele>707.6</ele>
        <time>2026-07-08T09:02:08.000Z</time>
      </trkpt>
      <trkpt lat="45.79638" lon="1.84933">
        <ele>706.7</ele>
        <time>2026-07-08T09:02:09.000Z</time>
      </trkpt>
      <trkpt lat="45.79637" lon="1.84935">
        <ele>706.8</ele>
        <time>2026-07-08T09:02:10.000Z</time>
      </trkpt>
      <trkpt lat="45.79637" lon="1.84937">
        <ele>706.9</ele>
        <time>2026-07-08T09:02:11.000Z</time>
      </trkpt>
      <trkpt lat="45.79636" lon="1.84939">
        <ele>706.2</ele>
        <time>2026-07-08T09:02:12.000Z</time>
      </trkpt>
      <trkpt lat="45.79636" lon="1.84941">
        <ele>706.5</ele>
        <time>2026-07-08T09:02:13.000Z</time>
      </trkpt>
      <trkpt lat="45.79635" lon="1.84943">
        <ele>706.7</ele>
        <time>2026-07-08T09:02:14.000Z</time>
      </trkpt>
      <trkpt lat="45.79634" lon="1.84944">
        <ele>706.3</ele>
        <time>2026-07-08T09:02:15.000Z</time>
      </trkpt>
      <trkpt lat="45.79634" lon="1.84946">
        <ele>706.2</ele>
        <time>2026-07-08T09:02:16.000Z</time>
      </trkpt>
      <trkpt lat="45.79634" lon="1.84948">
        <ele>706.2</ele>
        <time>2026-07-08T09:02:17.000Z</time>
      </trkpt>
      <trkpt lat="45.79633" lon="1.8495">
        <ele>706.3</ele>
        <time>2026-07-08T09:02:18.000Z</time>
      </trkpt>
      <trkpt lat="45.79632" lon="1.84953">
        <ele>706.8</ele>
        <time>2026-07-08T09:02:19.000Z</time>
      </trkpt>
      <trkpt lat="45.79631" lon="1.84955">
        <ele>706.1</ele>
        <time>2026-07-08T09:02:20.000Z</time>
      </trkpt>
      <trkpt lat="45.7963" lon="1.84957">
        <ele>705.9</ele>
        <time>2026-07-08T09:02:21.000Z</time>
      </trkpt>
      <trkpt lat="45.79629" lon="1.84959">
        <ele>706.2</ele>
        <time>2026-07-08T09:02:22.000Z</time>
      </trkpt>
      <trkpt lat="45.79628" lon="1.84961">
        <ele>706.6</ele>
        <time>2026-07-08T09:02:23.000Z</time>
      </trkpt>
      <trkpt lat="45.79627" lon="1.84963">
        <ele>706.7</ele>
        <time>2026-07-08T09:02:24.000Z</time>
      </trkpt>
      <trkpt lat="45.79626" lon="1.84965">
        <ele>707.5</ele>
        <time>2026-07-08T09:02:25.000Z</time>
      </trkpt>
      <trkpt lat="45.79624" lon="1.84966">
        <ele>706.5</ele>
        <time>2026-07-08T09:02:26.000Z</time>
      </trkpt>
      <trkpt lat="45.79623" lon="1.84967">
        <ele>707</ele>
        <time>2026-07-08T09:02:27.000Z</time>
      </trkpt>
      <trkpt lat="45.79621" lon="1.84968">
        <ele>706.2</ele>
        <time>2026-07-08T09:02:28.000Z</time>
      </trkpt>
      <trkpt lat="45.79619" lon="1.84969">
        <ele>706</ele>
        <time>2026-07-08T09:02:29.000Z</time>
      </trkpt>
      <trkpt lat="45.79618" lon="1.8497">
        <ele>706.4</ele>
        <time>2026-07-08T09:02:30.000Z</time>
      </trkpt>
      <trkpt lat="45.79615" lon="1.8497">
        <ele>706.2</ele>
        <time>2026-07-08T09:02:31.000Z</time>
      </trkpt>
      <trkpt lat="45.79614" lon="1.84971">
        <ele>707.4</ele>
        <time>2026-07-08T09:02:32.000Z</time>
      </trkpt>
      <trkpt lat="45.79612" lon="1.84973">
        <ele>708.9</ele>
        <time>2026-07-08T09:02:33.000Z</time>
      </trkpt>
      <trkpt lat="45.79613" lon="1.84973">
        <ele>709.7</ele>
        <time>2026-07-08T09:02:34.000Z</time>
      </trkpt>
      <trkpt lat="45.79613" lon="1.84974">
        <ele>710</ele>
        <time>2026-07-08T09:02:35.000Z</time>
      </trkpt>
      <trkpt lat="45.79609" lon="1.84975">
        <ele>710.3</ele>
        <time>2026-07-08T09:02:36.000Z</time>
      </trkpt>
      <trkpt lat="45.79606" lon="1.84975">
        <ele>709.6</ele>
        <time>2026-07-08T09:02:37.000Z</time>
      </trkpt>
      <trkpt lat="45.79603" lon="1.84975">
        <ele>708.9</ele>
        <time>2026-07-08T09:02:38.000Z</time>
      </trkpt>
      <trkpt lat="45.796" lon="1.84975">
        <ele>707.7</ele>
        <time>2026-07-08T09:02:39.000Z</time>
      </trkpt>
      <trkpt lat="45.79598" lon="1.84975">
        <ele>707</ele>
        <time>2026-07-08T09:02:40.000Z</time>
      </trkpt>
      <trkpt lat="45.79596" lon="1.84977">
        <ele>707.9</ele>
        <time>2026-07-08T09:02:41.000Z</time>
      </trkpt>
      <trkpt lat="45.79594" lon="1.84978">
        <ele>708.5</ele>
        <time>2026-07-08T09:02:42.000Z</time>
      </trkpt>
      <trkpt lat="45.79592" lon="1.84979">
        <ele>709</ele>
        <time>2026-07-08T09:02:43.000Z</time>
      </trkpt>
      <trkpt lat="45.7959" lon="1.8498">
        <ele>709.9</ele>
        <time>2026-07-08T09:02:44.000Z</time>
      </trkpt>
      <trkpt lat="45.79589" lon="1.84982">
        <ele>709.9</ele>
        <time>2026-07-08T09:02:45.000Z</time>
      </trkpt>
      <trkpt lat="45.79587" lon="1.84983">
        <ele>710.2</ele>
        <time>2026-07-08T09:02:46.000Z</time>
      </trkpt>
      <trkpt lat="45.79585" lon="1.84985">
        <ele>710.5</ele>
        <time>2026-07-08T09:02:47.000Z</time>
      </trkpt>
      <trkpt lat="45.79583" lon="1.84986">
        <ele>710.4</ele>
        <time>2026-07-08T09:02:48.000Z</time>
      </trkpt>
      <trkpt lat="45.79582" lon="1.84988">
        <ele>711.6</ele>
        <time>2026-07-08T09:02:49.000Z</time>
      </trkpt>
      <trkpt lat="45.7958" lon="1.8499">
        <ele>711.2</ele>
        <time>2026-07-08T09:02:50.000Z</time>
      </trkpt>
      <trkpt lat="45.79579" lon="1.84993">
        <ele>710.3</ele>
        <time>2026-07-08T09:02:51.000Z</time>
      </trkpt>
      <trkpt lat="45.79578" lon="1.84995">
        <ele>711.5</ele>
        <time>2026-07-08T09:02:52.000Z</time>
      </trkpt>
      <trkpt lat="45.79577" lon="1.84997">
        <ele>712.3</ele>
        <time>2026-07-08T09:02:53.000Z</time>
      </trkpt>
      <trkpt lat="45.79576" lon="1.84999">
        <ele>712.3</ele>
        <time>2026-07-08T09:02:54.000Z</time>
      </trkpt>
      <trkpt lat="45.79575" lon="1.85">
        <ele>712.9</ele>
        <time>2026-07-08T09:02:55.000Z</time>
      </trkpt>
      <trkpt lat="45.79573" lon="1.85002">
        <ele>713</ele>
        <time>2026-07-08T09:02:56.000Z</time>
      </trkpt>
      <trkpt lat="45.79571" lon="1.85002">
        <ele>713</ele>
        <time>2026-07-08T09:02:57.000Z</time>
      </trkpt>
      <trkpt lat="45.7957" lon="1.85003">
        <ele>711.9</ele>
        <time>2026-07-08T09:02:58.000Z</time>
      </trkpt>
      <trkpt lat="45.79569" lon="1.85004">
        <ele>712.3</ele>
        <time>2026-07-08T09:02:59.000Z</time>
      </trkpt>
      <trkpt lat="45.79569" lon="1.85007">
        <ele>713.2</ele>
        <time>2026-07-08T09:03:00.000Z</time>
      </trkpt>
      <trkpt lat="45.79569" lon="1.8501">
        <ele>711.7</ele>
        <time>2026-07-08T09:03:01.000Z</time>
      </trkpt>
      <trkpt lat="45.79569" lon="1.85012">
        <ele>712</ele>
        <time>2026-07-08T09:03:02.000Z</time>
      </trkpt>
      <trkpt lat="45.79569" lon="1.85015">
        <ele>712.6</ele>
        <time>2026-07-08T09:03:03.000Z</time>
      </trkpt>
      <trkpt lat="45.79569" lon="1.85017">
        <ele>713</ele>
        <time>2026-07-08T09:03:04.000Z</time>
      </trkpt>
      <trkpt lat="45.79569" lon="1.8502">
        <ele>712.1</ele>
        <time>2026-07-08T09:03:05.000Z</time>
      </trkpt>
      <trkpt lat="45.79569" lon="1.85023">
        <ele>711.9</ele>
        <time>2026-07-08T09:03:06.000Z</time>
      </trkpt>
      <trkpt lat="45.79568" lon="1.85026">
        <ele>711.5</ele>
        <time>2026-07-08T09:03:07.000Z</time>
      </trkpt>
      <trkpt lat="45.79567" lon="1.85028">
        <ele>711</ele>
        <time>2026-07-08T09:03:08.000Z</time>
      </trkpt>
      <trkpt lat="45.79566" lon="1.8503">
        <ele>710</ele>
        <time>2026-07-08T09:03:09.000Z</time>
      </trkpt>
      <trkpt lat="45.79565" lon="1.85031">
        <ele>708.3</ele>
        <time>2026-07-08T09:03:10.000Z</time>
      </trkpt>
      <trkpt lat="45.79565" lon="1.85032">
        <ele>707.2</ele>
        <time>2026-07-08T09:03:11.000Z</time>
      </trkpt>
      <trkpt lat="45.79564" lon="1.85034">
        <ele>706.5</ele>
        <time>2026-07-08T09:03:12.000Z</time>
      </trkpt>
      <trkpt lat="45.79564" lon="1.85036">
        <ele>705.7</ele>
        <time>2026-07-08T09:03:13.000Z</time>
      </trkpt>
      <trkpt lat="45.79565" lon="1.85038">
        <ele>705.8</ele>
        <time>2026-07-08T09:03:14.000Z</time>
      </trkpt>
      <trkpt lat="45.79564" lon="1.8504">
        <ele>705.9</ele>
        <time>2026-07-08T09:03:15.000Z</time>
      </trkpt>
      <trkpt lat="45.79564" lon="1.85042">
        <ele>705.9</ele>
        <time>2026-07-08T09:03:16.000Z</time>
      </trkpt>
      <trkpt lat="45.79563" lon="1.85044">
        <ele>705.2</ele>
        <time>2026-07-08T09:03:17.000Z</time>
      </trkpt>
      <trkpt lat="45.79563" lon="1.85045">
        <ele>705.4</ele>
        <time>2026-07-08T09:03:18.000Z</time>
      </trkpt>
      <trkpt lat="45.79562" lon="1.85047">
        <ele>705.4</ele>
        <time>2026-07-08T09:03:19.000Z</time>
      </trkpt>
      <trkpt lat="45.79561" lon="1.85049">
        <ele>704.8</ele>
        <time>2026-07-08T09:03:20.000Z</time>
      </trkpt>
      <trkpt lat="45.7956" lon="1.8505">
        <ele>703.6</ele>
        <time>2026-07-08T09:03:21.000Z</time>
      </trkpt>
      <trkpt lat="45.7956" lon="1.85052">
        <ele>704</ele>
        <time>2026-07-08T09:03:22.000Z</time>
      </trkpt>
      <trkpt lat="45.79559" lon="1.85054">
        <ele>704.9</ele>
        <time>2026-07-08T09:03:23.000Z</time>
      </trkpt>
      <trkpt lat="45.79558" lon="1.85056">
        <ele>705.8</ele>
        <time>2026-07-08T09:03:24.000Z</time>
      </trkpt>
      <trkpt lat="45.79557" lon="1.85058">
        <ele>705.5</ele>
        <time>2026-07-08T09:03:25.000Z</time>
      </trkpt>
      <trkpt lat="45.79556" lon="1.8506">
        <ele>705.9</ele>
        <time>2026-07-08T09:03:26.000Z</time>
      </trkpt>
      <trkpt lat="45.79555" lon="1.85062">
        <ele>705.5</ele>
        <time>2026-07-08T09:03:27.000Z</time>
      </trkpt>
      <trkpt lat="45.79554" lon="1.85063">
        <ele>705.7</ele>
        <time>2026-07-08T09:03:28.000Z</time>
      </trkpt>
      <trkpt lat="45.79552" lon="1.85064">
        <ele>706</ele>
        <time>2026-07-08T09:03:29.000Z</time>
      </trkpt>
      <trkpt lat="45.79551" lon="1.85065">
        <ele>705.3</ele>
        <time>2026-07-08T09:03:30.000Z</time>
      </trkpt>
      <trkpt lat="45.7955" lon="1.85068">
        <ele>704.5</ele>
        <time>2026-07-08T09:03:31.000Z</time>
      </trkpt>
      <trkpt lat="45.79549" lon="1.85069">
        <ele>704.1</ele>
        <time>2026-07-08T09:03:32.000Z</time>
      </trkpt>
      <trkpt lat="45.79547" lon="1.8507">
        <ele>703.8</ele>
        <time>2026-07-08T09:03:33.000Z</time>
      </trkpt>
      <trkpt lat="45.79546" lon="1.85073">
        <ele>704.2</ele>
        <time>2026-07-08T09:03:34.000Z</time>
      </trkpt>
      <trkpt lat="45.79545" lon="1.85075">
        <ele>704.8</ele>
        <time>2026-07-08T09:03:35.000Z</time>
      </trkpt>
      <trkpt lat="45.79543" lon="1.85077">
        <ele>704.7</ele>
        <time>2026-07-08T09:03:36.000Z</time>
      </trkpt>
      <trkpt lat="45.79542" lon="1.85081">
        <ele>705.8</ele>
        <time>2026-07-08T09:03:37.000Z</time>
      </trkpt>
      <trkpt lat="45.79542" lon="1.85086">
        <ele>707.8</ele>
        <time>2026-07-08T09:03:38.000Z</time>
      </trkpt>
      <trkpt lat="45.79542" lon="1.8509">
        <ele>708.8</ele>
        <time>2026-07-08T09:03:39.000Z</time>
      </trkpt>
      <trkpt lat="45.79543" lon="1.85093">
        <ele>709.9</ele>
        <time>2026-07-08T09:03:40.000Z</time>
      </trkpt>
      <trkpt lat="45.79543" lon="1.85096">
        <ele>711.2</ele>
        <time>2026-07-08T09:03:41.000Z</time>
      </trkpt>
      <trkpt lat="45.79541" lon="1.85098">
        <ele>711.5</ele>
        <time>2026-07-08T09:03:42.000Z</time>
      </trkpt>
      <trkpt lat="45.79538" lon="1.851">
        <ele>712.2</ele>
        <time>2026-07-08T09:03:43.000Z</time>
      </trkpt>
      <trkpt lat="45.79536" lon="1.85101">
        <ele>711.9</ele>
        <time>2026-07-08T09:03:44.000Z</time>
      </trkpt>
      <trkpt lat="45.79535" lon="1.85102">
        <ele>711.8</ele>
        <time>2026-07-08T09:03:45.000Z</time>
      </trkpt>
      <trkpt lat="45.79534" lon="1.85103">
        <ele>711.1</ele>
        <time>2026-07-08T09:03:46.000Z</time>
      </trkpt>
      <trkpt lat="45.79532" lon="1.85105">
        <ele>711.7</ele>
        <time>2026-07-08T09:03:47.000Z</time>
      </trkpt>
      <trkpt lat="45.79531" lon="1.85106">
        <ele>711.9</ele>
        <time>2026-07-08T09:03:48.000Z</time>
      </trkpt>
      <trkpt lat="45.7953" lon="1.85108">
        <ele>711.6</ele>
        <time>2026-07-08T09:03:49.000Z</time>
      </trkpt>
      <trkpt lat="45.79529" lon="1.8511">
        <ele>712.1</ele>
        <time>2026-07-08T09:03:50.000Z</time>
      </trkpt>
      <trkpt lat="45.79528" lon="1.85111">
        <ele>711.9</ele>
        <time>2026-07-08T09:03:51.000Z</time>
      </trkpt>
      <trkpt lat="45.79527" lon="1.85112">
        <ele>712.1</ele>
        <time>2026-07-08T09:03:52.000Z</time>
      </trkpt>
      <trkpt lat="45.79526" lon="1.85114">
        <ele>712</ele>
        <time>2026-07-08T09:03:53.000Z</time>
      </trkpt>
      <trkpt lat="45.79525" lon="1.85115">
        <ele>711.3</ele>
        <time>2026-07-08T09:03:54.000Z</time>
      </trkpt>
      <trkpt lat="45.79523" lon="1.85117">
        <ele>711.6</ele>
        <time>2026-07-08T09:03:55.000Z</time>
      </trkpt>
      <trkpt lat="45.79522" lon="1.85118">
        <ele>711.4</ele>
        <time>2026-07-08T09:03:56.000Z</time>
      </trkpt>
      <trkpt lat="45.79521" lon="1.8512">
        <ele>711.9</ele>
        <time>2026-07-08T09:03:57.000Z</time>
      </trkpt>
      <trkpt lat="45.7952" lon="1.85121">
        <ele>712</ele>
        <time>2026-07-08T09:03:58.000Z</time>
      </trkpt>
      <trkpt lat="45.79519" lon="1.85123">
        <ele>712</ele>
        <time>2026-07-08T09:03:59.000Z</time>
      </trkpt>
      <trkpt lat="45.79518" lon="1.85125">
        <ele>711.8</ele>
        <time>2026-07-08T09:04:00.000Z</time>
      </trkpt>
      <trkpt lat="45.79517" lon="1.85127">
        <ele>711.9</ele>
        <time>2026-07-08T09:04:01.000Z</time>
      </trkpt>
      <trkpt lat="45.79516" lon="1.85128">
        <ele>711.4</ele>
        <time>2026-07-08T09:04:02.000Z</time>
      </trkpt>
      <trkpt lat="45.79515" lon="1.8513">
        <ele>711.6</ele>
        <time>2026-07-08T09:04:03.000Z</time>
      </trkpt>
      <trkpt lat="45.79514" lon="1.85132">
        <ele>711.8</ele>
        <time>2026-07-08T09:04:04.000Z</time>
      </trkpt>
      <trkpt lat="45.79513" lon="1.85133">
        <ele>712.2</ele>
        <time>2026-07-08T09:04:05.000Z</time>
      </trkpt>
      <trkpt lat="45.79512" lon="1.85135">
        <ele>711.9</ele>
        <time>2026-07-08T09:04:06.000Z</time>
      </trkpt>
      <trkpt lat="45.79511" lon="1.85137">
        <ele>711.7</ele>
        <time>2026-07-08T09:04:07.000Z</time>
      </trkpt>
      <trkpt lat="45.79511" lon="1.85139">
        <ele>711.8</ele>
        <time>2026-07-08T09:04:08.000Z</time>
      </trkpt>
      <trkpt lat="45.7951" lon="1.85141">
        <ele>711.3</ele>
        <time>2026-07-08T09:04:09.000Z</time>
      </trkpt>
      <trkpt lat="45.79509" lon="1.85143">
        <ele>710.4</ele>
        <time>2026-07-08T09:04:10.000Z</time>
      </trkpt>
      <trkpt lat="45.79508" lon="1.85144">
        <ele>709.9</ele>
        <time>2026-07-08T09:04:11.000Z</time>
      </trkpt>
      <trkpt lat="45.79507" lon="1.85146">
        <ele>710.2</ele>
        <time>2026-07-08T09:04:12.000Z</time>
      </trkpt>
      <trkpt lat="45.79505" lon="1.85147">
        <ele>710.3</ele>
        <time>2026-07-08T09:04:13.000Z</time>
      </trkpt>
      <trkpt lat="45.79504" lon="1.85148">
        <ele>710.3</ele>
        <time>2026-07-08T09:04:14.000Z</time>
      </trkpt>
      <trkpt lat="45.79502" lon="1.8515">
        <ele>711.4</ele>
        <time>2026-07-08T09:04:15.000Z</time>
      </trkpt>
      <trkpt lat="45.79501" lon="1.85151">
        <ele>709.4</ele>
        <time>2026-07-08T09:04:16.000Z</time>
      </trkpt>
      <trkpt lat="45.79498" lon="1.85153">
        <ele>709.7</ele>
        <time>2026-07-08T09:04:17.000Z</time>
      </trkpt>
      <trkpt lat="45.79496" lon="1.85154">
        <ele>709.6</ele>
        <time>2026-07-08T09:04:18.000Z</time>
      </trkpt>
      <trkpt lat="45.79494" lon="1.85156">
        <ele>709.1</ele>
        <time>2026-07-08T09:04:19.000Z</time>
      </trkpt>
      <trkpt lat="45.79491" lon="1.85157">
        <ele>709.4</ele>
        <time>2026-07-08T09:04:20.000Z</time>
      </trkpt>
      <trkpt lat="45.79489" lon="1.85157">
        <ele>708.7</ele>
        <time>2026-07-08T09:04:21.000Z</time>
      </trkpt>
      <trkpt lat="45.79486" lon="1.85157">
        <ele>707.7</ele>
        <time>2026-07-08T09:04:22.000Z</time>
      </trkpt>
      <trkpt lat="45.79484" lon="1.85156">
        <ele>707.3</ele>
        <time>2026-07-08T09:04:23.000Z</time>
      </trkpt>
      <trkpt lat="45.79482" lon="1.85157">
        <ele>706.9</ele>
        <time>2026-07-08T09:04:24.000Z</time>
      </trkpt>
      <trkpt lat="45.7948" lon="1.85157">
        <ele>706.8</ele>
        <time>2026-07-08T09:04:25.000Z</time>
      </trkpt>
      <trkpt lat="45.79478" lon="1.85158">
        <ele>705.6</ele>
        <time>2026-07-08T09:04:26.000Z</time>
      </trkpt>
      <trkpt lat="45.79476" lon="1.8516">
        <ele>705.4</ele>
        <time>2026-07-08T09:04:27.000Z</time>
      </trkpt>
      <trkpt lat="45.79474" lon="1.85162">
        <ele>705.7</ele>
        <time>2026-07-08T09:04:28.000Z</time>
      </trkpt>
      <trkpt lat="45.79472" lon="1.85163">
        <ele>705.8</ele>
        <time>2026-07-08T09:04:29.000Z</time>
      </trkpt>
      <trkpt lat="45.79471" lon="1.85164">
        <ele>705.3</ele>
        <time>2026-07-08T09:04:30.000Z</time>
      </trkpt>
      <trkpt lat="45.79469" lon="1.85166">
        <ele>705.3</ele>
        <time>2026-07-08T09:04:31.000Z</time>
      </trkpt>
      <trkpt lat="45.79467" lon="1.85168">
        <ele>705.8</ele>
        <time>2026-07-08T09:04:32.000Z</time>
      </trkpt>
      <trkpt lat="45.79466" lon="1.8517">
        <ele>707</ele>
        <time>2026-07-08T09:04:33.000Z</time>
      </trkpt>
      <trkpt lat="45.79465" lon="1.85172">
        <ele>707.1</ele>
        <time>2026-07-08T09:04:34.000Z</time>
      </trkpt>
      <trkpt lat="45.79464" lon="1.85173">
        <ele>707.5</ele>
        <time>2026-07-08T09:04:35.000Z</time>
      </trkpt>
      <trkpt lat="45.79463" lon="1.85175">
        <ele>709.4</ele>
        <time>2026-07-08T09:04:36.000Z</time>
      </trkpt>
      <trkpt lat="45.79462" lon="1.85177">
        <ele>708.8</ele>
        <time>2026-07-08T09:04:37.000Z</time>
      </trkpt>
      <trkpt lat="45.79461" lon="1.85178">
        <ele>708.9</ele>
        <time>2026-07-08T09:04:38.000Z</time>
      </trkpt>
      <trkpt lat="45.79459" lon="1.85179">
        <ele>708.9</ele>
        <time>2026-07-08T09:04:39.000Z</time>
      </trkpt>
      <trkpt lat="45.79458" lon="1.8518">
        <ele>708.4</ele>
        <time>2026-07-08T09:04:40.000Z</time>
      </trkpt>
      <trkpt lat="45.79456" lon="1.85182">
        <ele>709.1</ele>
        <time>2026-07-08T09:04:41.000Z</time>
      </trkpt>
      <trkpt lat="45.79455" lon="1.85183">
        <ele>709.4</ele>
        <time>2026-07-08T09:04:42.000Z</time>
      </trkpt>
      <trkpt lat="45.79454" lon="1.85185">
        <ele>709.4</ele>
        <time>2026-07-08T09:04:43.000Z</time>
      </trkpt>
      <trkpt lat="45.79454" lon="1.85187">
        <ele>710</ele>
        <time>2026-07-08T09:04:44.000Z</time>
      </trkpt>
      <trkpt lat="45.79453" lon="1.85188">
        <ele>709.6</ele>
        <time>2026-07-08T09:04:45.000Z</time>
      </trkpt>
      <trkpt lat="45.79452" lon="1.85189">
        <ele>709</ele>
        <time>2026-07-08T09:04:46.000Z</time>
      </trkpt>
      <trkpt lat="45.79451" lon="1.85192">
        <ele>709.7</ele>
        <time>2026-07-08T09:04:47.000Z</time>
      </trkpt>
      <trkpt lat="45.7945" lon="1.85194">
        <ele>710.7</ele>
        <time>2026-07-08T09:04:48.000Z</time>
      </trkpt>
      <trkpt lat="45.79449" lon="1.85196">
        <ele>710.2</ele>
        <time>2026-07-08T09:04:49.000Z</time>
      </trkpt>
      <trkpt lat="45.79448" lon="1.85199">
        <ele>710.4</ele>
        <time>2026-07-08T09:04:50.000Z</time>
      </trkpt>
      <trkpt lat="45.79447" lon="1.85201">
        <ele>709.4</ele>
        <time>2026-07-08T09:04:51.000Z</time>
      </trkpt>
      <trkpt lat="45.79446" lon="1.85204">
        <ele>708.7</ele>
        <time>2026-07-08T09:04:52.000Z</time>
      </trkpt>
      <trkpt lat="45.79444" lon="1.85206">
        <ele>707</ele>
        <time>2026-07-08T09:04:53.000Z</time>
      </trkpt>
      <trkpt lat="45.79443" lon="1.85207">
        <ele>705.9</ele>
        <time>2026-07-08T09:04:54.000Z</time>
      </trkpt>
      <trkpt lat="45.79441" lon="1.85208">
        <ele>706</ele>
        <time>2026-07-08T09:04:55.000Z</time>
      </trkpt>
      <trkpt lat="45.7944" lon="1.8521">
        <ele>707.3</ele>
        <time>2026-07-08T09:04:56.000Z</time>
      </trkpt>
      <trkpt lat="45.79439" lon="1.85212">
        <ele>707.7</ele>
        <time>2026-07-08T09:04:57.000Z</time>
      </trkpt>
      <trkpt lat="45.79438" lon="1.85213">
        <ele>708.3</ele>
        <time>2026-07-08T09:04:58.000Z</time>
      </trkpt>
      <trkpt lat="45.79436" lon="1.85214">
        <ele>708.2</ele>
        <time>2026-07-08T09:04:59.000Z</time>
      </trkpt>
      <trkpt lat="45.79434" lon="1.85215">
        <ele>708</ele>
        <time>2026-07-08T09:05:00.000Z</time>
      </trkpt>
      <trkpt lat="45.79433" lon="1.85216">
        <ele>707.8</ele>
        <time>2026-07-08T09:05:01.000Z</time>
      </trkpt>
      <trkpt lat="45.79431" lon="1.85217">
        <ele>707.5</ele>
        <time>2026-07-08T09:05:02.000Z</time>
      </trkpt>
      <trkpt lat="45.7943" lon="1.85218">
        <ele>707.7</ele>
        <time>2026-07-08T09:05:03.000Z</time>
      </trkpt>
      <trkpt lat="45.79429" lon="1.85219">
        <ele>707.5</ele>
        <time>2026-07-08T09:05:04.000Z</time>
      </trkpt>
      <trkpt lat="45.79427" lon="1.85221">
        <ele>707</ele>
        <time>2026-07-08T09:05:05.000Z</time>
      </trkpt>
      <trkpt lat="45.79425" lon="1.85222">
        <ele>706.7</ele>
        <time>2026-07-08T09:05:06.000Z</time>
      </trkpt>
      <trkpt lat="45.79424" lon="1.85223">
        <ele>705.6</ele>
        <time>2026-07-08T09:05:07.000Z</time>
      </trkpt>
      <trkpt lat="45.79422" lon="1.85223">
        <ele>704.5</ele>
        <time>2026-07-08T09:05:08.000Z</time>
      </trkpt>
      <trkpt lat="45.79421" lon="1.85224">
        <ele>703.3</ele>
        <time>2026-07-08T09:05:09.000Z</time>
      </trkpt>
      <trkpt lat="45.79419" lon="1.85225">
        <ele>703.6</ele>
        <time>2026-07-08T09:05:10.000Z</time>
      </trkpt>
      <trkpt lat="45.79418" lon="1.85227">
        <ele>702.9</ele>
        <time>2026-07-08T09:05:11.000Z</time>
      </trkpt>
      <trkpt lat="45.79417" lon="1.85228">
        <ele>702.9</ele>
        <time>2026-07-08T09:05:12.000Z</time>
      </trkpt>
      <trkpt lat="45.79416" lon="1.85229">
        <ele>701.4</ele>
        <time>2026-07-08T09:05:13.000Z</time>
      </trkpt>
      <trkpt lat="45.79415" lon="1.85231">
        <ele>700.2</ele>
        <time>2026-07-08T09:05:14.000Z</time>
      </trkpt>
      <trkpt lat="45.79413" lon="1.85232">
        <ele>699.8</ele>
        <time>2026-07-08T09:05:15.000Z</time>
      </trkpt>
      <trkpt lat="45.79412" lon="1.85232">
        <ele>698.6</ele>
        <time>2026-07-08T09:05:16.000Z</time>
      </trkpt>
      <trkpt lat="45.79411" lon="1.85233">
        <ele>698</ele>
        <time>2026-07-08T09:05:17.000Z</time>
      </trkpt>
      <trkpt lat="45.79409" lon="1.85234">
        <ele>696.7</ele>
        <time>2026-07-08T09:05:18.000Z</time>
      </trkpt>
      <trkpt lat="45.79407" lon="1.85235">
        <ele>696.7</ele>
        <time>2026-07-08T09:05:19.000Z</time>
      </trkpt>
      <trkpt lat="45.79405" lon="1.85236">
        <ele>696.1</ele>
        <time>2026-07-08T09:05:20.000Z</time>
      </trkpt>
      <trkpt lat="45.79404" lon="1.85236">
        <ele>695.3</ele>
        <time>2026-07-08T09:05:21.000Z</time>
      </trkpt>
      <trkpt lat="45.79402" lon="1.85237">
        <ele>695.3</ele>
        <time>2026-07-08T09:05:22.000Z</time>
      </trkpt>
      <trkpt lat="45.794" lon="1.85239">
        <ele>697.5</ele>
        <time>2026-07-08T09:05:23.000Z</time>
      </trkpt>
      <trkpt lat="45.79399" lon="1.85239">
        <ele>697.4</ele>
        <time>2026-07-08T09:05:24.000Z</time>
      </trkpt>
      <trkpt lat="45.79397" lon="1.8524">
        <ele>697.5</ele>
        <time>2026-07-08T09:05:25.000Z</time>
      </trkpt>
      <trkpt lat="45.79396" lon="1.85241">
        <ele>696.9</ele>
        <time>2026-07-08T09:05:26.000Z</time>
      </trkpt>
      <trkpt lat="45.79395" lon="1.85242">
        <ele>697.3</ele>
        <time>2026-07-08T09:05:27.000Z</time>
      </trkpt>
      <trkpt lat="45.79393" lon="1.85243">
        <ele>697.3</ele>
        <time>2026-07-08T09:05:28.000Z</time>
      </trkpt>
      <trkpt lat="45.79391" lon="1.85244">
        <ele>698.6</ele>
        <time>2026-07-08T09:05:29.000Z</time>
      </trkpt>
      <trkpt lat="45.79389" lon="1.85245">
        <ele>698.9</ele>
        <time>2026-07-08T09:05:30.000Z</time>
      </trkpt>
      <trkpt lat="45.79387" lon="1.85245">
        <ele>700.1</ele>
        <time>2026-07-08T09:05:31.000Z</time>
      </trkpt>
      <trkpt lat="45.79385" lon="1.85246">
        <ele>700.2</ele>
        <time>2026-07-08T09:05:32.000Z</time>
      </trkpt>
      <trkpt lat="45.79383" lon="1.85247">
        <ele>700.3</ele>
        <time>2026-07-08T09:05:33.000Z</time>
      </trkpt>
      <trkpt lat="45.79382" lon="1.85248">
        <ele>702.6</ele>
        <time>2026-07-08T09:05:34.000Z</time>
      </trkpt>
      <trkpt lat="45.7938" lon="1.85249">
        <ele>703.4</ele>
        <time>2026-07-08T09:05:35.000Z</time>
      </trkpt>
      <trkpt lat="45.79378" lon="1.85249">
        <ele>703.1</ele>
        <time>2026-07-08T09:05:36.000Z</time>
      </trkpt>
      <trkpt lat="45.79376" lon="1.85249">
        <ele>703.2</ele>
        <time>2026-07-08T09:05:37.000Z</time>
      </trkpt>
      <trkpt lat="45.79373" lon="1.8525">
        <ele>703.4</ele>
        <time>2026-07-08T09:05:38.000Z</time>
      </trkpt>
      <trkpt lat="45.79371" lon="1.85251">
        <ele>703.2</ele>
        <time>2026-07-08T09:05:39.000Z</time>
      </trkpt>
      <trkpt lat="45.79369" lon="1.85252">
        <ele>703.3</ele>
        <time>2026-07-08T09:05:40.000Z</time>
      </trkpt>
      <trkpt lat="45.79367" lon="1.85253">
        <ele>703.9</ele>
        <time>2026-07-08T09:05:41.000Z</time>
      </trkpt>
      <trkpt lat="45.79366" lon="1.85252">
        <ele>703.7</ele>
        <time>2026-07-08T09:05:42.000Z</time>
      </trkpt>
      <trkpt lat="45.79365" lon="1.85252">
        <ele>705.3</ele>
        <time>2026-07-08T09:05:43.000Z</time>
      </trkpt>
      <trkpt lat="45.79363" lon="1.85252">
        <ele>705</ele>
        <time>2026-07-08T09:05:44.000Z</time>
      </trkpt>
      <trkpt lat="45.79362" lon="1.85252">
        <ele>705.1</ele>
        <time>2026-07-08T09:05:45.000Z</time>
      </trkpt>
      <trkpt lat="45.7936" lon="1.85253">
        <ele>707.1</ele>
        <time>2026-07-08T09:05:46.000Z</time>
      </trkpt>
      <trkpt lat="45.79358" lon="1.85253">
        <ele>708.2</ele>
        <time>2026-07-08T09:05:47.000Z</time>
      </trkpt>
      <trkpt lat="45.79357" lon="1.85253">
        <ele>708.6</ele>
        <time>2026-07-08T09:05:48.000Z</time>
      </trkpt>
      <trkpt lat="45.79354" lon="1.85253">
        <ele>708</ele>
        <time>2026-07-08T09:05:49.000Z</time>
      </trkpt>
      <trkpt lat="45.79353" lon="1.85255">
        <ele>706.6</ele>
        <time>2026-07-08T09:05:50.000Z</time>
      </trkpt>
      <trkpt lat="45.79352" lon="1.85255">
        <ele>706.1</ele>
        <time>2026-07-08T09:05:51.000Z</time>
      </trkpt>
      <trkpt lat="45.7935" lon="1.85256">
        <ele>705.8</ele>
        <time>2026-07-08T09:05:52.000Z</time>
      </trkpt>
      <trkpt lat="45.79348" lon="1.85257">
        <ele>705</ele>
        <time>2026-07-08T09:05:53.000Z</time>
      </trkpt>
      <trkpt lat="45.79346" lon="1.85258">
        <ele>704.8</ele>
        <time>2026-07-08T09:05:54.000Z</time>
      </trkpt>
      <trkpt lat="45.79345" lon="1.85258">
        <ele>706.1</ele>
        <time>2026-07-08T09:05:55.000Z</time>
      </trkpt>
      <trkpt lat="45.79344" lon="1.85258">
        <ele>707</ele>
        <time>2026-07-08T09:05:56.000Z</time>
      </trkpt>
      <trkpt lat="45.79342" lon="1.85259">
        <ele>707.7</ele>
        <time>2026-07-08T09:05:57.000Z</time>
      </trkpt>
      <trkpt lat="45.79341" lon="1.85259">
        <ele>707.5</ele>
        <time>2026-07-08T09:05:58.000Z</time>
      </trkpt>
      <trkpt lat="45.79339" lon="1.85259">
        <ele>707.5</ele>
        <time>2026-07-08T09:05:59.000Z</time>
      </trkpt>
      <trkpt lat="45.79337" lon="1.85259">
        <ele>709.3</ele>
        <time>2026-07-08T09:06:00.000Z</time>
      </trkpt>
      <trkpt lat="45.79336" lon="1.85259">
        <ele>710.2</ele>
        <time>2026-07-08T09:06:01.000Z</time>
      </trkpt>
      <trkpt lat="45.79334" lon="1.8526">
        <ele>710.2</ele>
        <time>2026-07-08T09:06:02.000Z</time>
      </trkpt>
      <trkpt lat="45.79332" lon="1.8526">
        <ele>710.2</ele>
        <time>2026-07-08T09:06:03.000Z</time>
      </trkpt>
      <trkpt lat="45.7933" lon="1.85261">
        <ele>710.4</ele>
        <time>2026-07-08T09:06:04.000Z</time>
      </trkpt>
      <trkpt lat="45.79328" lon="1.85261">
        <ele>710</ele>
        <time>2026-07-08T09:06:05.000Z</time>
      </trkpt>
      <trkpt lat="45.79326" lon="1.85261">
        <ele>711.1</ele>
        <time>2026-07-08T09:06:06.000Z</time>
      </trkpt>
      <trkpt lat="45.79324" lon="1.85261">
        <ele>712.6</ele>
        <time>2026-07-08T09:06:07.000Z</time>
      </trkpt>
      <trkpt lat="45.79322" lon="1.85261">
        <ele>712.7</ele>
        <time>2026-07-08T09:06:08.000Z</time>
      </trkpt>
      <trkpt lat="45.7932" lon="1.85261">
        <ele>713.2</ele>
        <time>2026-07-08T09:06:09.000Z</time>
      </trkpt>
      <trkpt lat="45.79319" lon="1.85261">
        <ele>713.4</ele>
        <time>2026-07-08T09:06:10.000Z</time>
      </trkpt>
      <trkpt lat="45.79318" lon="1.85262">
        <ele>713.2</ele>
        <time>2026-07-08T09:06:11.000Z</time>
      </trkpt>
      <trkpt lat="45.79317" lon="1.85263">
        <ele>713.9</ele>
        <time>2026-07-08T09:06:12.000Z</time>
      </trkpt>
      <trkpt lat="45.79315" lon="1.85263">
        <ele>712.6</ele>
        <time>2026-07-08T09:06:13.000Z</time>
      </trkpt>
      <trkpt lat="45.79314" lon="1.85264">
        <ele>713.5</ele>
        <time>2026-07-08T09:06:14.000Z</time>
      </trkpt>
      <trkpt lat="45.79313" lon="1.85264">
        <ele>712.3</ele>
        <time>2026-07-08T09:06:15.000Z</time>
      </trkpt>
      <trkpt lat="45.79311" lon="1.85265">
        <ele>711.8</ele>
        <time>2026-07-08T09:06:16.000Z</time>
      </trkpt>
      <trkpt lat="45.79309" lon="1.85266">
        <ele>710.9</ele>
        <time>2026-07-08T09:06:17.000Z</time>
      </trkpt>
      <trkpt lat="45.79306" lon="1.85266">
        <ele>710.9</ele>
        <time>2026-07-08T09:06:18.000Z</time>
      </trkpt>
      <trkpt lat="45.79305" lon="1.85266">
        <ele>711.8</ele>
        <time>2026-07-08T09:06:19.000Z</time>
      </trkpt>
      <trkpt lat="45.79303" lon="1.85267">
        <ele>710.7</ele>
        <time>2026-07-08T09:06:20.000Z</time>
      </trkpt>
      <trkpt lat="45.79301" lon="1.85268">
        <ele>710.1</ele>
        <time>2026-07-08T09:06:21.000Z</time>
      </trkpt>
      <trkpt lat="45.793" lon="1.85269">
        <ele>710.4</ele>
        <time>2026-07-08T09:06:22.000Z</time>
      </trkpt>
      <trkpt lat="45.79298" lon="1.8527">
        <ele>711.2</ele>
        <time>2026-07-08T09:06:23.000Z</time>
      </trkpt>
      <trkpt lat="45.79297" lon="1.8527">
        <ele>711.9</ele>
        <time>2026-07-08T09:06:24.000Z</time>
      </trkpt>
      <trkpt lat="45.79296" lon="1.85271">
        <ele>712.2</ele>
        <time>2026-07-08T09:06:25.000Z</time>
      </trkpt>
      <trkpt lat="45.79295" lon="1.85271">
        <ele>711.4</ele>
        <time>2026-07-08T09:06:26.000Z</time>
      </trkpt>
      <trkpt lat="45.79293" lon="1.85272">
        <ele>712.5</ele>
        <time>2026-07-08T09:06:27.000Z</time>
      </trkpt>
      <trkpt lat="45.79293" lon="1.85273">
        <ele>712.6</ele>
        <time>2026-07-08T09:06:28.000Z</time>
      </trkpt>
      <trkpt lat="45.79291" lon="1.85273">
        <ele>711.9</ele>
        <time>2026-07-08T09:06:29.000Z</time>
      </trkpt>
      <trkpt lat="45.79289" lon="1.85275">
        <ele>711.6</ele>
        <time>2026-07-08T09:06:30.000Z</time>
      </trkpt>
      <trkpt lat="45.79287" lon="1.85276">
        <ele>712.6</ele>
        <time>2026-07-08T09:06:31.000Z</time>
      </trkpt>
      <trkpt lat="45.79284" lon="1.85276">
        <ele>712.5</ele>
        <time>2026-07-08T09:06:32.000Z</time>
      </trkpt>
      <trkpt lat="45.79283" lon="1.85275">
        <ele>712.3</ele>
        <time>2026-07-08T09:06:33.000Z</time>
      </trkpt>
      <trkpt lat="45.79281" lon="1.85275">
        <ele>713.9</ele>
        <time>2026-07-08T09:06:34.000Z</time>
      </trkpt>
      <trkpt lat="45.7928" lon="1.85276">
        <ele>714.3</ele>
        <time>2026-07-08T09:06:35.000Z</time>
      </trkpt>
      <trkpt lat="45.79279" lon="1.85277">
        <ele>716</ele>
        <time>2026-07-08T09:06:36.000Z</time>
      </trkpt>
      <trkpt lat="45.79278" lon="1.85279">
        <ele>715</ele>
        <time>2026-07-08T09:06:37.000Z</time>
      </trkpt>
      <trkpt lat="45.79276" lon="1.8528">
        <ele>714.1</ele>
        <time>2026-07-08T09:06:38.000Z</time>
      </trkpt>
      <trkpt lat="45.79275" lon="1.85281">
        <ele>715.2</ele>
        <time>2026-07-08T09:06:39.000Z</time>
      </trkpt>
      <trkpt lat="45.79273" lon="1.85283">
        <ele>715.5</ele>
        <time>2026-07-08T09:06:40.000Z</time>
      </trkpt>
      <trkpt lat="45.79272" lon="1.85285">
        <ele>715.1</ele>
        <time>2026-07-08T09:06:41.000Z</time>
      </trkpt>
      <trkpt lat="45.7927" lon="1.85286">
        <ele>714.5</ele>
        <time>2026-07-08T09:06:42.000Z</time>
      </trkpt>
      <trkpt lat="45.79269" lon="1.85287">
        <ele>714.1</ele>
        <time>2026-07-08T09:06:43.000Z</time>
      </trkpt>
      <trkpt lat="45.79267" lon="1.85288">
        <ele>713.8</ele>
        <time>2026-07-08T09:06:44.000Z</time>
      </trkpt>
      <trkpt lat="45.79266" lon="1.8529">
        <ele>713.3</ele>
        <time>2026-07-08T09:06:45.000Z</time>
      </trkpt>
      <trkpt lat="45.79264" lon="1.85291">
        <ele>713.7</ele>
        <time>2026-07-08T09:06:46.000Z</time>
      </trkpt>
      <trkpt lat="45.79262" lon="1.85293">
        <ele>712.5</ele>
        <time>2026-07-08T09:06:47.000Z</time>
      </trkpt>
      <trkpt lat="45.7926" lon="1.85294">
        <ele>712.9</ele>
        <time>2026-07-08T09:06:48.000Z</time>
      </trkpt>
      <trkpt lat="45.79259" lon="1.85295">
        <ele>713.5</ele>
        <time>2026-07-08T09:06:49.000Z</time>
      </trkpt>
      <trkpt lat="45.79257" lon="1.85296">
        <ele>714.2</ele>
        <time>2026-07-08T09:06:50.000Z</time>
      </trkpt>
      <trkpt lat="45.79255" lon="1.85298">
        <ele>714.9</ele>
        <time>2026-07-08T09:06:51.000Z</time>
      </trkpt>
      <trkpt lat="45.79254" lon="1.853">
        <ele>714.7</ele>
        <time>2026-07-08T09:06:52.000Z</time>
      </trkpt>
      <trkpt lat="45.79252" lon="1.85301">
        <ele>714.6</ele>
        <time>2026-07-08T09:06:53.000Z</time>
      </trkpt>
      <trkpt lat="45.79251" lon="1.85302">
        <ele>714.1</ele>
        <time>2026-07-08T09:06:54.000Z</time>
      </trkpt>
      <trkpt lat="45.7925" lon="1.85304">
        <ele>713.9</ele>
        <time>2026-07-08T09:06:55.000Z</time>
      </trkpt>
      <trkpt lat="45.79249" lon="1.85306">
        <ele>713.6</ele>
        <time>2026-07-08T09:06:56.000Z</time>
      </trkpt>
      <trkpt lat="45.79247" lon="1.85308">
        <ele>713.2</ele>
        <time>2026-07-08T09:06:57.000Z</time>
      </trkpt>
      <trkpt lat="45.79246" lon="1.85309">
        <ele>712.4</ele>
        <time>2026-07-08T09:06:58.000Z</time>
      </trkpt>
      <trkpt lat="45.79244" lon="1.8531">
        <ele>712.1</ele>
        <time>2026-07-08T09:06:59.000Z</time>
      </trkpt>
      <trkpt lat="45.79242" lon="1.85311">
        <ele>712.7</ele>
        <time>2026-07-08T09:07:00.000Z</time>
      </trkpt>
      <trkpt lat="45.7924" lon="1.85312">
        <ele>712.7</ele>
        <time>2026-07-08T09:07:01.000Z</time>
      </trkpt>
      <trkpt lat="45.79238" lon="1.85313">
        <ele>712.2</ele>
        <time>2026-07-08T09:07:02.000Z</time>
      </trkpt>
      <trkpt lat="45.79237" lon="1.85314">
        <ele>712</ele>
        <time>2026-07-08T09:07:03.000Z</time>
      </trkpt>
      <trkpt lat="45.79235" lon="1.85315">
        <ele>712.3</ele>
        <time>2026-07-08T09:07:04.000Z</time>
      </trkpt>
      <trkpt lat="45.79234" lon="1.85317">
        <ele>713.3</ele>
        <time>2026-07-08T09:07:05.000Z</time>
      </trkpt>
      <trkpt lat="45.79232" lon="1.85318">
        <ele>713.3</ele>
        <time>2026-07-08T09:07:06.000Z</time>
      </trkpt>
      <trkpt lat="45.79231" lon="1.85319">
        <ele>712.3</ele>
        <time>2026-07-08T09:07:07.000Z</time>
      </trkpt>
      <trkpt lat="45.79229" lon="1.8532">
        <ele>711.1</ele>
        <time>2026-07-08T09:07:08.000Z</time>
      </trkpt>
      <trkpt lat="45.79227" lon="1.8532">
        <ele>710.4</ele>
        <time>2026-07-08T09:07:09.000Z</time>
      </trkpt>
      <trkpt lat="45.79226" lon="1.8532">
        <ele>710.3</ele>
        <time>2026-07-08T09:07:10.000Z</time>
      </trkpt>
      <trkpt lat="45.79224" lon="1.8532">
        <ele>710.5</ele>
        <time>2026-07-08T09:07:11.000Z</time>
      </trkpt>
      <trkpt lat="45.79223" lon="1.85319">
        <ele>710</ele>
        <time>2026-07-08T09:07:12.000Z</time>
      </trkpt>
      <trkpt lat="45.79221" lon="1.85321">
        <ele>708.1</ele>
        <time>2026-07-08T09:07:13.000Z</time>
      </trkpt>
      <trkpt lat="45.79219" lon="1.85322">
        <ele>707.5</ele>
        <time>2026-07-08T09:07:14.000Z</time>
      </trkpt>
      <trkpt lat="45.79218" lon="1.85322">
        <ele>707.4</ele>
        <time>2026-07-08T09:07:15.000Z</time>
      </trkpt>
      <trkpt lat="45.79216" lon="1.85322">
        <ele>707</ele>
        <time>2026-07-08T09:07:16.000Z</time>
      </trkpt>
      <trkpt lat="45.79214" lon="1.85322">
        <ele>706</ele>
        <time>2026-07-08T09:07:17.000Z</time>
      </trkpt>
      <trkpt lat="45.79212" lon="1.85323">
        <ele>706.3</ele>
        <time>2026-07-08T09:07:18.000Z</time>
      </trkpt>
      <trkpt lat="45.79211" lon="1.85324">
        <ele>706.7</ele>
        <time>2026-07-08T09:07:19.000Z</time>
      </trkpt>
      <trkpt lat="45.79209" lon="1.85324">
        <ele>707.1</ele>
        <time>2026-07-08T09:07:20.000Z</time>
      </trkpt>
      <trkpt lat="45.79208" lon="1.85325">
        <ele>707.1</ele>
        <time>2026-07-08T09:07:21.000Z</time>
      </trkpt>
      <trkpt lat="45.79206" lon="1.85326">
        <ele>708.1</ele>
        <time>2026-07-08T09:07:22.000Z</time>
      </trkpt>
      <trkpt lat="45.79204" lon="1.85327">
        <ele>708.1</ele>
        <time>2026-07-08T09:07:23.000Z</time>
      </trkpt>
      <trkpt lat="45.79203" lon="1.85328">
        <ele>707.3</ele>
        <time>2026-07-08T09:07:24.000Z</time>
      </trkpt>
      <trkpt lat="45.79201" lon="1.85328">
        <ele>707.4</ele>
        <time>2026-07-08T09:07:25.000Z</time>
      </trkpt>
      <trkpt lat="45.79199" lon="1.85329">
        <ele>707</ele>
        <time>2026-07-08T09:07:26.000Z</time>
      </trkpt>
      <trkpt lat="45.79197" lon="1.8533">
        <ele>706.9</ele>
        <time>2026-07-08T09:07:27.000Z</time>
      </trkpt>
      <trkpt lat="45.79195" lon="1.8533">
        <ele>706.2</ele>
        <time>2026-07-08T09:07:28.000Z</time>
      </trkpt>
      <trkpt lat="45.79194" lon="1.85332">
        <ele>706.3</ele>
        <time>2026-07-08T09:07:29.000Z</time>
      </trkpt>
      <trkpt lat="45.79192" lon="1.85333">
        <ele>705.7</ele>
        <time>2026-07-08T09:07:30.000Z</time>
      </trkpt>
      <trkpt lat="45.79191" lon="1.85333">
        <ele>704.9</ele>
        <time>2026-07-08T09:07:31.000Z</time>
      </trkpt>
      <trkpt lat="45.79189" lon="1.85334">
        <ele>703.2</ele>
        <time>2026-07-08T09:07:32.000Z</time>
      </trkpt>
      <trkpt lat="45.79187" lon="1.85334">
        <ele>703.3</ele>
        <time>2026-07-08T09:07:33.000Z</time>
      </trkpt>
      <trkpt lat="45.79186" lon="1.85334">
        <ele>703.2</ele>
        <time>2026-07-08T09:07:34.000Z</time>
      </trkpt>
      <trkpt lat="45.79184" lon="1.85335">
        <ele>703.4</ele>
        <time>2026-07-08T09:07:35.000Z</time>
      </trkpt>
      <trkpt lat="45.79182" lon="1.85335">
        <ele>704.5</ele>
        <time>2026-07-08T09:07:36.000Z</time>
      </trkpt>
      <trkpt lat="45.79181" lon="1.85335">
        <ele>705.1</ele>
        <time>2026-07-08T09:07:37.000Z</time>
      </trkpt>
      <trkpt lat="45.79179" lon="1.85335">
        <ele>705.7</ele>
        <time>2026-07-08T09:07:38.000Z</time>
      </trkpt>
      <trkpt lat="45.79177" lon="1.85335">
        <ele>705.3</ele>
        <time>2026-07-08T09:07:39.000Z</time>
      </trkpt>
      <trkpt lat="45.79175" lon="1.85336">
        <ele>705.3</ele>
        <time>2026-07-08T09:07:40.000Z</time>
      </trkpt>
      <trkpt lat="45.79173" lon="1.85335">
        <ele>703.8</ele>
        <time>2026-07-08T09:07:41.000Z</time>
      </trkpt>
      <trkpt lat="45.79172" lon="1.85335">
        <ele>704.2</ele>
        <time>2026-07-08T09:07:42.000Z</time>
      </trkpt>
      <trkpt lat="45.7917" lon="1.85335">
        <ele>704.8</ele>
        <time>2026-07-08T09:07:43.000Z</time>
      </trkpt>
      <trkpt lat="45.79168" lon="1.85334">
        <ele>704.2</ele>
        <time>2026-07-08T09:07:44.000Z</time>
      </trkpt>
      <trkpt lat="45.79166" lon="1.85334">
        <ele>704.8</ele>
        <time>2026-07-08T09:07:45.000Z</time>
      </trkpt>
      <trkpt lat="45.79164" lon="1.85334">
        <ele>705.1</ele>
        <time>2026-07-08T09:07:46.000Z</time>
      </trkpt>
      <trkpt lat="45.79162" lon="1.85335">
        <ele>704.8</ele>
        <time>2026-07-08T09:07:47.000Z</time>
      </trkpt>
      <trkpt lat="45.7916" lon="1.85334">
        <ele>705.6</ele>
        <time>2026-07-08T09:07:48.000Z</time>
      </trkpt>
      <trkpt lat="45.79158" lon="1.85334">
        <ele>706.4</ele>
        <time>2026-07-08T09:07:49.000Z</time>
      </trkpt>
      <trkpt lat="45.79156" lon="1.85335">
        <ele>707.2</ele>
        <time>2026-07-08T09:07:50.000Z</time>
      </trkpt>
      <trkpt lat="45.79155" lon="1.85334">
        <ele>706.8</ele>
        <time>2026-07-08T09:07:51.000Z</time>
      </trkpt>
      <trkpt lat="45.79153" lon="1.85335">
        <ele>706.3</ele>
        <time>2026-07-08T09:07:52.000Z</time>
      </trkpt>
      <trkpt lat="45.79151" lon="1.85334">
        <ele>706.3</ele>
        <time>2026-07-08T09:07:53.000Z</time>
      </trkpt>
      <trkpt lat="45.79149" lon="1.85333">
        <ele>706.5</ele>
        <time>2026-07-08T09:07:54.000Z</time>
      </trkpt>
      <trkpt lat="45.79148" lon="1.85331">
        <ele>707</ele>
        <time>2026-07-08T09:07:55.000Z</time>
      </trkpt>
      <trkpt lat="45.79146" lon="1.85331">
        <ele>705.9</ele>
        <time>2026-07-08T09:07:56.000Z</time>
      </trkpt>
      <trkpt lat="45.79145" lon="1.85331">
        <ele>706.9</ele>
        <time>2026-07-08T09:07:57.000Z</time>
      </trkpt>
      <trkpt lat="45.79143" lon="1.85331">
        <ele>706.7</ele>
        <time>2026-07-08T09:07:58.000Z</time>
      </trkpt>
      <trkpt lat="45.79142" lon="1.85332">
        <ele>706.7</ele>
        <time>2026-07-08T09:07:59.000Z</time>
      </trkpt>
      <trkpt lat="45.7914" lon="1.85332">
        <ele>707.1</ele>
        <time>2026-07-08T09:08:00.000Z</time>
      </trkpt>
      <trkpt lat="45.79138" lon="1.85332">
        <ele>705.5</ele>
        <time>2026-07-08T09:08:01.000Z</time>
      </trkpt>
      <trkpt lat="45.79136" lon="1.85332">
        <ele>704.6</ele>
        <time>2026-07-08T09:08:02.000Z</time>
      </trkpt>
      <trkpt lat="45.79134" lon="1.85332">
        <ele>703.6</ele>
        <time>2026-07-08T09:08:03.000Z</time>
      </trkpt>
      <trkpt lat="45.79132" lon="1.85332">
        <ele>704</ele>
        <time>2026-07-08T09:08:04.000Z</time>
      </trkpt>
      <trkpt lat="45.7913" lon="1.85333">
        <ele>703.6</ele>
        <time>2026-07-08T09:08:05.000Z</time>
      </trkpt>
      <trkpt lat="45.79128" lon="1.85333">
        <ele>705.4</ele>
        <time>2026-07-08T09:08:06.000Z</time>
      </trkpt>
      <trkpt lat="45.79126" lon="1.85334">
        <ele>705.8</ele>
        <time>2026-07-08T09:08:07.000Z</time>
      </trkpt>
      <trkpt lat="45.79125" lon="1.85335">
        <ele>704.3</ele>
        <time>2026-07-08T09:08:08.000Z</time>
      </trkpt>
      <trkpt lat="45.79124" lon="1.85335">
        <ele>704.5</ele>
        <time>2026-07-08T09:08:09.000Z</time>
      </trkpt>
      <trkpt lat="45.79122" lon="1.85335">
        <ele>705.2</ele>
        <time>2026-07-08T09:08:10.000Z</time>
      </trkpt>
      <trkpt lat="45.7912" lon="1.85335">
        <ele>705.6</ele>
        <time>2026-07-08T09:08:11.000Z</time>
      </trkpt>
      <trkpt lat="45.79118" lon="1.85335">
        <ele>704.9</ele>
        <time>2026-07-08T09:08:12.000Z</time>
      </trkpt>
      <trkpt lat="45.79117" lon="1.85335">
        <ele>705.9</ele>
        <time>2026-07-08T09:08:13.000Z</time>
      </trkpt>
      <trkpt lat="45.79115" lon="1.85336">
        <ele>705</ele>
        <time>2026-07-08T09:08:14.000Z</time>
      </trkpt>
      <trkpt lat="45.79112" lon="1.85336">
        <ele>704.1</ele>
        <time>2026-07-08T09:08:15.000Z</time>
      </trkpt>
      <trkpt lat="45.79111" lon="1.85336">
        <ele>704</ele>
        <time>2026-07-08T09:08:16.000Z</time>
      </trkpt>
      <trkpt lat="45.79109" lon="1.85335">
        <ele>704.1</ele>
        <time>2026-07-08T09:08:17.000Z</time>
      </trkpt>
      <trkpt lat="45.79107" lon="1.85334">
        <ele>705.1</ele>
        <time>2026-07-08T09:08:18.000Z</time>
      </trkpt>
      <trkpt lat="45.79105" lon="1.85334">
        <ele>705</ele>
        <time>2026-07-08T09:08:19.000Z</time>
      </trkpt>
      <trkpt lat="45.79103" lon="1.85333">
        <ele>705.9</ele>
        <time>2026-07-08T09:08:20.000Z</time>
      </trkpt>
      <trkpt lat="45.79102" lon="1.85332">
        <ele>706</ele>
        <time>2026-07-08T09:08:21.000Z</time>
      </trkpt>
      <trkpt lat="45.79101" lon="1.8533">
        <ele>705.2</ele>
        <time>2026-07-08T09:08:22.000Z</time>
      </trkpt>
      <trkpt lat="45.79099" lon="1.8533">
        <ele>706.1</ele>
        <time>2026-07-08T09:08:23.000Z</time>
      </trkpt>
      <trkpt lat="45.79097" lon="1.8533">
        <ele>706.6</ele>
        <time>2026-07-08T09:08:24.000Z</time>
      </trkpt>
      <trkpt lat="45.79096" lon="1.85329">
        <ele>707</ele>
        <time>2026-07-08T09:08:25.000Z</time>
      </trkpt>
      <trkpt lat="45.79094" lon="1.85329">
        <ele>707.3</ele>
        <time>2026-07-08T09:08:26.000Z</time>
      </trkpt>
      <trkpt lat="45.79093" lon="1.85329">
        <ele>708.2</ele>
        <time>2026-07-08T09:08:27.000Z</time>
      </trkpt>
      <trkpt lat="45.79091" lon="1.85329">
        <ele>708</ele>
        <time>2026-07-08T09:08:28.000Z</time>
      </trkpt>
      <trkpt lat="45.7909" lon="1.85328">
        <ele>708.1</ele>
        <time>2026-07-08T09:08:29.000Z</time>
      </trkpt>
      <trkpt lat="45.79088" lon="1.85327">
        <ele>708.5</ele>
        <time>2026-07-08T09:08:30.000Z</time>
      </trkpt>
      <trkpt lat="45.79086" lon="1.85328">
        <ele>709.2</ele>
        <time>2026-07-08T09:08:31.000Z</time>
      </trkpt>
      <trkpt lat="45.79084" lon="1.85327">
        <ele>710.1</ele>
        <time>2026-07-08T09:08:32.000Z</time>
      </trkpt>
      <trkpt lat="45.79082" lon="1.85327">
        <ele>710.4</ele>
        <time>2026-07-08T09:08:33.000Z</time>
      </trkpt>
      <trkpt lat="45.7908" lon="1.85325">
        <ele>709.9</ele>
        <time>2026-07-08T09:08:34.000Z</time>
      </trkpt>
      <trkpt lat="45.79078" lon="1.85324">
        <ele>710</ele>
        <time>2026-07-08T09:08:35.000Z</time>
      </trkpt>
      <trkpt lat="45.79076" lon="1.85322">
        <ele>708.6</ele>
        <time>2026-07-08T09:08:36.000Z</time>
      </trkpt>
      <trkpt lat="45.79074" lon="1.8532">
        <ele>709</ele>
        <time>2026-07-08T09:08:37.000Z</time>
      </trkpt>
      <trkpt lat="45.79072" lon="1.85318">
        <ele>709</ele>
        <time>2026-07-08T09:08:38.000Z</time>
      </trkpt>
      <trkpt lat="45.79071" lon="1.85316">
        <ele>708.8</ele>
        <time>2026-07-08T09:08:39.000Z</time>
      </trkpt>
      <trkpt lat="45.79069" lon="1.85314">
        <ele>708.7</ele>
        <time>2026-07-08T09:08:40.000Z</time>
      </trkpt>
      <trkpt lat="45.79069" lon="1.85313">
        <ele>708.7</ele>
        <time>2026-07-08T09:08:41.000Z</time>
      </trkpt>
      <trkpt lat="45.79067" lon="1.85313">
        <ele>708.1</ele>
        <time>2026-07-08T09:08:42.000Z</time>
      </trkpt>
      <trkpt lat="45.79066" lon="1.85312">
        <ele>706.8</ele>
        <time>2026-07-08T09:08:43.000Z</time>
      </trkpt>
      <trkpt lat="45.79064" lon="1.85311">
        <ele>706.8</ele>
        <time>2026-07-08T09:08:44.000Z</time>
      </trkpt>
      <trkpt lat="45.79062" lon="1.85311">
        <ele>706.8</ele>
        <time>2026-07-08T09:08:45.000Z</time>
      </trkpt>
      <trkpt lat="45.79061" lon="1.8531">
        <ele>707.3</ele>
        <time>2026-07-08T09:08:46.000Z</time>
      </trkpt>
      <trkpt lat="45.79058" lon="1.8531">
        <ele>707.7</ele>
        <time>2026-07-08T09:08:47.000Z</time>
      </trkpt>
      <trkpt lat="45.79057" lon="1.85309">
        <ele>707.9</ele>
        <time>2026-07-08T09:08:48.000Z</time>
      </trkpt>
      <trkpt lat="45.79055" lon="1.85308">
        <ele>707.8</ele>
        <time>2026-07-08T09:08:49.000Z</time>
      </trkpt>
      <trkpt lat="45.79054" lon="1.85308">
        <ele>708.5</ele>
        <time>2026-07-08T09:08:50.000Z</time>
      </trkpt>
      <trkpt lat="45.79052" lon="1.85306">
        <ele>708.7</ele>
        <time>2026-07-08T09:08:51.000Z</time>
      </trkpt>
      <trkpt lat="45.79051" lon="1.85306">
        <ele>708.3</ele>
        <time>2026-07-08T09:08:52.000Z</time>
      </trkpt>
      <trkpt lat="45.7905" lon="1.85306">
        <ele>708.5</ele>
        <time>2026-07-08T09:08:53.000Z</time>
      </trkpt>
      <trkpt lat="45.79048" lon="1.85305">
        <ele>707.3</ele>
        <time>2026-07-08T09:08:54.000Z</time>
      </trkpt>
      <trkpt lat="45.79046" lon="1.85303">
        <ele>708.5</ele>
        <time>2026-07-08T09:08:55.000Z</time>
      </trkpt>
      <trkpt lat="45.79045" lon="1.85302">
        <ele>708.2</ele>
        <time>2026-07-08T09:08:56.000Z</time>
      </trkpt>
      <trkpt lat="45.79043" lon="1.85302">
        <ele>707</ele>
        <time>2026-07-08T09:08:57.000Z</time>
      </trkpt>
      <trkpt lat="45.79041" lon="1.85302">
        <ele>707.4</ele>
        <time>2026-07-08T09:08:58.000Z</time>
      </trkpt>
      <trkpt lat="45.7904" lon="1.85301">
        <ele>706.4</ele>
        <time>2026-07-08T09:08:59.000Z</time>
      </trkpt>
      <trkpt lat="45.79038" lon="1.853">
        <ele>706.7</ele>
        <time>2026-07-08T09:09:00.000Z</time>
      </trkpt>
      <trkpt lat="45.79036" lon="1.85299">
        <ele>705.9</ele>
        <time>2026-07-08T09:09:01.000Z</time>
      </trkpt>
      <trkpt lat="45.79035" lon="1.85297">
        <ele>705.9</ele>
        <time>2026-07-08T09:09:02.000Z</time>
      </trkpt>
      <trkpt lat="45.79033" lon="1.85297">
        <ele>706.1</ele>
        <time>2026-07-08T09:09:03.000Z</time>
      </trkpt>
      <trkpt lat="45.79032" lon="1.85296">
        <ele>705.3</ele>
        <time>2026-07-08T09:09:04.000Z</time>
      </trkpt>
      <trkpt lat="45.7903" lon="1.85296">
        <ele>704.8</ele>
        <time>2026-07-08T09:09:05.000Z</time>
      </trkpt>
      <trkpt lat="45.79028" lon="1.85295">
        <ele>705</ele>
        <time>2026-07-08T09:09:06.000Z</time>
      </trkpt>
      <trkpt lat="45.79026" lon="1.85294">
        <ele>704.9</ele>
        <time>2026-07-08T09:09:07.000Z</time>
      </trkpt>
      <trkpt lat="45.79024" lon="1.85293">
        <ele>706</ele>
        <time>2026-07-08T09:09:08.000Z</time>
      </trkpt>
      <trkpt lat="45.79022" lon="1.85293">
        <ele>705</ele>
        <time>2026-07-08T09:09:09.000Z</time>
      </trkpt>
      <trkpt lat="45.7902" lon="1.85292">
        <ele>704.3</ele>
        <time>2026-07-08T09:09:10.000Z</time>
      </trkpt>
      <trkpt lat="45.79018" lon="1.8529">
        <ele>704.5</ele>
        <time>2026-07-08T09:09:11.000Z</time>
      </trkpt>
      <trkpt lat="45.79016" lon="1.85289">
        <ele>704.8</ele>
        <time>2026-07-08T09:09:12.000Z</time>
      </trkpt>
      <trkpt lat="45.79014" lon="1.85288">
        <ele>705</ele>
        <time>2026-07-08T09:09:13.000Z</time>
      </trkpt>
      <trkpt lat="45.79013" lon="1.85286">
        <ele>705.1</ele>
        <time>2026-07-08T09:09:14.000Z</time>
      </trkpt>
      <trkpt lat="45.79011" lon="1.85286">
        <ele>706.7</ele>
        <time>2026-07-08T09:09:15.000Z</time>
      </trkpt>
      <trkpt lat="45.79009" lon="1.85285">
        <ele>707.7</ele>
        <time>2026-07-08T09:09:16.000Z</time>
      </trkpt>
      <trkpt lat="45.79008" lon="1.85284">
        <ele>707.9</ele>
        <time>2026-07-08T09:09:17.000Z</time>
      </trkpt>
      <trkpt lat="45.79005" lon="1.85281">
        <ele>708.3</ele>
        <time>2026-07-08T09:09:18.000Z</time>
      </trkpt>
      <trkpt lat="45.79004" lon="1.85281">
        <ele>708.6</ele>
        <time>2026-07-08T09:09:19.000Z</time>
      </trkpt>
      <trkpt lat="45.79002" lon="1.85279">
        <ele>708.4</ele>
        <time>2026-07-08T09:09:20.000Z</time>
      </trkpt>
      <trkpt lat="45.79" lon="1.85278">
        <ele>708.4</ele>
        <time>2026-07-08T09:09:21.000Z</time>
      </trkpt>
      <trkpt lat="45.78998" lon="1.85277">
        <ele>708.7</ele>
        <time>2026-07-08T09:09:22.000Z</time>
      </trkpt>
      <trkpt lat="45.78997" lon="1.85277">
        <ele>708.6</ele>
        <time>2026-07-08T09:09:23.000Z</time>
      </trkpt>
      <trkpt lat="45.78995" lon="1.85277">
        <ele>708.5</ele>
        <time>2026-07-08T09:09:24.000Z</time>
      </trkpt>
      <trkpt lat="45.78994" lon="1.85277">
        <ele>707.9</ele>
        <time>2026-07-08T09:09:25.000Z</time>
      </trkpt>
      <trkpt lat="45.78993" lon="1.85276">
        <ele>709.9</ele>
        <time>2026-07-08T09:09:26.000Z</time>
      </trkpt>
      <trkpt lat="45.78991" lon="1.85276">
        <ele>711.3</ele>
        <time>2026-07-08T09:09:27.000Z</time>
      </trkpt>
      <trkpt lat="45.78989" lon="1.85277">
        <ele>710.4</ele>
        <time>2026-07-08T09:09:28.000Z</time>
      </trkpt>
      <trkpt lat="45.78987" lon="1.85276">
        <ele>707.6</ele>
        <time>2026-07-08T09:09:29.000Z</time>
      </trkpt>
      <trkpt lat="45.78985" lon="1.85275">
        <ele>707.6</ele>
        <time>2026-07-08T09:09:30.000Z</time>
      </trkpt>
      <trkpt lat="45.78982" lon="1.85275">
        <ele>706.9</ele>
        <time>2026-07-08T09:09:31.000Z</time>
      </trkpt>
      <trkpt lat="45.78981" lon="1.85275">
        <ele>706.4</ele>
        <time>2026-07-08T09:09:32.000Z</time>
      </trkpt>
      <trkpt lat="45.78978" lon="1.85274">
        <ele>704.5</ele>
        <time>2026-07-08T09:09:33.000Z</time>
      </trkpt>
      <trkpt lat="45.78977" lon="1.85273">
        <ele>703</ele>
        <time>2026-07-08T09:09:34.000Z</time>
      </trkpt>
      <trkpt lat="45.78975" lon="1.85272">
        <ele>703.9</ele>
        <time>2026-07-08T09:09:35.000Z</time>
      </trkpt>
      <trkpt lat="45.78973" lon="1.85272">
        <ele>704.9</ele>
        <time>2026-07-08T09:09:36.000Z</time>
      </trkpt>
      <trkpt lat="45.78971" lon="1.85272">
        <ele>705.4</ele>
        <time>2026-07-08T09:09:37.000Z</time>
      </trkpt>
      <trkpt lat="45.7897" lon="1.85272">
        <ele>704.4</ele>
        <time>2026-07-08T09:09:38.000Z</time>
      </trkpt>
      <trkpt lat="45.78968" lon="1.85272">
        <ele>703.5</ele>
        <time>2026-07-08T09:09:39.000Z</time>
      </trkpt>
      <trkpt lat="45.78966" lon="1.85272">
        <ele>703.1</ele>
        <time>2026-07-08T09:09:40.000Z</time>
      </trkpt>
      <trkpt lat="45.78964" lon="1.85271">
        <ele>702.5</ele>
        <time>2026-07-08T09:09:41.000Z</time>
      </trkpt>
      <trkpt lat="45.78963" lon="1.85271">
        <ele>703</ele>
        <time>2026-07-08T09:09:42.000Z</time>
      </trkpt>
      <trkpt lat="45.78961" lon="1.85271">
        <ele>702.6</ele>
        <time>2026-07-08T09:09:43.000Z</time>
      </trkpt>
      <trkpt lat="45.78959" lon="1.85271">
        <ele>701.9</ele>
        <time>2026-07-08T09:09:44.000Z</time>
      </trkpt>
      <trkpt lat="45.78957" lon="1.85271">
        <ele>701.1</ele>
        <time>2026-07-08T09:09:45.000Z</time>
      </trkpt>
      <trkpt lat="45.78955" lon="1.8527">
        <ele>700.6</ele>
        <time>2026-07-08T09:09:46.000Z</time>
      </trkpt>
      <trkpt lat="45.78954" lon="1.8527">
        <ele>699.2</ele>
        <time>2026-07-08T09:09:47.000Z</time>
      </trkpt>
      <trkpt lat="45.78952" lon="1.85269">
        <ele>699</ele>
        <time>2026-07-08T09:09:48.000Z</time>
      </trkpt>
      <trkpt lat="45.78949" lon="1.85269">
        <ele>699.4</ele>
        <time>2026-07-08T09:09:49.000Z</time>
      </trkpt>
      <trkpt lat="45.78948" lon="1.85269">
        <ele>699.5</ele>
        <time>2026-07-08T09:09:50.000Z</time>
      </trkpt>
      <trkpt lat="45.78947" lon="1.85268">
        <ele>700.5</ele>
        <time>2026-07-08T09:09:51.000Z</time>
      </trkpt>
      <trkpt lat="45.78944" lon="1.85267">
        <ele>700.8</ele>
        <time>2026-07-08T09:09:52.000Z</time>
      </trkpt>
      <trkpt lat="45.78943" lon="1.85264">
        <ele>702</ele>
        <time>2026-07-08T09:09:53.000Z</time>
      </trkpt>
      <trkpt lat="45.78941" lon="1.85261">
        <ele>702</ele>
        <time>2026-07-08T09:09:54.000Z</time>
      </trkpt>
      <trkpt lat="45.78939" lon="1.8526">
        <ele>700.8</ele>
        <time>2026-07-08T09:09:55.000Z</time>
      </trkpt>
      <trkpt lat="45.78937" lon="1.85259">
        <ele>701.9</ele>
        <time>2026-07-08T09:09:56.000Z</time>
      </trkpt>
      <trkpt lat="45.78936" lon="1.85259">
        <ele>702.5</ele>
        <time>2026-07-08T09:09:57.000Z</time>
      </trkpt>
      <trkpt lat="45.78934" lon="1.85258">
        <ele>702.7</ele>
        <time>2026-07-08T09:09:58.000Z</time>
      </trkpt>
      <trkpt lat="45.78933" lon="1.85258">
        <ele>701.5</ele>
        <time>2026-07-08T09:09:59.000Z</time>
      </trkpt>
      <trkpt lat="45.78931" lon="1.85258">
        <ele>701.6</ele>
        <time>2026-07-08T09:10:00.000Z</time>
      </trkpt>
      <trkpt lat="45.78929" lon="1.85257">
        <ele>701.4</ele>
        <time>2026-07-08T09:10:01.000Z</time>
      </trkpt>
      <trkpt lat="45.78928" lon="1.85257">
        <ele>700.8</ele>
        <time>2026-07-08T09:10:02.000Z</time>
      </trkpt>
      <trkpt lat="45.78926" lon="1.85256">
        <ele>700.4</ele>
        <time>2026-07-08T09:10:03.000Z</time>
      </trkpt>
      <trkpt lat="45.78924" lon="1.85254">
        <ele>701.5</ele>
        <time>2026-07-08T09:10:04.000Z</time>
      </trkpt>
      <trkpt lat="45.78921" lon="1.85253">
        <ele>701.9</ele>
        <time>2026-07-08T09:10:05.000Z</time>
      </trkpt>
      <trkpt lat="45.78918" lon="1.85252">
        <ele>702.7</ele>
        <time>2026-07-08T09:10:06.000Z</time>
      </trkpt>
      <trkpt lat="45.78916" lon="1.85251">
        <ele>701.9</ele>
        <time>2026-07-08T09:10:07.000Z</time>
      </trkpt>
      <trkpt lat="45.78914" lon="1.85251">
        <ele>701</ele>
        <time>2026-07-08T09:10:08.000Z</time>
      </trkpt>
      <trkpt lat="45.78912" lon="1.8525">
        <ele>700.9</ele>
        <time>2026-07-08T09:10:09.000Z</time>
      </trkpt>
      <trkpt lat="45.78911" lon="1.85249">
        <ele>701</ele>
        <time>2026-07-08T09:10:10.000Z</time>
      </trkpt>
      <trkpt lat="45.78909" lon="1.85248">
        <ele>701.8</ele>
        <time>2026-07-08T09:10:11.000Z</time>
      </trkpt>
      <trkpt lat="45.78907" lon="1.85247">
        <ele>702.3</ele>
        <time>2026-07-08T09:10:12.000Z</time>
      </trkpt>
      <trkpt lat="45.78905" lon="1.85247">
        <ele>702.8</ele>
        <time>2026-07-08T09:10:13.000Z</time>
      </trkpt>
      <trkpt lat="45.78903" lon="1.85247">
        <ele>703.7</ele>
        <time>2026-07-08T09:10:14.000Z</time>
      </trkpt>
      <trkpt lat="45.789" lon="1.85246">
        <ele>704.3</ele>
        <time>2026-07-08T09:10:15.000Z</time>
      </trkpt>
      <trkpt lat="45.78898" lon="1.85244">
        <ele>703.5</ele>
        <time>2026-07-08T09:10:16.000Z</time>
      </trkpt>
      <trkpt lat="45.78897" lon="1.85244">
        <ele>704</ele>
        <time>2026-07-08T09:10:17.000Z</time>
      </trkpt>
      <trkpt lat="45.78895" lon="1.85243">
        <ele>705.5</ele>
        <time>2026-07-08T09:10:18.000Z</time>
      </trkpt>
      <trkpt lat="45.78894" lon="1.85242">
        <ele>706.3</ele>
        <time>2026-07-08T09:10:19.000Z</time>
      </trkpt>
      <trkpt lat="45.78893" lon="1.85241">
        <ele>706</ele>
        <time>2026-07-08T09:10:20.000Z</time>
      </trkpt>
      <trkpt lat="45.78891" lon="1.85239">
        <ele>705.4</ele>
        <time>2026-07-08T09:10:21.000Z</time>
      </trkpt>
      <trkpt lat="45.7889" lon="1.85237">
        <ele>704.5</ele>
        <time>2026-07-08T09:10:22.000Z</time>
      </trkpt>
      <trkpt lat="45.78889" lon="1.85235">
        <ele>705.4</ele>
        <time>2026-07-08T09:10:23.000Z</time>
      </trkpt>
      <trkpt lat="45.78888" lon="1.85234">
        <ele>705.1</ele>
        <time>2026-07-08T09:10:24.000Z</time>
      </trkpt>
      <trkpt lat="45.78887" lon="1.85233">
        <ele>704.7</ele>
        <time>2026-07-08T09:10:25.000Z</time>
      </trkpt>
      <trkpt lat="45.78885" lon="1.85232">
        <ele>704.7</ele>
        <time>2026-07-08T09:10:26.000Z</time>
      </trkpt>
      <trkpt lat="45.78884" lon="1.85231">
        <ele>705.3</ele>
        <time>2026-07-08T09:10:27.000Z</time>
      </trkpt>
      <trkpt lat="45.78883" lon="1.85231">
        <ele>704.8</ele>
        <time>2026-07-08T09:10:28.000Z</time>
      </trkpt>
      <trkpt lat="45.78881" lon="1.8523">
        <ele>702.9</ele>
        <time>2026-07-08T09:10:29.000Z</time>
      </trkpt>
      <trkpt lat="45.7888" lon="1.85229">
        <ele>703.3</ele>
        <time>2026-07-08T09:10:30.000Z</time>
      </trkpt>
      <trkpt lat="45.78878" lon="1.85228">
        <ele>702.5</ele>
        <time>2026-07-08T09:10:31.000Z</time>
      </trkpt>
      <trkpt lat="45.78877" lon="1.85227">
        <ele>702.2</ele>
        <time>2026-07-08T09:10:32.000Z</time>
      </trkpt>
      <trkpt lat="45.78875" lon="1.85225">
        <ele>702.2</ele>
        <time>2026-07-08T09:10:33.000Z</time>
      </trkpt>
      <trkpt lat="45.78874" lon="1.85224">
        <ele>703.1</ele>
        <time>2026-07-08T09:10:34.000Z</time>
      </trkpt>
      <trkpt lat="45.78872" lon="1.85223">
        <ele>704.3</ele>
        <time>2026-07-08T09:10:35.000Z</time>
      </trkpt>
      <trkpt lat="45.78871" lon="1.85222">
        <ele>704.5</ele>
        <time>2026-07-08T09:10:36.000Z</time>
      </trkpt>
      <trkpt lat="45.78869" lon="1.85221">
        <ele>703.3</ele>
        <time>2026-07-08T09:10:37.000Z</time>
      </trkpt>
      <trkpt lat="45.78867" lon="1.8522">
        <ele>702.2</ele>
        <time>2026-07-08T09:10:38.000Z</time>
      </trkpt>
      <trkpt lat="45.78865" lon="1.85219">
        <ele>701.5</ele>
        <time>2026-07-08T09:10:39.000Z</time>
      </trkpt>
      <trkpt lat="45.78864" lon="1.85217">
        <ele>701.5</ele>
        <time>2026-07-08T09:10:40.000Z</time>
      </trkpt>
      <trkpt lat="45.78863" lon="1.85216">
        <ele>700.9</ele>
        <time>2026-07-08T09:10:41.000Z</time>
      </trkpt>
      <trkpt lat="45.78862" lon="1.85215">
        <ele>701.4</ele>
        <time>2026-07-08T09:10:42.000Z</time>
      </trkpt>
      <trkpt lat="45.78861" lon="1.85214">
        <ele>701.5</ele>
        <time>2026-07-08T09:10:43.000Z</time>
      </trkpt>
      <trkpt lat="45.78859" lon="1.85213">
        <ele>700.9</ele>
        <time>2026-07-08T09:10:44.000Z</time>
      </trkpt>
      <trkpt lat="45.78858" lon="1.85212">
        <ele>701.3</ele>
        <time>2026-07-08T09:10:45.000Z</time>
      </trkpt>
      <trkpt lat="45.78857" lon="1.8521">
        <ele>701.5</ele>
        <time>2026-07-08T09:10:46.000Z</time>
      </trkpt>
      <trkpt lat="45.78855" lon="1.85209">
        <ele>701.7</ele>
        <time>2026-07-08T09:10:47.000Z</time>
      </trkpt>
      <trkpt lat="45.78853" lon="1.85208">
        <ele>699.3</ele>
        <time>2026-07-08T09:10:48.000Z</time>
      </trkpt>
      <trkpt lat="45.78852" lon="1.85206">
        <ele>698.2</ele>
        <time>2026-07-08T09:10:49.000Z</time>
      </trkpt>
      <trkpt lat="45.7885" lon="1.85205">
        <ele>698.5</ele>
        <time>2026-07-08T09:10:50.000Z</time>
      </trkpt>
      <trkpt lat="45.78849" lon="1.85205">
        <ele>697.5</ele>
        <time>2026-07-08T09:10:51.000Z</time>
      </trkpt>
      <trkpt lat="45.78847" lon="1.85204">
        <ele>696.7</ele>
        <time>2026-07-08T09:10:52.000Z</time>
      </trkpt>
      <trkpt lat="45.78846" lon="1.85203">
        <ele>697</ele>
        <time>2026-07-08T09:10:53.000Z</time>
      </trkpt>
      <trkpt lat="45.78844" lon="1.85202">
        <ele>696.5</ele>
        <time>2026-07-08T09:10:54.000Z</time>
      </trkpt>
      <trkpt lat="45.78842" lon="1.85202">
        <ele>697</ele>
        <time>2026-07-08T09:10:55.000Z</time>
      </trkpt>
      <trkpt lat="45.78841" lon="1.85202">
        <ele>697.2</ele>
        <time>2026-07-08T09:10:56.000Z</time>
      </trkpt>
      <trkpt lat="45.7884" lon="1.85201">
        <ele>696.4</ele>
        <time>2026-07-08T09:10:57.000Z</time>
      </trkpt>
      <trkpt lat="45.78839" lon="1.85199">
        <ele>696.1</ele>
        <time>2026-07-08T09:10:58.000Z</time>
      </trkpt>
      <trkpt lat="45.78837" lon="1.85199">
        <ele>696.1</ele>
        <time>2026-07-08T09:10:59.000Z</time>
      </trkpt>
      <trkpt lat="45.78835" lon="1.85197">
        <ele>696</ele>
        <time>2026-07-08T09:11:00.000Z</time>
      </trkpt>
      <trkpt lat="45.78833" lon="1.85197">
        <ele>695.8</ele>
        <time>2026-07-08T09:11:01.000Z</time>
      </trkpt>
      <trkpt lat="45.78832" lon="1.85196">
        <ele>695.9</ele>
        <time>2026-07-08T09:11:02.000Z</time>
      </trkpt>
      <trkpt lat="45.78831" lon="1.85194">
        <ele>695.9</ele>
        <time>2026-07-08T09:11:03.000Z</time>
      </trkpt>
      <trkpt lat="45.78829" lon="1.85192">
        <ele>695.1</ele>
        <time>2026-07-08T09:11:04.000Z</time>
      </trkpt>
      <trkpt lat="45.78827" lon="1.85191">
        <ele>695.3</ele>
        <time>2026-07-08T09:11:05.000Z</time>
      </trkpt>
      <trkpt lat="45.78825" lon="1.85189">
        <ele>695</ele>
        <time>2026-07-08T09:11:06.000Z</time>
      </trkpt>
      <trkpt lat="45.78824" lon="1.85187">
        <ele>694.8</ele>
        <time>2026-07-08T09:11:07.000Z</time>
      </trkpt>
      <trkpt lat="45.78822" lon="1.85186">
        <ele>695.1</ele>
        <time>2026-07-08T09:11:08.000Z</time>
      </trkpt>
      <trkpt lat="45.7882" lon="1.85185">
        <ele>695</ele>
        <time>2026-07-08T09:11:09.000Z</time>
      </trkpt>
      <trkpt lat="45.78818" lon="1.85184">
        <ele>695.1</ele>
        <time>2026-07-08T09:11:10.000Z</time>
      </trkpt>
      <trkpt lat="45.78816" lon="1.85182">
        <ele>697.1</ele>
        <time>2026-07-08T09:11:11.000Z</time>
      </trkpt>
      <trkpt lat="45.78814" lon="1.85181">
        <ele>697.6</ele>
        <time>2026-07-08T09:11:12.000Z</time>
      </trkpt>
      <trkpt lat="45.78813" lon="1.85179">
        <ele>699</ele>
        <time>2026-07-08T09:11:13.000Z</time>
      </trkpt>
      <trkpt lat="45.78811" lon="1.85176">
        <ele>700.2</ele>
        <time>2026-07-08T09:11:14.000Z</time>
      </trkpt>
      <trkpt lat="45.7881" lon="1.85174">
        <ele>700.7</ele>
        <time>2026-07-08T09:11:15.000Z</time>
      </trkpt>
      <trkpt lat="45.78808" lon="1.85172">
        <ele>701.8</ele>
        <time>2026-07-08T09:11:16.000Z</time>
      </trkpt>
      <trkpt lat="45.78806" lon="1.85169">
        <ele>702</ele>
        <time>2026-07-08T09:11:17.000Z</time>
      </trkpt>
      <trkpt lat="45.78805" lon="1.85167">
        <ele>702.9</ele>
        <time>2026-07-08T09:11:18.000Z</time>
      </trkpt>
      <trkpt lat="45.78803" lon="1.85164">
        <ele>703.8</ele>
        <time>2026-07-08T09:11:19.000Z</time>
      </trkpt>
      <trkpt lat="45.78802" lon="1.85162">
        <ele>703.2</ele>
        <time>2026-07-08T09:11:20.000Z</time>
      </trkpt>
      <trkpt lat="45.788" lon="1.8516">
        <ele>703.4</ele>
        <time>2026-07-08T09:11:21.000Z</time>
      </trkpt>
      <trkpt lat="45.78799" lon="1.85157">
        <ele>702.8</ele>
        <time>2026-07-08T09:11:22.000Z</time>
      </trkpt>
      <trkpt lat="45.78797" lon="1.85155">
        <ele>703.3</ele>
        <time>2026-07-08T09:11:23.000Z</time>
      </trkpt>
      <trkpt lat="45.78797" lon="1.85154">
        <ele>703</ele>
        <time>2026-07-08T09:11:24.000Z</time>
      </trkpt>
      <trkpt lat="45.78796" lon="1.85153">
        <ele>702.3</ele>
        <time>2026-07-08T09:11:25.000Z</time>
      </trkpt>
      <trkpt lat="45.78794" lon="1.85152">
        <ele>701.4</ele>
        <time>2026-07-08T09:11:26.000Z</time>
      </trkpt>
      <trkpt lat="45.78792" lon="1.8515">
        <ele>701.2</ele>
        <time>2026-07-08T09:11:27.000Z</time>
      </trkpt>
      <trkpt lat="45.78791" lon="1.85148">
        <ele>700.4</ele>
        <time>2026-07-08T09:11:28.000Z</time>
      </trkpt>
      <trkpt lat="45.78789" lon="1.85146">
        <ele>700.9</ele>
        <time>2026-07-08T09:11:29.000Z</time>
      </trkpt>
      <trkpt lat="45.78787" lon="1.85146">
        <ele>700.4</ele>
        <time>2026-07-08T09:11:30.000Z</time>
      </trkpt>
      <trkpt lat="45.78785" lon="1.85146">
        <ele>700.6</ele>
        <time>2026-07-08T09:11:31.000Z</time>
      </trkpt>
      <trkpt lat="45.78783" lon="1.85145">
        <ele>699.9</ele>
        <time>2026-07-08T09:11:32.000Z</time>
      </trkpt>
      <trkpt lat="45.78782" lon="1.85145">
        <ele>700.1</ele>
        <time>2026-07-08T09:11:33.000Z</time>
      </trkpt>
      <trkpt lat="45.7878" lon="1.85144">
        <ele>699.7</ele>
        <time>2026-07-08T09:11:34.000Z</time>
      </trkpt>
      <trkpt lat="45.78779" lon="1.85144">
        <ele>699.9</ele>
        <time>2026-07-08T09:11:35.000Z</time>
      </trkpt>
      <trkpt lat="45.78777" lon="1.85144">
        <ele>700.1</ele>
        <time>2026-07-08T09:11:36.000Z</time>
      </trkpt>
      <trkpt lat="45.78775" lon="1.85143">
        <ele>698.5</ele>
        <time>2026-07-08T09:11:37.000Z</time>
      </trkpt>
      <trkpt lat="45.78773" lon="1.85141">
        <ele>697.4</ele>
        <time>2026-07-08T09:11:38.000Z</time>
      </trkpt>
      <trkpt lat="45.78771" lon="1.8514">
        <ele>697.1</ele>
        <time>2026-07-08T09:11:39.000Z</time>
      </trkpt>
      <trkpt lat="45.7877" lon="1.85139">
        <ele>697.4</ele>
        <time>2026-07-08T09:11:40.000Z</time>
      </trkpt>
      <trkpt lat="45.78768" lon="1.85139">
        <ele>697.7</ele>
        <time>2026-07-08T09:11:41.000Z</time>
      </trkpt>
      <trkpt lat="45.78767" lon="1.85139">
        <ele>698.6</ele>
        <time>2026-07-08T09:11:42.000Z</time>
      </trkpt>
      <trkpt lat="45.78765" lon="1.8514">
        <ele>697.8</ele>
        <time>2026-07-08T09:11:43.000Z</time>
      </trkpt>
      <trkpt lat="45.78763" lon="1.85139">
        <ele>695.7</ele>
        <time>2026-07-08T09:11:44.000Z</time>
      </trkpt>
      <trkpt lat="45.78761" lon="1.85139">
        <ele>696.4</ele>
        <time>2026-07-08T09:11:45.000Z</time>
      </trkpt>
      <trkpt lat="45.78759" lon="1.85139">
        <ele>696.9</ele>
        <time>2026-07-08T09:11:46.000Z</time>
      </trkpt>
      <trkpt lat="45.78757" lon="1.85139">
        <ele>697.2</ele>
        <time>2026-07-08T09:11:47.000Z</time>
      </trkpt>
      <trkpt lat="45.78756" lon="1.85139">
        <ele>697.5</ele>
        <time>2026-07-08T09:11:48.000Z</time>
      </trkpt>
      <trkpt lat="45.78754" lon="1.8514">
        <ele>698.1</ele>
        <time>2026-07-08T09:11:49.000Z</time>
      </trkpt>
      <trkpt lat="45.78751" lon="1.8514">
        <ele>697.9</ele>
        <time>2026-07-08T09:11:50.000Z</time>
      </trkpt>
      <trkpt lat="45.78748" lon="1.8514">
        <ele>698.6</ele>
        <time>2026-07-08T09:11:51.000Z</time>
      </trkpt>
      <trkpt lat="45.78746" lon="1.8514">
        <ele>698.5</ele>
        <time>2026-07-08T09:11:52.000Z</time>
      </trkpt>
      <trkpt lat="45.78744" lon="1.8514">
        <ele>698</ele>
        <time>2026-07-08T09:11:53.000Z</time>
      </trkpt>
      <trkpt lat="45.78742" lon="1.85139">
        <ele>697.9</ele>
        <time>2026-07-08T09:11:54.000Z</time>
      </trkpt>
      <trkpt lat="45.7874" lon="1.85139">
        <ele>697.8</ele>
        <time>2026-07-08T09:11:55.000Z</time>
      </trkpt>
      <trkpt lat="45.78738" lon="1.8514">
        <ele>697.7</ele>
        <time>2026-07-08T09:11:56.000Z</time>
      </trkpt>
      <trkpt lat="45.78736" lon="1.85139">
        <ele>698.3</ele>
        <time>2026-07-08T09:11:57.000Z</time>
      </trkpt>
      <trkpt lat="45.78734" lon="1.85137">
        <ele>700.1</ele>
        <time>2026-07-08T09:11:58.000Z</time>
      </trkpt>
      <trkpt lat="45.78733" lon="1.85134">
        <ele>701.1</ele>
        <time>2026-07-08T09:11:59.000Z</time>
      </trkpt>
      <trkpt lat="45.7873" lon="1.85131">
        <ele>702.5</ele>
        <time>2026-07-08T09:12:00.000Z</time>
      </trkpt>
      <trkpt lat="45.78729" lon="1.8513">
        <ele>704.2</ele>
        <time>2026-07-08T09:12:01.000Z</time>
      </trkpt>
      <trkpt lat="45.78727" lon="1.8513">
        <ele>703.9</ele>
        <time>2026-07-08T09:12:02.000Z</time>
      </trkpt>
      <trkpt lat="45.78725" lon="1.85129">
        <ele>703.9</ele>
        <time>2026-07-08T09:12:03.000Z</time>
      </trkpt>
      <trkpt lat="45.78723" lon="1.85129">
        <ele>702.9</ele>
        <time>2026-07-08T09:12:04.000Z</time>
      </trkpt>
      <trkpt lat="45.7872" lon="1.85129">
        <ele>700.7</ele>
        <time>2026-07-08T09:12:05.000Z</time>
      </trkpt>
      <trkpt lat="45.78717" lon="1.8513">
        <ele>699.4</ele>
        <time>2026-07-08T09:12:06.000Z</time>
      </trkpt>
      <trkpt lat="45.78715" lon="1.8513">
        <ele>698</ele>
        <time>2026-07-08T09:12:07.000Z</time>
      </trkpt>
      <trkpt lat="45.78713" lon="1.8513">
        <ele>698.1</ele>
        <time>2026-07-08T09:12:08.000Z</time>
      </trkpt>
      <trkpt lat="45.78711" lon="1.85129">
        <ele>698.1</ele>
        <time>2026-07-08T09:12:09.000Z</time>
      </trkpt>
      <trkpt lat="45.78709" lon="1.8513">
        <ele>696.8</ele>
        <time>2026-07-08T09:12:10.000Z</time>
      </trkpt>
      <trkpt lat="45.78707" lon="1.85129">
        <ele>697.4</ele>
        <time>2026-07-08T09:12:11.000Z</time>
      </trkpt>
      <trkpt lat="45.78705" lon="1.85129">
        <ele>696.8</ele>
        <time>2026-07-08T09:12:12.000Z</time>
      </trkpt>
      <trkpt lat="45.78702" lon="1.85129">
        <ele>695.8</ele>
        <time>2026-07-08T09:12:13.000Z</time>
      </trkpt>
      <trkpt lat="45.787" lon="1.85129">
        <ele>696.1</ele>
        <time>2026-07-08T09:12:14.000Z</time>
      </trkpt>
      <trkpt lat="45.78697" lon="1.85129">
        <ele>697.2</ele>
        <time>2026-07-08T09:12:15.000Z</time>
      </trkpt>
      <trkpt lat="45.78694" lon="1.85129">
        <ele>697.1</ele>
        <time>2026-07-08T09:12:16.000Z</time>
      </trkpt>
      <trkpt lat="45.78691" lon="1.85129">
        <ele>698.3</ele>
        <time>2026-07-08T09:12:17.000Z</time>
      </trkpt>
      <trkpt lat="45.78689" lon="1.85128">
        <ele>697.6</ele>
        <time>2026-07-08T09:12:18.000Z</time>
      </trkpt>
      <trkpt lat="45.78685" lon="1.85127">
        <ele>699.1</ele>
        <time>2026-07-08T09:12:19.000Z</time>
      </trkpt>
      <trkpt lat="45.7868" lon="1.85127">
        <ele>700.4</ele>
        <time>2026-07-08T09:12:20.000Z</time>
      </trkpt>
      <trkpt lat="45.78677" lon="1.85126">
        <ele>700.6</ele>
        <time>2026-07-08T09:12:21.000Z</time>
      </trkpt>
      <trkpt lat="45.78673" lon="1.85124">
        <ele>699.3</ele>
        <time>2026-07-08T09:12:22.000Z</time>
      </trkpt>
      <trkpt lat="45.7867" lon="1.85122">
        <ele>699.1</ele>
        <time>2026-07-08T09:12:23.000Z</time>
      </trkpt>
      <trkpt lat="45.78667" lon="1.85119">
        <ele>699.8</ele>
        <time>2026-07-08T09:12:24.000Z</time>
      </trkpt>
      <trkpt lat="45.78664" lon="1.85115">
        <ele>698.9</ele>
        <time>2026-07-08T09:12:25.000Z</time>
      </trkpt>
      <trkpt lat="45.78658" lon="1.85113">
        <ele>697.7</ele>
        <time>2026-07-08T09:12:26.000Z</time>
      </trkpt>
      <trkpt lat="45.78652" lon="1.85111">
        <ele>696</ele>
        <time>2026-07-08T09:12:27.000Z</time>
      </trkpt>
      <trkpt lat="45.78646" lon="1.8511">
        <ele>696.2</ele>
        <time>2026-07-08T09:12:28.000Z</time>
      </trkpt>
      <trkpt lat="45.78641" lon="1.85107">
        <ele>695.6</ele>
        <time>2026-07-08T09:12:29.000Z</time>
      </trkpt>
      <trkpt lat="45.78635" lon="1.85105">
        <ele>695.8</ele>
        <time>2026-07-08T09:12:30.000Z</time>
      </trkpt>
      <trkpt lat="45.7863" lon="1.85103">
        <ele>696.2</ele>
        <time>2026-07-08T09:12:31.000Z</time>
      </trkpt>
      <trkpt lat="45.78626" lon="1.85102">
        <ele>698</ele>
        <time>2026-07-08T09:12:32.000Z</time>
      </trkpt>
      <trkpt lat="45.78623" lon="1.85101">
        <ele>698.4</ele>
        <time>2026-07-08T09:12:33.000Z</time>
      </trkpt>
      <trkpt lat="45.78619" lon="1.85098">
        <ele>699.8</ele>
        <time>2026-07-08T09:12:34.000Z</time>
      </trkpt>
      <trkpt lat="45.78616" lon="1.85093">
        <ele>700.6</ele>
        <time>2026-07-08T09:12:35.000Z</time>
      </trkpt>
      <trkpt lat="45.78611" lon="1.85089">
        <ele>700</ele>
        <time>2026-07-08T09:12:36.000Z</time>
      </trkpt>
      <trkpt lat="45.78606" lon="1.85085">
        <ele>697.6</ele>
        <time>2026-07-08T09:12:37.000Z</time>
      </trkpt>
      <trkpt lat="45.78601" lon="1.85082">
        <ele>697.6</ele>
        <time>2026-07-08T09:12:38.000Z</time>
      </trkpt>
      <trkpt lat="45.78597" lon="1.85078">
        <ele>699.2</ele>
        <time>2026-07-08T09:12:39.000Z</time>
      </trkpt>
      <trkpt lat="45.78594" lon="1.85073">
        <ele>699.3</ele>
        <time>2026-07-08T09:12:40.000Z</time>
      </trkpt>
      <trkpt lat="45.78591" lon="1.8507">
        <ele>697.8</ele>
        <time>2026-07-08T09:12:41.000Z</time>
      </trkpt>
      <trkpt lat="45.78587" lon="1.85065">
        <ele>697.3</ele>
        <time>2026-07-08T09:12:42.000Z</time>
      </trkpt>
      <trkpt lat="45.78584" lon="1.85062">
        <ele>697.8</ele>
        <time>2026-07-08T09:12:43.000Z</time>
      </trkpt>
      <trkpt lat="45.78582" lon="1.85059">
        <ele>698.1</ele>
        <time>2026-07-08T09:12:44.000Z</time>
      </trkpt>
      <trkpt lat="45.78579" lon="1.85057">
        <ele>698.9</ele>
        <time>2026-07-08T09:12:45.000Z</time>
      </trkpt>
      <trkpt lat="45.78576" lon="1.85055">
        <ele>700.2</ele>
        <time>2026-07-08T09:12:46.000Z</time>
      </trkpt>
      <trkpt lat="45.78573" lon="1.85053">
        <ele>700.8</ele>
        <time>2026-07-08T09:12:47.000Z</time>
      </trkpt>
      <trkpt lat="45.78571" lon="1.85052">
        <ele>702.5</ele>
        <time>2026-07-08T09:12:48.000Z</time>
      </trkpt>
      <trkpt lat="45.7857" lon="1.8505">
        <ele>703.8</ele>
        <time>2026-07-08T09:12:49.000Z</time>
      </trkpt>
      <trkpt lat="45.78567" lon="1.85049">
        <ele>704.8</ele>
        <time>2026-07-08T09:12:50.000Z</time>
      </trkpt>
      <trkpt lat="45.78565" lon="1.85048">
        <ele>705.5</ele>
        <time>2026-07-08T09:12:51.000Z</time>
      </trkpt>
      <trkpt lat="45.78563" lon="1.85048">
        <ele>706.4</ele>
        <time>2026-07-08T09:12:52.000Z</time>
      </trkpt>
      <trkpt lat="45.78559" lon="1.85047">
        <ele>707.5</ele>
        <time>2026-07-08T09:12:53.000Z</time>
      </trkpt>
      <trkpt lat="45.78556" lon="1.85047">
        <ele>709</ele>
        <time>2026-07-08T09:12:54.000Z</time>
      </trkpt>
      <trkpt lat="45.78553" lon="1.85047">
        <ele>711</ele>
        <time>2026-07-08T09:12:55.000Z</time>
      </trkpt>
      <trkpt lat="45.78552" lon="1.85046">
        <ele>711.9</ele>
        <time>2026-07-08T09:12:56.000Z</time>
      </trkpt>
      <trkpt lat="45.7855" lon="1.85044">
        <ele>713.1</ele>
        <time>2026-07-08T09:12:57.000Z</time>
      </trkpt>
      <trkpt lat="45.78548" lon="1.85044">
        <ele>712.4</ele>
        <time>2026-07-08T09:12:58.000Z</time>
      </trkpt>
      <trkpt lat="45.78546" lon="1.85043">
        <ele>711.8</ele>
        <time>2026-07-08T09:12:59.000Z</time>
      </trkpt>
      <trkpt lat="45.78544" lon="1.85043">
        <ele>712.2</ele>
        <time>2026-07-08T09:13:00.000Z</time>
      </trkpt>
      <trkpt lat="45.78541" lon="1.85042">
        <ele>710.8</ele>
        <time>2026-07-08T09:13:01.000Z</time>
      </trkpt>
      <trkpt lat="45.7854" lon="1.85042">
        <ele>711</ele>
        <time>2026-07-08T09:13:02.000Z</time>
      </trkpt>
      <trkpt lat="45.78538" lon="1.85041">
        <ele>710.5</ele>
        <time>2026-07-08T09:13:03.000Z</time>
      </trkpt>
      <trkpt lat="45.78536" lon="1.8504">
        <ele>711</ele>
        <time>2026-07-08T09:13:04.000Z</time>
      </trkpt>
      <trkpt lat="45.78534" lon="1.85039">
        <ele>710.8</ele>
        <time>2026-07-08T09:13:05.000Z</time>
      </trkpt>
      <trkpt lat="45.78532" lon="1.85037">
        <ele>710.9</ele>
        <time>2026-07-08T09:13:06.000Z</time>
      </trkpt>
      <trkpt lat="45.7853" lon="1.85036">
        <ele>710.5</ele>
        <time>2026-07-08T09:13:07.000Z</time>
      </trkpt>
      <trkpt lat="45.78528" lon="1.85034">
        <ele>709.4</ele>
        <time>2026-07-08T09:13:08.000Z</time>
      </trkpt>
      <trkpt lat="45.78526" lon="1.85033">
        <ele>709.8</ele>
        <time>2026-07-08T09:13:09.000Z</time>
      </trkpt>
      <trkpt lat="45.78524" lon="1.85032">
        <ele>709.9</ele>
        <time>2026-07-08T09:13:10.000Z</time>
      </trkpt>
      <trkpt lat="45.78522" lon="1.85033">
        <ele>709.2</ele>
        <time>2026-07-08T09:13:11.000Z</time>
      </trkpt>
      <trkpt lat="45.7852" lon="1.85033">
        <ele>707.8</ele>
        <time>2026-07-08T09:13:12.000Z</time>
      </trkpt>
      <trkpt lat="45.78518" lon="1.85033">
        <ele>706.7</ele>
        <time>2026-07-08T09:13:13.000Z</time>
      </trkpt>
      <trkpt lat="45.78516" lon="1.85033">
        <ele>705.4</ele>
        <time>2026-07-08T09:13:14.000Z</time>
      </trkpt>
      <trkpt lat="45.78515" lon="1.85032">
        <ele>705.1</ele>
        <time>2026-07-08T09:13:15.000Z</time>
      </trkpt>
      <trkpt lat="45.78513" lon="1.85029">
        <ele>704.2</ele>
        <time>2026-07-08T09:13:16.000Z</time>
      </trkpt>
      <trkpt lat="45.78511" lon="1.85027">
        <ele>703.6</ele>
        <time>2026-07-08T09:13:17.000Z</time>
      </trkpt>
      <trkpt lat="45.78508" lon="1.85025">
        <ele>703.1</ele>
        <time>2026-07-08T09:13:18.000Z</time>
      </trkpt>
      <trkpt lat="45.78507" lon="1.85023">
        <ele>703.8</ele>
        <time>2026-07-08T09:13:19.000Z</time>
      </trkpt>
      <trkpt lat="45.78505" lon="1.85021">
        <ele>703.8</ele>
        <time>2026-07-08T09:13:20.000Z</time>
      </trkpt>
      <trkpt lat="45.78502" lon="1.85019">
        <ele>703.7</ele>
        <time>2026-07-08T09:13:21.000Z</time>
      </trkpt>
      <trkpt lat="45.785" lon="1.85017">
        <ele>703.5</ele>
        <time>2026-07-08T09:13:22.000Z</time>
      </trkpt>
      <trkpt lat="45.78498" lon="1.85016">
        <ele>703.5</ele>
        <time>2026-07-08T09:13:23.000Z</time>
      </trkpt>
      <trkpt lat="45.78495" lon="1.85015">
        <ele>700.2</ele>
        <time>2026-07-08T09:13:24.000Z</time>
      </trkpt>
      <trkpt lat="45.78492" lon="1.85013">
        <ele>699.1</ele>
        <time>2026-07-08T09:13:25.000Z</time>
      </trkpt>
      <trkpt lat="45.78488" lon="1.85011">
        <ele>699.8</ele>
        <time>2026-07-08T09:13:26.000Z</time>
      </trkpt>
      <trkpt lat="45.78486" lon="1.8501">
        <ele>700.7</ele>
        <time>2026-07-08T09:13:27.000Z</time>
      </trkpt>
      <trkpt lat="45.78483" lon="1.85008">
        <ele>701.5</ele>
        <time>2026-07-08T09:13:28.000Z</time>
      </trkpt>
      <trkpt lat="45.7848" lon="1.85006">
        <ele>700.4</ele>
        <time>2026-07-08T09:13:29.000Z</time>
      </trkpt>
      <trkpt lat="45.78478" lon="1.85005">
        <ele>699.7</ele>
        <time>2026-07-08T09:13:30.000Z</time>
      </trkpt>
      <trkpt lat="45.78476" lon="1.85004">
        <ele>699.4</ele>
        <time>2026-07-08T09:13:31.000Z</time>
      </trkpt>
      <trkpt lat="45.78473" lon="1.85001">
        <ele>697.9</ele>
        <time>2026-07-08T09:13:32.000Z</time>
      </trkpt>
      <trkpt lat="45.7847" lon="1.84998">
        <ele>697.3</ele>
        <time>2026-07-08T09:13:33.000Z</time>
      </trkpt>
      <trkpt lat="45.78467" lon="1.84996">
        <ele>697.8</ele>
        <time>2026-07-08T09:13:34.000Z</time>
      </trkpt>
      <trkpt lat="45.78464" lon="1.84995">
        <ele>696.7</ele>
        <time>2026-07-08T09:13:35.000Z</time>
      </trkpt>
      <trkpt lat="45.78461" lon="1.84993">
        <ele>696.7</ele>
        <time>2026-07-08T09:13:36.000Z</time>
      </trkpt>
      <trkpt lat="45.78458" lon="1.84991">
        <ele>695.6</ele>
        <time>2026-07-08T09:13:37.000Z</time>
      </trkpt>
      <trkpt lat="45.78456" lon="1.8499">
        <ele>695.1</ele>
        <time>2026-07-08T09:13:38.000Z</time>
      </trkpt>
      <trkpt lat="45.78453" lon="1.84988">
        <ele>692.5</ele>
        <time>2026-07-08T09:13:39.000Z</time>
      </trkpt>
      <trkpt lat="45.7845" lon="1.84988">
        <ele>691.7</ele>
        <time>2026-07-08T09:13:40.000Z</time>
      </trkpt>
      <trkpt lat="45.78447" lon="1.84988">
        <ele>690</ele>
        <time>2026-07-08T09:13:41.000Z</time>
      </trkpt>
      <trkpt lat="45.78443" lon="1.84987">
        <ele>689.5</ele>
        <time>2026-07-08T09:13:42.000Z</time>
      </trkpt>
      <trkpt lat="45.7844" lon="1.84985">
        <ele>690.8</ele>
        <time>2026-07-08T09:13:43.000Z</time>
      </trkpt>
      <trkpt lat="45.78437" lon="1.84983">
        <ele>692.1</ele>
        <time>2026-07-08T09:13:44.000Z</time>
      </trkpt>
      <trkpt lat="45.78433" lon="1.84982">
        <ele>692</ele>
        <time>2026-07-08T09:13:45.000Z</time>
      </trkpt>
      <trkpt lat="45.7843" lon="1.8498">
        <ele>691.8</ele>
        <time>2026-07-08T09:13:46.000Z</time>
      </trkpt>
      <trkpt lat="45.78427" lon="1.84979">
        <ele>691.9</ele>
        <time>2026-07-08T09:13:47.000Z</time>
      </trkpt>
      <trkpt lat="45.78424" lon="1.84977">
        <ele>693.2</ele>
        <time>2026-07-08T09:13:48.000Z</time>
      </trkpt>
      <trkpt lat="45.7842" lon="1.84975">
        <ele>693.3</ele>
        <time>2026-07-08T09:13:49.000Z</time>
      </trkpt>
      <trkpt lat="45.78416" lon="1.84972">
        <ele>694</ele>
        <time>2026-07-08T09:13:50.000Z</time>
      </trkpt>
      <trkpt lat="45.78411" lon="1.84969">
        <ele>694.4</ele>
        <time>2026-07-08T09:13:51.000Z</time>
      </trkpt>
      <trkpt lat="45.78407" lon="1.84965">
        <ele>694.3</ele>
        <time>2026-07-08T09:13:52.000Z</time>
      </trkpt>
      <trkpt lat="45.78403" lon="1.8496">
        <ele>693.8</ele>
        <time>2026-07-08T09:13:53.000Z</time>
      </trkpt>
      <trkpt lat="45.78399" lon="1.84954">
        <ele>693.5</ele>
        <time>2026-07-08T09:13:54.000Z</time>
      </trkpt>
      <trkpt lat="45.78394" lon="1.84949">
        <ele>694.7</ele>
        <time>2026-07-08T09:13:55.000Z</time>
      </trkpt>
      <trkpt lat="45.7839" lon="1.84943">
        <ele>694.1</ele>
        <time>2026-07-08T09:13:56.000Z</time>
      </trkpt>
      <trkpt lat="45.78387" lon="1.84938">
        <ele>693.9</ele>
        <time>2026-07-08T09:13:57.000Z</time>
      </trkpt>
      <trkpt lat="45.78383" lon="1.84935">
        <ele>695.2</ele>
        <time>2026-07-08T09:13:58.000Z</time>
      </trkpt>
      <trkpt lat="45.78378" lon="1.84932">
        <ele>694.3</ele>
        <time>2026-07-08T09:13:59.000Z</time>
      </trkpt>
      <trkpt lat="45.78373" lon="1.84928">
        <ele>695.5</ele>
        <time>2026-07-08T09:14:00.000Z</time>
      </trkpt>
      <trkpt lat="45.78368" lon="1.84925">
        <ele>694.1</ele>
        <time>2026-07-08T09:14:01.000Z</time>
      </trkpt>
      <trkpt lat="45.78362" lon="1.84921">
        <ele>694.9</ele>
        <time>2026-07-08T09:14:02.000Z</time>
      </trkpt>
      <trkpt lat="45.78356" lon="1.84918">
        <ele>695.4</ele>
        <time>2026-07-08T09:14:03.000Z</time>
      </trkpt>
      <trkpt lat="45.78352" lon="1.84915">
        <ele>696.7</ele>
        <time>2026-07-08T09:14:04.000Z</time>
      </trkpt>
      <trkpt lat="45.78349" lon="1.84913">
        <ele>697.1</ele>
        <time>2026-07-08T09:14:05.000Z</time>
      </trkpt>
      <trkpt lat="45.78344" lon="1.84911">
        <ele>698.8</ele>
        <time>2026-07-08T09:14:06.000Z</time>
      </trkpt>
      <trkpt lat="45.78339" lon="1.84908">
        <ele>699.1</ele>
        <time>2026-07-08T09:14:07.000Z</time>
      </trkpt>
      <trkpt lat="45.78334" lon="1.84907">
        <ele>702.1</ele>
        <time>2026-07-08T09:14:08.000Z</time>
      </trkpt>
      <trkpt lat="45.7833" lon="1.84908">
        <ele>703</ele>
        <time>2026-07-08T09:14:09.000Z</time>
      </trkpt>
      <trkpt lat="45.78327" lon="1.84909">
        <ele>702.2</ele>
        <time>2026-07-08T09:14:10.000Z</time>
      </trkpt>
      <trkpt lat="45.78323" lon="1.84909">
        <ele>701.9</ele>
        <time>2026-07-08T09:14:11.000Z</time>
      </trkpt>
      <trkpt lat="45.7832" lon="1.84911">
        <ele>702.8</ele>
        <time>2026-07-08T09:14:12.000Z</time>
      </trkpt>
      <trkpt lat="45.78318" lon="1.84914">
        <ele>701.9</ele>
        <time>2026-07-08T09:14:13.000Z</time>
      </trkpt>
      <trkpt lat="45.78315" lon="1.84916">
        <ele>702.3</ele>
        <time>2026-07-08T09:14:14.000Z</time>
      </trkpt>
      <trkpt lat="45.78313" lon="1.84919">
        <ele>701.5</ele>
        <time>2026-07-08T09:14:15.000Z</time>
      </trkpt>
      <trkpt lat="45.78311" lon="1.84923">
        <ele>701.4</ele>
        <time>2026-07-08T09:14:16.000Z</time>
      </trkpt>
      <trkpt lat="45.78308" lon="1.84926">
        <ele>701.6</ele>
        <time>2026-07-08T09:14:17.000Z</time>
      </trkpt>
      <trkpt lat="45.78305" lon="1.84929">
        <ele>701.4</ele>
        <time>2026-07-08T09:14:18.000Z</time>
      </trkpt>
      <trkpt lat="45.78302" lon="1.8493">
        <ele>702.1</ele>
        <time>2026-07-08T09:14:19.000Z</time>
      </trkpt>
      <trkpt lat="45.78298" lon="1.8493">
        <ele>702.9</ele>
        <time>2026-07-08T09:14:20.000Z</time>
      </trkpt>
      <trkpt lat="45.78295" lon="1.8493">
        <ele>703.1</ele>
        <time>2026-07-08T09:14:21.000Z</time>
      </trkpt>
      <trkpt lat="45.78292" lon="1.8493">
        <ele>704</ele>
        <time>2026-07-08T09:14:22.000Z</time>
      </trkpt>
      <trkpt lat="45.78289" lon="1.8493">
        <ele>704.7</ele>
        <time>2026-07-08T09:14:23.000Z</time>
      </trkpt>
      <trkpt lat="45.78286" lon="1.84931">
        <ele>705.2</ele>
        <time>2026-07-08T09:14:24.000Z</time>
      </trkpt>
      <trkpt lat="45.78283" lon="1.84931">
        <ele>705.9</ele>
        <time>2026-07-08T09:14:25.000Z</time>
      </trkpt>
      <trkpt lat="45.78279" lon="1.84931">
        <ele>705.9</ele>
        <time>2026-07-08T09:14:26.000Z</time>
      </trkpt>
      <trkpt lat="45.78276" lon="1.84929">
        <ele>705.7</ele>
        <time>2026-07-08T09:14:27.000Z</time>
      </trkpt>
      <trkpt lat="45.78273" lon="1.84927">
        <ele>705.8</ele>
        <time>2026-07-08T09:14:28.000Z</time>
      </trkpt>
      <trkpt lat="45.7827" lon="1.84925">
        <ele>705.6</ele>
        <time>2026-07-08T09:14:29.000Z</time>
      </trkpt>
      <trkpt lat="45.78268" lon="1.84923">
        <ele>706.3</ele>
        <time>2026-07-08T09:14:30.000Z</time>
      </trkpt>
      <trkpt lat="45.78265" lon="1.84921">
        <ele>706.4</ele>
        <time>2026-07-08T09:14:31.000Z</time>
      </trkpt>
      <trkpt lat="45.78262" lon="1.8492">
        <ele>706.9</ele>
        <time>2026-07-08T09:14:32.000Z</time>
      </trkpt>
      <trkpt lat="45.78259" lon="1.84919">
        <ele>706.8</ele>
        <time>2026-07-08T09:14:33.000Z</time>
      </trkpt>
      <trkpt lat="45.78256" lon="1.84917">
        <ele>707</ele>
        <time>2026-07-08T09:14:34.000Z</time>
      </trkpt>
      <trkpt lat="45.78253" lon="1.84916">
        <ele>707.6</ele>
        <time>2026-07-08T09:14:35.000Z</time>
      </trkpt>
      <trkpt lat="45.78249" lon="1.84914">
        <ele>706.6</ele>
        <time>2026-07-08T09:14:36.000Z</time>
      </trkpt>
      <trkpt lat="45.78246" lon="1.84914">
        <ele>704.9</ele>
        <time>2026-07-08T09:14:37.000Z</time>
      </trkpt>
      <trkpt lat="45.78243" lon="1.84912">
        <ele>704.9</ele>
        <time>2026-07-08T09:14:38.000Z</time>
      </trkpt>
      <trkpt lat="45.7824" lon="1.84909">
        <ele>705.2</ele>
        <time>2026-07-08T09:14:39.000Z</time>
      </trkpt>
      <trkpt lat="45.78239" lon="1.84905">
        <ele>705.9</ele>
        <time>2026-07-08T09:14:40.000Z</time>
      </trkpt>
      <trkpt lat="45.78237" lon="1.84901">
        <ele>706.4</ele>
        <time>2026-07-08T09:14:41.000Z</time>
      </trkpt>
      <trkpt lat="45.78235" lon="1.84897">
        <ele>706.6</ele>
        <time>2026-07-08T09:14:42.000Z</time>
      </trkpt>
      <trkpt lat="45.78234" lon="1.84893">
        <ele>706.9</ele>
        <time>2026-07-08T09:14:43.000Z</time>
      </trkpt>
      <trkpt lat="45.78232" lon="1.84891">
        <ele>705.2</ele>
        <time>2026-07-08T09:14:44.000Z</time>
      </trkpt>
      <trkpt lat="45.78231" lon="1.84888">
        <ele>704.7</ele>
        <time>2026-07-08T09:14:45.000Z</time>
      </trkpt>
      <trkpt lat="45.7823" lon="1.84885">
        <ele>704.2</ele>
        <time>2026-07-08T09:14:46.000Z</time>
      </trkpt>
      <trkpt lat="45.7823" lon="1.84882">
        <ele>704.2</ele>
        <time>2026-07-08T09:14:47.000Z</time>
      </trkpt>
      <trkpt lat="45.7823" lon="1.84879">
        <ele>704.6</ele>
        <time>2026-07-08T09:14:48.000Z</time>
      </trkpt>
      <trkpt lat="45.7823" lon="1.84876">
        <ele>703.8</ele>
        <time>2026-07-08T09:14:49.000Z</time>
      </trkpt>
      <trkpt lat="45.7823" lon="1.84874">
        <ele>703.8</ele>
        <time>2026-07-08T09:14:50.000Z</time>
      </trkpt>
      <trkpt lat="45.78231" lon="1.84871">
        <ele>703.4</ele>
        <time>2026-07-08T09:14:51.000Z</time>
      </trkpt>
      <trkpt lat="45.78231" lon="1.84869">
        <ele>704.1</ele>
        <time>2026-07-08T09:14:52.000Z</time>
      </trkpt>
      <trkpt lat="45.78232" lon="1.84867">
        <ele>704.7</ele>
        <time>2026-07-08T09:14:53.000Z</time>
      </trkpt>
      <trkpt lat="45.78232" lon="1.84864">
        <ele>703.9</ele>
        <time>2026-07-08T09:14:54.000Z</time>
      </trkpt>
      <trkpt lat="45.78233" lon="1.84862">
        <ele>704.3</ele>
        <time>2026-07-08T09:14:55.000Z</time>
      </trkpt>
      <trkpt lat="45.78233" lon="1.84859">
        <ele>705.3</ele>
        <time>2026-07-08T09:14:56.000Z</time>
      </trkpt>
      <trkpt lat="45.78234" lon="1.84857">
        <ele>705.6</ele>
        <time>2026-07-08T09:14:57.000Z</time>
      </trkpt>
      <trkpt lat="45.78234" lon="1.84854">
        <ele>705.7</ele>
        <time>2026-07-08T09:14:58.000Z</time>
      </trkpt>
      <trkpt lat="45.78235" lon="1.84852">
        <ele>706.3</ele>
        <time>2026-07-08T09:14:59.000Z</time>
      </trkpt>
      <trkpt lat="45.78235" lon="1.84849">
        <ele>706.7</ele>
        <time>2026-07-08T09:15:00.000Z</time>
      </trkpt>
      <trkpt lat="45.78235" lon="1.84846">
        <ele>707</ele>
        <time>2026-07-08T09:15:01.000Z</time>
      </trkpt>
      <trkpt lat="45.78234" lon="1.84844">
        <ele>706.4</ele>
        <time>2026-07-08T09:15:02.000Z</time>
      </trkpt>
      <trkpt lat="45.78234" lon="1.84841">
        <ele>706.5</ele>
        <time>2026-07-08T09:15:03.000Z</time>
      </trkpt>
      <trkpt lat="45.78233" lon="1.84839">
        <ele>705.1</ele>
        <time>2026-07-08T09:15:04.000Z</time>
      </trkpt>
      <trkpt lat="45.78233" lon="1.84837">
        <ele>705.4</ele>
        <time>2026-07-08T09:15:05.000Z</time>
      </trkpt>
      <trkpt lat="45.78232" lon="1.84835">
        <ele>705.1</ele>
        <time>2026-07-08T09:15:06.000Z</time>
      </trkpt>
      <trkpt lat="45.78231" lon="1.84832">
        <ele>704.6</ele>
        <time>2026-07-08T09:15:07.000Z</time>
      </trkpt>
      <trkpt lat="45.78231" lon="1.8483">
        <ele>704.5</ele>
        <time>2026-07-08T09:15:08.000Z</time>
      </trkpt>
      <trkpt lat="45.78231" lon="1.84828">
        <ele>704.8</ele>
        <time>2026-07-08T09:15:09.000Z</time>
      </trkpt>
      <trkpt lat="45.78231" lon="1.84825">
        <ele>705.4</ele>
        <time>2026-07-08T09:15:10.000Z</time>
      </trkpt>
      <trkpt lat="45.78231" lon="1.84823">
        <ele>704.9</ele>
        <time>2026-07-08T09:15:11.000Z</time>
      </trkpt>
      <trkpt lat="45.78231" lon="1.84821">
        <ele>704.3</ele>
        <time>2026-07-08T09:15:12.000Z</time>
      </trkpt>
      <trkpt lat="45.78231" lon="1.84818">
        <ele>704</ele>
        <time>2026-07-08T09:15:13.000Z</time>
      </trkpt>
      <trkpt lat="45.78232" lon="1.84815">
        <ele>705</ele>
        <time>2026-07-08T09:15:14.000Z</time>
      </trkpt>
      <trkpt lat="45.78232" lon="1.84812">
        <ele>705.1</ele>
        <time>2026-07-08T09:15:15.000Z</time>
      </trkpt>
      <trkpt lat="45.78232" lon="1.84808">
        <ele>704.6</ele>
        <time>2026-07-08T09:15:16.000Z</time>
      </trkpt>
      <trkpt lat="45.78232" lon="1.84805">
        <ele>704.9</ele>
        <time>2026-07-08T09:15:17.000Z</time>
      </trkpt>
      <trkpt lat="45.78232" lon="1.84802">
        <ele>704.4</ele>
        <time>2026-07-08T09:15:18.000Z</time>
      </trkpt>
      <trkpt lat="45.78232" lon="1.84799">
        <ele>704.2</ele>
        <time>2026-07-08T09:15:19.000Z</time>
      </trkpt>
      <trkpt lat="45.78231" lon="1.84796">
        <ele>702.3</ele>
        <time>2026-07-08T09:15:20.000Z</time>
      </trkpt>
      <trkpt lat="45.78231" lon="1.84793">
        <ele>703.1</ele>
        <time>2026-07-08T09:15:21.000Z</time>
      </trkpt>
      <trkpt lat="45.7823" lon="1.84791">
        <ele>702.2</ele>
        <time>2026-07-08T09:15:22.000Z</time>
      </trkpt>
      <trkpt lat="45.78229" lon="1.84789">
        <ele>702.7</ele>
        <time>2026-07-08T09:15:23.000Z</time>
      </trkpt>
      <trkpt lat="45.78228" lon="1.84787">
        <ele>703.2</ele>
        <time>2026-07-08T09:15:24.000Z</time>
      </trkpt>
      <trkpt lat="45.78227" lon="1.84784">
        <ele>703.5</ele>
        <time>2026-07-08T09:15:25.000Z</time>
      </trkpt>
      <trkpt lat="45.78226" lon="1.84781">
        <ele>704.1</ele>
        <time>2026-07-08T09:15:26.000Z</time>
      </trkpt>
      <trkpt lat="45.78225" lon="1.84779">
        <ele>704.3</ele>
        <time>2026-07-08T09:15:27.000Z</time>
      </trkpt>
      <trkpt lat="45.78224" lon="1.84778">
        <ele>704.8</ele>
        <time>2026-07-08T09:15:28.000Z</time>
      </trkpt>
      <trkpt lat="45.78222" lon="1.84776">
        <ele>704.4</ele>
        <time>2026-07-08T09:15:29.000Z</time>
      </trkpt>
      <trkpt lat="45.78221" lon="1.84773">
        <ele>704.5</ele>
        <time>2026-07-08T09:15:30.000Z</time>
      </trkpt>
      <trkpt lat="45.7822" lon="1.84771">
        <ele>705.1</ele>
        <time>2026-07-08T09:15:31.000Z</time>
      </trkpt>
      <trkpt lat="45.78218" lon="1.8477">
        <ele>705.5</ele>
        <time>2026-07-08T09:15:32.000Z</time>
      </trkpt>
      <trkpt lat="45.78217" lon="1.84768">
        <ele>705.2</ele>
        <time>2026-07-08T09:15:33.000Z</time>
      </trkpt>
      <trkpt lat="45.78216" lon="1.84767">
        <ele>705.4</ele>
        <time>2026-07-08T09:15:34.000Z</time>
      </trkpt>
      <trkpt lat="45.78215" lon="1.84765">
        <ele>704.8</ele>
        <time>2026-07-08T09:15:35.000Z</time>
      </trkpt>
      <trkpt lat="45.78213" lon="1.84764">
        <ele>705.6</ele>
        <time>2026-07-08T09:15:36.000Z</time>
      </trkpt>
      <trkpt lat="45.78212" lon="1.84762">
        <ele>706.2</ele>
        <time>2026-07-08T09:15:37.000Z</time>
      </trkpt>
      <trkpt lat="45.7821" lon="1.84761">
        <ele>705.6</ele>
        <time>2026-07-08T09:15:38.000Z</time>
      </trkpt>
      <trkpt lat="45.78208" lon="1.8476">
        <ele>706</ele>
        <time>2026-07-08T09:15:39.000Z</time>
      </trkpt>
      <trkpt lat="45.78206" lon="1.84759">
        <ele>706.9</ele>
        <time>2026-07-08T09:15:40.000Z</time>
      </trkpt>
      <trkpt lat="45.78205" lon="1.84757">
        <ele>707.7</ele>
        <time>2026-07-08T09:15:41.000Z</time>
      </trkpt>
      <trkpt lat="45.78202" lon="1.84756">
        <ele>706.8</ele>
        <time>2026-07-08T09:15:42.000Z</time>
      </trkpt>
      <trkpt lat="45.782" lon="1.84754">
        <ele>706.8</ele>
        <time>2026-07-08T09:15:43.000Z</time>
      </trkpt>
      <trkpt lat="45.78198" lon="1.84753">
        <ele>705.9</ele>
        <time>2026-07-08T09:15:44.000Z</time>
      </trkpt>
      <trkpt lat="45.78196" lon="1.84752">
        <ele>704.9</ele>
        <time>2026-07-08T09:15:45.000Z</time>
      </trkpt>
      <trkpt lat="45.78194" lon="1.84751">
        <ele>704.5</ele>
        <time>2026-07-08T09:15:46.000Z</time>
      </trkpt>
      <trkpt lat="45.78192" lon="1.84751">
        <ele>705.1</ele>
        <time>2026-07-08T09:15:47.000Z</time>
      </trkpt>
      <trkpt lat="45.7819" lon="1.84751">
        <ele>705.2</ele>
        <time>2026-07-08T09:15:48.000Z</time>
      </trkpt>
      <trkpt lat="45.78188" lon="1.84751">
        <ele>705.6</ele>
        <time>2026-07-08T09:15:49.000Z</time>
      </trkpt>
      <trkpt lat="45.78186" lon="1.8475">
        <ele>706.3</ele>
        <time>2026-07-08T09:15:50.000Z</time>
      </trkpt>
      <trkpt lat="45.78183" lon="1.8475">
        <ele>707.6</ele>
        <time>2026-07-08T09:15:51.000Z</time>
      </trkpt>
      <trkpt lat="45.7818" lon="1.84749">
        <ele>707.8</ele>
        <time>2026-07-08T09:15:52.000Z</time>
      </trkpt>
      <trkpt lat="45.78178" lon="1.84749">
        <ele>708.1</ele>
        <time>2026-07-08T09:15:53.000Z</time>
      </trkpt>
      <trkpt lat="45.78176" lon="1.84749">
        <ele>708.7</ele>
        <time>2026-07-08T09:15:54.000Z</time>
      </trkpt>
      <trkpt lat="45.78174" lon="1.84748">
        <ele>708.6</ele>
        <time>2026-07-08T09:15:55.000Z</time>
      </trkpt>
      <trkpt lat="45.78172" lon="1.84748">
        <ele>708.6</ele>
        <time>2026-07-08T09:15:56.000Z</time>
      </trkpt>
      <trkpt lat="45.7817" lon="1.84747">
        <ele>708.8</ele>
        <time>2026-07-08T09:15:57.000Z</time>
      </trkpt>
      <trkpt lat="45.78168" lon="1.84745">
        <ele>711.8</ele>
        <time>2026-07-08T09:15:58.000Z</time>
      </trkpt>
      <trkpt lat="45.78167" lon="1.84745">
        <ele>711.9</ele>
        <time>2026-07-08T09:15:59.000Z</time>
      </trkpt>
      <trkpt lat="45.78166" lon="1.84745">
        <ele>709.2</ele>
        <time>2026-07-08T09:16:00.000Z</time>
      </trkpt>
      <trkpt lat="45.78165" lon="1.84746">
        <ele>709.7</ele>
        <time>2026-07-08T09:16:01.000Z</time>
      </trkpt>
      <trkpt lat="45.78163" lon="1.84746">
        <ele>710.4</ele>
        <time>2026-07-08T09:16:02.000Z</time>
      </trkpt>
      <trkpt lat="45.78161" lon="1.84746">
        <ele>710.5</ele>
        <time>2026-07-08T09:16:03.000Z</time>
      </trkpt>
      <trkpt lat="45.78159" lon="1.84746">
        <ele>710.6</ele>
        <time>2026-07-08T09:16:04.000Z</time>
      </trkpt>
      <trkpt lat="45.78158" lon="1.84748">
        <ele>710.1</ele>
        <time>2026-07-08T09:16:05.000Z</time>
      </trkpt>
      <trkpt lat="45.78157" lon="1.84749">
        <ele>711.1</ele>
        <time>2026-07-08T09:16:06.000Z</time>
      </trkpt>
      <trkpt lat="45.78155" lon="1.84751">
        <ele>711.1</ele>
        <time>2026-07-08T09:16:07.000Z</time>
      </trkpt>
      <trkpt lat="45.78153" lon="1.84752">
        <ele>711.4</ele>
        <time>2026-07-08T09:16:08.000Z</time>
      </trkpt>
      <trkpt lat="45.78152" lon="1.84754">
        <ele>711.3</ele>
        <time>2026-07-08T09:16:09.000Z</time>
      </trkpt>
      <trkpt lat="45.7815" lon="1.84756">
        <ele>711.9</ele>
        <time>2026-07-08T09:16:10.000Z</time>
      </trkpt>
      <trkpt lat="45.78148" lon="1.84757">
        <ele>711.3</ele>
        <time>2026-07-08T09:16:11.000Z</time>
      </trkpt>
      <trkpt lat="45.78147" lon="1.8476">
        <ele>709.8</ele>
        <time>2026-07-08T09:16:12.000Z</time>
      </trkpt>
      <trkpt lat="45.78146" lon="1.84763">
        <ele>709.1</ele>
        <time>2026-07-08T09:16:13.000Z</time>
      </trkpt>
      <trkpt lat="45.78146" lon="1.84766">
        <ele>707.8</ele>
        <time>2026-07-08T09:16:14.000Z</time>
      </trkpt>
      <trkpt lat="45.78145" lon="1.84768">
        <ele>707</ele>
        <time>2026-07-08T09:16:15.000Z</time>
      </trkpt>
      <trkpt lat="45.78144" lon="1.84771">
        <ele>707.4</ele>
        <time>2026-07-08T09:16:16.000Z</time>
      </trkpt>
      <trkpt lat="45.78143" lon="1.84774">
        <ele>706.3</ele>
        <time>2026-07-08T09:16:17.000Z</time>
      </trkpt>
      <trkpt lat="45.78142" lon="1.84776">
        <ele>704.5</ele>
        <time>2026-07-08T09:16:18.000Z</time>
      </trkpt>
      <trkpt lat="45.78142" lon="1.84779">
        <ele>705.1</ele>
        <time>2026-07-08T09:16:19.000Z</time>
      </trkpt>
      <trkpt lat="45.78141" lon="1.84781">
        <ele>704</ele>
        <time>2026-07-08T09:16:20.000Z</time>
      </trkpt>
      <trkpt lat="45.78141" lon="1.84783">
        <ele>703</ele>
        <time>2026-07-08T09:16:21.000Z</time>
      </trkpt>
      <trkpt lat="45.7814" lon="1.84785">
        <ele>703</ele>
        <time>2026-07-08T09:16:22.000Z</time>
      </trkpt>
      <trkpt lat="45.7814" lon="1.84788">
        <ele>703.7</ele>
        <time>2026-07-08T09:16:23.000Z</time>
      </trkpt>
      <trkpt lat="45.7814" lon="1.84791">
        <ele>704.2</ele>
        <time>2026-07-08T09:16:24.000Z</time>
      </trkpt>
      <trkpt lat="45.78139" lon="1.84793">
        <ele>704.2</ele>
        <time>2026-07-08T09:16:25.000Z</time>
      </trkpt>
      <trkpt lat="45.78139" lon="1.84796">
        <ele>703.9</ele>
        <time>2026-07-08T09:16:26.000Z</time>
      </trkpt>
      <trkpt lat="45.78138" lon="1.84799">
        <ele>705</ele>
        <time>2026-07-08T09:16:27.000Z</time>
      </trkpt>
      <trkpt lat="45.78137" lon="1.84801">
        <ele>705.9</ele>
        <time>2026-07-08T09:16:28.000Z</time>
      </trkpt>
      <trkpt lat="45.78136" lon="1.84804">
        <ele>707.1</ele>
        <time>2026-07-08T09:16:29.000Z</time>
      </trkpt>
      <trkpt lat="45.78135" lon="1.84806">
        <ele>706.5</ele>
        <time>2026-07-08T09:16:30.000Z</time>
      </trkpt>
      <trkpt lat="45.78135" lon="1.84808">
        <ele>707.3</ele>
        <time>2026-07-08T09:16:31.000Z</time>
      </trkpt>
      <trkpt lat="45.78135" lon="1.84811">
        <ele>708.5</ele>
        <time>2026-07-08T09:16:32.000Z</time>
      </trkpt>
      <trkpt lat="45.78135" lon="1.84814">
        <ele>708.3</ele>
        <time>2026-07-08T09:16:33.000Z</time>
      </trkpt>
      <trkpt lat="45.78134" lon="1.84817">
        <ele>708.6</ele>
        <time>2026-07-08T09:16:34.000Z</time>
      </trkpt>
      <trkpt lat="45.78134" lon="1.8482">
        <ele>708.1</ele>
        <time>2026-07-08T09:16:35.000Z</time>
      </trkpt>
      <trkpt lat="45.78134" lon="1.84823">
        <ele>708</ele>
        <time>2026-07-08T09:16:36.000Z</time>
      </trkpt>
      <trkpt lat="45.78135" lon="1.84826">
        <ele>707.9</ele>
        <time>2026-07-08T09:16:37.000Z</time>
      </trkpt>
      <trkpt lat="45.78135" lon="1.84829">
        <ele>707.4</ele>
        <time>2026-07-08T09:16:38.000Z</time>
      </trkpt>
      <trkpt lat="45.78134" lon="1.84832">
        <ele>707.6</ele>
        <time>2026-07-08T09:16:39.000Z</time>
      </trkpt>
      <trkpt lat="45.78134" lon="1.84834">
        <ele>708.2</ele>
        <time>2026-07-08T09:16:40.000Z</time>
      </trkpt>
      <trkpt lat="45.78133" lon="1.84836">
        <ele>708.3</ele>
        <time>2026-07-08T09:16:41.000Z</time>
      </trkpt>
      <trkpt lat="45.78133" lon="1.84839">
        <ele>708.5</ele>
        <time>2026-07-08T09:16:42.000Z</time>
      </trkpt>
      <trkpt lat="45.78133" lon="1.84841">
        <ele>708.7</ele>
        <time>2026-07-08T09:16:43.000Z</time>
      </trkpt>
      <trkpt lat="45.78133" lon="1.84844">
        <ele>708.6</ele>
        <time>2026-07-08T09:16:44.000Z</time>
      </trkpt>
      <trkpt lat="45.78133" lon="1.84846">
        <ele>708.1</ele>
        <time>2026-07-08T09:16:45.000Z</time>
      </trkpt>
      <trkpt lat="45.78133" lon="1.84848">
        <ele>707.8</ele>
        <time>2026-07-08T09:16:46.000Z</time>
      </trkpt>
      <trkpt lat="45.78132" lon="1.84851">
        <ele>707.8</ele>
        <time>2026-07-08T09:16:47.000Z</time>
      </trkpt>
      <trkpt lat="45.78131" lon="1.84853">
        <ele>708.3</ele>
        <time>2026-07-08T09:16:48.000Z</time>
      </trkpt>
      <trkpt lat="45.78131" lon="1.84856">
        <ele>709.5</ele>
        <time>2026-07-08T09:16:49.000Z</time>
      </trkpt>
      <trkpt lat="45.78131" lon="1.84859">
        <ele>710.6</ele>
        <time>2026-07-08T09:16:50.000Z</time>
      </trkpt>
      <trkpt lat="45.78131" lon="1.84862">
        <ele>711.4</ele>
        <time>2026-07-08T09:16:51.000Z</time>
      </trkpt>
      <trkpt lat="45.78131" lon="1.84865">
        <ele>715.4</ele>
        <time>2026-07-08T09:16:52.000Z</time>
      </trkpt>
      <trkpt lat="45.7813" lon="1.84868">
        <ele>714.4</ele>
        <time>2026-07-08T09:16:53.000Z</time>
      </trkpt>
      <trkpt lat="45.7813" lon="1.8487">
        <ele>713.7</ele>
        <time>2026-07-08T09:16:54.000Z</time>
      </trkpt>
      <trkpt lat="45.7813" lon="1.84873">
        <ele>713</ele>
        <time>2026-07-08T09:16:55.000Z</time>
      </trkpt>
      <trkpt lat="45.7813" lon="1.84876">
        <ele>713</ele>
        <time>2026-07-08T09:16:56.000Z</time>
      </trkpt>
      <trkpt lat="45.7813" lon="1.84879">
        <ele>713.1</ele>
        <time>2026-07-08T09:16:57.000Z</time>
      </trkpt>
      <trkpt lat="45.7813" lon="1.84882">
        <ele>713.3</ele>
        <time>2026-07-08T09:16:58.000Z</time>
      </trkpt>
      <trkpt lat="45.78131" lon="1.84885">
        <ele>713.3</ele>
        <time>2026-07-08T09:16:59.000Z</time>
      </trkpt>
      <trkpt lat="45.78132" lon="1.84887">
        <ele>712.1</ele>
        <time>2026-07-08T09:17:00.000Z</time>
      </trkpt>
      <trkpt lat="45.78132" lon="1.8489">
        <ele>712.1</ele>
        <time>2026-07-08T09:17:01.000Z</time>
      </trkpt>
      <trkpt lat="45.78133" lon="1.84893">
        <ele>711.5</ele>
        <time>2026-07-08T09:17:02.000Z</time>
      </trkpt>
      <trkpt lat="45.78133" lon="1.84895">
        <ele>712.5</ele>
        <time>2026-07-08T09:17:03.000Z</time>
      </trkpt>
      <trkpt lat="45.78134" lon="1.84897">
        <ele>711.2</ele>
        <time>2026-07-08T09:17:04.000Z</time>
      </trkpt>
      <trkpt lat="45.78134" lon="1.849">
        <ele>711.1</ele>
        <time>2026-07-08T09:17:05.000Z</time>
      </trkpt>
      <trkpt lat="45.78134" lon="1.84902">
        <ele>711.1</ele>
        <time>2026-07-08T09:17:06.000Z</time>
      </trkpt>
      <trkpt lat="45.78135" lon="1.84905">
        <ele>710.9</ele>
        <time>2026-07-08T09:17:07.000Z</time>
      </trkpt>
      <trkpt lat="45.78135" lon="1.84907">
        <ele>710.4</ele>
        <time>2026-07-08T09:17:08.000Z</time>
      </trkpt>
      <trkpt lat="45.78136" lon="1.8491">
        <ele>708</ele>
        <time>2026-07-08T09:17:09.000Z</time>
      </trkpt>
      <trkpt lat="45.78137" lon="1.84913">
        <ele>705.4</ele>
        <time>2026-07-08T09:17:10.000Z</time>
      </trkpt>
      <trkpt lat="45.78136" lon="1.84916">
        <ele>704.6</ele>
        <time>2026-07-08T09:17:11.000Z</time>
      </trkpt>
      <trkpt lat="45.78136" lon="1.84919">
        <ele>704.8</ele>
        <time>2026-07-08T09:17:12.000Z</time>
      </trkpt>
      <trkpt lat="45.78135" lon="1.84922">
        <ele>704</ele>
        <time>2026-07-08T09:17:13.000Z</time>
      </trkpt>
      <trkpt lat="45.78135" lon="1.84924">
        <ele>703.9</ele>
        <time>2026-07-08T09:17:14.000Z</time>
      </trkpt>
      <trkpt lat="45.78134" lon="1.84927">
        <ele>703.8</ele>
        <time>2026-07-08T09:17:15.000Z</time>
      </trkpt>
      <trkpt lat="45.78134" lon="1.84929">
        <ele>702.9</ele>
        <time>2026-07-08T09:17:16.000Z</time>
      </trkpt>
      <trkpt lat="45.78133" lon="1.84931">
        <ele>703.5</ele>
        <time>2026-07-08T09:17:17.000Z</time>
      </trkpt>
      <trkpt lat="45.78133" lon="1.84934">
        <ele>703.6</ele>
        <time>2026-07-08T09:17:18.000Z</time>
      </trkpt>
      <trkpt lat="45.78132" lon="1.84937">
        <ele>703.6</ele>
        <time>2026-07-08T09:17:19.000Z</time>
      </trkpt>
      <trkpt lat="45.78131" lon="1.84939">
        <ele>703.9</ele>
        <time>2026-07-08T09:17:20.000Z</time>
      </trkpt>
      <trkpt lat="45.78131" lon="1.84942">
        <ele>704.2</ele>
        <time>2026-07-08T09:17:21.000Z</time>
      </trkpt>
      <trkpt lat="45.7813" lon="1.84944">
        <ele>704.3</ele>
        <time>2026-07-08T09:17:22.000Z</time>
      </trkpt>
      <trkpt lat="45.78129" lon="1.84947">
        <ele>704.8</ele>
        <time>2026-07-08T09:17:23.000Z</time>
      </trkpt>
      <trkpt lat="45.78128" lon="1.84949">
        <ele>705</ele>
        <time>2026-07-08T09:17:24.000Z</time>
      </trkpt>
      <trkpt lat="45.78127" lon="1.84951">
        <ele>704.4</ele>
        <time>2026-07-08T09:17:25.000Z</time>
      </trkpt>
      <trkpt lat="45.78126" lon="1.84954">
        <ele>704.7</ele>
        <time>2026-07-08T09:17:26.000Z</time>
      </trkpt>
      <trkpt lat="45.78126" lon="1.84957">
        <ele>704.9</ele>
        <time>2026-07-08T09:17:27.000Z</time>
      </trkpt>
      <trkpt lat="45.78126" lon="1.84959">
        <ele>705.2</ele>
        <time>2026-07-08T09:17:28.000Z</time>
      </trkpt>
      <trkpt lat="45.78126" lon="1.84961">
        <ele>705.5</ele>
        <time>2026-07-08T09:17:29.000Z</time>
      </trkpt>
      <trkpt lat="45.78126" lon="1.84961">
        <ele>705.6</ele>
        <time>2026-07-08T09:17:30.000Z</time>
      </trkpt>
      <trkpt lat="45.78125" lon="1.84962">
        <ele>705.9</ele>
        <time>2026-07-08T09:17:31.000Z</time>
      </trkpt>
      <trkpt lat="45.78125" lon="1.84962">
        <ele>706.1</ele>
        <time>2026-07-08T09:17:32.000Z</time>
      </trkpt>
      <trkpt lat="45.78125" lon="1.84963">
        <ele>706</ele>
        <time>2026-07-08T09:17:33.000Z</time>
      </trkpt>
      <trkpt lat="45.78125" lon="1.84962">
        <ele>705.9</ele>
        <time>2026-07-08T09:17:34.000Z</time>
      </trkpt>
      <trkpt lat="45.78125" lon="1.84961">
        <ele>706</ele>
        <time>2026-07-08T09:17:35.000Z</time>
      </trkpt>
      <trkpt lat="45.78125" lon="1.84961">
        <ele>705.9</ele>
        <time>2026-07-08T09:17:36.000Z</time>
      </trkpt>
      <trkpt lat="45.78126" lon="1.84961">
        <ele>705.9</ele>
        <time>2026-07-08T09:17:37.000Z</time>
      </trkpt>
      <trkpt lat="45.78126" lon="1.84961">
        <ele>706.1</ele>
        <time>2026-07-08T09:17:38.000Z</time>
      </trkpt>
      <trkpt lat="45.78126" lon="1.84962">
        <ele>706.1</ele>
        <time>2026-07-08T09:17:39.000Z</time>
      </trkpt>
      <trkpt lat="45.78126" lon="1.84964">
        <ele>706</ele>
        <time>2026-07-08T09:17:40.000Z</time>
      </trkpt>
      <trkpt lat="45.78125" lon="1.84966">
        <ele>706.5</ele>
        <time>2026-07-08T09:17:41.000Z</time>
      </trkpt>
      <trkpt lat="45.78125" lon="1.84968">
        <ele>706.4</ele>
        <time>2026-07-08T09:17:42.000Z</time>
      </trkpt>
      <trkpt lat="45.78124" lon="1.84971">
        <ele>706.6</ele>
        <time>2026-07-08T09:17:43.000Z</time>
      </trkpt>
      <trkpt lat="45.78123" lon="1.84973">
        <ele>706.6</ele>
        <time>2026-07-08T09:17:44.000Z</time>
      </trkpt>
      <trkpt lat="45.78123" lon="1.84976">
        <ele>706.8</ele>
        <time>2026-07-08T09:17:45.000Z</time>
      </trkpt>
      <trkpt lat="45.78123" lon="1.84979">
        <ele>706.7</ele>
        <time>2026-07-08T09:17:46.000Z</time>
      </trkpt>
      <trkpt lat="45.78122" lon="1.84981">
        <ele>706.6</ele>
        <time>2026-07-08T09:17:47.000Z</time>
      </trkpt>
      <trkpt lat="45.78122" lon="1.84983">
        <ele>706.6</ele>
        <time>2026-07-08T09:17:48.000Z</time>
      </trkpt>
      <trkpt lat="45.78121" lon="1.84986">
        <ele>706.6</ele>
        <time>2026-07-08T09:17:49.000Z</time>
      </trkpt>
      <trkpt lat="45.78121" lon="1.84988">
        <ele>706.5</ele>
        <time>2026-07-08T09:17:50.000Z</time>
      </trkpt>
      <trkpt lat="45.7812" lon="1.84991">
        <ele>706.3</ele>
        <time>2026-07-08T09:17:51.000Z</time>
      </trkpt>
      <trkpt lat="45.7812" lon="1.84993">
        <ele>706.3</ele>
        <time>2026-07-08T09:17:52.000Z</time>
      </trkpt>
      <trkpt lat="45.78119" lon="1.84996">
        <ele>706.1</ele>
        <time>2026-07-08T09:17:53.000Z</time>
      </trkpt>
      <trkpt lat="45.78119" lon="1.84998">
        <ele>706</ele>
        <time>2026-07-08T09:17:54.000Z</time>
      </trkpt>
      <trkpt lat="45.78118" lon="1.85">
        <ele>706</ele>
        <time>2026-07-08T09:17:55.000Z</time>
      </trkpt>
      <trkpt lat="45.78118" lon="1.85002">
        <ele>705.7</ele>
        <time>2026-07-08T09:17:56.000Z</time>
      </trkpt>
      <trkpt lat="45.78118" lon="1.85005">
        <ele>705.3</ele>
        <time>2026-07-08T09:17:57.000Z</time>
      </trkpt>
      <trkpt lat="45.78117" lon="1.85007">
        <ele>705.2</ele>
        <time>2026-07-08T09:17:58.000Z</time>
      </trkpt>
      <trkpt lat="45.78116" lon="1.85009">
        <ele>704.9</ele>
        <time>2026-07-08T09:17:59.000Z</time>
      </trkpt>
      <trkpt lat="45.78115" lon="1.85012">
        <ele>704.7</ele>
        <time>2026-07-08T09:18:00.000Z</time>
      </trkpt>
      <trkpt lat="45.78114" lon="1.85014">
        <ele>704.7</ele>
        <time>2026-07-08T09:18:01.000Z</time>
      </trkpt>
      <trkpt lat="45.78113" lon="1.85016">
        <ele>704.8</ele>
        <time>2026-07-08T09:18:02.000Z</time>
      </trkpt>
      <trkpt lat="45.78112" lon="1.85018">
        <ele>704.7</ele>
        <time>2026-07-08T09:18:03.000Z</time>
      </trkpt>
      <trkpt lat="45.7811" lon="1.85019">
        <ele>704.7</ele>
        <time>2026-07-08T09:18:04.000Z</time>
      </trkpt>
      <trkpt lat="45.78108" lon="1.8502">
        <ele>704.8</ele>
        <time>2026-07-08T09:18:05.000Z</time>
      </trkpt>
      <trkpt lat="45.78107" lon="1.85021">
        <ele>704.7</ele>
        <time>2026-07-08T09:18:06.000Z</time>
      </trkpt>
      <trkpt lat="45.78105" lon="1.85021">
        <ele>704.9</ele>
        <time>2026-07-08T09:18:07.000Z</time>
      </trkpt>
      <trkpt lat="45.78104" lon="1.85023">
        <ele>704.7</ele>
        <time>2026-07-08T09:18:08.000Z</time>
      </trkpt>
      <trkpt lat="45.78102" lon="1.85025">
        <ele>704.5</ele>
        <time>2026-07-08T09:18:09.000Z</time>
      </trkpt>
      <trkpt lat="45.78101" lon="1.85027">
        <ele>704.6</ele>
        <time>2026-07-08T09:18:10.000Z</time>
      </trkpt>
      <trkpt lat="45.781" lon="1.85028">
        <ele>704.5</ele>
        <time>2026-07-08T09:18:11.000Z</time>
      </trkpt>
      <trkpt lat="45.78098" lon="1.8503">
        <ele>704.7</ele>
        <time>2026-07-08T09:18:12.000Z</time>
      </trkpt>
      <trkpt lat="45.78097" lon="1.85031">
        <ele>704.7</ele>
        <time>2026-07-08T09:18:13.000Z</time>
      </trkpt>
      <trkpt lat="45.78096" lon="1.85033">
        <ele>704.6</ele>
        <time>2026-07-08T09:18:14.000Z</time>
      </trkpt>
      <trkpt lat="45.78094" lon="1.85034">
        <ele>704.6</ele>
        <time>2026-07-08T09:18:15.000Z</time>
      </trkpt>
      <trkpt lat="45.78094" lon="1.85038">
        <ele>703.9</ele>
        <time>2026-07-08T09:18:16.000Z</time>
      </trkpt>
      <trkpt lat="45.78093" lon="1.85039">
        <ele>703.7</ele>
        <time>2026-07-08T09:18:17.000Z</time>
      </trkpt>
      <trkpt lat="45.78091" lon="1.85039">
        <ele>703.4</ele>
        <time>2026-07-08T09:18:18.000Z</time>
      </trkpt>
      <trkpt lat="45.7809" lon="1.8504">
        <ele>703.2</ele>
        <time>2026-07-08T09:18:19.000Z</time>
      </trkpt>
      <trkpt lat="45.78087" lon="1.85038">
        <ele>704</ele>
        <time>2026-07-08T09:18:20.000Z</time>
      </trkpt>
      <trkpt lat="45.78086" lon="1.85039">
        <ele>704</ele>
        <time>2026-07-08T09:18:21.000Z</time>
      </trkpt>
      <trkpt lat="45.78084" lon="1.85041">
        <ele>703.7</ele>
        <time>2026-07-08T09:18:22.000Z</time>
      </trkpt>
      <trkpt lat="45.78082" lon="1.85041">
        <ele>703.7</ele>
        <time>2026-07-08T09:18:23.000Z</time>
      </trkpt>
      <trkpt lat="45.7808" lon="1.85041">
        <ele>703.4</ele>
        <time>2026-07-08T09:18:24.000Z</time>
      </trkpt>
      <trkpt lat="45.78079" lon="1.8504">
        <ele>703.6</ele>
        <time>2026-07-08T09:18:25.000Z</time>
      </trkpt>
      <trkpt lat="45.78078" lon="1.8504">
        <ele>703.4</ele>
        <time>2026-07-08T09:18:26.000Z</time>
      </trkpt>
      <trkpt lat="45.78077" lon="1.85039">
        <ele>703.3</ele>
        <time>2026-07-08T09:18:27.000Z</time>
      </trkpt>
      <trkpt lat="45.78077" lon="1.85039">
        <ele>703.4</ele>
        <time>2026-07-08T09:18:28.000Z</time>
      </trkpt>
      <trkpt lat="45.78077" lon="1.85039">
        <ele>703.4</ele>
        <time>2026-07-08T09:18:29.000Z</time>
      </trkpt>
      <trkpt lat="45.78077" lon="1.8504">
        <ele>703.4</ele>
        <time>2026-07-08T09:18:30.000Z</time>
      </trkpt>
      <trkpt lat="45.78077" lon="1.8504">
        <ele>703.4</ele>
        <time>2026-07-08T09:18:31.000Z</time>
      </trkpt>
      <trkpt lat="45.78077" lon="1.8504">
        <ele>703.4</ele>
        <time>2026-07-08T09:18:32.000Z</time>
      </trkpt>
      <trkpt lat="45.78077" lon="1.8504">
        <ele>703.1</ele>
        <time>2026-07-08T09:18:33.000Z</time>
      </trkpt>
      <trkpt lat="45.78077" lon="1.85039">
        <ele>703.2</ele>
        <time>2026-07-08T09:18:34.000Z</time>
      </trkpt>
      <trkpt lat="45.78077" lon="1.85039">
        <ele>703.1</ele>
        <time>2026-07-08T09:18:35.000Z</time>
      </trkpt>
      <trkpt lat="45.78077" lon="1.85039">
        <ele>703.1</ele>
        <time>2026-07-08T09:18:36.000Z</time>
      </trkpt>
      <trkpt lat="45.78077" lon="1.85039">
        <ele>703.1</ele>
        <time>2026-07-08T09:18:37.000Z</time>
      </trkpt>
      <trkpt lat="45.78077" lon="1.85039">
        <ele>703.1</ele>
        <time>2026-07-08T09:18:38.000Z</time>
      </trkpt>
      <trkpt lat="45.78077" lon="1.85039">
        <ele>703.1</ele>
        <time>2026-07-08T09:18:39.000Z</time>
      </trkpt>
      <trkpt lat="45.78077" lon="1.85039">
        <ele>703</ele>
        <time>2026-07-08T09:18:40.000Z</time>
      </trkpt>
      <trkpt lat="45.78077" lon="1.8504">
        <ele>703.1</ele>
        <time>2026-07-08T09:18:41.000Z</time>
      </trkpt>
      <trkpt lat="45.78077" lon="1.8504">
        <ele>703.1</ele>
        <time>2026-07-08T09:18:42.000Z</time>
      </trkpt>
      <trkpt lat="45.78077" lon="1.8504">
        <ele>703.2</ele>
        <time>2026-07-08T09:18:43.000Z</time>
      </trkpt>
      <trkpt lat="45.78077" lon="1.8504">
        <ele>703.4</ele>
        <time>2026-07-08T09:18:44.000Z</time>
      </trkpt>
      <trkpt lat="45.78077" lon="1.85039">
        <ele>703.4</ele>
        <time>2026-07-08T09:18:45.000Z</time>
      </trkpt>
      <trkpt lat="45.78076" lon="1.85038">
        <ele>703.7</ele>
        <time>2026-07-08T09:18:46.000Z</time>
      </trkpt>
      <trkpt lat="45.78075" lon="1.85036">
        <ele>704.3</ele>
        <time>2026-07-08T09:18:47.000Z</time>
      </trkpt>
      <trkpt lat="45.78074" lon="1.85035">
        <ele>704</ele>
        <time>2026-07-08T09:18:48.000Z</time>
      </trkpt>
      <trkpt lat="45.78072" lon="1.85035">
        <ele>704</ele>
        <time>2026-07-08T09:18:49.000Z</time>
      </trkpt>
      <trkpt lat="45.7807" lon="1.85034">
        <ele>703.9</ele>
        <time>2026-07-08T09:18:50.000Z</time>
      </trkpt>
      <trkpt lat="45.78068" lon="1.85033">
        <ele>703.7</ele>
        <time>2026-07-08T09:18:51.000Z</time>
      </trkpt>
      <trkpt lat="45.78066" lon="1.85033">
        <ele>703.6</ele>
        <time>2026-07-08T09:18:52.000Z</time>
      </trkpt>
      <trkpt lat="45.78063" lon="1.85034">
        <ele>703.4</ele>
        <time>2026-07-08T09:18:53.000Z</time>
      </trkpt>
      <trkpt lat="45.78062" lon="1.85034">
        <ele>703.2</ele>
        <time>2026-07-08T09:18:54.000Z</time>
      </trkpt>
      <trkpt lat="45.7806" lon="1.85034">
        <ele>703.4</ele>
        <time>2026-07-08T09:18:55.000Z</time>
      </trkpt>
      <trkpt lat="45.78058" lon="1.85034">
        <ele>703.4</ele>
        <time>2026-07-08T09:18:56.000Z</time>
      </trkpt>
      <trkpt lat="45.78056" lon="1.85034">
        <ele>703.1</ele>
        <time>2026-07-08T09:18:57.000Z</time>
      </trkpt>
      <trkpt lat="45.78054" lon="1.85035">
        <ele>703.2</ele>
        <time>2026-07-08T09:18:58.000Z</time>
      </trkpt>
      <trkpt lat="45.78052" lon="1.85036">
        <ele>703</ele>
        <time>2026-07-08T09:18:59.000Z</time>
      </trkpt>
      <trkpt lat="45.7805" lon="1.85037">
        <ele>703.1</ele>
        <time>2026-07-08T09:19:00.000Z</time>
      </trkpt>
      <trkpt lat="45.78047" lon="1.85038">
        <ele>702.9</ele>
        <time>2026-07-08T09:19:01.000Z</time>
      </trkpt>
      <trkpt lat="45.78045" lon="1.85038">
        <ele>702.8</ele>
        <time>2026-07-08T09:19:02.000Z</time>
      </trkpt>
      <trkpt lat="45.78043" lon="1.85039">
        <ele>702.8</ele>
        <time>2026-07-08T09:19:03.000Z</time>
      </trkpt>
      <trkpt lat="45.78041" lon="1.8504">
        <ele>702.7</ele>
        <time>2026-07-08T09:19:04.000Z</time>
      </trkpt>
      <trkpt lat="45.78039" lon="1.8504">
        <ele>702.6</ele>
        <time>2026-07-08T09:19:05.000Z</time>
      </trkpt>
      <trkpt lat="45.78037" lon="1.8504">
        <ele>702.5</ele>
        <time>2026-07-08T09:19:06.000Z</time>
      </trkpt>
      <trkpt lat="45.78035" lon="1.85041">
        <ele>702.6</ele>
        <time>2026-07-08T09:19:07.000Z</time>
      </trkpt>
      <trkpt lat="45.78033" lon="1.85041">
        <ele>702.4</ele>
        <time>2026-07-08T09:19:08.000Z</time>
      </trkpt>
      <trkpt lat="45.78032" lon="1.85042">
        <ele>702.4</ele>
        <time>2026-07-08T09:19:09.000Z</time>
      </trkpt>
      <trkpt lat="45.7803" lon="1.85042">
        <ele>702.4</ele>
        <time>2026-07-08T09:19:10.000Z</time>
      </trkpt>
      <trkpt lat="45.78028" lon="1.85043">
        <ele>702.4</ele>
        <time>2026-07-08T09:19:11.000Z</time>
      </trkpt>
      <trkpt lat="45.78026" lon="1.85044">
        <ele>702.2</ele>
        <time>2026-07-08T09:19:12.000Z</time>
      </trkpt>
      <trkpt lat="45.78024" lon="1.85044">
        <ele>702.3</ele>
        <time>2026-07-08T09:19:13.000Z</time>
      </trkpt>
      <trkpt lat="45.78023" lon="1.85045">
        <ele>702.1</ele>
        <time>2026-07-08T09:19:14.000Z</time>
      </trkpt>
      <trkpt lat="45.78021" lon="1.85046">
        <ele>702</ele>
        <time>2026-07-08T09:19:15.000Z</time>
      </trkpt>
      <trkpt lat="45.78019" lon="1.85047">
        <ele>702</ele>
        <time>2026-07-08T09:19:16.000Z</time>
      </trkpt>
      <trkpt lat="45.78017" lon="1.85048">
        <ele>701.9</ele>
        <time>2026-07-08T09:19:17.000Z</time>
      </trkpt>
      <trkpt lat="45.78015" lon="1.85049">
        <ele>701.9</ele>
        <time>2026-07-08T09:19:18.000Z</time>
      </trkpt>
      <trkpt lat="45.78013" lon="1.85049">
        <ele>702</ele>
        <time>2026-07-08T09:19:19.000Z</time>
      </trkpt>
      <trkpt lat="45.78012" lon="1.8505">
        <ele>702.1</ele>
        <time>2026-07-08T09:19:20.000Z</time>
      </trkpt>
      <trkpt lat="45.7801" lon="1.85051">
        <ele>702.2</ele>
        <time>2026-07-08T09:19:21.000Z</time>
      </trkpt>
      <trkpt lat="45.78008" lon="1.85052">
        <ele>702.2</ele>
        <time>2026-07-08T09:19:22.000Z</time>
      </trkpt>
      <trkpt lat="45.78006" lon="1.85053">
        <ele>702.5</ele>
        <time>2026-07-08T09:19:23.000Z</time>
      </trkpt>
      <trkpt lat="45.78005" lon="1.85054">
        <ele>702.5</ele>
        <time>2026-07-08T09:19:24.000Z</time>
      </trkpt>
      <trkpt lat="45.78003" lon="1.85055">
        <ele>702.6</ele>
        <time>2026-07-08T09:19:25.000Z</time>
      </trkpt>
      <trkpt lat="45.78001" lon="1.85056">
        <ele>702.8</ele>
        <time>2026-07-08T09:19:26.000Z</time>
      </trkpt>
      <trkpt lat="45.78" lon="1.85057">
        <ele>703</ele>
        <time>2026-07-08T09:19:27.000Z</time>
      </trkpt>
      <trkpt lat="45.77998" lon="1.85058">
        <ele>703.2</ele>
        <time>2026-07-08T09:19:28.000Z</time>
      </trkpt>
      <trkpt lat="45.77997" lon="1.8506">
        <ele>703.1</ele>
        <time>2026-07-08T09:19:29.000Z</time>
      </trkpt>
      <trkpt lat="45.77995" lon="1.85061">
        <ele>703</ele>
        <time>2026-07-08T09:19:30.000Z</time>
      </trkpt>
      <trkpt lat="45.77994" lon="1.85062">
        <ele>702.6</ele>
        <time>2026-07-08T09:19:31.000Z</time>
      </trkpt>
      <trkpt lat="45.77993" lon="1.85063">
        <ele>703</ele>
        <time>2026-07-08T09:19:32.000Z</time>
      </trkpt>
      <trkpt lat="45.77991" lon="1.85065">
        <ele>702.8</ele>
        <time>2026-07-08T09:19:33.000Z</time>
      </trkpt>
      <trkpt lat="45.7799" lon="1.85066">
        <ele>702.7</ele>
        <time>2026-07-08T09:19:34.000Z</time>
      </trkpt>
      <trkpt lat="45.77988" lon="1.85068">
        <ele>702.7</ele>
        <time>2026-07-08T09:19:35.000Z</time>
      </trkpt>
      <trkpt lat="45.77987" lon="1.8507">
        <ele>702.6</ele>
        <time>2026-07-08T09:19:36.000Z</time>
      </trkpt>
      <trkpt lat="45.77985" lon="1.85071">
        <ele>702.5</ele>
        <time>2026-07-08T09:19:37.000Z</time>
      </trkpt>
      <trkpt lat="45.77984" lon="1.85073">
        <ele>702.3</ele>
        <time>2026-07-08T09:19:38.000Z</time>
      </trkpt>
      <trkpt lat="45.77983" lon="1.85075">
        <ele>702</ele>
        <time>2026-07-08T09:19:39.000Z</time>
      </trkpt>
      <trkpt lat="45.77982" lon="1.85077">
        <ele>701.8</ele>
        <time>2026-07-08T09:19:40.000Z</time>
      </trkpt>
      <trkpt lat="45.77981" lon="1.85078">
        <ele>702.1</ele>
        <time>2026-07-08T09:19:41.000Z</time>
      </trkpt>
      <trkpt lat="45.77981" lon="1.8508">
        <ele>702.4</ele>
        <time>2026-07-08T09:19:42.000Z</time>
      </trkpt>
      <trkpt lat="45.7798" lon="1.85082">
        <ele>702.3</ele>
        <time>2026-07-08T09:19:43.000Z</time>
      </trkpt>
      <trkpt lat="45.77979" lon="1.85085">
        <ele>702.8</ele>
        <time>2026-07-08T09:19:44.000Z</time>
      </trkpt>
      <trkpt lat="45.77979" lon="1.85087">
        <ele>703.2</ele>
        <time>2026-07-08T09:19:45.000Z</time>
      </trkpt>
      <trkpt lat="45.77979" lon="1.8509">
        <ele>703.3</ele>
        <time>2026-07-08T09:19:46.000Z</time>
      </trkpt>
      <trkpt lat="45.77978" lon="1.85092">
        <ele>703.1</ele>
        <time>2026-07-08T09:19:47.000Z</time>
      </trkpt>
      <trkpt lat="45.77978" lon="1.85095">
        <ele>703.4</ele>
        <time>2026-07-08T09:19:48.000Z</time>
      </trkpt>
      <trkpt lat="45.77977" lon="1.85097">
        <ele>703.5</ele>
        <time>2026-07-08T09:19:49.000Z</time>
      </trkpt>
      <trkpt lat="45.77976" lon="1.85099">
        <ele>702.7</ele>
        <time>2026-07-08T09:19:50.000Z</time>
      </trkpt>
      <trkpt lat="45.77976" lon="1.85101">
        <ele>702.7</ele>
        <time>2026-07-08T09:19:51.000Z</time>
      </trkpt>
      <trkpt lat="45.77976" lon="1.85103">
        <ele>702.3</ele>
        <time>2026-07-08T09:19:52.000Z</time>
      </trkpt>
      <trkpt lat="45.77976" lon="1.85105">
        <ele>702.1</ele>
        <time>2026-07-08T09:19:53.000Z</time>
      </trkpt>
      <trkpt lat="45.77976" lon="1.85108">
        <ele>702</ele>
        <time>2026-07-08T09:19:54.000Z</time>
      </trkpt>
      <trkpt lat="45.77976" lon="1.85111">
        <ele>702.2</ele>
        <time>2026-07-08T09:19:55.000Z</time>
      </trkpt>
      <trkpt lat="45.77976" lon="1.85114">
        <ele>703</ele>
        <time>2026-07-08T09:19:56.000Z</time>
      </trkpt>
      <trkpt lat="45.77976" lon="1.85117">
        <ele>702.8</ele>
        <time>2026-07-08T09:19:57.000Z</time>
      </trkpt>
      <trkpt lat="45.77977" lon="1.85121">
        <ele>703.9</ele>
        <time>2026-07-08T09:19:58.000Z</time>
      </trkpt>
      <trkpt lat="45.77977" lon="1.85124">
        <ele>704</ele>
        <time>2026-07-08T09:19:59.000Z</time>
      </trkpt>
      <trkpt lat="45.77978" lon="1.85127">
        <ele>703</ele>
        <time>2026-07-08T09:20:00.000Z</time>
      </trkpt>
      <trkpt lat="45.77978" lon="1.8513">
        <ele>702.9</ele>
        <time>2026-07-08T09:20:01.000Z</time>
      </trkpt>
      <trkpt lat="45.77978" lon="1.85133">
        <ele>702.8</ele>
        <time>2026-07-08T09:20:02.000Z</time>
      </trkpt>
      <trkpt lat="45.77978" lon="1.85136">
        <ele>703.2</ele>
        <time>2026-07-08T09:20:03.000Z</time>
      </trkpt>
      <trkpt lat="45.77978" lon="1.85139">
        <ele>703.1</ele>
        <time>2026-07-08T09:20:04.000Z</time>
      </trkpt>
      <trkpt lat="45.77978" lon="1.85141">
        <ele>702.8</ele>
        <time>2026-07-08T09:20:05.000Z</time>
      </trkpt>
      <trkpt lat="45.77979" lon="1.85144">
        <ele>702.4</ele>
        <time>2026-07-08T09:20:06.000Z</time>
      </trkpt>
      <trkpt lat="45.77979" lon="1.85147">
        <ele>702.4</ele>
        <time>2026-07-08T09:20:07.000Z</time>
      </trkpt>
      <trkpt lat="45.77979" lon="1.85149">
        <ele>701.8</ele>
        <time>2026-07-08T09:20:08.000Z</time>
      </trkpt>
      <trkpt lat="45.77979" lon="1.85152">
        <ele>701.8</ele>
        <time>2026-07-08T09:20:09.000Z</time>
      </trkpt>
      <trkpt lat="45.7798" lon="1.85154">
        <ele>701.5</ele>
        <time>2026-07-08T09:20:10.000Z</time>
      </trkpt>
      <trkpt lat="45.77981" lon="1.85156">
        <ele>701.6</ele>
        <time>2026-07-08T09:20:11.000Z</time>
      </trkpt>
      <trkpt lat="45.77981" lon="1.85158">
        <ele>701.5</ele>
        <time>2026-07-08T09:20:12.000Z</time>
      </trkpt>
      <trkpt lat="45.77982" lon="1.8516">
        <ele>701.5</ele>
        <time>2026-07-08T09:20:13.000Z</time>
      </trkpt>
      <trkpt lat="45.77983" lon="1.85163">
        <ele>702.3</ele>
        <time>2026-07-08T09:20:14.000Z</time>
      </trkpt>
      <trkpt lat="45.77984" lon="1.85165">
        <ele>702.1</ele>
        <time>2026-07-08T09:20:15.000Z</time>
      </trkpt>
      <trkpt lat="45.77985" lon="1.85167">
        <ele>701.8</ele>
        <time>2026-07-08T09:20:16.000Z</time>
      </trkpt>
      <trkpt lat="45.77986" lon="1.85169">
        <ele>702.1</ele>
        <time>2026-07-08T09:20:17.000Z</time>
      </trkpt>
      <trkpt lat="45.77987" lon="1.85171">
        <ele>701.5</ele>
        <time>2026-07-08T09:20:18.000Z</time>
      </trkpt>
      <trkpt lat="45.77988" lon="1.85173">
        <ele>701.8</ele>
        <time>2026-07-08T09:20:19.000Z</time>
      </trkpt>
      <trkpt lat="45.7799" lon="1.85175">
        <ele>701.2</ele>
        <time>2026-07-08T09:20:20.000Z</time>
      </trkpt>
      <trkpt lat="45.77991" lon="1.85177">
        <ele>700.9</ele>
        <time>2026-07-08T09:20:21.000Z</time>
      </trkpt>
      <trkpt lat="45.77992" lon="1.85179">
        <ele>701.2</ele>
        <time>2026-07-08T09:20:22.000Z</time>
      </trkpt>
      <trkpt lat="45.77993" lon="1.85181">
        <ele>701.8</ele>
        <time>2026-07-08T09:20:23.000Z</time>
      </trkpt>
      <trkpt lat="45.77995" lon="1.85183">
        <ele>701.3</ele>
        <time>2026-07-08T09:20:24.000Z</time>
      </trkpt>
      <trkpt lat="45.77996" lon="1.85185">
        <ele>701.1</ele>
        <time>2026-07-08T09:20:25.000Z</time>
      </trkpt>
      <trkpt lat="45.77997" lon="1.85187">
        <ele>701.8</ele>
        <time>2026-07-08T09:20:26.000Z</time>
      </trkpt>
      <trkpt lat="45.77999" lon="1.85189">
        <ele>701.2</ele>
        <time>2026-07-08T09:20:27.000Z</time>
      </trkpt>
      <trkpt lat="45.78" lon="1.85191">
        <ele>701.5</ele>
        <time>2026-07-08T09:20:28.000Z</time>
      </trkpt>
      <trkpt lat="45.78002" lon="1.85194">
        <ele>701</ele>
        <time>2026-07-08T09:20:29.000Z</time>
      </trkpt>
      <trkpt lat="45.78003" lon="1.85197">
        <ele>701.6</ele>
        <time>2026-07-08T09:20:30.000Z</time>
      </trkpt>
      <trkpt lat="45.78005" lon="1.852">
        <ele>701.8</ele>
        <time>2026-07-08T09:20:31.000Z</time>
      </trkpt>
      <trkpt lat="45.78006" lon="1.85201">
        <ele>701.9</ele>
        <time>2026-07-08T09:20:32.000Z</time>
      </trkpt>
      <trkpt lat="45.78007" lon="1.85202">
        <ele>702.6</ele>
        <time>2026-07-08T09:20:33.000Z</time>
      </trkpt>
      <trkpt lat="45.78008" lon="1.85203">
        <ele>702.7</ele>
        <time>2026-07-08T09:20:34.000Z</time>
      </trkpt>
      <trkpt lat="45.78009" lon="1.85204">
        <ele>703.2</ele>
        <time>2026-07-08T09:20:35.000Z</time>
      </trkpt>
      <trkpt lat="45.78011" lon="1.85205">
        <ele>703.6</ele>
        <time>2026-07-08T09:20:36.000Z</time>
      </trkpt>
      <trkpt lat="45.78012" lon="1.85206">
        <ele>704</ele>
        <time>2026-07-08T09:20:37.000Z</time>
      </trkpt>
      <trkpt lat="45.78013" lon="1.85208">
        <ele>703.3</ele>
        <time>2026-07-08T09:20:38.000Z</time>
      </trkpt>
      <trkpt lat="45.78014" lon="1.8521">
        <ele>703.6</ele>
        <time>2026-07-08T09:20:39.000Z</time>
      </trkpt>
      <trkpt lat="45.78015" lon="1.85213">
        <ele>704.4</ele>
        <time>2026-07-08T09:20:40.000Z</time>
      </trkpt>
      <trkpt lat="45.78016" lon="1.85215">
        <ele>705</ele>
        <time>2026-07-08T09:20:41.000Z</time>
      </trkpt>
      <trkpt lat="45.78018" lon="1.85217">
        <ele>705.3</ele>
        <time>2026-07-08T09:20:42.000Z</time>
      </trkpt>
      <trkpt lat="45.78019" lon="1.85219">
        <ele>706.4</ele>
        <time>2026-07-08T09:20:43.000Z</time>
      </trkpt>
      <trkpt lat="45.78019" lon="1.85221">
        <ele>707.1</ele>
        <time>2026-07-08T09:20:44.000Z</time>
      </trkpt>
      <trkpt lat="45.7802" lon="1.85222">
        <ele>706.5</ele>
        <time>2026-07-08T09:20:45.000Z</time>
      </trkpt>
      <trkpt lat="45.78021" lon="1.85223">
        <ele>707.1</ele>
        <time>2026-07-08T09:20:46.000Z</time>
      </trkpt>
      <trkpt lat="45.78023" lon="1.85224">
        <ele>706.2</ele>
        <time>2026-07-08T09:20:47.000Z</time>
      </trkpt>
      <trkpt lat="45.78024" lon="1.85224">
        <ele>705</ele>
        <time>2026-07-08T09:20:48.000Z</time>
      </trkpt>
      <trkpt lat="45.78026" lon="1.85225">
        <ele>704.4</ele>
        <time>2026-07-08T09:20:49.000Z</time>
      </trkpt>
      <trkpt lat="45.78027" lon="1.85225">
        <ele>704</ele>
        <time>2026-07-08T09:20:50.000Z</time>
      </trkpt>
      <trkpt lat="45.78028" lon="1.85226">
        <ele>705.5</ele>
        <time>2026-07-08T09:20:51.000Z</time>
      </trkpt>
      <trkpt lat="45.7803" lon="1.85227">
        <ele>705.5</ele>
        <time>2026-07-08T09:20:52.000Z</time>
      </trkpt>
      <trkpt lat="45.78031" lon="1.85229">
        <ele>704.5</ele>
        <time>2026-07-08T09:20:53.000Z</time>
      </trkpt>
      <trkpt lat="45.78032" lon="1.85231">
        <ele>704.2</ele>
        <time>2026-07-08T09:20:54.000Z</time>
      </trkpt>
      <trkpt lat="45.78033" lon="1.85233">
        <ele>703.9</ele>
        <time>2026-07-08T09:20:55.000Z</time>
      </trkpt>
      <trkpt lat="45.78033" lon="1.85235">
        <ele>703.7</ele>
        <time>2026-07-08T09:20:56.000Z</time>
      </trkpt>
      <trkpt lat="45.78033" lon="1.85238">
        <ele>702.2</ele>
        <time>2026-07-08T09:20:57.000Z</time>
      </trkpt>
      <trkpt lat="45.78033" lon="1.85241">
        <ele>701.5</ele>
        <time>2026-07-08T09:20:58.000Z</time>
      </trkpt>
      <trkpt lat="45.78033" lon="1.85243">
        <ele>701.9</ele>
        <time>2026-07-08T09:20:59.000Z</time>
      </trkpt>
      <trkpt lat="45.78032" lon="1.85244">
        <ele>699.7</ele>
        <time>2026-07-08T09:21:00.000Z</time>
      </trkpt>
      <trkpt lat="45.78032" lon="1.85246">
        <ele>700.8</ele>
        <time>2026-07-08T09:21:01.000Z</time>
      </trkpt>
      <trkpt lat="45.78032" lon="1.85248">
        <ele>701.2</ele>
        <time>2026-07-08T09:21:02.000Z</time>
      </trkpt>
      <trkpt lat="45.78032" lon="1.85249">
        <ele>701</ele>
        <time>2026-07-08T09:21:03.000Z</time>
      </trkpt>
      <trkpt lat="45.78033" lon="1.85251">
        <ele>701.3</ele>
        <time>2026-07-08T09:21:04.000Z</time>
      </trkpt>
      <trkpt lat="45.78034" lon="1.85252">
        <ele>702.5</ele>
        <time>2026-07-08T09:21:05.000Z</time>
      </trkpt>
      <trkpt lat="45.78035" lon="1.85254">
        <ele>702.3</ele>
        <time>2026-07-08T09:21:06.000Z</time>
      </trkpt>
      <trkpt lat="45.78037" lon="1.85255">
        <ele>702.5</ele>
        <time>2026-07-08T09:21:07.000Z</time>
      </trkpt>
      <trkpt lat="45.78038" lon="1.85256">
        <ele>702.6</ele>
        <time>2026-07-08T09:21:08.000Z</time>
      </trkpt>
      <trkpt lat="45.7804" lon="1.85257">
        <ele>702.4</ele>
        <time>2026-07-08T09:21:09.000Z</time>
      </trkpt>
      <trkpt lat="45.78041" lon="1.85259">
        <ele>702.8</ele>
        <time>2026-07-08T09:21:10.000Z</time>
      </trkpt>
      <trkpt lat="45.78043" lon="1.8526">
        <ele>703.6</ele>
        <time>2026-07-08T09:21:11.000Z</time>
      </trkpt>
      <trkpt lat="45.78045" lon="1.85262">
        <ele>703.6</ele>
        <time>2026-07-08T09:21:12.000Z</time>
      </trkpt>
      <trkpt lat="45.78046" lon="1.85263">
        <ele>703.4</ele>
        <time>2026-07-08T09:21:13.000Z</time>
      </trkpt>
      <trkpt lat="45.78048" lon="1.85265">
        <ele>703.6</ele>
        <time>2026-07-08T09:21:14.000Z</time>
      </trkpt>
      <trkpt lat="45.78049" lon="1.85267">
        <ele>703</ele>
        <time>2026-07-08T09:21:15.000Z</time>
      </trkpt>
      <trkpt lat="45.78051" lon="1.85268">
        <ele>703</ele>
        <time>2026-07-08T09:21:16.000Z</time>
      </trkpt>
      <trkpt lat="45.78052" lon="1.8527">
        <ele>703.3</ele>
        <time>2026-07-08T09:21:17.000Z</time>
      </trkpt>
      <trkpt lat="45.78054" lon="1.85271">
        <ele>704.2</ele>
        <time>2026-07-08T09:21:18.000Z</time>
      </trkpt>
      <trkpt lat="45.78055" lon="1.85272">
        <ele>704.4</ele>
        <time>2026-07-08T09:21:19.000Z</time>
      </trkpt>
      <trkpt lat="45.78057" lon="1.85273">
        <ele>704.2</ele>
        <time>2026-07-08T09:21:20.000Z</time>
      </trkpt>
      <trkpt lat="45.78059" lon="1.85274">
        <ele>704.4</ele>
        <time>2026-07-08T09:21:21.000Z</time>
      </trkpt>
      <trkpt lat="45.7806" lon="1.85275">
        <ele>704.4</ele>
        <time>2026-07-08T09:21:22.000Z</time>
      </trkpt>
      <trkpt lat="45.78062" lon="1.85276">
        <ele>704.8</ele>
        <time>2026-07-08T09:21:23.000Z</time>
      </trkpt>
      <trkpt lat="45.78064" lon="1.85277">
        <ele>704.5</ele>
        <time>2026-07-08T09:21:24.000Z</time>
      </trkpt>
      <trkpt lat="45.78065" lon="1.85278">
        <ele>704.2</ele>
        <time>2026-07-08T09:21:25.000Z</time>
      </trkpt>
      <trkpt lat="45.78067" lon="1.85278">
        <ele>704.3</ele>
        <time>2026-07-08T09:21:26.000Z</time>
      </trkpt>
      <trkpt lat="45.78068" lon="1.85278">
        <ele>704</ele>
        <time>2026-07-08T09:21:27.000Z</time>
      </trkpt>
      <trkpt lat="45.7807" lon="1.85279">
        <ele>704</ele>
        <time>2026-07-08T09:21:28.000Z</time>
      </trkpt>
      <trkpt lat="45.78071" lon="1.8528">
        <ele>703.7</ele>
        <time>2026-07-08T09:21:29.000Z</time>
      </trkpt>
      <trkpt lat="45.78072" lon="1.8528">
        <ele>703.7</ele>
        <time>2026-07-08T09:21:30.000Z</time>
      </trkpt>
      <trkpt lat="45.78074" lon="1.85281">
        <ele>703.5</ele>
        <time>2026-07-08T09:21:31.000Z</time>
      </trkpt>
      <trkpt lat="45.78076" lon="1.85282">
        <ele>703.3</ele>
        <time>2026-07-08T09:21:32.000Z</time>
      </trkpt>
      <trkpt lat="45.78077" lon="1.85283">
        <ele>703.2</ele>
        <time>2026-07-08T09:21:33.000Z</time>
      </trkpt>
      <trkpt lat="45.78079" lon="1.85284">
        <ele>703</ele>
        <time>2026-07-08T09:21:34.000Z</time>
      </trkpt>
      <trkpt lat="45.7808" lon="1.85285">
        <ele>702.8</ele>
        <time>2026-07-08T09:21:35.000Z</time>
      </trkpt>
      <trkpt lat="45.78082" lon="1.85286">
        <ele>702.6</ele>
        <time>2026-07-08T09:21:36.000Z</time>
      </trkpt>
      <trkpt lat="45.78083" lon="1.85288">
        <ele>702.1</ele>
        <time>2026-07-08T09:21:37.000Z</time>
      </trkpt>
      <trkpt lat="45.78084" lon="1.8529">
        <ele>702.2</ele>
        <time>2026-07-08T09:21:38.000Z</time>
      </trkpt>
      <trkpt lat="45.78086" lon="1.85291">
        <ele>702.2</ele>
        <time>2026-07-08T09:21:39.000Z</time>
      </trkpt>
      <trkpt lat="45.78087" lon="1.85294">
        <ele>702.4</ele>
        <time>2026-07-08T09:21:40.000Z</time>
      </trkpt>
      <trkpt lat="45.78088" lon="1.85296">
        <ele>702</ele>
        <time>2026-07-08T09:21:41.000Z</time>
      </trkpt>
      <trkpt lat="45.78089" lon="1.85299">
        <ele>702.2</ele>
        <time>2026-07-08T09:21:42.000Z</time>
      </trkpt>
      <trkpt lat="45.78089" lon="1.85302">
        <ele>701.8</ele>
        <time>2026-07-08T09:21:43.000Z</time>
      </trkpt>
      <trkpt lat="45.7809" lon="1.85305">
        <ele>701.6</ele>
        <time>2026-07-08T09:21:44.000Z</time>
      </trkpt>
      <trkpt lat="45.7809" lon="1.85307">
        <ele>702.5</ele>
        <time>2026-07-08T09:21:45.000Z</time>
      </trkpt>
      <trkpt lat="45.78089" lon="1.85309">
        <ele>702.3</ele>
        <time>2026-07-08T09:21:46.000Z</time>
      </trkpt>
      <trkpt lat="45.78089" lon="1.85311">
        <ele>702.4</ele>
        <time>2026-07-08T09:21:47.000Z</time>
      </trkpt>
      <trkpt lat="45.78088" lon="1.85313">
        <ele>702.7</ele>
        <time>2026-07-08T09:21:48.000Z</time>
      </trkpt>
      <trkpt lat="45.78088" lon="1.85315">
        <ele>702.2</ele>
        <time>2026-07-08T09:21:49.000Z</time>
      </trkpt>
      <trkpt lat="45.78088" lon="1.85317">
        <ele>702.2</ele>
        <time>2026-07-08T09:21:50.000Z</time>
      </trkpt>
      <trkpt lat="45.78087" lon="1.85318">
        <ele>701.8</ele>
        <time>2026-07-08T09:21:51.000Z</time>
      </trkpt>
      <trkpt lat="45.78087" lon="1.85321">
        <ele>702.5</ele>
        <time>2026-07-08T09:21:52.000Z</time>
      </trkpt>
      <trkpt lat="45.78087" lon="1.85323">
        <ele>703.2</ele>
        <time>2026-07-08T09:21:53.000Z</time>
      </trkpt>
      <trkpt lat="45.78087" lon="1.85325">
        <ele>703.6</ele>
        <time>2026-07-08T09:21:54.000Z</time>
      </trkpt>
      <trkpt lat="45.78087" lon="1.85327">
        <ele>703.6</ele>
        <time>2026-07-08T09:21:55.000Z</time>
      </trkpt>
      <trkpt lat="45.78086" lon="1.85329">
        <ele>703.6</ele>
        <time>2026-07-08T09:21:56.000Z</time>
      </trkpt>
      <trkpt lat="45.78086" lon="1.85332">
        <ele>703.6</ele>
        <time>2026-07-08T09:21:57.000Z</time>
      </trkpt>
      <trkpt lat="45.78086" lon="1.85334">
        <ele>702.8</ele>
        <time>2026-07-08T09:21:58.000Z</time>
      </trkpt>
      <trkpt lat="45.78085" lon="1.85336">
        <ele>702.9</ele>
        <time>2026-07-08T09:21:59.000Z</time>
      </trkpt>
      <trkpt lat="45.78084" lon="1.85339">
        <ele>703.6</ele>
        <time>2026-07-08T09:22:00.000Z</time>
      </trkpt>
      <trkpt lat="45.78084" lon="1.85341">
        <ele>703.8</ele>
        <time>2026-07-08T09:22:01.000Z</time>
      </trkpt>
      <trkpt lat="45.78084" lon="1.85344">
        <ele>703.7</ele>
        <time>2026-07-08T09:22:02.000Z</time>
      </trkpt>
      <trkpt lat="45.78083" lon="1.85346">
        <ele>703.8</ele>
        <time>2026-07-08T09:22:03.000Z</time>
      </trkpt>
      <trkpt lat="45.78083" lon="1.85349">
        <ele>703.7</ele>
        <time>2026-07-08T09:22:04.000Z</time>
      </trkpt>
      <trkpt lat="45.78082" lon="1.85351">
        <ele>703.9</ele>
        <time>2026-07-08T09:22:05.000Z</time>
      </trkpt>
      <trkpt lat="45.78081" lon="1.85354">
        <ele>704</ele>
        <time>2026-07-08T09:22:06.000Z</time>
      </trkpt>
      <trkpt lat="45.7808" lon="1.85356">
        <ele>704</ele>
        <time>2026-07-08T09:22:07.000Z</time>
      </trkpt>
      <trkpt lat="45.78079" lon="1.85358">
        <ele>703.8</ele>
        <time>2026-07-08T09:22:08.000Z</time>
      </trkpt>
      <trkpt lat="45.78079" lon="1.8536">
        <ele>704.5</ele>
        <time>2026-07-08T09:22:09.000Z</time>
      </trkpt>
      <trkpt lat="45.78078" lon="1.85362">
        <ele>704</ele>
        <time>2026-07-08T09:22:10.000Z</time>
      </trkpt>
      <trkpt lat="45.78076" lon="1.85364">
        <ele>704</ele>
        <time>2026-07-08T09:22:11.000Z</time>
      </trkpt>
      <trkpt lat="45.78076" lon="1.85365">
        <ele>704.1</ele>
        <time>2026-07-08T09:22:12.000Z</time>
      </trkpt>
      <trkpt lat="45.78075" lon="1.85366">
        <ele>704.2</ele>
        <time>2026-07-08T09:22:13.000Z</time>
      </trkpt>
      <trkpt lat="45.78074" lon="1.85367">
        <ele>704.3</ele>
        <time>2026-07-08T09:22:14.000Z</time>
      </trkpt>
      <trkpt lat="45.78073" lon="1.85369">
        <ele>704.3</ele>
        <time>2026-07-08T09:22:15.000Z</time>
      </trkpt>
      <trkpt lat="45.78072" lon="1.8537">
        <ele>704</ele>
        <time>2026-07-08T09:22:16.000Z</time>
      </trkpt>
      <trkpt lat="45.7807" lon="1.85373">
        <ele>703.1</ele>
        <time>2026-07-08T09:22:17.000Z</time>
      </trkpt>
      <trkpt lat="45.7807" lon="1.85375">
        <ele>703.9</ele>
        <time>2026-07-08T09:22:18.000Z</time>
      </trkpt>
      <trkpt lat="45.78068" lon="1.85379">
        <ele>702.9</ele>
        <time>2026-07-08T09:22:19.000Z</time>
      </trkpt>
      <trkpt lat="45.78066" lon="1.85382">
        <ele>702.3</ele>
        <time>2026-07-08T09:22:20.000Z</time>
      </trkpt>
      <trkpt lat="45.78066" lon="1.85385">
        <ele>701.6</ele>
        <time>2026-07-08T09:22:21.000Z</time>
      </trkpt>
      <trkpt lat="45.78065" lon="1.85386">
        <ele>702.4</ele>
        <time>2026-07-08T09:22:22.000Z</time>
      </trkpt>
      <trkpt lat="45.78065" lon="1.85387">
        <ele>702.1</ele>
        <time>2026-07-08T09:22:23.000Z</time>
      </trkpt>
      <trkpt lat="45.78065" lon="1.85388">
        <ele>702.7</ele>
        <time>2026-07-08T09:22:24.000Z</time>
      </trkpt>
      <trkpt lat="45.78065" lon="1.8539">
        <ele>702.6</ele>
        <time>2026-07-08T09:22:25.000Z</time>
      </trkpt>
      <trkpt lat="45.78064" lon="1.85392">
        <ele>702.6</ele>
        <time>2026-07-08T09:22:26.000Z</time>
      </trkpt>
      <trkpt lat="45.78063" lon="1.85394">
        <ele>702.4</ele>
        <time>2026-07-08T09:22:27.000Z</time>
      </trkpt>
      <trkpt lat="45.78062" lon="1.85396">
        <ele>702.5</ele>
        <time>2026-07-08T09:22:28.000Z</time>
      </trkpt>
      <trkpt lat="45.78061" lon="1.85398">
        <ele>702.8</ele>
        <time>2026-07-08T09:22:29.000Z</time>
      </trkpt>
      <trkpt lat="45.78061" lon="1.854">
        <ele>702.8</ele>
        <time>2026-07-08T09:22:30.000Z</time>
      </trkpt>
      <trkpt lat="45.7806" lon="1.85403">
        <ele>702.7</ele>
        <time>2026-07-08T09:22:31.000Z</time>
      </trkpt>
      <trkpt lat="45.7806" lon="1.85405">
        <ele>702</ele>
        <time>2026-07-08T09:22:32.000Z</time>
      </trkpt>
      <trkpt lat="45.7806" lon="1.85407">
        <ele>701.8</ele>
        <time>2026-07-08T09:22:33.000Z</time>
      </trkpt>
      <trkpt lat="45.7806" lon="1.8541">
        <ele>701.6</ele>
        <time>2026-07-08T09:22:34.000Z</time>
      </trkpt>
      <trkpt lat="45.78059" lon="1.85412">
        <ele>701.4</ele>
        <time>2026-07-08T09:22:35.000Z</time>
      </trkpt>
      <trkpt lat="45.78059" lon="1.85415">
        <ele>701.2</ele>
        <time>2026-07-08T09:22:36.000Z</time>
      </trkpt>
      <trkpt lat="45.78059" lon="1.85417">
        <ele>701.4</ele>
        <time>2026-07-08T09:22:37.000Z</time>
      </trkpt>
      <trkpt lat="45.78058" lon="1.85419">
        <ele>701.7</ele>
        <time>2026-07-08T09:22:38.000Z</time>
      </trkpt>
      <trkpt lat="45.78057" lon="1.85421">
        <ele>702.1</ele>
        <time>2026-07-08T09:22:39.000Z</time>
      </trkpt>
      <trkpt lat="45.78057" lon="1.85423">
        <ele>702.7</ele>
        <time>2026-07-08T09:22:40.000Z</time>
      </trkpt>
      <trkpt lat="45.78057" lon="1.85425">
        <ele>702.8</ele>
        <time>2026-07-08T09:22:41.000Z</time>
      </trkpt>
      <trkpt lat="45.78056" lon="1.85427">
        <ele>702</ele>
        <time>2026-07-08T09:22:42.000Z</time>
      </trkpt>
      <trkpt lat="45.78056" lon="1.8543">
        <ele>701.7</ele>
        <time>2026-07-08T09:22:43.000Z</time>
      </trkpt>
      <trkpt lat="45.78055" lon="1.85432">
        <ele>701.9</ele>
        <time>2026-07-08T09:22:44.000Z</time>
      </trkpt>
      <trkpt lat="45.78055" lon="1.85434">
        <ele>702.3</ele>
        <time>2026-07-08T09:22:45.000Z</time>
      </trkpt>
      <trkpt lat="45.78055" lon="1.85437">
        <ele>702.8</ele>
        <time>2026-07-08T09:22:46.000Z</time>
      </trkpt>
      <trkpt lat="45.78055" lon="1.85439">
        <ele>702.9</ele>
        <time>2026-07-08T09:22:47.000Z</time>
      </trkpt>
      <trkpt lat="45.78055" lon="1.85441">
        <ele>702.3</ele>
        <time>2026-07-08T09:22:48.000Z</time>
      </trkpt>
      <trkpt lat="45.78055" lon="1.85444">
        <ele>702.8</ele>
        <time>2026-07-08T09:22:49.000Z</time>
      </trkpt>
      <trkpt lat="45.78055" lon="1.85446">
        <ele>702.8</ele>
        <time>2026-07-08T09:22:50.000Z</time>
      </trkpt>
      <trkpt lat="45.78054" lon="1.85449">
        <ele>703.1</ele>
        <time>2026-07-08T09:22:51.000Z</time>
      </trkpt>
      <trkpt lat="45.78055" lon="1.85452">
        <ele>703.7</ele>
        <time>2026-07-08T09:22:52.000Z</time>
      </trkpt>
      <trkpt lat="45.78055" lon="1.85455">
        <ele>703.7</ele>
        <time>2026-07-08T09:22:53.000Z</time>
      </trkpt>
      <trkpt lat="45.78055" lon="1.85458">
        <ele>703.4</ele>
        <time>2026-07-08T09:22:54.000Z</time>
      </trkpt>
      <trkpt lat="45.78055" lon="1.8546">
        <ele>703.3</ele>
        <time>2026-07-08T09:22:55.000Z</time>
      </trkpt>
      <trkpt lat="45.78055" lon="1.85462">
        <ele>703.5</ele>
        <time>2026-07-08T09:22:56.000Z</time>
      </trkpt>
      <trkpt lat="45.78055" lon="1.85463">
        <ele>703</ele>
        <time>2026-07-08T09:22:57.000Z</time>
      </trkpt>
      <trkpt lat="45.78055" lon="1.85465">
        <ele>703.5</ele>
        <time>2026-07-08T09:22:58.000Z</time>
      </trkpt>
      <trkpt lat="45.78055" lon="1.85467">
        <ele>703.6</ele>
        <time>2026-07-08T09:22:59.000Z</time>
      </trkpt>
      <trkpt lat="45.78055" lon="1.85469">
        <ele>703.5</ele>
        <time>2026-07-08T09:23:00.000Z</time>
      </trkpt>
      <trkpt lat="45.78054" lon="1.85471">
        <ele>704.9</ele>
        <time>2026-07-08T09:23:01.000Z</time>
      </trkpt>
      <trkpt lat="45.78053" lon="1.85473">
        <ele>705.1</ele>
        <time>2026-07-08T09:23:02.000Z</time>
      </trkpt>
      <trkpt lat="45.78052" lon="1.85474">
        <ele>706.5</ele>
        <time>2026-07-08T09:23:03.000Z</time>
      </trkpt>
      <trkpt lat="45.78051" lon="1.85476">
        <ele>706.2</ele>
        <time>2026-07-08T09:23:04.000Z</time>
      </trkpt>
      <trkpt lat="45.78051" lon="1.85479">
        <ele>706.6</ele>
        <time>2026-07-08T09:23:05.000Z</time>
      </trkpt>
      <trkpt lat="45.78051" lon="1.85481">
        <ele>705.9</ele>
        <time>2026-07-08T09:23:06.000Z</time>
      </trkpt>
      <trkpt lat="45.78051" lon="1.85484">
        <ele>705.7</ele>
        <time>2026-07-08T09:23:07.000Z</time>
      </trkpt>
      <trkpt lat="45.78052" lon="1.85487">
        <ele>707.1</ele>
        <time>2026-07-08T09:23:08.000Z</time>
      </trkpt>
      <trkpt lat="45.78052" lon="1.85489">
        <ele>707.4</ele>
        <time>2026-07-08T09:23:09.000Z</time>
      </trkpt>
      <trkpt lat="45.78052" lon="1.85492">
        <ele>706.8</ele>
        <time>2026-07-08T09:23:10.000Z</time>
      </trkpt>
      <trkpt lat="45.78052" lon="1.85494">
        <ele>706.2</ele>
        <time>2026-07-08T09:23:11.000Z</time>
      </trkpt>
      <trkpt lat="45.78051" lon="1.85497">
        <ele>705.8</ele>
        <time>2026-07-08T09:23:12.000Z</time>
      </trkpt>
      <trkpt lat="45.78051" lon="1.85499">
        <ele>706.5</ele>
        <time>2026-07-08T09:23:13.000Z</time>
      </trkpt>
      <trkpt lat="45.78051" lon="1.85502">
        <ele>707.2</ele>
        <time>2026-07-08T09:23:14.000Z</time>
      </trkpt>
      <trkpt lat="45.78052" lon="1.85504">
        <ele>706.9</ele>
        <time>2026-07-08T09:23:15.000Z</time>
      </trkpt>
      <trkpt lat="45.78052" lon="1.85506">
        <ele>707.1</ele>
        <time>2026-07-08T09:23:16.000Z</time>
      </trkpt>
      <trkpt lat="45.78053" lon="1.85508">
        <ele>707</ele>
        <time>2026-07-08T09:23:17.000Z</time>
      </trkpt>
      <trkpt lat="45.78054" lon="1.8551">
        <ele>707.8</ele>
        <time>2026-07-08T09:23:18.000Z</time>
      </trkpt>
      <trkpt lat="45.78055" lon="1.85512">
        <ele>708</ele>
        <time>2026-07-08T09:23:19.000Z</time>
      </trkpt>
      <trkpt lat="45.78055" lon="1.85515">
        <ele>707.8</ele>
        <time>2026-07-08T09:23:20.000Z</time>
      </trkpt>
      <trkpt lat="45.78056" lon="1.85517">
        <ele>707.2</ele>
        <time>2026-07-08T09:23:21.000Z</time>
      </trkpt>
      <trkpt lat="45.78056" lon="1.8552">
        <ele>707.6</ele>
        <time>2026-07-08T09:23:22.000Z</time>
      </trkpt>
      <trkpt lat="45.78058" lon="1.85521">
        <ele>707.6</ele>
        <time>2026-07-08T09:23:23.000Z</time>
      </trkpt>
      <trkpt lat="45.78059" lon="1.85523">
        <ele>708.1</ele>
        <time>2026-07-08T09:23:24.000Z</time>
      </trkpt>
      <trkpt lat="45.7806" lon="1.85525">
        <ele>708.1</ele>
        <time>2026-07-08T09:23:25.000Z</time>
      </trkpt>
      <trkpt lat="45.78061" lon="1.85528">
        <ele>707.9</ele>
        <time>2026-07-08T09:23:26.000Z</time>
      </trkpt>
      <trkpt lat="45.78063" lon="1.8553">
        <ele>708.1</ele>
        <time>2026-07-08T09:23:27.000Z</time>
      </trkpt>
      <trkpt lat="45.78064" lon="1.85532">
        <ele>707.9</ele>
        <time>2026-07-08T09:23:28.000Z</time>
      </trkpt>
      <trkpt lat="45.78065" lon="1.85534">
        <ele>708.6</ele>
        <time>2026-07-08T09:23:29.000Z</time>
      </trkpt>
      <trkpt lat="45.78066" lon="1.85536">
        <ele>708.4</ele>
        <time>2026-07-08T09:23:30.000Z</time>
      </trkpt>
      <trkpt lat="45.78067" lon="1.85538">
        <ele>708</ele>
        <time>2026-07-08T09:23:31.000Z</time>
      </trkpt>
      <trkpt lat="45.78068" lon="1.85539">
        <ele>707.3</ele>
        <time>2026-07-08T09:23:32.000Z</time>
      </trkpt>
      <trkpt lat="45.78069" lon="1.8554">
        <ele>707.2</ele>
        <time>2026-07-08T09:23:33.000Z</time>
      </trkpt>
      <trkpt lat="45.78069" lon="1.85537">
        <ele>706.3</ele>
        <time>2026-07-08T09:23:34.000Z</time>
      </trkpt>
      <trkpt lat="45.78069" lon="1.85536">
        <ele>706.3</ele>
        <time>2026-07-08T09:23:35.000Z</time>
      </trkpt>
      <trkpt lat="45.78069" lon="1.85536">
        <ele>706.3</ele>
        <time>2026-07-08T09:23:36.000Z</time>
      </trkpt>
      <trkpt lat="45.78069" lon="1.85536">
        <ele>706.3</ele>
        <time>2026-07-08T09:23:37.000Z</time>
      </trkpt>
      <trkpt lat="45.78069" lon="1.85536">
        <ele>706.3</ele>
        <time>2026-07-08T09:23:38.000Z</time>
      </trkpt>
      <trkpt lat="45.78069" lon="1.85536">
        <ele>706.2</ele>
        <time>2026-07-08T09:23:39.000Z</time>
      </trkpt>
      <trkpt lat="45.78069" lon="1.85537">
        <ele>706</ele>
        <time>2026-07-08T09:23:40.000Z</time>
      </trkpt>
      <trkpt lat="45.78071" lon="1.85538">
        <ele>705.6</ele>
        <time>2026-07-08T09:23:41.000Z</time>
      </trkpt>
      <trkpt lat="45.78072" lon="1.8554">
        <ele>705.5</ele>
        <time>2026-07-08T09:23:42.000Z</time>
      </trkpt>
      <trkpt lat="45.78073" lon="1.85542">
        <ele>704.7</ele>
        <time>2026-07-08T09:23:43.000Z</time>
      </trkpt>
      <trkpt lat="45.78074" lon="1.85544">
        <ele>705.1</ele>
        <time>2026-07-08T09:23:44.000Z</time>
      </trkpt>
      <trkpt lat="45.78075" lon="1.85545">
        <ele>705.6</ele>
        <time>2026-07-08T09:23:45.000Z</time>
      </trkpt>
      <trkpt lat="45.78076" lon="1.85547">
        <ele>704.3</ele>
        <time>2026-07-08T09:23:46.000Z</time>
      </trkpt>
      <trkpt lat="45.78077" lon="1.85548">
        <ele>704.9</ele>
        <time>2026-07-08T09:23:47.000Z</time>
      </trkpt>
      <trkpt lat="45.78079" lon="1.85549">
        <ele>706.4</ele>
        <time>2026-07-08T09:23:48.000Z</time>
      </trkpt>
      <trkpt lat="45.7808" lon="1.8555">
        <ele>706.8</ele>
        <time>2026-07-08T09:23:49.000Z</time>
      </trkpt>
      <trkpt lat="45.78081" lon="1.85552">
        <ele>708.4</ele>
        <time>2026-07-08T09:23:50.000Z</time>
      </trkpt>
      <trkpt lat="45.78081" lon="1.85554">
        <ele>707.8</ele>
        <time>2026-07-08T09:23:51.000Z</time>
      </trkpt>
      <trkpt lat="45.78081" lon="1.85557">
        <ele>707.8</ele>
        <time>2026-07-08T09:23:52.000Z</time>
      </trkpt>
      <trkpt lat="45.78082" lon="1.85559">
        <ele>707.5</ele>
        <time>2026-07-08T09:23:53.000Z</time>
      </trkpt>
      <trkpt lat="45.78082" lon="1.85561">
        <ele>707.8</ele>
        <time>2026-07-08T09:23:54.000Z</time>
      </trkpt>
      <trkpt lat="45.78082" lon="1.85563">
        <ele>708.1</ele>
        <time>2026-07-08T09:23:55.000Z</time>
      </trkpt>
      <trkpt lat="45.78083" lon="1.85562">
        <ele>707.2</ele>
        <time>2026-07-08T09:23:56.000Z</time>
      </trkpt>
      <trkpt lat="45.78083" lon="1.85559">
        <ele>707.2</ele>
        <time>2026-07-08T09:23:57.000Z</time>
      </trkpt>
      <trkpt lat="45.78083" lon="1.85559">
        <ele>707.2</ele>
        <time>2026-07-08T09:23:58.000Z</time>
      </trkpt>
      <trkpt lat="45.78083" lon="1.85558">
        <ele>707.2</ele>
        <time>2026-07-08T09:23:59.000Z</time>
      </trkpt>
      <trkpt lat="45.78083" lon="1.85558">
        <ele>707.2</ele>
        <time>2026-07-08T09:24:00.000Z</time>
      </trkpt>
      <trkpt lat="45.78083" lon="1.8556">
        <ele>706.9</ele>
        <time>2026-07-08T09:24:01.000Z</time>
      </trkpt>
      <trkpt lat="45.78083" lon="1.85562">
        <ele>707.4</ele>
        <time>2026-07-08T09:24:02.000Z</time>
      </trkpt>
      <trkpt lat="45.78082" lon="1.85565">
        <ele>706.8</ele>
        <time>2026-07-08T09:24:03.000Z</time>
      </trkpt>
      <trkpt lat="45.78081" lon="1.85568">
        <ele>706.2</ele>
        <time>2026-07-08T09:24:04.000Z</time>
      </trkpt>
      <trkpt lat="45.78079" lon="1.8557">
        <ele>706.2</ele>
        <time>2026-07-08T09:24:05.000Z</time>
      </trkpt>
      <trkpt lat="45.78078" lon="1.85572">
        <ele>707.3</ele>
        <time>2026-07-08T09:24:06.000Z</time>
      </trkpt>
      <trkpt lat="45.78077" lon="1.85573">
        <ele>707.6</ele>
        <time>2026-07-08T09:24:07.000Z</time>
      </trkpt>
      <trkpt lat="45.78075" lon="1.85575">
        <ele>707.9</ele>
        <time>2026-07-08T09:24:08.000Z</time>
      </trkpt>
      <trkpt lat="45.78074" lon="1.85577">
        <ele>708.4</ele>
        <time>2026-07-08T09:24:09.000Z</time>
      </trkpt>
      <trkpt lat="45.78073" lon="1.8558">
        <ele>707.9</ele>
        <time>2026-07-08T09:24:10.000Z</time>
      </trkpt>
      <trkpt lat="45.78072" lon="1.85582">
        <ele>707.8</ele>
        <time>2026-07-08T09:24:11.000Z</time>
      </trkpt>
      <trkpt lat="45.78072" lon="1.85585">
        <ele>707.4</ele>
        <time>2026-07-08T09:24:12.000Z</time>
      </trkpt>
      <trkpt lat="45.78072" lon="1.85587">
        <ele>707.8</ele>
        <time>2026-07-08T09:24:13.000Z</time>
      </trkpt>
      <trkpt lat="45.78072" lon="1.8559">
        <ele>708.6</ele>
        <time>2026-07-08T09:24:14.000Z</time>
      </trkpt>
      <trkpt lat="45.78071" lon="1.85592">
        <ele>711</ele>
        <time>2026-07-08T09:24:15.000Z</time>
      </trkpt>
      <trkpt lat="45.78071" lon="1.85595">
        <ele>712.1</ele>
        <time>2026-07-08T09:24:16.000Z</time>
      </trkpt>
      <trkpt lat="45.7807" lon="1.85597">
        <ele>711.3</ele>
        <time>2026-07-08T09:24:17.000Z</time>
      </trkpt>
      <trkpt lat="45.7807" lon="1.85601">
        <ele>709.5</ele>
        <time>2026-07-08T09:24:18.000Z</time>
      </trkpt>
      <trkpt lat="45.78069" lon="1.85604">
        <ele>708.9</ele>
        <time>2026-07-08T09:24:19.000Z</time>
      </trkpt>
      <trkpt lat="45.78069" lon="1.85606">
        <ele>708.3</ele>
        <time>2026-07-08T09:24:20.000Z</time>
      </trkpt>
      <trkpt lat="45.78068" lon="1.85608">
        <ele>707.9</ele>
        <time>2026-07-08T09:24:21.000Z</time>
      </trkpt>
      <trkpt lat="45.78068" lon="1.85611">
        <ele>707.4</ele>
        <time>2026-07-08T09:24:22.000Z</time>
      </trkpt>
      <trkpt lat="45.78067" lon="1.85613">
        <ele>707.4</ele>
        <time>2026-07-08T09:24:23.000Z</time>
      </trkpt>
      <trkpt lat="45.78066" lon="1.85615">
        <ele>707.4</ele>
        <time>2026-07-08T09:24:24.000Z</time>
      </trkpt>
      <trkpt lat="45.78066" lon="1.85618">
        <ele>707.3</ele>
        <time>2026-07-08T09:24:25.000Z</time>
      </trkpt>
      <trkpt lat="45.78065" lon="1.8562">
        <ele>707.3</ele>
        <time>2026-07-08T09:24:26.000Z</time>
      </trkpt>
      <trkpt lat="45.78065" lon="1.85622">
        <ele>706.9</ele>
        <time>2026-07-08T09:24:27.000Z</time>
      </trkpt>
      <trkpt lat="45.78064" lon="1.85625">
        <ele>706.6</ele>
        <time>2026-07-08T09:24:28.000Z</time>
      </trkpt>
      <trkpt lat="45.78064" lon="1.85627">
        <ele>706.1</ele>
        <time>2026-07-08T09:24:29.000Z</time>
      </trkpt>
      <trkpt lat="45.78065" lon="1.8563">
        <ele>705.3</ele>
        <time>2026-07-08T09:24:30.000Z</time>
      </trkpt>
      <trkpt lat="45.78065" lon="1.85632">
        <ele>704.8</ele>
        <time>2026-07-08T09:24:31.000Z</time>
      </trkpt>
      <trkpt lat="45.78067" lon="1.85634">
        <ele>704.2</ele>
        <time>2026-07-08T09:24:32.000Z</time>
      </trkpt>
      <trkpt lat="45.78068" lon="1.85636">
        <ele>704.5</ele>
        <time>2026-07-08T09:24:33.000Z</time>
      </trkpt>
      <trkpt lat="45.78068" lon="1.85638">
        <ele>704.9</ele>
        <time>2026-07-08T09:24:34.000Z</time>
      </trkpt>
      <trkpt lat="45.78068" lon="1.8564">
        <ele>704.5</ele>
        <time>2026-07-08T09:24:35.000Z</time>
      </trkpt>
      <trkpt lat="45.78068" lon="1.85642">
        <ele>704.9</ele>
        <time>2026-07-08T09:24:36.000Z</time>
      </trkpt>
      <trkpt lat="45.78068" lon="1.85644">
        <ele>705.1</ele>
        <time>2026-07-08T09:24:37.000Z</time>
      </trkpt>
      <trkpt lat="45.78068" lon="1.85646">
        <ele>705.4</ele>
        <time>2026-07-08T09:24:38.000Z</time>
      </trkpt>
      <trkpt lat="45.78067" lon="1.85648">
        <ele>704.8</ele>
        <time>2026-07-08T09:24:39.000Z</time>
      </trkpt>
      <trkpt lat="45.78066" lon="1.85651">
        <ele>705.1</ele>
        <time>2026-07-08T09:24:40.000Z</time>
      </trkpt>
      <trkpt lat="45.78065" lon="1.85654">
        <ele>705.2</ele>
        <time>2026-07-08T09:24:41.000Z</time>
      </trkpt>
      <trkpt lat="45.78065" lon="1.85657">
        <ele>705.2</ele>
        <time>2026-07-08T09:24:42.000Z</time>
      </trkpt>
      <trkpt lat="45.78064" lon="1.85659">
        <ele>705.3</ele>
        <time>2026-07-08T09:24:43.000Z</time>
      </trkpt>
      <trkpt lat="45.78064" lon="1.85662">
        <ele>705.8</ele>
        <time>2026-07-08T09:24:44.000Z</time>
      </trkpt>
      <trkpt lat="45.78065" lon="1.85665">
        <ele>705.9</ele>
        <time>2026-07-08T09:24:45.000Z</time>
      </trkpt>
      <trkpt lat="45.78065" lon="1.85667">
        <ele>705.9</ele>
        <time>2026-07-08T09:24:46.000Z</time>
      </trkpt>
      <trkpt lat="45.78065" lon="1.8567">
        <ele>704.9</ele>
        <time>2026-07-08T09:24:47.000Z</time>
      </trkpt>
      <trkpt lat="45.78066" lon="1.85672">
        <ele>704.5</ele>
        <time>2026-07-08T09:24:48.000Z</time>
      </trkpt>
      <trkpt lat="45.78066" lon="1.85674">
        <ele>704.2</ele>
        <time>2026-07-08T09:24:49.000Z</time>
      </trkpt>
      <trkpt lat="45.78067" lon="1.85677">
        <ele>704.2</ele>
        <time>2026-07-08T09:24:50.000Z</time>
      </trkpt>
      <trkpt lat="45.78069" lon="1.85678">
        <ele>703.8</ele>
        <time>2026-07-08T09:24:51.000Z</time>
      </trkpt>
      <trkpt lat="45.7807" lon="1.8568">
        <ele>704</ele>
        <time>2026-07-08T09:24:52.000Z</time>
      </trkpt>
      <trkpt lat="45.7807" lon="1.85682">
        <ele>703.7</ele>
        <time>2026-07-08T09:24:53.000Z</time>
      </trkpt>
      <trkpt lat="45.78071" lon="1.85684">
        <ele>703.5</ele>
        <time>2026-07-08T09:24:54.000Z</time>
      </trkpt>
      <trkpt lat="45.78072" lon="1.85686">
        <ele>703.4</ele>
        <time>2026-07-08T09:24:55.000Z</time>
      </trkpt>
      <trkpt lat="45.78072" lon="1.85688">
        <ele>703.6</ele>
        <time>2026-07-08T09:24:56.000Z</time>
      </trkpt>
      <trkpt lat="45.78073" lon="1.8569">
        <ele>703.1</ele>
        <time>2026-07-08T09:24:57.000Z</time>
      </trkpt>
      <trkpt lat="45.78074" lon="1.85692">
        <ele>702.9</ele>
        <time>2026-07-08T09:24:58.000Z</time>
      </trkpt>
      <trkpt lat="45.78075" lon="1.85694">
        <ele>702.6</ele>
        <time>2026-07-08T09:24:59.000Z</time>
      </trkpt>
      <trkpt lat="45.78076" lon="1.85696">
        <ele>703.5</ele>
        <time>2026-07-08T09:25:00.000Z</time>
      </trkpt>
      <trkpt lat="45.78077" lon="1.85699">
        <ele>703.5</ele>
        <time>2026-07-08T09:25:01.000Z</time>
      </trkpt>
      <trkpt lat="45.78076" lon="1.85702">
        <ele>704</ele>
        <time>2026-07-08T09:25:02.000Z</time>
      </trkpt>
      <trkpt lat="45.78076" lon="1.85705">
        <ele>704.5</ele>
        <time>2026-07-08T09:25:03.000Z</time>
      </trkpt>
      <trkpt lat="45.78077" lon="1.85706">
        <ele>704.4</ele>
        <time>2026-07-08T09:25:04.000Z</time>
      </trkpt>
      <trkpt lat="45.78077" lon="1.85709">
        <ele>704.3</ele>
        <time>2026-07-08T09:25:05.000Z</time>
      </trkpt>
      <trkpt lat="45.78078" lon="1.8571">
        <ele>704.2</ele>
        <time>2026-07-08T09:25:06.000Z</time>
      </trkpt>
      <trkpt lat="45.7808" lon="1.85712">
        <ele>704.3</ele>
        <time>2026-07-08T09:25:07.000Z</time>
      </trkpt>
      <trkpt lat="45.78081" lon="1.85713">
        <ele>704.3</ele>
        <time>2026-07-08T09:25:08.000Z</time>
      </trkpt>
      <trkpt lat="45.78083" lon="1.85714">
        <ele>704.4</ele>
        <time>2026-07-08T09:25:09.000Z</time>
      </trkpt>
      <trkpt lat="45.78084" lon="1.85715">
        <ele>704.3</ele>
        <time>2026-07-08T09:25:10.000Z</time>
      </trkpt>
      <trkpt lat="45.78086" lon="1.85716">
        <ele>704.5</ele>
        <time>2026-07-08T09:25:11.000Z</time>
      </trkpt>
      <trkpt lat="45.78087" lon="1.85718">
        <ele>704.7</ele>
        <time>2026-07-08T09:25:12.000Z</time>
      </trkpt>
      <trkpt lat="45.78088" lon="1.85719">
        <ele>704.9</ele>
        <time>2026-07-08T09:25:13.000Z</time>
      </trkpt>
      <trkpt lat="45.7809" lon="1.8572">
        <ele>705</ele>
        <time>2026-07-08T09:25:14.000Z</time>
      </trkpt>
      <trkpt lat="45.78091" lon="1.85722">
        <ele>705</ele>
        <time>2026-07-08T09:25:15.000Z</time>
      </trkpt>
      <trkpt lat="45.78092" lon="1.85723">
        <ele>704.9</ele>
        <time>2026-07-08T09:25:16.000Z</time>
      </trkpt>
      <trkpt lat="45.78093" lon="1.85725">
        <ele>704.8</ele>
        <time>2026-07-08T09:25:17.000Z</time>
      </trkpt>
      <trkpt lat="45.78094" lon="1.85727">
        <ele>704.9</ele>
        <time>2026-07-08T09:25:18.000Z</time>
      </trkpt>
      <trkpt lat="45.78095" lon="1.85729">
        <ele>704.8</ele>
        <time>2026-07-08T09:25:19.000Z</time>
      </trkpt>
      <trkpt lat="45.78096" lon="1.8573">
        <ele>704.7</ele>
        <time>2026-07-08T09:25:20.000Z</time>
      </trkpt>
      <trkpt lat="45.78096" lon="1.85732">
        <ele>704.6</ele>
        <time>2026-07-08T09:25:21.000Z</time>
      </trkpt>
      <trkpt lat="45.78097" lon="1.85734">
        <ele>704.3</ele>
        <time>2026-07-08T09:25:22.000Z</time>
      </trkpt>
      <trkpt lat="45.78098" lon="1.85736">
        <ele>704.2</ele>
        <time>2026-07-08T09:25:23.000Z</time>
      </trkpt>
      <trkpt lat="45.78099" lon="1.85738">
        <ele>703.9</ele>
        <time>2026-07-08T09:25:24.000Z</time>
      </trkpt>
      <trkpt lat="45.781" lon="1.85739">
        <ele>703.8</ele>
        <time>2026-07-08T09:25:25.000Z</time>
      </trkpt>
      <trkpt lat="45.78101" lon="1.85742">
        <ele>703.8</ele>
        <time>2026-07-08T09:25:26.000Z</time>
      </trkpt>
      <trkpt lat="45.78102" lon="1.85744">
        <ele>703.5</ele>
        <time>2026-07-08T09:25:27.000Z</time>
      </trkpt>
      <trkpt lat="45.78103" lon="1.85746">
        <ele>703.1</ele>
        <time>2026-07-08T09:25:28.000Z</time>
      </trkpt>
      <trkpt lat="45.78104" lon="1.85747">
        <ele>702.9</ele>
        <time>2026-07-08T09:25:29.000Z</time>
      </trkpt>
      <trkpt lat="45.78105" lon="1.85749">
        <ele>703.1</ele>
        <time>2026-07-08T09:25:30.000Z</time>
      </trkpt>
      <trkpt lat="45.78106" lon="1.85751">
        <ele>703.2</ele>
        <time>2026-07-08T09:25:31.000Z</time>
      </trkpt>
      <trkpt lat="45.78108" lon="1.85752">
        <ele>703.2</ele>
        <time>2026-07-08T09:25:32.000Z</time>
      </trkpt>
      <trkpt lat="45.7811" lon="1.85752">
        <ele>703.5</ele>
        <time>2026-07-08T09:25:33.000Z</time>
      </trkpt>
      <trkpt lat="45.78111" lon="1.85751">
        <ele>703.7</ele>
        <time>2026-07-08T09:25:34.000Z</time>
      </trkpt>
      <trkpt lat="45.78113" lon="1.8575">
        <ele>703.6</ele>
        <time>2026-07-08T09:25:35.000Z</time>
      </trkpt>
      <trkpt lat="45.78115" lon="1.8575">
        <ele>704.1</ele>
        <time>2026-07-08T09:25:36.000Z</time>
      </trkpt>
      <trkpt lat="45.78117" lon="1.8575">
        <ele>704.5</ele>
        <time>2026-07-08T09:25:37.000Z</time>
      </trkpt>
      <trkpt lat="45.78119" lon="1.85749">
        <ele>705</ele>
        <time>2026-07-08T09:25:38.000Z</time>
      </trkpt>
      <trkpt lat="45.78121" lon="1.85746">
        <ele>706.1</ele>
        <time>2026-07-08T09:25:39.000Z</time>
      </trkpt>
      <trkpt lat="45.7812" lon="1.85742">
        <ele>705.2</ele>
        <time>2026-07-08T09:25:40.000Z</time>
      </trkpt>
      <trkpt lat="45.78118" lon="1.8574">
        <ele>705.7</ele>
        <time>2026-07-08T09:25:41.000Z</time>
      </trkpt>
      <trkpt lat="45.78117" lon="1.85739">
        <ele>706.3</ele>
        <time>2026-07-08T09:25:42.000Z</time>
      </trkpt>
      <trkpt lat="45.78116" lon="1.85739">
        <ele>705.5</ele>
        <time>2026-07-08T09:25:43.000Z</time>
      </trkpt>
      <trkpt lat="45.78116" lon="1.8574">
        <ele>705.6</ele>
        <time>2026-07-08T09:25:44.000Z</time>
      </trkpt>
      <trkpt lat="45.78116" lon="1.85741">
        <ele>705.6</ele>
        <time>2026-07-08T09:25:45.000Z</time>
      </trkpt>
      <trkpt lat="45.78116" lon="1.85741">
        <ele>705.6</ele>
        <time>2026-07-08T09:25:46.000Z</time>
      </trkpt>
      <trkpt lat="45.78116" lon="1.85741">
        <ele>705.6</ele>
        <time>2026-07-08T09:25:47.000Z</time>
      </trkpt>
      <trkpt lat="45.78116" lon="1.85741">
        <ele>705.9</ele>
        <time>2026-07-08T09:25:48.000Z</time>
      </trkpt>
      <trkpt lat="45.78116" lon="1.85741">
        <ele>705.9</ele>
        <time>2026-07-08T09:25:49.000Z</time>
      </trkpt>
      <trkpt lat="45.78116" lon="1.85741">
        <ele>705.9</ele>
        <time>2026-07-08T09:25:50.000Z</time>
      </trkpt>
      <trkpt lat="45.78116" lon="1.85741">
        <ele>705.9</ele>
        <time>2026-07-08T09:25:51.000Z</time>
      </trkpt>
      <trkpt lat="45.78116" lon="1.85741">
        <ele>705.9</ele>
        <time>2026-07-08T09:25:52.000Z</time>
      </trkpt>
      <trkpt lat="45.78116" lon="1.85742">
        <ele>705.9</ele>
        <time>2026-07-08T09:25:53.000Z</time>
      </trkpt>
      <trkpt lat="45.78116" lon="1.85742">
        <ele>705.9</ele>
        <time>2026-07-08T09:25:54.000Z</time>
      </trkpt>
      <trkpt lat="45.78116" lon="1.85742">
        <ele>705.9</ele>
        <time>2026-07-08T09:25:55.000Z</time>
      </trkpt>
      <trkpt lat="45.78116" lon="1.85742">
        <ele>705.9</ele>
        <time>2026-07-08T09:25:56.000Z</time>
      </trkpt>
      <trkpt lat="45.78116" lon="1.85742">
        <ele>705.9</ele>
        <time>2026-07-08T09:25:57.000Z</time>
      </trkpt>
      <trkpt lat="45.78117" lon="1.85742">
        <ele>706</ele>
        <time>2026-07-08T09:25:58.000Z</time>
      </trkpt>
      <trkpt lat="45.78117" lon="1.85742">
        <ele>706.1</ele>
        <time>2026-07-08T09:25:59.000Z</time>
      </trkpt>
      <trkpt lat="45.78117" lon="1.85742">
        <ele>706.1</ele>
        <time>2026-07-08T09:26:00.000Z</time>
      </trkpt>
      <trkpt lat="45.78117" lon="1.85742">
        <ele>706.1</ele>
        <time>2026-07-08T09:26:01.000Z</time>
      </trkpt>
      <trkpt lat="45.78117" lon="1.85742">
        <ele>706.1</ele>
        <time>2026-07-08T09:26:02.000Z</time>
      </trkpt>
      <trkpt lat="45.78117" lon="1.85742">
        <ele>706.1</ele>
        <time>2026-07-08T09:26:03.000Z</time>
      </trkpt>
      <trkpt lat="45.78117" lon="1.85742">
        <ele>706.1</ele>
        <time>2026-07-08T09:26:04.000Z</time>
      </trkpt>
      <trkpt lat="45.78117" lon="1.85742">
        <ele>706.1</ele>
        <time>2026-07-08T09:26:05.000Z</time>
      </trkpt>
      <trkpt lat="45.78117" lon="1.85743">
        <ele>705.7</ele>
        <time>2026-07-08T09:26:06.000Z</time>
      </trkpt>
      <trkpt lat="45.78117" lon="1.85743">
        <ele>705.3</ele>
        <time>2026-07-08T09:26:07.000Z</time>
      </trkpt>
      <trkpt lat="45.78117" lon="1.85744">
        <ele>705</ele>
        <time>2026-07-08T09:26:08.000Z</time>
      </trkpt>
      <trkpt lat="45.78116" lon="1.85745">
        <ele>705</ele>
        <time>2026-07-08T09:26:09.000Z</time>
      </trkpt>
      <trkpt lat="45.78116" lon="1.85745">
        <ele>705</ele>
        <time>2026-07-08T09:26:10.000Z</time>
      </trkpt>
      <trkpt lat="45.78116" lon="1.85745">
        <ele>705</ele>
        <time>2026-07-08T09:26:11.000Z</time>
      </trkpt>
      <trkpt lat="45.78116" lon="1.85745">
        <ele>705</ele>
        <time>2026-07-08T09:26:12.000Z</time>
      </trkpt>
      <trkpt lat="45.78116" lon="1.85745">
        <ele>705</ele>
        <time>2026-07-08T09:26:13.000Z</time>
      </trkpt>
      <trkpt lat="45.78116" lon="1.85745">
        <ele>705.1</ele>
        <time>2026-07-08T09:26:14.000Z</time>
      </trkpt>
      <trkpt lat="45.78116" lon="1.85746">
        <ele>705.3</ele>
        <time>2026-07-08T09:26:15.000Z</time>
      </trkpt>
      <trkpt lat="45.78116" lon="1.85746">
        <ele>705.3</ele>
        <time>2026-07-08T09:26:16.000Z</time>
      </trkpt>
      <trkpt lat="45.78116" lon="1.85746">
        <ele>705.6</ele>
        <time>2026-07-08T09:26:17.000Z</time>
      </trkpt>
      <trkpt lat="45.78116" lon="1.85746">
        <ele>705.6</ele>
        <time>2026-07-08T09:26:18.000Z</time>
      </trkpt>
      <trkpt lat="45.78116" lon="1.85746">
        <ele>705.6</ele>
        <time>2026-07-08T09:26:19.000Z</time>
      </trkpt>
      <trkpt lat="45.78116" lon="1.85746">
        <ele>705.6</ele>
        <time>2026-07-08T09:26:20.000Z</time>
      </trkpt>
      <trkpt lat="45.78116" lon="1.85746">
        <ele>705.7</ele>
        <time>2026-07-08T09:26:21.000Z</time>
      </trkpt>
      <trkpt lat="45.78116" lon="1.85747">
        <ele>705.7</ele>
        <time>2026-07-08T09:26:22.000Z</time>
      </trkpt>
      <trkpt lat="45.78116" lon="1.85747">
        <ele>705.7</ele>
        <time>2026-07-08T09:26:23.000Z</time>
      </trkpt>
      <trkpt lat="45.78116" lon="1.85747">
        <ele>705.7</ele>
        <time>2026-07-08T09:26:24.000Z</time>
      </trkpt>
      <trkpt lat="45.78116" lon="1.85747">
        <ele>705.7</ele>
        <time>2026-07-08T09:26:25.000Z</time>
      </trkpt>
      <trkpt lat="45.78116" lon="1.85747">
        <ele>705.7</ele>
        <time>2026-07-08T09:26:26.000Z</time>
      </trkpt>
      <trkpt lat="45.78116" lon="1.85747">
        <ele>705.7</ele>
        <time>2026-07-08T09:26:27.000Z</time>
      </trkpt>
      <trkpt lat="45.78116" lon="1.85747">
        <ele>705.7</ele>
        <time>2026-07-08T09:26:28.000Z</time>
      </trkpt>
      <trkpt lat="45.78116" lon="1.85747">
        <ele>705.7</ele>
        <time>2026-07-08T09:26:29.000Z</time>
      </trkpt>
      <trkpt lat="45.78116" lon="1.85747">
        <ele>705.7</ele>
        <time>2026-07-08T09:26:30.000Z</time>
      </trkpt>
      <trkpt lat="45.78116" lon="1.85747">
        <ele>705.4</ele>
        <time>2026-07-08T09:26:31.000Z</time>
      </trkpt>
      <trkpt lat="45.78116" lon="1.85747">
        <ele>705.4</ele>
        <time>2026-07-08T09:26:32.000Z</time>
      </trkpt>
      <trkpt lat="45.78116" lon="1.85748">
        <ele>705.2</ele>
        <time>2026-07-08T09:26:33.000Z</time>
      </trkpt>
      <trkpt lat="45.78116" lon="1.85748">
        <ele>705.2</ele>
        <time>2026-07-08T09:26:34.000Z</time>
      </trkpt>
      <trkpt lat="45.78116" lon="1.85748">
        <ele>705.2</ele>
        <time>2026-07-08T09:26:35.000Z</time>
      </trkpt>
      <trkpt lat="45.78116" lon="1.85748">
        <ele>705.2</ele>
        <time>2026-07-08T09:26:36.000Z</time>
      </trkpt>
      <trkpt lat="45.78116" lon="1.85748">
        <ele>705.2</ele>
        <time>2026-07-08T09:26:37.000Z</time>
      </trkpt>
      <trkpt lat="45.78116" lon="1.85748">
        <ele>705.2</ele>
        <time>2026-07-08T09:26:38.000Z</time>
      </trkpt>
      <trkpt lat="45.78116" lon="1.85748">
        <ele>705.3</ele>
        <time>2026-07-08T09:26:39.000Z</time>
      </trkpt>
      <trkpt lat="45.78116" lon="1.85748">
        <ele>705.3</ele>
        <time>2026-07-08T09:26:40.000Z</time>
      </trkpt>
      <trkpt lat="45.78116" lon="1.85748">
        <ele>705.3</ele>
        <time>2026-07-08T09:26:41.000Z</time>
      </trkpt>
      <trkpt lat="45.78116" lon="1.85748">
        <ele>705</ele>
        <time>2026-07-08T09:26:42.000Z</time>
      </trkpt>
      <trkpt lat="45.78116" lon="1.85749">
        <ele>705</ele>
        <time>2026-07-08T09:26:43.000Z</time>
      </trkpt>
      <trkpt lat="45.78116" lon="1.85749">
        <ele>705</ele>
        <time>2026-07-08T09:26:44.000Z</time>
      </trkpt>
      <trkpt lat="45.78116" lon="1.85749">
        <ele>705</ele>
        <time>2026-07-08T09:26:45.000Z</time>
      </trkpt>
      <trkpt lat="45.78116" lon="1.85749">
        <ele>705.1</ele>
        <time>2026-07-08T09:26:46.000Z</time>
      </trkpt>
      <trkpt lat="45.78116" lon="1.85749">
        <ele>705.1</ele>
        <time>2026-07-08T09:26:47.000Z</time>
      </trkpt>
      <trkpt lat="45.78116" lon="1.85749">
        <ele>705.1</ele>
        <time>2026-07-08T09:26:48.000Z</time>
      </trkpt>
      <trkpt lat="45.78116" lon="1.85749">
        <ele>705.1</ele>
        <time>2026-07-08T09:26:49.000Z</time>
      </trkpt>
      <trkpt lat="45.78116" lon="1.85749">
        <ele>705.1</ele>
        <time>2026-07-08T09:26:50.000Z</time>
      </trkpt>
      <trkpt lat="45.78116" lon="1.85749">
        <ele>705.5</ele>
        <time>2026-07-08T09:26:51.000Z</time>
      </trkpt>
      <trkpt lat="45.78116" lon="1.85749">
        <ele>705.5</ele>
        <time>2026-07-08T09:26:52.000Z</time>
      </trkpt>
      <trkpt lat="45.78116" lon="1.85749">
        <ele>705.1</ele>
        <time>2026-07-08T09:26:53.000Z</time>
      </trkpt>
      <trkpt lat="45.78116" lon="1.8575">
        <ele>705.3</ele>
        <time>2026-07-08T09:26:54.000Z</time>
      </trkpt>
      <trkpt lat="45.78116" lon="1.8575">
        <ele>705.8</ele>
        <time>2026-07-08T09:26:55.000Z</time>
      </trkpt>
      <trkpt lat="45.78116" lon="1.8575">
        <ele>706.1</ele>
        <time>2026-07-08T09:26:56.000Z</time>
      </trkpt>
      <trkpt lat="45.78116" lon="1.8575">
        <ele>706.1</ele>
        <time>2026-07-08T09:26:57.000Z</time>
      </trkpt>
      <trkpt lat="45.78116" lon="1.85751">
        <ele>706.1</ele>
        <time>2026-07-08T09:26:58.000Z</time>
      </trkpt>
      <trkpt lat="45.78116" lon="1.85751">
        <ele>706.1</ele>
        <time>2026-07-08T09:26:59.000Z</time>
      </trkpt>
      <trkpt lat="45.78116" lon="1.85751">
        <ele>706.1</ele>
        <time>2026-07-08T09:27:00.000Z</time>
      </trkpt>
      <trkpt lat="45.78116" lon="1.85751">
        <ele>706.2</ele>
        <time>2026-07-08T09:27:01.000Z</time>
      </trkpt>
      <trkpt lat="45.78116" lon="1.85751">
        <ele>706.2</ele>
        <time>2026-07-08T09:27:02.000Z</time>
      </trkpt>
      <trkpt lat="45.78116" lon="1.85751">
        <ele>706.2</ele>
        <time>2026-07-08T09:27:03.000Z</time>
      </trkpt>
      <trkpt lat="45.78116" lon="1.8575">
        <ele>706.4</ele>
        <time>2026-07-08T09:27:04.000Z</time>
      </trkpt>
      <trkpt lat="45.78116" lon="1.8575">
        <ele>706.8</ele>
        <time>2026-07-08T09:27:05.000Z</time>
      </trkpt>
      <trkpt lat="45.78117" lon="1.8575">
        <ele>706.7</ele>
        <time>2026-07-08T09:27:06.000Z</time>
      </trkpt>
      <trkpt lat="45.78117" lon="1.8575">
        <ele>706.4</ele>
        <time>2026-07-08T09:27:07.000Z</time>
      </trkpt>
      <trkpt lat="45.78117" lon="1.8575">
        <ele>706.4</ele>
        <time>2026-07-08T09:27:08.000Z</time>
      </trkpt>
      <trkpt lat="45.78117" lon="1.8575">
        <ele>706.4</ele>
        <time>2026-07-08T09:27:09.000Z</time>
      </trkpt>
      <trkpt lat="45.78117" lon="1.8575">
        <ele>706.4</ele>
        <time>2026-07-08T09:27:10.000Z</time>
      </trkpt>
      <trkpt lat="45.78117" lon="1.8575">
        <ele>706.4</ele>
        <time>2026-07-08T09:27:11.000Z</time>
      </trkpt>
      <trkpt lat="45.78117" lon="1.8575">
        <ele>706.4</ele>
        <time>2026-07-08T09:27:12.000Z</time>
      </trkpt>
      <trkpt lat="45.78117" lon="1.8575">
        <ele>706.4</ele>
        <time>2026-07-08T09:27:13.000Z</time>
      </trkpt>
      <trkpt lat="45.78117" lon="1.8575">
        <ele>706.4</ele>
        <time>2026-07-08T09:27:14.000Z</time>
      </trkpt>
      <trkpt lat="45.78117" lon="1.8575">
        <ele>706.4</ele>
        <time>2026-07-08T09:27:15.000Z</time>
      </trkpt>
      <trkpt lat="45.78117" lon="1.8575">
        <ele>706.4</ele>
        <time>2026-07-08T09:27:16.000Z</time>
      </trkpt>
      <trkpt lat="45.78117" lon="1.8575">
        <ele>706.4</ele>
        <time>2026-07-08T09:27:17.000Z</time>
      </trkpt>
      <trkpt lat="45.78117" lon="1.8575">
        <ele>706.4</ele>
        <time>2026-07-08T09:27:18.000Z</time>
      </trkpt>
      <trkpt lat="45.78117" lon="1.8575">
        <ele>706.4</ele>
        <time>2026-07-08T09:27:19.000Z</time>
      </trkpt>
      <trkpt lat="45.78117" lon="1.8575">
        <ele>706.4</ele>
        <time>2026-07-08T09:27:20.000Z</time>
      </trkpt>
      <trkpt lat="45.78117" lon="1.8575">
        <ele>706.4</ele>
        <time>2026-07-08T09:27:21.000Z</time>
      </trkpt>
      <trkpt lat="45.78117" lon="1.8575">
        <ele>706.4</ele>
        <time>2026-07-08T09:27:22.000Z</time>
      </trkpt>
      <trkpt lat="45.78117" lon="1.8575">
        <ele>706.8</ele>
        <time>2026-07-08T09:27:23.000Z</time>
      </trkpt>
      <trkpt lat="45.78117" lon="1.8575">
        <ele>706.8</ele>
        <time>2026-07-08T09:27:24.000Z</time>
      </trkpt>
      <trkpt lat="45.78117" lon="1.8575">
        <ele>706.8</ele>
        <time>2026-07-08T09:27:25.000Z</time>
      </trkpt>
      <trkpt lat="45.78117" lon="1.8575">
        <ele>706.8</ele>
        <time>2026-07-08T09:27:26.000Z</time>
      </trkpt>
      <trkpt lat="45.78117" lon="1.8575">
        <ele>706.8</ele>
        <time>2026-07-08T09:27:27.000Z</time>
      </trkpt>
      <trkpt lat="45.78117" lon="1.8575">
        <ele>706.8</ele>
        <time>2026-07-08T09:27:28.000Z</time>
      </trkpt>
      <trkpt lat="45.78117" lon="1.8575">
        <ele>706.8</ele>
        <time>2026-07-08T09:27:29.000Z</time>
      </trkpt>
      <trkpt lat="45.78117" lon="1.8575">
        <ele>706.8</ele>
        <time>2026-07-08T09:27:30.000Z</time>
      </trkpt>
      <trkpt lat="45.78117" lon="1.8575">
        <ele>706.8</ele>
        <time>2026-07-08T09:27:31.000Z</time>
      </trkpt>
      <trkpt lat="45.78117" lon="1.8575">
        <ele>706.8</ele>
        <time>2026-07-08T09:27:32.000Z</time>
      </trkpt>
      <trkpt lat="45.78117" lon="1.8575">
        <ele>706.8</ele>
        <time>2026-07-08T09:27:33.000Z</time>
      </trkpt>
      <trkpt lat="45.78117" lon="1.8575">
        <ele>706.8</ele>
        <time>2026-07-08T09:27:34.000Z</time>
      </trkpt>
      <trkpt lat="45.78117" lon="1.8575">
        <ele>706.8</ele>
        <time>2026-07-08T09:27:35.000Z</time>
      </trkpt>
      <trkpt lat="45.78117" lon="1.8575">
        <ele>706.8</ele>
        <time>2026-07-08T09:27:36.000Z</time>
      </trkpt>
      <trkpt lat="45.78117" lon="1.8575">
        <ele>706.5</ele>
        <time>2026-07-08T09:27:37.000Z</time>
      </trkpt>
      <trkpt lat="45.78117" lon="1.8575">
        <ele>706.5</ele>
        <time>2026-07-08T09:27:38.000Z</time>
      </trkpt>
      <trkpt lat="45.78117" lon="1.8575">
        <ele>706.5</ele>
        <time>2026-07-08T09:27:39.000Z</time>
      </trkpt>
      <trkpt lat="45.78117" lon="1.8575">
        <ele>706.5</ele>
        <time>2026-07-08T09:27:40.000Z</time>
      </trkpt>
      <trkpt lat="45.78117" lon="1.8575">
        <ele>706.5</ele>
        <time>2026-07-08T09:27:41.000Z</time>
      </trkpt>
      <trkpt lat="45.78117" lon="1.8575">
        <ele>706.5</ele>
        <time>2026-07-08T09:27:42.000Z</time>
      </trkpt>
      <trkpt lat="45.78117" lon="1.8575">
        <ele>706.5</ele>
        <time>2026-07-08T09:27:43.000Z</time>
      </trkpt>
      <trkpt lat="45.78117" lon="1.8575">
        <ele>706.5</ele>
        <time>2026-07-08T09:27:44.000Z</time>
      </trkpt>
      <trkpt lat="45.78117" lon="1.8575">
        <ele>706.5</ele>
        <time>2026-07-08T09:27:45.000Z</time>
      </trkpt>
      <trkpt lat="45.78117" lon="1.8575">
        <ele>706.5</ele>
        <time>2026-07-08T09:27:46.000Z</time>
      </trkpt>
      <trkpt lat="45.78117" lon="1.8575">
        <ele>706.5</ele>
        <time>2026-07-08T09:27:47.000Z</time>
      </trkpt>
      <trkpt lat="45.78117" lon="1.8575">
        <ele>706.6</ele>
        <time>2026-07-08T09:27:48.000Z</time>
      </trkpt>
      <trkpt lat="45.78118" lon="1.8575">
        <ele>705.8</ele>
        <time>2026-07-08T09:27:49.000Z</time>
      </trkpt>
      <trkpt lat="45.78118" lon="1.85749">
        <ele>705.8</ele>
        <time>2026-07-08T09:27:50.000Z</time>
      </trkpt>
      <trkpt lat="45.78118" lon="1.85749">
        <ele>705.8</ele>
        <time>2026-07-08T09:27:51.000Z</time>
      </trkpt>
      <trkpt lat="45.78118" lon="1.85749">
        <ele>705.8</ele>
        <time>2026-07-08T09:27:52.000Z</time>
      </trkpt>
      <trkpt lat="45.78118" lon="1.85749">
        <ele>705.8</ele>
        <time>2026-07-08T09:27:53.000Z</time>
      </trkpt>
      <trkpt lat="45.78118" lon="1.85749">
        <ele>705.8</ele>
        <time>2026-07-08T09:27:54.000Z</time>
      </trkpt>
      <trkpt lat="45.78118" lon="1.85749">
        <ele>705.6</ele>
        <time>2026-07-08T09:27:55.000Z</time>
      </trkpt>
      <trkpt lat="45.78117" lon="1.85748">
        <ele>705.3</ele>
        <time>2026-07-08T09:27:56.000Z</time>
      </trkpt>
      <trkpt lat="45.78117" lon="1.85748">
        <ele>705.3</ele>
        <time>2026-07-08T09:27:57.000Z</time>
      </trkpt>
      <trkpt lat="45.78117" lon="1.85747">
        <ele>705.3</ele>
        <time>2026-07-08T09:27:58.000Z</time>
      </trkpt>
      <trkpt lat="45.78117" lon="1.85747">
        <ele>705.3</ele>
        <time>2026-07-08T09:27:59.000Z</time>
      </trkpt>
      <trkpt lat="45.78117" lon="1.85747">
        <ele>705.3</ele>
        <time>2026-07-08T09:28:00.000Z</time>
      </trkpt>
      <trkpt lat="45.78117" lon="1.85747">
        <ele>705.3</ele>
        <time>2026-07-08T09:28:01.000Z</time>
      </trkpt>
      <trkpt lat="45.78117" lon="1.85747">
        <ele>705.3</ele>
        <time>2026-07-08T09:28:02.000Z</time>
      </trkpt>
      <trkpt lat="45.78117" lon="1.85747">
        <ele>705.3</ele>
        <time>2026-07-08T09:28:03.000Z</time>
      </trkpt>
      <trkpt lat="45.78117" lon="1.85747">
        <ele>705.3</ele>
        <time>2026-07-08T09:28:04.000Z</time>
      </trkpt>
      <trkpt lat="45.78117" lon="1.85747">
        <ele>705.3</ele>
        <time>2026-07-08T09:28:05.000Z</time>
      </trkpt>
      <trkpt lat="45.78117" lon="1.85747">
        <ele>705.3</ele>
        <time>2026-07-08T09:28:06.000Z</time>
      </trkpt>
      <trkpt lat="45.78117" lon="1.85747">
        <ele>705.3</ele>
        <time>2026-07-08T09:28:07.000Z</time>
      </trkpt>
      <trkpt lat="45.78117" lon="1.85747">
        <ele>705.3</ele>
        <time>2026-07-08T09:28:08.000Z</time>
      </trkpt>
      <trkpt lat="45.78117" lon="1.85747">
        <ele>705.3</ele>
        <time>2026-07-08T09:28:09.000Z</time>
      </trkpt>
      <trkpt lat="45.78117" lon="1.85747">
        <ele>705.3</ele>
        <time>2026-07-08T09:28:10.000Z</time>
      </trkpt>
      <trkpt lat="45.78117" lon="1.85747">
        <ele>705.3</ele>
        <time>2026-07-08T09:28:11.000Z</time>
      </trkpt>
      <trkpt lat="45.78117" lon="1.85747">
        <ele>705.3</ele>
        <time>2026-07-08T09:28:12.000Z</time>
      </trkpt>
      <trkpt lat="45.78117" lon="1.85747">
        <ele>705.3</ele>
        <time>2026-07-08T09:28:13.000Z</time>
      </trkpt>
      <trkpt lat="45.78117" lon="1.85747">
        <ele>705.3</ele>
        <time>2026-07-08T09:28:14.000Z</time>
      </trkpt>
      <trkpt lat="45.78117" lon="1.85747">
        <ele>705</ele>
        <time>2026-07-08T09:28:15.000Z</time>
      </trkpt>
      <trkpt lat="45.78117" lon="1.85746">
        <ele>705.1</ele>
        <time>2026-07-08T09:28:16.000Z</time>
      </trkpt>
      <trkpt lat="45.78117" lon="1.85746">
        <ele>704.5</ele>
        <time>2026-07-08T09:28:17.000Z</time>
      </trkpt>
      <trkpt lat="45.78117" lon="1.85745">
        <ele>704.5</ele>
        <time>2026-07-08T09:28:18.000Z</time>
      </trkpt>
      <trkpt lat="45.78117" lon="1.85745">
        <ele>704.1</ele>
        <time>2026-07-08T09:28:19.000Z</time>
      </trkpt>
      <trkpt lat="45.78117" lon="1.85744">
        <ele>704.1</ele>
        <time>2026-07-08T09:28:20.000Z</time>
      </trkpt>
      <trkpt lat="45.78117" lon="1.85744">
        <ele>704.1</ele>
        <time>2026-07-08T09:28:21.000Z</time>
      </trkpt>
      <trkpt lat="45.78117" lon="1.85744">
        <ele>704.1</ele>
        <time>2026-07-08T09:28:22.000Z</time>
      </trkpt>
      <trkpt lat="45.78117" lon="1.85744">
        <ele>704.1</ele>
        <time>2026-07-08T09:28:23.000Z</time>
      </trkpt>
      <trkpt lat="45.78117" lon="1.85744">
        <ele>704.2</ele>
        <time>2026-07-08T09:28:24.000Z</time>
      </trkpt>
      <trkpt lat="45.78117" lon="1.85744">
        <ele>704.2</ele>
        <time>2026-07-08T09:28:25.000Z</time>
      </trkpt>
      <trkpt lat="45.78117" lon="1.85744">
        <ele>704.2</ele>
        <time>2026-07-08T09:28:26.000Z</time>
      </trkpt>
      <trkpt lat="45.78117" lon="1.85744">
        <ele>704.2</ele>
        <time>2026-07-08T09:28:27.000Z</time>
      </trkpt>
      <trkpt lat="45.78117" lon="1.85744">
        <ele>704.2</ele>
        <time>2026-07-08T09:28:28.000Z</time>
      </trkpt>
      <trkpt lat="45.78117" lon="1.85744">
        <ele>704.2</ele>
        <time>2026-07-08T09:28:29.000Z</time>
      </trkpt>
      <trkpt lat="45.78117" lon="1.85744">
        <ele>704.2</ele>
        <time>2026-07-08T09:28:30.000Z</time>
      </trkpt>
      <trkpt lat="45.78117" lon="1.85744">
        <ele>704.2</ele>
        <time>2026-07-08T09:28:31.000Z</time>
      </trkpt>
      <trkpt lat="45.78117" lon="1.85744">
        <ele>704.2</ele>
        <time>2026-07-08T09:28:32.000Z</time>
      </trkpt>
      <trkpt lat="45.78117" lon="1.85744">
        <ele>704.2</ele>
        <time>2026-07-08T09:28:33.000Z</time>
      </trkpt>
      <trkpt lat="45.78117" lon="1.85744">
        <ele>704.2</ele>
        <time>2026-07-08T09:28:34.000Z</time>
      </trkpt>
      <trkpt lat="45.78117" lon="1.85744">
        <ele>704.2</ele>
        <time>2026-07-08T09:28:35.000Z</time>
      </trkpt>
      <trkpt lat="45.78117" lon="1.85744">
        <ele>704.2</ele>
        <time>2026-07-08T09:28:36.000Z</time>
      </trkpt>
      <trkpt lat="45.78117" lon="1.85744">
        <ele>704.2</ele>
        <time>2026-07-08T09:28:37.000Z</time>
      </trkpt>
      <trkpt lat="45.78117" lon="1.85744">
        <ele>704.2</ele>
        <time>2026-07-08T09:28:38.000Z</time>
      </trkpt>
      <trkpt lat="45.78117" lon="1.85744">
        <ele>704.2</ele>
        <time>2026-07-08T09:28:39.000Z</time>
      </trkpt>
      <trkpt lat="45.78117" lon="1.85744">
        <ele>704.2</ele>
        <time>2026-07-08T09:28:40.000Z</time>
      </trkpt>
      <trkpt lat="45.78117" lon="1.85744">
        <ele>704.2</ele>
        <time>2026-07-08T09:28:41.000Z</time>
      </trkpt>
      <trkpt lat="45.78117" lon="1.85744">
        <ele>704.2</ele>
        <time>2026-07-08T09:28:42.000Z</time>
      </trkpt>
      <trkpt lat="45.78117" lon="1.85744">
        <ele>704.2</ele>
        <time>2026-07-08T09:28:43.000Z</time>
      </trkpt>
      <trkpt lat="45.78117" lon="1.85744">
        <ele>704.2</ele>
        <time>2026-07-08T09:28:44.000Z</time>
      </trkpt>
      <trkpt lat="45.78117" lon="1.85744">
        <ele>704.2</ele>
        <time>2026-07-08T09:28:45.000Z</time>
      </trkpt>
      <trkpt lat="45.78117" lon="1.85744">
        <ele>704.2</ele>
        <time>2026-07-08T09:28:46.000Z</time>
      </trkpt>
      <trkpt lat="45.78117" lon="1.85744">
        <ele>704.2</ele>
        <time>2026-07-08T09:28:47.000Z</time>
      </trkpt>
      <trkpt lat="45.78117" lon="1.85744">
        <ele>704.2</ele>
        <time>2026-07-08T09:28:48.000Z</time>
      </trkpt>
      <trkpt lat="45.78117" lon="1.85744">
        <ele>704.2</ele>
        <time>2026-07-08T09:28:49.000Z</time>
      </trkpt>
      <trkpt lat="45.78117" lon="1.85744">
        <ele>704.2</ele>
        <time>2026-07-08T09:28:50.000Z</time>
      </trkpt>
      <trkpt lat="45.78117" lon="1.85744">
        <ele>704.2</ele>
        <time>2026-07-08T09:28:51.000Z</time>
      </trkpt>
      <trkpt lat="45.78117" lon="1.85744">
        <ele>704.2</ele>
        <time>2026-07-08T09:28:52.000Z</time>
      </trkpt>
      <trkpt lat="45.78117" lon="1.85744">
        <ele>704.2</ele>
        <time>2026-07-08T09:28:53.000Z</time>
      </trkpt>
      <trkpt lat="45.78117" lon="1.85744">
        <ele>704.2</ele>
        <time>2026-07-08T09:28:54.000Z</time>
      </trkpt>
      <trkpt lat="45.78117" lon="1.85744">
        <ele>704.1</ele>
        <time>2026-07-08T09:28:55.000Z</time>
      </trkpt>
      <trkpt lat="45.78117" lon="1.85744">
        <ele>704.2</ele>
        <time>2026-07-08T09:28:56.000Z</time>
      </trkpt>
      <trkpt lat="45.78117" lon="1.85744">
        <ele>705.3</ele>
        <time>2026-07-08T09:28:57.000Z</time>
      </trkpt>
      <trkpt lat="45.78117" lon="1.85744">
        <ele>705.7</ele>
        <time>2026-07-08T09:28:58.000Z</time>
      </trkpt>
      <trkpt lat="45.78118" lon="1.85744">
        <ele>705.7</ele>
        <time>2026-07-08T09:28:59.000Z</time>
      </trkpt>
      <trkpt lat="45.78118" lon="1.85742">
        <ele>705.9</ele>
        <time>2026-07-08T09:29:00.000Z</time>
      </trkpt>
      <trkpt lat="45.78119" lon="1.85741">
        <ele>705.2</ele>
        <time>2026-07-08T09:29:01.000Z</time>
      </trkpt>
      <trkpt lat="45.7812" lon="1.8574">
        <ele>705.2</ele>
        <time>2026-07-08T09:29:02.000Z</time>
      </trkpt>
      <trkpt lat="45.78121" lon="1.85738">
        <ele>705.1</ele>
        <time>2026-07-08T09:29:03.000Z</time>
      </trkpt>
      <trkpt lat="45.78123" lon="1.85735">
        <ele>705.5</ele>
        <time>2026-07-08T09:29:04.000Z</time>
      </trkpt>
      <trkpt lat="45.78124" lon="1.85732">
        <ele>706.4</ele>
        <time>2026-07-08T09:29:05.000Z</time>
      </trkpt>
      <trkpt lat="45.78125" lon="1.85729">
        <ele>706.5</ele>
        <time>2026-07-08T09:29:06.000Z</time>
      </trkpt>
      <trkpt lat="45.78126" lon="1.85727">
        <ele>707.7</ele>
        <time>2026-07-08T09:29:07.000Z</time>
      </trkpt>
      <trkpt lat="45.78127" lon="1.85724">
        <ele>707.6</ele>
        <time>2026-07-08T09:29:08.000Z</time>
      </trkpt>
      <trkpt lat="45.78128" lon="1.8572">
        <ele>707.7</ele>
        <time>2026-07-08T09:29:09.000Z</time>
      </trkpt>
      <trkpt lat="45.78128" lon="1.85717">
        <ele>708</ele>
        <time>2026-07-08T09:29:10.000Z</time>
      </trkpt>
      <trkpt lat="45.78128" lon="1.85714">
        <ele>707.8</ele>
        <time>2026-07-08T09:29:11.000Z</time>
      </trkpt>
      <trkpt lat="45.78128" lon="1.8571">
        <ele>709.3</ele>
        <time>2026-07-08T09:29:12.000Z</time>
      </trkpt>
      <trkpt lat="45.78128" lon="1.85707">
        <ele>710</ele>
        <time>2026-07-08T09:29:13.000Z</time>
      </trkpt>
      <trkpt lat="45.78129" lon="1.85703">
        <ele>709.6</ele>
        <time>2026-07-08T09:29:14.000Z</time>
      </trkpt>
      <trkpt lat="45.7813" lon="1.857">
        <ele>709.4</ele>
        <time>2026-07-08T09:29:15.000Z</time>
      </trkpt>
      <trkpt lat="45.7813" lon="1.85697">
        <ele>712.7</ele>
        <time>2026-07-08T09:29:16.000Z</time>
      </trkpt>
      <trkpt lat="45.78131" lon="1.85695">
        <ele>712.1</ele>
        <time>2026-07-08T09:29:17.000Z</time>
      </trkpt>
      <trkpt lat="45.78132" lon="1.85692">
        <ele>713.9</ele>
        <time>2026-07-08T09:29:18.000Z</time>
      </trkpt>
      <trkpt lat="45.78133" lon="1.8569">
        <ele>714.8</ele>
        <time>2026-07-08T09:29:19.000Z</time>
      </trkpt>
      <trkpt lat="45.78133" lon="1.85688">
        <ele>715.6</ele>
        <time>2026-07-08T09:29:20.000Z</time>
      </trkpt>
      <trkpt lat="45.78134" lon="1.85686">
        <ele>714.6</ele>
        <time>2026-07-08T09:29:21.000Z</time>
      </trkpt>
      <trkpt lat="45.78135" lon="1.85684">
        <ele>714.7</ele>
        <time>2026-07-08T09:29:22.000Z</time>
      </trkpt>
      <trkpt lat="45.78136" lon="1.85682">
        <ele>714.7</ele>
        <time>2026-07-08T09:29:23.000Z</time>
      </trkpt>
      <trkpt lat="45.78138" lon="1.8568">
        <ele>713.1</ele>
        <time>2026-07-08T09:29:24.000Z</time>
      </trkpt>
      <trkpt lat="45.78138" lon="1.85678">
        <ele>713.6</ele>
        <time>2026-07-08T09:29:25.000Z</time>
      </trkpt>
      <trkpt lat="45.78139" lon="1.85675">
        <ele>713.1</ele>
        <time>2026-07-08T09:29:26.000Z</time>
      </trkpt>
      <trkpt lat="45.7814" lon="1.85673">
        <ele>712.8</ele>
        <time>2026-07-08T09:29:27.000Z</time>
      </trkpt>
      <trkpt lat="45.78141" lon="1.85671">
        <ele>711.9</ele>
        <time>2026-07-08T09:29:28.000Z</time>
      </trkpt>
      <trkpt lat="45.78142" lon="1.85669">
        <ele>712.1</ele>
        <time>2026-07-08T09:29:29.000Z</time>
      </trkpt>
      <trkpt lat="45.78144" lon="1.85667">
        <ele>711.7</ele>
        <time>2026-07-08T09:29:30.000Z</time>
      </trkpt>
      <trkpt lat="45.78146" lon="1.85666">
        <ele>711.4</ele>
        <time>2026-07-08T09:29:31.000Z</time>
      </trkpt>
      <trkpt lat="45.78147" lon="1.85664">
        <ele>711</ele>
        <time>2026-07-08T09:29:32.000Z</time>
      </trkpt>
      <trkpt lat="45.78149" lon="1.85662">
        <ele>710.7</ele>
        <time>2026-07-08T09:29:33.000Z</time>
      </trkpt>
      <trkpt lat="45.78151" lon="1.8566">
        <ele>709.7</ele>
        <time>2026-07-08T09:29:34.000Z</time>
      </trkpt>
      <trkpt lat="45.78153" lon="1.85658">
        <ele>709.1</ele>
        <time>2026-07-08T09:29:35.000Z</time>
      </trkpt>
      <trkpt lat="45.78154" lon="1.85655">
        <ele>708.7</ele>
        <time>2026-07-08T09:29:36.000Z</time>
      </trkpt>
      <trkpt lat="45.78156" lon="1.85653">
        <ele>708.2</ele>
        <time>2026-07-08T09:29:37.000Z</time>
      </trkpt>
      <trkpt lat="45.78157" lon="1.85651">
        <ele>708.3</ele>
        <time>2026-07-08T09:29:38.000Z</time>
      </trkpt>
      <trkpt lat="45.78158" lon="1.85648">
        <ele>707.9</ele>
        <time>2026-07-08T09:29:39.000Z</time>
      </trkpt>
      <trkpt lat="45.78159" lon="1.85645">
        <ele>708</ele>
        <time>2026-07-08T09:29:40.000Z</time>
      </trkpt>
      <trkpt lat="45.78159" lon="1.85642">
        <ele>709.3</ele>
        <time>2026-07-08T09:29:41.000Z</time>
      </trkpt>
      <trkpt lat="45.7816" lon="1.85639">
        <ele>708.9</ele>
        <time>2026-07-08T09:29:42.000Z</time>
      </trkpt>
      <trkpt lat="45.78161" lon="1.85637">
        <ele>709</ele>
        <time>2026-07-08T09:29:43.000Z</time>
      </trkpt>
      <trkpt lat="45.78162" lon="1.85635">
        <ele>709.8</ele>
        <time>2026-07-08T09:29:44.000Z</time>
      </trkpt>
      <trkpt lat="45.78163" lon="1.85633">
        <ele>709.4</ele>
        <time>2026-07-08T09:29:45.000Z</time>
      </trkpt>
      <trkpt lat="45.78164" lon="1.85632">
        <ele>709.3</ele>
        <time>2026-07-08T09:29:46.000Z</time>
      </trkpt>
      <trkpt lat="45.78166" lon="1.85631">
        <ele>709.8</ele>
        <time>2026-07-08T09:29:47.000Z</time>
      </trkpt>
      <trkpt lat="45.78167" lon="1.85629">
        <ele>709.2</ele>
        <time>2026-07-08T09:29:48.000Z</time>
      </trkpt>
      <trkpt lat="45.78168" lon="1.85626">
        <ele>710.5</ele>
        <time>2026-07-08T09:29:49.000Z</time>
      </trkpt>
      <trkpt lat="45.78169" lon="1.85624">
        <ele>710.7</ele>
        <time>2026-07-08T09:29:50.000Z</time>
      </trkpt>
      <trkpt lat="45.78169" lon="1.85621">
        <ele>710.5</ele>
        <time>2026-07-08T09:29:51.000Z</time>
      </trkpt>
      <trkpt lat="45.7817" lon="1.85619">
        <ele>710.4</ele>
        <time>2026-07-08T09:29:52.000Z</time>
      </trkpt>
      <trkpt lat="45.78171" lon="1.85617">
        <ele>709.5</ele>
        <time>2026-07-08T09:29:53.000Z</time>
      </trkpt>
      <trkpt lat="45.78173" lon="1.85616">
        <ele>708.1</ele>
        <time>2026-07-08T09:29:54.000Z</time>
      </trkpt>
      <trkpt lat="45.78174" lon="1.85613">
        <ele>706.6</ele>
        <time>2026-07-08T09:29:55.000Z</time>
      </trkpt>
      <trkpt lat="45.78174" lon="1.85609">
        <ele>704.2</ele>
        <time>2026-07-08T09:29:56.000Z</time>
      </trkpt>
      <trkpt lat="45.78175" lon="1.85605">
        <ele>704.1</ele>
        <time>2026-07-08T09:29:57.000Z</time>
      </trkpt>
      <trkpt lat="45.78175" lon="1.85603">
        <ele>705.7</ele>
        <time>2026-07-08T09:29:58.000Z</time>
      </trkpt>
      <trkpt lat="45.78176" lon="1.85601">
        <ele>707.3</ele>
        <time>2026-07-08T09:29:59.000Z</time>
      </trkpt>
      <trkpt lat="45.78177" lon="1.85599">
        <ele>706.8</ele>
        <time>2026-07-08T09:30:00.000Z</time>
      </trkpt>
      <trkpt lat="45.78178" lon="1.85597">
        <ele>707.7</ele>
        <time>2026-07-08T09:30:01.000Z</time>
      </trkpt>
      <trkpt lat="45.78181" lon="1.85597">
        <ele>705.8</ele>
        <time>2026-07-08T09:30:02.000Z</time>
      </trkpt>
      <trkpt lat="45.78182" lon="1.85596">
        <ele>705.5</ele>
        <time>2026-07-08T09:30:03.000Z</time>
      </trkpt>
      <trkpt lat="45.78184" lon="1.85596">
        <ele>706.1</ele>
        <time>2026-07-08T09:30:04.000Z</time>
      </trkpt>
      <trkpt lat="45.78186" lon="1.85596">
        <ele>705.9</ele>
        <time>2026-07-08T09:30:05.000Z</time>
      </trkpt>
      <trkpt lat="45.78188" lon="1.85596">
        <ele>705.6</ele>
        <time>2026-07-08T09:30:06.000Z</time>
      </trkpt>
      <trkpt lat="45.7819" lon="1.85596">
        <ele>705.4</ele>
        <time>2026-07-08T09:30:07.000Z</time>
      </trkpt>
      <trkpt lat="45.78192" lon="1.85597">
        <ele>705.3</ele>
        <time>2026-07-08T09:30:08.000Z</time>
      </trkpt>
      <trkpt lat="45.78194" lon="1.85596">
        <ele>705.2</ele>
        <time>2026-07-08T09:30:09.000Z</time>
      </trkpt>
      <trkpt lat="45.78198" lon="1.85596">
        <ele>704.7</ele>
        <time>2026-07-08T09:30:10.000Z</time>
      </trkpt>
      <trkpt lat="45.78202" lon="1.85594">
        <ele>704.2</ele>
        <time>2026-07-08T09:30:11.000Z</time>
      </trkpt>
      <trkpt lat="45.78204" lon="1.85592">
        <ele>706.2</ele>
        <time>2026-07-08T09:30:12.000Z</time>
      </trkpt>
      <trkpt lat="45.78204" lon="1.8559">
        <ele>707.1</ele>
        <time>2026-07-08T09:30:13.000Z</time>
      </trkpt>
      <trkpt lat="45.78205" lon="1.85587">
        <ele>708.4</ele>
        <time>2026-07-08T09:30:14.000Z</time>
      </trkpt>
      <trkpt lat="45.78206" lon="1.85585">
        <ele>708.9</ele>
        <time>2026-07-08T09:30:15.000Z</time>
      </trkpt>
      <trkpt lat="45.78207" lon="1.85584">
        <ele>708.9</ele>
        <time>2026-07-08T09:30:16.000Z</time>
      </trkpt>
      <trkpt lat="45.78208" lon="1.85583">
        <ele>708.3</ele>
        <time>2026-07-08T09:30:17.000Z</time>
      </trkpt>
      <trkpt lat="45.78209" lon="1.85583">
        <ele>708.5</ele>
        <time>2026-07-08T09:30:18.000Z</time>
      </trkpt>
      <trkpt lat="45.7821" lon="1.85583">
        <ele>708.6</ele>
        <time>2026-07-08T09:30:19.000Z</time>
      </trkpt>
      <trkpt lat="45.78211" lon="1.85583">
        <ele>708.6</ele>
        <time>2026-07-08T09:30:20.000Z</time>
      </trkpt>
      <trkpt lat="45.78212" lon="1.85584">
        <ele>708.4</ele>
        <time>2026-07-08T09:30:21.000Z</time>
      </trkpt>
      <trkpt lat="45.78213" lon="1.85584">
        <ele>708</ele>
        <time>2026-07-08T09:30:22.000Z</time>
      </trkpt>
      <trkpt lat="45.78214" lon="1.85584">
        <ele>708.3</ele>
        <time>2026-07-08T09:30:23.000Z</time>
      </trkpt>
      <trkpt lat="45.78215" lon="1.85584">
        <ele>707.8</ele>
        <time>2026-07-08T09:30:24.000Z</time>
      </trkpt>
      <trkpt lat="45.78216" lon="1.85584">
        <ele>707.6</ele>
        <time>2026-07-08T09:30:25.000Z</time>
      </trkpt>
      <trkpt lat="45.78217" lon="1.85584">
        <ele>707</ele>
        <time>2026-07-08T09:30:26.000Z</time>
      </trkpt>
      <trkpt lat="45.78218" lon="1.85585">
        <ele>707.1</ele>
        <time>2026-07-08T09:30:27.000Z</time>
      </trkpt>
      <trkpt lat="45.78219" lon="1.85585">
        <ele>706.5</ele>
        <time>2026-07-08T09:30:28.000Z</time>
      </trkpt>
      <trkpt lat="45.7822" lon="1.85586">
        <ele>706.9</ele>
        <time>2026-07-08T09:30:29.000Z</time>
      </trkpt>
      <trkpt lat="45.78221" lon="1.85587">
        <ele>708.1</ele>
        <time>2026-07-08T09:30:30.000Z</time>
      </trkpt>
      <trkpt lat="45.78223" lon="1.85588">
        <ele>708.2</ele>
        <time>2026-07-08T09:30:31.000Z</time>
      </trkpt>
      <trkpt lat="45.78224" lon="1.85589">
        <ele>707.6</ele>
        <time>2026-07-08T09:30:32.000Z</time>
      </trkpt>
      <trkpt lat="45.78225" lon="1.85589">
        <ele>707.3</ele>
        <time>2026-07-08T09:30:33.000Z</time>
      </trkpt>
      <trkpt lat="45.78226" lon="1.8559">
        <ele>707</ele>
        <time>2026-07-08T09:30:34.000Z</time>
      </trkpt>
      <trkpt lat="45.78227" lon="1.85591">
        <ele>705.8</ele>
        <time>2026-07-08T09:30:35.000Z</time>
      </trkpt>
      <trkpt lat="45.78229" lon="1.85591">
        <ele>705.5</ele>
        <time>2026-07-08T09:30:36.000Z</time>
      </trkpt>
      <trkpt lat="45.78231" lon="1.85591">
        <ele>707</ele>
        <time>2026-07-08T09:30:37.000Z</time>
      </trkpt>
      <trkpt lat="45.78233" lon="1.8559">
        <ele>707.2</ele>
        <time>2026-07-08T09:30:38.000Z</time>
      </trkpt>
      <trkpt lat="45.78234" lon="1.8559">
        <ele>707.4</ele>
        <time>2026-07-08T09:30:39.000Z</time>
      </trkpt>
      <trkpt lat="45.78236" lon="1.85591">
        <ele>706.2</ele>
        <time>2026-07-08T09:30:40.000Z</time>
      </trkpt>
      <trkpt lat="45.78237" lon="1.85591">
        <ele>705.9</ele>
        <time>2026-07-08T09:30:41.000Z</time>
      </trkpt>
      <trkpt lat="45.78238" lon="1.85592">
        <ele>705.7</ele>
        <time>2026-07-08T09:30:42.000Z</time>
      </trkpt>
      <trkpt lat="45.78239" lon="1.85592">
        <ele>705.3</ele>
        <time>2026-07-08T09:30:43.000Z</time>
      </trkpt>
      <trkpt lat="45.78241" lon="1.85591">
        <ele>705.6</ele>
        <time>2026-07-08T09:30:44.000Z</time>
      </trkpt>
      <trkpt lat="45.78242" lon="1.85591">
        <ele>706.2</ele>
        <time>2026-07-08T09:30:45.000Z</time>
      </trkpt>
      <trkpt lat="45.78244" lon="1.8559">
        <ele>705.9</ele>
        <time>2026-07-08T09:30:46.000Z</time>
      </trkpt>
      <trkpt lat="45.78245" lon="1.85589">
        <ele>705.6</ele>
        <time>2026-07-08T09:30:47.000Z</time>
      </trkpt>
      <trkpt lat="45.78247" lon="1.85588">
        <ele>705.7</ele>
        <time>2026-07-08T09:30:48.000Z</time>
      </trkpt>
      <trkpt lat="45.78248" lon="1.85588">
        <ele>705.8</ele>
        <time>2026-07-08T09:30:49.000Z</time>
      </trkpt>
      <trkpt lat="45.7825" lon="1.85587">
        <ele>705.9</ele>
        <time>2026-07-08T09:30:50.000Z</time>
      </trkpt>
      <trkpt lat="45.78251" lon="1.85587">
        <ele>705.5</ele>
        <time>2026-07-08T09:30:51.000Z</time>
      </trkpt>
      <trkpt lat="45.78252" lon="1.85587">
        <ele>705.1</ele>
        <time>2026-07-08T09:30:52.000Z</time>
      </trkpt>
      <trkpt lat="45.78253" lon="1.85587">
        <ele>705.5</ele>
        <time>2026-07-08T09:30:53.000Z</time>
      </trkpt>
      <trkpt lat="45.78255" lon="1.85586">
        <ele>706.7</ele>
        <time>2026-07-08T09:30:54.000Z</time>
      </trkpt>
      <trkpt lat="45.78257" lon="1.85585">
        <ele>706.1</ele>
        <time>2026-07-08T09:30:55.000Z</time>
      </trkpt>
      <trkpt lat="45.78259" lon="1.85584">
        <ele>706.6</ele>
        <time>2026-07-08T09:30:56.000Z</time>
      </trkpt>
      <trkpt lat="45.78261" lon="1.85583">
        <ele>707.4</ele>
        <time>2026-07-08T09:30:57.000Z</time>
      </trkpt>
      <trkpt lat="45.78262" lon="1.85583">
        <ele>706.1</ele>
        <time>2026-07-08T09:30:58.000Z</time>
      </trkpt>
      <trkpt lat="45.78263" lon="1.85583">
        <ele>705.9</ele>
        <time>2026-07-08T09:30:59.000Z</time>
      </trkpt>
      <trkpt lat="45.78264" lon="1.85583">
        <ele>706.5</ele>
        <time>2026-07-08T09:31:00.000Z</time>
      </trkpt>
      <trkpt lat="45.78267" lon="1.85583">
        <ele>703.6</ele>
        <time>2026-07-08T09:31:01.000Z</time>
      </trkpt>
      <trkpt lat="45.78263" lon="1.85582">
        <ele>703.1</ele>
        <time>2026-07-08T09:31:02.000Z</time>
      </trkpt>
      <trkpt lat="45.78263" lon="1.85582">
        <ele>702.5</ele>
        <time>2026-07-08T09:31:03.000Z</time>
      </trkpt>
      <trkpt lat="45.78265" lon="1.85581">
        <ele>702.2</ele>
        <time>2026-07-08T09:31:04.000Z</time>
      </trkpt>
      <trkpt lat="45.78267" lon="1.8558">
        <ele>701.4</ele>
        <time>2026-07-08T09:31:05.000Z</time>
      </trkpt>
      <trkpt lat="45.78269" lon="1.85578">
        <ele>701.1</ele>
        <time>2026-07-08T09:31:06.000Z</time>
      </trkpt>
      <trkpt lat="45.78272" lon="1.85577">
        <ele>701.5</ele>
        <time>2026-07-08T09:31:07.000Z</time>
      </trkpt>
      <trkpt lat="45.78274" lon="1.85576">
        <ele>701.6</ele>
        <time>2026-07-08T09:31:08.000Z</time>
      </trkpt>
      <trkpt lat="45.78276" lon="1.85576">
        <ele>702</ele>
        <time>2026-07-08T09:31:09.000Z</time>
      </trkpt>
      <trkpt lat="45.78279" lon="1.85577">
        <ele>702.5</ele>
        <time>2026-07-08T09:31:10.000Z</time>
      </trkpt>
      <trkpt lat="45.78281" lon="1.85576">
        <ele>702.2</ele>
        <time>2026-07-08T09:31:11.000Z</time>
      </trkpt>
      <trkpt lat="45.78283" lon="1.85576">
        <ele>702.4</ele>
        <time>2026-07-08T09:31:12.000Z</time>
      </trkpt>
      <trkpt lat="45.78285" lon="1.85575">
        <ele>702.2</ele>
        <time>2026-07-08T09:31:13.000Z</time>
      </trkpt>
      <trkpt lat="45.78287" lon="1.85574">
        <ele>702.8</ele>
        <time>2026-07-08T09:31:14.000Z</time>
      </trkpt>
      <trkpt lat="45.78289" lon="1.85573">
        <ele>702.5</ele>
        <time>2026-07-08T09:31:15.000Z</time>
      </trkpt>
      <trkpt lat="45.7829" lon="1.85572">
        <ele>702.6</ele>
        <time>2026-07-08T09:31:16.000Z</time>
      </trkpt>
      <trkpt lat="45.78292" lon="1.85571">
        <ele>703.3</ele>
        <time>2026-07-08T09:31:17.000Z</time>
      </trkpt>
      <trkpt lat="45.78293" lon="1.85571">
        <ele>703</ele>
        <time>2026-07-08T09:31:18.000Z</time>
      </trkpt>
      <trkpt lat="45.78295" lon="1.8557">
        <ele>702.9</ele>
        <time>2026-07-08T09:31:19.000Z</time>
      </trkpt>
      <trkpt lat="45.78296" lon="1.85569">
        <ele>702.9</ele>
        <time>2026-07-08T09:31:20.000Z</time>
      </trkpt>
      <trkpt lat="45.78298" lon="1.85568">
        <ele>702.7</ele>
        <time>2026-07-08T09:31:21.000Z</time>
      </trkpt>
      <trkpt lat="45.78299" lon="1.85566">
        <ele>702.4</ele>
        <time>2026-07-08T09:31:22.000Z</time>
      </trkpt>
      <trkpt lat="45.78301" lon="1.85565">
        <ele>702.2</ele>
        <time>2026-07-08T09:31:23.000Z</time>
      </trkpt>
      <trkpt lat="45.78302" lon="1.85563">
        <ele>702.2</ele>
        <time>2026-07-08T09:31:24.000Z</time>
      </trkpt>
      <trkpt lat="45.78303" lon="1.85561">
        <ele>702.1</ele>
        <time>2026-07-08T09:31:25.000Z</time>
      </trkpt>
      <trkpt lat="45.78304" lon="1.8556">
        <ele>702.6</ele>
        <time>2026-07-08T09:31:26.000Z</time>
      </trkpt>
      <trkpt lat="45.78306" lon="1.85559">
        <ele>702.7</ele>
        <time>2026-07-08T09:31:27.000Z</time>
      </trkpt>
      <trkpt lat="45.78307" lon="1.85557">
        <ele>702.7</ele>
        <time>2026-07-08T09:31:28.000Z</time>
      </trkpt>
      <trkpt lat="45.78309" lon="1.85556">
        <ele>702.8</ele>
        <time>2026-07-08T09:31:29.000Z</time>
      </trkpt>
      <trkpt lat="45.7831" lon="1.85555">
        <ele>702.2</ele>
        <time>2026-07-08T09:31:30.000Z</time>
      </trkpt>
      <trkpt lat="45.78312" lon="1.85554">
        <ele>702.5</ele>
        <time>2026-07-08T09:31:31.000Z</time>
      </trkpt>
      <trkpt lat="45.78313" lon="1.85552">
        <ele>702.7</ele>
        <time>2026-07-08T09:31:32.000Z</time>
      </trkpt>
      <trkpt lat="45.78315" lon="1.8555">
        <ele>702.9</ele>
        <time>2026-07-08T09:31:33.000Z</time>
      </trkpt>
      <trkpt lat="45.78316" lon="1.85548">
        <ele>703.5</ele>
        <time>2026-07-08T09:31:34.000Z</time>
      </trkpt>
      <trkpt lat="45.78318" lon="1.85546">
        <ele>703.7</ele>
        <time>2026-07-08T09:31:35.000Z</time>
      </trkpt>
      <trkpt lat="45.78319" lon="1.85544">
        <ele>703.8</ele>
        <time>2026-07-08T09:31:36.000Z</time>
      </trkpt>
      <trkpt lat="45.7832" lon="1.85542">
        <ele>703.6</ele>
        <time>2026-07-08T09:31:37.000Z</time>
      </trkpt>
      <trkpt lat="45.7832" lon="1.85539">
        <ele>703.7</ele>
        <time>2026-07-08T09:31:38.000Z</time>
      </trkpt>
      <trkpt lat="45.78321" lon="1.85537">
        <ele>704.2</ele>
        <time>2026-07-08T09:31:39.000Z</time>
      </trkpt>
      <trkpt lat="45.78322" lon="1.85535">
        <ele>703.6</ele>
        <time>2026-07-08T09:31:40.000Z</time>
      </trkpt>
      <trkpt lat="45.78323" lon="1.85533">
        <ele>703.3</ele>
        <time>2026-07-08T09:31:41.000Z</time>
      </trkpt>
      <trkpt lat="45.78323" lon="1.8553">
        <ele>703.4</ele>
        <time>2026-07-08T09:31:42.000Z</time>
      </trkpt>
      <trkpt lat="45.78324" lon="1.85528">
        <ele>702.3</ele>
        <time>2026-07-08T09:31:43.000Z</time>
      </trkpt>
      <trkpt lat="45.78325" lon="1.85526">
        <ele>701.6</ele>
        <time>2026-07-08T09:31:44.000Z</time>
      </trkpt>
      <trkpt lat="45.78326" lon="1.85524">
        <ele>701.8</ele>
        <time>2026-07-08T09:31:45.000Z</time>
      </trkpt>
      <trkpt lat="45.78326" lon="1.85522">
        <ele>701.6</ele>
        <time>2026-07-08T09:31:46.000Z</time>
      </trkpt>
      <trkpt lat="45.78327" lon="1.8552">
        <ele>701.6</ele>
        <time>2026-07-08T09:31:47.000Z</time>
      </trkpt>
      <trkpt lat="45.78328" lon="1.85518">
        <ele>701.2</ele>
        <time>2026-07-08T09:31:48.000Z</time>
      </trkpt>
      <trkpt lat="45.78328" lon="1.85516">
        <ele>701.8</ele>
        <time>2026-07-08T09:31:49.000Z</time>
      </trkpt>
      <trkpt lat="45.78329" lon="1.85514">
        <ele>702.8</ele>
        <time>2026-07-08T09:31:50.000Z</time>
      </trkpt>
      <trkpt lat="45.78328" lon="1.85511">
        <ele>702.8</ele>
        <time>2026-07-08T09:31:51.000Z</time>
      </trkpt>
      <trkpt lat="45.78329" lon="1.8551">
        <ele>703.3</ele>
        <time>2026-07-08T09:31:52.000Z</time>
      </trkpt>
      <trkpt lat="45.7833" lon="1.85508">
        <ele>702.8</ele>
        <time>2026-07-08T09:31:53.000Z</time>
      </trkpt>
      <trkpt lat="45.78331" lon="1.85507">
        <ele>702.6</ele>
        <time>2026-07-08T09:31:54.000Z</time>
      </trkpt>
      <trkpt lat="45.78332" lon="1.85505">
        <ele>702.4</ele>
        <time>2026-07-08T09:31:55.000Z</time>
      </trkpt>
      <trkpt lat="45.78333" lon="1.85503">
        <ele>702.7</ele>
        <time>2026-07-08T09:31:56.000Z</time>
      </trkpt>
      <trkpt lat="45.78333" lon="1.85502">
        <ele>703</ele>
        <time>2026-07-08T09:31:57.000Z</time>
      </trkpt>
      <trkpt lat="45.78334" lon="1.855">
        <ele>702.8</ele>
        <time>2026-07-08T09:31:58.000Z</time>
      </trkpt>
      <trkpt lat="45.78335" lon="1.85498">
        <ele>703.2</ele>
        <time>2026-07-08T09:31:59.000Z</time>
      </trkpt>
      <trkpt lat="45.78336" lon="1.85496">
        <ele>703.4</ele>
        <time>2026-07-08T09:32:00.000Z</time>
      </trkpt>
      <trkpt lat="45.78337" lon="1.85493">
        <ele>703.3</ele>
        <time>2026-07-08T09:32:01.000Z</time>
      </trkpt>
      <trkpt lat="45.78337" lon="1.8549">
        <ele>703.4</ele>
        <time>2026-07-08T09:32:02.000Z</time>
      </trkpt>
      <trkpt lat="45.78338" lon="1.85488">
        <ele>703.7</ele>
        <time>2026-07-08T09:32:03.000Z</time>
      </trkpt>
      <trkpt lat="45.78337" lon="1.85486">
        <ele>702.5</ele>
        <time>2026-07-08T09:32:04.000Z</time>
      </trkpt>
      <trkpt lat="45.78337" lon="1.85484">
        <ele>701.8</ele>
        <time>2026-07-08T09:32:05.000Z</time>
      </trkpt>
      <trkpt lat="45.78337" lon="1.85482">
        <ele>702.3</ele>
        <time>2026-07-08T09:32:06.000Z</time>
      </trkpt>
      <trkpt lat="45.78338" lon="1.8548">
        <ele>701.8</ele>
        <time>2026-07-08T09:32:07.000Z</time>
      </trkpt>
      <trkpt lat="45.78339" lon="1.85477">
        <ele>702.6</ele>
        <time>2026-07-08T09:32:08.000Z</time>
      </trkpt>
      <trkpt lat="45.7834" lon="1.85474">
        <ele>703.5</ele>
        <time>2026-07-08T09:32:09.000Z</time>
      </trkpt>
      <trkpt lat="45.7834" lon="1.85471">
        <ele>703.3</ele>
        <time>2026-07-08T09:32:10.000Z</time>
      </trkpt>
      <trkpt lat="45.78341" lon="1.85468">
        <ele>703.1</ele>
        <time>2026-07-08T09:32:11.000Z</time>
      </trkpt>
      <trkpt lat="45.78341" lon="1.85465">
        <ele>703.6</ele>
        <time>2026-07-08T09:32:12.000Z</time>
      </trkpt>
      <trkpt lat="45.78342" lon="1.85462">
        <ele>703.6</ele>
        <time>2026-07-08T09:32:13.000Z</time>
      </trkpt>
      <trkpt lat="45.78343" lon="1.8546">
        <ele>704.3</ele>
        <time>2026-07-08T09:32:14.000Z</time>
      </trkpt>
      <trkpt lat="45.78344" lon="1.85458">
        <ele>704.9</ele>
        <time>2026-07-08T09:32:15.000Z</time>
      </trkpt>
      <trkpt lat="45.78344" lon="1.85456">
        <ele>703.5</ele>
        <time>2026-07-08T09:32:16.000Z</time>
      </trkpt>
      <trkpt lat="45.78344" lon="1.85454">
        <ele>702.7</ele>
        <time>2026-07-08T09:32:17.000Z</time>
      </trkpt>
      <trkpt lat="45.78345" lon="1.85451">
        <ele>702.6</ele>
        <time>2026-07-08T09:32:18.000Z</time>
      </trkpt>
      <trkpt lat="45.78346" lon="1.8545">
        <ele>701.7</ele>
        <time>2026-07-08T09:32:19.000Z</time>
      </trkpt>
      <trkpt lat="45.78347" lon="1.85448">
        <ele>702.5</ele>
        <time>2026-07-08T09:32:20.000Z</time>
      </trkpt>
      <trkpt lat="45.78348" lon="1.85446">
        <ele>703.4</ele>
        <time>2026-07-08T09:32:21.000Z</time>
      </trkpt>
      <trkpt lat="45.78349" lon="1.85444">
        <ele>704</ele>
        <time>2026-07-08T09:32:22.000Z</time>
      </trkpt>
      <trkpt lat="45.78349" lon="1.85442">
        <ele>704.8</ele>
        <time>2026-07-08T09:32:23.000Z</time>
      </trkpt>
      <trkpt lat="45.78349" lon="1.8544">
        <ele>705.9</ele>
        <time>2026-07-08T09:32:24.000Z</time>
      </trkpt>
      <trkpt lat="45.7835" lon="1.85438">
        <ele>705.9</ele>
        <time>2026-07-08T09:32:25.000Z</time>
      </trkpt>
      <trkpt lat="45.78351" lon="1.85436">
        <ele>705.9</ele>
        <time>2026-07-08T09:32:26.000Z</time>
      </trkpt>
      <trkpt lat="45.78351" lon="1.85434">
        <ele>705.3</ele>
        <time>2026-07-08T09:32:27.000Z</time>
      </trkpt>
      <trkpt lat="45.78353" lon="1.85433">
        <ele>704.8</ele>
        <time>2026-07-08T09:32:28.000Z</time>
      </trkpt>
      <trkpt lat="45.78354" lon="1.85431">
        <ele>705.1</ele>
        <time>2026-07-08T09:32:29.000Z</time>
      </trkpt>
      <trkpt lat="45.78356" lon="1.85431">
        <ele>705.1</ele>
        <time>2026-07-08T09:32:30.000Z</time>
      </trkpt>
      <trkpt lat="45.78357" lon="1.8543">
        <ele>705.6</ele>
        <time>2026-07-08T09:32:31.000Z</time>
      </trkpt>
      <trkpt lat="45.78357" lon="1.85428">
        <ele>704.5</ele>
        <time>2026-07-08T09:32:32.000Z</time>
      </trkpt>
      <trkpt lat="45.78358" lon="1.85426">
        <ele>703.9</ele>
        <time>2026-07-08T09:32:33.000Z</time>
      </trkpt>
      <trkpt lat="45.78359" lon="1.85423">
        <ele>703.3</ele>
        <time>2026-07-08T09:32:34.000Z</time>
      </trkpt>
      <trkpt lat="45.7836" lon="1.85421">
        <ele>703.6</ele>
        <time>2026-07-08T09:32:35.000Z</time>
      </trkpt>
      <trkpt lat="45.78361" lon="1.85419">
        <ele>704.5</ele>
        <time>2026-07-08T09:32:36.000Z</time>
      </trkpt>
      <trkpt lat="45.78363" lon="1.85417">
        <ele>703.6</ele>
        <time>2026-07-08T09:32:37.000Z</time>
      </trkpt>
      <trkpt lat="45.78364" lon="1.85416">
        <ele>702.2</ele>
        <time>2026-07-08T09:32:38.000Z</time>
      </trkpt>
      <trkpt lat="45.78366" lon="1.85415">
        <ele>702.1</ele>
        <time>2026-07-08T09:32:39.000Z</time>
      </trkpt>
      <trkpt lat="45.78368" lon="1.85414">
        <ele>703.2</ele>
        <time>2026-07-08T09:32:40.000Z</time>
      </trkpt>
      <trkpt lat="45.7837" lon="1.85413">
        <ele>704</ele>
        <time>2026-07-08T09:32:41.000Z</time>
      </trkpt>
      <trkpt lat="45.78371" lon="1.8541">
        <ele>705.8</ele>
        <time>2026-07-08T09:32:42.000Z</time>
      </trkpt>
      <trkpt lat="45.78371" lon="1.85407">
        <ele>705.4</ele>
        <time>2026-07-08T09:32:43.000Z</time>
      </trkpt>
      <trkpt lat="45.78372" lon="1.85405">
        <ele>705</ele>
        <time>2026-07-08T09:32:44.000Z</time>
      </trkpt>
      <trkpt lat="45.78372" lon="1.85403">
        <ele>705.5</ele>
        <time>2026-07-08T09:32:45.000Z</time>
      </trkpt>
      <trkpt lat="45.78373" lon="1.85401">
        <ele>705.9</ele>
        <time>2026-07-08T09:32:46.000Z</time>
      </trkpt>
      <trkpt lat="45.78374" lon="1.854">
        <ele>706.1</ele>
        <time>2026-07-08T09:32:47.000Z</time>
      </trkpt>
      <trkpt lat="45.78375" lon="1.85399">
        <ele>706.6</ele>
        <time>2026-07-08T09:32:48.000Z</time>
      </trkpt>
      <trkpt lat="45.78377" lon="1.85398">
        <ele>706.7</ele>
        <time>2026-07-08T09:32:49.000Z</time>
      </trkpt>
      <trkpt lat="45.78378" lon="1.85396">
        <ele>707</ele>
        <time>2026-07-08T09:32:50.000Z</time>
      </trkpt>
      <trkpt lat="45.78379" lon="1.85395">
        <ele>707.5</ele>
        <time>2026-07-08T09:32:51.000Z</time>
      </trkpt>
      <trkpt lat="45.7838" lon="1.85394">
        <ele>706.8</ele>
        <time>2026-07-08T09:32:52.000Z</time>
      </trkpt>
      <trkpt lat="45.78381" lon="1.85393">
        <ele>706.4</ele>
        <time>2026-07-08T09:32:53.000Z</time>
      </trkpt>
      <trkpt lat="45.78382" lon="1.85392">
        <ele>706.8</ele>
        <time>2026-07-08T09:32:54.000Z</time>
      </trkpt>
      <trkpt lat="45.78383" lon="1.85391">
        <ele>706.2</ele>
        <time>2026-07-08T09:32:55.000Z</time>
      </trkpt>
      <trkpt lat="45.78384" lon="1.85391">
        <ele>705.9</ele>
        <time>2026-07-08T09:32:56.000Z</time>
      </trkpt>
      <trkpt lat="45.78386" lon="1.85391">
        <ele>706.1</ele>
        <time>2026-07-08T09:32:57.000Z</time>
      </trkpt>
      <trkpt lat="45.78387" lon="1.85391">
        <ele>706.3</ele>
        <time>2026-07-08T09:32:58.000Z</time>
      </trkpt>
      <trkpt lat="45.78388" lon="1.85391">
        <ele>705.7</ele>
        <time>2026-07-08T09:32:59.000Z</time>
      </trkpt>
      <trkpt lat="45.7839" lon="1.85391">
        <ele>705.2</ele>
        <time>2026-07-08T09:33:00.000Z</time>
      </trkpt>
      <trkpt lat="45.78391" lon="1.8539">
        <ele>706.3</ele>
        <time>2026-07-08T09:33:01.000Z</time>
      </trkpt>
      <trkpt lat="45.78393" lon="1.85391">
        <ele>708</ele>
        <time>2026-07-08T09:33:02.000Z</time>
      </trkpt>
      <trkpt lat="45.78395" lon="1.85391">
        <ele>708</ele>
        <time>2026-07-08T09:33:03.000Z</time>
      </trkpt>
      <trkpt lat="45.78396" lon="1.85392">
        <ele>707.8</ele>
        <time>2026-07-08T09:33:04.000Z</time>
      </trkpt>
      <trkpt lat="45.78397" lon="1.85392">
        <ele>707.4</ele>
        <time>2026-07-08T09:33:05.000Z</time>
      </trkpt>
      <trkpt lat="45.78399" lon="1.85393">
        <ele>707.1</ele>
        <time>2026-07-08T09:33:06.000Z</time>
      </trkpt>
      <trkpt lat="45.784" lon="1.85393">
        <ele>705.6</ele>
        <time>2026-07-08T09:33:07.000Z</time>
      </trkpt>
      <trkpt lat="45.78402" lon="1.85393">
        <ele>704.4</ele>
        <time>2026-07-08T09:33:08.000Z</time>
      </trkpt>
      <trkpt lat="45.78403" lon="1.85394">
        <ele>703.8</ele>
        <time>2026-07-08T09:33:09.000Z</time>
      </trkpt>
      <trkpt lat="45.78404" lon="1.85394">
        <ele>704.3</ele>
        <time>2026-07-08T09:33:10.000Z</time>
      </trkpt>
      <trkpt lat="45.78405" lon="1.85395">
        <ele>704.8</ele>
        <time>2026-07-08T09:33:11.000Z</time>
      </trkpt>
      <trkpt lat="45.78407" lon="1.85396">
        <ele>704.6</ele>
        <time>2026-07-08T09:33:12.000Z</time>
      </trkpt>
      <trkpt lat="45.78409" lon="1.85396">
        <ele>703</ele>
        <time>2026-07-08T09:33:13.000Z</time>
      </trkpt>
      <trkpt lat="45.7841" lon="1.85396">
        <ele>703.8</ele>
        <time>2026-07-08T09:33:14.000Z</time>
      </trkpt>
      <trkpt lat="45.78412" lon="1.85396">
        <ele>703.9</ele>
        <time>2026-07-08T09:33:15.000Z</time>
      </trkpt>
      <trkpt lat="45.78413" lon="1.85395">
        <ele>703.1</ele>
        <time>2026-07-08T09:33:16.000Z</time>
      </trkpt>
      <trkpt lat="45.78415" lon="1.85395">
        <ele>703.6</ele>
        <time>2026-07-08T09:33:17.000Z</time>
      </trkpt>
      <trkpt lat="45.78417" lon="1.85395">
        <ele>703.8</ele>
        <time>2026-07-08T09:33:18.000Z</time>
      </trkpt>
      <trkpt lat="45.78418" lon="1.85394">
        <ele>704.8</ele>
        <time>2026-07-08T09:33:19.000Z</time>
      </trkpt>
      <trkpt lat="45.7842" lon="1.85394">
        <ele>706.3</ele>
        <time>2026-07-08T09:33:20.000Z</time>
      </trkpt>
      <trkpt lat="45.78421" lon="1.85393">
        <ele>705.9</ele>
        <time>2026-07-08T09:33:21.000Z</time>
      </trkpt>
      <trkpt lat="45.78423" lon="1.85392">
        <ele>707</ele>
        <time>2026-07-08T09:33:22.000Z</time>
      </trkpt>
      <trkpt lat="45.78424" lon="1.85393">
        <ele>707.8</ele>
        <time>2026-07-08T09:33:23.000Z</time>
      </trkpt>
      <trkpt lat="45.78426" lon="1.85393">
        <ele>709.5</ele>
        <time>2026-07-08T09:33:24.000Z</time>
      </trkpt>
      <trkpt lat="45.78428" lon="1.85393">
        <ele>709.6</ele>
        <time>2026-07-08T09:33:25.000Z</time>
      </trkpt>
      <trkpt lat="45.78429" lon="1.85393">
        <ele>710</ele>
        <time>2026-07-08T09:33:26.000Z</time>
      </trkpt>
      <trkpt lat="45.78431" lon="1.85393">
        <ele>709.7</ele>
        <time>2026-07-08T09:33:27.000Z</time>
      </trkpt>
      <trkpt lat="45.78432" lon="1.85393">
        <ele>708.7</ele>
        <time>2026-07-08T09:33:28.000Z</time>
      </trkpt>
      <trkpt lat="45.78434" lon="1.85394">
        <ele>706.9</ele>
        <time>2026-07-08T09:33:29.000Z</time>
      </trkpt>
      <trkpt lat="45.78436" lon="1.85394">
        <ele>706.7</ele>
        <time>2026-07-08T09:33:30.000Z</time>
      </trkpt>
      <trkpt lat="45.78438" lon="1.85393">
        <ele>707.2</ele>
        <time>2026-07-08T09:33:31.000Z</time>
      </trkpt>
      <trkpt lat="45.78439" lon="1.85393">
        <ele>708</ele>
        <time>2026-07-08T09:33:32.000Z</time>
      </trkpt>
      <trkpt lat="45.7844" lon="1.85392">
        <ele>708</ele>
        <time>2026-07-08T09:33:33.000Z</time>
      </trkpt>
      <trkpt lat="45.78441" lon="1.85391">
        <ele>706.9</ele>
        <time>2026-07-08T09:33:34.000Z</time>
      </trkpt>
      <trkpt lat="45.78442" lon="1.85389">
        <ele>706.4</ele>
        <time>2026-07-08T09:33:35.000Z</time>
      </trkpt>
      <trkpt lat="45.78443" lon="1.85388">
        <ele>705.9</ele>
        <time>2026-07-08T09:33:36.000Z</time>
      </trkpt>
      <trkpt lat="45.78444" lon="1.85386">
        <ele>705.7</ele>
        <time>2026-07-08T09:33:37.000Z</time>
      </trkpt>
      <trkpt lat="45.78445" lon="1.85385">
        <ele>705.3</ele>
        <time>2026-07-08T09:33:38.000Z</time>
      </trkpt>
      <trkpt lat="45.78446" lon="1.85383">
        <ele>704.2</ele>
        <time>2026-07-08T09:33:39.000Z</time>
      </trkpt>
      <trkpt lat="45.78448" lon="1.85382">
        <ele>705.1</ele>
        <time>2026-07-08T09:33:40.000Z</time>
      </trkpt>
      <trkpt lat="45.78449" lon="1.8538">
        <ele>705.4</ele>
        <time>2026-07-08T09:33:41.000Z</time>
      </trkpt>
      <trkpt lat="45.7845" lon="1.8538">
        <ele>705.4</ele>
        <time>2026-07-08T09:33:42.000Z</time>
      </trkpt>
      <trkpt lat="45.78452" lon="1.85379">
        <ele>705.4</ele>
        <time>2026-07-08T09:33:43.000Z</time>
      </trkpt>
      <trkpt lat="45.78454" lon="1.85379">
        <ele>705.6</ele>
        <time>2026-07-08T09:33:44.000Z</time>
      </trkpt>
      <trkpt lat="45.78456" lon="1.8538">
        <ele>705</ele>
        <time>2026-07-08T09:33:45.000Z</time>
      </trkpt>
      <trkpt lat="45.78458" lon="1.85381">
        <ele>705.1</ele>
        <time>2026-07-08T09:33:46.000Z</time>
      </trkpt>
      <trkpt lat="45.7846" lon="1.85382">
        <ele>704.6</ele>
        <time>2026-07-08T09:33:47.000Z</time>
      </trkpt>
      <trkpt lat="45.78462" lon="1.85382">
        <ele>704.2</ele>
        <time>2026-07-08T09:33:48.000Z</time>
      </trkpt>
      <trkpt lat="45.78464" lon="1.85381">
        <ele>704.2</ele>
        <time>2026-07-08T09:33:49.000Z</time>
      </trkpt>
      <trkpt lat="45.78465" lon="1.8538">
        <ele>704.3</ele>
        <time>2026-07-08T09:33:50.000Z</time>
      </trkpt>
      <trkpt lat="45.78467" lon="1.85379">
        <ele>704.6</ele>
        <time>2026-07-08T09:33:51.000Z</time>
      </trkpt>
      <trkpt lat="45.78469" lon="1.85377">
        <ele>706.2</ele>
        <time>2026-07-08T09:33:52.000Z</time>
      </trkpt>
      <trkpt lat="45.78471" lon="1.85376">
        <ele>706.4</ele>
        <time>2026-07-08T09:33:53.000Z</time>
      </trkpt>
      <trkpt lat="45.78473" lon="1.85376">
        <ele>706.3</ele>
        <time>2026-07-08T09:33:54.000Z</time>
      </trkpt>
      <trkpt lat="45.78475" lon="1.85375">
        <ele>705.9</ele>
        <time>2026-07-08T09:33:55.000Z</time>
      </trkpt>
      <trkpt lat="45.78476" lon="1.85375">
        <ele>706.6</ele>
        <time>2026-07-08T09:33:56.000Z</time>
      </trkpt>
      <trkpt lat="45.78478" lon="1.85374">
        <ele>707.6</ele>
        <time>2026-07-08T09:33:57.000Z</time>
      </trkpt>
      <trkpt lat="45.7848" lon="1.85374">
        <ele>706.7</ele>
        <time>2026-07-08T09:33:58.000Z</time>
      </trkpt>
      <trkpt lat="45.78482" lon="1.85374">
        <ele>706.4</ele>
        <time>2026-07-08T09:33:59.000Z</time>
      </trkpt>
      <trkpt lat="45.78484" lon="1.85373">
        <ele>707.1</ele>
        <time>2026-07-08T09:34:00.000Z</time>
      </trkpt>
      <trkpt lat="45.78485" lon="1.85373">
        <ele>706.5</ele>
        <time>2026-07-08T09:34:01.000Z</time>
      </trkpt>
      <trkpt lat="45.78486" lon="1.85374">
        <ele>707.2</ele>
        <time>2026-07-08T09:34:02.000Z</time>
      </trkpt>
      <trkpt lat="45.78487" lon="1.85375">
        <ele>705.2</ele>
        <time>2026-07-08T09:34:03.000Z</time>
      </trkpt>
      <trkpt lat="45.78489" lon="1.85375">
        <ele>704.6</ele>
        <time>2026-07-08T09:34:04.000Z</time>
      </trkpt>
      <trkpt lat="45.7849" lon="1.85376">
        <ele>703.4</ele>
        <time>2026-07-08T09:34:05.000Z</time>
      </trkpt>
      <trkpt lat="45.78492" lon="1.85377">
        <ele>703.2</ele>
        <time>2026-07-08T09:34:06.000Z</time>
      </trkpt>
      <trkpt lat="45.78494" lon="1.85378">
        <ele>703.8</ele>
        <time>2026-07-08T09:34:07.000Z</time>
      </trkpt>
      <trkpt lat="45.78495" lon="1.85378">
        <ele>703.6</ele>
        <time>2026-07-08T09:34:08.000Z</time>
      </trkpt>
      <trkpt lat="45.78497" lon="1.85379">
        <ele>702.9</ele>
        <time>2026-07-08T09:34:09.000Z</time>
      </trkpt>
      <trkpt lat="45.78498" lon="1.8538">
        <ele>702.6</ele>
        <time>2026-07-08T09:34:10.000Z</time>
      </trkpt>
      <trkpt lat="45.78499" lon="1.85381">
        <ele>702.1</ele>
        <time>2026-07-08T09:34:11.000Z</time>
      </trkpt>
      <trkpt lat="45.785" lon="1.85383">
        <ele>701.6</ele>
        <time>2026-07-08T09:34:12.000Z</time>
      </trkpt>
      <trkpt lat="45.78502" lon="1.85384">
        <ele>701.7</ele>
        <time>2026-07-08T09:34:13.000Z</time>
      </trkpt>
      <trkpt lat="45.78503" lon="1.85384">
        <ele>702.2</ele>
        <time>2026-07-08T09:34:14.000Z</time>
      </trkpt>
      <trkpt lat="45.78505" lon="1.85384">
        <ele>701.5</ele>
        <time>2026-07-08T09:34:15.000Z</time>
      </trkpt>
      <trkpt lat="45.78506" lon="1.85384">
        <ele>702.7</ele>
        <time>2026-07-08T09:34:16.000Z</time>
      </trkpt>
      <trkpt lat="45.78508" lon="1.85384">
        <ele>703.3</ele>
        <time>2026-07-08T09:34:17.000Z</time>
      </trkpt>
      <trkpt lat="45.78509" lon="1.85385">
        <ele>703.9</ele>
        <time>2026-07-08T09:34:18.000Z</time>
      </trkpt>
      <trkpt lat="45.78511" lon="1.85385">
        <ele>703.1</ele>
        <time>2026-07-08T09:34:19.000Z</time>
      </trkpt>
      <trkpt lat="45.78513" lon="1.85386">
        <ele>703.5</ele>
        <time>2026-07-08T09:34:20.000Z</time>
      </trkpt>
      <trkpt lat="45.78515" lon="1.85386">
        <ele>704.2</ele>
        <time>2026-07-08T09:34:21.000Z</time>
      </trkpt>
      <trkpt lat="45.78517" lon="1.85387">
        <ele>705.4</ele>
        <time>2026-07-08T09:34:22.000Z</time>
      </trkpt>
      <trkpt lat="45.78519" lon="1.85388">
        <ele>705.3</ele>
        <time>2026-07-08T09:34:23.000Z</time>
      </trkpt>
      <trkpt lat="45.7852" lon="1.85389">
        <ele>705.7</ele>
        <time>2026-07-08T09:34:24.000Z</time>
      </trkpt>
      <trkpt lat="45.78522" lon="1.8539">
        <ele>705.9</ele>
        <time>2026-07-08T09:34:25.000Z</time>
      </trkpt>
      <trkpt lat="45.78523" lon="1.85392">
        <ele>705.9</ele>
        <time>2026-07-08T09:34:26.000Z</time>
      </trkpt>
      <trkpt lat="45.78524" lon="1.85393">
        <ele>706.2</ele>
        <time>2026-07-08T09:34:27.000Z</time>
      </trkpt>
      <trkpt lat="45.78526" lon="1.85393">
        <ele>705.4</ele>
        <time>2026-07-08T09:34:28.000Z</time>
      </trkpt>
      <trkpt lat="45.78527" lon="1.85394">
        <ele>705.4</ele>
        <time>2026-07-08T09:34:29.000Z</time>
      </trkpt>
      <trkpt lat="45.78529" lon="1.85395">
        <ele>705.6</ele>
        <time>2026-07-08T09:34:30.000Z</time>
      </trkpt>
      <trkpt lat="45.7853" lon="1.85396">
        <ele>705.6</ele>
        <time>2026-07-08T09:34:31.000Z</time>
      </trkpt>
      <trkpt lat="45.78531" lon="1.85397">
        <ele>704.3</ele>
        <time>2026-07-08T09:34:32.000Z</time>
      </trkpt>
      <trkpt lat="45.78533" lon="1.85398">
        <ele>703.6</ele>
        <time>2026-07-08T09:34:33.000Z</time>
      </trkpt>
      <trkpt lat="45.78534" lon="1.854">
        <ele>703</ele>
        <time>2026-07-08T09:34:34.000Z</time>
      </trkpt>
      <trkpt lat="45.78535" lon="1.85401">
        <ele>703.3</ele>
        <time>2026-07-08T09:34:35.000Z</time>
      </trkpt>
      <trkpt lat="45.78536" lon="1.85402">
        <ele>702.7</ele>
        <time>2026-07-08T09:34:36.000Z</time>
      </trkpt>
      <trkpt lat="45.78538" lon="1.85404">
        <ele>703.4</ele>
        <time>2026-07-08T09:34:37.000Z</time>
      </trkpt>
      <trkpt lat="45.78539" lon="1.85405">
        <ele>703.5</ele>
        <time>2026-07-08T09:34:38.000Z</time>
      </trkpt>
      <trkpt lat="45.7854" lon="1.85406">
        <ele>703.8</ele>
        <time>2026-07-08T09:34:39.000Z</time>
      </trkpt>
      <trkpt lat="45.78542" lon="1.85407">
        <ele>703.3</ele>
        <time>2026-07-08T09:34:40.000Z</time>
      </trkpt>
      <trkpt lat="45.78544" lon="1.85407">
        <ele>703</ele>
        <time>2026-07-08T09:34:41.000Z</time>
      </trkpt>
      <trkpt lat="45.78546" lon="1.85408">
        <ele>702.7</ele>
        <time>2026-07-08T09:34:42.000Z</time>
      </trkpt>
      <trkpt lat="45.78548" lon="1.85407">
        <ele>703.6</ele>
        <time>2026-07-08T09:34:43.000Z</time>
      </trkpt>
      <trkpt lat="45.78549" lon="1.85406">
        <ele>704</ele>
        <time>2026-07-08T09:34:44.000Z</time>
      </trkpt>
      <trkpt lat="45.78551" lon="1.85407">
        <ele>704.2</ele>
        <time>2026-07-08T09:34:45.000Z</time>
      </trkpt>
      <trkpt lat="45.78553" lon="1.85408">
        <ele>703.5</ele>
        <time>2026-07-08T09:34:46.000Z</time>
      </trkpt>
      <trkpt lat="45.78555" lon="1.85409">
        <ele>704.3</ele>
        <time>2026-07-08T09:34:47.000Z</time>
      </trkpt>
      <trkpt lat="45.78556" lon="1.85411">
        <ele>704.3</ele>
        <time>2026-07-08T09:34:48.000Z</time>
      </trkpt>
      <trkpt lat="45.78558" lon="1.85413">
        <ele>704.4</ele>
        <time>2026-07-08T09:34:49.000Z</time>
      </trkpt>
      <trkpt lat="45.78559" lon="1.85414">
        <ele>704</ele>
        <time>2026-07-08T09:34:50.000Z</time>
      </trkpt>
      <trkpt lat="45.7856" lon="1.85415">
        <ele>703.4</ele>
        <time>2026-07-08T09:34:51.000Z</time>
      </trkpt>
      <trkpt lat="45.78562" lon="1.85416">
        <ele>704.1</ele>
        <time>2026-07-08T09:34:52.000Z</time>
      </trkpt>
      <trkpt lat="45.78563" lon="1.85416">
        <ele>704.5</ele>
        <time>2026-07-08T09:34:53.000Z</time>
      </trkpt>
      <trkpt lat="45.78565" lon="1.85417">
        <ele>704.1</ele>
        <time>2026-07-08T09:34:54.000Z</time>
      </trkpt>
      <trkpt lat="45.78566" lon="1.85417">
        <ele>704</ele>
        <time>2026-07-08T09:34:55.000Z</time>
      </trkpt>
      <trkpt lat="45.78568" lon="1.85417">
        <ele>703.4</ele>
        <time>2026-07-08T09:34:56.000Z</time>
      </trkpt>
      <trkpt lat="45.78569" lon="1.85418">
        <ele>703.2</ele>
        <time>2026-07-08T09:34:57.000Z</time>
      </trkpt>
      <trkpt lat="45.78571" lon="1.85417">
        <ele>704.6</ele>
        <time>2026-07-08T09:34:58.000Z</time>
      </trkpt>
      <trkpt lat="45.78573" lon="1.85417">
        <ele>705.3</ele>
        <time>2026-07-08T09:34:59.000Z</time>
      </trkpt>
      <trkpt lat="45.78575" lon="1.85418">
        <ele>704.9</ele>
        <time>2026-07-08T09:35:00.000Z</time>
      </trkpt>
      <trkpt lat="45.78577" lon="1.85418">
        <ele>705.1</ele>
        <time>2026-07-08T09:35:01.000Z</time>
      </trkpt>
      <trkpt lat="45.78578" lon="1.85419">
        <ele>704.8</ele>
        <time>2026-07-08T09:35:02.000Z</time>
      </trkpt>
      <trkpt lat="45.7858" lon="1.85419">
        <ele>704.1</ele>
        <time>2026-07-08T09:35:03.000Z</time>
      </trkpt>
      <trkpt lat="45.78581" lon="1.85419">
        <ele>704.6</ele>
        <time>2026-07-08T09:35:04.000Z</time>
      </trkpt>
      <trkpt lat="45.78583" lon="1.85419">
        <ele>704.7</ele>
        <time>2026-07-08T09:35:05.000Z</time>
      </trkpt>
      <trkpt lat="45.78584" lon="1.8542">
        <ele>704.9</ele>
        <time>2026-07-08T09:35:06.000Z</time>
      </trkpt>
      <trkpt lat="45.78585" lon="1.8542">
        <ele>705.2</ele>
        <time>2026-07-08T09:35:07.000Z</time>
      </trkpt>
      <trkpt lat="45.78587" lon="1.85421">
        <ele>705.7</ele>
        <time>2026-07-08T09:35:08.000Z</time>
      </trkpt>
      <trkpt lat="45.78588" lon="1.85421">
        <ele>705.9</ele>
        <time>2026-07-08T09:35:09.000Z</time>
      </trkpt>
      <trkpt lat="45.7859" lon="1.85422">
        <ele>705.8</ele>
        <time>2026-07-08T09:35:10.000Z</time>
      </trkpt>
      <trkpt lat="45.78591" lon="1.85422">
        <ele>705.5</ele>
        <time>2026-07-08T09:35:11.000Z</time>
      </trkpt>
      <trkpt lat="45.78593" lon="1.85423">
        <ele>705.3</ele>
        <time>2026-07-08T09:35:12.000Z</time>
      </trkpt>
      <trkpt lat="45.78595" lon="1.85424">
        <ele>705</ele>
        <time>2026-07-08T09:35:13.000Z</time>
      </trkpt>
      <trkpt lat="45.78596" lon="1.85425">
        <ele>704</ele>
        <time>2026-07-08T09:35:14.000Z</time>
      </trkpt>
      <trkpt lat="45.78598" lon="1.85426">
        <ele>702.7</ele>
        <time>2026-07-08T09:35:15.000Z</time>
      </trkpt>
      <trkpt lat="45.78599" lon="1.85426">
        <ele>703.4</ele>
        <time>2026-07-08T09:35:16.000Z</time>
      </trkpt>
      <trkpt lat="45.78601" lon="1.85426">
        <ele>703.5</ele>
        <time>2026-07-08T09:35:17.000Z</time>
      </trkpt>
      <trkpt lat="45.78602" lon="1.85427">
        <ele>703.9</ele>
        <time>2026-07-08T09:35:18.000Z</time>
      </trkpt>
      <trkpt lat="45.78604" lon="1.85428">
        <ele>705.3</ele>
        <time>2026-07-08T09:35:19.000Z</time>
      </trkpt>
      <trkpt lat="45.78605" lon="1.85429">
        <ele>706</ele>
        <time>2026-07-08T09:35:20.000Z</time>
      </trkpt>
      <trkpt lat="45.78606" lon="1.8543">
        <ele>706.1</ele>
        <time>2026-07-08T09:35:21.000Z</time>
      </trkpt>
      <trkpt lat="45.78608" lon="1.85432">
        <ele>706.6</ele>
        <time>2026-07-08T09:35:22.000Z</time>
      </trkpt>
      <trkpt lat="45.78609" lon="1.85434">
        <ele>706.3</ele>
        <time>2026-07-08T09:35:23.000Z</time>
      </trkpt>
      <trkpt lat="45.7861" lon="1.85436">
        <ele>704.5</ele>
        <time>2026-07-08T09:35:24.000Z</time>
      </trkpt>
      <trkpt lat="45.78611" lon="1.85438">
        <ele>705.1</ele>
        <time>2026-07-08T09:35:25.000Z</time>
      </trkpt>
      <trkpt lat="45.78612" lon="1.85439">
        <ele>705.1</ele>
        <time>2026-07-08T09:35:26.000Z</time>
      </trkpt>
      <trkpt lat="45.78614" lon="1.8544">
        <ele>705.1</ele>
        <time>2026-07-08T09:35:27.000Z</time>
      </trkpt>
      <trkpt lat="45.78615" lon="1.85442">
        <ele>705.6</ele>
        <time>2026-07-08T09:35:28.000Z</time>
      </trkpt>
      <trkpt lat="45.78616" lon="1.85444">
        <ele>705.8</ele>
        <time>2026-07-08T09:35:29.000Z</time>
      </trkpt>
      <trkpt lat="45.78617" lon="1.85445">
        <ele>706.4</ele>
        <time>2026-07-08T09:35:30.000Z</time>
      </trkpt>
      <trkpt lat="45.78619" lon="1.85445">
        <ele>706.3</ele>
        <time>2026-07-08T09:35:31.000Z</time>
      </trkpt>
      <trkpt lat="45.78621" lon="1.85447">
        <ele>706.1</ele>
        <time>2026-07-08T09:35:32.000Z</time>
      </trkpt>
      <trkpt lat="45.78622" lon="1.85448">
        <ele>706</ele>
        <time>2026-07-08T09:35:33.000Z</time>
      </trkpt>
      <trkpt lat="45.78623" lon="1.85449">
        <ele>705.5</ele>
        <time>2026-07-08T09:35:34.000Z</time>
      </trkpt>
      <trkpt lat="45.78625" lon="1.8545">
        <ele>705.6</ele>
        <time>2026-07-08T09:35:35.000Z</time>
      </trkpt>
      <trkpt lat="45.78626" lon="1.85451">
        <ele>705.3</ele>
        <time>2026-07-08T09:35:36.000Z</time>
      </trkpt>
      <trkpt lat="45.78628" lon="1.85452">
        <ele>704.7</ele>
        <time>2026-07-08T09:35:37.000Z</time>
      </trkpt>
      <trkpt lat="45.78629" lon="1.85453">
        <ele>704.9</ele>
        <time>2026-07-08T09:35:38.000Z</time>
      </trkpt>
      <trkpt lat="45.78631" lon="1.85454">
        <ele>705.1</ele>
        <time>2026-07-08T09:35:39.000Z</time>
      </trkpt>
      <trkpt lat="45.78632" lon="1.85456">
        <ele>703.7</ele>
        <time>2026-07-08T09:35:40.000Z</time>
      </trkpt>
      <trkpt lat="45.78633" lon="1.85457">
        <ele>704.7</ele>
        <time>2026-07-08T09:35:41.000Z</time>
      </trkpt>
      <trkpt lat="45.78634" lon="1.85458">
        <ele>704.8</ele>
        <time>2026-07-08T09:35:42.000Z</time>
      </trkpt>
      <trkpt lat="45.78634" lon="1.85461">
        <ele>704.4</ele>
        <time>2026-07-08T09:35:43.000Z</time>
      </trkpt>
      <trkpt lat="45.78635" lon="1.85463">
        <ele>704.4</ele>
        <time>2026-07-08T09:35:44.000Z</time>
      </trkpt>
      <trkpt lat="45.78635" lon="1.85465">
        <ele>702.7</ele>
        <time>2026-07-08T09:35:45.000Z</time>
      </trkpt>
      <trkpt lat="45.78637" lon="1.85467">
        <ele>702.9</ele>
        <time>2026-07-08T09:35:46.000Z</time>
      </trkpt>
      <trkpt lat="45.78638" lon="1.85468">
        <ele>703.1</ele>
        <time>2026-07-08T09:35:47.000Z</time>
      </trkpt>
      <trkpt lat="45.7864" lon="1.85469">
        <ele>703.1</ele>
        <time>2026-07-08T09:35:48.000Z</time>
      </trkpt>
      <trkpt lat="45.78642" lon="1.8547">
        <ele>703.7</ele>
        <time>2026-07-08T09:35:49.000Z</time>
      </trkpt>
      <trkpt lat="45.78643" lon="1.85471">
        <ele>704.1</ele>
        <time>2026-07-08T09:35:50.000Z</time>
      </trkpt>
      <trkpt lat="45.78645" lon="1.85473">
        <ele>703.9</ele>
        <time>2026-07-08T09:35:51.000Z</time>
      </trkpt>
      <trkpt lat="45.78646" lon="1.85475">
        <ele>704.3</ele>
        <time>2026-07-08T09:35:52.000Z</time>
      </trkpt>
      <trkpt lat="45.78646" lon="1.85478">
        <ele>704.9</ele>
        <time>2026-07-08T09:35:53.000Z</time>
      </trkpt>
      <trkpt lat="45.78647" lon="1.8548">
        <ele>704.7</ele>
        <time>2026-07-08T09:35:54.000Z</time>
      </trkpt>
      <trkpt lat="45.78648" lon="1.85482">
        <ele>704.3</ele>
        <time>2026-07-08T09:35:55.000Z</time>
      </trkpt>
      <trkpt lat="45.78648" lon="1.85484">
        <ele>704.7</ele>
        <time>2026-07-08T09:35:56.000Z</time>
      </trkpt>
      <trkpt lat="45.78649" lon="1.85485">
        <ele>705.6</ele>
        <time>2026-07-08T09:35:57.000Z</time>
      </trkpt>
      <trkpt lat="45.78649" lon="1.85486">
        <ele>706.1</ele>
        <time>2026-07-08T09:35:58.000Z</time>
      </trkpt>
      <trkpt lat="45.78649" lon="1.85488">
        <ele>706.8</ele>
        <time>2026-07-08T09:35:59.000Z</time>
      </trkpt>
      <trkpt lat="45.78649" lon="1.8549">
        <ele>706.7</ele>
        <time>2026-07-08T09:36:00.000Z</time>
      </trkpt>
      <trkpt lat="45.78648" lon="1.85492">
        <ele>706.7</ele>
        <time>2026-07-08T09:36:01.000Z</time>
      </trkpt>
      <trkpt lat="45.78648" lon="1.85495">
        <ele>706.5</ele>
        <time>2026-07-08T09:36:02.000Z</time>
      </trkpt>
      <trkpt lat="45.78649" lon="1.85497">
        <ele>707.2</ele>
        <time>2026-07-08T09:36:03.000Z</time>
      </trkpt>
      <trkpt lat="45.78649" lon="1.85499">
        <ele>707.5</ele>
        <time>2026-07-08T09:36:04.000Z</time>
      </trkpt>
      <trkpt lat="45.7865" lon="1.855">
        <ele>708.1</ele>
        <time>2026-07-08T09:36:05.000Z</time>
      </trkpt>
      <trkpt lat="45.7865" lon="1.85502">
        <ele>708.4</ele>
        <time>2026-07-08T09:36:06.000Z</time>
      </trkpt>
      <trkpt lat="45.7865" lon="1.85503">
        <ele>708</ele>
        <time>2026-07-08T09:36:07.000Z</time>
      </trkpt>
      <trkpt lat="45.7865" lon="1.85505">
        <ele>706.3</ele>
        <time>2026-07-08T09:36:08.000Z</time>
      </trkpt>
      <trkpt lat="45.7865" lon="1.85507">
        <ele>705.7</ele>
        <time>2026-07-08T09:36:09.000Z</time>
      </trkpt>
      <trkpt lat="45.7865" lon="1.85509">
        <ele>706</ele>
        <time>2026-07-08T09:36:10.000Z</time>
      </trkpt>
      <trkpt lat="45.78649" lon="1.8551">
        <ele>706.5</ele>
        <time>2026-07-08T09:36:11.000Z</time>
      </trkpt>
      <trkpt lat="45.78649" lon="1.85512">
        <ele>705.9</ele>
        <time>2026-07-08T09:36:12.000Z</time>
      </trkpt>
      <trkpt lat="45.7865" lon="1.85513">
        <ele>705.7</ele>
        <time>2026-07-08T09:36:13.000Z</time>
      </trkpt>
      <trkpt lat="45.7865" lon="1.85515">
        <ele>706.1</ele>
        <time>2026-07-08T09:36:14.000Z</time>
      </trkpt>
      <trkpt lat="45.7865" lon="1.85516">
        <ele>707.3</ele>
        <time>2026-07-08T09:36:15.000Z</time>
      </trkpt>
      <trkpt lat="45.7865" lon="1.85518">
        <ele>707.1</ele>
        <time>2026-07-08T09:36:16.000Z</time>
      </trkpt>
      <trkpt lat="45.7865" lon="1.8552">
        <ele>706.9</ele>
        <time>2026-07-08T09:36:17.000Z</time>
      </trkpt>
      <trkpt lat="45.7865" lon="1.85522">
        <ele>706.6</ele>
        <time>2026-07-08T09:36:18.000Z</time>
      </trkpt>
      <trkpt lat="45.78651" lon="1.85523">
        <ele>706.4</ele>
        <time>2026-07-08T09:36:19.000Z</time>
      </trkpt>
      <trkpt lat="45.78651" lon="1.85525">
        <ele>706.5</ele>
        <time>2026-07-08T09:36:20.000Z</time>
      </trkpt>
      <trkpt lat="45.78651" lon="1.85527">
        <ele>705.6</ele>
        <time>2026-07-08T09:36:21.000Z</time>
      </trkpt>
      <trkpt lat="45.78651" lon="1.85529">
        <ele>705.8</ele>
        <time>2026-07-08T09:36:22.000Z</time>
      </trkpt>
      <trkpt lat="45.78651" lon="1.85531">
        <ele>705.8</ele>
        <time>2026-07-08T09:36:23.000Z</time>
      </trkpt>
      <trkpt lat="45.78651" lon="1.85532">
        <ele>705.9</ele>
        <time>2026-07-08T09:36:24.000Z</time>
      </trkpt>
      <trkpt lat="45.78651" lon="1.85534">
        <ele>706.3</ele>
        <time>2026-07-08T09:36:25.000Z</time>
      </trkpt>
      <trkpt lat="45.78651" lon="1.85536">
        <ele>706.3</ele>
        <time>2026-07-08T09:36:26.000Z</time>
      </trkpt>
      <trkpt lat="45.78651" lon="1.85537">
        <ele>706.9</ele>
        <time>2026-07-08T09:36:27.000Z</time>
      </trkpt>
      <trkpt lat="45.78651" lon="1.85539">
        <ele>706.4</ele>
        <time>2026-07-08T09:36:28.000Z</time>
      </trkpt>
      <trkpt lat="45.78651" lon="1.85541">
        <ele>706</ele>
        <time>2026-07-08T09:36:29.000Z</time>
      </trkpt>
      <trkpt lat="45.7865" lon="1.85543">
        <ele>705.3</ele>
        <time>2026-07-08T09:36:30.000Z</time>
      </trkpt>
      <trkpt lat="45.7865" lon="1.85545">
        <ele>705.1</ele>
        <time>2026-07-08T09:36:31.000Z</time>
      </trkpt>
      <trkpt lat="45.78649" lon="1.85547">
        <ele>705.1</ele>
        <time>2026-07-08T09:36:32.000Z</time>
      </trkpt>
      <trkpt lat="45.78649" lon="1.85549">
        <ele>704.6</ele>
        <time>2026-07-08T09:36:33.000Z</time>
      </trkpt>
      <trkpt lat="45.78649" lon="1.85551">
        <ele>705</ele>
        <time>2026-07-08T09:36:34.000Z</time>
      </trkpt>
      <trkpt lat="45.78649" lon="1.85552">
        <ele>705.2</ele>
        <time>2026-07-08T09:36:35.000Z</time>
      </trkpt>
      <trkpt lat="45.78648" lon="1.85554">
        <ele>704.9</ele>
        <time>2026-07-08T09:36:36.000Z</time>
      </trkpt>
      <trkpt lat="45.78648" lon="1.85556">
        <ele>704.9</ele>
        <time>2026-07-08T09:36:37.000Z</time>
      </trkpt>
      <trkpt lat="45.78648" lon="1.85558">
        <ele>705</ele>
        <time>2026-07-08T09:36:38.000Z</time>
      </trkpt>
      <trkpt lat="45.78649" lon="1.8556">
        <ele>704.1</ele>
        <time>2026-07-08T09:36:39.000Z</time>
      </trkpt>
      <trkpt lat="45.78649" lon="1.85562">
        <ele>704.4</ele>
        <time>2026-07-08T09:36:40.000Z</time>
      </trkpt>
      <trkpt lat="45.78648" lon="1.85564">
        <ele>704.7</ele>
        <time>2026-07-08T09:36:41.000Z</time>
      </trkpt>
      <trkpt lat="45.78649" lon="1.85566">
        <ele>704.8</ele>
        <time>2026-07-08T09:36:42.000Z</time>
      </trkpt>
      <trkpt lat="45.78649" lon="1.85568">
        <ele>704.1</ele>
        <time>2026-07-08T09:36:43.000Z</time>
      </trkpt>
      <trkpt lat="45.78648" lon="1.85571">
        <ele>703.7</ele>
        <time>2026-07-08T09:36:44.000Z</time>
      </trkpt>
      <trkpt lat="45.78648" lon="1.85573">
        <ele>704</ele>
        <time>2026-07-08T09:36:45.000Z</time>
      </trkpt>
      <trkpt lat="45.78647" lon="1.85576">
        <ele>704.5</ele>
        <time>2026-07-08T09:36:46.000Z</time>
      </trkpt>
      <trkpt lat="45.78646" lon="1.85578">
        <ele>704.3</ele>
        <time>2026-07-08T09:36:47.000Z</time>
      </trkpt>
      <trkpt lat="45.78645" lon="1.8558">
        <ele>704.7</ele>
        <time>2026-07-08T09:36:48.000Z</time>
      </trkpt>
      <trkpt lat="45.78645" lon="1.85582">
        <ele>705.3</ele>
        <time>2026-07-08T09:36:49.000Z</time>
      </trkpt>
      <trkpt lat="45.78644" lon="1.85584">
        <ele>705</ele>
        <time>2026-07-08T09:36:50.000Z</time>
      </trkpt>
      <trkpt lat="45.78644" lon="1.85586">
        <ele>705.3</ele>
        <time>2026-07-08T09:36:51.000Z</time>
      </trkpt>
      <trkpt lat="45.78643" lon="1.85588">
        <ele>705</ele>
        <time>2026-07-08T09:36:52.000Z</time>
      </trkpt>
      <trkpt lat="45.78643" lon="1.8559">
        <ele>705.5</ele>
        <time>2026-07-08T09:36:53.000Z</time>
      </trkpt>
      <trkpt lat="45.78643" lon="1.85592">
        <ele>706.2</ele>
        <time>2026-07-08T09:36:54.000Z</time>
      </trkpt>
      <trkpt lat="45.78643" lon="1.85594">
        <ele>705.9</ele>
        <time>2026-07-08T09:36:55.000Z</time>
      </trkpt>
      <trkpt lat="45.78642" lon="1.85596">
        <ele>704.9</ele>
        <time>2026-07-08T09:36:56.000Z</time>
      </trkpt>
      <trkpt lat="45.78642" lon="1.85598">
        <ele>705.3</ele>
        <time>2026-07-08T09:36:57.000Z</time>
      </trkpt>
      <trkpt lat="45.78642" lon="1.85601">
        <ele>705.6</ele>
        <time>2026-07-08T09:36:58.000Z</time>
      </trkpt>
      <trkpt lat="45.78643" lon="1.85604">
        <ele>706.1</ele>
        <time>2026-07-08T09:36:59.000Z</time>
      </trkpt>
      <trkpt lat="45.78644" lon="1.85606">
        <ele>706.3</ele>
        <time>2026-07-08T09:37:00.000Z</time>
      </trkpt>
      <trkpt lat="45.78645" lon="1.85609">
        <ele>706.5</ele>
        <time>2026-07-08T09:37:01.000Z</time>
      </trkpt>
      <trkpt lat="45.78645" lon="1.85611">
        <ele>706.5</ele>
        <time>2026-07-08T09:37:02.000Z</time>
      </trkpt>
      <trkpt lat="45.78645" lon="1.85614">
        <ele>706.8</ele>
        <time>2026-07-08T09:37:03.000Z</time>
      </trkpt>
      <trkpt lat="45.78644" lon="1.85616">
        <ele>707.1</ele>
        <time>2026-07-08T09:37:04.000Z</time>
      </trkpt>
      <trkpt lat="45.78643" lon="1.85618">
        <ele>706.9</ele>
        <time>2026-07-08T09:37:05.000Z</time>
      </trkpt>
      <trkpt lat="45.78642" lon="1.85619">
        <ele>705.8</ele>
        <time>2026-07-08T09:37:06.000Z</time>
      </trkpt>
      <trkpt lat="45.78641" lon="1.85621">
        <ele>705.7</ele>
        <time>2026-07-08T09:37:07.000Z</time>
      </trkpt>
      <trkpt lat="45.7864" lon="1.85622">
        <ele>706.3</ele>
        <time>2026-07-08T09:37:08.000Z</time>
      </trkpt>
      <trkpt lat="45.7864" lon="1.85623">
        <ele>706.3</ele>
        <time>2026-07-08T09:37:09.000Z</time>
      </trkpt>
      <trkpt lat="45.78639" lon="1.85625">
        <ele>708</ele>
        <time>2026-07-08T09:37:10.000Z</time>
      </trkpt>
      <trkpt lat="45.7864" lon="1.85627">
        <ele>708.4</ele>
        <time>2026-07-08T09:37:11.000Z</time>
      </trkpt>
      <trkpt lat="45.78639" lon="1.85629">
        <ele>708.5</ele>
        <time>2026-07-08T09:37:12.000Z</time>
      </trkpt>
      <trkpt lat="45.78639" lon="1.8563">
        <ele>708.6</ele>
        <time>2026-07-08T09:37:13.000Z</time>
      </trkpt>
      <trkpt lat="45.78639" lon="1.85632">
        <ele>708.8</ele>
        <time>2026-07-08T09:37:14.000Z</time>
      </trkpt>
      <trkpt lat="45.78639" lon="1.85634">
        <ele>708</ele>
        <time>2026-07-08T09:37:15.000Z</time>
      </trkpt>
      <trkpt lat="45.7864" lon="1.85636">
        <ele>707.3</ele>
        <time>2026-07-08T09:37:16.000Z</time>
      </trkpt>
      <trkpt lat="45.7864" lon="1.85638">
        <ele>707.2</ele>
        <time>2026-07-08T09:37:17.000Z</time>
      </trkpt>
      <trkpt lat="45.7864" lon="1.8564">
        <ele>707.9</ele>
        <time>2026-07-08T09:37:18.000Z</time>
      </trkpt>
      <trkpt lat="45.78641" lon="1.85642">
        <ele>707.9</ele>
        <time>2026-07-08T09:37:19.000Z</time>
      </trkpt>
      <trkpt lat="45.78641" lon="1.85644">
        <ele>706.2</ele>
        <time>2026-07-08T09:37:20.000Z</time>
      </trkpt>
      <trkpt lat="45.78641" lon="1.85646">
        <ele>705.6</ele>
        <time>2026-07-08T09:37:21.000Z</time>
      </trkpt>
      <trkpt lat="45.78641" lon="1.85648">
        <ele>705.7</ele>
        <time>2026-07-08T09:37:22.000Z</time>
      </trkpt>
      <trkpt lat="45.78641" lon="1.85651">
        <ele>704.4</ele>
        <time>2026-07-08T09:37:23.000Z</time>
      </trkpt>
      <trkpt lat="45.78641" lon="1.85654">
        <ele>705.3</ele>
        <time>2026-07-08T09:37:24.000Z</time>
      </trkpt>
      <trkpt lat="45.78641" lon="1.85657">
        <ele>707.2</ele>
        <time>2026-07-08T09:37:25.000Z</time>
      </trkpt>
      <trkpt lat="45.78641" lon="1.8566">
        <ele>707.5</ele>
        <time>2026-07-08T09:37:26.000Z</time>
      </trkpt>
      <trkpt lat="45.7864" lon="1.85662">
        <ele>707.6</ele>
        <time>2026-07-08T09:37:27.000Z</time>
      </trkpt>
      <trkpt lat="45.78639" lon="1.85665">
        <ele>707.1</ele>
        <time>2026-07-08T09:37:28.000Z</time>
      </trkpt>
      <trkpt lat="45.78638" lon="1.85666">
        <ele>706.3</ele>
        <time>2026-07-08T09:37:29.000Z</time>
      </trkpt>
      <trkpt lat="45.78637" lon="1.85668">
        <ele>706</ele>
        <time>2026-07-08T09:37:30.000Z</time>
      </trkpt>
      <trkpt lat="45.78636" lon="1.8567">
        <ele>706.3</ele>
        <time>2026-07-08T09:37:31.000Z</time>
      </trkpt>
      <trkpt lat="45.78635" lon="1.85672">
        <ele>705.6</ele>
        <time>2026-07-08T09:37:32.000Z</time>
      </trkpt>
      <trkpt lat="45.78634" lon="1.85674">
        <ele>705.3</ele>
        <time>2026-07-08T09:37:33.000Z</time>
      </trkpt>
      <trkpt lat="45.78634" lon="1.85675">
        <ele>705.2</ele>
        <time>2026-07-08T09:37:34.000Z</time>
      </trkpt>
      <trkpt lat="45.78633" lon="1.85677">
        <ele>704.3</ele>
        <time>2026-07-08T09:37:35.000Z</time>
      </trkpt>
      <trkpt lat="45.78632" lon="1.85679">
        <ele>704.5</ele>
        <time>2026-07-08T09:37:36.000Z</time>
      </trkpt>
      <trkpt lat="45.78632" lon="1.8568">
        <ele>705.5</ele>
        <time>2026-07-08T09:37:37.000Z</time>
      </trkpt>
      <trkpt lat="45.78632" lon="1.85682">
        <ele>706</ele>
        <time>2026-07-08T09:37:38.000Z</time>
      </trkpt>
      <trkpt lat="45.78631" lon="1.85684">
        <ele>706.2</ele>
        <time>2026-07-08T09:37:39.000Z</time>
      </trkpt>
      <trkpt lat="45.78631" lon="1.85685">
        <ele>706.5</ele>
        <time>2026-07-08T09:37:40.000Z</time>
      </trkpt>
      <trkpt lat="45.78631" lon="1.85687">
        <ele>706.3</ele>
        <time>2026-07-08T09:37:41.000Z</time>
      </trkpt>
      <trkpt lat="45.7863" lon="1.85689">
        <ele>706.4</ele>
        <time>2026-07-08T09:37:42.000Z</time>
      </trkpt>
      <trkpt lat="45.7863" lon="1.85691">
        <ele>705.9</ele>
        <time>2026-07-08T09:37:43.000Z</time>
      </trkpt>
      <trkpt lat="45.7863" lon="1.85693">
        <ele>705.3</ele>
        <time>2026-07-08T09:37:44.000Z</time>
      </trkpt>
      <trkpt lat="45.78629" lon="1.85695">
        <ele>704.9</ele>
        <time>2026-07-08T09:37:45.000Z</time>
      </trkpt>
      <trkpt lat="45.78629" lon="1.85696">
        <ele>704.4</ele>
        <time>2026-07-08T09:37:46.000Z</time>
      </trkpt>
      <trkpt lat="45.78628" lon="1.85699">
        <ele>704</ele>
        <time>2026-07-08T09:37:47.000Z</time>
      </trkpt>
      <trkpt lat="45.78629" lon="1.85701">
        <ele>704.5</ele>
        <time>2026-07-08T09:37:48.000Z</time>
      </trkpt>
      <trkpt lat="45.78629" lon="1.85703">
        <ele>704.9</ele>
        <time>2026-07-08T09:37:49.000Z</time>
      </trkpt>
      <trkpt lat="45.78628" lon="1.85705">
        <ele>704.4</ele>
        <time>2026-07-08T09:37:50.000Z</time>
      </trkpt>
      <trkpt lat="45.78628" lon="1.85707">
        <ele>704.9</ele>
        <time>2026-07-08T09:37:51.000Z</time>
      </trkpt>
      <trkpt lat="45.78628" lon="1.85709">
        <ele>705.1</ele>
        <time>2026-07-08T09:37:52.000Z</time>
      </trkpt>
      <trkpt lat="45.78627" lon="1.85711">
        <ele>705</ele>
        <time>2026-07-08T09:37:53.000Z</time>
      </trkpt>
      <trkpt lat="45.78627" lon="1.85713">
        <ele>706</ele>
        <time>2026-07-08T09:37:54.000Z</time>
      </trkpt>
      <trkpt lat="45.78626" lon="1.85715">
        <ele>706.3</ele>
        <time>2026-07-08T09:37:55.000Z</time>
      </trkpt>
      <trkpt lat="45.78626" lon="1.85717">
        <ele>706.2</ele>
        <time>2026-07-08T09:37:56.000Z</time>
      </trkpt>
      <trkpt lat="45.78625" lon="1.85719">
        <ele>705.9</ele>
        <time>2026-07-08T09:37:57.000Z</time>
      </trkpt>
      <trkpt lat="45.78624" lon="1.85722">
        <ele>705.1</ele>
        <time>2026-07-08T09:37:58.000Z</time>
      </trkpt>
      <trkpt lat="45.78623" lon="1.85724">
        <ele>704.4</ele>
        <time>2026-07-08T09:37:59.000Z</time>
      </trkpt>
      <trkpt lat="45.78623" lon="1.85726">
        <ele>704.5</ele>
        <time>2026-07-08T09:38:00.000Z</time>
      </trkpt>
      <trkpt lat="45.78622" lon="1.85728">
        <ele>705.5</ele>
        <time>2026-07-08T09:38:01.000Z</time>
      </trkpt>
      <trkpt lat="45.78621" lon="1.8573">
        <ele>706</ele>
        <time>2026-07-08T09:38:02.000Z</time>
      </trkpt>
      <trkpt lat="45.78621" lon="1.85732">
        <ele>706.1</ele>
        <time>2026-07-08T09:38:03.000Z</time>
      </trkpt>
      <trkpt lat="45.7862" lon="1.85734">
        <ele>706.6</ele>
        <time>2026-07-08T09:38:04.000Z</time>
      </trkpt>
      <trkpt lat="45.78619" lon="1.85736">
        <ele>705.8</ele>
        <time>2026-07-08T09:38:05.000Z</time>
      </trkpt>
      <trkpt lat="45.78619" lon="1.85738">
        <ele>705.6</ele>
        <time>2026-07-08T09:38:06.000Z</time>
      </trkpt>
      <trkpt lat="45.78618" lon="1.8574">
        <ele>706</ele>
        <time>2026-07-08T09:38:07.000Z</time>
      </trkpt>
      <trkpt lat="45.78618" lon="1.85742">
        <ele>706.8</ele>
        <time>2026-07-08T09:38:08.000Z</time>
      </trkpt>
      <trkpt lat="45.78617" lon="1.85744">
        <ele>707.6</ele>
        <time>2026-07-08T09:38:09.000Z</time>
      </trkpt>
      <trkpt lat="45.78616" lon="1.85746">
        <ele>707.7</ele>
        <time>2026-07-08T09:38:10.000Z</time>
      </trkpt>
      <trkpt lat="45.78615" lon="1.85747">
        <ele>708.3</ele>
        <time>2026-07-08T09:38:11.000Z</time>
      </trkpt>
      <trkpt lat="45.78614" lon="1.85749">
        <ele>708.5</ele>
        <time>2026-07-08T09:38:12.000Z</time>
      </trkpt>
      <trkpt lat="45.78614" lon="1.85751">
        <ele>707.8</ele>
        <time>2026-07-08T09:38:13.000Z</time>
      </trkpt>
      <trkpt lat="45.78613" lon="1.85753">
        <ele>706.6</ele>
        <time>2026-07-08T09:38:14.000Z</time>
      </trkpt>
      <trkpt lat="45.78613" lon="1.85756">
        <ele>706.7</ele>
        <time>2026-07-08T09:38:15.000Z</time>
      </trkpt>
      <trkpt lat="45.78612" lon="1.85758">
        <ele>707</ele>
        <time>2026-07-08T09:38:16.000Z</time>
      </trkpt>
      <trkpt lat="45.78611" lon="1.8576">
        <ele>707.4</ele>
        <time>2026-07-08T09:38:17.000Z</time>
      </trkpt>
      <trkpt lat="45.7861" lon="1.85762">
        <ele>707.9</ele>
        <time>2026-07-08T09:38:18.000Z</time>
      </trkpt>
      <trkpt lat="45.78608" lon="1.85763">
        <ele>707.9</ele>
        <time>2026-07-08T09:38:19.000Z</time>
      </trkpt>
      <trkpt lat="45.78607" lon="1.85765">
        <ele>708.3</ele>
        <time>2026-07-08T09:38:20.000Z</time>
      </trkpt>
      <trkpt lat="45.78606" lon="1.85766">
        <ele>708.4</ele>
        <time>2026-07-08T09:38:21.000Z</time>
      </trkpt>
      <trkpt lat="45.78604" lon="1.85766">
        <ele>708.9</ele>
        <time>2026-07-08T09:38:22.000Z</time>
      </trkpt>
      <trkpt lat="45.78602" lon="1.85767">
        <ele>708.3</ele>
        <time>2026-07-08T09:38:23.000Z</time>
      </trkpt>
      <trkpt lat="45.78601" lon="1.85767">
        <ele>707.7</ele>
        <time>2026-07-08T09:38:24.000Z</time>
      </trkpt>
      <trkpt lat="45.786" lon="1.85769">
        <ele>707.5</ele>
        <time>2026-07-08T09:38:25.000Z</time>
      </trkpt>
      <trkpt lat="45.78599" lon="1.8577">
        <ele>707.1</ele>
        <time>2026-07-08T09:38:26.000Z</time>
      </trkpt>
      <trkpt lat="45.78598" lon="1.85772">
        <ele>706.5</ele>
        <time>2026-07-08T09:38:27.000Z</time>
      </trkpt>
      <trkpt lat="45.78597" lon="1.85774">
        <ele>706.5</ele>
        <time>2026-07-08T09:38:28.000Z</time>
      </trkpt>
      <trkpt lat="45.78595" lon="1.85775">
        <ele>705.3</ele>
        <time>2026-07-08T09:38:29.000Z</time>
      </trkpt>
      <trkpt lat="45.78594" lon="1.85777">
        <ele>705.7</ele>
        <time>2026-07-08T09:38:30.000Z</time>
      </trkpt>
      <trkpt lat="45.78592" lon="1.85778">
        <ele>705.3</ele>
        <time>2026-07-08T09:38:31.000Z</time>
      </trkpt>
      <trkpt lat="45.78591" lon="1.8578">
        <ele>705.4</ele>
        <time>2026-07-08T09:38:32.000Z</time>
      </trkpt>
      <trkpt lat="45.78589" lon="1.85781">
        <ele>705.7</ele>
        <time>2026-07-08T09:38:33.000Z</time>
      </trkpt>
      <trkpt lat="45.78587" lon="1.85781">
        <ele>706.6</ele>
        <time>2026-07-08T09:38:34.000Z</time>
      </trkpt>
      <trkpt lat="45.78586" lon="1.85781">
        <ele>706.1</ele>
        <time>2026-07-08T09:38:35.000Z</time>
      </trkpt>
      <trkpt lat="45.78584" lon="1.85781">
        <ele>705.3</ele>
        <time>2026-07-08T09:38:36.000Z</time>
      </trkpt>
      <trkpt lat="45.78583" lon="1.85781">
        <ele>704.7</ele>
        <time>2026-07-08T09:38:37.000Z</time>
      </trkpt>
      <trkpt lat="45.78582" lon="1.85782">
        <ele>704.4</ele>
        <time>2026-07-08T09:38:38.000Z</time>
      </trkpt>
      <trkpt lat="45.7858" lon="1.85782">
        <ele>705.6</ele>
        <time>2026-07-08T09:38:39.000Z</time>
      </trkpt>
      <trkpt lat="45.78579" lon="1.85784">
        <ele>706.4</ele>
        <time>2026-07-08T09:38:40.000Z</time>
      </trkpt>
      <trkpt lat="45.78578" lon="1.85785">
        <ele>706</ele>
        <time>2026-07-08T09:38:41.000Z</time>
      </trkpt>
      <trkpt lat="45.78577" lon="1.85786">
        <ele>705.1</ele>
        <time>2026-07-08T09:38:42.000Z</time>
      </trkpt>
      <trkpt lat="45.78575" lon="1.85788">
        <ele>706.1</ele>
        <time>2026-07-08T09:38:43.000Z</time>
      </trkpt>
      <trkpt lat="45.78573" lon="1.8579">
        <ele>707.1</ele>
        <time>2026-07-08T09:38:44.000Z</time>
      </trkpt>
      <trkpt lat="45.78572" lon="1.85791">
        <ele>708.1</ele>
        <time>2026-07-08T09:38:45.000Z</time>
      </trkpt>
      <trkpt lat="45.7857" lon="1.85792">
        <ele>707.7</ele>
        <time>2026-07-08T09:38:46.000Z</time>
      </trkpt>
      <trkpt lat="45.78569" lon="1.85793">
        <ele>707.2</ele>
        <time>2026-07-08T09:38:47.000Z</time>
      </trkpt>
      <trkpt lat="45.78567" lon="1.85793">
        <ele>707.2</ele>
        <time>2026-07-08T09:38:48.000Z</time>
      </trkpt>
      <trkpt lat="45.78566" lon="1.85793">
        <ele>706.7</ele>
        <time>2026-07-08T09:38:49.000Z</time>
      </trkpt>
      <trkpt lat="45.78565" lon="1.85793">
        <ele>707.5</ele>
        <time>2026-07-08T09:38:50.000Z</time>
      </trkpt>
      <trkpt lat="45.78564" lon="1.85794">
        <ele>707.1</ele>
        <time>2026-07-08T09:38:51.000Z</time>
      </trkpt>
      <trkpt lat="45.78563" lon="1.85793">
        <ele>706.9</ele>
        <time>2026-07-08T09:38:52.000Z</time>
      </trkpt>
      <trkpt lat="45.78562" lon="1.85794">
        <ele>706.5</ele>
        <time>2026-07-08T09:38:53.000Z</time>
      </trkpt>
      <trkpt lat="45.7856" lon="1.85794">
        <ele>707.3</ele>
        <time>2026-07-08T09:38:54.000Z</time>
      </trkpt>
      <trkpt lat="45.78559" lon="1.85795">
        <ele>708.3</ele>
        <time>2026-07-08T09:38:55.000Z</time>
      </trkpt>
      <trkpt lat="45.78557" lon="1.85796">
        <ele>708.8</ele>
        <time>2026-07-08T09:38:56.000Z</time>
      </trkpt>
      <trkpt lat="45.78556" lon="1.85797">
        <ele>708.9</ele>
        <time>2026-07-08T09:38:57.000Z</time>
      </trkpt>
      <trkpt lat="45.78555" lon="1.85799">
        <ele>708.9</ele>
        <time>2026-07-08T09:38:58.000Z</time>
      </trkpt>
      <trkpt lat="45.78553" lon="1.85801">
        <ele>708.6</ele>
        <time>2026-07-08T09:38:59.000Z</time>
      </trkpt>
      <trkpt lat="45.78553" lon="1.85802">
        <ele>707.4</ele>
        <time>2026-07-08T09:39:00.000Z</time>
      </trkpt>
      <trkpt lat="45.78551" lon="1.85803">
        <ele>707.8</ele>
        <time>2026-07-08T09:39:01.000Z</time>
      </trkpt>
      <trkpt lat="45.7855" lon="1.85804">
        <ele>707.3</ele>
        <time>2026-07-08T09:39:02.000Z</time>
      </trkpt>
      <trkpt lat="45.78548" lon="1.85804">
        <ele>707.9</ele>
        <time>2026-07-08T09:39:03.000Z</time>
      </trkpt>
      <trkpt lat="45.78547" lon="1.85805">
        <ele>708.2</ele>
        <time>2026-07-08T09:39:04.000Z</time>
      </trkpt>
      <trkpt lat="45.78545" lon="1.85804">
        <ele>708.5</ele>
        <time>2026-07-08T09:39:05.000Z</time>
      </trkpt>
      <trkpt lat="45.78544" lon="1.85804">
        <ele>709</ele>
        <time>2026-07-08T09:39:06.000Z</time>
      </trkpt>
      <trkpt lat="45.78542" lon="1.85804">
        <ele>709.1</ele>
        <time>2026-07-08T09:39:07.000Z</time>
      </trkpt>
      <trkpt lat="45.78541" lon="1.85803">
        <ele>708.9</ele>
        <time>2026-07-08T09:39:08.000Z</time>
      </trkpt>
      <trkpt lat="45.78539" lon="1.85803">
        <ele>709.1</ele>
        <time>2026-07-08T09:39:09.000Z</time>
      </trkpt>
      <trkpt lat="45.78538" lon="1.85802">
        <ele>708.4</ele>
        <time>2026-07-08T09:39:10.000Z</time>
      </trkpt>
      <trkpt lat="45.78536" lon="1.85801">
        <ele>708.5</ele>
        <time>2026-07-08T09:39:11.000Z</time>
      </trkpt>
      <trkpt lat="45.78535" lon="1.85801">
        <ele>708.6</ele>
        <time>2026-07-08T09:39:12.000Z</time>
      </trkpt>
      <trkpt lat="45.78533" lon="1.858">
        <ele>709.2</ele>
        <time>2026-07-08T09:39:13.000Z</time>
      </trkpt>
      <trkpt lat="45.78531" lon="1.85799">
        <ele>709.9</ele>
        <time>2026-07-08T09:39:14.000Z</time>
      </trkpt>
      <trkpt lat="45.7853" lon="1.85798">
        <ele>710</ele>
        <time>2026-07-08T09:39:15.000Z</time>
      </trkpt>
      <trkpt lat="45.78529" lon="1.85798">
        <ele>710.4</ele>
        <time>2026-07-08T09:39:16.000Z</time>
      </trkpt>
      <trkpt lat="45.78527" lon="1.85797">
        <ele>710.9</ele>
        <time>2026-07-08T09:39:17.000Z</time>
      </trkpt>
      <trkpt lat="45.78526" lon="1.85796">
        <ele>710.1</ele>
        <time>2026-07-08T09:39:18.000Z</time>
      </trkpt>
      <trkpt lat="45.78525" lon="1.85795">
        <ele>709.6</ele>
        <time>2026-07-08T09:39:19.000Z</time>
      </trkpt>
      <trkpt lat="45.78523" lon="1.85794">
        <ele>709</ele>
        <time>2026-07-08T09:39:20.000Z</time>
      </trkpt>
      <trkpt lat="45.78522" lon="1.85793">
        <ele>708.2</ele>
        <time>2026-07-08T09:39:21.000Z</time>
      </trkpt>
      <trkpt lat="45.78522" lon="1.85792">
        <ele>708</ele>
        <time>2026-07-08T09:39:22.000Z</time>
      </trkpt>
      <trkpt lat="45.7852" lon="1.85791">
        <ele>708.4</ele>
        <time>2026-07-08T09:39:23.000Z</time>
      </trkpt>
      <trkpt lat="45.78519" lon="1.8579">
        <ele>708.7</ele>
        <time>2026-07-08T09:39:24.000Z</time>
      </trkpt>
      <trkpt lat="45.78518" lon="1.85789">
        <ele>708.3</ele>
        <time>2026-07-08T09:39:25.000Z</time>
      </trkpt>
      <trkpt lat="45.78516" lon="1.85788">
        <ele>708.6</ele>
        <time>2026-07-08T09:39:26.000Z</time>
      </trkpt>
      <trkpt lat="45.78515" lon="1.85787">
        <ele>708.7</ele>
        <time>2026-07-08T09:39:27.000Z</time>
      </trkpt>
      <trkpt lat="45.78514" lon="1.85787">
        <ele>708.9</ele>
        <time>2026-07-08T09:39:28.000Z</time>
      </trkpt>
      <trkpt lat="45.78512" lon="1.85786">
        <ele>709.7</ele>
        <time>2026-07-08T09:39:29.000Z</time>
      </trkpt>
      <trkpt lat="45.7851" lon="1.85786">
        <ele>709.3</ele>
        <time>2026-07-08T09:39:30.000Z</time>
      </trkpt>
      <trkpt lat="45.78509" lon="1.85785">
        <ele>709.1</ele>
        <time>2026-07-08T09:39:31.000Z</time>
      </trkpt>
      <trkpt lat="45.78508" lon="1.85785">
        <ele>708.4</ele>
        <time>2026-07-08T09:39:32.000Z</time>
      </trkpt>
      <trkpt lat="45.78506" lon="1.85785">
        <ele>708</ele>
        <time>2026-07-08T09:39:33.000Z</time>
      </trkpt>
      <trkpt lat="45.78505" lon="1.85785">
        <ele>707.8</ele>
        <time>2026-07-08T09:39:34.000Z</time>
      </trkpt>
      <trkpt lat="45.78503" lon="1.85784">
        <ele>707.1</ele>
        <time>2026-07-08T09:39:35.000Z</time>
      </trkpt>
      <trkpt lat="45.78502" lon="1.85783">
        <ele>707.2</ele>
        <time>2026-07-08T09:39:36.000Z</time>
      </trkpt>
      <trkpt lat="45.785" lon="1.85782">
        <ele>706.8</ele>
        <time>2026-07-08T09:39:37.000Z</time>
      </trkpt>
      <trkpt lat="45.78499" lon="1.85781">
        <ele>706.4</ele>
        <time>2026-07-08T09:39:38.000Z</time>
      </trkpt>
      <trkpt lat="45.78497" lon="1.8578">
        <ele>707.4</ele>
        <time>2026-07-08T09:39:39.000Z</time>
      </trkpt>
      <trkpt lat="45.78496" lon="1.85779">
        <ele>708.7</ele>
        <time>2026-07-08T09:39:40.000Z</time>
      </trkpt>
      <trkpt lat="45.78494" lon="1.85778">
        <ele>708.7</ele>
        <time>2026-07-08T09:39:41.000Z</time>
      </trkpt>
      <trkpt lat="45.78493" lon="1.85778">
        <ele>709.9</ele>
        <time>2026-07-08T09:39:42.000Z</time>
      </trkpt>
      <trkpt lat="45.78491" lon="1.85777">
        <ele>710.1</ele>
        <time>2026-07-08T09:39:43.000Z</time>
      </trkpt>
      <trkpt lat="45.7849" lon="1.85776">
        <ele>710.5</ele>
        <time>2026-07-08T09:39:44.000Z</time>
      </trkpt>
      <trkpt lat="45.78488" lon="1.85774">
        <ele>710.8</ele>
        <time>2026-07-08T09:39:45.000Z</time>
      </trkpt>
      <trkpt lat="45.78487" lon="1.85773">
        <ele>710.2</ele>
        <time>2026-07-08T09:39:46.000Z</time>
      </trkpt>
      <trkpt lat="45.78485" lon="1.85772">
        <ele>709.4</ele>
        <time>2026-07-08T09:39:47.000Z</time>
      </trkpt>
      <trkpt lat="45.78484" lon="1.8577">
        <ele>708.4</ele>
        <time>2026-07-08T09:39:48.000Z</time>
      </trkpt>
      <trkpt lat="45.78483" lon="1.85769">
        <ele>708</ele>
        <time>2026-07-08T09:39:49.000Z</time>
      </trkpt>
      <trkpt lat="45.78481" lon="1.85768">
        <ele>707.6</ele>
        <time>2026-07-08T09:39:50.000Z</time>
      </trkpt>
      <trkpt lat="45.7848" lon="1.85767">
        <ele>707.4</ele>
        <time>2026-07-08T09:39:51.000Z</time>
      </trkpt>
      <trkpt lat="45.78478" lon="1.85766">
        <ele>706.8</ele>
        <time>2026-07-08T09:39:52.000Z</time>
      </trkpt>
      <trkpt lat="45.78477" lon="1.85766">
        <ele>706.2</ele>
        <time>2026-07-08T09:39:53.000Z</time>
      </trkpt>
      <trkpt lat="45.78476" lon="1.85766">
        <ele>705.5</ele>
        <time>2026-07-08T09:39:54.000Z</time>
      </trkpt>
      <trkpt lat="45.78474" lon="1.85766">
        <ele>704.8</ele>
        <time>2026-07-08T09:39:55.000Z</time>
      </trkpt>
      <trkpt lat="45.78473" lon="1.85767">
        <ele>703.4</ele>
        <time>2026-07-08T09:39:56.000Z</time>
      </trkpt>
      <trkpt lat="45.78471" lon="1.85768">
        <ele>703</ele>
        <time>2026-07-08T09:39:57.000Z</time>
      </trkpt>
      <trkpt lat="45.7847" lon="1.85769">
        <ele>702.4</ele>
        <time>2026-07-08T09:39:58.000Z</time>
      </trkpt>
      <trkpt lat="45.78469" lon="1.8577">
        <ele>701.6</ele>
        <time>2026-07-08T09:39:59.000Z</time>
      </trkpt>
      <trkpt lat="45.78467" lon="1.8577">
        <ele>701.1</ele>
        <time>2026-07-08T09:40:00.000Z</time>
      </trkpt>
      <trkpt lat="45.78466" lon="1.85771">
        <ele>700.7</ele>
        <time>2026-07-08T09:40:01.000Z</time>
      </trkpt>
      <trkpt lat="45.78464" lon="1.85772">
        <ele>701.4</ele>
        <time>2026-07-08T09:40:02.000Z</time>
      </trkpt>
      <trkpt lat="45.78463" lon="1.85773">
        <ele>700.8</ele>
        <time>2026-07-08T09:40:03.000Z</time>
      </trkpt>
      <trkpt lat="45.78462" lon="1.85774">
        <ele>700.5</ele>
        <time>2026-07-08T09:40:04.000Z</time>
      </trkpt>
      <trkpt lat="45.7846" lon="1.85775">
        <ele>700.4</ele>
        <time>2026-07-08T09:40:05.000Z</time>
      </trkpt>
      <trkpt lat="45.78459" lon="1.85776">
        <ele>700.2</ele>
        <time>2026-07-08T09:40:06.000Z</time>
      </trkpt>
      <trkpt lat="45.78457" lon="1.85777">
        <ele>701.6</ele>
        <time>2026-07-08T09:40:07.000Z</time>
      </trkpt>
      <trkpt lat="45.78455" lon="1.85778">
        <ele>702.6</ele>
        <time>2026-07-08T09:40:08.000Z</time>
      </trkpt>
      <trkpt lat="45.78454" lon="1.85779">
        <ele>703.5</ele>
        <time>2026-07-08T09:40:09.000Z</time>
      </trkpt>
      <trkpt lat="45.78453" lon="1.85781">
        <ele>703.3</ele>
        <time>2026-07-08T09:40:10.000Z</time>
      </trkpt>
      <trkpt lat="45.78451" lon="1.85782">
        <ele>703</ele>
        <time>2026-07-08T09:40:11.000Z</time>
      </trkpt>
      <trkpt lat="45.7845" lon="1.85783">
        <ele>702.9</ele>
        <time>2026-07-08T09:40:12.000Z</time>
      </trkpt>
      <trkpt lat="45.78449" lon="1.85784">
        <ele>702.5</ele>
        <time>2026-07-08T09:40:13.000Z</time>
      </trkpt>
      <trkpt lat="45.78447" lon="1.85784">
        <ele>701.9</ele>
        <time>2026-07-08T09:40:14.000Z</time>
      </trkpt>
      <trkpt lat="45.78446" lon="1.85785">
        <ele>702.1</ele>
        <time>2026-07-08T09:40:15.000Z</time>
      </trkpt>
      <trkpt lat="45.78444" lon="1.85786">
        <ele>702.1</ele>
        <time>2026-07-08T09:40:16.000Z</time>
      </trkpt>
      <trkpt lat="45.78443" lon="1.85787">
        <ele>702.1</ele>
        <time>2026-07-08T09:40:17.000Z</time>
      </trkpt>
      <trkpt lat="45.78441" lon="1.85789">
        <ele>702.6</ele>
        <time>2026-07-08T09:40:18.000Z</time>
      </trkpt>
      <trkpt lat="45.7844" lon="1.8579">
        <ele>702.6</ele>
        <time>2026-07-08T09:40:19.000Z</time>
      </trkpt>
      <trkpt lat="45.78438" lon="1.85791">
        <ele>702.7</ele>
        <time>2026-07-08T09:40:20.000Z</time>
      </trkpt>
      <trkpt lat="45.78436" lon="1.85791">
        <ele>702.8</ele>
        <time>2026-07-08T09:40:21.000Z</time>
      </trkpt>
      <trkpt lat="45.78435" lon="1.85792">
        <ele>702.5</ele>
        <time>2026-07-08T09:40:22.000Z</time>
      </trkpt>
      <trkpt lat="45.78433" lon="1.85793">
        <ele>703.1</ele>
        <time>2026-07-08T09:40:23.000Z</time>
      </trkpt>
      <trkpt lat="45.78432" lon="1.85794">
        <ele>703.5</ele>
        <time>2026-07-08T09:40:24.000Z</time>
      </trkpt>
      <trkpt lat="45.7843" lon="1.85795">
        <ele>703.7</ele>
        <time>2026-07-08T09:40:25.000Z</time>
      </trkpt>
      <trkpt lat="45.78429" lon="1.85796">
        <ele>704</ele>
        <time>2026-07-08T09:40:26.000Z</time>
      </trkpt>
      <trkpt lat="45.78427" lon="1.85796">
        <ele>704.1</ele>
        <time>2026-07-08T09:40:27.000Z</time>
      </trkpt>
      <trkpt lat="45.78426" lon="1.85797">
        <ele>703.7</ele>
        <time>2026-07-08T09:40:28.000Z</time>
      </trkpt>
      <trkpt lat="45.78424" lon="1.85799">
        <ele>703.1</ele>
        <time>2026-07-08T09:40:29.000Z</time>
      </trkpt>
      <trkpt lat="45.78423" lon="1.858">
        <ele>702.8</ele>
        <time>2026-07-08T09:40:30.000Z</time>
      </trkpt>
      <trkpt lat="45.78422" lon="1.85802">
        <ele>704.1</ele>
        <time>2026-07-08T09:40:31.000Z</time>
      </trkpt>
      <trkpt lat="45.7842" lon="1.85803">
        <ele>703.6</ele>
        <time>2026-07-08T09:40:32.000Z</time>
      </trkpt>
      <trkpt lat="45.78419" lon="1.85807">
        <ele>703.9</ele>
        <time>2026-07-08T09:40:33.000Z</time>
      </trkpt>
      <trkpt lat="45.78417" lon="1.85804">
        <ele>705.9</ele>
        <time>2026-07-08T09:40:34.000Z</time>
      </trkpt>
      <trkpt lat="45.78416" lon="1.85806">
        <ele>705.8</ele>
        <time>2026-07-08T09:40:35.000Z</time>
      </trkpt>
      <trkpt lat="45.78414" lon="1.85807">
        <ele>705.6</ele>
        <time>2026-07-08T09:40:36.000Z</time>
      </trkpt>
      <trkpt lat="45.78413" lon="1.85809">
        <ele>706.2</ele>
        <time>2026-07-08T09:40:37.000Z</time>
      </trkpt>
      <trkpt lat="45.78413" lon="1.8581">
        <ele>706.7</ele>
        <time>2026-07-08T09:40:38.000Z</time>
      </trkpt>
      <trkpt lat="45.78412" lon="1.8581">
        <ele>707.2</ele>
        <time>2026-07-08T09:40:39.000Z</time>
      </trkpt>
      <trkpt lat="45.78411" lon="1.85811">
        <ele>706.3</ele>
        <time>2026-07-08T09:40:40.000Z</time>
      </trkpt>
      <trkpt lat="45.78409" lon="1.85813">
        <ele>706.1</ele>
        <time>2026-07-08T09:40:41.000Z</time>
      </trkpt>
      <trkpt lat="45.78407" lon="1.85814">
        <ele>706.5</ele>
        <time>2026-07-08T09:40:42.000Z</time>
      </trkpt>
      <trkpt lat="45.78406" lon="1.85816">
        <ele>706.5</ele>
        <time>2026-07-08T09:40:43.000Z</time>
      </trkpt>
      <trkpt lat="45.78405" lon="1.85817">
        <ele>705.9</ele>
        <time>2026-07-08T09:40:44.000Z</time>
      </trkpt>
      <trkpt lat="45.78403" lon="1.85818">
        <ele>705.9</ele>
        <time>2026-07-08T09:40:45.000Z</time>
      </trkpt>
      <trkpt lat="45.78402" lon="1.8582">
        <ele>704.9</ele>
        <time>2026-07-08T09:40:46.000Z</time>
      </trkpt>
      <trkpt lat="45.784" lon="1.85822">
        <ele>704.4</ele>
        <time>2026-07-08T09:40:47.000Z</time>
      </trkpt>
      <trkpt lat="45.78399" lon="1.85823">
        <ele>705.8</ele>
        <time>2026-07-08T09:40:48.000Z</time>
      </trkpt>
      <trkpt lat="45.78398" lon="1.85825">
        <ele>706.5</ele>
        <time>2026-07-08T09:40:49.000Z</time>
      </trkpt>
      <trkpt lat="45.78396" lon="1.85827">
        <ele>707.1</ele>
        <time>2026-07-08T09:40:50.000Z</time>
      </trkpt>
      <trkpt lat="45.78395" lon="1.85829">
        <ele>706.7</ele>
        <time>2026-07-08T09:40:51.000Z</time>
      </trkpt>
      <trkpt lat="45.78393" lon="1.85831">
        <ele>706.3</ele>
        <time>2026-07-08T09:40:52.000Z</time>
      </trkpt>
      <trkpt lat="45.78392" lon="1.85831">
        <ele>705.3</ele>
        <time>2026-07-08T09:40:53.000Z</time>
      </trkpt>
      <trkpt lat="45.78391" lon="1.85833">
        <ele>705.6</ele>
        <time>2026-07-08T09:40:54.000Z</time>
      </trkpt>
      <trkpt lat="45.7839" lon="1.85834">
        <ele>705.5</ele>
        <time>2026-07-08T09:40:55.000Z</time>
      </trkpt>
      <trkpt lat="45.78389" lon="1.85835">
        <ele>705.5</ele>
        <time>2026-07-08T09:40:56.000Z</time>
      </trkpt>
      <trkpt lat="45.78388" lon="1.85836">
        <ele>705.5</ele>
        <time>2026-07-08T09:40:57.000Z</time>
      </trkpt>
      <trkpt lat="45.78386" lon="1.85837">
        <ele>705.3</ele>
        <time>2026-07-08T09:40:58.000Z</time>
      </trkpt>
      <trkpt lat="45.78384" lon="1.85837">
        <ele>705</ele>
        <time>2026-07-08T09:40:59.000Z</time>
      </trkpt>
      <trkpt lat="45.78383" lon="1.85838">
        <ele>705.1</ele>
        <time>2026-07-08T09:41:00.000Z</time>
      </trkpt>
      <trkpt lat="45.78381" lon="1.85839">
        <ele>705.6</ele>
        <time>2026-07-08T09:41:01.000Z</time>
      </trkpt>
      <trkpt lat="45.7838" lon="1.85839">
        <ele>706.3</ele>
        <time>2026-07-08T09:41:02.000Z</time>
      </trkpt>
      <trkpt lat="45.78378" lon="1.85838">
        <ele>705.9</ele>
        <time>2026-07-08T09:41:03.000Z</time>
      </trkpt>
      <trkpt lat="45.78376" lon="1.85839">
        <ele>706</ele>
        <time>2026-07-08T09:41:04.000Z</time>
      </trkpt>
      <trkpt lat="45.78375" lon="1.85838">
        <ele>705.3</ele>
        <time>2026-07-08T09:41:05.000Z</time>
      </trkpt>
      <trkpt lat="45.78373" lon="1.85838">
        <ele>705.6</ele>
        <time>2026-07-08T09:41:06.000Z</time>
      </trkpt>
      <trkpt lat="45.78371" lon="1.85839">
        <ele>705.4</ele>
        <time>2026-07-08T09:41:07.000Z</time>
      </trkpt>
      <trkpt lat="45.78369" lon="1.85839">
        <ele>704.6</ele>
        <time>2026-07-08T09:41:08.000Z</time>
      </trkpt>
      <trkpt lat="45.78367" lon="1.85839">
        <ele>705.2</ele>
        <time>2026-07-08T09:41:09.000Z</time>
      </trkpt>
      <trkpt lat="45.78365" lon="1.85839">
        <ele>703.7</ele>
        <time>2026-07-08T09:41:10.000Z</time>
      </trkpt>
      <trkpt lat="45.78363" lon="1.85839">
        <ele>703.4</ele>
        <time>2026-07-08T09:41:11.000Z</time>
      </trkpt>
      <trkpt lat="45.78361" lon="1.85839">
        <ele>704.1</ele>
        <time>2026-07-08T09:41:12.000Z</time>
      </trkpt>
      <trkpt lat="45.78359" lon="1.8584">
        <ele>703.1</ele>
        <time>2026-07-08T09:41:13.000Z</time>
      </trkpt>
      <trkpt lat="45.78357" lon="1.8584">
        <ele>703.1</ele>
        <time>2026-07-08T09:41:14.000Z</time>
      </trkpt>
      <trkpt lat="45.78354" lon="1.8584">
        <ele>704</ele>
        <time>2026-07-08T09:41:15.000Z</time>
      </trkpt>
      <trkpt lat="45.78351" lon="1.8584">
        <ele>703.8</ele>
        <time>2026-07-08T09:41:16.000Z</time>
      </trkpt>
      <trkpt lat="45.78349" lon="1.8584">
        <ele>704</ele>
        <time>2026-07-08T09:41:17.000Z</time>
      </trkpt>
      <trkpt lat="45.78346" lon="1.8584">
        <ele>704.7</ele>
        <time>2026-07-08T09:41:18.000Z</time>
      </trkpt>
      <trkpt lat="45.78344" lon="1.8584">
        <ele>704.6</ele>
        <time>2026-07-08T09:41:19.000Z</time>
      </trkpt>
      <trkpt lat="45.78342" lon="1.8584">
        <ele>703.8</ele>
        <time>2026-07-08T09:41:20.000Z</time>
      </trkpt>
      <trkpt lat="45.7834" lon="1.85841">
        <ele>703.8</ele>
        <time>2026-07-08T09:41:21.000Z</time>
      </trkpt>
      <trkpt lat="45.78339" lon="1.85841">
        <ele>704.3</ele>
        <time>2026-07-08T09:41:22.000Z</time>
      </trkpt>
      <trkpt lat="45.78337" lon="1.85841">
        <ele>704</ele>
        <time>2026-07-08T09:41:23.000Z</time>
      </trkpt>
      <trkpt lat="45.78336" lon="1.85842">
        <ele>703.9</ele>
        <time>2026-07-08T09:41:24.000Z</time>
      </trkpt>
      <trkpt lat="45.78334" lon="1.85842">
        <ele>704.3</ele>
        <time>2026-07-08T09:41:25.000Z</time>
      </trkpt>
      <trkpt lat="45.78332" lon="1.85842">
        <ele>704.9</ele>
        <time>2026-07-08T09:41:26.000Z</time>
      </trkpt>
      <trkpt lat="45.7833" lon="1.85841">
        <ele>705.2</ele>
        <time>2026-07-08T09:41:27.000Z</time>
      </trkpt>
      <trkpt lat="45.78329" lon="1.85841">
        <ele>705.1</ele>
        <time>2026-07-08T09:41:28.000Z</time>
      </trkpt>
      <trkpt lat="45.78327" lon="1.8584">
        <ele>705</ele>
        <time>2026-07-08T09:41:29.000Z</time>
      </trkpt>
      <trkpt lat="45.78325" lon="1.8584">
        <ele>704.9</ele>
        <time>2026-07-08T09:41:30.000Z</time>
      </trkpt>
      <trkpt lat="45.78324" lon="1.8584">
        <ele>704.8</ele>
        <time>2026-07-08T09:41:31.000Z</time>
      </trkpt>
      <trkpt lat="45.78323" lon="1.8584">
        <ele>705.6</ele>
        <time>2026-07-08T09:41:32.000Z</time>
      </trkpt>
      <trkpt lat="45.78321" lon="1.8584">
        <ele>704.8</ele>
        <time>2026-07-08T09:41:33.000Z</time>
      </trkpt>
      <trkpt lat="45.7832" lon="1.8584">
        <ele>705</ele>
        <time>2026-07-08T09:41:34.000Z</time>
      </trkpt>
      <trkpt lat="45.78318" lon="1.85841">
        <ele>704.8</ele>
        <time>2026-07-08T09:41:35.000Z</time>
      </trkpt>
      <trkpt lat="45.78317" lon="1.85841">
        <ele>704.9</ele>
        <time>2026-07-08T09:41:36.000Z</time>
      </trkpt>
      <trkpt lat="45.78315" lon="1.85841">
        <ele>703.8</ele>
        <time>2026-07-08T09:41:37.000Z</time>
      </trkpt>
      <trkpt lat="45.78313" lon="1.85841">
        <ele>703.5</ele>
        <time>2026-07-08T09:41:38.000Z</time>
      </trkpt>
      <trkpt lat="45.78311" lon="1.85839">
        <ele>703.5</ele>
        <time>2026-07-08T09:41:39.000Z</time>
      </trkpt>
      <trkpt lat="45.78309" lon="1.8584">
        <ele>703.8</ele>
        <time>2026-07-08T09:41:40.000Z</time>
      </trkpt>
      <trkpt lat="45.78307" lon="1.8584">
        <ele>704.2</ele>
        <time>2026-07-08T09:41:41.000Z</time>
      </trkpt>
      <trkpt lat="45.78305" lon="1.85841">
        <ele>704.8</ele>
        <time>2026-07-08T09:41:42.000Z</time>
      </trkpt>
      <trkpt lat="45.78304" lon="1.85843">
        <ele>705.2</ele>
        <time>2026-07-08T09:41:43.000Z</time>
      </trkpt>
      <trkpt lat="45.78303" lon="1.85845">
        <ele>706</ele>
        <time>2026-07-08T09:41:44.000Z</time>
      </trkpt>
      <trkpt lat="45.78303" lon="1.85847">
        <ele>704.8</ele>
        <time>2026-07-08T09:41:45.000Z</time>
      </trkpt>
      <trkpt lat="45.78302" lon="1.85849">
        <ele>703.9</ele>
        <time>2026-07-08T09:41:46.000Z</time>
      </trkpt>
      <trkpt lat="45.78303" lon="1.85852">
        <ele>703.7</ele>
        <time>2026-07-08T09:41:47.000Z</time>
      </trkpt>
      <trkpt lat="45.78303" lon="1.85854">
        <ele>703.8</ele>
        <time>2026-07-08T09:41:48.000Z</time>
      </trkpt>
      <trkpt lat="45.78303" lon="1.85856">
        <ele>703.8</ele>
        <time>2026-07-08T09:41:49.000Z</time>
      </trkpt>
      <trkpt lat="45.78303" lon="1.85858">
        <ele>704.3</ele>
        <time>2026-07-08T09:41:50.000Z</time>
      </trkpt>
      <trkpt lat="45.78303" lon="1.85861">
        <ele>705.1</ele>
        <time>2026-07-08T09:41:51.000Z</time>
      </trkpt>
      <trkpt lat="45.78302" lon="1.85863">
        <ele>705.1</ele>
        <time>2026-07-08T09:41:52.000Z</time>
      </trkpt>
      <trkpt lat="45.78301" lon="1.85865">
        <ele>704.3</ele>
        <time>2026-07-08T09:41:53.000Z</time>
      </trkpt>
      <trkpt lat="45.78303" lon="1.85868">
        <ele>704.4</ele>
        <time>2026-07-08T09:41:54.000Z</time>
      </trkpt>
      <trkpt lat="45.78304" lon="1.85871">
        <ele>703.4</ele>
        <time>2026-07-08T09:41:55.000Z</time>
      </trkpt>
      <trkpt lat="45.78305" lon="1.85873">
        <ele>703.4</ele>
        <time>2026-07-08T09:41:56.000Z</time>
      </trkpt>
      <trkpt lat="45.78307" lon="1.85875">
        <ele>703.3</ele>
        <time>2026-07-08T09:41:57.000Z</time>
      </trkpt>
      <trkpt lat="45.78307" lon="1.85877">
        <ele>702.2</ele>
        <time>2026-07-08T09:41:58.000Z</time>
      </trkpt>
      <trkpt lat="45.78309" lon="1.85878">
        <ele>703.1</ele>
        <time>2026-07-08T09:41:59.000Z</time>
      </trkpt>
      <trkpt lat="45.7831" lon="1.8588">
        <ele>702.5</ele>
        <time>2026-07-08T09:42:00.000Z</time>
      </trkpt>
      <trkpt lat="45.7831" lon="1.85882">
        <ele>702</ele>
        <time>2026-07-08T09:42:01.000Z</time>
      </trkpt>
      <trkpt lat="45.7831" lon="1.85884">
        <ele>701.9</ele>
        <time>2026-07-08T09:42:02.000Z</time>
      </trkpt>
      <trkpt lat="45.78309" lon="1.85886">
        <ele>702.4</ele>
        <time>2026-07-08T09:42:03.000Z</time>
      </trkpt>
      <trkpt lat="45.78308" lon="1.85888">
        <ele>702.6</ele>
        <time>2026-07-08T09:42:04.000Z</time>
      </trkpt>
      <trkpt lat="45.78306" lon="1.85889">
        <ele>702.7</ele>
        <time>2026-07-08T09:42:05.000Z</time>
      </trkpt>
      <trkpt lat="45.78305" lon="1.8589">
        <ele>702.9</ele>
        <time>2026-07-08T09:42:06.000Z</time>
      </trkpt>
      <trkpt lat="45.78304" lon="1.85893">
        <ele>702.7</ele>
        <time>2026-07-08T09:42:07.000Z</time>
      </trkpt>
      <trkpt lat="45.78303" lon="1.85895">
        <ele>702.4</ele>
        <time>2026-07-08T09:42:08.000Z</time>
      </trkpt>
      <trkpt lat="45.78302" lon="1.85898">
        <ele>702.1</ele>
        <time>2026-07-08T09:42:09.000Z</time>
      </trkpt>
      <trkpt lat="45.78303" lon="1.859">
        <ele>702.9</ele>
        <time>2026-07-08T09:42:10.000Z</time>
      </trkpt>
      <trkpt lat="45.78302" lon="1.85902">
        <ele>702.6</ele>
        <time>2026-07-08T09:42:11.000Z</time>
      </trkpt>
      <trkpt lat="45.78301" lon="1.85903">
        <ele>702.2</ele>
        <time>2026-07-08T09:42:12.000Z</time>
      </trkpt>
      <trkpt lat="45.783" lon="1.85903">
        <ele>701.5</ele>
        <time>2026-07-08T09:42:13.000Z</time>
      </trkpt>
      <trkpt lat="45.78299" lon="1.85903">
        <ele>702.6</ele>
        <time>2026-07-08T09:42:14.000Z</time>
      </trkpt>
      <trkpt lat="45.78299" lon="1.85904">
        <ele>702.9</ele>
        <time>2026-07-08T09:42:15.000Z</time>
      </trkpt>
      <trkpt lat="45.78298" lon="1.85905">
        <ele>703</ele>
        <time>2026-07-08T09:42:16.000Z</time>
      </trkpt>
      <trkpt lat="45.78296" lon="1.85906">
        <ele>703.2</ele>
        <time>2026-07-08T09:42:17.000Z</time>
      </trkpt>
      <trkpt lat="45.78295" lon="1.85906">
        <ele>705.7</ele>
        <time>2026-07-08T09:42:18.000Z</time>
      </trkpt>
      <trkpt lat="45.78293" lon="1.85905">
        <ele>705.3</ele>
        <time>2026-07-08T09:42:19.000Z</time>
      </trkpt>
      <trkpt lat="45.78292" lon="1.85903">
        <ele>705.6</ele>
        <time>2026-07-08T09:42:20.000Z</time>
      </trkpt>
      <trkpt lat="45.78292" lon="1.859">
        <ele>705.4</ele>
        <time>2026-07-08T09:42:21.000Z</time>
      </trkpt>
      <trkpt lat="45.78292" lon="1.85899">
        <ele>705.6</ele>
        <time>2026-07-08T09:42:22.000Z</time>
      </trkpt>
      <trkpt lat="45.78292" lon="1.85897">
        <ele>705.6</ele>
        <time>2026-07-08T09:42:23.000Z</time>
      </trkpt>
      <trkpt lat="45.78291" lon="1.85895">
        <ele>707.6</ele>
        <time>2026-07-08T09:42:24.000Z</time>
      </trkpt>
      <trkpt lat="45.7829" lon="1.85894">
        <ele>707.8</ele>
        <time>2026-07-08T09:42:25.000Z</time>
      </trkpt>
      <trkpt lat="45.7829" lon="1.85894">
        <ele>707.8</ele>
        <time>2026-07-08T09:42:26.000Z</time>
      </trkpt>
      <trkpt lat="45.7829" lon="1.85894">
        <ele>707.8</ele>
        <time>2026-07-08T09:42:27.000Z</time>
      </trkpt>
      <trkpt lat="45.7829" lon="1.85894">
        <ele>707.8</ele>
        <time>2026-07-08T09:42:28.000Z</time>
      </trkpt>
      <trkpt lat="45.7829" lon="1.85893">
        <ele>707.8</ele>
        <time>2026-07-08T09:42:29.000Z</time>
      </trkpt>
      <trkpt lat="45.7829" lon="1.85893">
        <ele>707.9</ele>
        <time>2026-07-08T09:42:30.000Z</time>
      </trkpt>
      <trkpt lat="45.7829" lon="1.85893">
        <ele>707.9</ele>
        <time>2026-07-08T09:42:31.000Z</time>
      </trkpt>
      <trkpt lat="45.7829" lon="1.85893">
        <ele>707.9</ele>
        <time>2026-07-08T09:42:32.000Z</time>
      </trkpt>
      <trkpt lat="45.7829" lon="1.85893">
        <ele>707.9</ele>
        <time>2026-07-08T09:42:33.000Z</time>
      </trkpt>
      <trkpt lat="45.7829" lon="1.85893">
        <ele>707.9</ele>
        <time>2026-07-08T09:42:34.000Z</time>
      </trkpt>
      <trkpt lat="45.7829" lon="1.85894">
        <ele>707.9</ele>
        <time>2026-07-08T09:42:35.000Z</time>
      </trkpt>
      <trkpt lat="45.78289" lon="1.85896">
        <ele>707.7</ele>
        <time>2026-07-08T09:42:36.000Z</time>
      </trkpt>
      <trkpt lat="45.78289" lon="1.85898">
        <ele>708.2</ele>
        <time>2026-07-08T09:42:37.000Z</time>
      </trkpt>
      <trkpt lat="45.78288" lon="1.859">
        <ele>708.9</ele>
        <time>2026-07-08T09:42:38.000Z</time>
      </trkpt>
      <trkpt lat="45.78286" lon="1.85901">
        <ele>710.2</ele>
        <time>2026-07-08T09:42:39.000Z</time>
      </trkpt>
      <trkpt lat="45.78285" lon="1.85903">
        <ele>709.9</ele>
        <time>2026-07-08T09:42:40.000Z</time>
      </trkpt>
      <trkpt lat="45.78284" lon="1.85904">
        <ele>709.6</ele>
        <time>2026-07-08T09:42:41.000Z</time>
      </trkpt>
      <trkpt lat="45.78283" lon="1.85905">
        <ele>709.7</ele>
        <time>2026-07-08T09:42:42.000Z</time>
      </trkpt>
      <trkpt lat="45.78281" lon="1.85906">
        <ele>710.4</ele>
        <time>2026-07-08T09:42:43.000Z</time>
      </trkpt>
      <trkpt lat="45.7828" lon="1.85908">
        <ele>710.6</ele>
        <time>2026-07-08T09:42:44.000Z</time>
      </trkpt>
      <trkpt lat="45.78279" lon="1.85909">
        <ele>710.6</ele>
        <time>2026-07-08T09:42:45.000Z</time>
      </trkpt>
      <trkpt lat="45.78278" lon="1.85911">
        <ele>710.5</ele>
        <time>2026-07-08T09:42:46.000Z</time>
      </trkpt>
      <trkpt lat="45.78276" lon="1.85913">
        <ele>710.2</ele>
        <time>2026-07-08T09:42:47.000Z</time>
      </trkpt>
      <trkpt lat="45.78275" lon="1.85915">
        <ele>709.6</ele>
        <time>2026-07-08T09:42:48.000Z</time>
      </trkpt>
      <trkpt lat="45.78274" lon="1.85916">
        <ele>708.6</ele>
        <time>2026-07-08T09:42:49.000Z</time>
      </trkpt>
      <trkpt lat="45.78273" lon="1.85918">
        <ele>707.9</ele>
        <time>2026-07-08T09:42:50.000Z</time>
      </trkpt>
      <trkpt lat="45.78272" lon="1.85919">
        <ele>707.6</ele>
        <time>2026-07-08T09:42:51.000Z</time>
      </trkpt>
      <trkpt lat="45.7827" lon="1.8592">
        <ele>706.4</ele>
        <time>2026-07-08T09:42:52.000Z</time>
      </trkpt>
      <trkpt lat="45.78269" lon="1.85921">
        <ele>705.3</ele>
        <time>2026-07-08T09:42:53.000Z</time>
      </trkpt>
      <trkpt lat="45.78268" lon="1.85922">
        <ele>704.3</ele>
        <time>2026-07-08T09:42:54.000Z</time>
      </trkpt>
      <trkpt lat="45.78266" lon="1.85923">
        <ele>703.8</ele>
        <time>2026-07-08T09:42:55.000Z</time>
      </trkpt>
      <trkpt lat="45.78265" lon="1.85924">
        <ele>704.5</ele>
        <time>2026-07-08T09:42:56.000Z</time>
      </trkpt>
      <trkpt lat="45.78264" lon="1.85925">
        <ele>704.8</ele>
        <time>2026-07-08T09:42:57.000Z</time>
      </trkpt>
      <trkpt lat="45.78263" lon="1.85927">
        <ele>705.6</ele>
        <time>2026-07-08T09:42:58.000Z</time>
      </trkpt>
      <trkpt lat="45.78262" lon="1.85928">
        <ele>706</ele>
        <time>2026-07-08T09:42:59.000Z</time>
      </trkpt>
      <trkpt lat="45.78261" lon="1.8593">
        <ele>705.9</ele>
        <time>2026-07-08T09:43:00.000Z</time>
      </trkpt>
      <trkpt lat="45.7826" lon="1.85931">
        <ele>707.1</ele>
        <time>2026-07-08T09:43:01.000Z</time>
      </trkpt>
      <trkpt lat="45.78259" lon="1.85932">
        <ele>706.9</ele>
        <time>2026-07-08T09:43:02.000Z</time>
      </trkpt>
      <trkpt lat="45.78258" lon="1.85933">
        <ele>706.9</ele>
        <time>2026-07-08T09:43:03.000Z</time>
      </trkpt>
      <trkpt lat="45.78257" lon="1.85933">
        <ele>708.4</ele>
        <time>2026-07-08T09:43:04.000Z</time>
      </trkpt>
      <trkpt lat="45.78255" lon="1.85934">
        <ele>708</ele>
        <time>2026-07-08T09:43:05.000Z</time>
      </trkpt>
      <trkpt lat="45.78254" lon="1.85935">
        <ele>707.8</ele>
        <time>2026-07-08T09:43:06.000Z</time>
      </trkpt>
      <trkpt lat="45.78252" lon="1.85937">
        <ele>707.9</ele>
        <time>2026-07-08T09:43:07.000Z</time>
      </trkpt>
      <trkpt lat="45.78251" lon="1.85938">
        <ele>708.4</ele>
        <time>2026-07-08T09:43:08.000Z</time>
      </trkpt>
      <trkpt lat="45.7825" lon="1.8594">
        <ele>708.4</ele>
        <time>2026-07-08T09:43:09.000Z</time>
      </trkpt>
      <trkpt lat="45.78249" lon="1.85941">
        <ele>708.8</ele>
        <time>2026-07-08T09:43:10.000Z</time>
      </trkpt>
      <trkpt lat="45.78247" lon="1.85942">
        <ele>709.3</ele>
        <time>2026-07-08T09:43:11.000Z</time>
      </trkpt>
      <trkpt lat="45.78246" lon="1.85944">
        <ele>709.5</ele>
        <time>2026-07-08T09:43:12.000Z</time>
      </trkpt>
      <trkpt lat="45.78245" lon="1.85944">
        <ele>710.4</ele>
        <time>2026-07-08T09:43:13.000Z</time>
      </trkpt>
      <trkpt lat="45.78243" lon="1.85945">
        <ele>711.4</ele>
        <time>2026-07-08T09:43:14.000Z</time>
      </trkpt>
      <trkpt lat="45.78242" lon="1.85946">
        <ele>711</ele>
        <time>2026-07-08T09:43:15.000Z</time>
      </trkpt>
      <trkpt lat="45.7824" lon="1.85947">
        <ele>710.7</ele>
        <time>2026-07-08T09:43:16.000Z</time>
      </trkpt>
      <trkpt lat="45.78239" lon="1.85948">
        <ele>710.5</ele>
        <time>2026-07-08T09:43:17.000Z</time>
      </trkpt>
      <trkpt lat="45.78238" lon="1.85949">
        <ele>710.4</ele>
        <time>2026-07-08T09:43:18.000Z</time>
      </trkpt>
      <trkpt lat="45.78237" lon="1.8595">
        <ele>710.1</ele>
        <time>2026-07-08T09:43:19.000Z</time>
      </trkpt>
      <trkpt lat="45.78235" lon="1.85951">
        <ele>709.3</ele>
        <time>2026-07-08T09:43:20.000Z</time>
      </trkpt>
      <trkpt lat="45.78233" lon="1.85951">
        <ele>709.5</ele>
        <time>2026-07-08T09:43:21.000Z</time>
      </trkpt>
      <trkpt lat="45.78232" lon="1.85951">
        <ele>709.1</ele>
        <time>2026-07-08T09:43:22.000Z</time>
      </trkpt>
      <trkpt lat="45.7823" lon="1.85952">
        <ele>708.8</ele>
        <time>2026-07-08T09:43:23.000Z</time>
      </trkpt>
      <trkpt lat="45.78228" lon="1.85952">
        <ele>708.3</ele>
        <time>2026-07-08T09:43:24.000Z</time>
      </trkpt>
      <trkpt lat="45.78227" lon="1.85953">
        <ele>708.2</ele>
        <time>2026-07-08T09:43:25.000Z</time>
      </trkpt>
      <trkpt lat="45.78225" lon="1.85953">
        <ele>709.5</ele>
        <time>2026-07-08T09:43:26.000Z</time>
      </trkpt>
      <trkpt lat="45.78224" lon="1.85954">
        <ele>709.7</ele>
        <time>2026-07-08T09:43:27.000Z</time>
      </trkpt>
      <trkpt lat="45.78222" lon="1.85956">
        <ele>709.1</ele>
        <time>2026-07-08T09:43:28.000Z</time>
      </trkpt>
      <trkpt lat="45.78221" lon="1.85957">
        <ele>707.9</ele>
        <time>2026-07-08T09:43:29.000Z</time>
      </trkpt>
      <trkpt lat="45.78219" lon="1.85958">
        <ele>707.9</ele>
        <time>2026-07-08T09:43:30.000Z</time>
      </trkpt>
      <trkpt lat="45.78218" lon="1.8596">
        <ele>707.6</ele>
        <time>2026-07-08T09:43:31.000Z</time>
      </trkpt>
      <trkpt lat="45.78217" lon="1.85961">
        <ele>706.4</ele>
        <time>2026-07-08T09:43:32.000Z</time>
      </trkpt>
      <trkpt lat="45.78215" lon="1.85962">
        <ele>705.4</ele>
        <time>2026-07-08T09:43:33.000Z</time>
      </trkpt>
      <trkpt lat="45.78214" lon="1.85964">
        <ele>705.4</ele>
        <time>2026-07-08T09:43:34.000Z</time>
      </trkpt>
      <trkpt lat="45.78213" lon="1.85965">
        <ele>704.4</ele>
        <time>2026-07-08T09:43:35.000Z</time>
      </trkpt>
      <trkpt lat="45.78212" lon="1.85967">
        <ele>704.9</ele>
        <time>2026-07-08T09:43:36.000Z</time>
      </trkpt>
      <trkpt lat="45.78211" lon="1.85968">
        <ele>704.8</ele>
        <time>2026-07-08T09:43:37.000Z</time>
      </trkpt>
      <trkpt lat="45.7821" lon="1.8597">
        <ele>704.2</ele>
        <time>2026-07-08T09:43:38.000Z</time>
      </trkpt>
      <trkpt lat="45.78208" lon="1.85972">
        <ele>703.5</ele>
        <time>2026-07-08T09:43:39.000Z</time>
      </trkpt>
      <trkpt lat="45.78207" lon="1.85973">
        <ele>703</ele>
        <time>2026-07-08T09:43:40.000Z</time>
      </trkpt>
      <trkpt lat="45.78206" lon="1.85975">
        <ele>703.3</ele>
        <time>2026-07-08T09:43:41.000Z</time>
      </trkpt>
      <trkpt lat="45.78205" lon="1.85976">
        <ele>703.6</ele>
        <time>2026-07-08T09:43:42.000Z</time>
      </trkpt>
      <trkpt lat="45.78204" lon="1.85977">
        <ele>704.7</ele>
        <time>2026-07-08T09:43:43.000Z</time>
      </trkpt>
      <trkpt lat="45.78202" lon="1.85978">
        <ele>705.4</ele>
        <time>2026-07-08T09:43:44.000Z</time>
      </trkpt>
      <trkpt lat="45.78201" lon="1.85979">
        <ele>705.3</ele>
        <time>2026-07-08T09:43:45.000Z</time>
      </trkpt>
      <trkpt lat="45.782" lon="1.85981">
        <ele>704.8</ele>
        <time>2026-07-08T09:43:46.000Z</time>
      </trkpt>
      <trkpt lat="45.78199" lon="1.85982">
        <ele>705.8</ele>
        <time>2026-07-08T09:43:47.000Z</time>
      </trkpt>
      <trkpt lat="45.78198" lon="1.85984">
        <ele>705.9</ele>
        <time>2026-07-08T09:43:48.000Z</time>
      </trkpt>
      <trkpt lat="45.78197" lon="1.85985">
        <ele>706.6</ele>
        <time>2026-07-08T09:43:49.000Z</time>
      </trkpt>
      <trkpt lat="45.78196" lon="1.85987">
        <ele>706.2</ele>
        <time>2026-07-08T09:43:50.000Z</time>
      </trkpt>
      <trkpt lat="45.78196" lon="1.85989">
        <ele>705.4</ele>
        <time>2026-07-08T09:43:51.000Z</time>
      </trkpt>
      <trkpt lat="45.78194" lon="1.85991">
        <ele>705.3</ele>
        <time>2026-07-08T09:43:52.000Z</time>
      </trkpt>
      <trkpt lat="45.78194" lon="1.85993">
        <ele>704.9</ele>
        <time>2026-07-08T09:43:53.000Z</time>
      </trkpt>
      <trkpt lat="45.78194" lon="1.85996">
        <ele>704.1</ele>
        <time>2026-07-08T09:43:54.000Z</time>
      </trkpt>
      <trkpt lat="45.78193" lon="1.85998">
        <ele>703.6</ele>
        <time>2026-07-08T09:43:55.000Z</time>
      </trkpt>
      <trkpt lat="45.78192" lon="1.85999">
        <ele>703.6</ele>
        <time>2026-07-08T09:43:56.000Z</time>
      </trkpt>
      <trkpt lat="45.78191" lon="1.86001">
        <ele>702.6</ele>
        <time>2026-07-08T09:43:57.000Z</time>
      </trkpt>
      <trkpt lat="45.78189" lon="1.86002">
        <ele>702.6</ele>
        <time>2026-07-08T09:43:58.000Z</time>
      </trkpt>
      <trkpt lat="45.78188" lon="1.86003">
        <ele>702.4</ele>
        <time>2026-07-08T09:43:59.000Z</time>
      </trkpt>
      <trkpt lat="45.78186" lon="1.86004">
        <ele>701</ele>
        <time>2026-07-08T09:44:00.000Z</time>
      </trkpt>
      <trkpt lat="45.78184" lon="1.86005">
        <ele>701</ele>
        <time>2026-07-08T09:44:01.000Z</time>
      </trkpt>
      <trkpt lat="45.78182" lon="1.86007">
        <ele>700.6</ele>
        <time>2026-07-08T09:44:02.000Z</time>
      </trkpt>
      <trkpt lat="45.78181" lon="1.86009">
        <ele>700.6</ele>
        <time>2026-07-08T09:44:03.000Z</time>
      </trkpt>
      <trkpt lat="45.7818" lon="1.86012">
        <ele>700.4</ele>
        <time>2026-07-08T09:44:04.000Z</time>
      </trkpt>
      <trkpt lat="45.78178" lon="1.86014">
        <ele>700.4</ele>
        <time>2026-07-08T09:44:05.000Z</time>
      </trkpt>
      <trkpt lat="45.78176" lon="1.86015">
        <ele>701.6</ele>
        <time>2026-07-08T09:44:06.000Z</time>
      </trkpt>
      <trkpt lat="45.78176" lon="1.86013">
        <ele>700.6</ele>
        <time>2026-07-08T09:44:07.000Z</time>
      </trkpt>
      <trkpt lat="45.78177" lon="1.86011">
        <ele>701</ele>
        <time>2026-07-08T09:44:08.000Z</time>
      </trkpt>
      <trkpt lat="45.78174" lon="1.86013">
        <ele>701.6</ele>
        <time>2026-07-08T09:44:09.000Z</time>
      </trkpt>
      <trkpt lat="45.78174" lon="1.86014">
        <ele>701.6</ele>
        <time>2026-07-08T09:44:10.000Z</time>
      </trkpt>
      <trkpt lat="45.78174" lon="1.86014">
        <ele>701.6</ele>
        <time>2026-07-08T09:44:11.000Z</time>
      </trkpt>
      <trkpt lat="45.78174" lon="1.86014">
        <ele>701.6</ele>
        <time>2026-07-08T09:44:12.000Z</time>
      </trkpt>
      <trkpt lat="45.78174" lon="1.86014">
        <ele>701.6</ele>
        <time>2026-07-08T09:44:13.000Z</time>
      </trkpt>
      <trkpt lat="45.78174" lon="1.86014">
        <ele>701.6</ele>
        <time>2026-07-08T09:44:14.000Z</time>
      </trkpt>
      <trkpt lat="45.78174" lon="1.86014">
        <ele>701.6</ele>
        <time>2026-07-08T09:44:15.000Z</time>
      </trkpt>
      <trkpt lat="45.78174" lon="1.86014">
        <ele>701.6</ele>
        <time>2026-07-08T09:44:16.000Z</time>
      </trkpt>
      <trkpt lat="45.78174" lon="1.86014">
        <ele>701.6</ele>
        <time>2026-07-08T09:44:17.000Z</time>
      </trkpt>
      <trkpt lat="45.78174" lon="1.86014">
        <ele>701.6</ele>
        <time>2026-07-08T09:44:18.000Z</time>
      </trkpt>
      <trkpt lat="45.78174" lon="1.86014">
        <ele>701.6</ele>
        <time>2026-07-08T09:44:19.000Z</time>
      </trkpt>
      <trkpt lat="45.78174" lon="1.86014">
        <ele>701.6</ele>
        <time>2026-07-08T09:44:20.000Z</time>
      </trkpt>
      <trkpt lat="45.78174" lon="1.86014">
        <ele>701.3</ele>
        <time>2026-07-08T09:44:21.000Z</time>
      </trkpt>
      <trkpt lat="45.78174" lon="1.86014">
        <ele>701.3</ele>
        <time>2026-07-08T09:44:22.000Z</time>
      </trkpt>
      <trkpt lat="45.78175" lon="1.86015">
        <ele>701.6</ele>
        <time>2026-07-08T09:44:23.000Z</time>
      </trkpt>
      <trkpt lat="45.78174" lon="1.86016">
        <ele>700.8</ele>
        <time>2026-07-08T09:44:24.000Z</time>
      </trkpt>
      <trkpt lat="45.78172" lon="1.86019">
        <ele>701.9</ele>
        <time>2026-07-08T09:44:25.000Z</time>
      </trkpt>
      <trkpt lat="45.7817" lon="1.86022">
        <ele>701.9</ele>
        <time>2026-07-08T09:44:26.000Z</time>
      </trkpt>
      <trkpt lat="45.78168" lon="1.86023">
        <ele>700.9</ele>
        <time>2026-07-08T09:44:27.000Z</time>
      </trkpt>
      <trkpt lat="45.78167" lon="1.86025">
        <ele>700.8</ele>
        <time>2026-07-08T09:44:28.000Z</time>
      </trkpt>
      <trkpt lat="45.78165" lon="1.86026">
        <ele>701.5</ele>
        <time>2026-07-08T09:44:29.000Z</time>
      </trkpt>
      <trkpt lat="45.78163" lon="1.86027">
        <ele>702.1</ele>
        <time>2026-07-08T09:44:30.000Z</time>
      </trkpt>
      <trkpt lat="45.78162" lon="1.86029">
        <ele>702.3</ele>
        <time>2026-07-08T09:44:31.000Z</time>
      </trkpt>
      <trkpt lat="45.78161" lon="1.8603">
        <ele>701.9</ele>
        <time>2026-07-08T09:44:32.000Z</time>
      </trkpt>
      <trkpt lat="45.7816" lon="1.86032">
        <ele>701.8</ele>
        <time>2026-07-08T09:44:33.000Z</time>
      </trkpt>
      <trkpt lat="45.78159" lon="1.86033">
        <ele>701.3</ele>
        <time>2026-07-08T09:44:34.000Z</time>
      </trkpt>
      <trkpt lat="45.78158" lon="1.86034">
        <ele>700.8</ele>
        <time>2026-07-08T09:44:35.000Z</time>
      </trkpt>
      <trkpt lat="45.78157" lon="1.86035">
        <ele>701.1</ele>
        <time>2026-07-08T09:44:36.000Z</time>
      </trkpt>
      <trkpt lat="45.78157" lon="1.86036">
        <ele>700.7</ele>
        <time>2026-07-08T09:44:37.000Z</time>
      </trkpt>
      <trkpt lat="45.78155" lon="1.86038">
        <ele>701</ele>
        <time>2026-07-08T09:44:38.000Z</time>
      </trkpt>
      <trkpt lat="45.78154" lon="1.86039">
        <ele>701.2</ele>
        <time>2026-07-08T09:44:39.000Z</time>
      </trkpt>
      <trkpt lat="45.78153" lon="1.86041">
        <ele>700.7</ele>
        <time>2026-07-08T09:44:40.000Z</time>
      </trkpt>
      <trkpt lat="45.78152" lon="1.86042">
        <ele>700.9</ele>
        <time>2026-07-08T09:44:41.000Z</time>
      </trkpt>
      <trkpt lat="45.78151" lon="1.86043">
        <ele>700.2</ele>
        <time>2026-07-08T09:44:42.000Z</time>
      </trkpt>
      <trkpt lat="45.7815" lon="1.86044">
        <ele>700.6</ele>
        <time>2026-07-08T09:44:43.000Z</time>
      </trkpt>
      <trkpt lat="45.78149" lon="1.86046">
        <ele>701.6</ele>
        <time>2026-07-08T09:44:44.000Z</time>
      </trkpt>
      <trkpt lat="45.78148" lon="1.86047">
        <ele>701.3</ele>
        <time>2026-07-08T09:44:45.000Z</time>
      </trkpt>
      <trkpt lat="45.78147" lon="1.86049">
        <ele>700.7</ele>
        <time>2026-07-08T09:44:46.000Z</time>
      </trkpt>
      <trkpt lat="45.78146" lon="1.86051">
        <ele>701.7</ele>
        <time>2026-07-08T09:44:47.000Z</time>
      </trkpt>
      <trkpt lat="45.78144" lon="1.86053">
        <ele>702.7</ele>
        <time>2026-07-08T09:44:48.000Z</time>
      </trkpt>
      <trkpt lat="45.78142" lon="1.86054">
        <ele>701.8</ele>
        <time>2026-07-08T09:44:49.000Z</time>
      </trkpt>
      <trkpt lat="45.78141" lon="1.86056">
        <ele>702.6</ele>
        <time>2026-07-08T09:44:50.000Z</time>
      </trkpt>
      <trkpt lat="45.78138" lon="1.86059">
        <ele>703.4</ele>
        <time>2026-07-08T09:44:51.000Z</time>
      </trkpt>
      <trkpt lat="45.78135" lon="1.86061">
        <ele>704.1</ele>
        <time>2026-07-08T09:44:52.000Z</time>
      </trkpt>
      <trkpt lat="45.78133" lon="1.86063">
        <ele>703.6</ele>
        <time>2026-07-08T09:44:53.000Z</time>
      </trkpt>
      <trkpt lat="45.78132" lon="1.86064">
        <ele>705.2</ele>
        <time>2026-07-08T09:44:54.000Z</time>
      </trkpt>
      <trkpt lat="45.78129" lon="1.86066">
        <ele>705.8</ele>
        <time>2026-07-08T09:44:55.000Z</time>
      </trkpt>
      <trkpt lat="45.78128" lon="1.86067">
        <ele>705.5</ele>
        <time>2026-07-08T09:44:56.000Z</time>
      </trkpt>
      <trkpt lat="45.78127" lon="1.8607">
        <ele>705.7</ele>
        <time>2026-07-08T09:44:57.000Z</time>
      </trkpt>
      <trkpt lat="45.78127" lon="1.86073">
        <ele>705.7</ele>
        <time>2026-07-08T09:44:58.000Z</time>
      </trkpt>
      <trkpt lat="45.78127" lon="1.86076">
        <ele>705.8</ele>
        <time>2026-07-08T09:44:59.000Z</time>
      </trkpt>
      <trkpt lat="45.78127" lon="1.86078">
        <ele>706.3</ele>
        <time>2026-07-08T09:45:00.000Z</time>
      </trkpt>
      <trkpt lat="45.78127" lon="1.86081">
        <ele>705.7</ele>
        <time>2026-07-08T09:45:01.000Z</time>
      </trkpt>
      <trkpt lat="45.78128" lon="1.86083">
        <ele>705.7</ele>
        <time>2026-07-08T09:45:02.000Z</time>
      </trkpt>
      <trkpt lat="45.78128" lon="1.86085">
        <ele>705.5</ele>
        <time>2026-07-08T09:45:03.000Z</time>
      </trkpt>
      <trkpt lat="45.78127" lon="1.86087">
        <ele>705.7</ele>
        <time>2026-07-08T09:45:04.000Z</time>
      </trkpt>
      <trkpt lat="45.78127" lon="1.8609">
        <ele>705.8</ele>
        <time>2026-07-08T09:45:05.000Z</time>
      </trkpt>
      <trkpt lat="45.78126" lon="1.86092">
        <ele>705.6</ele>
        <time>2026-07-08T09:45:06.000Z</time>
      </trkpt>
      <trkpt lat="45.78125" lon="1.86095">
        <ele>706.1</ele>
        <time>2026-07-08T09:45:07.000Z</time>
      </trkpt>
      <trkpt lat="45.78125" lon="1.86097">
        <ele>706.4</ele>
        <time>2026-07-08T09:45:08.000Z</time>
      </trkpt>
      <trkpt lat="45.78125" lon="1.86099">
        <ele>706.6</ele>
        <time>2026-07-08T09:45:09.000Z</time>
      </trkpt>
      <trkpt lat="45.78124" lon="1.86101">
        <ele>707.3</ele>
        <time>2026-07-08T09:45:10.000Z</time>
      </trkpt>
      <trkpt lat="45.78124" lon="1.86103">
        <ele>707.6</ele>
        <time>2026-07-08T09:45:11.000Z</time>
      </trkpt>
      <trkpt lat="45.78124" lon="1.86106">
        <ele>707.6</ele>
        <time>2026-07-08T09:45:12.000Z</time>
      </trkpt>
      <trkpt lat="45.78123" lon="1.86108">
        <ele>707.8</ele>
        <time>2026-07-08T09:45:13.000Z</time>
      </trkpt>
      <trkpt lat="45.78123" lon="1.8611">
        <ele>706.9</ele>
        <time>2026-07-08T09:45:14.000Z</time>
      </trkpt>
      <trkpt lat="45.78122" lon="1.86113">
        <ele>706.1</ele>
        <time>2026-07-08T09:45:15.000Z</time>
      </trkpt>
      <trkpt lat="45.78122" lon="1.86115">
        <ele>706.9</ele>
        <time>2026-07-08T09:45:16.000Z</time>
      </trkpt>
      <trkpt lat="45.78122" lon="1.86117">
        <ele>707.1</ele>
        <time>2026-07-08T09:45:17.000Z</time>
      </trkpt>
      <trkpt lat="45.78121" lon="1.86119">
        <ele>707</ele>
        <time>2026-07-08T09:45:18.000Z</time>
      </trkpt>
      <trkpt lat="45.7812" lon="1.86122">
        <ele>706.4</ele>
        <time>2026-07-08T09:45:19.000Z</time>
      </trkpt>
      <trkpt lat="45.7812" lon="1.86124">
        <ele>706.1</ele>
        <time>2026-07-08T09:45:20.000Z</time>
      </trkpt>
      <trkpt lat="45.7812" lon="1.86127">
        <ele>706.4</ele>
        <time>2026-07-08T09:45:21.000Z</time>
      </trkpt>
      <trkpt lat="45.78119" lon="1.86129">
        <ele>706.6</ele>
        <time>2026-07-08T09:45:22.000Z</time>
      </trkpt>
      <trkpt lat="45.78119" lon="1.86131">
        <ele>706.3</ele>
        <time>2026-07-08T09:45:23.000Z</time>
      </trkpt>
      <trkpt lat="45.78119" lon="1.86134">
        <ele>706.2</ele>
        <time>2026-07-08T09:45:24.000Z</time>
      </trkpt>
      <trkpt lat="45.78119" lon="1.86136">
        <ele>705.9</ele>
        <time>2026-07-08T09:45:25.000Z</time>
      </trkpt>
      <trkpt lat="45.78119" lon="1.86139">
        <ele>706.4</ele>
        <time>2026-07-08T09:45:26.000Z</time>
      </trkpt>
      <trkpt lat="45.78118" lon="1.86141">
        <ele>706.5</ele>
        <time>2026-07-08T09:45:27.000Z</time>
      </trkpt>
      <trkpt lat="45.78118" lon="1.86144">
        <ele>707.2</ele>
        <time>2026-07-08T09:45:28.000Z</time>
      </trkpt>
      <trkpt lat="45.78117" lon="1.86146">
        <ele>706.7</ele>
        <time>2026-07-08T09:45:29.000Z</time>
      </trkpt>
      <trkpt lat="45.78115" lon="1.86148">
        <ele>706.8</ele>
        <time>2026-07-08T09:45:30.000Z</time>
      </trkpt>
      <trkpt lat="45.78115" lon="1.8615">
        <ele>706.4</ele>
        <time>2026-07-08T09:45:31.000Z</time>
      </trkpt>
      <trkpt lat="45.78114" lon="1.86152">
        <ele>705.8</ele>
        <time>2026-07-08T09:45:32.000Z</time>
      </trkpt>
      <trkpt lat="45.78113" lon="1.86154">
        <ele>705.8</ele>
        <time>2026-07-08T09:45:33.000Z</time>
      </trkpt>
      <trkpt lat="45.78112" lon="1.86156">
        <ele>705.9</ele>
        <time>2026-07-08T09:45:34.000Z</time>
      </trkpt>
      <trkpt lat="45.78112" lon="1.86159">
        <ele>705.8</ele>
        <time>2026-07-08T09:45:35.000Z</time>
      </trkpt>
      <trkpt lat="45.78112" lon="1.86161">
        <ele>705.9</ele>
        <time>2026-07-08T09:45:36.000Z</time>
      </trkpt>
      <trkpt lat="45.78111" lon="1.86164">
        <ele>705.9</ele>
        <time>2026-07-08T09:45:37.000Z</time>
      </trkpt>
      <trkpt lat="45.78112" lon="1.86166">
        <ele>705.9</ele>
        <time>2026-07-08T09:45:38.000Z</time>
      </trkpt>
      <trkpt lat="45.78112" lon="1.86168">
        <ele>706.5</ele>
        <time>2026-07-08T09:45:39.000Z</time>
      </trkpt>
      <trkpt lat="45.78112" lon="1.86171">
        <ele>706.5</ele>
        <time>2026-07-08T09:45:40.000Z</time>
      </trkpt>
      <trkpt lat="45.78112" lon="1.86174">
        <ele>706.4</ele>
        <time>2026-07-08T09:45:41.000Z</time>
      </trkpt>
      <trkpt lat="45.78112" lon="1.86176">
        <ele>705.8</ele>
        <time>2026-07-08T09:45:42.000Z</time>
      </trkpt>
      <trkpt lat="45.78112" lon="1.86178">
        <ele>705.9</ele>
        <time>2026-07-08T09:45:43.000Z</time>
      </trkpt>
      <trkpt lat="45.78112" lon="1.86181">
        <ele>705.9</ele>
        <time>2026-07-08T09:45:44.000Z</time>
      </trkpt>
      <trkpt lat="45.78111" lon="1.86184">
        <ele>706.6</ele>
        <time>2026-07-08T09:45:45.000Z</time>
      </trkpt>
      <trkpt lat="45.7811" lon="1.86186">
        <ele>706.8</ele>
        <time>2026-07-08T09:45:46.000Z</time>
      </trkpt>
      <trkpt lat="45.78109" lon="1.86188">
        <ele>707.1</ele>
        <time>2026-07-08T09:45:47.000Z</time>
      </trkpt>
      <trkpt lat="45.78108" lon="1.86191">
        <ele>706.9</ele>
        <time>2026-07-08T09:45:48.000Z</time>
      </trkpt>
      <trkpt lat="45.78107" lon="1.86193">
        <ele>707</ele>
        <time>2026-07-08T09:45:49.000Z</time>
      </trkpt>
      <trkpt lat="45.78107" lon="1.86195">
        <ele>706.7</ele>
        <time>2026-07-08T09:45:50.000Z</time>
      </trkpt>
      <trkpt lat="45.78106" lon="1.86198">
        <ele>707.2</ele>
        <time>2026-07-08T09:45:51.000Z</time>
      </trkpt>
      <trkpt lat="45.78106" lon="1.862">
        <ele>706.9</ele>
        <time>2026-07-08T09:45:52.000Z</time>
      </trkpt>
      <trkpt lat="45.78106" lon="1.86203">
        <ele>707.1</ele>
        <time>2026-07-08T09:45:53.000Z</time>
      </trkpt>
      <trkpt lat="45.78106" lon="1.86205">
        <ele>707.5</ele>
        <time>2026-07-08T09:45:54.000Z</time>
      </trkpt>
      <trkpt lat="45.78106" lon="1.86208">
        <ele>707.4</ele>
        <time>2026-07-08T09:45:55.000Z</time>
      </trkpt>
      <trkpt lat="45.78106" lon="1.8621">
        <ele>707.7</ele>
        <time>2026-07-08T09:45:56.000Z</time>
      </trkpt>
      <trkpt lat="45.78105" lon="1.86213">
        <ele>707.7</ele>
        <time>2026-07-08T09:45:57.000Z</time>
      </trkpt>
      <trkpt lat="45.78105" lon="1.86216">
        <ele>706.9</ele>
        <time>2026-07-08T09:45:58.000Z</time>
      </trkpt>
      <trkpt lat="45.78103" lon="1.86218">
        <ele>708.4</ele>
        <time>2026-07-08T09:45:59.000Z</time>
      </trkpt>
      <trkpt lat="45.78102" lon="1.8622">
        <ele>708.1</ele>
        <time>2026-07-08T09:46:00.000Z</time>
      </trkpt>
      <trkpt lat="45.78101" lon="1.86222">
        <ele>708</ele>
        <time>2026-07-08T09:46:01.000Z</time>
      </trkpt>
      <trkpt lat="45.781" lon="1.86224">
        <ele>707.9</ele>
        <time>2026-07-08T09:46:02.000Z</time>
      </trkpt>
      <trkpt lat="45.78099" lon="1.86227">
        <ele>707.7</ele>
        <time>2026-07-08T09:46:03.000Z</time>
      </trkpt>
      <trkpt lat="45.78099" lon="1.8623">
        <ele>708.2</ele>
        <time>2026-07-08T09:46:04.000Z</time>
      </trkpt>
      <trkpt lat="45.78099" lon="1.86232">
        <ele>707.6</ele>
        <time>2026-07-08T09:46:05.000Z</time>
      </trkpt>
      <trkpt lat="45.78099" lon="1.86235">
        <ele>707.9</ele>
        <time>2026-07-08T09:46:06.000Z</time>
      </trkpt>
      <trkpt lat="45.78099" lon="1.86238">
        <ele>707.6</ele>
        <time>2026-07-08T09:46:07.000Z</time>
      </trkpt>
      <trkpt lat="45.78099" lon="1.86241">
        <ele>707.1</ele>
        <time>2026-07-08T09:46:08.000Z</time>
      </trkpt>
      <trkpt lat="45.78099" lon="1.86244">
        <ele>707.3</ele>
        <time>2026-07-08T09:46:09.000Z</time>
      </trkpt>
      <trkpt lat="45.78099" lon="1.86247">
        <ele>707</ele>
        <time>2026-07-08T09:46:10.000Z</time>
      </trkpt>
      <trkpt lat="45.78098" lon="1.8625">
        <ele>707.2</ele>
        <time>2026-07-08T09:46:11.000Z</time>
      </trkpt>
      <trkpt lat="45.78098" lon="1.86252">
        <ele>707.2</ele>
        <time>2026-07-08T09:46:12.000Z</time>
      </trkpt>
      <trkpt lat="45.78098" lon="1.86255">
        <ele>707.2</ele>
        <time>2026-07-08T09:46:13.000Z</time>
      </trkpt>
      <trkpt lat="45.78098" lon="1.86257">
        <ele>707.8</ele>
        <time>2026-07-08T09:46:14.000Z</time>
      </trkpt>
      <trkpt lat="45.78098" lon="1.8626">
        <ele>707.7</ele>
        <time>2026-07-08T09:46:15.000Z</time>
      </trkpt>
      <trkpt lat="45.78097" lon="1.86262">
        <ele>707.4</ele>
        <time>2026-07-08T09:46:16.000Z</time>
      </trkpt>
      <trkpt lat="45.78097" lon="1.86265">
        <ele>707.2</ele>
        <time>2026-07-08T09:46:17.000Z</time>
      </trkpt>
      <trkpt lat="45.78096" lon="1.86267">
        <ele>707.3</ele>
        <time>2026-07-08T09:46:18.000Z</time>
      </trkpt>
      <trkpt lat="45.78096" lon="1.8627">
        <ele>707.3</ele>
        <time>2026-07-08T09:46:19.000Z</time>
      </trkpt>
      <trkpt lat="45.78095" lon="1.86272">
        <ele>708.2</ele>
        <time>2026-07-08T09:46:20.000Z</time>
      </trkpt>
      <trkpt lat="45.78095" lon="1.86275">
        <ele>708.3</ele>
        <time>2026-07-08T09:46:21.000Z</time>
      </trkpt>
      <trkpt lat="45.78095" lon="1.86277">
        <ele>708.4</ele>
        <time>2026-07-08T09:46:22.000Z</time>
      </trkpt>
      <trkpt lat="45.78094" lon="1.8628">
        <ele>708.6</ele>
        <time>2026-07-08T09:46:23.000Z</time>
      </trkpt>
      <trkpt lat="45.78094" lon="1.86282">
        <ele>708.3</ele>
        <time>2026-07-08T09:46:24.000Z</time>
      </trkpt>
      <trkpt lat="45.78094" lon="1.86285">
        <ele>708.1</ele>
        <time>2026-07-08T09:46:25.000Z</time>
      </trkpt>
      <trkpt lat="45.78094" lon="1.86287">
        <ele>707.8</ele>
        <time>2026-07-08T09:46:26.000Z</time>
      </trkpt>
      <trkpt lat="45.78093" lon="1.8629">
        <ele>708</ele>
        <time>2026-07-08T09:46:27.000Z</time>
      </trkpt>
      <trkpt lat="45.78093" lon="1.86292">
        <ele>708.3</ele>
        <time>2026-07-08T09:46:28.000Z</time>
      </trkpt>
      <trkpt lat="45.78092" lon="1.86295">
        <ele>708.1</ele>
        <time>2026-07-08T09:46:29.000Z</time>
      </trkpt>
      <trkpt lat="45.78092" lon="1.86297">
        <ele>707.7</ele>
        <time>2026-07-08T09:46:30.000Z</time>
      </trkpt>
      <trkpt lat="45.78092" lon="1.863">
        <ele>707.5</ele>
        <time>2026-07-08T09:46:31.000Z</time>
      </trkpt>
      <trkpt lat="45.78091" lon="1.86302">
        <ele>707.9</ele>
        <time>2026-07-08T09:46:32.000Z</time>
      </trkpt>
      <trkpt lat="45.7809" lon="1.86305">
        <ele>707.7</ele>
        <time>2026-07-08T09:46:33.000Z</time>
      </trkpt>
      <trkpt lat="45.7809" lon="1.86307">
        <ele>708.3</ele>
        <time>2026-07-08T09:46:34.000Z</time>
      </trkpt>
      <trkpt lat="45.7809" lon="1.8631">
        <ele>707.5</ele>
        <time>2026-07-08T09:46:35.000Z</time>
      </trkpt>
      <trkpt lat="45.78089" lon="1.86313">
        <ele>707</ele>
        <time>2026-07-08T09:46:36.000Z</time>
      </trkpt>
      <trkpt lat="45.78089" lon="1.86316">
        <ele>706.9</ele>
        <time>2026-07-08T09:46:37.000Z</time>
      </trkpt>
      <trkpt lat="45.78088" lon="1.86318">
        <ele>706.7</ele>
        <time>2026-07-08T09:46:38.000Z</time>
      </trkpt>
      <trkpt lat="45.78087" lon="1.86321">
        <ele>707.2</ele>
        <time>2026-07-08T09:46:39.000Z</time>
      </trkpt>
      <trkpt lat="45.78087" lon="1.86324">
        <ele>707.8</ele>
        <time>2026-07-08T09:46:40.000Z</time>
      </trkpt>
      <trkpt lat="45.78087" lon="1.86326">
        <ele>707.9</ele>
        <time>2026-07-08T09:46:41.000Z</time>
      </trkpt>
      <trkpt lat="45.78086" lon="1.86329">
        <ele>708.5</ele>
        <time>2026-07-08T09:46:42.000Z</time>
      </trkpt>
      <trkpt lat="45.78085" lon="1.86332">
        <ele>708.8</ele>
        <time>2026-07-08T09:46:43.000Z</time>
      </trkpt>
      <trkpt lat="45.78085" lon="1.86334">
        <ele>708.8</ele>
        <time>2026-07-08T09:46:44.000Z</time>
      </trkpt>
      <trkpt lat="45.78085" lon="1.86337">
        <ele>708.9</ele>
        <time>2026-07-08T09:46:45.000Z</time>
      </trkpt>
      <trkpt lat="45.78084" lon="1.8634">
        <ele>708.6</ele>
        <time>2026-07-08T09:46:46.000Z</time>
      </trkpt>
      <trkpt lat="45.78084" lon="1.86343">
        <ele>709.5</ele>
        <time>2026-07-08T09:46:47.000Z</time>
      </trkpt>
      <trkpt lat="45.78083" lon="1.86345">
        <ele>709.2</ele>
        <time>2026-07-08T09:46:48.000Z</time>
      </trkpt>
      <trkpt lat="45.78083" lon="1.86348">
        <ele>708.4</ele>
        <time>2026-07-08T09:46:49.000Z</time>
      </trkpt>
      <trkpt lat="45.78083" lon="1.8635">
        <ele>708.5</ele>
        <time>2026-07-08T09:46:50.000Z</time>
      </trkpt>
      <trkpt lat="45.78082" lon="1.86352">
        <ele>708.5</ele>
        <time>2026-07-08T09:46:51.000Z</time>
      </trkpt>
      <trkpt lat="45.78082" lon="1.86354">
        <ele>709.1</ele>
        <time>2026-07-08T09:46:52.000Z</time>
      </trkpt>
      <trkpt lat="45.78082" lon="1.86357">
        <ele>709</ele>
        <time>2026-07-08T09:46:53.000Z</time>
      </trkpt>
      <trkpt lat="45.78081" lon="1.8636">
        <ele>709.3</ele>
        <time>2026-07-08T09:46:54.000Z</time>
      </trkpt>
      <trkpt lat="45.78081" lon="1.86362">
        <ele>709.3</ele>
        <time>2026-07-08T09:46:55.000Z</time>
      </trkpt>
      <trkpt lat="45.7808" lon="1.86365">
        <ele>709.2</ele>
        <time>2026-07-08T09:46:56.000Z</time>
      </trkpt>
      <trkpt lat="45.7808" lon="1.86367">
        <ele>709.4</ele>
        <time>2026-07-08T09:46:57.000Z</time>
      </trkpt>
      <trkpt lat="45.78079" lon="1.8637">
        <ele>709.6</ele>
        <time>2026-07-08T09:46:58.000Z</time>
      </trkpt>
      <trkpt lat="45.78079" lon="1.86373">
        <ele>709.5</ele>
        <time>2026-07-08T09:46:59.000Z</time>
      </trkpt>
      <trkpt lat="45.78079" lon="1.86375">
        <ele>709.6</ele>
        <time>2026-07-08T09:47:00.000Z</time>
      </trkpt>
      <trkpt lat="45.78078" lon="1.86377">
        <ele>709.2</ele>
        <time>2026-07-08T09:47:01.000Z</time>
      </trkpt>
      <trkpt lat="45.78077" lon="1.86379">
        <ele>709.3</ele>
        <time>2026-07-08T09:47:02.000Z</time>
      </trkpt>
      <trkpt lat="45.78077" lon="1.86381">
        <ele>709.1</ele>
        <time>2026-07-08T09:47:03.000Z</time>
      </trkpt>
      <trkpt lat="45.78077" lon="1.86384">
        <ele>708.1</ele>
        <time>2026-07-08T09:47:04.000Z</time>
      </trkpt>
      <trkpt lat="45.78076" lon="1.86386">
        <ele>707.7</ele>
        <time>2026-07-08T09:47:05.000Z</time>
      </trkpt>
      <trkpt lat="45.78076" lon="1.86388">
        <ele>708</ele>
        <time>2026-07-08T09:47:06.000Z</time>
      </trkpt>
      <trkpt lat="45.78076" lon="1.8639">
        <ele>708.7</ele>
        <time>2026-07-08T09:47:07.000Z</time>
      </trkpt>
      <trkpt lat="45.78076" lon="1.86392">
        <ele>707.9</ele>
        <time>2026-07-08T09:47:08.000Z</time>
      </trkpt>
      <trkpt lat="45.78075" lon="1.86394">
        <ele>707.7</ele>
        <time>2026-07-08T09:47:09.000Z</time>
      </trkpt>
      <trkpt lat="45.78075" lon="1.86396">
        <ele>707.6</ele>
        <time>2026-07-08T09:47:10.000Z</time>
      </trkpt>
      <trkpt lat="45.78074" lon="1.86398">
        <ele>708.2</ele>
        <time>2026-07-08T09:47:11.000Z</time>
      </trkpt>
      <trkpt lat="45.78074" lon="1.86401">
        <ele>707.7</ele>
        <time>2026-07-08T09:47:12.000Z</time>
      </trkpt>
      <trkpt lat="45.78073" lon="1.86403">
        <ele>708.1</ele>
        <time>2026-07-08T09:47:13.000Z</time>
      </trkpt>
      <trkpt lat="45.78073" lon="1.86406">
        <ele>708.9</ele>
        <time>2026-07-08T09:47:14.000Z</time>
      </trkpt>
      <trkpt lat="45.78072" lon="1.86408">
        <ele>709.2</ele>
        <time>2026-07-08T09:47:15.000Z</time>
      </trkpt>
      <trkpt lat="45.78072" lon="1.86411">
        <ele>709.4</ele>
        <time>2026-07-08T09:47:16.000Z</time>
      </trkpt>
      <trkpt lat="45.78072" lon="1.86413">
        <ele>709.2</ele>
        <time>2026-07-08T09:47:17.000Z</time>
      </trkpt>
      <trkpt lat="45.78071" lon="1.86416">
        <ele>709.5</ele>
        <time>2026-07-08T09:47:18.000Z</time>
      </trkpt>
      <trkpt lat="45.78071" lon="1.86418">
        <ele>709.7</ele>
        <time>2026-07-08T09:47:19.000Z</time>
      </trkpt>
      <trkpt lat="45.7807" lon="1.8642">
        <ele>709.8</ele>
        <time>2026-07-08T09:47:20.000Z</time>
      </trkpt>
      <trkpt lat="45.7807" lon="1.86423">
        <ele>709.9</ele>
        <time>2026-07-08T09:47:21.000Z</time>
      </trkpt>
      <trkpt lat="45.7807" lon="1.86425">
        <ele>710.1</ele>
        <time>2026-07-08T09:47:22.000Z</time>
      </trkpt>
      <trkpt lat="45.78069" lon="1.86427">
        <ele>710.5</ele>
        <time>2026-07-08T09:47:23.000Z</time>
      </trkpt>
      <trkpt lat="45.78069" lon="1.8643">
        <ele>710.5</ele>
        <time>2026-07-08T09:47:24.000Z</time>
      </trkpt>
      <trkpt lat="45.78069" lon="1.86432">
        <ele>710.7</ele>
        <time>2026-07-08T09:47:25.000Z</time>
      </trkpt>
      <trkpt lat="45.78069" lon="1.86434">
        <ele>710.8</ele>
        <time>2026-07-08T09:47:26.000Z</time>
      </trkpt>
      <trkpt lat="45.78068" lon="1.86436">
        <ele>710.6</ele>
        <time>2026-07-08T09:47:27.000Z</time>
      </trkpt>
      <trkpt lat="45.78068" lon="1.86439">
        <ele>710.5</ele>
        <time>2026-07-08T09:47:28.000Z</time>
      </trkpt>
      <trkpt lat="45.78068" lon="1.86442">
        <ele>711.1</ele>
        <time>2026-07-08T09:47:29.000Z</time>
      </trkpt>
      <trkpt lat="45.78067" lon="1.86444">
        <ele>711</ele>
        <time>2026-07-08T09:47:30.000Z</time>
      </trkpt>
      <trkpt lat="45.78067" lon="1.86447">
        <ele>710.8</ele>
        <time>2026-07-08T09:47:31.000Z</time>
      </trkpt>
      <trkpt lat="45.78066" lon="1.86449">
        <ele>711</ele>
        <time>2026-07-08T09:47:32.000Z</time>
      </trkpt>
      <trkpt lat="45.78066" lon="1.86452">
        <ele>711</ele>
        <time>2026-07-08T09:47:33.000Z</time>
      </trkpt>
      <trkpt lat="45.78065" lon="1.86454">
        <ele>711.1</ele>
        <time>2026-07-08T09:47:34.000Z</time>
      </trkpt>
      <trkpt lat="45.78065" lon="1.86457">
        <ele>710.7</ele>
        <time>2026-07-08T09:47:35.000Z</time>
      </trkpt>
      <trkpt lat="45.78064" lon="1.86459">
        <ele>710.3</ele>
        <time>2026-07-08T09:47:36.000Z</time>
      </trkpt>
      <trkpt lat="45.78063" lon="1.86462">
        <ele>710.1</ele>
        <time>2026-07-08T09:47:37.000Z</time>
      </trkpt>
      <trkpt lat="45.78063" lon="1.86465">
        <ele>711.3</ele>
        <time>2026-07-08T09:47:38.000Z</time>
      </trkpt>
      <trkpt lat="45.78062" lon="1.86467">
        <ele>710.9</ele>
        <time>2026-07-08T09:47:39.000Z</time>
      </trkpt>
      <trkpt lat="45.78061" lon="1.8647">
        <ele>711.1</ele>
        <time>2026-07-08T09:47:40.000Z</time>
      </trkpt>
      <trkpt lat="45.78061" lon="1.86473">
        <ele>711.3</ele>
        <time>2026-07-08T09:47:41.000Z</time>
      </trkpt>
      <trkpt lat="45.78061" lon="1.86475">
        <ele>711.3</ele>
        <time>2026-07-08T09:47:42.000Z</time>
      </trkpt>
      <trkpt lat="45.7806" lon="1.86477">
        <ele>711.1</ele>
        <time>2026-07-08T09:47:43.000Z</time>
      </trkpt>
      <trkpt lat="45.7806" lon="1.8648">
        <ele>711</ele>
        <time>2026-07-08T09:47:44.000Z</time>
      </trkpt>
      <trkpt lat="45.78059" lon="1.86482">
        <ele>711.1</ele>
        <time>2026-07-08T09:47:45.000Z</time>
      </trkpt>
      <trkpt lat="45.78058" lon="1.86484">
        <ele>711.2</ele>
        <time>2026-07-08T09:47:46.000Z</time>
      </trkpt>
      <trkpt lat="45.7806" lon="1.86487">
        <ele>711.4</ele>
        <time>2026-07-08T09:47:47.000Z</time>
      </trkpt>
      <trkpt lat="45.78061" lon="1.86489">
        <ele>712</ele>
        <time>2026-07-08T09:47:48.000Z</time>
      </trkpt>
      <trkpt lat="45.78063" lon="1.86489">
        <ele>712.1</ele>
        <time>2026-07-08T09:47:49.000Z</time>
      </trkpt>
      <trkpt lat="45.78064" lon="1.86487">
        <ele>715.6</ele>
        <time>2026-07-08T09:47:50.000Z</time>
      </trkpt>
      <trkpt lat="45.78066" lon="1.86486">
        <ele>715.9</ele>
        <time>2026-07-08T09:47:51.000Z</time>
      </trkpt>
      <trkpt lat="45.78066" lon="1.86486">
        <ele>715.1</ele>
        <time>2026-07-08T09:47:52.000Z</time>
      </trkpt>
      <trkpt lat="45.78065" lon="1.86486">
        <ele>714.5</ele>
        <time>2026-07-08T09:47:53.000Z</time>
      </trkpt>
      <trkpt lat="45.78065" lon="1.86486">
        <ele>714.5</ele>
        <time>2026-07-08T09:47:54.000Z</time>
      </trkpt>
      <trkpt lat="45.78065" lon="1.86486">
        <ele>714.5</ele>
        <time>2026-07-08T09:47:55.000Z</time>
      </trkpt>
      <trkpt lat="45.78065" lon="1.86487">
        <ele>714.6</ele>
        <time>2026-07-08T09:47:56.000Z</time>
      </trkpt>
      <trkpt lat="45.78066" lon="1.86488">
        <ele>714.6</ele>
        <time>2026-07-08T09:47:57.000Z</time>
      </trkpt>
      <trkpt lat="45.78067" lon="1.86489">
        <ele>713.8</ele>
        <time>2026-07-08T09:47:58.000Z</time>
      </trkpt>
      <trkpt lat="45.78067" lon="1.86492">
        <ele>714.1</ele>
        <time>2026-07-08T09:47:59.000Z</time>
      </trkpt>
      <trkpt lat="45.78066" lon="1.86494">
        <ele>714.2</ele>
        <time>2026-07-08T09:48:00.000Z</time>
      </trkpt>
      <trkpt lat="45.78065" lon="1.86496">
        <ele>714.4</ele>
        <time>2026-07-08T09:48:01.000Z</time>
      </trkpt>
      <trkpt lat="45.78065" lon="1.86498">
        <ele>714.3</ele>
        <time>2026-07-08T09:48:02.000Z</time>
      </trkpt>
      <trkpt lat="45.78064" lon="1.86499">
        <ele>712.5</ele>
        <time>2026-07-08T09:48:03.000Z</time>
      </trkpt>
      <trkpt lat="45.78063" lon="1.865">
        <ele>712.4</ele>
        <time>2026-07-08T09:48:04.000Z</time>
      </trkpt>
      <trkpt lat="45.78063" lon="1.86501">
        <ele>712</ele>
        <time>2026-07-08T09:48:05.000Z</time>
      </trkpt>
      <trkpt lat="45.78062" lon="1.86503">
        <ele>711.1</ele>
        <time>2026-07-08T09:48:06.000Z</time>
      </trkpt>
      <trkpt lat="45.78062" lon="1.86504">
        <ele>711.2</ele>
        <time>2026-07-08T09:48:07.000Z</time>
      </trkpt>
      <trkpt lat="45.78062" lon="1.86505">
        <ele>711.8</ele>
        <time>2026-07-08T09:48:08.000Z</time>
      </trkpt>
      <trkpt lat="45.78061" lon="1.86507">
        <ele>711.2</ele>
        <time>2026-07-08T09:48:09.000Z</time>
      </trkpt>
      <trkpt lat="45.78061" lon="1.86508">
        <ele>709.7</ele>
        <time>2026-07-08T09:48:10.000Z</time>
      </trkpt>
      <trkpt lat="45.78061" lon="1.8651">
        <ele>709.8</ele>
        <time>2026-07-08T09:48:11.000Z</time>
      </trkpt>
      <trkpt lat="45.7806" lon="1.86512">
        <ele>710.5</ele>
        <time>2026-07-08T09:48:12.000Z</time>
      </trkpt>
      <trkpt lat="45.78059" lon="1.86513">
        <ele>711</ele>
        <time>2026-07-08T09:48:13.000Z</time>
      </trkpt>
      <trkpt lat="45.78058" lon="1.86516">
        <ele>710.6</ele>
        <time>2026-07-08T09:48:14.000Z</time>
      </trkpt>
      <trkpt lat="45.78057" lon="1.86518">
        <ele>710.4</ele>
        <time>2026-07-08T09:48:15.000Z</time>
      </trkpt>
      <trkpt lat="45.78056" lon="1.8652">
        <ele>711.1</ele>
        <time>2026-07-08T09:48:16.000Z</time>
      </trkpt>
      <trkpt lat="45.78056" lon="1.86522">
        <ele>711.7</ele>
        <time>2026-07-08T09:48:17.000Z</time>
      </trkpt>
      <trkpt lat="45.78055" lon="1.86525">
        <ele>711.4</ele>
        <time>2026-07-08T09:48:18.000Z</time>
      </trkpt>
      <trkpt lat="45.78054" lon="1.86527">
        <ele>711.2</ele>
        <time>2026-07-08T09:48:19.000Z</time>
      </trkpt>
      <trkpt lat="45.78054" lon="1.86529">
        <ele>711</ele>
        <time>2026-07-08T09:48:20.000Z</time>
      </trkpt>
      <trkpt lat="45.78053" lon="1.86531">
        <ele>710.4</ele>
        <time>2026-07-08T09:48:21.000Z</time>
      </trkpt>
      <trkpt lat="45.78052" lon="1.86534">
        <ele>710.3</ele>
        <time>2026-07-08T09:48:22.000Z</time>
      </trkpt>
      <trkpt lat="45.78051" lon="1.86536">
        <ele>710</ele>
        <time>2026-07-08T09:48:23.000Z</time>
      </trkpt>
      <trkpt lat="45.78051" lon="1.86538">
        <ele>710.8</ele>
        <time>2026-07-08T09:48:24.000Z</time>
      </trkpt>
      <trkpt lat="45.7805" lon="1.8654">
        <ele>710.5</ele>
        <time>2026-07-08T09:48:25.000Z</time>
      </trkpt>
      <trkpt lat="45.78048" lon="1.86542">
        <ele>710.7</ele>
        <time>2026-07-08T09:48:26.000Z</time>
      </trkpt>
      <trkpt lat="45.78047" lon="1.86544">
        <ele>711.4</ele>
        <time>2026-07-08T09:48:27.000Z</time>
      </trkpt>
      <trkpt lat="45.78046" lon="1.86546">
        <ele>711.6</ele>
        <time>2026-07-08T09:48:28.000Z</time>
      </trkpt>
      <trkpt lat="45.78045" lon="1.86547">
        <ele>712.2</ele>
        <time>2026-07-08T09:48:29.000Z</time>
      </trkpt>
      <trkpt lat="45.78044" lon="1.86549">
        <ele>711.7</ele>
        <time>2026-07-08T09:48:30.000Z</time>
      </trkpt>
      <trkpt lat="45.78043" lon="1.8655">
        <ele>711.8</ele>
        <time>2026-07-08T09:48:31.000Z</time>
      </trkpt>
      <trkpt lat="45.78043" lon="1.86551">
        <ele>711.4</ele>
        <time>2026-07-08T09:48:32.000Z</time>
      </trkpt>
      <trkpt lat="45.78042" lon="1.86552">
        <ele>711.1</ele>
        <time>2026-07-08T09:48:33.000Z</time>
      </trkpt>
      <trkpt lat="45.78042" lon="1.86553">
        <ele>711.5</ele>
        <time>2026-07-08T09:48:34.000Z</time>
      </trkpt>
      <trkpt lat="45.78042" lon="1.86553">
        <ele>712.1</ele>
        <time>2026-07-08T09:48:35.000Z</time>
      </trkpt>
      <trkpt lat="45.7804" lon="1.86554">
        <ele>711.8</ele>
        <time>2026-07-08T09:48:36.000Z</time>
      </trkpt>
      <trkpt lat="45.78039" lon="1.86554">
        <ele>711.9</ele>
        <time>2026-07-08T09:48:37.000Z</time>
      </trkpt>
      <trkpt lat="45.78039" lon="1.86554">
        <ele>711.9</ele>
        <time>2026-07-08T09:48:38.000Z</time>
      </trkpt>
      <trkpt lat="45.78039" lon="1.86554">
        <ele>711.9</ele>
        <time>2026-07-08T09:48:39.000Z</time>
      </trkpt>
      <trkpt lat="45.78039" lon="1.86554">
        <ele>712</ele>
        <time>2026-07-08T09:48:40.000Z</time>
      </trkpt>
      <trkpt lat="45.78039" lon="1.86554">
        <ele>712</ele>
        <time>2026-07-08T09:48:41.000Z</time>
      </trkpt>
      <trkpt lat="45.78039" lon="1.86554">
        <ele>712</ele>
        <time>2026-07-08T09:48:42.000Z</time>
      </trkpt>
      <trkpt lat="45.78039" lon="1.86554">
        <ele>712</ele>
        <time>2026-07-08T09:48:43.000Z</time>
      </trkpt>
      <trkpt lat="45.78039" lon="1.86554">
        <ele>712</ele>
        <time>2026-07-08T09:48:44.000Z</time>
      </trkpt>
      <trkpt lat="45.78039" lon="1.86555">
        <ele>712.5</ele>
        <time>2026-07-08T09:48:45.000Z</time>
      </trkpt>
      <trkpt lat="45.78039" lon="1.86556">
        <ele>712.3</ele>
        <time>2026-07-08T09:48:46.000Z</time>
      </trkpt>
      <trkpt lat="45.78038" lon="1.86557">
        <ele>712.4</ele>
        <time>2026-07-08T09:48:47.000Z</time>
      </trkpt>
      <trkpt lat="45.78037" lon="1.86559">
        <ele>711.5</ele>
        <time>2026-07-08T09:48:48.000Z</time>
      </trkpt>
      <trkpt lat="45.78036" lon="1.8656">
        <ele>711.3</ele>
        <time>2026-07-08T09:48:49.000Z</time>
      </trkpt>
      <trkpt lat="45.78035" lon="1.86562">
        <ele>710.8</ele>
        <time>2026-07-08T09:48:50.000Z</time>
      </trkpt>
      <trkpt lat="45.78034" lon="1.86564">
        <ele>711</ele>
        <time>2026-07-08T09:48:51.000Z</time>
      </trkpt>
      <trkpt lat="45.78033" lon="1.86565">
        <ele>710.6</ele>
        <time>2026-07-08T09:48:52.000Z</time>
      </trkpt>
      <trkpt lat="45.78032" lon="1.86567">
        <ele>710.8</ele>
        <time>2026-07-08T09:48:53.000Z</time>
      </trkpt>
      <trkpt lat="45.78031" lon="1.86568">
        <ele>710.7</ele>
        <time>2026-07-08T09:48:54.000Z</time>
      </trkpt>
      <trkpt lat="45.7803" lon="1.86569">
        <ele>710.5</ele>
        <time>2026-07-08T09:48:55.000Z</time>
      </trkpt>
      <trkpt lat="45.78028" lon="1.86571">
        <ele>710.7</ele>
        <time>2026-07-08T09:48:56.000Z</time>
      </trkpt>
      <trkpt lat="45.78028" lon="1.86572">
        <ele>710.4</ele>
        <time>2026-07-08T09:48:57.000Z</time>
      </trkpt>
      <trkpt lat="45.78026" lon="1.86574">
        <ele>710.2</ele>
        <time>2026-07-08T09:48:58.000Z</time>
      </trkpt>
      <trkpt lat="45.78025" lon="1.86575">
        <ele>710.8</ele>
        <time>2026-07-08T09:48:59.000Z</time>
      </trkpt>
      <trkpt lat="45.78024" lon="1.86576">
        <ele>710.9</ele>
        <time>2026-07-08T09:49:00.000Z</time>
      </trkpt>
      <trkpt lat="45.78022" lon="1.86578">
        <ele>711.3</ele>
        <time>2026-07-08T09:49:01.000Z</time>
      </trkpt>
      <trkpt lat="45.78021" lon="1.86579">
        <ele>711.7</ele>
        <time>2026-07-08T09:49:02.000Z</time>
      </trkpt>
      <trkpt lat="45.7802" lon="1.86581">
        <ele>712</ele>
        <time>2026-07-08T09:49:03.000Z</time>
      </trkpt>
      <trkpt lat="45.78018" lon="1.86582">
        <ele>712</ele>
        <time>2026-07-08T09:49:04.000Z</time>
      </trkpt>
      <trkpt lat="45.78017" lon="1.86583">
        <ele>711.7</ele>
        <time>2026-07-08T09:49:05.000Z</time>
      </trkpt>
      <trkpt lat="45.78015" lon="1.86584">
        <ele>711.5</ele>
        <time>2026-07-08T09:49:06.000Z</time>
      </trkpt>
      <trkpt lat="45.78014" lon="1.86585">
        <ele>711.3</ele>
        <time>2026-07-08T09:49:07.000Z</time>
      </trkpt>
      <trkpt lat="45.78013" lon="1.86586">
        <ele>711.1</ele>
        <time>2026-07-08T09:49:08.000Z</time>
      </trkpt>
      <trkpt lat="45.78011" lon="1.86587">
        <ele>710.4</ele>
        <time>2026-07-08T09:49:09.000Z</time>
      </trkpt>
      <trkpt lat="45.7801" lon="1.86588">
        <ele>710.2</ele>
        <time>2026-07-08T09:49:10.000Z</time>
      </trkpt>
      <trkpt lat="45.78008" lon="1.86589">
        <ele>710.2</ele>
        <time>2026-07-08T09:49:11.000Z</time>
      </trkpt>
      <trkpt lat="45.78006" lon="1.86589">
        <ele>710</ele>
        <time>2026-07-08T09:49:12.000Z</time>
      </trkpt>
      <trkpt lat="45.78005" lon="1.8659">
        <ele>709.8</ele>
        <time>2026-07-08T09:49:13.000Z</time>
      </trkpt>
      <trkpt lat="45.78003" lon="1.86591">
        <ele>709.9</ele>
        <time>2026-07-08T09:49:14.000Z</time>
      </trkpt>
      <trkpt lat="45.78001" lon="1.86591">
        <ele>709.8</ele>
        <time>2026-07-08T09:49:15.000Z</time>
      </trkpt>
      <trkpt lat="45.78" lon="1.86592">
        <ele>709.9</ele>
        <time>2026-07-08T09:49:16.000Z</time>
      </trkpt>
      <trkpt lat="45.77998" lon="1.86592">
        <ele>710</ele>
        <time>2026-07-08T09:49:17.000Z</time>
      </trkpt>
      <trkpt lat="45.77996" lon="1.86593">
        <ele>709.9</ele>
        <time>2026-07-08T09:49:18.000Z</time>
      </trkpt>
      <trkpt lat="45.77995" lon="1.86594">
        <ele>710.2</ele>
        <time>2026-07-08T09:49:19.000Z</time>
      </trkpt>
      <trkpt lat="45.77993" lon="1.86595">
        <ele>710</ele>
        <time>2026-07-08T09:49:20.000Z</time>
      </trkpt>
      <trkpt lat="45.77991" lon="1.86595">
        <ele>710</ele>
        <time>2026-07-08T09:49:21.000Z</time>
      </trkpt>
      <trkpt lat="45.7799" lon="1.86595">
        <ele>710.3</ele>
        <time>2026-07-08T09:49:22.000Z</time>
      </trkpt>
      <trkpt lat="45.77988" lon="1.86595">
        <ele>710.5</ele>
        <time>2026-07-08T09:49:23.000Z</time>
      </trkpt>
      <trkpt lat="45.77986" lon="1.86595">
        <ele>710.7</ele>
        <time>2026-07-08T09:49:24.000Z</time>
      </trkpt>
      <trkpt lat="45.77984" lon="1.86596">
        <ele>710.9</ele>
        <time>2026-07-08T09:49:25.000Z</time>
      </trkpt>
      <trkpt lat="45.77983" lon="1.86596">
        <ele>710.5</ele>
        <time>2026-07-08T09:49:26.000Z</time>
      </trkpt>
      <trkpt lat="45.77981" lon="1.86596">
        <ele>710.4</ele>
        <time>2026-07-08T09:49:27.000Z</time>
      </trkpt>
      <trkpt lat="45.77979" lon="1.86596">
        <ele>710.9</ele>
        <time>2026-07-08T09:49:28.000Z</time>
      </trkpt>
      <trkpt lat="45.77978" lon="1.86596">
        <ele>711.2</ele>
        <time>2026-07-08T09:49:29.000Z</time>
      </trkpt>
      <trkpt lat="45.77976" lon="1.86595">
        <ele>710.8</ele>
        <time>2026-07-08T09:49:30.000Z</time>
      </trkpt>
      <trkpt lat="45.77974" lon="1.86595">
        <ele>710.3</ele>
        <time>2026-07-08T09:49:31.000Z</time>
      </trkpt>
      <trkpt lat="45.77973" lon="1.86595">
        <ele>710.7</ele>
        <time>2026-07-08T09:49:32.000Z</time>
      </trkpt>
      <trkpt lat="45.77971" lon="1.86594">
        <ele>710.7</ele>
        <time>2026-07-08T09:49:33.000Z</time>
      </trkpt>
      <trkpt lat="45.77969" lon="1.86594">
        <ele>710.3</ele>
        <time>2026-07-08T09:49:34.000Z</time>
      </trkpt>
      <trkpt lat="45.77968" lon="1.86593">
        <ele>710.4</ele>
        <time>2026-07-08T09:49:35.000Z</time>
      </trkpt>
      <trkpt lat="45.77966" lon="1.86593">
        <ele>710.6</ele>
        <time>2026-07-08T09:49:36.000Z</time>
      </trkpt>
      <trkpt lat="45.77965" lon="1.86592">
        <ele>710.5</ele>
        <time>2026-07-08T09:49:37.000Z</time>
      </trkpt>
      <trkpt lat="45.77963" lon="1.86591">
        <ele>710.3</ele>
        <time>2026-07-08T09:49:38.000Z</time>
      </trkpt>
      <trkpt lat="45.77961" lon="1.8659">
        <ele>709.9</ele>
        <time>2026-07-08T09:49:39.000Z</time>
      </trkpt>
      <trkpt lat="45.7796" lon="1.8659">
        <ele>709.8</ele>
        <time>2026-07-08T09:49:40.000Z</time>
      </trkpt>
      <trkpt lat="45.77958" lon="1.86589">
        <ele>709.9</ele>
        <time>2026-07-08T09:49:41.000Z</time>
      </trkpt>
      <trkpt lat="45.77957" lon="1.86588">
        <ele>709.9</ele>
        <time>2026-07-08T09:49:42.000Z</time>
      </trkpt>
      <trkpt lat="45.77955" lon="1.86587">
        <ele>710.2</ele>
        <time>2026-07-08T09:49:43.000Z</time>
      </trkpt>
      <trkpt lat="45.77954" lon="1.86586">
        <ele>710.6</ele>
        <time>2026-07-08T09:49:44.000Z</time>
      </trkpt>
      <trkpt lat="45.77952" lon="1.86586">
        <ele>711.3</ele>
        <time>2026-07-08T09:49:45.000Z</time>
      </trkpt>
      <trkpt lat="45.7795" lon="1.86586">
        <ele>713</ele>
        <time>2026-07-08T09:49:46.000Z</time>
      </trkpt>
      <trkpt lat="45.77949" lon="1.86585">
        <ele>713.5</ele>
        <time>2026-07-08T09:49:47.000Z</time>
      </trkpt>
      <trkpt lat="45.77947" lon="1.86584">
        <ele>713.8</ele>
        <time>2026-07-08T09:49:48.000Z</time>
      </trkpt>
      <trkpt lat="45.77946" lon="1.86583">
        <ele>715.4</ele>
        <time>2026-07-08T09:49:49.000Z</time>
      </trkpt>
      <trkpt lat="45.77945" lon="1.86582">
        <ele>716.3</ele>
        <time>2026-07-08T09:49:50.000Z</time>
      </trkpt>
      <trkpt lat="45.77944" lon="1.86581">
        <ele>717</ele>
        <time>2026-07-08T09:49:51.000Z</time>
      </trkpt>
      <trkpt lat="45.77943" lon="1.86579">
        <ele>718.3</ele>
        <time>2026-07-08T09:49:52.000Z</time>
      </trkpt>
      <trkpt lat="45.77943" lon="1.86579">
        <ele>718.1</ele>
        <time>2026-07-08T09:49:53.000Z</time>
      </trkpt>
      <trkpt lat="45.77943" lon="1.86579">
        <ele>718.9</ele>
        <time>2026-07-08T09:49:54.000Z</time>
      </trkpt>
      <trkpt lat="45.77944" lon="1.86579">
        <ele>718.9</ele>
        <time>2026-07-08T09:49:55.000Z</time>
      </trkpt>
      <trkpt lat="45.77944" lon="1.86579">
        <ele>718.9</ele>
        <time>2026-07-08T09:49:56.000Z</time>
      </trkpt>
      <trkpt lat="45.77944" lon="1.86579">
        <ele>719.5</ele>
        <time>2026-07-08T09:49:57.000Z</time>
      </trkpt>
      <trkpt lat="45.77944" lon="1.86579">
        <ele>718.7</ele>
        <time>2026-07-08T09:49:58.000Z</time>
      </trkpt>
      <trkpt lat="45.77943" lon="1.86578">
        <ele>719</ele>
        <time>2026-07-08T09:49:59.000Z</time>
      </trkpt>
      <trkpt lat="45.77943" lon="1.86576">
        <ele>718.5</ele>
        <time>2026-07-08T09:50:00.000Z</time>
      </trkpt>
      <trkpt lat="45.77942" lon="1.86575">
        <ele>717.9</ele>
        <time>2026-07-08T09:50:01.000Z</time>
      </trkpt>
      <trkpt lat="45.77942" lon="1.86575">
        <ele>717.8</ele>
        <time>2026-07-08T09:50:02.000Z</time>
      </trkpt>
      <trkpt lat="45.77942" lon="1.86575">
        <ele>717.4</ele>
        <time>2026-07-08T09:50:03.000Z</time>
      </trkpt>
      <trkpt lat="45.77943" lon="1.86576">
        <ele>717.4</ele>
        <time>2026-07-08T09:50:04.000Z</time>
      </trkpt>
      <trkpt lat="45.77943" lon="1.86576">
        <ele>717.4</ele>
        <time>2026-07-08T09:50:05.000Z</time>
      </trkpt>
      <trkpt lat="45.77943" lon="1.86576">
        <ele>717.4</ele>
        <time>2026-07-08T09:50:06.000Z</time>
      </trkpt>
      <trkpt lat="45.77943" lon="1.86576">
        <ele>717.4</ele>
        <time>2026-07-08T09:50:07.000Z</time>
      </trkpt>
      <trkpt lat="45.77943" lon="1.86576">
        <ele>717.4</ele>
        <time>2026-07-08T09:50:08.000Z</time>
      </trkpt>
      <trkpt lat="45.77943" lon="1.86576">
        <ele>717.4</ele>
        <time>2026-07-08T09:50:09.000Z</time>
      </trkpt>
      <trkpt lat="45.77943" lon="1.86576">
        <ele>717.4</ele>
        <time>2026-07-08T09:50:10.000Z</time>
      </trkpt>
      <trkpt lat="45.77943" lon="1.86576">
        <ele>717.4</ele>
        <time>2026-07-08T09:50:11.000Z</time>
      </trkpt>
      <trkpt lat="45.77943" lon="1.86576">
        <ele>717.4</ele>
        <time>2026-07-08T09:50:12.000Z</time>
      </trkpt>
      <trkpt lat="45.77943" lon="1.86576">
        <ele>717.4</ele>
        <time>2026-07-08T09:50:13.000Z</time>
      </trkpt>
      <trkpt lat="45.77943" lon="1.86576">
        <ele>717.4</ele>
        <time>2026-07-08T09:50:14.000Z</time>
      </trkpt>
      <trkpt lat="45.77943" lon="1.86576">
        <ele>717.4</ele>
        <time>2026-07-08T09:50:15.000Z</time>
      </trkpt>
      <trkpt lat="45.77943" lon="1.86576">
        <ele>717.5</ele>
        <time>2026-07-08T09:50:16.000Z</time>
      </trkpt>
      <trkpt lat="45.77943" lon="1.86576">
        <ele>717.7</ele>
        <time>2026-07-08T09:50:17.000Z</time>
      </trkpt>
      <trkpt lat="45.77944" lon="1.86576">
        <ele>717.7</ele>
        <time>2026-07-08T09:50:18.000Z</time>
      </trkpt>
      <trkpt lat="45.77944" lon="1.86577">
        <ele>718</ele>
        <time>2026-07-08T09:50:19.000Z</time>
      </trkpt>
      <trkpt lat="45.77944" lon="1.86577">
        <ele>718.2</ele>
        <time>2026-07-08T09:50:20.000Z</time>
      </trkpt>
      <trkpt lat="45.77944" lon="1.86578">
        <ele>718.6</ele>
        <time>2026-07-08T09:50:21.000Z</time>
      </trkpt>
      <trkpt lat="45.77944" lon="1.86578">
        <ele>718.6</ele>
        <time>2026-07-08T09:50:22.000Z</time>
      </trkpt>
      <trkpt lat="45.77944" lon="1.86578">
        <ele>718.6</ele>
        <time>2026-07-08T09:50:23.000Z</time>
      </trkpt>
      <trkpt lat="45.77944" lon="1.86579">
        <ele>718.6</ele>
        <time>2026-07-08T09:50:24.000Z</time>
      </trkpt>
      <trkpt lat="45.77944" lon="1.86579">
        <ele>718.7</ele>
        <time>2026-07-08T09:50:25.000Z</time>
      </trkpt>
      <trkpt lat="45.77944" lon="1.86579">
        <ele>718.7</ele>
        <time>2026-07-08T09:50:26.000Z</time>
      </trkpt>
      <trkpt lat="45.77944" lon="1.86579">
        <ele>718.7</ele>
        <time>2026-07-08T09:50:27.000Z</time>
      </trkpt>
      <trkpt lat="45.77944" lon="1.86579">
        <ele>718.7</ele>
        <time>2026-07-08T09:50:28.000Z</time>
      </trkpt>
      <trkpt lat="45.77944" lon="1.86579">
        <ele>718.7</ele>
        <time>2026-07-08T09:50:29.000Z</time>
      </trkpt>
      <trkpt lat="45.77944" lon="1.86579">
        <ele>718.7</ele>
        <time>2026-07-08T09:50:30.000Z</time>
      </trkpt>
      <trkpt lat="45.77944" lon="1.86579">
        <ele>718.7</ele>
        <time>2026-07-08T09:50:31.000Z</time>
      </trkpt>
      <trkpt lat="45.77944" lon="1.86579">
        <ele>718.6</ele>
        <time>2026-07-08T09:50:32.000Z</time>
      </trkpt>
      <trkpt lat="45.77944" lon="1.86579">
        <ele>718.6</ele>
        <time>2026-07-08T09:50:33.000Z</time>
      </trkpt>
      <trkpt lat="45.77944" lon="1.86579">
        <ele>718.6</ele>
        <time>2026-07-08T09:50:34.000Z</time>
      </trkpt>
      <trkpt lat="45.77944" lon="1.86579">
        <ele>718.6</ele>
        <time>2026-07-08T09:50:35.000Z</time>
      </trkpt>
      <trkpt lat="45.77944" lon="1.86579">
        <ele>719.4</ele>
        <time>2026-07-08T09:50:36.000Z</time>
      </trkpt>
      <trkpt lat="45.77944" lon="1.86579">
        <ele>719.6</ele>
        <time>2026-07-08T09:50:37.000Z</time>
      </trkpt>
      <trkpt lat="45.77944" lon="1.86579">
        <ele>719.6</ele>
        <time>2026-07-08T09:50:38.000Z</time>
      </trkpt>
      <trkpt lat="45.77944" lon="1.86579">
        <ele>719.6</ele>
        <time>2026-07-08T09:50:39.000Z</time>
      </trkpt>
      <trkpt lat="45.77944" lon="1.86579">
        <ele>719.6</ele>
        <time>2026-07-08T09:50:40.000Z</time>
      </trkpt>
      <trkpt lat="45.77944" lon="1.86579">
        <ele>719.2</ele>
        <time>2026-07-08T09:50:41.000Z</time>
      </trkpt>
      <trkpt lat="45.77943" lon="1.86578">
        <ele>719</ele>
        <time>2026-07-08T09:50:42.000Z</time>
      </trkpt>
      <trkpt lat="45.77942" lon="1.86577">
        <ele>718.9</ele>
        <time>2026-07-08T09:50:43.000Z</time>
      </trkpt>
      <trkpt lat="45.77942" lon="1.86577">
        <ele>718.4</ele>
        <time>2026-07-08T09:50:44.000Z</time>
      </trkpt>
      <trkpt lat="45.77941" lon="1.86577">
        <ele>718.1</ele>
        <time>2026-07-08T09:50:45.000Z</time>
      </trkpt>
      <trkpt lat="45.77939" lon="1.86577">
        <ele>717.8</ele>
        <time>2026-07-08T09:50:46.000Z</time>
      </trkpt>
      <trkpt lat="45.77938" lon="1.86576">
        <ele>718.3</ele>
        <time>2026-07-08T09:50:47.000Z</time>
      </trkpt>
      <trkpt lat="45.77936" lon="1.86575">
        <ele>718</ele>
        <time>2026-07-08T09:50:48.000Z</time>
      </trkpt>
      <trkpt lat="45.77935" lon="1.86574">
        <ele>717.8</ele>
        <time>2026-07-08T09:50:49.000Z</time>
      </trkpt>
      <trkpt lat="45.77934" lon="1.86574">
        <ele>717.6</ele>
        <time>2026-07-08T09:50:50.000Z</time>
      </trkpt>
      <trkpt lat="45.77933" lon="1.86574">
        <ele>717.5</ele>
        <time>2026-07-08T09:50:51.000Z</time>
      </trkpt>
      <trkpt lat="45.77932" lon="1.86573">
        <ele>717.4</ele>
        <time>2026-07-08T09:50:52.000Z</time>
      </trkpt>
      <trkpt lat="45.77931" lon="1.86573">
        <ele>718.4</ele>
        <time>2026-07-08T09:50:53.000Z</time>
      </trkpt>
      <trkpt lat="45.7793" lon="1.86572">
        <ele>718.3</ele>
        <time>2026-07-08T09:50:54.000Z</time>
      </trkpt>
      <trkpt lat="45.77928" lon="1.86572">
        <ele>717.9</ele>
        <time>2026-07-08T09:50:55.000Z</time>
      </trkpt>
      <trkpt lat="45.77927" lon="1.86573">
        <ele>718</ele>
        <time>2026-07-08T09:50:56.000Z</time>
      </trkpt>
      <trkpt lat="45.77925" lon="1.86573">
        <ele>718.2</ele>
        <time>2026-07-08T09:50:57.000Z</time>
      </trkpt>
      <trkpt lat="45.77923" lon="1.86572">
        <ele>717.5</ele>
        <time>2026-07-08T09:50:58.000Z</time>
      </trkpt>
      <trkpt lat="45.77921" lon="1.86571">
        <ele>718.2</ele>
        <time>2026-07-08T09:50:59.000Z</time>
      </trkpt>
      <trkpt lat="45.7792" lon="1.8657">
        <ele>717.9</ele>
        <time>2026-07-08T09:51:00.000Z</time>
      </trkpt>
      <trkpt lat="45.77918" lon="1.86569">
        <ele>718.3</ele>
        <time>2026-07-08T09:51:01.000Z</time>
      </trkpt>
      <trkpt lat="45.77916" lon="1.86568">
        <ele>718.3</ele>
        <time>2026-07-08T09:51:02.000Z</time>
      </trkpt>
      <trkpt lat="45.77915" lon="1.86566">
        <ele>717.5</ele>
        <time>2026-07-08T09:51:03.000Z</time>
      </trkpt>
      <trkpt lat="45.77913" lon="1.86565">
        <ele>717.5</ele>
        <time>2026-07-08T09:51:04.000Z</time>
      </trkpt>
      <trkpt lat="45.77912" lon="1.86563">
        <ele>717.5</ele>
        <time>2026-07-08T09:51:05.000Z</time>
      </trkpt>
      <trkpt lat="45.7791" lon="1.86562">
        <ele>717.6</ele>
        <time>2026-07-08T09:51:06.000Z</time>
      </trkpt>
      <trkpt lat="45.77909" lon="1.86561">
        <ele>717.5</ele>
        <time>2026-07-08T09:51:07.000Z</time>
      </trkpt>
      <trkpt lat="45.77908" lon="1.86559">
        <ele>717.2</ele>
        <time>2026-07-08T09:51:08.000Z</time>
      </trkpt>
      <trkpt lat="45.77906" lon="1.86558">
        <ele>717</ele>
        <time>2026-07-08T09:51:09.000Z</time>
      </trkpt>
      <trkpt lat="45.77905" lon="1.86556">
        <ele>717</ele>
        <time>2026-07-08T09:51:10.000Z</time>
      </trkpt>
      <trkpt lat="45.77903" lon="1.86555">
        <ele>717.1</ele>
        <time>2026-07-08T09:51:11.000Z</time>
      </trkpt>
      <trkpt lat="45.77902" lon="1.86553">
        <ele>717.1</ele>
        <time>2026-07-08T09:51:12.000Z</time>
      </trkpt>
      <trkpt lat="45.77901" lon="1.86551">
        <ele>716.7</ele>
        <time>2026-07-08T09:51:13.000Z</time>
      </trkpt>
      <trkpt lat="45.779" lon="1.86549">
        <ele>716.6</ele>
        <time>2026-07-08T09:51:14.000Z</time>
      </trkpt>
      <trkpt lat="45.77899" lon="1.86546">
        <ele>717.3</ele>
        <time>2026-07-08T09:51:15.000Z</time>
      </trkpt>
      <trkpt lat="45.77898" lon="1.86545">
        <ele>715.9</ele>
        <time>2026-07-08T09:51:16.000Z</time>
      </trkpt>
      <trkpt lat="45.77897" lon="1.86543">
        <ele>715.7</ele>
        <time>2026-07-08T09:51:17.000Z</time>
      </trkpt>
      <trkpt lat="45.77896" lon="1.86542">
        <ele>715.3</ele>
        <time>2026-07-08T09:51:18.000Z</time>
      </trkpt>
      <trkpt lat="45.77895" lon="1.8654">
        <ele>714.8</ele>
        <time>2026-07-08T09:51:19.000Z</time>
      </trkpt>
      <trkpt lat="45.77894" lon="1.86538">
        <ele>713.9</ele>
        <time>2026-07-08T09:51:20.000Z</time>
      </trkpt>
      <trkpt lat="45.77893" lon="1.86535">
        <ele>713.4</ele>
        <time>2026-07-08T09:51:21.000Z</time>
      </trkpt>
      <trkpt lat="45.77892" lon="1.86534">
        <ele>712.5</ele>
        <time>2026-07-08T09:51:22.000Z</time>
      </trkpt>
      <trkpt lat="45.77891" lon="1.86532">
        <ele>712.7</ele>
        <time>2026-07-08T09:51:23.000Z</time>
      </trkpt>
      <trkpt lat="45.77891" lon="1.8653">
        <ele>712.4</ele>
        <time>2026-07-08T09:51:24.000Z</time>
      </trkpt>
      <trkpt lat="45.7789" lon="1.86527">
        <ele>712.1</ele>
        <time>2026-07-08T09:51:25.000Z</time>
      </trkpt>
      <trkpt lat="45.77889" lon="1.86525">
        <ele>711.7</ele>
        <time>2026-07-08T09:51:26.000Z</time>
      </trkpt>
      <trkpt lat="45.77889" lon="1.86523">
        <ele>712</ele>
        <time>2026-07-08T09:51:27.000Z</time>
      </trkpt>
      <trkpt lat="45.77888" lon="1.86521">
        <ele>711.4</ele>
        <time>2026-07-08T09:51:28.000Z</time>
      </trkpt>
      <trkpt lat="45.77888" lon="1.86519">
        <ele>711.2</ele>
        <time>2026-07-08T09:51:29.000Z</time>
      </trkpt>
      <trkpt lat="45.77887" lon="1.86517">
        <ele>710.7</ele>
        <time>2026-07-08T09:51:30.000Z</time>
      </trkpt>
      <trkpt lat="45.77887" lon="1.86516">
        <ele>710.8</ele>
        <time>2026-07-08T09:51:31.000Z</time>
      </trkpt>
      <trkpt lat="45.77886" lon="1.86513">
        <ele>710.7</ele>
        <time>2026-07-08T09:51:32.000Z</time>
      </trkpt>
      <trkpt lat="45.77885" lon="1.86511">
        <ele>710.6</ele>
        <time>2026-07-08T09:51:33.000Z</time>
      </trkpt>
      <trkpt lat="45.77885" lon="1.86509">
        <ele>710.7</ele>
        <time>2026-07-08T09:51:34.000Z</time>
      </trkpt>
      <trkpt lat="45.77884" lon="1.86506">
        <ele>710</ele>
        <time>2026-07-08T09:51:35.000Z</time>
      </trkpt>
      <trkpt lat="45.77884" lon="1.86505">
        <ele>709.6</ele>
        <time>2026-07-08T09:51:36.000Z</time>
      </trkpt>
      <trkpt lat="45.77883" lon="1.86503">
        <ele>709.6</ele>
        <time>2026-07-08T09:51:37.000Z</time>
      </trkpt>
      <trkpt lat="45.77883" lon="1.86501">
        <ele>709.1</ele>
        <time>2026-07-08T09:51:38.000Z</time>
      </trkpt>
      <trkpt lat="45.77882" lon="1.86499">
        <ele>708.9</ele>
        <time>2026-07-08T09:51:39.000Z</time>
      </trkpt>
      <trkpt lat="45.77881" lon="1.86497">
        <ele>708.7</ele>
        <time>2026-07-08T09:51:40.000Z</time>
      </trkpt>
      <trkpt lat="45.77881" lon="1.86494">
        <ele>709</ele>
        <time>2026-07-08T09:51:41.000Z</time>
      </trkpt>
      <trkpt lat="45.7788" lon="1.86492">
        <ele>708.2</ele>
        <time>2026-07-08T09:51:42.000Z</time>
      </trkpt>
      <trkpt lat="45.7788" lon="1.8649">
        <ele>707.3</ele>
        <time>2026-07-08T09:51:43.000Z</time>
      </trkpt>
      <trkpt lat="45.77879" lon="1.86488">
        <ele>707.3</ele>
        <time>2026-07-08T09:51:44.000Z</time>
      </trkpt>
      <trkpt lat="45.77879" lon="1.86486">
        <ele>708.2</ele>
        <time>2026-07-08T09:51:45.000Z</time>
      </trkpt>
      <trkpt lat="45.77878" lon="1.86484">
        <ele>709.4</ele>
        <time>2026-07-08T09:51:46.000Z</time>
      </trkpt>
      <trkpt lat="45.77877" lon="1.86481">
        <ele>709</ele>
        <time>2026-07-08T09:51:47.000Z</time>
      </trkpt>
      <trkpt lat="45.77877" lon="1.86479">
        <ele>709.2</ele>
        <time>2026-07-08T09:51:48.000Z</time>
      </trkpt>
      <trkpt lat="45.77876" lon="1.86477">
        <ele>708.8</ele>
        <time>2026-07-08T09:51:49.000Z</time>
      </trkpt>
      <trkpt lat="45.77875" lon="1.86474">
        <ele>708.6</ele>
        <time>2026-07-08T09:51:50.000Z</time>
      </trkpt>
      <trkpt lat="45.77875" lon="1.86472">
        <ele>709</ele>
        <time>2026-07-08T09:51:51.000Z</time>
      </trkpt>
      <trkpt lat="45.77874" lon="1.8647">
        <ele>709</ele>
        <time>2026-07-08T09:51:52.000Z</time>
      </trkpt>
      <trkpt lat="45.77874" lon="1.86468">
        <ele>709.3</ele>
        <time>2026-07-08T09:51:53.000Z</time>
      </trkpt>
      <trkpt lat="45.77873" lon="1.86465">
        <ele>709.7</ele>
        <time>2026-07-08T09:51:54.000Z</time>
      </trkpt>
      <trkpt lat="45.77873" lon="1.86463">
        <ele>709.7</ele>
        <time>2026-07-08T09:51:55.000Z</time>
      </trkpt>
      <trkpt lat="45.77872" lon="1.86461">
        <ele>709.6</ele>
        <time>2026-07-08T09:51:56.000Z</time>
      </trkpt>
      <trkpt lat="45.77872" lon="1.86458">
        <ele>710.2</ele>
        <time>2026-07-08T09:51:57.000Z</time>
      </trkpt>
      <trkpt lat="45.77872" lon="1.86455">
        <ele>710.1</ele>
        <time>2026-07-08T09:51:58.000Z</time>
      </trkpt>
      <trkpt lat="45.77871" lon="1.86453">
        <ele>710.1</ele>
        <time>2026-07-08T09:51:59.000Z</time>
      </trkpt>
      <trkpt lat="45.77871" lon="1.86451">
        <ele>710.3</ele>
        <time>2026-07-08T09:52:00.000Z</time>
      </trkpt>
      <trkpt lat="45.7787" lon="1.86448">
        <ele>710.2</ele>
        <time>2026-07-08T09:52:01.000Z</time>
      </trkpt>
      <trkpt lat="45.77869" lon="1.86446">
        <ele>710.2</ele>
        <time>2026-07-08T09:52:02.000Z</time>
      </trkpt>
      <trkpt lat="45.77867" lon="1.86445">
        <ele>710.6</ele>
        <time>2026-07-08T09:52:03.000Z</time>
      </trkpt>
      <trkpt lat="45.77866" lon="1.86443">
        <ele>709.7</ele>
        <time>2026-07-08T09:52:04.000Z</time>
      </trkpt>
      <trkpt lat="45.77864" lon="1.86441">
        <ele>709.2</ele>
        <time>2026-07-08T09:52:05.000Z</time>
      </trkpt>
      <trkpt lat="45.77863" lon="1.86438">
        <ele>709</ele>
        <time>2026-07-08T09:52:06.000Z</time>
      </trkpt>
      <trkpt lat="45.77861" lon="1.86435">
        <ele>708.6</ele>
        <time>2026-07-08T09:52:07.000Z</time>
      </trkpt>
      <trkpt lat="45.77859" lon="1.86432">
        <ele>708.5</ele>
        <time>2026-07-08T09:52:08.000Z</time>
      </trkpt>
      <trkpt lat="45.77857" lon="1.86431">
        <ele>708.9</ele>
        <time>2026-07-08T09:52:09.000Z</time>
      </trkpt>
      <trkpt lat="45.77855" lon="1.86431">
        <ele>709.7</ele>
        <time>2026-07-08T09:52:10.000Z</time>
      </trkpt>
      <trkpt lat="45.77854" lon="1.8643">
        <ele>709.7</ele>
        <time>2026-07-08T09:52:11.000Z</time>
      </trkpt>
      <trkpt lat="45.77852" lon="1.86429">
        <ele>709</ele>
        <time>2026-07-08T09:52:12.000Z</time>
      </trkpt>
      <trkpt lat="45.77851" lon="1.86428">
        <ele>709.1</ele>
        <time>2026-07-08T09:52:13.000Z</time>
      </trkpt>
      <trkpt lat="45.7785" lon="1.86426">
        <ele>708.8</ele>
        <time>2026-07-08T09:52:14.000Z</time>
      </trkpt>
      <trkpt lat="45.77849" lon="1.86425">
        <ele>708.9</ele>
        <time>2026-07-08T09:52:15.000Z</time>
      </trkpt>
      <trkpt lat="45.77847" lon="1.86424">
        <ele>708.8</ele>
        <time>2026-07-08T09:52:16.000Z</time>
      </trkpt>
      <trkpt lat="45.77846" lon="1.86422">
        <ele>708.4</ele>
        <time>2026-07-08T09:52:17.000Z</time>
      </trkpt>
      <trkpt lat="45.77845" lon="1.86421">
        <ele>707.4</ele>
        <time>2026-07-08T09:52:18.000Z</time>
      </trkpt>
      <trkpt lat="45.77843" lon="1.86419">
        <ele>707.8</ele>
        <time>2026-07-08T09:52:19.000Z</time>
      </trkpt>
      <trkpt lat="45.77842" lon="1.86417">
        <ele>707.3</ele>
        <time>2026-07-08T09:52:20.000Z</time>
      </trkpt>
      <trkpt lat="45.7784" lon="1.86416">
        <ele>706.5</ele>
        <time>2026-07-08T09:52:21.000Z</time>
      </trkpt>
      <trkpt lat="45.77838" lon="1.86415">
        <ele>706.3</ele>
        <time>2026-07-08T09:52:22.000Z</time>
      </trkpt>
      <trkpt lat="45.77837" lon="1.86414">
        <ele>706.7</ele>
        <time>2026-07-08T09:52:23.000Z</time>
      </trkpt>
      <trkpt lat="45.77836" lon="1.86412">
        <ele>706.8</ele>
        <time>2026-07-08T09:52:24.000Z</time>
      </trkpt>
      <trkpt lat="45.77835" lon="1.86411">
        <ele>705.7</ele>
        <time>2026-07-08T09:52:25.000Z</time>
      </trkpt>
      <trkpt lat="45.77834" lon="1.8641">
        <ele>707.2</ele>
        <time>2026-07-08T09:52:26.000Z</time>
      </trkpt>
      <trkpt lat="45.77834" lon="1.86409">
        <ele>708.1</ele>
        <time>2026-07-08T09:52:27.000Z</time>
      </trkpt>
      <trkpt lat="45.77832" lon="1.86408">
        <ele>707.6</ele>
        <time>2026-07-08T09:52:28.000Z</time>
      </trkpt>
      <trkpt lat="45.77832" lon="1.86407">
        <ele>707.1</ele>
        <time>2026-07-08T09:52:29.000Z</time>
      </trkpt>
      <trkpt lat="45.7783" lon="1.86407">
        <ele>705.7</ele>
        <time>2026-07-08T09:52:30.000Z</time>
      </trkpt>
      <trkpt lat="45.77829" lon="1.86405">
        <ele>705.2</ele>
        <time>2026-07-08T09:52:31.000Z</time>
      </trkpt>
      <trkpt lat="45.77827" lon="1.86405">
        <ele>703.9</ele>
        <time>2026-07-08T09:52:32.000Z</time>
      </trkpt>
      <trkpt lat="45.77825" lon="1.86404">
        <ele>702.3</ele>
        <time>2026-07-08T09:52:33.000Z</time>
      </trkpt>
      <trkpt lat="45.77824" lon="1.86403">
        <ele>701.6</ele>
        <time>2026-07-08T09:52:34.000Z</time>
      </trkpt>
      <trkpt lat="45.77822" lon="1.86402">
        <ele>700.6</ele>
        <time>2026-07-08T09:52:35.000Z</time>
      </trkpt>
      <trkpt lat="45.7782" lon="1.864">
        <ele>700.5</ele>
        <time>2026-07-08T09:52:36.000Z</time>
      </trkpt>
      <trkpt lat="45.77818" lon="1.86398">
        <ele>700.2</ele>
        <time>2026-07-08T09:52:37.000Z</time>
      </trkpt>
      <trkpt lat="45.77816" lon="1.86396">
        <ele>700.5</ele>
        <time>2026-07-08T09:52:38.000Z</time>
      </trkpt>
      <trkpt lat="45.77814" lon="1.86394">
        <ele>701.4</ele>
        <time>2026-07-08T09:52:39.000Z</time>
      </trkpt>
      <trkpt lat="45.77812" lon="1.86392">
        <ele>702.1</ele>
        <time>2026-07-08T09:52:40.000Z</time>
      </trkpt>
      <trkpt lat="45.7781" lon="1.8639">
        <ele>702.4</ele>
        <time>2026-07-08T09:52:41.000Z</time>
      </trkpt>
      <trkpt lat="45.77808" lon="1.86388">
        <ele>703</ele>
        <time>2026-07-08T09:52:42.000Z</time>
      </trkpt>
      <trkpt lat="45.77806" lon="1.86386">
        <ele>702.3</ele>
        <time>2026-07-08T09:52:43.000Z</time>
      </trkpt>
      <trkpt lat="45.77805" lon="1.86384">
        <ele>702.4</ele>
        <time>2026-07-08T09:52:44.000Z</time>
      </trkpt>
      <trkpt lat="45.77803" lon="1.86383">
        <ele>702.9</ele>
        <time>2026-07-08T09:52:45.000Z</time>
      </trkpt>
      <trkpt lat="45.77801" lon="1.86382">
        <ele>703.4</ele>
        <time>2026-07-08T09:52:46.000Z</time>
      </trkpt>
      <trkpt lat="45.778" lon="1.86381">
        <ele>702.9</ele>
        <time>2026-07-08T09:52:47.000Z</time>
      </trkpt>
      <trkpt lat="45.77798" lon="1.8638">
        <ele>703.7</ele>
        <time>2026-07-08T09:52:48.000Z</time>
      </trkpt>
      <trkpt lat="45.77796" lon="1.8638">
        <ele>704.3</ele>
        <time>2026-07-08T09:52:49.000Z</time>
      </trkpt>
      <trkpt lat="45.77794" lon="1.86379">
        <ele>705.4</ele>
        <time>2026-07-08T09:52:50.000Z</time>
      </trkpt>
      <trkpt lat="45.77792" lon="1.86379">
        <ele>706.2</ele>
        <time>2026-07-08T09:52:51.000Z</time>
      </trkpt>
      <trkpt lat="45.77789" lon="1.86378">
        <ele>705.9</ele>
        <time>2026-07-08T09:52:52.000Z</time>
      </trkpt>
      <trkpt lat="45.77787" lon="1.86378">
        <ele>706.1</ele>
        <time>2026-07-08T09:52:53.000Z</time>
      </trkpt>
      <trkpt lat="45.77784" lon="1.86377">
        <ele>706.5</ele>
        <time>2026-07-08T09:52:54.000Z</time>
      </trkpt>
      <trkpt lat="45.77782" lon="1.86376">
        <ele>707.7</ele>
        <time>2026-07-08T09:52:55.000Z</time>
      </trkpt>
      <trkpt lat="45.7778" lon="1.86375">
        <ele>708.9</ele>
        <time>2026-07-08T09:52:56.000Z</time>
      </trkpt>
      <trkpt lat="45.77778" lon="1.86375">
        <ele>708.9</ele>
        <time>2026-07-08T09:52:57.000Z</time>
      </trkpt>
      <trkpt lat="45.77776" lon="1.86376">
        <ele>708.9</ele>
        <time>2026-07-08T09:52:58.000Z</time>
      </trkpt>
      <trkpt lat="45.77775" lon="1.86378">
        <ele>708.5</ele>
        <time>2026-07-08T09:52:59.000Z</time>
      </trkpt>
      <trkpt lat="45.77773" lon="1.86378">
        <ele>708.6</ele>
        <time>2026-07-08T09:53:00.000Z</time>
      </trkpt>
      <trkpt lat="45.77771" lon="1.86378">
        <ele>709.3</ele>
        <time>2026-07-08T09:53:01.000Z</time>
      </trkpt>
      <trkpt lat="45.77769" lon="1.86378">
        <ele>709.1</ele>
        <time>2026-07-08T09:53:02.000Z</time>
      </trkpt>
      <trkpt lat="45.77767" lon="1.86378">
        <ele>708.3</ele>
        <time>2026-07-08T09:53:03.000Z</time>
      </trkpt>
      <trkpt lat="45.77765" lon="1.86379">
        <ele>707.9</ele>
        <time>2026-07-08T09:53:04.000Z</time>
      </trkpt>
      <trkpt lat="45.77763" lon="1.8638">
        <ele>707.4</ele>
        <time>2026-07-08T09:53:05.000Z</time>
      </trkpt>
      <trkpt lat="45.77761" lon="1.86381">
        <ele>707.7</ele>
        <time>2026-07-08T09:53:06.000Z</time>
      </trkpt>
      <trkpt lat="45.77759" lon="1.86382">
        <ele>707.3</ele>
        <time>2026-07-08T09:53:07.000Z</time>
      </trkpt>
      <trkpt lat="45.77757" lon="1.86383">
        <ele>706.4</ele>
        <time>2026-07-08T09:53:08.000Z</time>
      </trkpt>
      <trkpt lat="45.77755" lon="1.86384">
        <ele>706.8</ele>
        <time>2026-07-08T09:53:09.000Z</time>
      </trkpt>
      <trkpt lat="45.77753" lon="1.86385">
        <ele>707</ele>
        <time>2026-07-08T09:53:10.000Z</time>
      </trkpt>
      <trkpt lat="45.77752" lon="1.86386">
        <ele>705.9</ele>
        <time>2026-07-08T09:53:11.000Z</time>
      </trkpt>
      <trkpt lat="45.7775" lon="1.86387">
        <ele>705.3</ele>
        <time>2026-07-08T09:53:12.000Z</time>
      </trkpt>
      <trkpt lat="45.77749" lon="1.86388">
        <ele>705</ele>
        <time>2026-07-08T09:53:13.000Z</time>
      </trkpt>
      <trkpt lat="45.77747" lon="1.86389">
        <ele>703.7</ele>
        <time>2026-07-08T09:53:14.000Z</time>
      </trkpt>
      <trkpt lat="45.77746" lon="1.8639">
        <ele>703.5</ele>
        <time>2026-07-08T09:53:15.000Z</time>
      </trkpt>
      <trkpt lat="45.77745" lon="1.8639">
        <ele>703.6</ele>
        <time>2026-07-08T09:53:16.000Z</time>
      </trkpt>
      <trkpt lat="45.77743" lon="1.86391">
        <ele>704</ele>
        <time>2026-07-08T09:53:17.000Z</time>
      </trkpt>
      <trkpt lat="45.77742" lon="1.86393">
        <ele>704.2</ele>
        <time>2026-07-08T09:53:18.000Z</time>
      </trkpt>
      <trkpt lat="45.77741" lon="1.86397">
        <ele>704.2</ele>
        <time>2026-07-08T09:53:19.000Z</time>
      </trkpt>
      <trkpt lat="45.77741" lon="1.864">
        <ele>703.9</ele>
        <time>2026-07-08T09:53:20.000Z</time>
      </trkpt>
      <trkpt lat="45.77739" lon="1.86401">
        <ele>704.6</ele>
        <time>2026-07-08T09:53:21.000Z</time>
      </trkpt>
      <trkpt lat="45.77738" lon="1.86402">
        <ele>704.9</ele>
        <time>2026-07-08T09:53:22.000Z</time>
      </trkpt>
      <trkpt lat="45.77736" lon="1.86403">
        <ele>705</ele>
        <time>2026-07-08T09:53:23.000Z</time>
      </trkpt>
      <trkpt lat="45.77735" lon="1.86405">
        <ele>705.2</ele>
        <time>2026-07-08T09:53:24.000Z</time>
      </trkpt>
      <trkpt lat="45.77734" lon="1.86407">
        <ele>705.2</ele>
        <time>2026-07-08T09:53:25.000Z</time>
      </trkpt>
      <trkpt lat="45.77732" lon="1.86409">
        <ele>704.9</ele>
        <time>2026-07-08T09:53:26.000Z</time>
      </trkpt>
      <trkpt lat="45.77731" lon="1.86411">
        <ele>705.1</ele>
        <time>2026-07-08T09:53:27.000Z</time>
      </trkpt>
      <trkpt lat="45.7773" lon="1.86412">
        <ele>704.9</ele>
        <time>2026-07-08T09:53:28.000Z</time>
      </trkpt>
      <trkpt lat="45.77729" lon="1.86414">
        <ele>705</ele>
        <time>2026-07-08T09:53:29.000Z</time>
      </trkpt>
      <trkpt lat="45.77728" lon="1.86415">
        <ele>705.3</ele>
        <time>2026-07-08T09:53:30.000Z</time>
      </trkpt>
      <trkpt lat="45.77726" lon="1.86417">
        <ele>705.1</ele>
        <time>2026-07-08T09:53:31.000Z</time>
      </trkpt>
      <trkpt lat="45.77725" lon="1.8642">
        <ele>705.1</ele>
        <time>2026-07-08T09:53:32.000Z</time>
      </trkpt>
      <trkpt lat="45.77724" lon="1.86423">
        <ele>705.3</ele>
        <time>2026-07-08T09:53:33.000Z</time>
      </trkpt>
      <trkpt lat="45.77722" lon="1.86426">
        <ele>705.4</ele>
        <time>2026-07-08T09:53:34.000Z</time>
      </trkpt>
      <trkpt lat="45.77721" lon="1.86428">
        <ele>705.3</ele>
        <time>2026-07-08T09:53:35.000Z</time>
      </trkpt>
      <trkpt lat="45.7772" lon="1.86431">
        <ele>705.5</ele>
        <time>2026-07-08T09:53:36.000Z</time>
      </trkpt>
      <trkpt lat="45.77719" lon="1.86433">
        <ele>705.4</ele>
        <time>2026-07-08T09:53:37.000Z</time>
      </trkpt>
      <trkpt lat="45.77718" lon="1.86434">
        <ele>705.4</ele>
        <time>2026-07-08T09:53:38.000Z</time>
      </trkpt>
      <trkpt lat="45.77717" lon="1.86436">
        <ele>705.6</ele>
        <time>2026-07-08T09:53:39.000Z</time>
      </trkpt>
      <trkpt lat="45.77717" lon="1.86438">
        <ele>705.8</ele>
        <time>2026-07-08T09:53:40.000Z</time>
      </trkpt>
      <trkpt lat="45.77716" lon="1.8644">
        <ele>705.8</ele>
        <time>2026-07-08T09:53:41.000Z</time>
      </trkpt>
      <trkpt lat="45.77716" lon="1.86442">
        <ele>705.6</ele>
        <time>2026-07-08T09:53:42.000Z</time>
      </trkpt>
      <trkpt lat="45.77715" lon="1.86444">
        <ele>705.6</ele>
        <time>2026-07-08T09:53:43.000Z</time>
      </trkpt>
      <trkpt lat="45.77715" lon="1.86446">
        <ele>706</ele>
        <time>2026-07-08T09:53:44.000Z</time>
      </trkpt>
      <trkpt lat="45.77714" lon="1.86449">
        <ele>706.1</ele>
        <time>2026-07-08T09:53:45.000Z</time>
      </trkpt>
      <trkpt lat="45.77714" lon="1.86451">
        <ele>706</ele>
        <time>2026-07-08T09:53:46.000Z</time>
      </trkpt>
      <trkpt lat="45.77713" lon="1.86454">
        <ele>706</ele>
        <time>2026-07-08T09:53:47.000Z</time>
      </trkpt>
      <trkpt lat="45.77713" lon="1.86456">
        <ele>706</ele>
        <time>2026-07-08T09:53:48.000Z</time>
      </trkpt>
      <trkpt lat="45.77713" lon="1.86459">
        <ele>705.9</ele>
        <time>2026-07-08T09:53:49.000Z</time>
      </trkpt>
      <trkpt lat="45.77713" lon="1.86462">
        <ele>706.1</ele>
        <time>2026-07-08T09:53:50.000Z</time>
      </trkpt>
      <trkpt lat="45.77713" lon="1.86465">
        <ele>706.2</ele>
        <time>2026-07-08T09:53:51.000Z</time>
      </trkpt>
      <trkpt lat="45.77713" lon="1.86468">
        <ele>706.1</ele>
        <time>2026-07-08T09:53:52.000Z</time>
      </trkpt>
      <trkpt lat="45.77714" lon="1.86472">
        <ele>706.4</ele>
        <time>2026-07-08T09:53:53.000Z</time>
      </trkpt>
      <trkpt lat="45.77713" lon="1.86476">
        <ele>706.7</ele>
        <time>2026-07-08T09:53:54.000Z</time>
      </trkpt>
      <trkpt lat="45.77713" lon="1.8648">
        <ele>706.8</ele>
        <time>2026-07-08T09:53:55.000Z</time>
      </trkpt>
      <trkpt lat="45.77713" lon="1.86483">
        <ele>706.7</ele>
        <time>2026-07-08T09:53:56.000Z</time>
      </trkpt>
      <trkpt lat="45.77714" lon="1.86486">
        <ele>706.7</ele>
        <time>2026-07-08T09:53:57.000Z</time>
      </trkpt>
      <trkpt lat="45.77714" lon="1.86489">
        <ele>707.3</ele>
        <time>2026-07-08T09:53:58.000Z</time>
      </trkpt>
      <trkpt lat="45.77713" lon="1.86492">
        <ele>707.7</ele>
        <time>2026-07-08T09:53:59.000Z</time>
      </trkpt>
      <trkpt lat="45.77713" lon="1.86495">
        <ele>707.7</ele>
        <time>2026-07-08T09:54:00.000Z</time>
      </trkpt>
      <trkpt lat="45.77713" lon="1.86497">
        <ele>707.5</ele>
        <time>2026-07-08T09:54:01.000Z</time>
      </trkpt>
      <trkpt lat="45.77713" lon="1.86499">
        <ele>707.6</ele>
        <time>2026-07-08T09:54:02.000Z</time>
      </trkpt>
      <trkpt lat="45.77714" lon="1.86502">
        <ele>707.4</ele>
        <time>2026-07-08T09:54:03.000Z</time>
      </trkpt>
      <trkpt lat="45.77713" lon="1.86505">
        <ele>707.4</ele>
        <time>2026-07-08T09:54:04.000Z</time>
      </trkpt>
      <trkpt lat="45.77713" lon="1.86507">
        <ele>707.5</ele>
        <time>2026-07-08T09:54:05.000Z</time>
      </trkpt>
      <trkpt lat="45.77713" lon="1.8651">
        <ele>707.4</ele>
        <time>2026-07-08T09:54:06.000Z</time>
      </trkpt>
      <trkpt lat="45.77713" lon="1.86512">
        <ele>707.5</ele>
        <time>2026-07-08T09:54:07.000Z</time>
      </trkpt>
      <trkpt lat="45.77713" lon="1.86515">
        <ele>707.7</ele>
        <time>2026-07-08T09:54:08.000Z</time>
      </trkpt>
      <trkpt lat="45.77713" lon="1.86517">
        <ele>707.4</ele>
        <time>2026-07-08T09:54:09.000Z</time>
      </trkpt>
      <trkpt lat="45.77713" lon="1.86519">
        <ele>707.3</ele>
        <time>2026-07-08T09:54:10.000Z</time>
      </trkpt>
      <trkpt lat="45.77713" lon="1.86521">
        <ele>707.4</ele>
        <time>2026-07-08T09:54:11.000Z</time>
      </trkpt>
      <trkpt lat="45.77714" lon="1.86523">
        <ele>707.2</ele>
        <time>2026-07-08T09:54:12.000Z</time>
      </trkpt>
      <trkpt lat="45.77715" lon="1.86524">
        <ele>707.1</ele>
        <time>2026-07-08T09:54:13.000Z</time>
      </trkpt>
      <trkpt lat="45.77717" lon="1.86526">
        <ele>707.1</ele>
        <time>2026-07-08T09:54:14.000Z</time>
      </trkpt>
      <trkpt lat="45.77718" lon="1.86528">
        <ele>707.1</ele>
        <time>2026-07-08T09:54:15.000Z</time>
      </trkpt>
      <trkpt lat="45.77719" lon="1.8653">
        <ele>707.2</ele>
        <time>2026-07-08T09:54:16.000Z</time>
      </trkpt>
      <trkpt lat="45.7772" lon="1.86532">
        <ele>707.4</ele>
        <time>2026-07-08T09:54:17.000Z</time>
      </trkpt>
      <trkpt lat="45.77722" lon="1.86534">
        <ele>708</ele>
        <time>2026-07-08T09:54:18.000Z</time>
      </trkpt>
      <trkpt lat="45.77722" lon="1.86536">
        <ele>708.4</ele>
        <time>2026-07-08T09:54:19.000Z</time>
      </trkpt>
      <trkpt lat="45.77723" lon="1.86537">
        <ele>708.6</ele>
        <time>2026-07-08T09:54:20.000Z</time>
      </trkpt>
      <trkpt lat="45.77723" lon="1.86539">
        <ele>708.6</ele>
        <time>2026-07-08T09:54:21.000Z</time>
      </trkpt>
      <trkpt lat="45.77724" lon="1.86541">
        <ele>708.4</ele>
        <time>2026-07-08T09:54:22.000Z</time>
      </trkpt>
      <trkpt lat="45.77725" lon="1.86543">
        <ele>708.2</ele>
        <time>2026-07-08T09:54:23.000Z</time>
      </trkpt>
      <trkpt lat="45.77725" lon="1.86545">
        <ele>708.2</ele>
        <time>2026-07-08T09:54:24.000Z</time>
      </trkpt>
      <trkpt lat="45.77726" lon="1.86547">
        <ele>707.9</ele>
        <time>2026-07-08T09:54:25.000Z</time>
      </trkpt>
      <trkpt lat="45.77726" lon="1.86549">
        <ele>707.9</ele>
        <time>2026-07-08T09:54:26.000Z</time>
      </trkpt>
      <trkpt lat="45.77726" lon="1.86551">
        <ele>707.7</ele>
        <time>2026-07-08T09:54:27.000Z</time>
      </trkpt>
      <trkpt lat="45.77726" lon="1.86553">
        <ele>707.6</ele>
        <time>2026-07-08T09:54:28.000Z</time>
      </trkpt>
      <trkpt lat="45.77725" lon="1.86555">
        <ele>707.2</ele>
        <time>2026-07-08T09:54:29.000Z</time>
      </trkpt>
      <trkpt lat="45.77725" lon="1.86556">
        <ele>707.1</ele>
        <time>2026-07-08T09:54:30.000Z</time>
      </trkpt>
      <trkpt lat="45.77724" lon="1.86558">
        <ele>707.3</ele>
        <time>2026-07-08T09:54:31.000Z</time>
      </trkpt>
      <trkpt lat="45.77724" lon="1.8656">
        <ele>707.4</ele>
        <time>2026-07-08T09:54:32.000Z</time>
      </trkpt>
      <trkpt lat="45.77724" lon="1.86562">
        <ele>707.1</ele>
        <time>2026-07-08T09:54:33.000Z</time>
      </trkpt>
      <trkpt lat="45.77724" lon="1.86564">
        <ele>707</ele>
        <time>2026-07-08T09:54:34.000Z</time>
      </trkpt>
      <trkpt lat="45.77723" lon="1.86566">
        <ele>707</ele>
        <time>2026-07-08T09:54:35.000Z</time>
      </trkpt>
      <trkpt lat="45.77723" lon="1.86568">
        <ele>707.4</ele>
        <time>2026-07-08T09:54:36.000Z</time>
      </trkpt>
      <trkpt lat="45.77724" lon="1.8657">
        <ele>708</ele>
        <time>2026-07-08T09:54:37.000Z</time>
      </trkpt>
      <trkpt lat="45.77725" lon="1.86572">
        <ele>709.8</ele>
        <time>2026-07-08T09:54:38.000Z</time>
      </trkpt>
      <trkpt lat="45.77726" lon="1.86574">
        <ele>711.3</ele>
        <time>2026-07-08T09:54:39.000Z</time>
      </trkpt>
      <trkpt lat="45.77727" lon="1.86576">
        <ele>711.8</ele>
        <time>2026-07-08T09:54:40.000Z</time>
      </trkpt>
      <trkpt lat="45.77728" lon="1.86578">
        <ele>712.1</ele>
        <time>2026-07-08T09:54:41.000Z</time>
      </trkpt>
      <trkpt lat="45.77729" lon="1.8658">
        <ele>712.7</ele>
        <time>2026-07-08T09:54:42.000Z</time>
      </trkpt>
      <trkpt lat="45.7773" lon="1.86583">
        <ele>712.1</ele>
        <time>2026-07-08T09:54:43.000Z</time>
      </trkpt>
      <trkpt lat="45.77731" lon="1.86585">
        <ele>712.6</ele>
        <time>2026-07-08T09:54:44.000Z</time>
      </trkpt>
      <trkpt lat="45.77733" lon="1.86587">
        <ele>712.2</ele>
        <time>2026-07-08T09:54:45.000Z</time>
      </trkpt>
      <trkpt lat="45.77734" lon="1.86589">
        <ele>712.6</ele>
        <time>2026-07-08T09:54:46.000Z</time>
      </trkpt>
      <trkpt lat="45.77735" lon="1.86591">
        <ele>712.3</ele>
        <time>2026-07-08T09:54:47.000Z</time>
      </trkpt>
      <trkpt lat="45.77735" lon="1.86594">
        <ele>711.9</ele>
        <time>2026-07-08T09:54:48.000Z</time>
      </trkpt>
      <trkpt lat="45.77736" lon="1.86596">
        <ele>712</ele>
        <time>2026-07-08T09:54:49.000Z</time>
      </trkpt>
      <trkpt lat="45.77736" lon="1.86598">
        <ele>712.7</ele>
        <time>2026-07-08T09:54:50.000Z</time>
      </trkpt>
      <trkpt lat="45.77737" lon="1.866">
        <ele>712.1</ele>
        <time>2026-07-08T09:54:51.000Z</time>
      </trkpt>
      <trkpt lat="45.77737" lon="1.86602">
        <ele>712</ele>
        <time>2026-07-08T09:54:52.000Z</time>
      </trkpt>
      <trkpt lat="45.77737" lon="1.86604">
        <ele>711.4</ele>
        <time>2026-07-08T09:54:53.000Z</time>
      </trkpt>
      <trkpt lat="45.77738" lon="1.86606">
        <ele>710.8</ele>
        <time>2026-07-08T09:54:54.000Z</time>
      </trkpt>
      <trkpt lat="45.77738" lon="1.86608">
        <ele>710.4</ele>
        <time>2026-07-08T09:54:55.000Z</time>
      </trkpt>
      <trkpt lat="45.77738" lon="1.86611">
        <ele>709.6</ele>
        <time>2026-07-08T09:54:56.000Z</time>
      </trkpt>
      <trkpt lat="45.77738" lon="1.86613">
        <ele>709.1</ele>
        <time>2026-07-08T09:54:57.000Z</time>
      </trkpt>
      <trkpt lat="45.77739" lon="1.86615">
        <ele>709.1</ele>
        <time>2026-07-08T09:54:58.000Z</time>
      </trkpt>
      <trkpt lat="45.77739" lon="1.86617">
        <ele>709.7</ele>
        <time>2026-07-08T09:54:59.000Z</time>
      </trkpt>
      <trkpt lat="45.77741" lon="1.86618">
        <ele>711.7</ele>
        <time>2026-07-08T09:55:00.000Z</time>
      </trkpt>
      <trkpt lat="45.77742" lon="1.8662">
        <ele>712.3</ele>
        <time>2026-07-08T09:55:01.000Z</time>
      </trkpt>
      <trkpt lat="45.77742" lon="1.86622">
        <ele>711.1</ele>
        <time>2026-07-08T09:55:02.000Z</time>
      </trkpt>
      <trkpt lat="45.77743" lon="1.86624">
        <ele>710.2</ele>
        <time>2026-07-08T09:55:03.000Z</time>
      </trkpt>
      <trkpt lat="45.77743" lon="1.86626">
        <ele>709.6</ele>
        <time>2026-07-08T09:55:04.000Z</time>
      </trkpt>
      <trkpt lat="45.77743" lon="1.86627">
        <ele>709.3</ele>
        <time>2026-07-08T09:55:05.000Z</time>
      </trkpt>
      <trkpt lat="45.77742" lon="1.86629">
        <ele>708</ele>
        <time>2026-07-08T09:55:06.000Z</time>
      </trkpt>
      <trkpt lat="45.77741" lon="1.8663">
        <ele>707.2</ele>
        <time>2026-07-08T09:55:07.000Z</time>
      </trkpt>
      <trkpt lat="45.7774" lon="1.86632">
        <ele>706.5</ele>
        <time>2026-07-08T09:55:08.000Z</time>
      </trkpt>
      <trkpt lat="45.77739" lon="1.86634">
        <ele>706</ele>
        <time>2026-07-08T09:55:09.000Z</time>
      </trkpt>
      <trkpt lat="45.77739" lon="1.86634">
        <ele>706.1</ele>
        <time>2026-07-08T09:55:10.000Z</time>
      </trkpt>
      <trkpt lat="45.77739" lon="1.86634">
        <ele>706.1</ele>
        <time>2026-07-08T09:55:11.000Z</time>
      </trkpt>
      <trkpt lat="45.77739" lon="1.86636">
        <ele>705.3</ele>
        <time>2026-07-08T09:55:12.000Z</time>
      </trkpt>
      <trkpt lat="45.77738" lon="1.86636">
        <ele>704.8</ele>
        <time>2026-07-08T09:55:13.000Z</time>
      </trkpt>
      <trkpt lat="45.77737" lon="1.86635">
        <ele>704</ele>
        <time>2026-07-08T09:55:14.000Z</time>
      </trkpt>
      <trkpt lat="45.77737" lon="1.86633">
        <ele>704.2</ele>
        <time>2026-07-08T09:55:15.000Z</time>
      </trkpt>
      <trkpt lat="45.77736" lon="1.86631">
        <ele>704.7</ele>
        <time>2026-07-08T09:55:16.000Z</time>
      </trkpt>
      <trkpt lat="45.77735" lon="1.86629">
        <ele>704.6</ele>
        <time>2026-07-08T09:55:17.000Z</time>
      </trkpt>
      <trkpt lat="45.77735" lon="1.86629">
        <ele>704.5</ele>
        <time>2026-07-08T09:55:18.000Z</time>
      </trkpt>
      <trkpt lat="45.77735" lon="1.86629">
        <ele>704.5</ele>
        <time>2026-07-08T09:55:19.000Z</time>
      </trkpt>
      <trkpt lat="45.77734" lon="1.86629">
        <ele>704</ele>
        <time>2026-07-08T09:55:20.000Z</time>
      </trkpt>
      <trkpt lat="45.77732" lon="1.86628">
        <ele>703.2</ele>
        <time>2026-07-08T09:55:21.000Z</time>
      </trkpt>
      <trkpt lat="45.77731" lon="1.86627">
        <ele>701.8</ele>
        <time>2026-07-08T09:55:22.000Z</time>
      </trkpt>
      <trkpt lat="45.7773" lon="1.86627">
        <ele>701.2</ele>
        <time>2026-07-08T09:55:23.000Z</time>
      </trkpt>
      <trkpt lat="45.77728" lon="1.86625">
        <ele>702.4</ele>
        <time>2026-07-08T09:55:24.000Z</time>
      </trkpt>
      <trkpt lat="45.77726" lon="1.86624">
        <ele>702.8</ele>
        <time>2026-07-08T09:55:25.000Z</time>
      </trkpt>
      <trkpt lat="45.77725" lon="1.86623">
        <ele>703.6</ele>
        <time>2026-07-08T09:55:26.000Z</time>
      </trkpt>
      <trkpt lat="45.77723" lon="1.86622">
        <ele>704</ele>
        <time>2026-07-08T09:55:27.000Z</time>
      </trkpt>
      <trkpt lat="45.77723" lon="1.86622">
        <ele>703.9</ele>
        <time>2026-07-08T09:55:28.000Z</time>
      </trkpt>
      <trkpt lat="45.77723" lon="1.86622">
        <ele>703.9</ele>
        <time>2026-07-08T09:55:29.000Z</time>
      </trkpt>
      <trkpt lat="45.77723" lon="1.86622">
        <ele>703.4</ele>
        <time>2026-07-08T09:55:30.000Z</time>
      </trkpt>
      <trkpt lat="45.77723" lon="1.86622">
        <ele>703.4</ele>
        <time>2026-07-08T09:55:31.000Z</time>
      </trkpt>
      <trkpt lat="45.77723" lon="1.86622">
        <ele>703.8</ele>
        <time>2026-07-08T09:55:32.000Z</time>
      </trkpt>
      <trkpt lat="45.77724" lon="1.86622">
        <ele>703.9</ele>
        <time>2026-07-08T09:55:33.000Z</time>
      </trkpt>
      <trkpt lat="45.77726" lon="1.86615">
        <ele>703.7</ele>
        <time>2026-07-08T09:55:34.000Z</time>
      </trkpt>
      <trkpt lat="45.77723" lon="1.86611">
        <ele>704</ele>
        <time>2026-07-08T09:55:35.000Z</time>
      </trkpt>
      <trkpt lat="45.7772" lon="1.86611">
        <ele>705.6</ele>
        <time>2026-07-08T09:55:36.000Z</time>
      </trkpt>
      <trkpt lat="45.77718" lon="1.86612">
        <ele>706.5</ele>
        <time>2026-07-08T09:55:37.000Z</time>
      </trkpt>
      <trkpt lat="45.77717" lon="1.86614">
        <ele>706.6</ele>
        <time>2026-07-08T09:55:38.000Z</time>
      </trkpt>
      <trkpt lat="45.77716" lon="1.86617">
        <ele>710.4</ele>
        <time>2026-07-08T09:55:39.000Z</time>
      </trkpt>
      <trkpt lat="45.77716" lon="1.86621">
        <ele>710.9</ele>
        <time>2026-07-08T09:55:40.000Z</time>
      </trkpt>
      <trkpt lat="45.77717" lon="1.86626">
        <ele>711.4</ele>
        <time>2026-07-08T09:55:41.000Z</time>
      </trkpt>
      <trkpt lat="45.77718" lon="1.8663">
        <ele>711.7</ele>
        <time>2026-07-08T09:55:42.000Z</time>
      </trkpt>
      <trkpt lat="45.77719" lon="1.86633">
        <ele>713</ele>
        <time>2026-07-08T09:55:43.000Z</time>
      </trkpt>
      <trkpt lat="45.7772" lon="1.86637">
        <ele>713.4</ele>
        <time>2026-07-08T09:55:44.000Z</time>
      </trkpt>
      <trkpt lat="45.77722" lon="1.86641">
        <ele>713.6</ele>
        <time>2026-07-08T09:55:45.000Z</time>
      </trkpt>
      <trkpt lat="45.77723" lon="1.86645">
        <ele>713.5</ele>
        <time>2026-07-08T09:55:46.000Z</time>
      </trkpt>
      <trkpt lat="45.77724" lon="1.86647">
        <ele>713.5</ele>
        <time>2026-07-08T09:55:47.000Z</time>
      </trkpt>
      <trkpt lat="45.77724" lon="1.8665">
        <ele>713.8</ele>
        <time>2026-07-08T09:55:48.000Z</time>
      </trkpt>
      <trkpt lat="45.77725" lon="1.86654">
        <ele>714</ele>
        <time>2026-07-08T09:55:49.000Z</time>
      </trkpt>
      <trkpt lat="45.77725" lon="1.86656">
        <ele>713.1</ele>
        <time>2026-07-08T09:55:50.000Z</time>
      </trkpt>
      <trkpt lat="45.77726" lon="1.86659">
        <ele>712.1</ele>
        <time>2026-07-08T09:55:51.000Z</time>
      </trkpt>
      <trkpt lat="45.77726" lon="1.86662">
        <ele>712</ele>
        <time>2026-07-08T09:55:52.000Z</time>
      </trkpt>
      <trkpt lat="45.77727" lon="1.86665">
        <ele>712.3</ele>
        <time>2026-07-08T09:55:53.000Z</time>
      </trkpt>
      <trkpt lat="45.77726" lon="1.86668">
        <ele>712.7</ele>
        <time>2026-07-08T09:55:54.000Z</time>
      </trkpt>
      <trkpt lat="45.77727" lon="1.8667">
        <ele>714.2</ele>
        <time>2026-07-08T09:55:55.000Z</time>
      </trkpt>
      <trkpt lat="45.77728" lon="1.86673">
        <ele>714.5</ele>
        <time>2026-07-08T09:55:56.000Z</time>
      </trkpt>
      <trkpt lat="45.77728" lon="1.86675">
        <ele>713.4</ele>
        <time>2026-07-08T09:55:57.000Z</time>
      </trkpt>
      <trkpt lat="45.77729" lon="1.86678">
        <ele>713.4</ele>
        <time>2026-07-08T09:55:58.000Z</time>
      </trkpt>
      <trkpt lat="45.7773" lon="1.8668">
        <ele>712.5</ele>
        <time>2026-07-08T09:55:59.000Z</time>
      </trkpt>
      <trkpt lat="45.77731" lon="1.86682">
        <ele>710.8</ele>
        <time>2026-07-08T09:56:00.000Z</time>
      </trkpt>
      <trkpt lat="45.77732" lon="1.86685">
        <ele>710.2</ele>
        <time>2026-07-08T09:56:01.000Z</time>
      </trkpt>
      <trkpt lat="45.77732" lon="1.86687">
        <ele>710.1</ele>
        <time>2026-07-08T09:56:02.000Z</time>
      </trkpt>
      <trkpt lat="45.77733" lon="1.86689">
        <ele>711.3</ele>
        <time>2026-07-08T09:56:03.000Z</time>
      </trkpt>
      <trkpt lat="45.77734" lon="1.86692">
        <ele>712</ele>
        <time>2026-07-08T09:56:04.000Z</time>
      </trkpt>
      <trkpt lat="45.77734" lon="1.86694">
        <ele>712.2</ele>
        <time>2026-07-08T09:56:05.000Z</time>
      </trkpt>
      <trkpt lat="45.77734" lon="1.86696">
        <ele>712.5</ele>
        <time>2026-07-08T09:56:06.000Z</time>
      </trkpt>
      <trkpt lat="45.77735" lon="1.86698">
        <ele>714.2</ele>
        <time>2026-07-08T09:56:07.000Z</time>
      </trkpt>
      <trkpt lat="45.77736" lon="1.86701">
        <ele>714.2</ele>
        <time>2026-07-08T09:56:08.000Z</time>
      </trkpt>
      <trkpt lat="45.77736" lon="1.86703">
        <ele>714.3</ele>
        <time>2026-07-08T09:56:09.000Z</time>
      </trkpt>
      <trkpt lat="45.77737" lon="1.86705">
        <ele>713.1</ele>
        <time>2026-07-08T09:56:10.000Z</time>
      </trkpt>
      <trkpt lat="45.77737" lon="1.86708">
        <ele>712.1</ele>
        <time>2026-07-08T09:56:11.000Z</time>
      </trkpt>
      <trkpt lat="45.77737" lon="1.86711">
        <ele>712.2</ele>
        <time>2026-07-08T09:56:12.000Z</time>
      </trkpt>
      <trkpt lat="45.77738" lon="1.86714">
        <ele>711.4</ele>
        <time>2026-07-08T09:56:13.000Z</time>
      </trkpt>
      <trkpt lat="45.77739" lon="1.86717">
        <ele>711.6</ele>
        <time>2026-07-08T09:56:14.000Z</time>
      </trkpt>
      <trkpt lat="45.7774" lon="1.86721">
        <ele>711.1</ele>
        <time>2026-07-08T09:56:15.000Z</time>
      </trkpt>
      <trkpt lat="45.7774" lon="1.86724">
        <ele>711.4</ele>
        <time>2026-07-08T09:56:16.000Z</time>
      </trkpt>
      <trkpt lat="45.77741" lon="1.86727">
        <ele>711.4</ele>
        <time>2026-07-08T09:56:17.000Z</time>
      </trkpt>
      <trkpt lat="45.77741" lon="1.8673">
        <ele>711.3</ele>
        <time>2026-07-08T09:56:18.000Z</time>
      </trkpt>
      <trkpt lat="45.77741" lon="1.86733">
        <ele>712.6</ele>
        <time>2026-07-08T09:56:19.000Z</time>
      </trkpt>
      <trkpt lat="45.77741" lon="1.86736">
        <ele>713.5</ele>
        <time>2026-07-08T09:56:20.000Z</time>
      </trkpt>
      <trkpt lat="45.7774" lon="1.86738">
        <ele>713.2</ele>
        <time>2026-07-08T09:56:21.000Z</time>
      </trkpt>
      <trkpt lat="45.7774" lon="1.8674">
        <ele>713.2</ele>
        <time>2026-07-08T09:56:22.000Z</time>
      </trkpt>
      <trkpt lat="45.77742" lon="1.86742">
        <ele>713.4</ele>
        <time>2026-07-08T09:56:23.000Z</time>
      </trkpt>
      <trkpt lat="45.77743" lon="1.86743">
        <ele>713.1</ele>
        <time>2026-07-08T09:56:24.000Z</time>
      </trkpt>
      <trkpt lat="45.77745" lon="1.86744">
        <ele>713.3</ele>
        <time>2026-07-08T09:56:25.000Z</time>
      </trkpt>
      <trkpt lat="45.77746" lon="1.86746">
        <ele>712.2</ele>
        <time>2026-07-08T09:56:26.000Z</time>
      </trkpt>
      <trkpt lat="45.77747" lon="1.86748">
        <ele>711.7</ele>
        <time>2026-07-08T09:56:27.000Z</time>
      </trkpt>
      <trkpt lat="45.77748" lon="1.8675">
        <ele>711</ele>
        <time>2026-07-08T09:56:28.000Z</time>
      </trkpt>
      <trkpt lat="45.77748" lon="1.86752">
        <ele>710.2</ele>
        <time>2026-07-08T09:56:29.000Z</time>
      </trkpt>
      <trkpt lat="45.77749" lon="1.86754">
        <ele>709.9</ele>
        <time>2026-07-08T09:56:30.000Z</time>
      </trkpt>
      <trkpt lat="45.77751" lon="1.86756">
        <ele>709.5</ele>
        <time>2026-07-08T09:56:31.000Z</time>
      </trkpt>
      <trkpt lat="45.77752" lon="1.86758">
        <ele>709</ele>
        <time>2026-07-08T09:56:32.000Z</time>
      </trkpt>
      <trkpt lat="45.77753" lon="1.8676">
        <ele>709.1</ele>
        <time>2026-07-08T09:56:33.000Z</time>
      </trkpt>
      <trkpt lat="45.77754" lon="1.86763">
        <ele>709.8</ele>
        <time>2026-07-08T09:56:34.000Z</time>
      </trkpt>
      <trkpt lat="45.77755" lon="1.86765">
        <ele>709.8</ele>
        <time>2026-07-08T09:56:35.000Z</time>
      </trkpt>
      <trkpt lat="45.77756" lon="1.86767">
        <ele>707</ele>
        <time>2026-07-08T09:56:36.000Z</time>
      </trkpt>
      <trkpt lat="45.77758" lon="1.8677">
        <ele>708.7</ele>
        <time>2026-07-08T09:56:37.000Z</time>
      </trkpt>
      <trkpt lat="45.77759" lon="1.86773">
        <ele>709.3</ele>
        <time>2026-07-08T09:56:38.000Z</time>
      </trkpt>
      <trkpt lat="45.7776" lon="1.86774">
        <ele>708.8</ele>
        <time>2026-07-08T09:56:39.000Z</time>
      </trkpt>
      <trkpt lat="45.77761" lon="1.86775">
        <ele>709.2</ele>
        <time>2026-07-08T09:56:40.000Z</time>
      </trkpt>
      <trkpt lat="45.77763" lon="1.86775">
        <ele>708.7</ele>
        <time>2026-07-08T09:56:41.000Z</time>
      </trkpt>
      <trkpt lat="45.77764" lon="1.86777">
        <ele>708.7</ele>
        <time>2026-07-08T09:56:42.000Z</time>
      </trkpt>
      <trkpt lat="45.77764" lon="1.86779">
        <ele>708.8</ele>
        <time>2026-07-08T09:56:43.000Z</time>
      </trkpt>
      <trkpt lat="45.77764" lon="1.86782">
        <ele>708.8</ele>
        <time>2026-07-08T09:56:44.000Z</time>
      </trkpt>
      <trkpt lat="45.77764" lon="1.86785">
        <ele>708.9</ele>
        <time>2026-07-08T09:56:45.000Z</time>
      </trkpt>
      <trkpt lat="45.77764" lon="1.86788">
        <ele>708.8</ele>
        <time>2026-07-08T09:56:46.000Z</time>
      </trkpt>
      <trkpt lat="45.77764" lon="1.86791">
        <ele>709</ele>
        <time>2026-07-08T09:56:47.000Z</time>
      </trkpt>
      <trkpt lat="45.77764" lon="1.86794">
        <ele>709</ele>
        <time>2026-07-08T09:56:48.000Z</time>
      </trkpt>
      <trkpt lat="45.77764" lon="1.86796">
        <ele>709.4</ele>
        <time>2026-07-08T09:56:49.000Z</time>
      </trkpt>
      <trkpt lat="45.77764" lon="1.86799">
        <ele>709.5</ele>
        <time>2026-07-08T09:56:50.000Z</time>
      </trkpt>
      <trkpt lat="45.77764" lon="1.86801">
        <ele>709.5</ele>
        <time>2026-07-08T09:56:51.000Z</time>
      </trkpt>
      <trkpt lat="45.77766" lon="1.86803">
        <ele>709.3</ele>
        <time>2026-07-08T09:56:52.000Z</time>
      </trkpt>
      <trkpt lat="45.77767" lon="1.86805">
        <ele>709.4</ele>
        <time>2026-07-08T09:56:53.000Z</time>
      </trkpt>
      <trkpt lat="45.77768" lon="1.86807">
        <ele>709.4</ele>
        <time>2026-07-08T09:56:54.000Z</time>
      </trkpt>
      <trkpt lat="45.77768" lon="1.86809">
        <ele>709.7</ele>
        <time>2026-07-08T09:56:55.000Z</time>
      </trkpt>
      <trkpt lat="45.77769" lon="1.86811">
        <ele>709.9</ele>
        <time>2026-07-08T09:56:56.000Z</time>
      </trkpt>
      <trkpt lat="45.7777" lon="1.86813">
        <ele>710</ele>
        <time>2026-07-08T09:56:57.000Z</time>
      </trkpt>
      <trkpt lat="45.7777" lon="1.86815">
        <ele>709.5</ele>
        <time>2026-07-08T09:56:58.000Z</time>
      </trkpt>
      <trkpt lat="45.7777" lon="1.86818">
        <ele>709.4</ele>
        <time>2026-07-08T09:56:59.000Z</time>
      </trkpt>
      <trkpt lat="45.7777" lon="1.8682">
        <ele>708.4</ele>
        <time>2026-07-08T09:57:00.000Z</time>
      </trkpt>
      <trkpt lat="45.7777" lon="1.86821">
        <ele>708</ele>
        <time>2026-07-08T09:57:01.000Z</time>
      </trkpt>
      <trkpt lat="45.77769" lon="1.86823">
        <ele>707.8</ele>
        <time>2026-07-08T09:57:02.000Z</time>
      </trkpt>
      <trkpt lat="45.77769" lon="1.86825">
        <ele>707.5</ele>
        <time>2026-07-08T09:57:03.000Z</time>
      </trkpt>
      <trkpt lat="45.7777" lon="1.86827">
        <ele>707.3</ele>
        <time>2026-07-08T09:57:04.000Z</time>
      </trkpt>
      <trkpt lat="45.77772" lon="1.86826">
        <ele>706.9</ele>
        <time>2026-07-08T09:57:05.000Z</time>
      </trkpt>
      <trkpt lat="45.7777" lon="1.86829">
        <ele>707.4</ele>
        <time>2026-07-08T09:57:06.000Z</time>
      </trkpt>
      <trkpt lat="45.77769" lon="1.86832">
        <ele>707.7</ele>
        <time>2026-07-08T09:57:07.000Z</time>
      </trkpt>
      <trkpt lat="45.77768" lon="1.86835">
        <ele>707.8</ele>
        <time>2026-07-08T09:57:08.000Z</time>
      </trkpt>
      <trkpt lat="45.77767" lon="1.86837">
        <ele>707.6</ele>
        <time>2026-07-08T09:57:09.000Z</time>
      </trkpt>
      <trkpt lat="45.77767" lon="1.86839">
        <ele>707.6</ele>
        <time>2026-07-08T09:57:10.000Z</time>
      </trkpt>
      <trkpt lat="45.77766" lon="1.86841">
        <ele>707.6</ele>
        <time>2026-07-08T09:57:11.000Z</time>
      </trkpt>
      <trkpt lat="45.77766" lon="1.86844">
        <ele>707.6</ele>
        <time>2026-07-08T09:57:12.000Z</time>
      </trkpt>
      <trkpt lat="45.77766" lon="1.86846">
        <ele>708.1</ele>
        <time>2026-07-08T09:57:13.000Z</time>
      </trkpt>
      <trkpt lat="45.77765" lon="1.86849">
        <ele>707.8</ele>
        <time>2026-07-08T09:57:14.000Z</time>
      </trkpt>
      <trkpt lat="45.77765" lon="1.86851">
        <ele>707.3</ele>
        <time>2026-07-08T09:57:15.000Z</time>
      </trkpt>
      <trkpt lat="45.77765" lon="1.86853">
        <ele>707.5</ele>
        <time>2026-07-08T09:57:16.000Z</time>
      </trkpt>
      <trkpt lat="45.77765" lon="1.86856">
        <ele>707.7</ele>
        <time>2026-07-08T09:57:17.000Z</time>
      </trkpt>
      <trkpt lat="45.77765" lon="1.86858">
        <ele>708.1</ele>
        <time>2026-07-08T09:57:18.000Z</time>
      </trkpt>
      <trkpt lat="45.77765" lon="1.8686">
        <ele>708.2</ele>
        <time>2026-07-08T09:57:19.000Z</time>
      </trkpt>
      <trkpt lat="45.77765" lon="1.86862">
        <ele>708.2</ele>
        <time>2026-07-08T09:57:20.000Z</time>
      </trkpt>
      <trkpt lat="45.77762" lon="1.86864">
        <ele>709.4</ele>
        <time>2026-07-08T09:57:21.000Z</time>
      </trkpt>
      <trkpt lat="45.7776" lon="1.8686">
        <ele>710.3</ele>
        <time>2026-07-08T09:57:22.000Z</time>
      </trkpt>
      <trkpt lat="45.77759" lon="1.86858">
        <ele>709.8</ele>
        <time>2026-07-08T09:57:23.000Z</time>
      </trkpt>
      <trkpt lat="45.7776" lon="1.86858">
        <ele>709.4</ele>
        <time>2026-07-08T09:57:24.000Z</time>
      </trkpt>
      <trkpt lat="45.7776" lon="1.86859">
        <ele>709</ele>
        <time>2026-07-08T09:57:25.000Z</time>
      </trkpt>
      <trkpt lat="45.77756" lon="1.8686">
        <ele>708.9</ele>
        <time>2026-07-08T09:57:26.000Z</time>
      </trkpt>
      <trkpt lat="45.77755" lon="1.86862">
        <ele>708.3</ele>
        <time>2026-07-08T09:57:27.000Z</time>
      </trkpt>
      <trkpt lat="45.77754" lon="1.86863">
        <ele>708.7</ele>
        <time>2026-07-08T09:57:28.000Z</time>
      </trkpt>
      <trkpt lat="45.77754" lon="1.86864">
        <ele>708.9</ele>
        <time>2026-07-08T09:57:29.000Z</time>
      </trkpt>
      <trkpt lat="45.7776" lon="1.8687">
        <ele>706.6</ele>
        <time>2026-07-08T09:57:30.000Z</time>
      </trkpt>
      <trkpt lat="45.77759" lon="1.86872">
        <ele>706.1</ele>
        <time>2026-07-08T09:57:31.000Z</time>
      </trkpt>
      <trkpt lat="45.77758" lon="1.86873">
        <ele>705.9</ele>
        <time>2026-07-08T09:57:32.000Z</time>
      </trkpt>
      <trkpt lat="45.77756" lon="1.86874">
        <ele>704.9</ele>
        <time>2026-07-08T09:57:33.000Z</time>
      </trkpt>
      <trkpt lat="45.77755" lon="1.86875">
        <ele>704.7</ele>
        <time>2026-07-08T09:57:34.000Z</time>
      </trkpt>
      <trkpt lat="45.77754" lon="1.86875">
        <ele>704.5</ele>
        <time>2026-07-08T09:57:35.000Z</time>
      </trkpt>
      <trkpt lat="45.77753" lon="1.86876">
        <ele>704</ele>
        <time>2026-07-08T09:57:36.000Z</time>
      </trkpt>
      <trkpt lat="45.77751" lon="1.86877">
        <ele>703.7</ele>
        <time>2026-07-08T09:57:37.000Z</time>
      </trkpt>
      <trkpt lat="45.7775" lon="1.86877">
        <ele>704.3</ele>
        <time>2026-07-08T09:57:38.000Z</time>
      </trkpt>
      <trkpt lat="45.77752" lon="1.86878">
        <ele>702.6</ele>
        <time>2026-07-08T09:57:39.000Z</time>
      </trkpt>
      <trkpt lat="45.77752" lon="1.86878">
        <ele>702.6</ele>
        <time>2026-07-08T09:57:40.000Z</time>
      </trkpt>
      <trkpt lat="45.77752" lon="1.86878">
        <ele>702.6</ele>
        <time>2026-07-08T09:57:41.000Z</time>
      </trkpt>
      <trkpt lat="45.77752" lon="1.86878">
        <ele>702.3</ele>
        <time>2026-07-08T09:57:42.000Z</time>
      </trkpt>
      <trkpt lat="45.77752" lon="1.86879">
        <ele>702.3</ele>
        <time>2026-07-08T09:57:43.000Z</time>
      </trkpt>
      <trkpt lat="45.77752" lon="1.86879">
        <ele>702.2</ele>
        <time>2026-07-08T09:57:44.000Z</time>
      </trkpt>
      <trkpt lat="45.77751" lon="1.86879">
        <ele>702.6</ele>
        <time>2026-07-08T09:57:45.000Z</time>
      </trkpt>
      <trkpt lat="45.77751" lon="1.8688">
        <ele>702.7</ele>
        <time>2026-07-08T09:57:46.000Z</time>
      </trkpt>
      <trkpt lat="45.77751" lon="1.8688">
        <ele>702.7</ele>
        <time>2026-07-08T09:57:47.000Z</time>
      </trkpt>
      <trkpt lat="45.77751" lon="1.8688">
        <ele>702.7</ele>
        <time>2026-07-08T09:57:48.000Z</time>
      </trkpt>
      <trkpt lat="45.7775" lon="1.8688">
        <ele>702.5</ele>
        <time>2026-07-08T09:57:49.000Z</time>
      </trkpt>
      <trkpt lat="45.77749" lon="1.86881">
        <ele>702.1</ele>
        <time>2026-07-08T09:57:50.000Z</time>
      </trkpt>
      <trkpt lat="45.77748" lon="1.8688">
        <ele>702.2</ele>
        <time>2026-07-08T09:57:51.000Z</time>
      </trkpt>
      <trkpt lat="45.77746" lon="1.8688">
        <ele>705.3</ele>
        <time>2026-07-08T09:57:52.000Z</time>
      </trkpt>
      <trkpt lat="45.77744" lon="1.86879">
        <ele>705.4</ele>
        <time>2026-07-08T09:57:53.000Z</time>
      </trkpt>
      <trkpt lat="45.77745" lon="1.8688">
        <ele>704.1</ele>
        <time>2026-07-08T09:57:54.000Z</time>
      </trkpt>
      <trkpt lat="45.77747" lon="1.86881">
        <ele>704</ele>
        <time>2026-07-08T09:57:55.000Z</time>
      </trkpt>
      <trkpt lat="45.77746" lon="1.86881">
        <ele>703.7</ele>
        <time>2026-07-08T09:57:56.000Z</time>
      </trkpt>
      <trkpt lat="45.77745" lon="1.86881">
        <ele>704.1</ele>
        <time>2026-07-08T09:57:57.000Z</time>
      </trkpt>
      <trkpt lat="45.77744" lon="1.86882">
        <ele>703.7</ele>
        <time>2026-07-08T09:57:58.000Z</time>
      </trkpt>
      <trkpt lat="45.77742" lon="1.86882">
        <ele>703.8</ele>
        <time>2026-07-08T09:57:59.000Z</time>
      </trkpt>
      <trkpt lat="45.7774" lon="1.86883">
        <ele>703.7</ele>
        <time>2026-07-08T09:58:00.000Z</time>
      </trkpt>
      <trkpt lat="45.77739" lon="1.86883">
        <ele>703.8</ele>
        <time>2026-07-08T09:58:01.000Z</time>
      </trkpt>
      <trkpt lat="45.77738" lon="1.86884">
        <ele>704</ele>
        <time>2026-07-08T09:58:02.000Z</time>
      </trkpt>
      <trkpt lat="45.77736" lon="1.86884">
        <ele>703.9</ele>
        <time>2026-07-08T09:58:03.000Z</time>
      </trkpt>
      <trkpt lat="45.77735" lon="1.86884">
        <ele>703.6</ele>
        <time>2026-07-08T09:58:04.000Z</time>
      </trkpt>
      <trkpt lat="45.77733" lon="1.86884">
        <ele>703.3</ele>
        <time>2026-07-08T09:58:05.000Z</time>
      </trkpt>
      <trkpt lat="45.77732" lon="1.86886">
        <ele>703.9</ele>
        <time>2026-07-08T09:58:06.000Z</time>
      </trkpt>
      <trkpt lat="45.77731" lon="1.86887">
        <ele>703.6</ele>
        <time>2026-07-08T09:58:07.000Z</time>
      </trkpt>
      <trkpt lat="45.7773" lon="1.86887">
        <ele>703.6</ele>
        <time>2026-07-08T09:58:08.000Z</time>
      </trkpt>
      <trkpt lat="45.77729" lon="1.86888">
        <ele>703.6</ele>
        <time>2026-07-08T09:58:09.000Z</time>
      </trkpt>
      <trkpt lat="45.77727" lon="1.86888">
        <ele>703.5</ele>
        <time>2026-07-08T09:58:10.000Z</time>
      </trkpt>
      <trkpt lat="45.77726" lon="1.86888">
        <ele>703.3</ele>
        <time>2026-07-08T09:58:11.000Z</time>
      </trkpt>
      <trkpt lat="45.77725" lon="1.86889">
        <ele>703.4</ele>
        <time>2026-07-08T09:58:12.000Z</time>
      </trkpt>
      <trkpt lat="45.77724" lon="1.86889">
        <ele>703.7</ele>
        <time>2026-07-08T09:58:13.000Z</time>
      </trkpt>
      <trkpt lat="45.77722" lon="1.86889">
        <ele>704.2</ele>
        <time>2026-07-08T09:58:14.000Z</time>
      </trkpt>
      <trkpt lat="45.77721" lon="1.86889">
        <ele>704.1</ele>
        <time>2026-07-08T09:58:15.000Z</time>
      </trkpt>
      <trkpt lat="45.7772" lon="1.86889">
        <ele>703.7</ele>
        <time>2026-07-08T09:58:16.000Z</time>
      </trkpt>
      <trkpt lat="45.77719" lon="1.86889">
        <ele>703.3</ele>
        <time>2026-07-08T09:58:17.000Z</time>
      </trkpt>
      <trkpt lat="45.77718" lon="1.86889">
        <ele>703.2</ele>
        <time>2026-07-08T09:58:18.000Z</time>
      </trkpt>
      <trkpt lat="45.77716" lon="1.86889">
        <ele>703.9</ele>
        <time>2026-07-08T09:58:19.000Z</time>
      </trkpt>
      <trkpt lat="45.77715" lon="1.86889">
        <ele>704.2</ele>
        <time>2026-07-08T09:58:20.000Z</time>
      </trkpt>
      <trkpt lat="45.77714" lon="1.8689">
        <ele>704.1</ele>
        <time>2026-07-08T09:58:21.000Z</time>
      </trkpt>
      <trkpt lat="45.77714" lon="1.8689">
        <ele>704.2</ele>
        <time>2026-07-08T09:58:22.000Z</time>
      </trkpt>
      <trkpt lat="45.77713" lon="1.8689">
        <ele>703.7</ele>
        <time>2026-07-08T09:58:23.000Z</time>
      </trkpt>
      <trkpt lat="45.77713" lon="1.86891">
        <ele>703.5</ele>
        <time>2026-07-08T09:58:24.000Z</time>
      </trkpt>
      <trkpt lat="45.77713" lon="1.86891">
        <ele>703.5</ele>
        <time>2026-07-08T09:58:25.000Z</time>
      </trkpt>
      <trkpt lat="45.77712" lon="1.86891">
        <ele>703.8</ele>
        <time>2026-07-08T09:58:26.000Z</time>
      </trkpt>
      <trkpt lat="45.77712" lon="1.86892">
        <ele>703.8</ele>
        <time>2026-07-08T09:58:27.000Z</time>
      </trkpt>
      <trkpt lat="45.77711" lon="1.86892">
        <ele>702.8</ele>
        <time>2026-07-08T09:58:28.000Z</time>
      </trkpt>
      <trkpt lat="45.7771" lon="1.8689">
        <ele>703.8</ele>
        <time>2026-07-08T09:58:29.000Z</time>
      </trkpt>
      <trkpt lat="45.7771" lon="1.8689">
        <ele>703.9</ele>
        <time>2026-07-08T09:58:30.000Z</time>
      </trkpt>
      <trkpt lat="45.7771" lon="1.8689">
        <ele>703.9</ele>
        <time>2026-07-08T09:58:31.000Z</time>
      </trkpt>
      <trkpt lat="45.7771" lon="1.8689">
        <ele>703.9</ele>
        <time>2026-07-08T09:58:32.000Z</time>
      </trkpt>
      <trkpt lat="45.7771" lon="1.8689">
        <ele>703.9</ele>
        <time>2026-07-08T09:58:33.000Z</time>
      </trkpt>
      <trkpt lat="45.7771" lon="1.8689">
        <ele>703.6</ele>
        <time>2026-07-08T09:58:34.000Z</time>
      </trkpt>
      <trkpt lat="45.7771" lon="1.8689">
        <ele>703.6</ele>
        <time>2026-07-08T09:58:35.000Z</time>
      </trkpt>
      <trkpt lat="45.7771" lon="1.86891">
        <ele>703.6</ele>
        <time>2026-07-08T09:58:36.000Z</time>
      </trkpt>
      <trkpt lat="45.7771" lon="1.86891">
        <ele>703.6</ele>
        <time>2026-07-08T09:58:37.000Z</time>
      </trkpt>
      <trkpt lat="45.7771" lon="1.86891">
        <ele>703.9</ele>
        <time>2026-07-08T09:58:38.000Z</time>
      </trkpt>
      <trkpt lat="45.7771" lon="1.86891">
        <ele>704.5</ele>
        <time>2026-07-08T09:58:39.000Z</time>
      </trkpt>
      <trkpt lat="45.7771" lon="1.8689">
        <ele>704.5</ele>
        <time>2026-07-08T09:58:40.000Z</time>
      </trkpt>
      <trkpt lat="45.7771" lon="1.86891">
        <ele>704.4</ele>
        <time>2026-07-08T09:58:41.000Z</time>
      </trkpt>
      <trkpt lat="45.7771" lon="1.86891">
        <ele>703.9</ele>
        <time>2026-07-08T09:58:42.000Z</time>
      </trkpt>
      <trkpt lat="45.7771" lon="1.86891">
        <ele>703.9</ele>
        <time>2026-07-08T09:58:43.000Z</time>
      </trkpt>
      <trkpt lat="45.7771" lon="1.86892">
        <ele>703.8</ele>
        <time>2026-07-08T09:58:44.000Z</time>
      </trkpt>
      <trkpt lat="45.7771" lon="1.86892">
        <ele>703.2</ele>
        <time>2026-07-08T09:58:45.000Z</time>
      </trkpt>
      <trkpt lat="45.7771" lon="1.86892">
        <ele>703.3</ele>
        <time>2026-07-08T09:58:46.000Z</time>
      </trkpt>
      <trkpt lat="45.7771" lon="1.86892">
        <ele>703.3</ele>
        <time>2026-07-08T09:58:47.000Z</time>
      </trkpt>
      <trkpt lat="45.7771" lon="1.86892">
        <ele>703.3</ele>
        <time>2026-07-08T09:58:48.000Z</time>
      </trkpt>
      <trkpt lat="45.7771" lon="1.86893">
        <ele>702.9</ele>
        <time>2026-07-08T09:58:49.000Z</time>
      </trkpt>
      <trkpt lat="45.7771" lon="1.86894">
        <ele>702.2</ele>
        <time>2026-07-08T09:58:50.000Z</time>
      </trkpt>
      <trkpt lat="45.77709" lon="1.86895">
        <ele>701.6</ele>
        <time>2026-07-08T09:58:51.000Z</time>
      </trkpt>
      <trkpt lat="45.77709" lon="1.86897">
        <ele>701.4</ele>
        <time>2026-07-08T09:58:52.000Z</time>
      </trkpt>
      <trkpt lat="45.77709" lon="1.86899">
        <ele>701.4</ele>
        <time>2026-07-08T09:58:53.000Z</time>
      </trkpt>
      <trkpt lat="45.77709" lon="1.86901">
        <ele>701.7</ele>
        <time>2026-07-08T09:58:54.000Z</time>
      </trkpt>
      <trkpt lat="45.77709" lon="1.86904">
        <ele>702.4</ele>
        <time>2026-07-08T09:58:55.000Z</time>
      </trkpt>
      <trkpt lat="45.77709" lon="1.86908">
        <ele>702.5</ele>
        <time>2026-07-08T09:58:56.000Z</time>
      </trkpt>
      <trkpt lat="45.77709" lon="1.8691">
        <ele>703</ele>
        <time>2026-07-08T09:58:57.000Z</time>
      </trkpt>
      <trkpt lat="45.77709" lon="1.86913">
        <ele>702.9</ele>
        <time>2026-07-08T09:58:58.000Z</time>
      </trkpt>
      <trkpt lat="45.7771" lon="1.86915">
        <ele>703.4</ele>
        <time>2026-07-08T09:58:59.000Z</time>
      </trkpt>
      <trkpt lat="45.77711" lon="1.86918">
        <ele>703.5</ele>
        <time>2026-07-08T09:59:00.000Z</time>
      </trkpt>
      <trkpt lat="45.7771" lon="1.86921">
        <ele>704.3</ele>
        <time>2026-07-08T09:59:01.000Z</time>
      </trkpt>
      <trkpt lat="45.7771" lon="1.86924">
        <ele>705</ele>
        <time>2026-07-08T09:59:02.000Z</time>
      </trkpt>
      <trkpt lat="45.7771" lon="1.86927">
        <ele>705.1</ele>
        <time>2026-07-08T09:59:03.000Z</time>
      </trkpt>
      <trkpt lat="45.7771" lon="1.86929">
        <ele>704.3</ele>
        <time>2026-07-08T09:59:04.000Z</time>
      </trkpt>
      <trkpt lat="45.7771" lon="1.86931">
        <ele>704.5</ele>
        <time>2026-07-08T09:59:05.000Z</time>
      </trkpt>
      <trkpt lat="45.7771" lon="1.86933">
        <ele>704.5</ele>
        <time>2026-07-08T09:59:06.000Z</time>
      </trkpt>
      <trkpt lat="45.7771" lon="1.86935">
        <ele>705.1</ele>
        <time>2026-07-08T09:59:07.000Z</time>
      </trkpt>
      <trkpt lat="45.7771" lon="1.86937">
        <ele>704.8</ele>
        <time>2026-07-08T09:59:08.000Z</time>
      </trkpt>
      <trkpt lat="45.77711" lon="1.86939">
        <ele>704.7</ele>
        <time>2026-07-08T09:59:09.000Z</time>
      </trkpt>
      <trkpt lat="45.77711" lon="1.86941">
        <ele>704.7</ele>
        <time>2026-07-08T09:59:10.000Z</time>
      </trkpt>
      <trkpt lat="45.77711" lon="1.86943">
        <ele>705.4</ele>
        <time>2026-07-08T09:59:11.000Z</time>
      </trkpt>
      <trkpt lat="45.77712" lon="1.86944">
        <ele>704.7</ele>
        <time>2026-07-08T09:59:12.000Z</time>
      </trkpt>
      <trkpt lat="45.77712" lon="1.86946">
        <ele>705.3</ele>
        <time>2026-07-08T09:59:13.000Z</time>
      </trkpt>
      <trkpt lat="45.77713" lon="1.86948">
        <ele>707.6</ele>
        <time>2026-07-08T09:59:14.000Z</time>
      </trkpt>
      <trkpt lat="45.77713" lon="1.86951">
        <ele>708.8</ele>
        <time>2026-07-08T09:59:15.000Z</time>
      </trkpt>
      <trkpt lat="45.7771" lon="1.86945">
        <ele>702.5</ele>
        <time>2026-07-08T09:59:16.000Z</time>
      </trkpt>
      <trkpt lat="45.7771" lon="1.86945">
        <ele>703.3</ele>
        <time>2026-07-08T09:59:17.000Z</time>
      </trkpt>
      <trkpt lat="45.7771" lon="1.86947">
        <ele>704.5</ele>
        <time>2026-07-08T09:59:18.000Z</time>
      </trkpt>
      <trkpt lat="45.77711" lon="1.86949">
        <ele>705.1</ele>
        <time>2026-07-08T09:59:19.000Z</time>
      </trkpt>
      <trkpt lat="45.77711" lon="1.86952">
        <ele>706.1</ele>
        <time>2026-07-08T09:59:20.000Z</time>
      </trkpt>
      <trkpt lat="45.77711" lon="1.86955">
        <ele>705</ele>
        <time>2026-07-08T09:59:21.000Z</time>
      </trkpt>
      <trkpt lat="45.77712" lon="1.86956">
        <ele>704.8</ele>
        <time>2026-07-08T09:59:22.000Z</time>
      </trkpt>
      <trkpt lat="45.77712" lon="1.86957">
        <ele>705.6</ele>
        <time>2026-07-08T09:59:23.000Z</time>
      </trkpt>
      <trkpt lat="45.77713" lon="1.86959">
        <ele>705.2</ele>
        <time>2026-07-08T09:59:24.000Z</time>
      </trkpt>
      <trkpt lat="45.77713" lon="1.8696">
        <ele>703.2</ele>
        <time>2026-07-08T09:59:25.000Z</time>
      </trkpt>
      <trkpt lat="45.77713" lon="1.86961">
        <ele>703</ele>
        <time>2026-07-08T09:59:26.000Z</time>
      </trkpt>
      <trkpt lat="45.77714" lon="1.86963">
        <ele>702.8</ele>
        <time>2026-07-08T09:59:27.000Z</time>
      </trkpt>
      <trkpt lat="45.77714" lon="1.86964">
        <ele>702.1</ele>
        <time>2026-07-08T09:59:28.000Z</time>
      </trkpt>
      <trkpt lat="45.77714" lon="1.86966">
        <ele>702.4</ele>
        <time>2026-07-08T09:59:29.000Z</time>
      </trkpt>
      <trkpt lat="45.77715" lon="1.86968">
        <ele>703.3</ele>
        <time>2026-07-08T09:59:30.000Z</time>
      </trkpt>
      <trkpt lat="45.77715" lon="1.86969">
        <ele>704.2</ele>
        <time>2026-07-08T09:59:31.000Z</time>
      </trkpt>
      <trkpt lat="45.77715" lon="1.8697">
        <ele>704.4</ele>
        <time>2026-07-08T09:59:32.000Z</time>
      </trkpt>
      <trkpt lat="45.77716" lon="1.86971">
        <ele>704.9</ele>
        <time>2026-07-08T09:59:33.000Z</time>
      </trkpt>
      <trkpt lat="45.77716" lon="1.86973">
        <ele>705.9</ele>
        <time>2026-07-08T09:59:34.000Z</time>
      </trkpt>
      <trkpt lat="45.77716" lon="1.86974">
        <ele>706.3</ele>
        <time>2026-07-08T09:59:35.000Z</time>
      </trkpt>
      <trkpt lat="45.77716" lon="1.86975">
        <ele>706.5</ele>
        <time>2026-07-08T09:59:36.000Z</time>
      </trkpt>
      <trkpt lat="45.77716" lon="1.86977">
        <ele>706.5</ele>
        <time>2026-07-08T09:59:37.000Z</time>
      </trkpt>
      <trkpt lat="45.77716" lon="1.86978">
        <ele>706.2</ele>
        <time>2026-07-08T09:59:38.000Z</time>
      </trkpt>
      <trkpt lat="45.77716" lon="1.86979">
        <ele>705.4</ele>
        <time>2026-07-08T09:59:39.000Z</time>
      </trkpt>
      <trkpt lat="45.77716" lon="1.8698">
        <ele>704.7</ele>
        <time>2026-07-08T09:59:40.000Z</time>
      </trkpt>
      <trkpt lat="45.77716" lon="1.86981">
        <ele>704.1</ele>
        <time>2026-07-08T09:59:41.000Z</time>
      </trkpt>
      <trkpt lat="45.77716" lon="1.86982">
        <ele>703</ele>
        <time>2026-07-08T09:59:42.000Z</time>
      </trkpt>
      <trkpt lat="45.77715" lon="1.86983">
        <ele>702.3</ele>
        <time>2026-07-08T09:59:43.000Z</time>
      </trkpt>
      <trkpt lat="45.77715" lon="1.86984">
        <ele>702.5</ele>
        <time>2026-07-08T09:59:44.000Z</time>
      </trkpt>
      <trkpt lat="45.77715" lon="1.86986">
        <ele>702.5</ele>
        <time>2026-07-08T09:59:45.000Z</time>
      </trkpt>
      <trkpt lat="45.77715" lon="1.86987">
        <ele>702.8</ele>
        <time>2026-07-08T09:59:46.000Z</time>
      </trkpt>
      <trkpt lat="45.77715" lon="1.86989">
        <ele>703.1</ele>
        <time>2026-07-08T09:59:47.000Z</time>
      </trkpt>
      <trkpt lat="45.77715" lon="1.8699">
        <ele>702.1</ele>
        <time>2026-07-08T09:59:48.000Z</time>
      </trkpt>
      <trkpt lat="45.77716" lon="1.86992">
        <ele>701.9</ele>
        <time>2026-07-08T09:59:49.000Z</time>
      </trkpt>
      <trkpt lat="45.77716" lon="1.86993">
        <ele>701.5</ele>
        <time>2026-07-08T09:59:50.000Z</time>
      </trkpt>
      <trkpt lat="45.77717" lon="1.86995">
        <ele>702.1</ele>
        <time>2026-07-08T09:59:51.000Z</time>
      </trkpt>
      <trkpt lat="45.77717" lon="1.86997">
        <ele>702</ele>
        <time>2026-07-08T09:59:52.000Z</time>
      </trkpt>
      <trkpt lat="45.77717" lon="1.86998">
        <ele>701.5</ele>
        <time>2026-07-08T09:59:53.000Z</time>
      </trkpt>
      <trkpt lat="45.77718" lon="1.87">
        <ele>701.7</ele>
        <time>2026-07-08T09:59:54.000Z</time>
      </trkpt>
      <trkpt lat="45.77719" lon="1.87002">
        <ele>700.7</ele>
        <time>2026-07-08T09:59:55.000Z</time>
      </trkpt>
      <trkpt lat="45.77719" lon="1.87004">
        <ele>700.4</ele>
        <time>2026-07-08T09:59:56.000Z</time>
      </trkpt>
      <trkpt lat="45.7772" lon="1.87005">
        <ele>700.6</ele>
        <time>2026-07-08T09:59:57.000Z</time>
      </trkpt>
      <trkpt lat="45.77721" lon="1.87007">
        <ele>701</ele>
        <time>2026-07-08T09:59:58.000Z</time>
      </trkpt>
      <trkpt lat="45.77721" lon="1.87009">
        <ele>701.1</ele>
        <time>2026-07-08T09:59:59.000Z</time>
      </trkpt>
      <trkpt lat="45.77722" lon="1.87011">
        <ele>701.7</ele>
        <time>2026-07-08T10:00:00.000Z</time>
      </trkpt>
      <trkpt lat="45.77722" lon="1.87013">
        <ele>701.9</ele>
        <time>2026-07-08T10:00:01.000Z</time>
      </trkpt>
      <trkpt lat="45.77723" lon="1.87015">
        <ele>702</ele>
        <time>2026-07-08T10:00:02.000Z</time>
      </trkpt>
      <trkpt lat="45.77723" lon="1.87016">
        <ele>702.2</ele>
        <time>2026-07-08T10:00:03.000Z</time>
      </trkpt>
      <trkpt lat="45.77724" lon="1.87018">
        <ele>702.6</ele>
        <time>2026-07-08T10:00:04.000Z</time>
      </trkpt>
      <trkpt lat="45.77724" lon="1.8702">
        <ele>703.1</ele>
        <time>2026-07-08T10:00:05.000Z</time>
      </trkpt>
      <trkpt lat="45.77725" lon="1.87022">
        <ele>702.6</ele>
        <time>2026-07-08T10:00:06.000Z</time>
      </trkpt>
      <trkpt lat="45.77726" lon="1.87023">
        <ele>701.6</ele>
        <time>2026-07-08T10:00:07.000Z</time>
      </trkpt>
      <trkpt lat="45.77726" lon="1.87025">
        <ele>702.4</ele>
        <time>2026-07-08T10:00:08.000Z</time>
      </trkpt>
      <trkpt lat="45.77727" lon="1.87026">
        <ele>701.7</ele>
        <time>2026-07-08T10:00:09.000Z</time>
      </trkpt>
      <trkpt lat="45.77728" lon="1.87028">
        <ele>701.7</ele>
        <time>2026-07-08T10:00:10.000Z</time>
      </trkpt>
      <trkpt lat="45.77728" lon="1.8703">
        <ele>701.5</ele>
        <time>2026-07-08T10:00:11.000Z</time>
      </trkpt>
      <trkpt lat="45.77729" lon="1.87031">
        <ele>701.8</ele>
        <time>2026-07-08T10:00:12.000Z</time>
      </trkpt>
      <trkpt lat="45.7773" lon="1.87033">
        <ele>701.7</ele>
        <time>2026-07-08T10:00:13.000Z</time>
      </trkpt>
      <trkpt lat="45.7773" lon="1.87035">
        <ele>700.8</ele>
        <time>2026-07-08T10:00:14.000Z</time>
      </trkpt>
      <trkpt lat="45.77731" lon="1.87037">
        <ele>700.8</ele>
        <time>2026-07-08T10:00:15.000Z</time>
      </trkpt>
      <trkpt lat="45.77732" lon="1.87038">
        <ele>701.3</ele>
        <time>2026-07-08T10:00:16.000Z</time>
      </trkpt>
      <trkpt lat="45.77733" lon="1.8704">
        <ele>702.4</ele>
        <time>2026-07-08T10:00:17.000Z</time>
      </trkpt>
      <trkpt lat="45.77734" lon="1.87041">
        <ele>702.7</ele>
        <time>2026-07-08T10:00:18.000Z</time>
      </trkpt>
      <trkpt lat="45.77735" lon="1.87042">
        <ele>703.1</ele>
        <time>2026-07-08T10:00:19.000Z</time>
      </trkpt>
      <trkpt lat="45.77736" lon="1.87044">
        <ele>702.7</ele>
        <time>2026-07-08T10:00:20.000Z</time>
      </trkpt>
      <trkpt lat="45.77736" lon="1.87045">
        <ele>703.3</ele>
        <time>2026-07-08T10:00:21.000Z</time>
      </trkpt>
      <trkpt lat="45.77737" lon="1.87046">
        <ele>703.7</ele>
        <time>2026-07-08T10:00:22.000Z</time>
      </trkpt>
      <trkpt lat="45.77738" lon="1.87047">
        <ele>703.8</ele>
        <time>2026-07-08T10:00:23.000Z</time>
      </trkpt>
      <trkpt lat="45.77739" lon="1.87049">
        <ele>704.5</ele>
        <time>2026-07-08T10:00:24.000Z</time>
      </trkpt>
      <trkpt lat="45.7774" lon="1.8705">
        <ele>705</ele>
        <time>2026-07-08T10:00:25.000Z</time>
      </trkpt>
      <trkpt lat="45.7774" lon="1.87052">
        <ele>704.5</ele>
        <time>2026-07-08T10:00:26.000Z</time>
      </trkpt>
      <trkpt lat="45.77741" lon="1.87054">
        <ele>704.5</ele>
        <time>2026-07-08T10:00:27.000Z</time>
      </trkpt>
      <trkpt lat="45.77741" lon="1.87055">
        <ele>704.3</ele>
        <time>2026-07-08T10:00:28.000Z</time>
      </trkpt>
      <trkpt lat="45.77742" lon="1.87057">
        <ele>704.7</ele>
        <time>2026-07-08T10:00:29.000Z</time>
      </trkpt>
      <trkpt lat="45.77743" lon="1.87058">
        <ele>704.5</ele>
        <time>2026-07-08T10:00:30.000Z</time>
      </trkpt>
      <trkpt lat="45.77743" lon="1.8706">
        <ele>704</ele>
        <time>2026-07-08T10:00:31.000Z</time>
      </trkpt>
      <trkpt lat="45.77744" lon="1.87061">
        <ele>704.4</ele>
        <time>2026-07-08T10:00:32.000Z</time>
      </trkpt>
      <trkpt lat="45.77745" lon="1.87062">
        <ele>704.5</ele>
        <time>2026-07-08T10:00:33.000Z</time>
      </trkpt>
      <trkpt lat="45.77745" lon="1.87063">
        <ele>704.4</ele>
        <time>2026-07-08T10:00:34.000Z</time>
      </trkpt>
      <trkpt lat="45.77746" lon="1.87064">
        <ele>704</ele>
        <time>2026-07-08T10:00:35.000Z</time>
      </trkpt>
      <trkpt lat="45.77747" lon="1.87066">
        <ele>704.1</ele>
        <time>2026-07-08T10:00:36.000Z</time>
      </trkpt>
      <trkpt lat="45.77748" lon="1.87067">
        <ele>704</ele>
        <time>2026-07-08T10:00:37.000Z</time>
      </trkpt>
      <trkpt lat="45.77749" lon="1.87068">
        <ele>703.8</ele>
        <time>2026-07-08T10:00:38.000Z</time>
      </trkpt>
      <trkpt lat="45.77749" lon="1.87069">
        <ele>703.2</ele>
        <time>2026-07-08T10:00:39.000Z</time>
      </trkpt>
      <trkpt lat="45.7775" lon="1.8707">
        <ele>703.4</ele>
        <time>2026-07-08T10:00:40.000Z</time>
      </trkpt>
      <trkpt lat="45.77751" lon="1.87072">
        <ele>703.1</ele>
        <time>2026-07-08T10:00:41.000Z</time>
      </trkpt>
      <trkpt lat="45.77752" lon="1.87073">
        <ele>703.6</ele>
        <time>2026-07-08T10:00:42.000Z</time>
      </trkpt>
      <trkpt lat="45.77753" lon="1.87074">
        <ele>704.6</ele>
        <time>2026-07-08T10:00:43.000Z</time>
      </trkpt>
      <trkpt lat="45.77752" lon="1.87078">
        <ele>707</ele>
        <time>2026-07-08T10:00:44.000Z</time>
      </trkpt>
      <trkpt lat="45.77752" lon="1.87079">
        <ele>706.2</ele>
        <time>2026-07-08T10:00:45.000Z</time>
      </trkpt>
      <trkpt lat="45.77752" lon="1.8708">
        <ele>705.2</ele>
        <time>2026-07-08T10:00:46.000Z</time>
      </trkpt>
      <trkpt lat="45.77753" lon="1.8708">
        <ele>705.2</ele>
        <time>2026-07-08T10:00:47.000Z</time>
      </trkpt>
      <trkpt lat="45.77753" lon="1.87079">
        <ele>704.7</ele>
        <time>2026-07-08T10:00:48.000Z</time>
      </trkpt>
      <trkpt lat="45.77754" lon="1.87079">
        <ele>704.7</ele>
        <time>2026-07-08T10:00:49.000Z</time>
      </trkpt>
      <trkpt lat="45.77754" lon="1.87079">
        <ele>704.7</ele>
        <time>2026-07-08T10:00:50.000Z</time>
      </trkpt>
      <trkpt lat="45.77754" lon="1.87079">
        <ele>704.7</ele>
        <time>2026-07-08T10:00:51.000Z</time>
      </trkpt>
      <trkpt lat="45.77754" lon="1.87078">
        <ele>704.4</ele>
        <time>2026-07-08T10:00:52.000Z</time>
      </trkpt>
      <trkpt lat="45.77754" lon="1.87078">
        <ele>702.7</ele>
        <time>2026-07-08T10:00:53.000Z</time>
      </trkpt>
      <trkpt lat="45.77754" lon="1.87078">
        <ele>702.1</ele>
        <time>2026-07-08T10:00:54.000Z</time>
      </trkpt>
      <trkpt lat="45.77754" lon="1.87078">
        <ele>702.1</ele>
        <time>2026-07-08T10:00:55.000Z</time>
      </trkpt>
      <trkpt lat="45.77754" lon="1.87078">
        <ele>702.1</ele>
        <time>2026-07-08T10:00:56.000Z</time>
      </trkpt>
      <trkpt lat="45.77754" lon="1.87078">
        <ele>702.1</ele>
        <time>2026-07-08T10:00:57.000Z</time>
      </trkpt>
      <trkpt lat="45.77754" lon="1.87078">
        <ele>702.6</ele>
        <time>2026-07-08T10:00:58.000Z</time>
      </trkpt>
      <trkpt lat="45.77755" lon="1.87077">
        <ele>704.9</ele>
        <time>2026-07-08T10:00:59.000Z</time>
      </trkpt>
      <trkpt lat="45.77756" lon="1.87077">
        <ele>705.2</ele>
        <time>2026-07-08T10:01:00.000Z</time>
      </trkpt>
      <trkpt lat="45.77758" lon="1.87077">
        <ele>705.5</ele>
        <time>2026-07-08T10:01:01.000Z</time>
      </trkpt>
      <trkpt lat="45.77759" lon="1.87079">
        <ele>705.6</ele>
        <time>2026-07-08T10:01:02.000Z</time>
      </trkpt>
      <trkpt lat="45.77759" lon="1.8708">
        <ele>706</ele>
        <time>2026-07-08T10:01:03.000Z</time>
      </trkpt>
      <trkpt lat="45.77759" lon="1.8708">
        <ele>706.1</ele>
        <time>2026-07-08T10:01:04.000Z</time>
      </trkpt>
      <trkpt lat="45.77759" lon="1.8708">
        <ele>705.8</ele>
        <time>2026-07-08T10:01:05.000Z</time>
      </trkpt>
      <trkpt lat="45.77759" lon="1.8708">
        <ele>705.8</ele>
        <time>2026-07-08T10:01:06.000Z</time>
      </trkpt>
      <trkpt lat="45.77759" lon="1.8708">
        <ele>705.8</ele>
        <time>2026-07-08T10:01:07.000Z</time>
      </trkpt>
      <trkpt lat="45.77759" lon="1.8708">
        <ele>705.8</ele>
        <time>2026-07-08T10:01:08.000Z</time>
      </trkpt>
      <trkpt lat="45.77759" lon="1.8708">
        <ele>705.8</ele>
        <time>2026-07-08T10:01:09.000Z</time>
      </trkpt>
      <trkpt lat="45.77759" lon="1.8708">
        <ele>705.8</ele>
        <time>2026-07-08T10:01:10.000Z</time>
      </trkpt>
      <trkpt lat="45.77759" lon="1.8708">
        <ele>705.8</ele>
        <time>2026-07-08T10:01:11.000Z</time>
      </trkpt>
      <trkpt lat="45.77759" lon="1.8708">
        <ele>705.8</ele>
        <time>2026-07-08T10:01:12.000Z</time>
      </trkpt>
      <trkpt lat="45.77759" lon="1.8708">
        <ele>705.8</ele>
        <time>2026-07-08T10:01:13.000Z</time>
      </trkpt>
      <trkpt lat="45.77759" lon="1.8708">
        <ele>705.8</ele>
        <time>2026-07-08T10:01:14.000Z</time>
      </trkpt>
      <trkpt lat="45.77759" lon="1.8708">
        <ele>705.8</ele>
        <time>2026-07-08T10:01:15.000Z</time>
      </trkpt>
      <trkpt lat="45.7776" lon="1.87081">
        <ele>705.9</ele>
        <time>2026-07-08T10:01:16.000Z</time>
      </trkpt>
      <trkpt lat="45.7776" lon="1.87081">
        <ele>706.3</ele>
        <time>2026-07-08T10:01:17.000Z</time>
      </trkpt>
      <trkpt lat="45.77761" lon="1.87081">
        <ele>706.8</ele>
        <time>2026-07-08T10:01:18.000Z</time>
      </trkpt>
      <trkpt lat="45.77761" lon="1.8708">
        <ele>707.5</ele>
        <time>2026-07-08T10:01:19.000Z</time>
      </trkpt>
      <trkpt lat="45.77761" lon="1.8708">
        <ele>707.4</ele>
        <time>2026-07-08T10:01:20.000Z</time>
      </trkpt>
      <trkpt lat="45.77762" lon="1.8708">
        <ele>707.4</ele>
        <time>2026-07-08T10:01:21.000Z</time>
      </trkpt>
      <trkpt lat="45.77762" lon="1.8708">
        <ele>707.4</ele>
        <time>2026-07-08T10:01:22.000Z</time>
      </trkpt>
      <trkpt lat="45.77761" lon="1.87079">
        <ele>707.1</ele>
        <time>2026-07-08T10:01:23.000Z</time>
      </trkpt>
      <trkpt lat="45.77761" lon="1.87079">
        <ele>707.1</ele>
        <time>2026-07-08T10:01:24.000Z</time>
      </trkpt>
      <trkpt lat="45.7776" lon="1.87077">
        <ele>707.3</ele>
        <time>2026-07-08T10:01:25.000Z</time>
      </trkpt>
      <trkpt lat="45.7776" lon="1.87077">
        <ele>707.1</ele>
        <time>2026-07-08T10:01:26.000Z</time>
      </trkpt>
      <trkpt lat="45.7776" lon="1.87076">
        <ele>707.2</ele>
        <time>2026-07-08T10:01:27.000Z</time>
      </trkpt>
      <trkpt lat="45.7776" lon="1.87076">
        <ele>708</ele>
        <time>2026-07-08T10:01:28.000Z</time>
      </trkpt>
      <trkpt lat="45.7776" lon="1.87078">
        <ele>707.9</ele>
        <time>2026-07-08T10:01:29.000Z</time>
      </trkpt>
      <trkpt lat="45.7776" lon="1.87079">
        <ele>706</ele>
        <time>2026-07-08T10:01:30.000Z</time>
      </trkpt>
      <trkpt lat="45.77761" lon="1.8708">
        <ele>706.4</ele>
        <time>2026-07-08T10:01:31.000Z</time>
      </trkpt>
      <trkpt lat="45.77761" lon="1.87079">
        <ele>706.4</ele>
        <time>2026-07-08T10:01:32.000Z</time>
      </trkpt>
      <trkpt lat="45.7776" lon="1.87079">
        <ele>706.9</ele>
        <time>2026-07-08T10:01:33.000Z</time>
      </trkpt>
      <trkpt lat="45.7776" lon="1.87078">
        <ele>707.2</ele>
        <time>2026-07-08T10:01:34.000Z</time>
      </trkpt>
      <trkpt lat="45.77759" lon="1.87078">
        <ele>706.8</ele>
        <time>2026-07-08T10:01:35.000Z</time>
      </trkpt>
      <trkpt lat="45.7776" lon="1.87078">
        <ele>706</ele>
        <time>2026-07-08T10:01:36.000Z</time>
      </trkpt>
      <trkpt lat="45.7776" lon="1.87077">
        <ele>704.7</ele>
        <time>2026-07-08T10:01:37.000Z</time>
      </trkpt>
      <trkpt lat="45.77759" lon="1.87077">
        <ele>704.8</ele>
        <time>2026-07-08T10:01:38.000Z</time>
      </trkpt>
      <trkpt lat="45.77758" lon="1.87076">
        <ele>704.5</ele>
        <time>2026-07-08T10:01:39.000Z</time>
      </trkpt>
      <trkpt lat="45.77756" lon="1.87076">
        <ele>705.2</ele>
        <time>2026-07-08T10:01:40.000Z</time>
      </trkpt>
      <trkpt lat="45.77755" lon="1.87076">
        <ele>705.3</ele>
        <time>2026-07-08T10:01:41.000Z</time>
      </trkpt>
      <trkpt lat="45.77754" lon="1.87076">
        <ele>706.5</ele>
        <time>2026-07-08T10:01:42.000Z</time>
      </trkpt>
      <trkpt lat="45.77753" lon="1.87075">
        <ele>706.9</ele>
        <time>2026-07-08T10:01:43.000Z</time>
      </trkpt>
      <trkpt lat="45.77753" lon="1.87075">
        <ele>708.2</ele>
        <time>2026-07-08T10:01:44.000Z</time>
      </trkpt>
      <trkpt lat="45.77752" lon="1.87074">
        <ele>708.3</ele>
        <time>2026-07-08T10:01:45.000Z</time>
      </trkpt>
      <trkpt lat="45.77752" lon="1.87074">
        <ele>708.4</ele>
        <time>2026-07-08T10:01:46.000Z</time>
      </trkpt>
      <trkpt lat="45.77751" lon="1.87073">
        <ele>710.5</ele>
        <time>2026-07-08T10:01:47.000Z</time>
      </trkpt>
      <trkpt lat="45.77752" lon="1.87073">
        <ele>709.9</ele>
        <time>2026-07-08T10:01:48.000Z</time>
      </trkpt>
      <trkpt lat="45.77752" lon="1.87073">
        <ele>709.9</ele>
        <time>2026-07-08T10:01:49.000Z</time>
      </trkpt>
      <trkpt lat="45.77752" lon="1.87073">
        <ele>709.9</ele>
        <time>2026-07-08T10:01:50.000Z</time>
      </trkpt>
      <trkpt lat="45.77752" lon="1.87073">
        <ele>709.9</ele>
        <time>2026-07-08T10:01:51.000Z</time>
      </trkpt>
      <trkpt lat="45.77752" lon="1.87073">
        <ele>709.9</ele>
        <time>2026-07-08T10:01:52.000Z</time>
      </trkpt>
      <trkpt lat="45.77752" lon="1.87073">
        <ele>709.9</ele>
        <time>2026-07-08T10:01:53.000Z</time>
      </trkpt>
      <trkpt lat="45.77752" lon="1.87073">
        <ele>709.1</ele>
        <time>2026-07-08T10:01:54.000Z</time>
      </trkpt>
      <trkpt lat="45.77753" lon="1.87075">
        <ele>705.7</ele>
        <time>2026-07-08T10:01:55.000Z</time>
      </trkpt>
      <trkpt lat="45.77754" lon="1.87075">
        <ele>706.2</ele>
        <time>2026-07-08T10:01:56.000Z</time>
      </trkpt>
      <trkpt lat="45.77755" lon="1.87076">
        <ele>706.2</ele>
        <time>2026-07-08T10:01:57.000Z</time>
      </trkpt>
      <trkpt lat="45.77756" lon="1.87077">
        <ele>706.2</ele>
        <time>2026-07-08T10:01:58.000Z</time>
      </trkpt>
      <trkpt lat="45.77756" lon="1.87077">
        <ele>706.2</ele>
        <time>2026-07-08T10:01:59.000Z</time>
      </trkpt>
      <trkpt lat="45.77756" lon="1.87077">
        <ele>706.2</ele>
        <time>2026-07-08T10:02:00.000Z</time>
      </trkpt>
      <trkpt lat="45.77756" lon="1.87077">
        <ele>706.2</ele>
        <time>2026-07-08T10:02:01.000Z</time>
      </trkpt>
      <trkpt lat="45.77756" lon="1.87077">
        <ele>706.2</ele>
        <time>2026-07-08T10:02:02.000Z</time>
      </trkpt>
      <trkpt lat="45.77756" lon="1.87075">
        <ele>707.2</ele>
        <time>2026-07-08T10:02:03.000Z</time>
      </trkpt>
      <trkpt lat="45.77756" lon="1.87074">
        <ele>707.6</ele>
        <time>2026-07-08T10:02:04.000Z</time>
      </trkpt>
      <trkpt lat="45.77755" lon="1.87073">
        <ele>708</ele>
        <time>2026-07-08T10:02:05.000Z</time>
      </trkpt>
      <trkpt lat="45.77755" lon="1.87073">
        <ele>707.8</ele>
        <time>2026-07-08T10:02:06.000Z</time>
      </trkpt>
      <trkpt lat="45.77755" lon="1.87073">
        <ele>708.2</ele>
        <time>2026-07-08T10:02:07.000Z</time>
      </trkpt>
      <trkpt lat="45.77754" lon="1.87072">
        <ele>707.9</ele>
        <time>2026-07-08T10:02:08.000Z</time>
      </trkpt>
      <trkpt lat="45.77754" lon="1.87072">
        <ele>707.7</ele>
        <time>2026-07-08T10:02:09.000Z</time>
      </trkpt>
      <trkpt lat="45.77753" lon="1.87071">
        <ele>708.5</ele>
        <time>2026-07-08T10:02:10.000Z</time>
      </trkpt>
      <trkpt lat="45.77751" lon="1.87069">
        <ele>709.7</ele>
        <time>2026-07-08T10:02:11.000Z</time>
      </trkpt>
      <trkpt lat="45.77753" lon="1.8707">
        <ele>711</ele>
        <time>2026-07-08T10:02:12.000Z</time>
      </trkpt>
      <trkpt lat="45.77753" lon="1.87071">
        <ele>710.8</ele>
        <time>2026-07-08T10:02:13.000Z</time>
      </trkpt>
      <trkpt lat="45.77753" lon="1.87072">
        <ele>710.8</ele>
        <time>2026-07-08T10:02:14.000Z</time>
      </trkpt>
      <trkpt lat="45.77753" lon="1.87072">
        <ele>710.8</ele>
        <time>2026-07-08T10:02:15.000Z</time>
      </trkpt>
      <trkpt lat="45.77753" lon="1.87072">
        <ele>710.8</ele>
        <time>2026-07-08T10:02:16.000Z</time>
      </trkpt>
      <trkpt lat="45.77753" lon="1.87073">
        <ele>711.5</ele>
        <time>2026-07-08T10:02:17.000Z</time>
      </trkpt>
      <trkpt lat="45.77751" lon="1.87074">
        <ele>710.7</ele>
        <time>2026-07-08T10:02:18.000Z</time>
      </trkpt>
      <trkpt lat="45.77752" lon="1.87076">
        <ele>710.6</ele>
        <time>2026-07-08T10:02:19.000Z</time>
      </trkpt>
      <trkpt lat="45.77754" lon="1.87078">
        <ele>709.4</ele>
        <time>2026-07-08T10:02:20.000Z</time>
      </trkpt>
      <trkpt lat="45.77755" lon="1.8708">
        <ele>708.3</ele>
        <time>2026-07-08T10:02:21.000Z</time>
      </trkpt>
      <trkpt lat="45.77757" lon="1.87081">
        <ele>707.4</ele>
        <time>2026-07-08T10:02:22.000Z</time>
      </trkpt>
      <trkpt lat="45.77759" lon="1.87083">
        <ele>707.7</ele>
        <time>2026-07-08T10:02:23.000Z</time>
      </trkpt>
      <trkpt lat="45.77759" lon="1.87084">
        <ele>707</ele>
        <time>2026-07-08T10:02:24.000Z</time>
      </trkpt>
      <trkpt lat="45.77761" lon="1.87084">
        <ele>707.4</ele>
        <time>2026-07-08T10:02:25.000Z</time>
      </trkpt>
      <trkpt lat="45.77762" lon="1.87085">
        <ele>706.4</ele>
        <time>2026-07-08T10:02:26.000Z</time>
      </trkpt>
      <trkpt lat="45.77764" lon="1.87085">
        <ele>705.9</ele>
        <time>2026-07-08T10:02:27.000Z</time>
      </trkpt>
      <trkpt lat="45.77766" lon="1.87086">
        <ele>706.1</ele>
        <time>2026-07-08T10:02:28.000Z</time>
      </trkpt>
      <trkpt lat="45.77768" lon="1.87087">
        <ele>705.6</ele>
        <time>2026-07-08T10:02:29.000Z</time>
      </trkpt>
      <trkpt lat="45.7777" lon="1.87087">
        <ele>705</ele>
        <time>2026-07-08T10:02:30.000Z</time>
      </trkpt>
      <trkpt lat="45.77773" lon="1.87087">
        <ele>705.4</ele>
        <time>2026-07-08T10:02:31.000Z</time>
      </trkpt>
      <trkpt lat="45.77775" lon="1.87087">
        <ele>705.4</ele>
        <time>2026-07-08T10:02:32.000Z</time>
      </trkpt>
      <trkpt lat="45.77777" lon="1.87085">
        <ele>706</ele>
        <time>2026-07-08T10:02:33.000Z</time>
      </trkpt>
      <trkpt lat="45.77779" lon="1.87084">
        <ele>705.3</ele>
        <time>2026-07-08T10:02:34.000Z</time>
      </trkpt>
      <trkpt lat="45.77781" lon="1.87084">
        <ele>704.3</ele>
        <time>2026-07-08T10:02:35.000Z</time>
      </trkpt>
      <trkpt lat="45.77783" lon="1.87083">
        <ele>703.8</ele>
        <time>2026-07-08T10:02:36.000Z</time>
      </trkpt>
      <trkpt lat="45.77785" lon="1.87082">
        <ele>704</ele>
        <time>2026-07-08T10:02:37.000Z</time>
      </trkpt>
      <trkpt lat="45.77786" lon="1.87082">
        <ele>704.7</ele>
        <time>2026-07-08T10:02:38.000Z</time>
      </trkpt>
      <trkpt lat="45.77788" lon="1.87081">
        <ele>705</ele>
        <time>2026-07-08T10:02:39.000Z</time>
      </trkpt>
      <trkpt lat="45.7779" lon="1.8708">
        <ele>704.2</ele>
        <time>2026-07-08T10:02:40.000Z</time>
      </trkpt>
      <trkpt lat="45.77792" lon="1.87079">
        <ele>704.9</ele>
        <time>2026-07-08T10:02:41.000Z</time>
      </trkpt>
      <trkpt lat="45.77793" lon="1.87079">
        <ele>705.4</ele>
        <time>2026-07-08T10:02:42.000Z</time>
      </trkpt>
      <trkpt lat="45.77795" lon="1.87079">
        <ele>706.7</ele>
        <time>2026-07-08T10:02:43.000Z</time>
      </trkpt>
      <trkpt lat="45.77797" lon="1.87078">
        <ele>705.6</ele>
        <time>2026-07-08T10:02:44.000Z</time>
      </trkpt>
      <trkpt lat="45.77798" lon="1.87078">
        <ele>705.4</ele>
        <time>2026-07-08T10:02:45.000Z</time>
      </trkpt>
      <trkpt lat="45.778" lon="1.87078">
        <ele>704.7</ele>
        <time>2026-07-08T10:02:46.000Z</time>
      </trkpt>
      <trkpt lat="45.77802" lon="1.87079">
        <ele>704.3</ele>
        <time>2026-07-08T10:02:47.000Z</time>
      </trkpt>
      <trkpt lat="45.77803" lon="1.87079">
        <ele>704.9</ele>
        <time>2026-07-08T10:02:48.000Z</time>
      </trkpt>
      <trkpt lat="45.77805" lon="1.8708">
        <ele>703.9</ele>
        <time>2026-07-08T10:02:49.000Z</time>
      </trkpt>
      <trkpt lat="45.77807" lon="1.8708">
        <ele>703.8</ele>
        <time>2026-07-08T10:02:50.000Z</time>
      </trkpt>
      <trkpt lat="45.77809" lon="1.8708">
        <ele>703.1</ele>
        <time>2026-07-08T10:02:51.000Z</time>
      </trkpt>
      <trkpt lat="45.7781" lon="1.87079">
        <ele>703.8</ele>
        <time>2026-07-08T10:02:52.000Z</time>
      </trkpt>
      <trkpt lat="45.77812" lon="1.8708">
        <ele>703.6</ele>
        <time>2026-07-08T10:02:53.000Z</time>
      </trkpt>
      <trkpt lat="45.77814" lon="1.8708">
        <ele>703.3</ele>
        <time>2026-07-08T10:02:54.000Z</time>
      </trkpt>
      <trkpt lat="45.77817" lon="1.87081">
        <ele>703</ele>
        <time>2026-07-08T10:02:55.000Z</time>
      </trkpt>
      <trkpt lat="45.77819" lon="1.87081">
        <ele>704</ele>
        <time>2026-07-08T10:02:56.000Z</time>
      </trkpt>
      <trkpt lat="45.7782" lon="1.87081">
        <ele>704.3</ele>
        <time>2026-07-08T10:02:57.000Z</time>
      </trkpt>
      <trkpt lat="45.77822" lon="1.87081">
        <ele>704.3</ele>
        <time>2026-07-08T10:02:58.000Z</time>
      </trkpt>
      <trkpt lat="45.77822" lon="1.87082">
        <ele>705.4</ele>
        <time>2026-07-08T10:02:59.000Z</time>
      </trkpt>
      <trkpt lat="45.77822" lon="1.87084">
        <ele>703.7</ele>
        <time>2026-07-08T10:03:00.000Z</time>
      </trkpt>
      <trkpt lat="45.7782" lon="1.87086">
        <ele>703.5</ele>
        <time>2026-07-08T10:03:01.000Z</time>
      </trkpt>
      <trkpt lat="45.77819" lon="1.87086">
        <ele>703.3</ele>
        <time>2026-07-08T10:03:02.000Z</time>
      </trkpt>
      <trkpt lat="45.77819" lon="1.87087">
        <ele>703.8</ele>
        <time>2026-07-08T10:03:03.000Z</time>
      </trkpt>
      <trkpt lat="45.77817" lon="1.87086">
        <ele>701.9</ele>
        <time>2026-07-08T10:03:04.000Z</time>
      </trkpt>
      <trkpt lat="45.77817" lon="1.87086">
        <ele>701.9</ele>
        <time>2026-07-08T10:03:05.000Z</time>
      </trkpt>
      <trkpt lat="45.77817" lon="1.87086">
        <ele>701.8</ele>
        <time>2026-07-08T10:03:06.000Z</time>
      </trkpt>
      <trkpt lat="45.77817" lon="1.87086">
        <ele>701.8</ele>
        <time>2026-07-08T10:03:07.000Z</time>
      </trkpt>
      <trkpt lat="45.77817" lon="1.87086">
        <ele>701.8</ele>
        <time>2026-07-08T10:03:08.000Z</time>
      </trkpt>
      <trkpt lat="45.77817" lon="1.87085">
        <ele>700.9</ele>
        <time>2026-07-08T10:03:09.000Z</time>
      </trkpt>
      <trkpt lat="45.77818" lon="1.87084">
        <ele>700.9</ele>
        <time>2026-07-08T10:03:10.000Z</time>
      </trkpt>
      <trkpt lat="45.77818" lon="1.87084">
        <ele>700.9</ele>
        <time>2026-07-08T10:03:11.000Z</time>
      </trkpt>
      <trkpt lat="45.77818" lon="1.87084">
        <ele>700.9</ele>
        <time>2026-07-08T10:03:12.000Z</time>
      </trkpt>
      <trkpt lat="45.77818" lon="1.87084">
        <ele>700.9</ele>
        <time>2026-07-08T10:03:13.000Z</time>
      </trkpt>
      <trkpt lat="45.77818" lon="1.87084">
        <ele>700.8</ele>
        <time>2026-07-08T10:03:14.000Z</time>
      </trkpt>
      <trkpt lat="45.77818" lon="1.87084">
        <ele>700.8</ele>
        <time>2026-07-08T10:03:15.000Z</time>
      </trkpt>
      <trkpt lat="45.77818" lon="1.87083">
        <ele>700.8</ele>
        <time>2026-07-08T10:03:16.000Z</time>
      </trkpt>
      <trkpt lat="45.77818" lon="1.87083">
        <ele>701.2</ele>
        <time>2026-07-08T10:03:17.000Z</time>
      </trkpt>
      <trkpt lat="45.77818" lon="1.87084">
        <ele>701.1</ele>
        <time>2026-07-08T10:03:18.000Z</time>
      </trkpt>
      <trkpt lat="45.77819" lon="1.87084">
        <ele>701.8</ele>
        <time>2026-07-08T10:03:19.000Z</time>
      </trkpt>
      <trkpt lat="45.7782" lon="1.87085">
        <ele>701.8</ele>
        <time>2026-07-08T10:03:20.000Z</time>
      </trkpt>
      <trkpt lat="45.7782" lon="1.87085">
        <ele>701.8</ele>
        <time>2026-07-08T10:03:21.000Z</time>
      </trkpt>
      <trkpt lat="45.77821" lon="1.87087">
        <ele>701.7</ele>
        <time>2026-07-08T10:03:22.000Z</time>
      </trkpt>
      <trkpt lat="45.77821" lon="1.87089">
        <ele>701.6</ele>
        <time>2026-07-08T10:03:23.000Z</time>
      </trkpt>
      <trkpt lat="45.77822" lon="1.8709">
        <ele>704</ele>
        <time>2026-07-08T10:03:24.000Z</time>
      </trkpt>
      <trkpt lat="45.77824" lon="1.87091">
        <ele>703.6</ele>
        <time>2026-07-08T10:03:25.000Z</time>
      </trkpt>
      <trkpt lat="45.77827" lon="1.87092">
        <ele>701.9</ele>
        <time>2026-07-08T10:03:26.000Z</time>
      </trkpt>
      <trkpt lat="45.7783" lon="1.87091">
        <ele>701.9</ele>
        <time>2026-07-08T10:03:27.000Z</time>
      </trkpt>
      <trkpt lat="45.77832" lon="1.8709">
        <ele>702.4</ele>
        <time>2026-07-08T10:03:28.000Z</time>
      </trkpt>
      <trkpt lat="45.77834" lon="1.8709">
        <ele>702.2</ele>
        <time>2026-07-08T10:03:29.000Z</time>
      </trkpt>
      <trkpt lat="45.77836" lon="1.8709">
        <ele>701.8</ele>
        <time>2026-07-08T10:03:30.000Z</time>
      </trkpt>
      <trkpt lat="45.77838" lon="1.8709">
        <ele>701.3</ele>
        <time>2026-07-08T10:03:31.000Z</time>
      </trkpt>
      <trkpt lat="45.77841" lon="1.87091">
        <ele>702.2</ele>
        <time>2026-07-08T10:03:32.000Z</time>
      </trkpt>
      <trkpt lat="45.77844" lon="1.87091">
        <ele>701.6</ele>
        <time>2026-07-08T10:03:33.000Z</time>
      </trkpt>
      <trkpt lat="45.77846" lon="1.87091">
        <ele>701.4</ele>
        <time>2026-07-08T10:03:34.000Z</time>
      </trkpt>
      <trkpt lat="45.77849" lon="1.8709">
        <ele>700.4</ele>
        <time>2026-07-08T10:03:35.000Z</time>
      </trkpt>
      <trkpt lat="45.77851" lon="1.8709">
        <ele>700.5</ele>
        <time>2026-07-08T10:03:36.000Z</time>
      </trkpt>
      <trkpt lat="45.77852" lon="1.87089">
        <ele>700.5</ele>
        <time>2026-07-08T10:03:37.000Z</time>
      </trkpt>
      <trkpt lat="45.77854" lon="1.87089">
        <ele>701.1</ele>
        <time>2026-07-08T10:03:38.000Z</time>
      </trkpt>
      <trkpt lat="45.77856" lon="1.8709">
        <ele>700.4</ele>
        <time>2026-07-08T10:03:39.000Z</time>
      </trkpt>
      <trkpt lat="45.77857" lon="1.8709">
        <ele>700.3</ele>
        <time>2026-07-08T10:03:40.000Z</time>
      </trkpt>
      <trkpt lat="45.77859" lon="1.87089">
        <ele>701.3</ele>
        <time>2026-07-08T10:03:41.000Z</time>
      </trkpt>
      <trkpt lat="45.7786" lon="1.8709">
        <ele>701.6</ele>
        <time>2026-07-08T10:03:42.000Z</time>
      </trkpt>
      <trkpt lat="45.77862" lon="1.87089">
        <ele>703.5</ele>
        <time>2026-07-08T10:03:43.000Z</time>
      </trkpt>
      <trkpt lat="45.77864" lon="1.87088">
        <ele>702.5</ele>
        <time>2026-07-08T10:03:44.000Z</time>
      </trkpt>
      <trkpt lat="45.77866" lon="1.87089">
        <ele>701.9</ele>
        <time>2026-07-08T10:03:45.000Z</time>
      </trkpt>
      <trkpt lat="45.77868" lon="1.87089">
        <ele>702.7</ele>
        <time>2026-07-08T10:03:46.000Z</time>
      </trkpt>
      <trkpt lat="45.7787" lon="1.8709">
        <ele>703.4</ele>
        <time>2026-07-08T10:03:47.000Z</time>
      </trkpt>
      <trkpt lat="45.77871" lon="1.87094">
        <ele>703.5</ele>
        <time>2026-07-08T10:03:48.000Z</time>
      </trkpt>
      <trkpt lat="45.77873" lon="1.87095">
        <ele>703.4</ele>
        <time>2026-07-08T10:03:49.000Z</time>
      </trkpt>
      <trkpt lat="45.77875" lon="1.87095">
        <ele>703.8</ele>
        <time>2026-07-08T10:03:50.000Z</time>
      </trkpt>
      <trkpt lat="45.77879" lon="1.87093">
        <ele>705.2</ele>
        <time>2026-07-08T10:03:51.000Z</time>
      </trkpt>
      <trkpt lat="45.7788" lon="1.87089">
        <ele>705</ele>
        <time>2026-07-08T10:03:52.000Z</time>
      </trkpt>
      <trkpt lat="45.77883" lon="1.87088">
        <ele>704</ele>
        <time>2026-07-08T10:03:53.000Z</time>
      </trkpt>
      <trkpt lat="45.77885" lon="1.87089">
        <ele>703.6</ele>
        <time>2026-07-08T10:03:54.000Z</time>
      </trkpt>
      <trkpt lat="45.77886" lon="1.87087">
        <ele>704.1</ele>
        <time>2026-07-08T10:03:55.000Z</time>
      </trkpt>
      <trkpt lat="45.77887" lon="1.87089">
        <ele>703.6</ele>
        <time>2026-07-08T10:03:56.000Z</time>
      </trkpt>
      <trkpt lat="45.77889" lon="1.87091">
        <ele>703</ele>
        <time>2026-07-08T10:03:57.000Z</time>
      </trkpt>
      <trkpt lat="45.77891" lon="1.8709">
        <ele>703.4</ele>
        <time>2026-07-08T10:03:58.000Z</time>
      </trkpt>
      <trkpt lat="45.77893" lon="1.8709">
        <ele>705.6</ele>
        <time>2026-07-08T10:03:59.000Z</time>
      </trkpt>
      <trkpt lat="45.77895" lon="1.87089">
        <ele>705.6</ele>
        <time>2026-07-08T10:04:00.000Z</time>
      </trkpt>
      <trkpt lat="45.77897" lon="1.87088">
        <ele>705.8</ele>
        <time>2026-07-08T10:04:01.000Z</time>
      </trkpt>
      <trkpt lat="45.77899" lon="1.87087">
        <ele>705.8</ele>
        <time>2026-07-08T10:04:02.000Z</time>
      </trkpt>
      <trkpt lat="45.77901" lon="1.87086">
        <ele>705.5</ele>
        <time>2026-07-08T10:04:03.000Z</time>
      </trkpt>
      <trkpt lat="45.77904" lon="1.87085">
        <ele>704.7</ele>
        <time>2026-07-08T10:04:04.000Z</time>
      </trkpt>
      <trkpt lat="45.77906" lon="1.87085">
        <ele>704</ele>
        <time>2026-07-08T10:04:05.000Z</time>
      </trkpt>
      <trkpt lat="45.77908" lon="1.87083">
        <ele>704.1</ele>
        <time>2026-07-08T10:04:06.000Z</time>
      </trkpt>
      <trkpt lat="45.7791" lon="1.87083">
        <ele>705</ele>
        <time>2026-07-08T10:04:07.000Z</time>
      </trkpt>
      <trkpt lat="45.77912" lon="1.87084">
        <ele>705.7</ele>
        <time>2026-07-08T10:04:08.000Z</time>
      </trkpt>
      <trkpt lat="45.77913" lon="1.87084">
        <ele>705.8</ele>
        <time>2026-07-08T10:04:09.000Z</time>
      </trkpt>
      <trkpt lat="45.77915" lon="1.87084">
        <ele>706.1</ele>
        <time>2026-07-08T10:04:10.000Z</time>
      </trkpt>
      <trkpt lat="45.77917" lon="1.87084">
        <ele>706.5</ele>
        <time>2026-07-08T10:04:11.000Z</time>
      </trkpt>
      <trkpt lat="45.77918" lon="1.87085">
        <ele>705.7</ele>
        <time>2026-07-08T10:04:12.000Z</time>
      </trkpt>
      <trkpt lat="45.7792" lon="1.87085">
        <ele>704.7</ele>
        <time>2026-07-08T10:04:13.000Z</time>
      </trkpt>
      <trkpt lat="45.77922" lon="1.87085">
        <ele>704.2</ele>
        <time>2026-07-08T10:04:14.000Z</time>
      </trkpt>
      <trkpt lat="45.77924" lon="1.87085">
        <ele>704.1</ele>
        <time>2026-07-08T10:04:15.000Z</time>
      </trkpt>
      <trkpt lat="45.77926" lon="1.87086">
        <ele>705</ele>
        <time>2026-07-08T10:04:16.000Z</time>
      </trkpt>
      <trkpt lat="45.77928" lon="1.87087">
        <ele>705.2</ele>
        <time>2026-07-08T10:04:17.000Z</time>
      </trkpt>
      <trkpt lat="45.7793" lon="1.87087">
        <ele>704.7</ele>
        <time>2026-07-08T10:04:18.000Z</time>
      </trkpt>
      <trkpt lat="45.77932" lon="1.87088">
        <ele>704.4</ele>
        <time>2026-07-08T10:04:19.000Z</time>
      </trkpt>
      <trkpt lat="45.77933" lon="1.8709">
        <ele>704.4</ele>
        <time>2026-07-08T10:04:20.000Z</time>
      </trkpt>
      <trkpt lat="45.77934" lon="1.87091">
        <ele>704.2</ele>
        <time>2026-07-08T10:04:21.000Z</time>
      </trkpt>
      <trkpt lat="45.77936" lon="1.87091">
        <ele>703.9</ele>
        <time>2026-07-08T10:04:22.000Z</time>
      </trkpt>
      <trkpt lat="45.77939" lon="1.87091">
        <ele>704.5</ele>
        <time>2026-07-08T10:04:23.000Z</time>
      </trkpt>
      <trkpt lat="45.77941" lon="1.8709">
        <ele>704</ele>
        <time>2026-07-08T10:04:24.000Z</time>
      </trkpt>
      <trkpt lat="45.77944" lon="1.8709">
        <ele>703.5</ele>
        <time>2026-07-08T10:04:25.000Z</time>
      </trkpt>
      <trkpt lat="45.77945" lon="1.87089">
        <ele>703.6</ele>
        <time>2026-07-08T10:04:26.000Z</time>
      </trkpt>
      <trkpt lat="45.77948" lon="1.87088">
        <ele>704.9</ele>
        <time>2026-07-08T10:04:27.000Z</time>
      </trkpt>
      <trkpt lat="45.7795" lon="1.87087">
        <ele>705.5</ele>
        <time>2026-07-08T10:04:28.000Z</time>
      </trkpt>
      <trkpt lat="45.77951" lon="1.87086">
        <ele>706.3</ele>
        <time>2026-07-08T10:04:29.000Z</time>
      </trkpt>
      <trkpt lat="45.77953" lon="1.87084">
        <ele>706.2</ele>
        <time>2026-07-08T10:04:30.000Z</time>
      </trkpt>
      <trkpt lat="45.77953" lon="1.87082">
        <ele>706.2</ele>
        <time>2026-07-08T10:04:31.000Z</time>
      </trkpt>
      <trkpt lat="45.77956" lon="1.87082">
        <ele>706.1</ele>
        <time>2026-07-08T10:04:32.000Z</time>
      </trkpt>
      <trkpt lat="45.77958" lon="1.87082">
        <ele>707.5</ele>
        <time>2026-07-08T10:04:33.000Z</time>
      </trkpt>
      <trkpt lat="45.77959" lon="1.87083">
        <ele>708.1</ele>
        <time>2026-07-08T10:04:34.000Z</time>
      </trkpt>
      <trkpt lat="45.77961" lon="1.87084">
        <ele>707.1</ele>
        <time>2026-07-08T10:04:35.000Z</time>
      </trkpt>
      <trkpt lat="45.77963" lon="1.87086">
        <ele>706.3</ele>
        <time>2026-07-08T10:04:36.000Z</time>
      </trkpt>
      <trkpt lat="45.77965" lon="1.87087">
        <ele>707.7</ele>
        <time>2026-07-08T10:04:37.000Z</time>
      </trkpt>
      <trkpt lat="45.77967" lon="1.87089">
        <ele>708.4</ele>
        <time>2026-07-08T10:04:38.000Z</time>
      </trkpt>
      <trkpt lat="45.77968" lon="1.87091">
        <ele>708.6</ele>
        <time>2026-07-08T10:04:39.000Z</time>
      </trkpt>
      <trkpt lat="45.7797" lon="1.87092">
        <ele>707.3</ele>
        <time>2026-07-08T10:04:40.000Z</time>
      </trkpt>
      <trkpt lat="45.77972" lon="1.87092">
        <ele>704.9</ele>
        <time>2026-07-08T10:04:41.000Z</time>
      </trkpt>
      <trkpt lat="45.77974" lon="1.87089">
        <ele>703.8</ele>
        <time>2026-07-08T10:04:42.000Z</time>
      </trkpt>
      <trkpt lat="45.77975" lon="1.87086">
        <ele>702.9</ele>
        <time>2026-07-08T10:04:43.000Z</time>
      </trkpt>
      <trkpt lat="45.77976" lon="1.87083">
        <ele>702.4</ele>
        <time>2026-07-08T10:04:44.000Z</time>
      </trkpt>
      <trkpt lat="45.77975" lon="1.87082">
        <ele>702.1</ele>
        <time>2026-07-08T10:04:45.000Z</time>
      </trkpt>
      <trkpt lat="45.77975" lon="1.87082">
        <ele>701.9</ele>
        <time>2026-07-08T10:04:46.000Z</time>
      </trkpt>
      <trkpt lat="45.77974" lon="1.87082">
        <ele>701.9</ele>
        <time>2026-07-08T10:04:47.000Z</time>
      </trkpt>
      <trkpt lat="45.77974" lon="1.87082">
        <ele>701.5</ele>
        <time>2026-07-08T10:04:48.000Z</time>
      </trkpt>
      <trkpt lat="45.77973" lon="1.87081">
        <ele>701.1</ele>
        <time>2026-07-08T10:04:49.000Z</time>
      </trkpt>
      <trkpt lat="45.77972" lon="1.8708">
        <ele>701.7</ele>
        <time>2026-07-08T10:04:50.000Z</time>
      </trkpt>
      <trkpt lat="45.77972" lon="1.87079">
        <ele>701.8</ele>
        <time>2026-07-08T10:04:51.000Z</time>
      </trkpt>
      <trkpt lat="45.77972" lon="1.87079">
        <ele>701.3</ele>
        <time>2026-07-08T10:04:52.000Z</time>
      </trkpt>
      <trkpt lat="45.77972" lon="1.8708">
        <ele>701.3</ele>
        <time>2026-07-08T10:04:53.000Z</time>
      </trkpt>
      <trkpt lat="45.77972" lon="1.87079">
        <ele>700.7</ele>
        <time>2026-07-08T10:04:54.000Z</time>
      </trkpt>
      <trkpt lat="45.77972" lon="1.87079">
        <ele>700.6</ele>
        <time>2026-07-08T10:04:55.000Z</time>
      </trkpt>
      <trkpt lat="45.77973" lon="1.87079">
        <ele>700.4</ele>
        <time>2026-07-08T10:04:56.000Z</time>
      </trkpt>
      <trkpt lat="45.77973" lon="1.87079">
        <ele>700.6</ele>
        <time>2026-07-08T10:04:57.000Z</time>
      </trkpt>
      <trkpt lat="45.77972" lon="1.87079">
        <ele>700.5</ele>
        <time>2026-07-08T10:04:58.000Z</time>
      </trkpt>
      <trkpt lat="45.77972" lon="1.87078">
        <ele>700.8</ele>
        <time>2026-07-08T10:04:59.000Z</time>
      </trkpt>
      <trkpt lat="45.77971" lon="1.87078">
        <ele>701.1</ele>
        <time>2026-07-08T10:05:00.000Z</time>
      </trkpt>
      <trkpt lat="45.7797" lon="1.87078">
        <ele>701.2</ele>
        <time>2026-07-08T10:05:01.000Z</time>
      </trkpt>
      <trkpt lat="45.77969" lon="1.87079">
        <ele>701.4</ele>
        <time>2026-07-08T10:05:02.000Z</time>
      </trkpt>
      <trkpt lat="45.77969" lon="1.87079">
        <ele>701.2</ele>
        <time>2026-07-08T10:05:03.000Z</time>
      </trkpt>
      <trkpt lat="45.77968" lon="1.87077">
        <ele>701.7</ele>
        <time>2026-07-08T10:05:04.000Z</time>
      </trkpt>
      <trkpt lat="45.77968" lon="1.87076">
        <ele>700.8</ele>
        <time>2026-07-08T10:05:05.000Z</time>
      </trkpt>
      <trkpt lat="45.77967" lon="1.87074">
        <ele>701</ele>
        <time>2026-07-08T10:05:06.000Z</time>
      </trkpt>
      <trkpt lat="45.77968" lon="1.87073">
        <ele>700.6</ele>
        <time>2026-07-08T10:05:07.000Z</time>
      </trkpt>
      <trkpt lat="45.77968" lon="1.87073">
        <ele>700.6</ele>
        <time>2026-07-08T10:05:08.000Z</time>
      </trkpt>
      <trkpt lat="45.77969" lon="1.87073">
        <ele>701</ele>
        <time>2026-07-08T10:05:09.000Z</time>
      </trkpt>
      <trkpt lat="45.77969" lon="1.87074">
        <ele>700.4</ele>
        <time>2026-07-08T10:05:10.000Z</time>
      </trkpt>
      <trkpt lat="45.77969" lon="1.87076">
        <ele>700.8</ele>
        <time>2026-07-08T10:05:11.000Z</time>
      </trkpt>
      <trkpt lat="45.77969" lon="1.87078">
        <ele>700.5</ele>
        <time>2026-07-08T10:05:12.000Z</time>
      </trkpt>
      <trkpt lat="45.77968" lon="1.8708">
        <ele>699.8</ele>
        <time>2026-07-08T10:05:13.000Z</time>
      </trkpt>
      <trkpt lat="45.77968" lon="1.87081">
        <ele>699.3</ele>
        <time>2026-07-08T10:05:14.000Z</time>
      </trkpt>
      <trkpt lat="45.77968" lon="1.87081">
        <ele>698.7</ele>
        <time>2026-07-08T10:05:15.000Z</time>
      </trkpt>
      <trkpt lat="45.77967" lon="1.8708">
        <ele>699</ele>
        <time>2026-07-08T10:05:16.000Z</time>
      </trkpt>
      <trkpt lat="45.77966" lon="1.87078">
        <ele>698.5</ele>
        <time>2026-07-08T10:05:17.000Z</time>
      </trkpt>
      <trkpt lat="45.77965" lon="1.87077">
        <ele>697.3</ele>
        <time>2026-07-08T10:05:18.000Z</time>
      </trkpt>
      <trkpt lat="45.77965" lon="1.87076">
        <ele>697.7</ele>
        <time>2026-07-08T10:05:19.000Z</time>
      </trkpt>
      <trkpt lat="45.77964" lon="1.87075">
        <ele>697.9</ele>
        <time>2026-07-08T10:05:20.000Z</time>
      </trkpt>
      <trkpt lat="45.77962" lon="1.87074">
        <ele>698.5</ele>
        <time>2026-07-08T10:05:21.000Z</time>
      </trkpt>
      <trkpt lat="45.77961" lon="1.87074">
        <ele>699</ele>
        <time>2026-07-08T10:05:22.000Z</time>
      </trkpt>
      <trkpt lat="45.7796" lon="1.87073">
        <ele>699.1</ele>
        <time>2026-07-08T10:05:23.000Z</time>
      </trkpt>
      <trkpt lat="45.77959" lon="1.87073">
        <ele>699.2</ele>
        <time>2026-07-08T10:05:24.000Z</time>
      </trkpt>
      <trkpt lat="45.77958" lon="1.87074">
        <ele>699.2</ele>
        <time>2026-07-08T10:05:25.000Z</time>
      </trkpt>
      <trkpt lat="45.77957" lon="1.87073">
        <ele>699.3</ele>
        <time>2026-07-08T10:05:26.000Z</time>
      </trkpt>
      <trkpt lat="45.77957" lon="1.87073">
        <ele>699.2</ele>
        <time>2026-07-08T10:05:27.000Z</time>
      </trkpt>
      <trkpt lat="45.77956" lon="1.87072">
        <ele>699.6</ele>
        <time>2026-07-08T10:05:28.000Z</time>
      </trkpt>
      <trkpt lat="45.77955" lon="1.87071">
        <ele>699.4</ele>
        <time>2026-07-08T10:05:29.000Z</time>
      </trkpt>
      <trkpt lat="45.77954" lon="1.87071">
        <ele>699.2</ele>
        <time>2026-07-08T10:05:30.000Z</time>
      </trkpt>
      <trkpt lat="45.77954" lon="1.8707">
        <ele>699.2</ele>
        <time>2026-07-08T10:05:31.000Z</time>
      </trkpt>
      <trkpt lat="45.77953" lon="1.8707">
        <ele>699.5</ele>
        <time>2026-07-08T10:05:32.000Z</time>
      </trkpt>
      <trkpt lat="45.77952" lon="1.8707">
        <ele>699.5</ele>
        <time>2026-07-08T10:05:33.000Z</time>
      </trkpt>
      <trkpt lat="45.77952" lon="1.8707">
        <ele>699.7</ele>
        <time>2026-07-08T10:05:34.000Z</time>
      </trkpt>
      <trkpt lat="45.77952" lon="1.87072">
        <ele>699.8</ele>
        <time>2026-07-08T10:05:35.000Z</time>
      </trkpt>
      <trkpt lat="45.77952" lon="1.87074">
        <ele>699.5</ele>
        <time>2026-07-08T10:05:36.000Z</time>
      </trkpt>
      <trkpt lat="45.77952" lon="1.87074">
        <ele>699.9</ele>
        <time>2026-07-08T10:05:37.000Z</time>
      </trkpt>
      <trkpt lat="45.77953" lon="1.87073">
        <ele>700</ele>
        <time>2026-07-08T10:05:38.000Z</time>
      </trkpt>
      <trkpt lat="45.77954" lon="1.87072">
        <ele>699.8</ele>
        <time>2026-07-08T10:05:39.000Z</time>
      </trkpt>
      <trkpt lat="45.77955" lon="1.87071">
        <ele>700.1</ele>
        <time>2026-07-08T10:05:40.000Z</time>
      </trkpt>
      <trkpt lat="45.77955" lon="1.8707">
        <ele>700.3</ele>
        <time>2026-07-08T10:05:41.000Z</time>
      </trkpt>
      <trkpt lat="45.77956" lon="1.8707">
        <ele>700</ele>
        <time>2026-07-08T10:05:42.000Z</time>
      </trkpt>
      <trkpt lat="45.77957" lon="1.87071">
        <ele>700.2</ele>
        <time>2026-07-08T10:05:43.000Z</time>
      </trkpt>
      <trkpt lat="45.77957" lon="1.8707">
        <ele>700.1</ele>
        <time>2026-07-08T10:05:44.000Z</time>
      </trkpt>
      <trkpt lat="45.77958" lon="1.87069">
        <ele>700</ele>
        <time>2026-07-08T10:05:45.000Z</time>
      </trkpt>
      <trkpt lat="45.77959" lon="1.87069">
        <ele>700</ele>
        <time>2026-07-08T10:05:46.000Z</time>
      </trkpt>
      <trkpt lat="45.77959" lon="1.87069">
        <ele>700.1</ele>
        <time>2026-07-08T10:05:47.000Z</time>
      </trkpt>
      <trkpt lat="45.7796" lon="1.8707">
        <ele>700.4</ele>
        <time>2026-07-08T10:05:48.000Z</time>
      </trkpt>
      <trkpt lat="45.77961" lon="1.87071">
        <ele>700.5</ele>
        <time>2026-07-08T10:05:49.000Z</time>
      </trkpt>
      <trkpt lat="45.77961" lon="1.87073">
        <ele>700.4</ele>
        <time>2026-07-08T10:05:50.000Z</time>
      </trkpt>
      <trkpt lat="45.77962" lon="1.87074">
        <ele>700.6</ele>
        <time>2026-07-08T10:05:51.000Z</time>
      </trkpt>
      <trkpt lat="45.77962" lon="1.87074">
        <ele>700.6</ele>
        <time>2026-07-08T10:05:52.000Z</time>
      </trkpt>
      <trkpt lat="45.77963" lon="1.87074">
        <ele>700.7</ele>
        <time>2026-07-08T10:05:53.000Z</time>
      </trkpt>
      <trkpt lat="45.77963" lon="1.87074">
        <ele>700.9</ele>
        <time>2026-07-08T10:05:54.000Z</time>
      </trkpt>
      <trkpt lat="45.77963" lon="1.87073">
        <ele>700.7</ele>
        <time>2026-07-08T10:05:55.000Z</time>
      </trkpt>
      <trkpt lat="45.77963" lon="1.87073">
        <ele>700.6</ele>
        <time>2026-07-08T10:05:56.000Z</time>
      </trkpt>
      <trkpt lat="45.77964" lon="1.87073">
        <ele>700.7</ele>
        <time>2026-07-08T10:05:57.000Z</time>
      </trkpt>
      <trkpt lat="45.77965" lon="1.87073">
        <ele>700.8</ele>
        <time>2026-07-08T10:05:58.000Z</time>
      </trkpt>
      <trkpt lat="45.77965" lon="1.87074">
        <ele>700.7</ele>
        <time>2026-07-08T10:05:59.000Z</time>
      </trkpt>
      <trkpt lat="45.77966" lon="1.87074">
        <ele>700.8</ele>
        <time>2026-07-08T10:06:00.000Z</time>
      </trkpt>
      <trkpt lat="45.77966" lon="1.87075">
        <ele>700.8</ele>
        <time>2026-07-08T10:06:01.000Z</time>
      </trkpt>
      <trkpt lat="45.77966" lon="1.87076">
        <ele>700.5</ele>
        <time>2026-07-08T10:06:02.000Z</time>
      </trkpt>
      <trkpt lat="45.77966" lon="1.87076">
        <ele>700.6</ele>
        <time>2026-07-08T10:06:03.000Z</time>
      </trkpt>
      <trkpt lat="45.77966" lon="1.87077">
        <ele>700.4</ele>
        <time>2026-07-08T10:06:04.000Z</time>
      </trkpt>
      <trkpt lat="45.77966" lon="1.87078">
        <ele>701.4</ele>
        <time>2026-07-08T10:06:05.000Z</time>
      </trkpt>
      <trkpt lat="45.77967" lon="1.87078">
        <ele>701.4</ele>
        <time>2026-07-08T10:06:06.000Z</time>
      </trkpt>
      <trkpt lat="45.77968" lon="1.87079">
        <ele>700.7</ele>
        <time>2026-07-08T10:06:07.000Z</time>
      </trkpt>
      <trkpt lat="45.77969" lon="1.87079">
        <ele>700.9</ele>
        <time>2026-07-08T10:06:08.000Z</time>
      </trkpt>
      <trkpt lat="45.77969" lon="1.87079">
        <ele>701.1</ele>
        <time>2026-07-08T10:06:09.000Z</time>
      </trkpt>
      <trkpt lat="45.77969" lon="1.87079">
        <ele>701.1</ele>
        <time>2026-07-08T10:06:10.000Z</time>
      </trkpt>
      <trkpt lat="45.7797" lon="1.87078">
        <ele>700.9</ele>
        <time>2026-07-08T10:06:11.000Z</time>
      </trkpt>
      <trkpt lat="45.7797" lon="1.87077">
        <ele>700.8</ele>
        <time>2026-07-08T10:06:12.000Z</time>
      </trkpt>
      <trkpt lat="45.7797" lon="1.87076">
        <ele>700.8</ele>
        <time>2026-07-08T10:06:13.000Z</time>
      </trkpt>
      <trkpt lat="45.7797" lon="1.87076">
        <ele>700.8</ele>
        <time>2026-07-08T10:06:14.000Z</time>
      </trkpt>
      <trkpt lat="45.7797" lon="1.87075">
        <ele>700.7</ele>
        <time>2026-07-08T10:06:15.000Z</time>
      </trkpt>
      <trkpt lat="45.77971" lon="1.87076">
        <ele>700.5</ele>
        <time>2026-07-08T10:06:16.000Z</time>
      </trkpt>
      <trkpt lat="45.77971" lon="1.87076">
        <ele>700.4</ele>
        <time>2026-07-08T10:06:17.000Z</time>
      </trkpt>
      <trkpt lat="45.7797" lon="1.87077">
        <ele>700.4</ele>
        <time>2026-07-08T10:06:18.000Z</time>
      </trkpt>
      <trkpt lat="45.7797" lon="1.87077">
        <ele>700.8</ele>
        <time>2026-07-08T10:06:19.000Z</time>
      </trkpt>
      <trkpt lat="45.7797" lon="1.87077">
        <ele>700.8</ele>
        <time>2026-07-08T10:06:20.000Z</time>
      </trkpt>
      <trkpt lat="45.7797" lon="1.87077">
        <ele>700.9</ele>
        <time>2026-07-08T10:06:21.000Z</time>
      </trkpt>
      <trkpt lat="45.7797" lon="1.87078">
        <ele>700.7</ele>
        <time>2026-07-08T10:06:22.000Z</time>
      </trkpt>
      <trkpt lat="45.7797" lon="1.87077">
        <ele>700.5</ele>
        <time>2026-07-08T10:06:23.000Z</time>
      </trkpt>
      <trkpt lat="45.77969" lon="1.87076">
        <ele>700.4</ele>
        <time>2026-07-08T10:06:24.000Z</time>
      </trkpt>
      <trkpt lat="45.77968" lon="1.87075">
        <ele>700.4</ele>
        <time>2026-07-08T10:06:25.000Z</time>
      </trkpt>
      <trkpt lat="45.77968" lon="1.87075">
        <ele>700.3</ele>
        <time>2026-07-08T10:06:26.000Z</time>
      </trkpt>
      <trkpt lat="45.77967" lon="1.87074">
        <ele>700.4</ele>
        <time>2026-07-08T10:06:27.000Z</time>
      </trkpt>
      <trkpt lat="45.77967" lon="1.87073">
        <ele>700.6</ele>
        <time>2026-07-08T10:06:28.000Z</time>
      </trkpt>
      <trkpt lat="45.77967" lon="1.87072">
        <ele>700.3</ele>
        <time>2026-07-08T10:06:29.000Z</time>
      </trkpt>
      <trkpt lat="45.77967" lon="1.87071">
        <ele>700</ele>
        <time>2026-07-08T10:06:30.000Z</time>
      </trkpt>
      <trkpt lat="45.77967" lon="1.87071">
        <ele>700</ele>
        <time>2026-07-08T10:06:31.000Z</time>
      </trkpt>
      <trkpt lat="45.77967" lon="1.87071">
        <ele>700.2</ele>
        <time>2026-07-08T10:06:32.000Z</time>
      </trkpt>
      <trkpt lat="45.77967" lon="1.87071">
        <ele>700.3</ele>
        <time>2026-07-08T10:06:33.000Z</time>
      </trkpt>
      <trkpt lat="45.77967" lon="1.87071">
        <ele>700.9</ele>
        <time>2026-07-08T10:06:34.000Z</time>
      </trkpt>
      <trkpt lat="45.77967" lon="1.87071">
        <ele>701</ele>
        <time>2026-07-08T10:06:35.000Z</time>
      </trkpt>
      <trkpt lat="45.77967" lon="1.87071">
        <ele>700.9</ele>
        <time>2026-07-08T10:06:36.000Z</time>
      </trkpt>
      <trkpt lat="45.77967" lon="1.87071">
        <ele>700.9</ele>
        <time>2026-07-08T10:06:37.000Z</time>
      </trkpt>
      <trkpt lat="45.77967" lon="1.87071">
        <ele>700.9</ele>
        <time>2026-07-08T10:06:38.000Z</time>
      </trkpt>
      <trkpt lat="45.77967" lon="1.87071">
        <ele>700.9</ele>
        <time>2026-07-08T10:06:39.000Z</time>
      </trkpt>
      <trkpt lat="45.77967" lon="1.8707">
        <ele>701.1</ele>
        <time>2026-07-08T10:06:40.000Z</time>
      </trkpt>
      <trkpt lat="45.77966" lon="1.8707">
        <ele>701.1</ele>
        <time>2026-07-08T10:06:41.000Z</time>
      </trkpt>
      <trkpt lat="45.77965" lon="1.8707">
        <ele>701.1</ele>
        <time>2026-07-08T10:06:42.000Z</time>
      </trkpt>
      <trkpt lat="45.77964" lon="1.87071">
        <ele>700.8</ele>
        <time>2026-07-08T10:06:43.000Z</time>
      </trkpt>
      <trkpt lat="45.77962" lon="1.87073">
        <ele>700.8</ele>
        <time>2026-07-08T10:06:44.000Z</time>
      </trkpt>
      <trkpt lat="45.77962" lon="1.87076">
        <ele>701</ele>
        <time>2026-07-08T10:06:45.000Z</time>
      </trkpt>
      <trkpt lat="45.77962" lon="1.87077">
        <ele>701.1</ele>
        <time>2026-07-08T10:06:46.000Z</time>
      </trkpt>
      <trkpt lat="45.77963" lon="1.87077">
        <ele>700.8</ele>
        <time>2026-07-08T10:06:47.000Z</time>
      </trkpt>
      <trkpt lat="45.77965" lon="1.87078">
        <ele>700.6</ele>
        <time>2026-07-08T10:06:48.000Z</time>
      </trkpt>
      <trkpt lat="45.77965" lon="1.8708">
        <ele>700.3</ele>
        <time>2026-07-08T10:06:49.000Z</time>
      </trkpt>
      <trkpt lat="45.77966" lon="1.8708">
        <ele>700.5</ele>
        <time>2026-07-08T10:06:50.000Z</time>
      </trkpt>
      <trkpt lat="45.77967" lon="1.87081">
        <ele>700.6</ele>
        <time>2026-07-08T10:06:51.000Z</time>
      </trkpt>
      <trkpt lat="45.77967" lon="1.87081">
        <ele>701</ele>
        <time>2026-07-08T10:06:52.000Z</time>
      </trkpt>
      <trkpt lat="45.77968" lon="1.87082">
        <ele>701.4</ele>
        <time>2026-07-08T10:06:53.000Z</time>
      </trkpt>
      <trkpt lat="45.77968" lon="1.87083">
        <ele>701.3</ele>
        <time>2026-07-08T10:06:54.000Z</time>
      </trkpt>
      <trkpt lat="45.77969" lon="1.87085">
        <ele>700.2</ele>
        <time>2026-07-08T10:06:55.000Z</time>
      </trkpt>
      <trkpt lat="45.7797" lon="1.87086">
        <ele>701</ele>
        <time>2026-07-08T10:06:56.000Z</time>
      </trkpt>
      <trkpt lat="45.77971" lon="1.87086">
        <ele>701.3</ele>
        <time>2026-07-08T10:06:57.000Z</time>
      </trkpt>
      <trkpt lat="45.77972" lon="1.87086">
        <ele>701.7</ele>
        <time>2026-07-08T10:06:58.000Z</time>
      </trkpt>
      <trkpt lat="45.77973" lon="1.87086">
        <ele>701.7</ele>
        <time>2026-07-08T10:06:59.000Z</time>
      </trkpt>
      <trkpt lat="45.77974" lon="1.87087">
        <ele>701.8</ele>
        <time>2026-07-08T10:07:00.000Z</time>
      </trkpt>
      <trkpt lat="45.77974" lon="1.87089">
        <ele>701.8</ele>
        <time>2026-07-08T10:07:01.000Z</time>
      </trkpt>
      <trkpt lat="45.77975" lon="1.8709">
        <ele>701.8</ele>
        <time>2026-07-08T10:07:02.000Z</time>
      </trkpt>
      <trkpt lat="45.77977" lon="1.87091">
        <ele>701.5</ele>
        <time>2026-07-08T10:07:03.000Z</time>
      </trkpt>
      <trkpt lat="45.77978" lon="1.87092">
        <ele>701.6</ele>
        <time>2026-07-08T10:07:04.000Z</time>
      </trkpt>
      <trkpt lat="45.77978" lon="1.87093">
        <ele>701.5</ele>
        <time>2026-07-08T10:07:05.000Z</time>
      </trkpt>
      <trkpt lat="45.77978" lon="1.87093">
        <ele>701.5</ele>
        <time>2026-07-08T10:07:06.000Z</time>
      </trkpt>
      <trkpt lat="45.77978" lon="1.87094">
        <ele>701.5</ele>
        <time>2026-07-08T10:07:07.000Z</time>
      </trkpt>
      <trkpt lat="45.77978" lon="1.87094">
        <ele>701.5</ele>
        <time>2026-07-08T10:07:08.000Z</time>
      </trkpt>
      <trkpt lat="45.77978" lon="1.87094">
        <ele>701.5</ele>
        <time>2026-07-08T10:07:09.000Z</time>
      </trkpt>
      <trkpt lat="45.77978" lon="1.87094">
        <ele>701.2</ele>
        <time>2026-07-08T10:07:10.000Z</time>
      </trkpt>
      <trkpt lat="45.77979" lon="1.87094">
        <ele>701.5</ele>
        <time>2026-07-08T10:07:11.000Z</time>
      </trkpt>
      <trkpt lat="45.77979" lon="1.87094">
        <ele>701.3</ele>
        <time>2026-07-08T10:07:12.000Z</time>
      </trkpt>
      <trkpt lat="45.77979" lon="1.87095">
        <ele>701.1</ele>
        <time>2026-07-08T10:07:13.000Z</time>
      </trkpt>
      <trkpt lat="45.7798" lon="1.87095">
        <ele>701</ele>
        <time>2026-07-08T10:07:14.000Z</time>
      </trkpt>
      <trkpt lat="45.7798" lon="1.87095">
        <ele>701</ele>
        <time>2026-07-08T10:07:15.000Z</time>
      </trkpt>
      <trkpt lat="45.7798" lon="1.87095">
        <ele>701</ele>
        <time>2026-07-08T10:07:16.000Z</time>
      </trkpt>
      <trkpt lat="45.7798" lon="1.87096">
        <ele>700.9</ele>
        <time>2026-07-08T10:07:17.000Z</time>
      </trkpt>
      <trkpt lat="45.77981" lon="1.87096">
        <ele>701.1</ele>
        <time>2026-07-08T10:07:18.000Z</time>
      </trkpt>
      <trkpt lat="45.77982" lon="1.87098">
        <ele>700.8</ele>
        <time>2026-07-08T10:07:19.000Z</time>
      </trkpt>
      <trkpt lat="45.77984" lon="1.871">
        <ele>700.9</ele>
        <time>2026-07-08T10:07:20.000Z</time>
      </trkpt>
      <trkpt lat="45.77985" lon="1.87102">
        <ele>700.5</ele>
        <time>2026-07-08T10:07:21.000Z</time>
      </trkpt>
      <trkpt lat="45.77987" lon="1.87103">
        <ele>701</ele>
        <time>2026-07-08T10:07:22.000Z</time>
      </trkpt>
      <trkpt lat="45.77989" lon="1.87103">
        <ele>701.2</ele>
        <time>2026-07-08T10:07:23.000Z</time>
      </trkpt>
      <trkpt lat="45.7799" lon="1.87104">
        <ele>701.2</ele>
        <time>2026-07-08T10:07:24.000Z</time>
      </trkpt>
      <trkpt lat="45.77992" lon="1.87105">
        <ele>702</ele>
        <time>2026-07-08T10:07:25.000Z</time>
      </trkpt>
      <trkpt lat="45.77993" lon="1.87106">
        <ele>702.2</ele>
        <time>2026-07-08T10:07:26.000Z</time>
      </trkpt>
      <trkpt lat="45.77994" lon="1.87108">
        <ele>702.7</ele>
        <time>2026-07-08T10:07:27.000Z</time>
      </trkpt>
      <trkpt lat="45.77996" lon="1.8711">
        <ele>702.7</ele>
        <time>2026-07-08T10:07:28.000Z</time>
      </trkpt>
      <trkpt lat="45.77998" lon="1.87111">
        <ele>702.2</ele>
        <time>2026-07-08T10:07:29.000Z</time>
      </trkpt>
      <trkpt lat="45.77999" lon="1.87112">
        <ele>703</ele>
        <time>2026-07-08T10:07:30.000Z</time>
      </trkpt>
      <trkpt lat="45.78001" lon="1.87114">
        <ele>704.1</ele>
        <time>2026-07-08T10:07:31.000Z</time>
      </trkpt>
      <trkpt lat="45.78002" lon="1.87115">
        <ele>704</ele>
        <time>2026-07-08T10:07:32.000Z</time>
      </trkpt>
      <trkpt lat="45.78003" lon="1.87117">
        <ele>704.1</ele>
        <time>2026-07-08T10:07:33.000Z</time>
      </trkpt>
      <trkpt lat="45.78005" lon="1.87118">
        <ele>704.6</ele>
        <time>2026-07-08T10:07:34.000Z</time>
      </trkpt>
      <trkpt lat="45.78006" lon="1.87119">
        <ele>704.5</ele>
        <time>2026-07-08T10:07:35.000Z</time>
      </trkpt>
      <trkpt lat="45.78007" lon="1.8712">
        <ele>704.3</ele>
        <time>2026-07-08T10:07:36.000Z</time>
      </trkpt>
      <trkpt lat="45.78007" lon="1.8712">
        <ele>704.6</ele>
        <time>2026-07-08T10:07:37.000Z</time>
      </trkpt>
      <trkpt lat="45.78008" lon="1.8712">
        <ele>704.8</ele>
        <time>2026-07-08T10:07:38.000Z</time>
      </trkpt>
      <trkpt lat="45.78009" lon="1.87119">
        <ele>704.8</ele>
        <time>2026-07-08T10:07:39.000Z</time>
      </trkpt>
      <trkpt lat="45.7801" lon="1.87119">
        <ele>705.1</ele>
        <time>2026-07-08T10:07:40.000Z</time>
      </trkpt>
      <trkpt lat="45.78012" lon="1.87119">
        <ele>704.4</ele>
        <time>2026-07-08T10:07:41.000Z</time>
      </trkpt>
      <trkpt lat="45.78013" lon="1.8712">
        <ele>704.1</ele>
        <time>2026-07-08T10:07:42.000Z</time>
      </trkpt>
      <trkpt lat="45.78015" lon="1.8712">
        <ele>704.3</ele>
        <time>2026-07-08T10:07:43.000Z</time>
      </trkpt>
      <trkpt lat="45.78017" lon="1.8712">
        <ele>704.1</ele>
        <time>2026-07-08T10:07:44.000Z</time>
      </trkpt>
      <trkpt lat="45.78019" lon="1.8712">
        <ele>704.1</ele>
        <time>2026-07-08T10:07:45.000Z</time>
      </trkpt>
      <trkpt lat="45.78021" lon="1.87121">
        <ele>703.9</ele>
        <time>2026-07-08T10:07:46.000Z</time>
      </trkpt>
      <trkpt lat="45.78022" lon="1.87122">
        <ele>703.6</ele>
        <time>2026-07-08T10:07:47.000Z</time>
      </trkpt>
      <trkpt lat="45.78023" lon="1.87122">
        <ele>704.4</ele>
        <time>2026-07-08T10:07:48.000Z</time>
      </trkpt>
      <trkpt lat="45.78023" lon="1.87122">
        <ele>704.1</ele>
        <time>2026-07-08T10:07:49.000Z</time>
      </trkpt>
      <trkpt lat="45.78024" lon="1.87123">
        <ele>704.2</ele>
        <time>2026-07-08T10:07:50.000Z</time>
      </trkpt>
      <trkpt lat="45.78025" lon="1.87124">
        <ele>704.4</ele>
        <time>2026-07-08T10:07:51.000Z</time>
      </trkpt>
      <trkpt lat="45.78026" lon="1.87124">
        <ele>705.6</ele>
        <time>2026-07-08T10:07:52.000Z</time>
      </trkpt>
      <trkpt lat="45.78027" lon="1.87124">
        <ele>706.1</ele>
        <time>2026-07-08T10:07:53.000Z</time>
      </trkpt>
      <trkpt lat="45.78028" lon="1.87125">
        <ele>706.1</ele>
        <time>2026-07-08T10:07:54.000Z</time>
      </trkpt>
      <trkpt lat="45.78029" lon="1.87126">
        <ele>704.5</ele>
        <time>2026-07-08T10:07:55.000Z</time>
      </trkpt>
      <trkpt lat="45.7803" lon="1.87128">
        <ele>703</ele>
        <time>2026-07-08T10:07:56.000Z</time>
      </trkpt>
      <trkpt lat="45.78031" lon="1.87129">
        <ele>702.7</ele>
        <time>2026-07-08T10:07:57.000Z</time>
      </trkpt>
      <trkpt lat="45.78032" lon="1.8713">
        <ele>702.1</ele>
        <time>2026-07-08T10:07:58.000Z</time>
      </trkpt>
      <trkpt lat="45.78033" lon="1.87131">
        <ele>702.3</ele>
        <time>2026-07-08T10:07:59.000Z</time>
      </trkpt>
      <trkpt lat="45.78034" lon="1.87133">
        <ele>702.2</ele>
        <time>2026-07-08T10:08:00.000Z</time>
      </trkpt>
      <trkpt lat="45.78035" lon="1.87135">
        <ele>702</ele>
        <time>2026-07-08T10:08:01.000Z</time>
      </trkpt>
      <trkpt lat="45.78036" lon="1.87137">
        <ele>702.7</ele>
        <time>2026-07-08T10:08:02.000Z</time>
      </trkpt>
      <trkpt lat="45.78037" lon="1.87139">
        <ele>702.8</ele>
        <time>2026-07-08T10:08:03.000Z</time>
      </trkpt>
      <trkpt lat="45.78038" lon="1.87141">
        <ele>702.2</ele>
        <time>2026-07-08T10:08:04.000Z</time>
      </trkpt>
      <trkpt lat="45.78039" lon="1.87143">
        <ele>702</ele>
        <time>2026-07-08T10:08:05.000Z</time>
      </trkpt>
      <trkpt lat="45.7804" lon="1.87145">
        <ele>702.6</ele>
        <time>2026-07-08T10:08:06.000Z</time>
      </trkpt>
      <trkpt lat="45.78041" lon="1.87147">
        <ele>703</ele>
        <time>2026-07-08T10:08:07.000Z</time>
      </trkpt>
      <trkpt lat="45.78042" lon="1.87149">
        <ele>703</ele>
        <time>2026-07-08T10:08:08.000Z</time>
      </trkpt>
      <trkpt lat="45.78043" lon="1.87152">
        <ele>703.1</ele>
        <time>2026-07-08T10:08:09.000Z</time>
      </trkpt>
      <trkpt lat="45.78043" lon="1.87155">
        <ele>704</ele>
        <time>2026-07-08T10:08:10.000Z</time>
      </trkpt>
      <trkpt lat="45.78043" lon="1.87158">
        <ele>704.6</ele>
        <time>2026-07-08T10:08:11.000Z</time>
      </trkpt>
      <trkpt lat="45.78043" lon="1.87161">
        <ele>704.9</ele>
        <time>2026-07-08T10:08:12.000Z</time>
      </trkpt>
      <trkpt lat="45.78042" lon="1.87163">
        <ele>704.7</ele>
        <time>2026-07-08T10:08:13.000Z</time>
      </trkpt>
      <trkpt lat="45.78042" lon="1.87165">
        <ele>704.7</ele>
        <time>2026-07-08T10:08:14.000Z</time>
      </trkpt>
      <trkpt lat="45.78042" lon="1.87168">
        <ele>705.4</ele>
        <time>2026-07-08T10:08:15.000Z</time>
      </trkpt>
      <trkpt lat="45.78041" lon="1.87171">
        <ele>706</ele>
        <time>2026-07-08T10:08:16.000Z</time>
      </trkpt>
      <trkpt lat="45.78041" lon="1.87174">
        <ele>706.5</ele>
        <time>2026-07-08T10:08:17.000Z</time>
      </trkpt>
      <trkpt lat="45.78041" lon="1.87177">
        <ele>706.7</ele>
        <time>2026-07-08T10:08:18.000Z</time>
      </trkpt>
      <trkpt lat="45.78041" lon="1.8718">
        <ele>706.8</ele>
        <time>2026-07-08T10:08:19.000Z</time>
      </trkpt>
      <trkpt lat="45.78042" lon="1.87182">
        <ele>707</ele>
        <time>2026-07-08T10:08:20.000Z</time>
      </trkpt>
      <trkpt lat="45.78043" lon="1.87184">
        <ele>706.9</ele>
        <time>2026-07-08T10:08:21.000Z</time>
      </trkpt>
      <trkpt lat="45.78044" lon="1.87186">
        <ele>707.1</ele>
        <time>2026-07-08T10:08:22.000Z</time>
      </trkpt>
      <trkpt lat="45.78046" lon="1.87188">
        <ele>707.3</ele>
        <time>2026-07-08T10:08:23.000Z</time>
      </trkpt>
      <trkpt lat="45.78048" lon="1.87188">
        <ele>707.4</ele>
        <time>2026-07-08T10:08:24.000Z</time>
      </trkpt>
      <trkpt lat="45.7805" lon="1.87189">
        <ele>708</ele>
        <time>2026-07-08T10:08:25.000Z</time>
      </trkpt>
      <trkpt lat="45.78052" lon="1.87189">
        <ele>707.5</ele>
        <time>2026-07-08T10:08:26.000Z</time>
      </trkpt>
      <trkpt lat="45.78055" lon="1.87188">
        <ele>708.2</ele>
        <time>2026-07-08T10:08:27.000Z</time>
      </trkpt>
      <trkpt lat="45.78057" lon="1.87187">
        <ele>709.1</ele>
        <time>2026-07-08T10:08:28.000Z</time>
      </trkpt>
      <trkpt lat="45.78059" lon="1.87187">
        <ele>706.4</ele>
        <time>2026-07-08T10:08:29.000Z</time>
      </trkpt>
      <trkpt lat="45.7806" lon="1.87191">
        <ele>704.3</ele>
        <time>2026-07-08T10:08:30.000Z</time>
      </trkpt>
      <trkpt lat="45.78061" lon="1.87193">
        <ele>704.4</ele>
        <time>2026-07-08T10:08:31.000Z</time>
      </trkpt>
      <trkpt lat="45.78062" lon="1.87195">
        <ele>704.7</ele>
        <time>2026-07-08T10:08:32.000Z</time>
      </trkpt>
      <trkpt lat="45.78063" lon="1.87197">
        <ele>704.4</ele>
        <time>2026-07-08T10:08:33.000Z</time>
      </trkpt>
      <trkpt lat="45.78064" lon="1.87199">
        <ele>704.8</ele>
        <time>2026-07-08T10:08:34.000Z</time>
      </trkpt>
      <trkpt lat="45.78066" lon="1.87201">
        <ele>704.9</ele>
        <time>2026-07-08T10:08:35.000Z</time>
      </trkpt>
      <trkpt lat="45.78067" lon="1.87204">
        <ele>705.9</ele>
        <time>2026-07-08T10:08:36.000Z</time>
      </trkpt>
      <trkpt lat="45.78067" lon="1.87207">
        <ele>705.6</ele>
        <time>2026-07-08T10:08:37.000Z</time>
      </trkpt>
      <trkpt lat="45.78067" lon="1.8721">
        <ele>705.4</ele>
        <time>2026-07-08T10:08:38.000Z</time>
      </trkpt>
      <trkpt lat="45.78066" lon="1.87214">
        <ele>703.5</ele>
        <time>2026-07-08T10:08:39.000Z</time>
      </trkpt>
      <trkpt lat="45.78065" lon="1.87217">
        <ele>704.7</ele>
        <time>2026-07-08T10:08:40.000Z</time>
      </trkpt>
      <trkpt lat="45.78064" lon="1.8722">
        <ele>704.4</ele>
        <time>2026-07-08T10:08:41.000Z</time>
      </trkpt>
      <trkpt lat="45.78063" lon="1.87223">
        <ele>705.2</ele>
        <time>2026-07-08T10:08:42.000Z</time>
      </trkpt>
      <trkpt lat="45.78062" lon="1.87225">
        <ele>705.2</ele>
        <time>2026-07-08T10:08:43.000Z</time>
      </trkpt>
      <trkpt lat="45.7806" lon="1.87227">
        <ele>705</ele>
        <time>2026-07-08T10:08:44.000Z</time>
      </trkpt>
      <trkpt lat="45.7806" lon="1.87231">
        <ele>706.3</ele>
        <time>2026-07-08T10:08:45.000Z</time>
      </trkpt>
      <trkpt lat="45.7806" lon="1.87234">
        <ele>706.7</ele>
        <time>2026-07-08T10:08:46.000Z</time>
      </trkpt>
      <trkpt lat="45.78059" lon="1.87237">
        <ele>707</ele>
        <time>2026-07-08T10:08:47.000Z</time>
      </trkpt>
      <trkpt lat="45.78059" lon="1.87239">
        <ele>707.4</ele>
        <time>2026-07-08T10:08:48.000Z</time>
      </trkpt>
      <trkpt lat="45.78058" lon="1.87239">
        <ele>706.9</ele>
        <time>2026-07-08T10:08:49.000Z</time>
      </trkpt>
      <trkpt lat="45.78058" lon="1.8724">
        <ele>706.6</ele>
        <time>2026-07-08T10:08:50.000Z</time>
      </trkpt>
      <trkpt lat="45.78058" lon="1.8724">
        <ele>707.2</ele>
        <time>2026-07-08T10:08:51.000Z</time>
      </trkpt>
      <trkpt lat="45.78057" lon="1.87241">
        <ele>707.4</ele>
        <time>2026-07-08T10:08:52.000Z</time>
      </trkpt>
      <trkpt lat="45.78057" lon="1.87243">
        <ele>707.4</ele>
        <time>2026-07-08T10:08:53.000Z</time>
      </trkpt>
      <trkpt lat="45.78056" lon="1.87244">
        <ele>707.4</ele>
        <time>2026-07-08T10:08:54.000Z</time>
      </trkpt>
      <trkpt lat="45.78056" lon="1.87247">
        <ele>706.4</ele>
        <time>2026-07-08T10:08:55.000Z</time>
      </trkpt>
      <trkpt lat="45.78056" lon="1.87249">
        <ele>706</ele>
        <time>2026-07-08T10:08:56.000Z</time>
      </trkpt>
      <trkpt lat="45.78056" lon="1.87251">
        <ele>705.7</ele>
        <time>2026-07-08T10:08:57.000Z</time>
      </trkpt>
      <trkpt lat="45.78056" lon="1.87253">
        <ele>705.4</ele>
        <time>2026-07-08T10:08:58.000Z</time>
      </trkpt>
      <trkpt lat="45.78056" lon="1.87256">
        <ele>706.2</ele>
        <time>2026-07-08T10:08:59.000Z</time>
      </trkpt>
      <trkpt lat="45.78056" lon="1.87257">
        <ele>706.6</ele>
        <time>2026-07-08T10:09:00.000Z</time>
      </trkpt>
      <trkpt lat="45.78055" lon="1.8726">
        <ele>707.5</ele>
        <time>2026-07-08T10:09:01.000Z</time>
      </trkpt>
      <trkpt lat="45.78054" lon="1.87262">
        <ele>708.2</ele>
        <time>2026-07-08T10:09:02.000Z</time>
      </trkpt>
      <trkpt lat="45.78053" lon="1.87264">
        <ele>708.4</ele>
        <time>2026-07-08T10:09:03.000Z</time>
      </trkpt>
      <trkpt lat="45.78053" lon="1.87267">
        <ele>709.3</ele>
        <time>2026-07-08T10:09:04.000Z</time>
      </trkpt>
      <trkpt lat="45.78053" lon="1.87269">
        <ele>709.4</ele>
        <time>2026-07-08T10:09:05.000Z</time>
      </trkpt>
      <trkpt lat="45.78052" lon="1.8727">
        <ele>709.6</ele>
        <time>2026-07-08T10:09:06.000Z</time>
      </trkpt>
      <trkpt lat="45.78052" lon="1.87272">
        <ele>709.1</ele>
        <time>2026-07-08T10:09:07.000Z</time>
      </trkpt>
      <trkpt lat="45.78053" lon="1.87275">
        <ele>708.5</ele>
        <time>2026-07-08T10:09:08.000Z</time>
      </trkpt>
      <trkpt lat="45.78053" lon="1.87277">
        <ele>708.3</ele>
        <time>2026-07-08T10:09:09.000Z</time>
      </trkpt>
      <trkpt lat="45.78054" lon="1.8728">
        <ele>707.9</ele>
        <time>2026-07-08T10:09:10.000Z</time>
      </trkpt>
      <trkpt lat="45.78054" lon="1.87282">
        <ele>708.3</ele>
        <time>2026-07-08T10:09:11.000Z</time>
      </trkpt>
      <trkpt lat="45.78054" lon="1.87285">
        <ele>708.3</ele>
        <time>2026-07-08T10:09:12.000Z</time>
      </trkpt>
      <trkpt lat="45.78055" lon="1.87288">
        <ele>707.1</ele>
        <time>2026-07-08T10:09:13.000Z</time>
      </trkpt>
      <trkpt lat="45.78056" lon="1.8729">
        <ele>707.6</ele>
        <time>2026-07-08T10:09:14.000Z</time>
      </trkpt>
      <trkpt lat="45.78056" lon="1.87291">
        <ele>707</ele>
        <time>2026-07-08T10:09:15.000Z</time>
      </trkpt>
      <trkpt lat="45.78055" lon="1.87292">
        <ele>707.1</ele>
        <time>2026-07-08T10:09:16.000Z</time>
      </trkpt>
      <trkpt lat="45.78054" lon="1.87294">
        <ele>707.3</ele>
        <time>2026-07-08T10:09:17.000Z</time>
      </trkpt>
      <trkpt lat="45.78054" lon="1.87296">
        <ele>707.8</ele>
        <time>2026-07-08T10:09:18.000Z</time>
      </trkpt>
      <trkpt lat="45.78054" lon="1.87298">
        <ele>708.2</ele>
        <time>2026-07-08T10:09:19.000Z</time>
      </trkpt>
      <trkpt lat="45.78055" lon="1.873">
        <ele>709.1</ele>
        <time>2026-07-08T10:09:20.000Z</time>
      </trkpt>
      <trkpt lat="45.78054" lon="1.87302">
        <ele>709.6</ele>
        <time>2026-07-08T10:09:21.000Z</time>
      </trkpt>
      <trkpt lat="45.78055" lon="1.87304">
        <ele>710.1</ele>
        <time>2026-07-08T10:09:22.000Z</time>
      </trkpt>
      <trkpt lat="45.78055" lon="1.87306">
        <ele>710.3</ele>
        <time>2026-07-08T10:09:23.000Z</time>
      </trkpt>
      <trkpt lat="45.78055" lon="1.87308">
        <ele>710.7</ele>
        <time>2026-07-08T10:09:24.000Z</time>
      </trkpt>
      <trkpt lat="45.78055" lon="1.8731">
        <ele>711.3</ele>
        <time>2026-07-08T10:09:25.000Z</time>
      </trkpt>
      <trkpt lat="45.78055" lon="1.87312">
        <ele>711.6</ele>
        <time>2026-07-08T10:09:26.000Z</time>
      </trkpt>
      <trkpt lat="45.78053" lon="1.87314">
        <ele>711.6</ele>
        <time>2026-07-08T10:09:27.000Z</time>
      </trkpt>
      <trkpt lat="45.78053" lon="1.87316">
        <ele>711.4</ele>
        <time>2026-07-08T10:09:28.000Z</time>
      </trkpt>
      <trkpt lat="45.78053" lon="1.87318">
        <ele>713.2</ele>
        <time>2026-07-08T10:09:29.000Z</time>
      </trkpt>
      <trkpt lat="45.78053" lon="1.87319">
        <ele>713.3</ele>
        <time>2026-07-08T10:09:30.000Z</time>
      </trkpt>
      <trkpt lat="45.78053" lon="1.8732">
        <ele>713.1</ele>
        <time>2026-07-08T10:09:31.000Z</time>
      </trkpt>
      <trkpt lat="45.78054" lon="1.87322">
        <ele>712.9</ele>
        <time>2026-07-08T10:09:32.000Z</time>
      </trkpt>
      <trkpt lat="45.78054" lon="1.87324">
        <ele>713.2</ele>
        <time>2026-07-08T10:09:33.000Z</time>
      </trkpt>
      <trkpt lat="45.78054" lon="1.87326">
        <ele>713.5</ele>
        <time>2026-07-08T10:09:34.000Z</time>
      </trkpt>
      <trkpt lat="45.78054" lon="1.87328">
        <ele>714</ele>
        <time>2026-07-08T10:09:35.000Z</time>
      </trkpt>
      <trkpt lat="45.78053" lon="1.8733">
        <ele>713.9</ele>
        <time>2026-07-08T10:09:36.000Z</time>
      </trkpt>
      <trkpt lat="45.78052" lon="1.87332">
        <ele>713.3</ele>
        <time>2026-07-08T10:09:37.000Z</time>
      </trkpt>
      <trkpt lat="45.78053" lon="1.87334">
        <ele>713.5</ele>
        <time>2026-07-08T10:09:38.000Z</time>
      </trkpt>
      <trkpt lat="45.78053" lon="1.87336">
        <ele>713.3</ele>
        <time>2026-07-08T10:09:39.000Z</time>
      </trkpt>
      <trkpt lat="45.78053" lon="1.87338">
        <ele>713.1</ele>
        <time>2026-07-08T10:09:40.000Z</time>
      </trkpt>
      <trkpt lat="45.78053" lon="1.8734">
        <ele>712.8</ele>
        <time>2026-07-08T10:09:41.000Z</time>
      </trkpt>
      <trkpt lat="45.78053" lon="1.87342">
        <ele>714</ele>
        <time>2026-07-08T10:09:42.000Z</time>
      </trkpt>
      <trkpt lat="45.78053" lon="1.87344">
        <ele>714</ele>
        <time>2026-07-08T10:09:43.000Z</time>
      </trkpt>
      <trkpt lat="45.78053" lon="1.87346">
        <ele>715.5</ele>
        <time>2026-07-08T10:09:44.000Z</time>
      </trkpt>
      <trkpt lat="45.78054" lon="1.87349">
        <ele>713.7</ele>
        <time>2026-07-08T10:09:45.000Z</time>
      </trkpt>
      <trkpt lat="45.78055" lon="1.8735">
        <ele>713.3</ele>
        <time>2026-07-08T10:09:46.000Z</time>
      </trkpt>
      <trkpt lat="45.78056" lon="1.87352">
        <ele>712.5</ele>
        <time>2026-07-08T10:09:47.000Z</time>
      </trkpt>
      <trkpt lat="45.78056" lon="1.87355">
        <ele>713.1</ele>
        <time>2026-07-08T10:09:48.000Z</time>
      </trkpt>
      <trkpt lat="45.78057" lon="1.87357">
        <ele>713.1</ele>
        <time>2026-07-08T10:09:49.000Z</time>
      </trkpt>
      <trkpt lat="45.78057" lon="1.87359">
        <ele>712.3</ele>
        <time>2026-07-08T10:09:50.000Z</time>
      </trkpt>
      <trkpt lat="45.78058" lon="1.8736">
        <ele>712.3</ele>
        <time>2026-07-08T10:09:51.000Z</time>
      </trkpt>
      <trkpt lat="45.78059" lon="1.87362">
        <ele>711.8</ele>
        <time>2026-07-08T10:09:52.000Z</time>
      </trkpt>
      <trkpt lat="45.78059" lon="1.87364">
        <ele>712.4</ele>
        <time>2026-07-08T10:09:53.000Z</time>
      </trkpt>
      <trkpt lat="45.78059" lon="1.87367">
        <ele>712.9</ele>
        <time>2026-07-08T10:09:54.000Z</time>
      </trkpt>
      <trkpt lat="45.78059" lon="1.87369">
        <ele>713.6</ele>
        <time>2026-07-08T10:09:55.000Z</time>
      </trkpt>
      <trkpt lat="45.7806" lon="1.87371">
        <ele>713.5</ele>
        <time>2026-07-08T10:09:56.000Z</time>
      </trkpt>
      <trkpt lat="45.7806" lon="1.87373">
        <ele>713.5</ele>
        <time>2026-07-08T10:09:57.000Z</time>
      </trkpt>
      <trkpt lat="45.78061" lon="1.87376">
        <ele>715.2</ele>
        <time>2026-07-08T10:09:58.000Z</time>
      </trkpt>
      <trkpt lat="45.78062" lon="1.87378">
        <ele>715.8</ele>
        <time>2026-07-08T10:09:59.000Z</time>
      </trkpt>
      <trkpt lat="45.78062" lon="1.8738">
        <ele>716.5</ele>
        <time>2026-07-08T10:10:00.000Z</time>
      </trkpt>
      <trkpt lat="45.78063" lon="1.87381">
        <ele>716.4</ele>
        <time>2026-07-08T10:10:01.000Z</time>
      </trkpt>
      <trkpt lat="45.78064" lon="1.87383">
        <ele>716.4</ele>
        <time>2026-07-08T10:10:02.000Z</time>
      </trkpt>
      <trkpt lat="45.78065" lon="1.87384">
        <ele>716.1</ele>
        <time>2026-07-08T10:10:03.000Z</time>
      </trkpt>
      <trkpt lat="45.78065" lon="1.87386">
        <ele>715.1</ele>
        <time>2026-07-08T10:10:04.000Z</time>
      </trkpt>
      <trkpt lat="45.78066" lon="1.87387">
        <ele>714.4</ele>
        <time>2026-07-08T10:10:05.000Z</time>
      </trkpt>
      <trkpt lat="45.78066" lon="1.87389">
        <ele>714.1</ele>
        <time>2026-07-08T10:10:06.000Z</time>
      </trkpt>
      <trkpt lat="45.78066" lon="1.8739">
        <ele>714</ele>
        <time>2026-07-08T10:10:07.000Z</time>
      </trkpt>
      <trkpt lat="45.78067" lon="1.87392">
        <ele>713.2</ele>
        <time>2026-07-08T10:10:08.000Z</time>
      </trkpt>
      <trkpt lat="45.78067" lon="1.87394">
        <ele>712.8</ele>
        <time>2026-07-08T10:10:09.000Z</time>
      </trkpt>
      <trkpt lat="45.78068" lon="1.87396">
        <ele>714.5</ele>
        <time>2026-07-08T10:10:10.000Z</time>
      </trkpt>
      <trkpt lat="45.78068" lon="1.87398">
        <ele>714.6</ele>
        <time>2026-07-08T10:10:11.000Z</time>
      </trkpt>
      <trkpt lat="45.78067" lon="1.87401">
        <ele>715.9</ele>
        <time>2026-07-08T10:10:12.000Z</time>
      </trkpt>
      <trkpt lat="45.78067" lon="1.87403">
        <ele>716.2</ele>
        <time>2026-07-08T10:10:13.000Z</time>
      </trkpt>
      <trkpt lat="45.78067" lon="1.87405">
        <ele>716.8</ele>
        <time>2026-07-08T10:10:14.000Z</time>
      </trkpt>
      <trkpt lat="45.78067" lon="1.87407">
        <ele>716.6</ele>
        <time>2026-07-08T10:10:15.000Z</time>
      </trkpt>
      <trkpt lat="45.78067" lon="1.87409">
        <ele>716.5</ele>
        <time>2026-07-08T10:10:16.000Z</time>
      </trkpt>
      <trkpt lat="45.78068" lon="1.87411">
        <ele>717.5</ele>
        <time>2026-07-08T10:10:17.000Z</time>
      </trkpt>
      <trkpt lat="45.78068" lon="1.87412">
        <ele>718.8</ele>
        <time>2026-07-08T10:10:18.000Z</time>
      </trkpt>
      <trkpt lat="45.78068" lon="1.87414">
        <ele>719.1</ele>
        <time>2026-07-08T10:10:19.000Z</time>
      </trkpt>
      <trkpt lat="45.78068" lon="1.87416">
        <ele>719.1</ele>
        <time>2026-07-08T10:10:20.000Z</time>
      </trkpt>
      <trkpt lat="45.78068" lon="1.87418">
        <ele>718.4</ele>
        <time>2026-07-08T10:10:21.000Z</time>
      </trkpt>
      <trkpt lat="45.78069" lon="1.87421">
        <ele>718.1</ele>
        <time>2026-07-08T10:10:22.000Z</time>
      </trkpt>
      <trkpt lat="45.7807" lon="1.87423">
        <ele>718.1</ele>
        <time>2026-07-08T10:10:23.000Z</time>
      </trkpt>
      <trkpt lat="45.78071" lon="1.87425">
        <ele>718.5</ele>
        <time>2026-07-08T10:10:24.000Z</time>
      </trkpt>
      <trkpt lat="45.78071" lon="1.87428">
        <ele>719.1</ele>
        <time>2026-07-08T10:10:25.000Z</time>
      </trkpt>
      <trkpt lat="45.78071" lon="1.8743">
        <ele>718.4</ele>
        <time>2026-07-08T10:10:26.000Z</time>
      </trkpt>
      <trkpt lat="45.78071" lon="1.87432">
        <ele>718.1</ele>
        <time>2026-07-08T10:10:27.000Z</time>
      </trkpt>
      <trkpt lat="45.78071" lon="1.87434">
        <ele>718.5</ele>
        <time>2026-07-08T10:10:28.000Z</time>
      </trkpt>
      <trkpt lat="45.78071" lon="1.87437">
        <ele>718</ele>
        <time>2026-07-08T10:10:29.000Z</time>
      </trkpt>
      <trkpt lat="45.7807" lon="1.87439">
        <ele>717.6</ele>
        <time>2026-07-08T10:10:30.000Z</time>
      </trkpt>
      <trkpt lat="45.7807" lon="1.87441">
        <ele>717.4</ele>
        <time>2026-07-08T10:10:31.000Z</time>
      </trkpt>
      <trkpt lat="45.7807" lon="1.87443">
        <ele>717.4</ele>
        <time>2026-07-08T10:10:32.000Z</time>
      </trkpt>
      <trkpt lat="45.78069" lon="1.87445">
        <ele>717.3</ele>
        <time>2026-07-08T10:10:33.000Z</time>
      </trkpt>
      <trkpt lat="45.78069" lon="1.87447">
        <ele>717.4</ele>
        <time>2026-07-08T10:10:34.000Z</time>
      </trkpt>
      <trkpt lat="45.78068" lon="1.87449">
        <ele>717.9</ele>
        <time>2026-07-08T10:10:35.000Z</time>
      </trkpt>
      <trkpt lat="45.78068" lon="1.87452">
        <ele>718.8</ele>
        <time>2026-07-08T10:10:36.000Z</time>
      </trkpt>
      <trkpt lat="45.78067" lon="1.87454">
        <ele>719.1</ele>
        <time>2026-07-08T10:10:37.000Z</time>
      </trkpt>
      <trkpt lat="45.78066" lon="1.87457">
        <ele>719.2</ele>
        <time>2026-07-08T10:10:38.000Z</time>
      </trkpt>
      <trkpt lat="45.78066" lon="1.87459">
        <ele>719.9</ele>
        <time>2026-07-08T10:10:39.000Z</time>
      </trkpt>
      <trkpt lat="45.78066" lon="1.87461">
        <ele>720.5</ele>
        <time>2026-07-08T10:10:40.000Z</time>
      </trkpt>
      <trkpt lat="45.78065" lon="1.87463">
        <ele>720.6</ele>
        <time>2026-07-08T10:10:41.000Z</time>
      </trkpt>
      <trkpt lat="45.78065" lon="1.87466">
        <ele>719.4</ele>
        <time>2026-07-08T10:10:42.000Z</time>
      </trkpt>
      <trkpt lat="45.78065" lon="1.87468">
        <ele>719</ele>
        <time>2026-07-08T10:10:43.000Z</time>
      </trkpt>
      <trkpt lat="45.78066" lon="1.8747">
        <ele>717.5</ele>
        <time>2026-07-08T10:10:44.000Z</time>
      </trkpt>
      <trkpt lat="45.78065" lon="1.87472">
        <ele>716.8</ele>
        <time>2026-07-08T10:10:45.000Z</time>
      </trkpt>
      <trkpt lat="45.78065" lon="1.87475">
        <ele>717.2</ele>
        <time>2026-07-08T10:10:46.000Z</time>
      </trkpt>
      <trkpt lat="45.78065" lon="1.87477">
        <ele>717</ele>
        <time>2026-07-08T10:10:47.000Z</time>
      </trkpt>
      <trkpt lat="45.78065" lon="1.87479">
        <ele>717.6</ele>
        <time>2026-07-08T10:10:48.000Z</time>
      </trkpt>
      <trkpt lat="45.78064" lon="1.87481">
        <ele>718.1</ele>
        <time>2026-07-08T10:10:49.000Z</time>
      </trkpt>
      <trkpt lat="45.78063" lon="1.87483">
        <ele>718.3</ele>
        <time>2026-07-08T10:10:50.000Z</time>
      </trkpt>
      <trkpt lat="45.78063" lon="1.87485">
        <ele>718.8</ele>
        <time>2026-07-08T10:10:51.000Z</time>
      </trkpt>
      <trkpt lat="45.78063" lon="1.87488">
        <ele>718.4</ele>
        <time>2026-07-08T10:10:52.000Z</time>
      </trkpt>
      <trkpt lat="45.78062" lon="1.8749">
        <ele>719.3</ele>
        <time>2026-07-08T10:10:53.000Z</time>
      </trkpt>
      <trkpt lat="45.78061" lon="1.87491">
        <ele>719.3</ele>
        <time>2026-07-08T10:10:54.000Z</time>
      </trkpt>
      <trkpt lat="45.7806" lon="1.87493">
        <ele>719.2</ele>
        <time>2026-07-08T10:10:55.000Z</time>
      </trkpt>
      <trkpt lat="45.78059" lon="1.87495">
        <ele>719.2</ele>
        <time>2026-07-08T10:10:56.000Z</time>
      </trkpt>
      <trkpt lat="45.78058" lon="1.87497">
        <ele>720.4</ele>
        <time>2026-07-08T10:10:57.000Z</time>
      </trkpt>
      <trkpt lat="45.78057" lon="1.87499">
        <ele>720.2</ele>
        <time>2026-07-08T10:10:58.000Z</time>
      </trkpt>
      <trkpt lat="45.78056" lon="1.875">
        <ele>720.2</ele>
        <time>2026-07-08T10:10:59.000Z</time>
      </trkpt>
      <trkpt lat="45.78055" lon="1.87502">
        <ele>720.3</ele>
        <time>2026-07-08T10:11:00.000Z</time>
      </trkpt>
      <trkpt lat="45.78054" lon="1.87503">
        <ele>721.3</ele>
        <time>2026-07-08T10:11:01.000Z</time>
      </trkpt>
      <trkpt lat="45.78053" lon="1.87505">
        <ele>721.5</ele>
        <time>2026-07-08T10:11:02.000Z</time>
      </trkpt>
      <trkpt lat="45.78052" lon="1.87506">
        <ele>721.2</ele>
        <time>2026-07-08T10:11:03.000Z</time>
      </trkpt>
      <trkpt lat="45.78051" lon="1.87508">
        <ele>721.1</ele>
        <time>2026-07-08T10:11:04.000Z</time>
      </trkpt>
      <trkpt lat="45.7805" lon="1.87509">
        <ele>720.8</ele>
        <time>2026-07-08T10:11:05.000Z</time>
      </trkpt>
      <trkpt lat="45.78049" lon="1.8751">
        <ele>721</ele>
        <time>2026-07-08T10:11:06.000Z</time>
      </trkpt>
      <trkpt lat="45.78047" lon="1.87511">
        <ele>721.5</ele>
        <time>2026-07-08T10:11:07.000Z</time>
      </trkpt>
      <trkpt lat="45.78046" lon="1.87513">
        <ele>720.7</ele>
        <time>2026-07-08T10:11:08.000Z</time>
      </trkpt>
      <trkpt lat="45.78045" lon="1.87514">
        <ele>720.2</ele>
        <time>2026-07-08T10:11:09.000Z</time>
      </trkpt>
      <trkpt lat="45.78044" lon="1.87515">
        <ele>720.3</ele>
        <time>2026-07-08T10:11:10.000Z</time>
      </trkpt>
      <trkpt lat="45.78043" lon="1.87517">
        <ele>720.2</ele>
        <time>2026-07-08T10:11:11.000Z</time>
      </trkpt>
      <trkpt lat="45.78042" lon="1.87517">
        <ele>719.7</ele>
        <time>2026-07-08T10:11:12.000Z</time>
      </trkpt>
      <trkpt lat="45.78041" lon="1.87518">
        <ele>718.8</ele>
        <time>2026-07-08T10:11:13.000Z</time>
      </trkpt>
      <trkpt lat="45.7804" lon="1.87519">
        <ele>717.9</ele>
        <time>2026-07-08T10:11:14.000Z</time>
      </trkpt>
      <trkpt lat="45.78039" lon="1.8752">
        <ele>718.1</ele>
        <time>2026-07-08T10:11:15.000Z</time>
      </trkpt>
      <trkpt lat="45.78038" lon="1.87522">
        <ele>718</ele>
        <time>2026-07-08T10:11:16.000Z</time>
      </trkpt>
      <trkpt lat="45.78037" lon="1.87523">
        <ele>718.1</ele>
        <time>2026-07-08T10:11:17.000Z</time>
      </trkpt>
      <trkpt lat="45.78036" lon="1.87524">
        <ele>719</ele>
        <time>2026-07-08T10:11:18.000Z</time>
      </trkpt>
      <trkpt lat="45.78035" lon="1.87525">
        <ele>719.3</ele>
        <time>2026-07-08T10:11:19.000Z</time>
      </trkpt>
      <trkpt lat="45.78034" lon="1.87527">
        <ele>719.2</ele>
        <time>2026-07-08T10:11:20.000Z</time>
      </trkpt>
      <trkpt lat="45.78033" lon="1.87528">
        <ele>719.3</ele>
        <time>2026-07-08T10:11:21.000Z</time>
      </trkpt>
      <trkpt lat="45.78032" lon="1.87529">
        <ele>719.2</ele>
        <time>2026-07-08T10:11:22.000Z</time>
      </trkpt>
      <trkpt lat="45.7803" lon="1.8753">
        <ele>719.6</ele>
        <time>2026-07-08T10:11:23.000Z</time>
      </trkpt>
      <trkpt lat="45.78028" lon="1.8753">
        <ele>720.8</ele>
        <time>2026-07-08T10:11:24.000Z</time>
      </trkpt>
      <trkpt lat="45.78027" lon="1.87532">
        <ele>722.1</ele>
        <time>2026-07-08T10:11:25.000Z</time>
      </trkpt>
      <trkpt lat="45.78025" lon="1.87532">
        <ele>722.5</ele>
        <time>2026-07-08T10:11:26.000Z</time>
      </trkpt>
      <trkpt lat="45.78024" lon="1.87534">
        <ele>722.4</ele>
        <time>2026-07-08T10:11:27.000Z</time>
      </trkpt>
      <trkpt lat="45.78023" lon="1.87534">
        <ele>722.4</ele>
        <time>2026-07-08T10:11:28.000Z</time>
      </trkpt>
      <trkpt lat="45.78021" lon="1.87535">
        <ele>722.7</ele>
        <time>2026-07-08T10:11:29.000Z</time>
      </trkpt>
      <trkpt lat="45.78019" lon="1.87535">
        <ele>721.8</ele>
        <time>2026-07-08T10:11:30.000Z</time>
      </trkpt>
      <trkpt lat="45.78018" lon="1.87536">
        <ele>722</ele>
        <time>2026-07-08T10:11:31.000Z</time>
      </trkpt>
      <trkpt lat="45.78016" lon="1.87536">
        <ele>721.4</ele>
        <time>2026-07-08T10:11:32.000Z</time>
      </trkpt>
      <trkpt lat="45.78015" lon="1.87536">
        <ele>722.2</ele>
        <time>2026-07-08T10:11:33.000Z</time>
      </trkpt>
      <trkpt lat="45.78014" lon="1.87536">
        <ele>722.1</ele>
        <time>2026-07-08T10:11:34.000Z</time>
      </trkpt>
      <trkpt lat="45.78012" lon="1.87536">
        <ele>722.2</ele>
        <time>2026-07-08T10:11:35.000Z</time>
      </trkpt>
      <trkpt lat="45.78011" lon="1.87536">
        <ele>720.9</ele>
        <time>2026-07-08T10:11:36.000Z</time>
      </trkpt>
      <trkpt lat="45.78009" lon="1.87536">
        <ele>721.5</ele>
        <time>2026-07-08T10:11:37.000Z</time>
      </trkpt>
      <trkpt lat="45.78008" lon="1.87536">
        <ele>721.5</ele>
        <time>2026-07-08T10:11:38.000Z</time>
      </trkpt>
      <trkpt lat="45.78007" lon="1.87537">
        <ele>722.3</ele>
        <time>2026-07-08T10:11:39.000Z</time>
      </trkpt>
      <trkpt lat="45.78005" lon="1.87539">
        <ele>723.3</ele>
        <time>2026-07-08T10:11:40.000Z</time>
      </trkpt>
      <trkpt lat="45.78004" lon="1.8754">
        <ele>723.3</ele>
        <time>2026-07-08T10:11:41.000Z</time>
      </trkpt>
      <trkpt lat="45.78003" lon="1.87541">
        <ele>723.2</ele>
        <time>2026-07-08T10:11:42.000Z</time>
      </trkpt>
      <trkpt lat="45.78001" lon="1.87542">
        <ele>723.1</ele>
        <time>2026-07-08T10:11:43.000Z</time>
      </trkpt>
      <trkpt lat="45.78" lon="1.87542">
        <ele>724.2</ele>
        <time>2026-07-08T10:11:44.000Z</time>
      </trkpt>
      <trkpt lat="45.77998" lon="1.87543">
        <ele>724.1</ele>
        <time>2026-07-08T10:11:45.000Z</time>
      </trkpt>
      <trkpt lat="45.77997" lon="1.87544">
        <ele>724.2</ele>
        <time>2026-07-08T10:11:46.000Z</time>
      </trkpt>
      <trkpt lat="45.77995" lon="1.87545">
        <ele>722.6</ele>
        <time>2026-07-08T10:11:47.000Z</time>
      </trkpt>
      <trkpt lat="45.77994" lon="1.87546">
        <ele>721.7</ele>
        <time>2026-07-08T10:11:48.000Z</time>
      </trkpt>
      <trkpt lat="45.77992" lon="1.87547">
        <ele>721.7</ele>
        <time>2026-07-08T10:11:49.000Z</time>
      </trkpt>
      <trkpt lat="45.77991" lon="1.87548">
        <ele>720.2</ele>
        <time>2026-07-08T10:11:50.000Z</time>
      </trkpt>
      <trkpt lat="45.77989" lon="1.87549">
        <ele>721.4</ele>
        <time>2026-07-08T10:11:51.000Z</time>
      </trkpt>
      <trkpt lat="45.77987" lon="1.8755">
        <ele>720.8</ele>
        <time>2026-07-08T10:11:52.000Z</time>
      </trkpt>
      <trkpt lat="45.77986" lon="1.87551">
        <ele>719.9</ele>
        <time>2026-07-08T10:11:53.000Z</time>
      </trkpt>
      <trkpt lat="45.77984" lon="1.87552">
        <ele>719.4</ele>
        <time>2026-07-08T10:11:54.000Z</time>
      </trkpt>
      <trkpt lat="45.77982" lon="1.87553">
        <ele>719.8</ele>
        <time>2026-07-08T10:11:55.000Z</time>
      </trkpt>
      <trkpt lat="45.77981" lon="1.87555">
        <ele>720.2</ele>
        <time>2026-07-08T10:11:56.000Z</time>
      </trkpt>
      <trkpt lat="45.77979" lon="1.87556">
        <ele>720.4</ele>
        <time>2026-07-08T10:11:57.000Z</time>
      </trkpt>
      <trkpt lat="45.77978" lon="1.87558">
        <ele>720.2</ele>
        <time>2026-07-08T10:11:58.000Z</time>
      </trkpt>
      <trkpt lat="45.77976" lon="1.87559">
        <ele>719.9</ele>
        <time>2026-07-08T10:11:59.000Z</time>
      </trkpt>
      <trkpt lat="45.77975" lon="1.87561">
        <ele>719.2</ele>
        <time>2026-07-08T10:12:00.000Z</time>
      </trkpt>
      <trkpt lat="45.77973" lon="1.87562">
        <ele>718.6</ele>
        <time>2026-07-08T10:12:01.000Z</time>
      </trkpt>
      <trkpt lat="45.77972" lon="1.87563">
        <ele>717.8</ele>
        <time>2026-07-08T10:12:02.000Z</time>
      </trkpt>
      <trkpt lat="45.7797" lon="1.87565">
        <ele>717.4</ele>
        <time>2026-07-08T10:12:03.000Z</time>
      </trkpt>
      <trkpt lat="45.77969" lon="1.87566">
        <ele>716.8</ele>
        <time>2026-07-08T10:12:04.000Z</time>
      </trkpt>
      <trkpt lat="45.77967" lon="1.87567">
        <ele>716.8</ele>
        <time>2026-07-08T10:12:05.000Z</time>
      </trkpt>
      <trkpt lat="45.77966" lon="1.87568">
        <ele>717.9</ele>
        <time>2026-07-08T10:12:06.000Z</time>
      </trkpt>
      <trkpt lat="45.77965" lon="1.87569">
        <ele>719.7</ele>
        <time>2026-07-08T10:12:07.000Z</time>
      </trkpt>
      <trkpt lat="45.77964" lon="1.87569">
        <ele>720.8</ele>
        <time>2026-07-08T10:12:08.000Z</time>
      </trkpt>
      <trkpt lat="45.77964" lon="1.87569">
        <ele>720</ele>
        <time>2026-07-08T10:12:09.000Z</time>
      </trkpt>
      <trkpt lat="45.77964" lon="1.87569">
        <ele>719.9</ele>
        <time>2026-07-08T10:12:10.000Z</time>
      </trkpt>
      <trkpt lat="45.77963" lon="1.8757">
        <ele>720</ele>
        <time>2026-07-08T10:12:11.000Z</time>
      </trkpt>
      <trkpt lat="45.77962" lon="1.87571">
        <ele>720</ele>
        <time>2026-07-08T10:12:12.000Z</time>
      </trkpt>
      <trkpt lat="45.7796" lon="1.87572">
        <ele>719.8</ele>
        <time>2026-07-08T10:12:13.000Z</time>
      </trkpt>
      <trkpt lat="45.77959" lon="1.87573">
        <ele>721.5</ele>
        <time>2026-07-08T10:12:14.000Z</time>
      </trkpt>
      <trkpt lat="45.77958" lon="1.87574">
        <ele>721.4</ele>
        <time>2026-07-08T10:12:15.000Z</time>
      </trkpt>
      <trkpt lat="45.77957" lon="1.87575">
        <ele>721.1</ele>
        <time>2026-07-08T10:12:16.000Z</time>
      </trkpt>
      <trkpt lat="45.77956" lon="1.87576">
        <ele>720.3</ele>
        <time>2026-07-08T10:12:17.000Z</time>
      </trkpt>
      <trkpt lat="45.77956" lon="1.87575">
        <ele>720.5</ele>
        <time>2026-07-08T10:12:18.000Z</time>
      </trkpt>
      <trkpt lat="45.77956" lon="1.87576">
        <ele>720.8</ele>
        <time>2026-07-08T10:12:19.000Z</time>
      </trkpt>
      <trkpt lat="45.77955" lon="1.87577">
        <ele>721</ele>
        <time>2026-07-08T10:12:20.000Z</time>
      </trkpt>
      <trkpt lat="45.77954" lon="1.87578">
        <ele>721.3</ele>
        <time>2026-07-08T10:12:21.000Z</time>
      </trkpt>
      <trkpt lat="45.77954" lon="1.87579">
        <ele>721.9</ele>
        <time>2026-07-08T10:12:22.000Z</time>
      </trkpt>
      <trkpt lat="45.77954" lon="1.87579">
        <ele>721.6</ele>
        <time>2026-07-08T10:12:23.000Z</time>
      </trkpt>
      <trkpt lat="45.77953" lon="1.8758">
        <ele>721.6</ele>
        <time>2026-07-08T10:12:24.000Z</time>
      </trkpt>
      <trkpt lat="45.77952" lon="1.87581">
        <ele>721.4</ele>
        <time>2026-07-08T10:12:25.000Z</time>
      </trkpt>
      <trkpt lat="45.77952" lon="1.87582">
        <ele>721.3</ele>
        <time>2026-07-08T10:12:26.000Z</time>
      </trkpt>
      <trkpt lat="45.77951" lon="1.87583">
        <ele>721.1</ele>
        <time>2026-07-08T10:12:27.000Z</time>
      </trkpt>
      <trkpt lat="45.7795" lon="1.87583">
        <ele>720.5</ele>
        <time>2026-07-08T10:12:28.000Z</time>
      </trkpt>
      <trkpt lat="45.77949" lon="1.87584">
        <ele>720.4</ele>
        <time>2026-07-08T10:12:29.000Z</time>
      </trkpt>
      <trkpt lat="45.77947" lon="1.87585">
        <ele>720.8</ele>
        <time>2026-07-08T10:12:30.000Z</time>
      </trkpt>
      <trkpt lat="45.77946" lon="1.87586">
        <ele>720.9</ele>
        <time>2026-07-08T10:12:31.000Z</time>
      </trkpt>
      <trkpt lat="45.77945" lon="1.87587">
        <ele>721.2</ele>
        <time>2026-07-08T10:12:32.000Z</time>
      </trkpt>
      <trkpt lat="45.77943" lon="1.87589">
        <ele>721.4</ele>
        <time>2026-07-08T10:12:33.000Z</time>
      </trkpt>
      <trkpt lat="45.77942" lon="1.8759">
        <ele>721.8</ele>
        <time>2026-07-08T10:12:34.000Z</time>
      </trkpt>
      <trkpt lat="45.77941" lon="1.87591">
        <ele>721.5</ele>
        <time>2026-07-08T10:12:35.000Z</time>
      </trkpt>
      <trkpt lat="45.7794" lon="1.87593">
        <ele>721.4</ele>
        <time>2026-07-08T10:12:36.000Z</time>
      </trkpt>
      <trkpt lat="45.7794" lon="1.87594">
        <ele>721.6</ele>
        <time>2026-07-08T10:12:37.000Z</time>
      </trkpt>
      <trkpt lat="45.7794" lon="1.87596">
        <ele>721.4</ele>
        <time>2026-07-08T10:12:38.000Z</time>
      </trkpt>
      <trkpt lat="45.77939" lon="1.87598">
        <ele>721.5</ele>
        <time>2026-07-08T10:12:39.000Z</time>
      </trkpt>
      <trkpt lat="45.77939" lon="1.876">
        <ele>721.5</ele>
        <time>2026-07-08T10:12:40.000Z</time>
      </trkpt>
      <trkpt lat="45.77939" lon="1.87602">
        <ele>721.3</ele>
        <time>2026-07-08T10:12:41.000Z</time>
      </trkpt>
      <trkpt lat="45.77939" lon="1.87605">
        <ele>721.4</ele>
        <time>2026-07-08T10:12:42.000Z</time>
      </trkpt>
      <trkpt lat="45.77939" lon="1.87607">
        <ele>721.6</ele>
        <time>2026-07-08T10:12:43.000Z</time>
      </trkpt>
      <trkpt lat="45.77939" lon="1.87609">
        <ele>722</ele>
        <time>2026-07-08T10:12:44.000Z</time>
      </trkpt>
      <trkpt lat="45.77939" lon="1.87612">
        <ele>721.9</ele>
        <time>2026-07-08T10:12:45.000Z</time>
      </trkpt>
      <trkpt lat="45.7794" lon="1.87614">
        <ele>722.1</ele>
        <time>2026-07-08T10:12:46.000Z</time>
      </trkpt>
      <trkpt lat="45.7794" lon="1.87616">
        <ele>722.2</ele>
        <time>2026-07-08T10:12:47.000Z</time>
      </trkpt>
      <trkpt lat="45.7794" lon="1.87619">
        <ele>722.3</ele>
        <time>2026-07-08T10:12:48.000Z</time>
      </trkpt>
      <trkpt lat="45.7794" lon="1.87621">
        <ele>722.4</ele>
        <time>2026-07-08T10:12:49.000Z</time>
      </trkpt>
      <trkpt lat="45.77941" lon="1.87623">
        <ele>722.4</ele>
        <time>2026-07-08T10:12:50.000Z</time>
      </trkpt>
      <trkpt lat="45.77942" lon="1.87625">
        <ele>722.1</ele>
        <time>2026-07-08T10:12:51.000Z</time>
      </trkpt>
      <trkpt lat="45.77942" lon="1.87627">
        <ele>722</ele>
        <time>2026-07-08T10:12:52.000Z</time>
      </trkpt>
      <trkpt lat="45.77943" lon="1.87629">
        <ele>722.1</ele>
        <time>2026-07-08T10:12:53.000Z</time>
      </trkpt>
      <trkpt lat="45.77944" lon="1.87631">
        <ele>721.8</ele>
        <time>2026-07-08T10:12:54.000Z</time>
      </trkpt>
      <trkpt lat="45.77945" lon="1.87633">
        <ele>721.9</ele>
        <time>2026-07-08T10:12:55.000Z</time>
      </trkpt>
      <trkpt lat="45.77946" lon="1.87635">
        <ele>722</ele>
        <time>2026-07-08T10:12:56.000Z</time>
      </trkpt>
      <trkpt lat="45.77947" lon="1.87637">
        <ele>721.8</ele>
        <time>2026-07-08T10:12:57.000Z</time>
      </trkpt>
      <trkpt lat="45.77948" lon="1.87639">
        <ele>721.7</ele>
        <time>2026-07-08T10:12:58.000Z</time>
      </trkpt>
      <trkpt lat="45.77949" lon="1.87641">
        <ele>721.7</ele>
        <time>2026-07-08T10:12:59.000Z</time>
      </trkpt>
      <trkpt lat="45.7795" lon="1.87643">
        <ele>721.8</ele>
        <time>2026-07-08T10:13:00.000Z</time>
      </trkpt>
      <trkpt lat="45.77951" lon="1.87644">
        <ele>721.7</ele>
        <time>2026-07-08T10:13:01.000Z</time>
      </trkpt>
      <trkpt lat="45.77952" lon="1.87646">
        <ele>721.5</ele>
        <time>2026-07-08T10:13:02.000Z</time>
      </trkpt>
      <trkpt lat="45.77953" lon="1.87648">
        <ele>721.3</ele>
        <time>2026-07-08T10:13:03.000Z</time>
      </trkpt>
      <trkpt lat="45.77954" lon="1.87649">
        <ele>721.3</ele>
        <time>2026-07-08T10:13:04.000Z</time>
      </trkpt>
      <trkpt lat="45.77955" lon="1.8765">
        <ele>721.4</ele>
        <time>2026-07-08T10:13:05.000Z</time>
      </trkpt>
      <trkpt lat="45.77956" lon="1.87652">
        <ele>721.5</ele>
        <time>2026-07-08T10:13:06.000Z</time>
      </trkpt>
      <trkpt lat="45.77957" lon="1.87654">
        <ele>721.8</ele>
        <time>2026-07-08T10:13:07.000Z</time>
      </trkpt>
      <trkpt lat="45.77958" lon="1.87655">
        <ele>721.3</ele>
        <time>2026-07-08T10:13:08.000Z</time>
      </trkpt>
      <trkpt lat="45.77958" lon="1.87655">
        <ele>722.1</ele>
        <time>2026-07-08T10:13:09.000Z</time>
      </trkpt>
      <trkpt lat="45.77957" lon="1.87654">
        <ele>722.2</ele>
        <time>2026-07-08T10:13:10.000Z</time>
      </trkpt>
      <trkpt lat="45.77957" lon="1.87655">
        <ele>722.1</ele>
        <time>2026-07-08T10:13:11.000Z</time>
      </trkpt>
      <trkpt lat="45.77959" lon="1.87657">
        <ele>722.2</ele>
        <time>2026-07-08T10:13:12.000Z</time>
      </trkpt>
      <trkpt lat="45.7796" lon="1.87658">
        <ele>722.2</ele>
        <time>2026-07-08T10:13:13.000Z</time>
      </trkpt>
      <trkpt lat="45.77962" lon="1.8766">
        <ele>722.2</ele>
        <time>2026-07-08T10:13:14.000Z</time>
      </trkpt>
      <trkpt lat="45.77964" lon="1.87661">
        <ele>722.4</ele>
        <time>2026-07-08T10:13:15.000Z</time>
      </trkpt>
      <trkpt lat="45.77966" lon="1.87662">
        <ele>722.4</ele>
        <time>2026-07-08T10:13:16.000Z</time>
      </trkpt>
      <trkpt lat="45.77967" lon="1.87663">
        <ele>722.4</ele>
        <time>2026-07-08T10:13:17.000Z</time>
      </trkpt>
      <trkpt lat="45.77969" lon="1.87665">
        <ele>722.6</ele>
        <time>2026-07-08T10:13:18.000Z</time>
      </trkpt>
      <trkpt lat="45.7797" lon="1.87666">
        <ele>722.6</ele>
        <time>2026-07-08T10:13:19.000Z</time>
      </trkpt>
      <trkpt lat="45.77972" lon="1.87667">
        <ele>722.6</ele>
        <time>2026-07-08T10:13:20.000Z</time>
      </trkpt>
      <trkpt lat="45.77973" lon="1.87668">
        <ele>722.5</ele>
        <time>2026-07-08T10:13:21.000Z</time>
      </trkpt>
      <trkpt lat="45.77975" lon="1.87669">
        <ele>722.5</ele>
        <time>2026-07-08T10:13:22.000Z</time>
      </trkpt>
      <trkpt lat="45.77976" lon="1.8767">
        <ele>721.6</ele>
        <time>2026-07-08T10:13:23.000Z</time>
      </trkpt>
      <trkpt lat="45.77978" lon="1.87671">
        <ele>721.3</ele>
        <time>2026-07-08T10:13:24.000Z</time>
      </trkpt>
      <trkpt lat="45.77979" lon="1.87672">
        <ele>721.4</ele>
        <time>2026-07-08T10:13:25.000Z</time>
      </trkpt>
      <trkpt lat="45.7798" lon="1.87672">
        <ele>721.9</ele>
        <time>2026-07-08T10:13:26.000Z</time>
      </trkpt>
      <trkpt lat="45.77982" lon="1.87673">
        <ele>721.9</ele>
        <time>2026-07-08T10:13:27.000Z</time>
      </trkpt>
      <trkpt lat="45.77984" lon="1.87674">
        <ele>722.1</ele>
        <time>2026-07-08T10:13:28.000Z</time>
      </trkpt>
      <trkpt lat="45.77985" lon="1.87675">
        <ele>722.1</ele>
        <time>2026-07-08T10:13:29.000Z</time>
      </trkpt>
      <trkpt lat="45.77987" lon="1.87676">
        <ele>722.1</ele>
        <time>2026-07-08T10:13:30.000Z</time>
      </trkpt>
      <trkpt lat="45.77988" lon="1.87677">
        <ele>722.2</ele>
        <time>2026-07-08T10:13:31.000Z</time>
      </trkpt>
      <trkpt lat="45.7799" lon="1.87678">
        <ele>722.4</ele>
        <time>2026-07-08T10:13:32.000Z</time>
      </trkpt>
      <trkpt lat="45.77991" lon="1.87679">
        <ele>722.5</ele>
        <time>2026-07-08T10:13:33.000Z</time>
      </trkpt>
      <trkpt lat="45.77993" lon="1.8768">
        <ele>722.4</ele>
        <time>2026-07-08T10:13:34.000Z</time>
      </trkpt>
      <trkpt lat="45.77994" lon="1.8768">
        <ele>722.3</ele>
        <time>2026-07-08T10:13:35.000Z</time>
      </trkpt>
      <trkpt lat="45.77995" lon="1.87681">
        <ele>722.6</ele>
        <time>2026-07-08T10:13:36.000Z</time>
      </trkpt>
      <trkpt lat="45.77997" lon="1.87681">
        <ele>723.4</ele>
        <time>2026-07-08T10:13:37.000Z</time>
      </trkpt>
      <trkpt lat="45.77998" lon="1.87681">
        <ele>723.5</ele>
        <time>2026-07-08T10:13:38.000Z</time>
      </trkpt>
      <trkpt lat="45.77999" lon="1.87681">
        <ele>723.7</ele>
        <time>2026-07-08T10:13:39.000Z</time>
      </trkpt>
      <trkpt lat="45.78" lon="1.87682">
        <ele>724.1</ele>
        <time>2026-07-08T10:13:40.000Z</time>
      </trkpt>
      <trkpt lat="45.78002" lon="1.87682">
        <ele>724.4</ele>
        <time>2026-07-08T10:13:41.000Z</time>
      </trkpt>
      <trkpt lat="45.78003" lon="1.87682">
        <ele>724.5</ele>
        <time>2026-07-08T10:13:42.000Z</time>
      </trkpt>
      <trkpt lat="45.78004" lon="1.87682">
        <ele>724.5</ele>
        <time>2026-07-08T10:13:43.000Z</time>
      </trkpt>
      <trkpt lat="45.78006" lon="1.87682">
        <ele>724.7</ele>
        <time>2026-07-08T10:13:44.000Z</time>
      </trkpt>
      <trkpt lat="45.78007" lon="1.87681">
        <ele>725</ele>
        <time>2026-07-08T10:13:45.000Z</time>
      </trkpt>
      <trkpt lat="45.78009" lon="1.87681">
        <ele>724.6</ele>
        <time>2026-07-08T10:13:46.000Z</time>
      </trkpt>
      <trkpt lat="45.7801" lon="1.8768">
        <ele>724.8</ele>
        <time>2026-07-08T10:13:47.000Z</time>
      </trkpt>
      <trkpt lat="45.78012" lon="1.8768">
        <ele>725</ele>
        <time>2026-07-08T10:13:48.000Z</time>
      </trkpt>
      <trkpt lat="45.78013" lon="1.8768">
        <ele>725</ele>
        <time>2026-07-08T10:13:49.000Z</time>
      </trkpt>
      <trkpt lat="45.78014" lon="1.8768">
        <ele>724.8</ele>
        <time>2026-07-08T10:13:50.000Z</time>
      </trkpt>
      <trkpt lat="45.78016" lon="1.8768">
        <ele>725.5</ele>
        <time>2026-07-08T10:13:51.000Z</time>
      </trkpt>
      <trkpt lat="45.78017" lon="1.8768">
        <ele>725.3</ele>
        <time>2026-07-08T10:13:52.000Z</time>
      </trkpt>
      <trkpt lat="45.78019" lon="1.8768">
        <ele>725.7</ele>
        <time>2026-07-08T10:13:53.000Z</time>
      </trkpt>
      <trkpt lat="45.7802" lon="1.87681">
        <ele>726</ele>
        <time>2026-07-08T10:13:54.000Z</time>
      </trkpt>
      <trkpt lat="45.78022" lon="1.87681">
        <ele>726.2</ele>
        <time>2026-07-08T10:13:55.000Z</time>
      </trkpt>
      <trkpt lat="45.78023" lon="1.8768">
        <ele>726.5</ele>
        <time>2026-07-08T10:13:56.000Z</time>
      </trkpt>
      <trkpt lat="45.78025" lon="1.8768">
        <ele>726.7</ele>
        <time>2026-07-08T10:13:57.000Z</time>
      </trkpt>
      <trkpt lat="45.78026" lon="1.8768">
        <ele>727</ele>
        <time>2026-07-08T10:13:58.000Z</time>
      </trkpt>
      <trkpt lat="45.78028" lon="1.8768">
        <ele>726.7</ele>
        <time>2026-07-08T10:13:59.000Z</time>
      </trkpt>
      <trkpt lat="45.7803" lon="1.87679">
        <ele>727.3</ele>
        <time>2026-07-08T10:14:00.000Z</time>
      </trkpt>
      <trkpt lat="45.78031" lon="1.87679">
        <ele>727.8</ele>
        <time>2026-07-08T10:14:01.000Z</time>
      </trkpt>
      <trkpt lat="45.78033" lon="1.87679">
        <ele>728.2</ele>
        <time>2026-07-08T10:14:02.000Z</time>
      </trkpt>
      <trkpt lat="45.78034" lon="1.87678">
        <ele>728.6</ele>
        <time>2026-07-08T10:14:03.000Z</time>
      </trkpt>
      <trkpt lat="45.78036" lon="1.87678">
        <ele>728.9</ele>
        <time>2026-07-08T10:14:04.000Z</time>
      </trkpt>
      <trkpt lat="45.78037" lon="1.87677">
        <ele>729</ele>
        <time>2026-07-08T10:14:05.000Z</time>
      </trkpt>
      <trkpt lat="45.78039" lon="1.87677">
        <ele>729.1</ele>
        <time>2026-07-08T10:14:06.000Z</time>
      </trkpt>
      <trkpt lat="45.78041" lon="1.87677">
        <ele>729.2</ele>
        <time>2026-07-08T10:14:07.000Z</time>
      </trkpt>
      <trkpt lat="45.78042" lon="1.87678">
        <ele>729.5</ele>
        <time>2026-07-08T10:14:08.000Z</time>
      </trkpt>
      <trkpt lat="45.78044" lon="1.87678">
        <ele>729.6</ele>
        <time>2026-07-08T10:14:09.000Z</time>
      </trkpt>
      <trkpt lat="45.78045" lon="1.87678">
        <ele>729.5</ele>
        <time>2026-07-08T10:14:10.000Z</time>
      </trkpt>
      <trkpt lat="45.78047" lon="1.87678">
        <ele>729.2</ele>
        <time>2026-07-08T10:14:11.000Z</time>
      </trkpt>
      <trkpt lat="45.78048" lon="1.87678">
        <ele>729.2</ele>
        <time>2026-07-08T10:14:12.000Z</time>
      </trkpt>
      <trkpt lat="45.7805" lon="1.87678">
        <ele>729.3</ele>
        <time>2026-07-08T10:14:13.000Z</time>
      </trkpt>
      <trkpt lat="45.78052" lon="1.87678">
        <ele>729.4</ele>
        <time>2026-07-08T10:14:14.000Z</time>
      </trkpt>
      <trkpt lat="45.78053" lon="1.87677">
        <ele>729.2</ele>
        <time>2026-07-08T10:14:15.000Z</time>
      </trkpt>
      <trkpt lat="45.78055" lon="1.87678">
        <ele>729.2</ele>
        <time>2026-07-08T10:14:16.000Z</time>
      </trkpt>
      <trkpt lat="45.78056" lon="1.87678">
        <ele>729.2</ele>
        <time>2026-07-08T10:14:17.000Z</time>
      </trkpt>
      <trkpt lat="45.78058" lon="1.87679">
        <ele>729.3</ele>
        <time>2026-07-08T10:14:18.000Z</time>
      </trkpt>
      <trkpt lat="45.78059" lon="1.87679">
        <ele>729.3</ele>
        <time>2026-07-08T10:14:19.000Z</time>
      </trkpt>
      <trkpt lat="45.78061" lon="1.87679">
        <ele>729.5</ele>
        <time>2026-07-08T10:14:20.000Z</time>
      </trkpt>
      <trkpt lat="45.78062" lon="1.8768">
        <ele>729.4</ele>
        <time>2026-07-08T10:14:21.000Z</time>
      </trkpt>
      <trkpt lat="45.78064" lon="1.8768">
        <ele>729.1</ele>
        <time>2026-07-08T10:14:22.000Z</time>
      </trkpt>
      <trkpt lat="45.78066" lon="1.8768">
        <ele>729.1</ele>
        <time>2026-07-08T10:14:23.000Z</time>
      </trkpt>
      <trkpt lat="45.78067" lon="1.87679">
        <ele>729.2</ele>
        <time>2026-07-08T10:14:24.000Z</time>
      </trkpt>
      <trkpt lat="45.78069" lon="1.87679">
        <ele>728.9</ele>
        <time>2026-07-08T10:14:25.000Z</time>
      </trkpt>
      <trkpt lat="45.78071" lon="1.87679">
        <ele>728.7</ele>
        <time>2026-07-08T10:14:26.000Z</time>
      </trkpt>
      <trkpt lat="45.78072" lon="1.87679">
        <ele>728.8</ele>
        <time>2026-07-08T10:14:27.000Z</time>
      </trkpt>
      <trkpt lat="45.78074" lon="1.87679">
        <ele>728.8</ele>
        <time>2026-07-08T10:14:28.000Z</time>
      </trkpt>
      <trkpt lat="45.78076" lon="1.87679">
        <ele>728.5</ele>
        <time>2026-07-08T10:14:29.000Z</time>
      </trkpt>
      <trkpt lat="45.78077" lon="1.87679">
        <ele>728.2</ele>
        <time>2026-07-08T10:14:30.000Z</time>
      </trkpt>
      <trkpt lat="45.78079" lon="1.87679">
        <ele>728.3</ele>
        <time>2026-07-08T10:14:31.000Z</time>
      </trkpt>
      <trkpt lat="45.78081" lon="1.87678">
        <ele>728.2</ele>
        <time>2026-07-08T10:14:32.000Z</time>
      </trkpt>
      <trkpt lat="45.78082" lon="1.87677">
        <ele>727.5</ele>
        <time>2026-07-08T10:14:33.000Z</time>
      </trkpt>
      <trkpt lat="45.78084" lon="1.87676">
        <ele>726.9</ele>
        <time>2026-07-08T10:14:34.000Z</time>
      </trkpt>
      <trkpt lat="45.78086" lon="1.87676">
        <ele>726.6</ele>
        <time>2026-07-08T10:14:35.000Z</time>
      </trkpt>
      <trkpt lat="45.78087" lon="1.87674">
        <ele>726.4</ele>
        <time>2026-07-08T10:14:36.000Z</time>
      </trkpt>
      <trkpt lat="45.78089" lon="1.87674">
        <ele>726.2</ele>
        <time>2026-07-08T10:14:37.000Z</time>
      </trkpt>
      <trkpt lat="45.7809" lon="1.87674">
        <ele>726.2</ele>
        <time>2026-07-08T10:14:38.000Z</time>
      </trkpt>
      <trkpt lat="45.78092" lon="1.87673">
        <ele>726.3</ele>
        <time>2026-07-08T10:14:39.000Z</time>
      </trkpt>
      <trkpt lat="45.78094" lon="1.87672">
        <ele>726.1</ele>
        <time>2026-07-08T10:14:40.000Z</time>
      </trkpt>
      <trkpt lat="45.78095" lon="1.87673">
        <ele>726.1</ele>
        <time>2026-07-08T10:14:41.000Z</time>
      </trkpt>
      <trkpt lat="45.78097" lon="1.87673">
        <ele>726.1</ele>
        <time>2026-07-08T10:14:42.000Z</time>
      </trkpt>
      <trkpt lat="45.78099" lon="1.87674">
        <ele>725.9</ele>
        <time>2026-07-08T10:14:43.000Z</time>
      </trkpt>
      <trkpt lat="45.78101" lon="1.87674">
        <ele>725.9</ele>
        <time>2026-07-08T10:14:44.000Z</time>
      </trkpt>
      <trkpt lat="45.78102" lon="1.87673">
        <ele>725.9</ele>
        <time>2026-07-08T10:14:45.000Z</time>
      </trkpt>
      <trkpt lat="45.78104" lon="1.87673">
        <ele>725.9</ele>
        <time>2026-07-08T10:14:46.000Z</time>
      </trkpt>
      <trkpt lat="45.78106" lon="1.87672">
        <ele>725.9</ele>
        <time>2026-07-08T10:14:47.000Z</time>
      </trkpt>
      <trkpt lat="45.78108" lon="1.87672">
        <ele>725.8</ele>
        <time>2026-07-08T10:14:48.000Z</time>
      </trkpt>
      <trkpt lat="45.78109" lon="1.87671">
        <ele>725.6</ele>
        <time>2026-07-08T10:14:49.000Z</time>
      </trkpt>
      <trkpt lat="45.78111" lon="1.8767">
        <ele>725.6</ele>
        <time>2026-07-08T10:14:50.000Z</time>
      </trkpt>
      <trkpt lat="45.78113" lon="1.8767">
        <ele>725.5</ele>
        <time>2026-07-08T10:14:51.000Z</time>
      </trkpt>
      <trkpt lat="45.78115" lon="1.87669">
        <ele>725.5</ele>
        <time>2026-07-08T10:14:52.000Z</time>
      </trkpt>
      <trkpt lat="45.78116" lon="1.87668">
        <ele>725.4</ele>
        <time>2026-07-08T10:14:53.000Z</time>
      </trkpt>
      <trkpt lat="45.78118" lon="1.87667">
        <ele>725.2</ele>
        <time>2026-07-08T10:14:54.000Z</time>
      </trkpt>
      <trkpt lat="45.7812" lon="1.87667">
        <ele>725.1</ele>
        <time>2026-07-08T10:14:55.000Z</time>
      </trkpt>
      <trkpt lat="45.78122" lon="1.87667">
        <ele>725.1</ele>
        <time>2026-07-08T10:14:56.000Z</time>
      </trkpt>
      <trkpt lat="45.78123" lon="1.87666">
        <ele>725.1</ele>
        <time>2026-07-08T10:14:57.000Z</time>
      </trkpt>
      <trkpt lat="45.78125" lon="1.87666">
        <ele>725.1</ele>
        <time>2026-07-08T10:14:58.000Z</time>
      </trkpt>
      <trkpt lat="45.78127" lon="1.87666">
        <ele>725</ele>
        <time>2026-07-08T10:14:59.000Z</time>
      </trkpt>
      <trkpt lat="45.78129" lon="1.87666">
        <ele>725.1</ele>
        <time>2026-07-08T10:15:00.000Z</time>
      </trkpt>
      <trkpt lat="45.78131" lon="1.87666">
        <ele>724.9</ele>
        <time>2026-07-08T10:15:01.000Z</time>
      </trkpt>
      <trkpt lat="45.78132" lon="1.87667">
        <ele>724.9</ele>
        <time>2026-07-08T10:15:02.000Z</time>
      </trkpt>
      <trkpt lat="45.78134" lon="1.87667">
        <ele>724.7</ele>
        <time>2026-07-08T10:15:03.000Z</time>
      </trkpt>
      <trkpt lat="45.78136" lon="1.87668">
        <ele>724.9</ele>
        <time>2026-07-08T10:15:04.000Z</time>
      </trkpt>
      <trkpt lat="45.78138" lon="1.87668">
        <ele>724.9</ele>
        <time>2026-07-08T10:15:05.000Z</time>
      </trkpt>
      <trkpt lat="45.78139" lon="1.87669">
        <ele>724.9</ele>
        <time>2026-07-08T10:15:06.000Z</time>
      </trkpt>
      <trkpt lat="45.78141" lon="1.87669">
        <ele>724.9</ele>
        <time>2026-07-08T10:15:07.000Z</time>
      </trkpt>
      <trkpt lat="45.78143" lon="1.87669">
        <ele>724.9</ele>
        <time>2026-07-08T10:15:08.000Z</time>
      </trkpt>
      <trkpt lat="45.78145" lon="1.8767">
        <ele>725.1</ele>
        <time>2026-07-08T10:15:09.000Z</time>
      </trkpt>
      <trkpt lat="45.78146" lon="1.87671">
        <ele>725.3</ele>
        <time>2026-07-08T10:15:10.000Z</time>
      </trkpt>
      <trkpt lat="45.78148" lon="1.87672">
        <ele>725.5</ele>
        <time>2026-07-08T10:15:11.000Z</time>
      </trkpt>
      <trkpt lat="45.78149" lon="1.87673">
        <ele>725.5</ele>
        <time>2026-07-08T10:15:12.000Z</time>
      </trkpt>
      <trkpt lat="45.78151" lon="1.87674">
        <ele>725.5</ele>
        <time>2026-07-08T10:15:13.000Z</time>
      </trkpt>
      <trkpt lat="45.78153" lon="1.87675">
        <ele>725.6</ele>
        <time>2026-07-08T10:15:14.000Z</time>
      </trkpt>
      <trkpt lat="45.78154" lon="1.87676">
        <ele>725.6</ele>
        <time>2026-07-08T10:15:15.000Z</time>
      </trkpt>
      <trkpt lat="45.78155" lon="1.87677">
        <ele>725.8</ele>
        <time>2026-07-08T10:15:16.000Z</time>
      </trkpt>
      <trkpt lat="45.78157" lon="1.87679">
        <ele>725.8</ele>
        <time>2026-07-08T10:15:17.000Z</time>
      </trkpt>
      <trkpt lat="45.78159" lon="1.87679">
        <ele>726</ele>
        <time>2026-07-08T10:15:18.000Z</time>
      </trkpt>
      <trkpt lat="45.7816" lon="1.8768">
        <ele>725.8</ele>
        <time>2026-07-08T10:15:19.000Z</time>
      </trkpt>
      <trkpt lat="45.78161" lon="1.87681">
        <ele>725.9</ele>
        <time>2026-07-08T10:15:20.000Z</time>
      </trkpt>
      <trkpt lat="45.78163" lon="1.87682">
        <ele>726</ele>
        <time>2026-07-08T10:15:21.000Z</time>
      </trkpt>
      <trkpt lat="45.78165" lon="1.87683">
        <ele>726</ele>
        <time>2026-07-08T10:15:22.000Z</time>
      </trkpt>
      <trkpt lat="45.78166" lon="1.87684">
        <ele>726.1</ele>
        <time>2026-07-08T10:15:23.000Z</time>
      </trkpt>
      <trkpt lat="45.78168" lon="1.87685">
        <ele>726.2</ele>
        <time>2026-07-08T10:15:24.000Z</time>
      </trkpt>
      <trkpt lat="45.78169" lon="1.87686">
        <ele>726.2</ele>
        <time>2026-07-08T10:15:25.000Z</time>
      </trkpt>
      <trkpt lat="45.78171" lon="1.87687">
        <ele>726.4</ele>
        <time>2026-07-08T10:15:26.000Z</time>
      </trkpt>
      <trkpt lat="45.78173" lon="1.87688">
        <ele>726.3</ele>
        <time>2026-07-08T10:15:27.000Z</time>
      </trkpt>
      <trkpt lat="45.78174" lon="1.87689">
        <ele>726.4</ele>
        <time>2026-07-08T10:15:28.000Z</time>
      </trkpt>
      <trkpt lat="45.78176" lon="1.8769">
        <ele>726.6</ele>
        <time>2026-07-08T10:15:29.000Z</time>
      </trkpt>
      <trkpt lat="45.78177" lon="1.87691">
        <ele>726.6</ele>
        <time>2026-07-08T10:15:30.000Z</time>
      </trkpt>
      <trkpt lat="45.78179" lon="1.87692">
        <ele>726.7</ele>
        <time>2026-07-08T10:15:31.000Z</time>
      </trkpt>
      <trkpt lat="45.78181" lon="1.87692">
        <ele>726.2</ele>
        <time>2026-07-08T10:15:32.000Z</time>
      </trkpt>
      <trkpt lat="45.78182" lon="1.87693">
        <ele>725.9</ele>
        <time>2026-07-08T10:15:33.000Z</time>
      </trkpt>
      <trkpt lat="45.78184" lon="1.87693">
        <ele>725.8</ele>
        <time>2026-07-08T10:15:34.000Z</time>
      </trkpt>
      <trkpt lat="45.78186" lon="1.87694">
        <ele>725.6</ele>
        <time>2026-07-08T10:15:35.000Z</time>
      </trkpt>
      <trkpt lat="45.78187" lon="1.87694">
        <ele>725.2</ele>
        <time>2026-07-08T10:15:36.000Z</time>
      </trkpt>
      <trkpt lat="45.78188" lon="1.87696">
        <ele>725.1</ele>
        <time>2026-07-08T10:15:37.000Z</time>
      </trkpt>
      <trkpt lat="45.78189" lon="1.87697">
        <ele>725.1</ele>
        <time>2026-07-08T10:15:38.000Z</time>
      </trkpt>
      <trkpt lat="45.7819" lon="1.87697">
        <ele>724.9</ele>
        <time>2026-07-08T10:15:39.000Z</time>
      </trkpt>
      <trkpt lat="45.7819" lon="1.87698">
        <ele>724.8</ele>
        <time>2026-07-08T10:15:40.000Z</time>
      </trkpt>
      <trkpt lat="45.78191" lon="1.87699">
        <ele>724.9</ele>
        <time>2026-07-08T10:15:41.000Z</time>
      </trkpt>
      <trkpt lat="45.78192" lon="1.877">
        <ele>724.9</ele>
        <time>2026-07-08T10:15:42.000Z</time>
      </trkpt>
      <trkpt lat="45.78194" lon="1.877">
        <ele>724.8</ele>
        <time>2026-07-08T10:15:43.000Z</time>
      </trkpt>
      <trkpt lat="45.78196" lon="1.87701">
        <ele>724.5</ele>
        <time>2026-07-08T10:15:44.000Z</time>
      </trkpt>
      <trkpt lat="45.78197" lon="1.87701">
        <ele>724.3</ele>
        <time>2026-07-08T10:15:45.000Z</time>
      </trkpt>
      <trkpt lat="45.78199" lon="1.87702">
        <ele>724.3</ele>
        <time>2026-07-08T10:15:46.000Z</time>
      </trkpt>
      <trkpt lat="45.78201" lon="1.87702">
        <ele>724.3</ele>
        <time>2026-07-08T10:15:47.000Z</time>
      </trkpt>
      <trkpt lat="45.78202" lon="1.87703">
        <ele>724.6</ele>
        <time>2026-07-08T10:15:48.000Z</time>
      </trkpt>
      <trkpt lat="45.78204" lon="1.87703">
        <ele>724.5</ele>
        <time>2026-07-08T10:15:49.000Z</time>
      </trkpt>
      <trkpt lat="45.78205" lon="1.87704">
        <ele>724.5</ele>
        <time>2026-07-08T10:15:50.000Z</time>
      </trkpt>
      <trkpt lat="45.78207" lon="1.87705">
        <ele>724.2</ele>
        <time>2026-07-08T10:15:51.000Z</time>
      </trkpt>
      <trkpt lat="45.78209" lon="1.87705">
        <ele>724.2</ele>
        <time>2026-07-08T10:15:52.000Z</time>
      </trkpt>
      <trkpt lat="45.7821" lon="1.87706">
        <ele>724.2</ele>
        <time>2026-07-08T10:15:53.000Z</time>
      </trkpt>
      <trkpt lat="45.78212" lon="1.87707">
        <ele>724.5</ele>
        <time>2026-07-08T10:15:54.000Z</time>
      </trkpt>
      <trkpt lat="45.78214" lon="1.87708">
        <ele>724.4</ele>
        <time>2026-07-08T10:15:55.000Z</time>
      </trkpt>
      <trkpt lat="45.78215" lon="1.87709">
        <ele>724.5</ele>
        <time>2026-07-08T10:15:56.000Z</time>
      </trkpt>
      <trkpt lat="45.78217" lon="1.8771">
        <ele>724.2</ele>
        <time>2026-07-08T10:15:57.000Z</time>
      </trkpt>
      <trkpt lat="45.78218" lon="1.8771">
        <ele>723.9</ele>
        <time>2026-07-08T10:15:58.000Z</time>
      </trkpt>
      <trkpt lat="45.78219" lon="1.8771">
        <ele>724.1</ele>
        <time>2026-07-08T10:15:59.000Z</time>
      </trkpt>
      <trkpt lat="45.78219" lon="1.8771">
        <ele>724.3</ele>
        <time>2026-07-08T10:16:00.000Z</time>
      </trkpt>
      <trkpt lat="45.78221" lon="1.87709">
        <ele>724.3</ele>
        <time>2026-07-08T10:16:01.000Z</time>
      </trkpt>
      <trkpt lat="45.78221" lon="1.87708">
        <ele>724.3</ele>
        <time>2026-07-08T10:16:02.000Z</time>
      </trkpt>
      <trkpt lat="45.78222" lon="1.87708">
        <ele>724.4</ele>
        <time>2026-07-08T10:16:03.000Z</time>
      </trkpt>
      <trkpt lat="45.78223" lon="1.87705">
        <ele>725.4</ele>
        <time>2026-07-08T10:16:04.000Z</time>
      </trkpt>
      <trkpt lat="45.78225" lon="1.87705">
        <ele>725</ele>
        <time>2026-07-08T10:16:05.000Z</time>
      </trkpt>
      <trkpt lat="45.78226" lon="1.87704">
        <ele>724.8</ele>
        <time>2026-07-08T10:16:06.000Z</time>
      </trkpt>
      <trkpt lat="45.78227" lon="1.87702">
        <ele>724.8</ele>
        <time>2026-07-08T10:16:07.000Z</time>
      </trkpt>
      <trkpt lat="45.78228" lon="1.87701">
        <ele>724.3</ele>
        <time>2026-07-08T10:16:08.000Z</time>
      </trkpt>
      <trkpt lat="45.78229" lon="1.877">
        <ele>724.1</ele>
        <time>2026-07-08T10:16:09.000Z</time>
      </trkpt>
      <trkpt lat="45.7823" lon="1.87699">
        <ele>724</ele>
        <time>2026-07-08T10:16:10.000Z</time>
      </trkpt>
      <trkpt lat="45.78231" lon="1.87697">
        <ele>723.2</ele>
        <time>2026-07-08T10:16:11.000Z</time>
      </trkpt>
      <trkpt lat="45.78233" lon="1.87697">
        <ele>723</ele>
        <time>2026-07-08T10:16:12.000Z</time>
      </trkpt>
      <trkpt lat="45.78235" lon="1.87698">
        <ele>721.9</ele>
        <time>2026-07-08T10:16:13.000Z</time>
      </trkpt>
      <trkpt lat="45.78236" lon="1.87699">
        <ele>722.2</ele>
        <time>2026-07-08T10:16:14.000Z</time>
      </trkpt>
      <trkpt lat="45.78237" lon="1.87699">
        <ele>722.2</ele>
        <time>2026-07-08T10:16:15.000Z</time>
      </trkpt>
      <trkpt lat="45.78239" lon="1.87699">
        <ele>721</ele>
        <time>2026-07-08T10:16:16.000Z</time>
      </trkpt>
      <trkpt lat="45.7824" lon="1.87697">
        <ele>719.4</ele>
        <time>2026-07-08T10:16:17.000Z</time>
      </trkpt>
      <trkpt lat="45.78241" lon="1.87695">
        <ele>719</ele>
        <time>2026-07-08T10:16:18.000Z</time>
      </trkpt>
      <trkpt lat="45.78242" lon="1.87692">
        <ele>719.1</ele>
        <time>2026-07-08T10:16:19.000Z</time>
      </trkpt>
      <trkpt lat="45.78243" lon="1.8769">
        <ele>718.9</ele>
        <time>2026-07-08T10:16:20.000Z</time>
      </trkpt>
      <trkpt lat="45.78244" lon="1.87687">
        <ele>719.1</ele>
        <time>2026-07-08T10:16:21.000Z</time>
      </trkpt>
      <trkpt lat="45.78245" lon="1.87685">
        <ele>719.2</ele>
        <time>2026-07-08T10:16:22.000Z</time>
      </trkpt>
      <trkpt lat="45.78246" lon="1.87683">
        <ele>719.2</ele>
        <time>2026-07-08T10:16:23.000Z</time>
      </trkpt>
      <trkpt lat="45.78247" lon="1.87681">
        <ele>719.3</ele>
        <time>2026-07-08T10:16:24.000Z</time>
      </trkpt>
      <trkpt lat="45.78248" lon="1.87679">
        <ele>718.9</ele>
        <time>2026-07-08T10:16:25.000Z</time>
      </trkpt>
      <trkpt lat="45.78249" lon="1.87677">
        <ele>719.3</ele>
        <time>2026-07-08T10:16:26.000Z</time>
      </trkpt>
      <trkpt lat="45.78251" lon="1.87674">
        <ele>718.9</ele>
        <time>2026-07-08T10:16:27.000Z</time>
      </trkpt>
      <trkpt lat="45.78252" lon="1.87672">
        <ele>717.8</ele>
        <time>2026-07-08T10:16:28.000Z</time>
      </trkpt>
      <trkpt lat="45.78253" lon="1.8767">
        <ele>717.1</ele>
        <time>2026-07-08T10:16:29.000Z</time>
      </trkpt>
      <trkpt lat="45.78254" lon="1.87667">
        <ele>716.9</ele>
        <time>2026-07-08T10:16:30.000Z</time>
      </trkpt>
      <trkpt lat="45.78255" lon="1.87665">
        <ele>716.5</ele>
        <time>2026-07-08T10:16:31.000Z</time>
      </trkpt>
      <trkpt lat="45.78256" lon="1.87663">
        <ele>715.8</ele>
        <time>2026-07-08T10:16:32.000Z</time>
      </trkpt>
      <trkpt lat="45.78257" lon="1.87661">
        <ele>715.7</ele>
        <time>2026-07-08T10:16:33.000Z</time>
      </trkpt>
      <trkpt lat="45.78258" lon="1.87659">
        <ele>715.4</ele>
        <time>2026-07-08T10:16:34.000Z</time>
      </trkpt>
      <trkpt lat="45.78259" lon="1.87657">
        <ele>715</ele>
        <time>2026-07-08T10:16:35.000Z</time>
      </trkpt>
      <trkpt lat="45.7826" lon="1.87655">
        <ele>715.1</ele>
        <time>2026-07-08T10:16:36.000Z</time>
      </trkpt>
      <trkpt lat="45.78261" lon="1.87653">
        <ele>715</ele>
        <time>2026-07-08T10:16:37.000Z</time>
      </trkpt>
      <trkpt lat="45.78262" lon="1.87651">
        <ele>714.8</ele>
        <time>2026-07-08T10:16:38.000Z</time>
      </trkpt>
      <trkpt lat="45.78263" lon="1.87649">
        <ele>714.8</ele>
        <time>2026-07-08T10:16:39.000Z</time>
      </trkpt>
      <trkpt lat="45.78264" lon="1.87647">
        <ele>714.6</ele>
        <time>2026-07-08T10:16:40.000Z</time>
      </trkpt>
      <trkpt lat="45.78265" lon="1.87645">
        <ele>715</ele>
        <time>2026-07-08T10:16:41.000Z</time>
      </trkpt>
      <trkpt lat="45.78266" lon="1.87644">
        <ele>714.9</ele>
        <time>2026-07-08T10:16:42.000Z</time>
      </trkpt>
      <trkpt lat="45.78266" lon="1.87644">
        <ele>715</ele>
        <time>2026-07-08T10:16:43.000Z</time>
      </trkpt>
      <trkpt lat="45.78266" lon="1.87643">
        <ele>714.6</ele>
        <time>2026-07-08T10:16:44.000Z</time>
      </trkpt>
      <trkpt lat="45.78266" lon="1.87643">
        <ele>714.1</ele>
        <time>2026-07-08T10:16:45.000Z</time>
      </trkpt>
      <trkpt lat="45.78265" lon="1.87643">
        <ele>713.8</ele>
        <time>2026-07-08T10:16:46.000Z</time>
      </trkpt>
      <trkpt lat="45.78265" lon="1.87643">
        <ele>713.8</ele>
        <time>2026-07-08T10:16:47.000Z</time>
      </trkpt>
      <trkpt lat="45.78265" lon="1.87643">
        <ele>713.8</ele>
        <time>2026-07-08T10:16:48.000Z</time>
      </trkpt>
      <trkpt lat="45.78265" lon="1.87643">
        <ele>713.8</ele>
        <time>2026-07-08T10:16:49.000Z</time>
      </trkpt>
      <trkpt lat="45.78265" lon="1.87643">
        <ele>713.8</ele>
        <time>2026-07-08T10:16:50.000Z</time>
      </trkpt>
      <trkpt lat="45.78265" lon="1.87643">
        <ele>713.8</ele>
        <time>2026-07-08T10:16:51.000Z</time>
      </trkpt>
      <trkpt lat="45.78265" lon="1.87643">
        <ele>713.8</ele>
        <time>2026-07-08T10:16:52.000Z</time>
      </trkpt>
      <trkpt lat="45.78265" lon="1.87643">
        <ele>713.9</ele>
        <time>2026-07-08T10:16:53.000Z</time>
      </trkpt>
      <trkpt lat="45.78265" lon="1.87642">
        <ele>713.6</ele>
        <time>2026-07-08T10:16:54.000Z</time>
      </trkpt>
      <trkpt lat="45.78265" lon="1.8764">
        <ele>714</ele>
        <time>2026-07-08T10:16:55.000Z</time>
      </trkpt>
      <trkpt lat="45.78265" lon="1.87638">
        <ele>715</ele>
        <time>2026-07-08T10:16:56.000Z</time>
      </trkpt>
      <trkpt lat="45.78267" lon="1.87636">
        <ele>715</ele>
        <time>2026-07-08T10:16:57.000Z</time>
      </trkpt>
      <trkpt lat="45.78268" lon="1.87635">
        <ele>714.4</ele>
        <time>2026-07-08T10:16:58.000Z</time>
      </trkpt>
      <trkpt lat="45.78269" lon="1.87633">
        <ele>714.2</ele>
        <time>2026-07-08T10:16:59.000Z</time>
      </trkpt>
      <trkpt lat="45.78269" lon="1.87632">
        <ele>713.7</ele>
        <time>2026-07-08T10:17:00.000Z</time>
      </trkpt>
      <trkpt lat="45.7827" lon="1.87632">
        <ele>713.2</ele>
        <time>2026-07-08T10:17:01.000Z</time>
      </trkpt>
      <trkpt lat="45.78271" lon="1.87632">
        <ele>713.4</ele>
        <time>2026-07-08T10:17:02.000Z</time>
      </trkpt>
      <trkpt lat="45.7827" lon="1.87632">
        <ele>713.4</ele>
        <time>2026-07-08T10:17:03.000Z</time>
      </trkpt>
      <trkpt lat="45.7827" lon="1.87631">
        <ele>713.2</ele>
        <time>2026-07-08T10:17:04.000Z</time>
      </trkpt>
      <trkpt lat="45.78271" lon="1.8763">
        <ele>713.1</ele>
        <time>2026-07-08T10:17:05.000Z</time>
      </trkpt>
      <trkpt lat="45.78271" lon="1.8763">
        <ele>712.9</ele>
        <time>2026-07-08T10:17:06.000Z</time>
      </trkpt>
      <trkpt lat="45.7827" lon="1.8763">
        <ele>713.1</ele>
        <time>2026-07-08T10:17:07.000Z</time>
      </trkpt>
      <trkpt lat="45.7827" lon="1.8763">
        <ele>712.9</ele>
        <time>2026-07-08T10:17:08.000Z</time>
      </trkpt>
      <trkpt lat="45.7827" lon="1.87631">
        <ele>712.9</ele>
        <time>2026-07-08T10:17:09.000Z</time>
      </trkpt>
      <trkpt lat="45.78269" lon="1.8763">
        <ele>712.7</ele>
        <time>2026-07-08T10:17:10.000Z</time>
      </trkpt>
      <trkpt lat="45.78269" lon="1.8763">
        <ele>712.7</ele>
        <time>2026-07-08T10:17:11.000Z</time>
      </trkpt>
      <trkpt lat="45.78269" lon="1.8763">
        <ele>712.7</ele>
        <time>2026-07-08T10:17:12.000Z</time>
      </trkpt>
      <trkpt lat="45.78269" lon="1.8763">
        <ele>712.7</ele>
        <time>2026-07-08T10:17:13.000Z</time>
      </trkpt>
      <trkpt lat="45.78269" lon="1.8763">
        <ele>712.7</ele>
        <time>2026-07-08T10:17:14.000Z</time>
      </trkpt>
      <trkpt lat="45.78269" lon="1.8763">
        <ele>712.7</ele>
        <time>2026-07-08T10:17:15.000Z</time>
      </trkpt>
      <trkpt lat="45.78269" lon="1.8763">
        <ele>712.7</ele>
        <time>2026-07-08T10:17:16.000Z</time>
      </trkpt>
      <trkpt lat="45.78269" lon="1.8763">
        <ele>712.7</ele>
        <time>2026-07-08T10:17:17.000Z</time>
      </trkpt>
      <trkpt lat="45.78269" lon="1.8763">
        <ele>712.7</ele>
        <time>2026-07-08T10:17:18.000Z</time>
      </trkpt>
      <trkpt lat="45.78269" lon="1.8763">
        <ele>712.6</ele>
        <time>2026-07-08T10:17:19.000Z</time>
      </trkpt>
      <trkpt lat="45.78269" lon="1.8763">
        <ele>712.6</ele>
        <time>2026-07-08T10:17:20.000Z</time>
      </trkpt>
      <trkpt lat="45.78269" lon="1.8763">
        <ele>711.9</ele>
        <time>2026-07-08T10:17:21.000Z</time>
      </trkpt>
      <trkpt lat="45.78269" lon="1.87631">
        <ele>711.9</ele>
        <time>2026-07-08T10:17:22.000Z</time>
      </trkpt>
      <trkpt lat="45.78269" lon="1.87631">
        <ele>711.9</ele>
        <time>2026-07-08T10:17:23.000Z</time>
      </trkpt>
      <trkpt lat="45.78269" lon="1.87631">
        <ele>711.9</ele>
        <time>2026-07-08T10:17:24.000Z</time>
      </trkpt>
      <trkpt lat="45.78269" lon="1.87631">
        <ele>711.9</ele>
        <time>2026-07-08T10:17:25.000Z</time>
      </trkpt>
      <trkpt lat="45.78269" lon="1.87631">
        <ele>712.1</ele>
        <time>2026-07-08T10:17:26.000Z</time>
      </trkpt>
      <trkpt lat="45.78269" lon="1.87631">
        <ele>712</ele>
        <time>2026-07-08T10:17:27.000Z</time>
      </trkpt>
      <trkpt lat="45.78269" lon="1.8763">
        <ele>712.1</ele>
        <time>2026-07-08T10:17:28.000Z</time>
      </trkpt>
      <trkpt lat="45.7827" lon="1.87629">
        <ele>712</ele>
        <time>2026-07-08T10:17:29.000Z</time>
      </trkpt>
      <trkpt lat="45.78271" lon="1.87628">
        <ele>711.9</ele>
        <time>2026-07-08T10:17:30.000Z</time>
      </trkpt>
      <trkpt lat="45.78272" lon="1.87627">
        <ele>712.2</ele>
        <time>2026-07-08T10:17:31.000Z</time>
      </trkpt>
      <trkpt lat="45.78274" lon="1.87626">
        <ele>712.3</ele>
        <time>2026-07-08T10:17:32.000Z</time>
      </trkpt>
      <trkpt lat="45.78275" lon="1.87624">
        <ele>712.4</ele>
        <time>2026-07-08T10:17:33.000Z</time>
      </trkpt>
      <trkpt lat="45.78277" lon="1.87623">
        <ele>712.3</ele>
        <time>2026-07-08T10:17:34.000Z</time>
      </trkpt>
      <trkpt lat="45.78278" lon="1.87621">
        <ele>712.5</ele>
        <time>2026-07-08T10:17:35.000Z</time>
      </trkpt>
      <trkpt lat="45.78279" lon="1.87619">
        <ele>712.6</ele>
        <time>2026-07-08T10:17:36.000Z</time>
      </trkpt>
      <trkpt lat="45.7828" lon="1.87618">
        <ele>712.6</ele>
        <time>2026-07-08T10:17:37.000Z</time>
      </trkpt>
      <trkpt lat="45.78282" lon="1.87616">
        <ele>712.8</ele>
        <time>2026-07-08T10:17:38.000Z</time>
      </trkpt>
      <trkpt lat="45.78283" lon="1.87614">
        <ele>712.2</ele>
        <time>2026-07-08T10:17:39.000Z</time>
      </trkpt>
      <trkpt lat="45.78284" lon="1.87612">
        <ele>712.3</ele>
        <time>2026-07-08T10:17:40.000Z</time>
      </trkpt>
      <trkpt lat="45.78286" lon="1.87611">
        <ele>712.2</ele>
        <time>2026-07-08T10:17:41.000Z</time>
      </trkpt>
      <trkpt lat="45.78287" lon="1.87609">
        <ele>712.7</ele>
        <time>2026-07-08T10:17:42.000Z</time>
      </trkpt>
      <trkpt lat="45.78288" lon="1.87607">
        <ele>712.9</ele>
        <time>2026-07-08T10:17:43.000Z</time>
      </trkpt>
      <trkpt lat="45.78289" lon="1.87606">
        <ele>712.9</ele>
        <time>2026-07-08T10:17:44.000Z</time>
      </trkpt>
      <trkpt lat="45.78291" lon="1.87605">
        <ele>712.4</ele>
        <time>2026-07-08T10:17:45.000Z</time>
      </trkpt>
      <trkpt lat="45.78293" lon="1.87604">
        <ele>712.8</ele>
        <time>2026-07-08T10:17:46.000Z</time>
      </trkpt>
      <trkpt lat="45.78295" lon="1.87606">
        <ele>712.7</ele>
        <time>2026-07-08T10:17:47.000Z</time>
      </trkpt>
      <trkpt lat="45.78296" lon="1.87607">
        <ele>713.1</ele>
        <time>2026-07-08T10:17:48.000Z</time>
      </trkpt>
      <trkpt lat="45.78298" lon="1.87609">
        <ele>713.2</ele>
        <time>2026-07-08T10:17:49.000Z</time>
      </trkpt>
      <trkpt lat="45.78299" lon="1.87611">
        <ele>713.2</ele>
        <time>2026-07-08T10:17:50.000Z</time>
      </trkpt>
      <trkpt lat="45.783" lon="1.87614">
        <ele>713.1</ele>
        <time>2026-07-08T10:17:51.000Z</time>
      </trkpt>
      <trkpt lat="45.78302" lon="1.87616">
        <ele>713.7</ele>
        <time>2026-07-08T10:17:52.000Z</time>
      </trkpt>
      <trkpt lat="45.78303" lon="1.87619">
        <ele>714.3</ele>
        <time>2026-07-08T10:17:53.000Z</time>
      </trkpt>
      <trkpt lat="45.78304" lon="1.8762">
        <ele>714.1</ele>
        <time>2026-07-08T10:17:54.000Z</time>
      </trkpt>
      <trkpt lat="45.78306" lon="1.87622">
        <ele>713.5</ele>
        <time>2026-07-08T10:17:55.000Z</time>
      </trkpt>
      <trkpt lat="45.78307" lon="1.87623">
        <ele>713.4</ele>
        <time>2026-07-08T10:17:56.000Z</time>
      </trkpt>
      <trkpt lat="45.78308" lon="1.87624">
        <ele>713.7</ele>
        <time>2026-07-08T10:17:57.000Z</time>
      </trkpt>
      <trkpt lat="45.78309" lon="1.87626">
        <ele>714.5</ele>
        <time>2026-07-08T10:17:58.000Z</time>
      </trkpt>
      <trkpt lat="45.78311" lon="1.87627">
        <ele>714.6</ele>
        <time>2026-07-08T10:17:59.000Z</time>
      </trkpt>
      <trkpt lat="45.78312" lon="1.87629">
        <ele>714.8</ele>
        <time>2026-07-08T10:18:00.000Z</time>
      </trkpt>
      <trkpt lat="45.78313" lon="1.8763">
        <ele>714.8</ele>
        <time>2026-07-08T10:18:01.000Z</time>
      </trkpt>
      <trkpt lat="45.78315" lon="1.87631">
        <ele>714.8</ele>
        <time>2026-07-08T10:18:02.000Z</time>
      </trkpt>
      <trkpt lat="45.78316" lon="1.87632">
        <ele>715</ele>
        <time>2026-07-08T10:18:03.000Z</time>
      </trkpt>
      <trkpt lat="45.78318" lon="1.87634">
        <ele>714.7</ele>
        <time>2026-07-08T10:18:04.000Z</time>
      </trkpt>
      <trkpt lat="45.78319" lon="1.87635">
        <ele>714.2</ele>
        <time>2026-07-08T10:18:05.000Z</time>
      </trkpt>
      <trkpt lat="45.7832" lon="1.87637">
        <ele>714</ele>
        <time>2026-07-08T10:18:06.000Z</time>
      </trkpt>
      <trkpt lat="45.78321" lon="1.87638">
        <ele>713.5</ele>
        <time>2026-07-08T10:18:07.000Z</time>
      </trkpt>
      <trkpt lat="45.78323" lon="1.87639">
        <ele>714.3</ele>
        <time>2026-07-08T10:18:08.000Z</time>
      </trkpt>
      <trkpt lat="45.78325" lon="1.8764">
        <ele>713.7</ele>
        <time>2026-07-08T10:18:09.000Z</time>
      </trkpt>
      <trkpt lat="45.78327" lon="1.87641">
        <ele>713.5</ele>
        <time>2026-07-08T10:18:10.000Z</time>
      </trkpt>
      <trkpt lat="45.78328" lon="1.87642">
        <ele>713.3</ele>
        <time>2026-07-08T10:18:11.000Z</time>
      </trkpt>
      <trkpt lat="45.7833" lon="1.87643">
        <ele>713</ele>
        <time>2026-07-08T10:18:12.000Z</time>
      </trkpt>
      <trkpt lat="45.78331" lon="1.87644">
        <ele>712.7</ele>
        <time>2026-07-08T10:18:13.000Z</time>
      </trkpt>
      <trkpt lat="45.78332" lon="1.87646">
        <ele>712.3</ele>
        <time>2026-07-08T10:18:14.000Z</time>
      </trkpt>
      <trkpt lat="45.78333" lon="1.87647">
        <ele>712</ele>
        <time>2026-07-08T10:18:15.000Z</time>
      </trkpt>
      <trkpt lat="45.78335" lon="1.87648">
        <ele>712.2</ele>
        <time>2026-07-08T10:18:16.000Z</time>
      </trkpt>
      <trkpt lat="45.78336" lon="1.8765">
        <ele>711.8</ele>
        <time>2026-07-08T10:18:17.000Z</time>
      </trkpt>
      <trkpt lat="45.78337" lon="1.87652">
        <ele>712.6</ele>
        <time>2026-07-08T10:18:18.000Z</time>
      </trkpt>
      <trkpt lat="45.78337" lon="1.87653">
        <ele>712.3</ele>
        <time>2026-07-08T10:18:19.000Z</time>
      </trkpt>
      <trkpt lat="45.78338" lon="1.87655">
        <ele>713</ele>
        <time>2026-07-08T10:18:20.000Z</time>
      </trkpt>
      <trkpt lat="45.78339" lon="1.87656">
        <ele>712.5</ele>
        <time>2026-07-08T10:18:21.000Z</time>
      </trkpt>
      <trkpt lat="45.78341" lon="1.87656">
        <ele>711.8</ele>
        <time>2026-07-08T10:18:22.000Z</time>
      </trkpt>
      <trkpt lat="45.78342" lon="1.87655">
        <ele>710.8</ele>
        <time>2026-07-08T10:18:23.000Z</time>
      </trkpt>
      <trkpt lat="45.78343" lon="1.87656">
        <ele>711.1</ele>
        <time>2026-07-08T10:18:24.000Z</time>
      </trkpt>
      <trkpt lat="45.78345" lon="1.87658">
        <ele>711.6</ele>
        <time>2026-07-08T10:18:25.000Z</time>
      </trkpt>
      <trkpt lat="45.78347" lon="1.87659">
        <ele>710.6</ele>
        <time>2026-07-08T10:18:26.000Z</time>
      </trkpt>
      <trkpt lat="45.78348" lon="1.8766">
        <ele>710.4</ele>
        <time>2026-07-08T10:18:27.000Z</time>
      </trkpt>
      <trkpt lat="45.78349" lon="1.87661">
        <ele>709.9</ele>
        <time>2026-07-08T10:18:28.000Z</time>
      </trkpt>
      <trkpt lat="45.78351" lon="1.87662">
        <ele>709.7</ele>
        <time>2026-07-08T10:18:29.000Z</time>
      </trkpt>
      <trkpt lat="45.78352" lon="1.87663">
        <ele>709.7</ele>
        <time>2026-07-08T10:18:30.000Z</time>
      </trkpt>
      <trkpt lat="45.78353" lon="1.87665">
        <ele>709.6</ele>
        <time>2026-07-08T10:18:31.000Z</time>
      </trkpt>
      <trkpt lat="45.78353" lon="1.87666">
        <ele>709.2</ele>
        <time>2026-07-08T10:18:32.000Z</time>
      </trkpt>
      <trkpt lat="45.78353" lon="1.87668">
        <ele>708.7</ele>
        <time>2026-07-08T10:18:33.000Z</time>
      </trkpt>
      <trkpt lat="45.78353" lon="1.8767">
        <ele>708.8</ele>
        <time>2026-07-08T10:18:34.000Z</time>
      </trkpt>
      <trkpt lat="45.78353" lon="1.87672">
        <ele>708.5</ele>
        <time>2026-07-08T10:18:35.000Z</time>
      </trkpt>
      <trkpt lat="45.78353" lon="1.87675">
        <ele>708.7</ele>
        <time>2026-07-08T10:18:36.000Z</time>
      </trkpt>
      <trkpt lat="45.78352" lon="1.87677">
        <ele>708.8</ele>
        <time>2026-07-08T10:18:37.000Z</time>
      </trkpt>
      <trkpt lat="45.78351" lon="1.87679">
        <ele>709.1</ele>
        <time>2026-07-08T10:18:38.000Z</time>
      </trkpt>
      <trkpt lat="45.78351" lon="1.87681">
        <ele>709.1</ele>
        <time>2026-07-08T10:18:39.000Z</time>
      </trkpt>
      <trkpt lat="45.7835" lon="1.87683">
        <ele>709.1</ele>
        <time>2026-07-08T10:18:40.000Z</time>
      </trkpt>
      <trkpt lat="45.78349" lon="1.87685">
        <ele>708.9</ele>
        <time>2026-07-08T10:18:41.000Z</time>
      </trkpt>
      <trkpt lat="45.78349" lon="1.87687">
        <ele>709.1</ele>
        <time>2026-07-08T10:18:42.000Z</time>
      </trkpt>
      <trkpt lat="45.78348" lon="1.8769">
        <ele>709.3</ele>
        <time>2026-07-08T10:18:43.000Z</time>
      </trkpt>
      <trkpt lat="45.78348" lon="1.87693">
        <ele>709.2</ele>
        <time>2026-07-08T10:18:44.000Z</time>
      </trkpt>
      <trkpt lat="45.78347" lon="1.87695">
        <ele>709.4</ele>
        <time>2026-07-08T10:18:45.000Z</time>
      </trkpt>
      <trkpt lat="45.78347" lon="1.87698">
        <ele>709.7</ele>
        <time>2026-07-08T10:18:46.000Z</time>
      </trkpt>
      <trkpt lat="45.78346" lon="1.87701">
        <ele>709.7</ele>
        <time>2026-07-08T10:18:47.000Z</time>
      </trkpt>
      <trkpt lat="45.78345" lon="1.87704">
        <ele>709.9</ele>
        <time>2026-07-08T10:18:48.000Z</time>
      </trkpt>
      <trkpt lat="45.78345" lon="1.87708">
        <ele>710.4</ele>
        <time>2026-07-08T10:18:49.000Z</time>
      </trkpt>
      <trkpt lat="45.78345" lon="1.87711">
        <ele>710.5</ele>
        <time>2026-07-08T10:18:50.000Z</time>
      </trkpt>
      <trkpt lat="45.78344" lon="1.87714">
        <ele>710.2</ele>
        <time>2026-07-08T10:18:51.000Z</time>
      </trkpt>
      <trkpt lat="45.78343" lon="1.87717">
        <ele>710.5</ele>
        <time>2026-07-08T10:18:52.000Z</time>
      </trkpt>
      <trkpt lat="45.78343" lon="1.87719">
        <ele>710.4</ele>
        <time>2026-07-08T10:18:53.000Z</time>
      </trkpt>
      <trkpt lat="45.78342" lon="1.87721">
        <ele>710.5</ele>
        <time>2026-07-08T10:18:54.000Z</time>
      </trkpt>
      <trkpt lat="45.78341" lon="1.87724">
        <ele>710.9</ele>
        <time>2026-07-08T10:18:55.000Z</time>
      </trkpt>
      <trkpt lat="45.78341" lon="1.87726">
        <ele>710.5</ele>
        <time>2026-07-08T10:18:56.000Z</time>
      </trkpt>
      <trkpt lat="45.78341" lon="1.87728">
        <ele>710.6</ele>
        <time>2026-07-08T10:18:57.000Z</time>
      </trkpt>
      <trkpt lat="45.78341" lon="1.8773">
        <ele>710.7</ele>
        <time>2026-07-08T10:18:58.000Z</time>
      </trkpt>
      <trkpt lat="45.7834" lon="1.87732">
        <ele>711.2</ele>
        <time>2026-07-08T10:18:59.000Z</time>
      </trkpt>
      <trkpt lat="45.7834" lon="1.87735">
        <ele>711.2</ele>
        <time>2026-07-08T10:19:00.000Z</time>
      </trkpt>
      <trkpt lat="45.78339" lon="1.87738">
        <ele>712.3</ele>
        <time>2026-07-08T10:19:01.000Z</time>
      </trkpt>
      <trkpt lat="45.78338" lon="1.87741">
        <ele>712.5</ele>
        <time>2026-07-08T10:19:02.000Z</time>
      </trkpt>
      <trkpt lat="45.78338" lon="1.87745">
        <ele>713.4</ele>
        <time>2026-07-08T10:19:03.000Z</time>
      </trkpt>
      <trkpt lat="45.78337" lon="1.87749">
        <ele>714.7</ele>
        <time>2026-07-08T10:19:04.000Z</time>
      </trkpt>
      <trkpt lat="45.78336" lon="1.87753">
        <ele>714.8</ele>
        <time>2026-07-08T10:19:05.000Z</time>
      </trkpt>
      <trkpt lat="45.78336" lon="1.87755">
        <ele>715.8</ele>
        <time>2026-07-08T10:19:06.000Z</time>
      </trkpt>
      <trkpt lat="45.78336" lon="1.87758">
        <ele>715.2</ele>
        <time>2026-07-08T10:19:07.000Z</time>
      </trkpt>
      <trkpt lat="45.78335" lon="1.87761">
        <ele>715.3</ele>
        <time>2026-07-08T10:19:08.000Z</time>
      </trkpt>
      <trkpt lat="45.78335" lon="1.87764">
        <ele>715.1</ele>
        <time>2026-07-08T10:19:09.000Z</time>
      </trkpt>
      <trkpt lat="45.78335" lon="1.87767">
        <ele>715.7</ele>
        <time>2026-07-08T10:19:10.000Z</time>
      </trkpt>
      <trkpt lat="45.78334" lon="1.87769">
        <ele>716.8</ele>
        <time>2026-07-08T10:19:11.000Z</time>
      </trkpt>
      <trkpt lat="45.78334" lon="1.87771">
        <ele>717.6</ele>
        <time>2026-07-08T10:19:12.000Z</time>
      </trkpt>
      <trkpt lat="45.78334" lon="1.87773">
        <ele>718</ele>
        <time>2026-07-08T10:19:13.000Z</time>
      </trkpt>
      <trkpt lat="45.78333" lon="1.87775">
        <ele>717.9</ele>
        <time>2026-07-08T10:19:14.000Z</time>
      </trkpt>
      <trkpt lat="45.78333" lon="1.87777">
        <ele>717.8</ele>
        <time>2026-07-08T10:19:15.000Z</time>
      </trkpt>
      <trkpt lat="45.78333" lon="1.87779">
        <ele>718.4</ele>
        <time>2026-07-08T10:19:16.000Z</time>
      </trkpt>
      <trkpt lat="45.78333" lon="1.87781">
        <ele>718.2</ele>
        <time>2026-07-08T10:19:17.000Z</time>
      </trkpt>
      <trkpt lat="45.78333" lon="1.87783">
        <ele>718.7</ele>
        <time>2026-07-08T10:19:18.000Z</time>
      </trkpt>
      <trkpt lat="45.78333" lon="1.87785">
        <ele>718.9</ele>
        <time>2026-07-08T10:19:19.000Z</time>
      </trkpt>
      <trkpt lat="45.78334" lon="1.87786">
        <ele>719.2</ele>
        <time>2026-07-08T10:19:20.000Z</time>
      </trkpt>
      <trkpt lat="45.78334" lon="1.87788">
        <ele>719.1</ele>
        <time>2026-07-08T10:19:21.000Z</time>
      </trkpt>
      <trkpt lat="45.78334" lon="1.8779">
        <ele>718.6</ele>
        <time>2026-07-08T10:19:22.000Z</time>
      </trkpt>
      <trkpt lat="45.78334" lon="1.87792">
        <ele>718</ele>
        <time>2026-07-08T10:19:23.000Z</time>
      </trkpt>
      <trkpt lat="45.78335" lon="1.87793">
        <ele>718</ele>
        <time>2026-07-08T10:19:24.000Z</time>
      </trkpt>
      <trkpt lat="45.78335" lon="1.87795">
        <ele>717.7</ele>
        <time>2026-07-08T10:19:25.000Z</time>
      </trkpt>
      <trkpt lat="45.78335" lon="1.87797">
        <ele>719.1</ele>
        <time>2026-07-08T10:19:26.000Z</time>
      </trkpt>
      <trkpt lat="45.78335" lon="1.87799">
        <ele>718.6</ele>
        <time>2026-07-08T10:19:27.000Z</time>
      </trkpt>
      <trkpt lat="45.78335" lon="1.878">
        <ele>718.8</ele>
        <time>2026-07-08T10:19:28.000Z</time>
      </trkpt>
      <trkpt lat="45.78335" lon="1.87801">
        <ele>718.3</ele>
        <time>2026-07-08T10:19:29.000Z</time>
      </trkpt>
      <trkpt lat="45.78336" lon="1.87803">
        <ele>717.9</ele>
        <time>2026-07-08T10:19:30.000Z</time>
      </trkpt>
      <trkpt lat="45.78336" lon="1.87805">
        <ele>718.4</ele>
        <time>2026-07-08T10:19:31.000Z</time>
      </trkpt>
      <trkpt lat="45.78336" lon="1.87806">
        <ele>718.5</ele>
        <time>2026-07-08T10:19:32.000Z</time>
      </trkpt>
      <trkpt lat="45.78336" lon="1.87807">
        <ele>718</ele>
        <time>2026-07-08T10:19:33.000Z</time>
      </trkpt>
      <trkpt lat="45.78337" lon="1.87809">
        <ele>718.2</ele>
        <time>2026-07-08T10:19:34.000Z</time>
      </trkpt>
      <trkpt lat="45.78338" lon="1.87811">
        <ele>718</ele>
        <time>2026-07-08T10:19:35.000Z</time>
      </trkpt>
      <trkpt lat="45.78339" lon="1.87812">
        <ele>717.9</ele>
        <time>2026-07-08T10:19:36.000Z</time>
      </trkpt>
      <trkpt lat="45.7834" lon="1.87814">
        <ele>717.3</ele>
        <time>2026-07-08T10:19:37.000Z</time>
      </trkpt>
      <trkpt lat="45.78341" lon="1.87816">
        <ele>717</ele>
        <time>2026-07-08T10:19:38.000Z</time>
      </trkpt>
      <trkpt lat="45.78341" lon="1.87818">
        <ele>716.6</ele>
        <time>2026-07-08T10:19:39.000Z</time>
      </trkpt>
      <trkpt lat="45.78342" lon="1.8782">
        <ele>716</ele>
        <time>2026-07-08T10:19:40.000Z</time>
      </trkpt>
      <trkpt lat="45.78342" lon="1.87822">
        <ele>715.3</ele>
        <time>2026-07-08T10:19:41.000Z</time>
      </trkpt>
      <trkpt lat="45.78343" lon="1.87823">
        <ele>714.6</ele>
        <time>2026-07-08T10:19:42.000Z</time>
      </trkpt>
      <trkpt lat="45.78343" lon="1.87824">
        <ele>715.1</ele>
        <time>2026-07-08T10:19:43.000Z</time>
      </trkpt>
      <trkpt lat="45.78343" lon="1.87826">
        <ele>715.1</ele>
        <time>2026-07-08T10:19:44.000Z</time>
      </trkpt>
      <trkpt lat="45.78344" lon="1.87828">
        <ele>715.1</ele>
        <time>2026-07-08T10:19:45.000Z</time>
      </trkpt>
      <trkpt lat="45.78345" lon="1.8783">
        <ele>714.6</ele>
        <time>2026-07-08T10:19:46.000Z</time>
      </trkpt>
      <trkpt lat="45.78346" lon="1.87831">
        <ele>713.8</ele>
        <time>2026-07-08T10:19:47.000Z</time>
      </trkpt>
      <trkpt lat="45.78347" lon="1.87833">
        <ele>713.7</ele>
        <time>2026-07-08T10:19:48.000Z</time>
      </trkpt>
      <trkpt lat="45.78348" lon="1.87836">
        <ele>713.2</ele>
        <time>2026-07-08T10:19:49.000Z</time>
      </trkpt>
      <trkpt lat="45.78349" lon="1.87838">
        <ele>713</ele>
        <time>2026-07-08T10:19:50.000Z</time>
      </trkpt>
      <trkpt lat="45.7835" lon="1.8784">
        <ele>712.6</ele>
        <time>2026-07-08T10:19:51.000Z</time>
      </trkpt>
      <trkpt lat="45.7835" lon="1.87841">
        <ele>712.3</ele>
        <time>2026-07-08T10:19:52.000Z</time>
      </trkpt>
      <trkpt lat="45.78351" lon="1.87844">
        <ele>714</ele>
        <time>2026-07-08T10:19:53.000Z</time>
      </trkpt>
      <trkpt lat="45.78352" lon="1.87847">
        <ele>714.9</ele>
        <time>2026-07-08T10:19:54.000Z</time>
      </trkpt>
      <trkpt lat="45.78353" lon="1.87849">
        <ele>714.7</ele>
        <time>2026-07-08T10:19:55.000Z</time>
      </trkpt>
      <trkpt lat="45.78354" lon="1.87851">
        <ele>713.5</ele>
        <time>2026-07-08T10:19:56.000Z</time>
      </trkpt>
      <trkpt lat="45.78355" lon="1.87853">
        <ele>713.9</ele>
        <time>2026-07-08T10:19:57.000Z</time>
      </trkpt>
      <trkpt lat="45.78355" lon="1.87855">
        <ele>712.2</ele>
        <time>2026-07-08T10:19:58.000Z</time>
      </trkpt>
      <trkpt lat="45.78356" lon="1.87857">
        <ele>711.7</ele>
        <time>2026-07-08T10:19:59.000Z</time>
      </trkpt>
      <trkpt lat="45.78356" lon="1.8786">
        <ele>711.5</ele>
        <time>2026-07-08T10:20:00.000Z</time>
      </trkpt>
      <trkpt lat="45.78357" lon="1.87861">
        <ele>711.3</ele>
        <time>2026-07-08T10:20:01.000Z</time>
      </trkpt>
      <trkpt lat="45.78357" lon="1.87864">
        <ele>711</ele>
        <time>2026-07-08T10:20:02.000Z</time>
      </trkpt>
      <trkpt lat="45.78357" lon="1.87866">
        <ele>710.6</ele>
        <time>2026-07-08T10:20:03.000Z</time>
      </trkpt>
      <trkpt lat="45.78357" lon="1.87868">
        <ele>710.9</ele>
        <time>2026-07-08T10:20:04.000Z</time>
      </trkpt>
      <trkpt lat="45.78357" lon="1.87871">
        <ele>711.2</ele>
        <time>2026-07-08T10:20:05.000Z</time>
      </trkpt>
      <trkpt lat="45.78357" lon="1.87873">
        <ele>711.3</ele>
        <time>2026-07-08T10:20:06.000Z</time>
      </trkpt>
      <trkpt lat="45.78357" lon="1.87875">
        <ele>711.5</ele>
        <time>2026-07-08T10:20:07.000Z</time>
      </trkpt>
      <trkpt lat="45.78357" lon="1.87878">
        <ele>711.1</ele>
        <time>2026-07-08T10:20:08.000Z</time>
      </trkpt>
      <trkpt lat="45.78357" lon="1.8788">
        <ele>712.1</ele>
        <time>2026-07-08T10:20:09.000Z</time>
      </trkpt>
      <trkpt lat="45.78357" lon="1.87882">
        <ele>712.3</ele>
        <time>2026-07-08T10:20:10.000Z</time>
      </trkpt>
      <trkpt lat="45.78357" lon="1.87884">
        <ele>712.3</ele>
        <time>2026-07-08T10:20:11.000Z</time>
      </trkpt>
      <trkpt lat="45.78357" lon="1.87887">
        <ele>714.5</ele>
        <time>2026-07-08T10:20:12.000Z</time>
      </trkpt>
      <trkpt lat="45.78357" lon="1.87889">
        <ele>714</ele>
        <time>2026-07-08T10:20:13.000Z</time>
      </trkpt>
      <trkpt lat="45.78357" lon="1.87892">
        <ele>714.2</ele>
        <time>2026-07-08T10:20:14.000Z</time>
      </trkpt>
      <trkpt lat="45.78357" lon="1.87895">
        <ele>714.2</ele>
        <time>2026-07-08T10:20:15.000Z</time>
      </trkpt>
      <trkpt lat="45.78357" lon="1.87897">
        <ele>714.1</ele>
        <time>2026-07-08T10:20:16.000Z</time>
      </trkpt>
      <trkpt lat="45.78356" lon="1.87899">
        <ele>714.1</ele>
        <time>2026-07-08T10:20:17.000Z</time>
      </trkpt>
      <trkpt lat="45.78357" lon="1.87902">
        <ele>713.4</ele>
        <time>2026-07-08T10:20:18.000Z</time>
      </trkpt>
      <trkpt lat="45.78356" lon="1.87904">
        <ele>713.1</ele>
        <time>2026-07-08T10:20:19.000Z</time>
      </trkpt>
      <trkpt lat="45.78356" lon="1.87906">
        <ele>712.8</ele>
        <time>2026-07-08T10:20:20.000Z</time>
      </trkpt>
      <trkpt lat="45.78355" lon="1.87908">
        <ele>712.9</ele>
        <time>2026-07-08T10:20:21.000Z</time>
      </trkpt>
      <trkpt lat="45.78355" lon="1.87909">
        <ele>713.5</ele>
        <time>2026-07-08T10:20:22.000Z</time>
      </trkpt>
      <trkpt lat="45.78355" lon="1.87911">
        <ele>713.8</ele>
        <time>2026-07-08T10:20:23.000Z</time>
      </trkpt>
      <trkpt lat="45.78354" lon="1.87913">
        <ele>713.1</ele>
        <time>2026-07-08T10:20:24.000Z</time>
      </trkpt>
      <trkpt lat="45.78353" lon="1.87915">
        <ele>712.6</ele>
        <time>2026-07-08T10:20:25.000Z</time>
      </trkpt>
      <trkpt lat="45.78353" lon="1.87917">
        <ele>712.4</ele>
        <time>2026-07-08T10:20:26.000Z</time>
      </trkpt>
      <trkpt lat="45.78352" lon="1.87919">
        <ele>712.2</ele>
        <time>2026-07-08T10:20:27.000Z</time>
      </trkpt>
      <trkpt lat="45.78352" lon="1.8792">
        <ele>711.9</ele>
        <time>2026-07-08T10:20:28.000Z</time>
      </trkpt>
      <trkpt lat="45.78351" lon="1.87922">
        <ele>712.3</ele>
        <time>2026-07-08T10:20:29.000Z</time>
      </trkpt>
      <trkpt lat="45.78351" lon="1.87923">
        <ele>712.4</ele>
        <time>2026-07-08T10:20:30.000Z</time>
      </trkpt>
      <trkpt lat="45.7835" lon="1.87925">
        <ele>712.6</ele>
        <time>2026-07-08T10:20:31.000Z</time>
      </trkpt>
      <trkpt lat="45.7835" lon="1.87927">
        <ele>713.8</ele>
        <time>2026-07-08T10:20:32.000Z</time>
      </trkpt>
      <trkpt lat="45.78351" lon="1.87929">
        <ele>711.8</ele>
        <time>2026-07-08T10:20:33.000Z</time>
      </trkpt>
      <trkpt lat="45.78351" lon="1.8793">
        <ele>711.8</ele>
        <time>2026-07-08T10:20:34.000Z</time>
      </trkpt>
      <trkpt lat="45.78351" lon="1.87931">
        <ele>711.5</ele>
        <time>2026-07-08T10:20:35.000Z</time>
      </trkpt>
      <trkpt lat="45.78351" lon="1.87933">
        <ele>712</ele>
        <time>2026-07-08T10:20:36.000Z</time>
      </trkpt>
      <trkpt lat="45.78351" lon="1.87936">
        <ele>712.5</ele>
        <time>2026-07-08T10:20:37.000Z</time>
      </trkpt>
      <trkpt lat="45.7835" lon="1.87938">
        <ele>712.3</ele>
        <time>2026-07-08T10:20:38.000Z</time>
      </trkpt>
      <trkpt lat="45.78349" lon="1.87939">
        <ele>709.3</ele>
        <time>2026-07-08T10:20:39.000Z</time>
      </trkpt>
      <trkpt lat="45.78349" lon="1.87942">
        <ele>709.1</ele>
        <time>2026-07-08T10:20:40.000Z</time>
      </trkpt>
      <trkpt lat="45.78349" lon="1.87944">
        <ele>708.9</ele>
        <time>2026-07-08T10:20:41.000Z</time>
      </trkpt>
      <trkpt lat="45.78348" lon="1.87947">
        <ele>709.1</ele>
        <time>2026-07-08T10:20:42.000Z</time>
      </trkpt>
      <trkpt lat="45.78349" lon="1.87949">
        <ele>708</ele>
        <time>2026-07-08T10:20:43.000Z</time>
      </trkpt>
      <trkpt lat="45.78349" lon="1.87951">
        <ele>707.5</ele>
        <time>2026-07-08T10:20:44.000Z</time>
      </trkpt>
      <trkpt lat="45.78349" lon="1.87953">
        <ele>706.9</ele>
        <time>2026-07-08T10:20:45.000Z</time>
      </trkpt>
      <trkpt lat="45.7835" lon="1.87955">
        <ele>706.7</ele>
        <time>2026-07-08T10:20:46.000Z</time>
      </trkpt>
      <trkpt lat="45.7835" lon="1.87957">
        <ele>706.6</ele>
        <time>2026-07-08T10:20:47.000Z</time>
      </trkpt>
      <trkpt lat="45.7835" lon="1.87959">
        <ele>706</ele>
        <time>2026-07-08T10:20:48.000Z</time>
      </trkpt>
      <trkpt lat="45.78351" lon="1.87962">
        <ele>706.2</ele>
        <time>2026-07-08T10:20:49.000Z</time>
      </trkpt>
      <trkpt lat="45.78351" lon="1.87964">
        <ele>705.5</ele>
        <time>2026-07-08T10:20:50.000Z</time>
      </trkpt>
      <trkpt lat="45.7835" lon="1.87966">
        <ele>705.6</ele>
        <time>2026-07-08T10:20:51.000Z</time>
      </trkpt>
      <trkpt lat="45.78349" lon="1.87969">
        <ele>705.1</ele>
        <time>2026-07-08T10:20:52.000Z</time>
      </trkpt>
      <trkpt lat="45.78349" lon="1.87971">
        <ele>705.2</ele>
        <time>2026-07-08T10:20:53.000Z</time>
      </trkpt>
      <trkpt lat="45.78348" lon="1.87973">
        <ele>704.9</ele>
        <time>2026-07-08T10:20:54.000Z</time>
      </trkpt>
      <trkpt lat="45.78348" lon="1.87975">
        <ele>704.5</ele>
        <time>2026-07-08T10:20:55.000Z</time>
      </trkpt>
      <trkpt lat="45.78347" lon="1.87977">
        <ele>705.5</ele>
        <time>2026-07-08T10:20:56.000Z</time>
      </trkpt>
      <trkpt lat="45.78347" lon="1.87979">
        <ele>705.4</ele>
        <time>2026-07-08T10:20:57.000Z</time>
      </trkpt>
      <trkpt lat="45.78346" lon="1.87981">
        <ele>704.8</ele>
        <time>2026-07-08T10:20:58.000Z</time>
      </trkpt>
      <trkpt lat="45.78345" lon="1.87982">
        <ele>705.4</ele>
        <time>2026-07-08T10:20:59.000Z</time>
      </trkpt>
      <trkpt lat="45.78345" lon="1.87984">
        <ele>706.4</ele>
        <time>2026-07-08T10:21:00.000Z</time>
      </trkpt>
      <trkpt lat="45.78346" lon="1.87986">
        <ele>706.7</ele>
        <time>2026-07-08T10:21:01.000Z</time>
      </trkpt>
      <trkpt lat="45.78345" lon="1.87988">
        <ele>707.1</ele>
        <time>2026-07-08T10:21:02.000Z</time>
      </trkpt>
      <trkpt lat="45.78344" lon="1.8799">
        <ele>707.2</ele>
        <time>2026-07-08T10:21:03.000Z</time>
      </trkpt>
      <trkpt lat="45.78344" lon="1.87992">
        <ele>707.1</ele>
        <time>2026-07-08T10:21:04.000Z</time>
      </trkpt>
      <trkpt lat="45.78345" lon="1.87984">
        <ele>700.5</ele>
        <time>2026-07-08T10:21:05.000Z</time>
      </trkpt>
      <trkpt lat="45.78345" lon="1.87982">
        <ele>700.5</ele>
        <time>2026-07-08T10:21:06.000Z</time>
      </trkpt>
      <trkpt lat="45.78345" lon="1.87981">
        <ele>700.5</ele>
        <time>2026-07-08T10:21:07.000Z</time>
      </trkpt>
      <trkpt lat="45.78345" lon="1.87981">
        <ele>700.5</ele>
        <time>2026-07-08T10:21:08.000Z</time>
      </trkpt>
      <trkpt lat="45.78345" lon="1.87982">
        <ele>700.6</ele>
        <time>2026-07-08T10:21:09.000Z</time>
      </trkpt>
      <trkpt lat="45.78345" lon="1.87982">
        <ele>702.5</ele>
        <time>2026-07-08T10:21:10.000Z</time>
      </trkpt>
      <trkpt lat="45.78345" lon="1.87983">
        <ele>703.4</ele>
        <time>2026-07-08T10:21:11.000Z</time>
      </trkpt>
      <trkpt lat="45.78346" lon="1.87983">
        <ele>706.1</ele>
        <time>2026-07-08T10:21:12.000Z</time>
      </trkpt>
      <trkpt lat="45.78346" lon="1.87983">
        <ele>706.5</ele>
        <time>2026-07-08T10:21:13.000Z</time>
      </trkpt>
      <trkpt lat="45.78346" lon="1.87984">
        <ele>706.9</ele>
        <time>2026-07-08T10:21:14.000Z</time>
      </trkpt>
      <trkpt lat="45.78346" lon="1.87985">
        <ele>706.7</ele>
        <time>2026-07-08T10:21:15.000Z</time>
      </trkpt>
      <trkpt lat="45.78344" lon="1.87986">
        <ele>709.7</ele>
        <time>2026-07-08T10:21:16.000Z</time>
      </trkpt>
      <trkpt lat="45.78341" lon="1.87987">
        <ele>711.6</ele>
        <time>2026-07-08T10:21:17.000Z</time>
      </trkpt>
      <trkpt lat="45.78342" lon="1.87991">
        <ele>711.5</ele>
        <time>2026-07-08T10:21:18.000Z</time>
      </trkpt>
      <trkpt lat="45.78343" lon="1.87994">
        <ele>711.6</ele>
        <time>2026-07-08T10:21:19.000Z</time>
      </trkpt>
      <trkpt lat="45.78342" lon="1.87996">
        <ele>711.5</ele>
        <time>2026-07-08T10:21:20.000Z</time>
      </trkpt>
      <trkpt lat="45.78341" lon="1.87997">
        <ele>712.6</ele>
        <time>2026-07-08T10:21:21.000Z</time>
      </trkpt>
      <trkpt lat="45.78341" lon="1.87999">
        <ele>713.2</ele>
        <time>2026-07-08T10:21:22.000Z</time>
      </trkpt>
      <trkpt lat="45.7834" lon="1.88001">
        <ele>713.6</ele>
        <time>2026-07-08T10:21:23.000Z</time>
      </trkpt>
      <trkpt lat="45.78341" lon="1.88003">
        <ele>714</ele>
        <time>2026-07-08T10:21:24.000Z</time>
      </trkpt>
      <trkpt lat="45.78341" lon="1.88005">
        <ele>713.8</ele>
        <time>2026-07-08T10:21:25.000Z</time>
      </trkpt>
      <trkpt lat="45.78341" lon="1.88007">
        <ele>714</ele>
        <time>2026-07-08T10:21:26.000Z</time>
      </trkpt>
      <trkpt lat="45.78342" lon="1.88008">
        <ele>713.8</ele>
        <time>2026-07-08T10:21:27.000Z</time>
      </trkpt>
      <trkpt lat="45.78342" lon="1.8801">
        <ele>713.3</ele>
        <time>2026-07-08T10:21:28.000Z</time>
      </trkpt>
      <trkpt lat="45.78342" lon="1.88012">
        <ele>712.5</ele>
        <time>2026-07-08T10:21:29.000Z</time>
      </trkpt>
      <trkpt lat="45.78343" lon="1.88014">
        <ele>711</ele>
        <time>2026-07-08T10:21:30.000Z</time>
      </trkpt>
      <trkpt lat="45.78344" lon="1.88016">
        <ele>710.2</ele>
        <time>2026-07-08T10:21:31.000Z</time>
      </trkpt>
      <trkpt lat="45.78344" lon="1.88018">
        <ele>709.8</ele>
        <time>2026-07-08T10:21:32.000Z</time>
      </trkpt>
      <trkpt lat="45.78345" lon="1.8802">
        <ele>709.8</ele>
        <time>2026-07-08T10:21:33.000Z</time>
      </trkpt>
      <trkpt lat="45.78345" lon="1.88022">
        <ele>709.9</ele>
        <time>2026-07-08T10:21:34.000Z</time>
      </trkpt>
      <trkpt lat="45.78345" lon="1.88024">
        <ele>709.7</ele>
        <time>2026-07-08T10:21:35.000Z</time>
      </trkpt>
      <trkpt lat="45.78346" lon="1.88027">
        <ele>710.1</ele>
        <time>2026-07-08T10:21:36.000Z</time>
      </trkpt>
      <trkpt lat="45.78346" lon="1.88029">
        <ele>710.2</ele>
        <time>2026-07-08T10:21:37.000Z</time>
      </trkpt>
      <trkpt lat="45.78346" lon="1.88032">
        <ele>710.5</ele>
        <time>2026-07-08T10:21:38.000Z</time>
      </trkpt>
      <trkpt lat="45.78346" lon="1.88034">
        <ele>710</ele>
        <time>2026-07-08T10:21:39.000Z</time>
      </trkpt>
      <trkpt lat="45.78346" lon="1.88036">
        <ele>709.6</ele>
        <time>2026-07-08T10:21:40.000Z</time>
      </trkpt>
      <trkpt lat="45.78346" lon="1.88038">
        <ele>709.1</ele>
        <time>2026-07-08T10:21:41.000Z</time>
      </trkpt>
      <trkpt lat="45.78346" lon="1.8804">
        <ele>709.3</ele>
        <time>2026-07-08T10:21:42.000Z</time>
      </trkpt>
      <trkpt lat="45.78347" lon="1.88042">
        <ele>710.2</ele>
        <time>2026-07-08T10:21:43.000Z</time>
      </trkpt>
      <trkpt lat="45.78348" lon="1.88043">
        <ele>710</ele>
        <time>2026-07-08T10:21:44.000Z</time>
      </trkpt>
      <trkpt lat="45.7835" lon="1.88045">
        <ele>710</ele>
        <time>2026-07-08T10:21:45.000Z</time>
      </trkpt>
      <trkpt lat="45.78351" lon="1.88047">
        <ele>708.7</ele>
        <time>2026-07-08T10:21:46.000Z</time>
      </trkpt>
      <trkpt lat="45.78352" lon="1.88046">
        <ele>708.6</ele>
        <time>2026-07-08T10:21:47.000Z</time>
      </trkpt>
      <trkpt lat="45.78351" lon="1.88044">
        <ele>709.1</ele>
        <time>2026-07-08T10:21:48.000Z</time>
      </trkpt>
      <trkpt lat="45.78352" lon="1.88044">
        <ele>709</ele>
        <time>2026-07-08T10:21:49.000Z</time>
      </trkpt>
      <trkpt lat="45.78352" lon="1.88044">
        <ele>709</ele>
        <time>2026-07-08T10:21:50.000Z</time>
      </trkpt>
      <trkpt lat="45.78352" lon="1.88044">
        <ele>709</ele>
        <time>2026-07-08T10:21:51.000Z</time>
      </trkpt>
      <trkpt lat="45.78352" lon="1.88044">
        <ele>709</ele>
        <time>2026-07-08T10:21:52.000Z</time>
      </trkpt>
      <trkpt lat="45.78352" lon="1.88044">
        <ele>709.5</ele>
        <time>2026-07-08T10:21:53.000Z</time>
      </trkpt>
      <trkpt lat="45.78352" lon="1.88045">
        <ele>709.1</ele>
        <time>2026-07-08T10:21:54.000Z</time>
      </trkpt>
      <trkpt lat="45.78352" lon="1.88045">
        <ele>709.1</ele>
        <time>2026-07-08T10:21:55.000Z</time>
      </trkpt>
      <trkpt lat="45.78352" lon="1.88045">
        <ele>709.1</ele>
        <time>2026-07-08T10:21:56.000Z</time>
      </trkpt>
      <trkpt lat="45.78352" lon="1.88046">
        <ele>709.1</ele>
        <time>2026-07-08T10:21:57.000Z</time>
      </trkpt>
      <trkpt lat="45.78351" lon="1.88046">
        <ele>709.1</ele>
        <time>2026-07-08T10:21:58.000Z</time>
      </trkpt>
      <trkpt lat="45.78351" lon="1.88046">
        <ele>709.1</ele>
        <time>2026-07-08T10:21:59.000Z</time>
      </trkpt>
      <trkpt lat="45.78351" lon="1.88046">
        <ele>709.1</ele>
        <time>2026-07-08T10:22:00.000Z</time>
      </trkpt>
      <trkpt lat="45.78351" lon="1.88046">
        <ele>709.1</ele>
        <time>2026-07-08T10:22:01.000Z</time>
      </trkpt>
      <trkpt lat="45.78351" lon="1.88046">
        <ele>709.1</ele>
        <time>2026-07-08T10:22:02.000Z</time>
      </trkpt>
      <trkpt lat="45.78351" lon="1.88047">
        <ele>709.1</ele>
        <time>2026-07-08T10:22:03.000Z</time>
      </trkpt>
      <trkpt lat="45.78351" lon="1.88047">
        <ele>708.9</ele>
        <time>2026-07-08T10:22:04.000Z</time>
      </trkpt>
      <trkpt lat="45.78354" lon="1.88047">
        <ele>707.3</ele>
        <time>2026-07-08T10:22:05.000Z</time>
      </trkpt>
      <trkpt lat="45.78353" lon="1.88047">
        <ele>707.3</ele>
        <time>2026-07-08T10:22:06.000Z</time>
      </trkpt>
      <trkpt lat="45.78353" lon="1.88047">
        <ele>707.4</ele>
        <time>2026-07-08T10:22:07.000Z</time>
      </trkpt>
      <trkpt lat="45.78353" lon="1.88047">
        <ele>707.4</ele>
        <time>2026-07-08T10:22:08.000Z</time>
      </trkpt>
      <trkpt lat="45.78353" lon="1.88047">
        <ele>707.4</ele>
        <time>2026-07-08T10:22:09.000Z</time>
      </trkpt>
      <trkpt lat="45.78353" lon="1.88047">
        <ele>707.4</ele>
        <time>2026-07-08T10:22:10.000Z</time>
      </trkpt>
      <trkpt lat="45.78353" lon="1.88047">
        <ele>707.4</ele>
        <time>2026-07-08T10:22:11.000Z</time>
      </trkpt>
      <trkpt lat="45.78353" lon="1.88047">
        <ele>707.4</ele>
        <time>2026-07-08T10:22:12.000Z</time>
      </trkpt>
      <trkpt lat="45.78353" lon="1.88047">
        <ele>707.4</ele>
        <time>2026-07-08T10:22:13.000Z</time>
      </trkpt>
      <trkpt lat="45.78353" lon="1.88047">
        <ele>707.4</ele>
        <time>2026-07-08T10:22:14.000Z</time>
      </trkpt>
      <trkpt lat="45.78353" lon="1.88047">
        <ele>707.4</ele>
        <time>2026-07-08T10:22:15.000Z</time>
      </trkpt>
      <trkpt lat="45.78353" lon="1.88047">
        <ele>707.1</ele>
        <time>2026-07-08T10:22:16.000Z</time>
      </trkpt>
      <trkpt lat="45.78353" lon="1.88047">
        <ele>707.1</ele>
        <time>2026-07-08T10:22:17.000Z</time>
      </trkpt>
      <trkpt lat="45.78352" lon="1.88048">
        <ele>707</ele>
        <time>2026-07-08T10:22:18.000Z</time>
      </trkpt>
      <trkpt lat="45.78351" lon="1.88048">
        <ele>707.6</ele>
        <time>2026-07-08T10:22:19.000Z</time>
      </trkpt>
      <trkpt lat="45.7835" lon="1.88048">
        <ele>708.9</ele>
        <time>2026-07-08T10:22:20.000Z</time>
      </trkpt>
      <trkpt lat="45.78349" lon="1.88048">
        <ele>708.7</ele>
        <time>2026-07-08T10:22:21.000Z</time>
      </trkpt>
      <trkpt lat="45.78349" lon="1.88048">
        <ele>708.9</ele>
        <time>2026-07-08T10:22:22.000Z</time>
      </trkpt>
      <trkpt lat="45.7835" lon="1.88048">
        <ele>708.7</ele>
        <time>2026-07-08T10:22:23.000Z</time>
      </trkpt>
      <trkpt lat="45.7835" lon="1.88047">
        <ele>708.7</ele>
        <time>2026-07-08T10:22:24.000Z</time>
      </trkpt>
      <trkpt lat="45.7835" lon="1.88047">
        <ele>708.7</ele>
        <time>2026-07-08T10:22:25.000Z</time>
      </trkpt>
      <trkpt lat="45.7835" lon="1.88047">
        <ele>708.8</ele>
        <time>2026-07-08T10:22:26.000Z</time>
      </trkpt>
      <trkpt lat="45.7835" lon="1.88047">
        <ele>708.8</ele>
        <time>2026-07-08T10:22:27.000Z</time>
      </trkpt>
      <trkpt lat="45.7835" lon="1.88047">
        <ele>708.6</ele>
        <time>2026-07-08T10:22:28.000Z</time>
      </trkpt>
      <trkpt lat="45.78351" lon="1.88048">
        <ele>708.2</ele>
        <time>2026-07-08T10:22:29.000Z</time>
      </trkpt>
      <trkpt lat="45.78351" lon="1.8805">
        <ele>707.5</ele>
        <time>2026-07-08T10:22:30.000Z</time>
      </trkpt>
      <trkpt lat="45.78352" lon="1.88051">
        <ele>707.5</ele>
        <time>2026-07-08T10:22:31.000Z</time>
      </trkpt>
      <trkpt lat="45.78353" lon="1.88052">
        <ele>707.3</ele>
        <time>2026-07-08T10:22:32.000Z</time>
      </trkpt>
      <trkpt lat="45.78353" lon="1.88053">
        <ele>708.2</ele>
        <time>2026-07-08T10:22:33.000Z</time>
      </trkpt>
      <trkpt lat="45.78352" lon="1.88055">
        <ele>708</ele>
        <time>2026-07-08T10:22:34.000Z</time>
      </trkpt>
      <trkpt lat="45.78353" lon="1.88056">
        <ele>707.5</ele>
        <time>2026-07-08T10:22:36.000Z</time>
      </trkpt>
      <trkpt lat="45.78354" lon="1.88056">
        <ele>708.2</ele>
        <time>2026-07-08T10:22:37.000Z</time>
      </trkpt>
      <trkpt lat="45.78355" lon="1.88056">
        <ele>708.5</ele>
        <time>2026-07-08T10:22:38.000Z</time>
      </trkpt>
      <trkpt lat="45.78355" lon="1.88055">
        <ele>708.5</ele>
        <time>2026-07-08T10:22:39.000Z</time>
      </trkpt>
      <trkpt lat="45.78355" lon="1.88055">
        <ele>708.5</ele>
        <time>2026-07-08T10:22:40.000Z</time>
      </trkpt>
      <trkpt lat="45.78355" lon="1.88055">
        <ele>708.5</ele>
        <time>2026-07-08T10:22:41.000Z</time>
      </trkpt>
      <trkpt lat="45.78355" lon="1.88053">
        <ele>708.1</ele>
        <time>2026-07-08T10:22:42.000Z</time>
      </trkpt>
      <trkpt lat="45.78355" lon="1.88051">
        <ele>709.3</ele>
        <time>2026-07-08T10:22:43.000Z</time>
      </trkpt>
      <trkpt lat="45.78355" lon="1.88051">
        <ele>709.2</ele>
        <time>2026-07-08T10:22:44.000Z</time>
      </trkpt>
      <trkpt lat="45.78355" lon="1.88051">
        <ele>709.2</ele>
        <time>2026-07-08T10:22:45.000Z</time>
      </trkpt>
      <trkpt lat="45.78355" lon="1.88051">
        <ele>709.2</ele>
        <time>2026-07-08T10:22:46.000Z</time>
      </trkpt>
      <trkpt lat="45.78355" lon="1.88051">
        <ele>709.2</ele>
        <time>2026-07-08T10:22:47.000Z</time>
      </trkpt>
      <trkpt lat="45.78356" lon="1.8805">
        <ele>709.7</ele>
        <time>2026-07-08T10:22:48.000Z</time>
      </trkpt>
      <trkpt lat="45.78356" lon="1.8805">
        <ele>709.8</ele>
        <time>2026-07-08T10:22:49.000Z</time>
      </trkpt>
      <trkpt lat="45.78357" lon="1.88049">
        <ele>709.4</ele>
        <time>2026-07-08T10:22:50.000Z</time>
      </trkpt>
      <trkpt lat="45.78358" lon="1.8805">
        <ele>709.9</ele>
        <time>2026-07-08T10:22:51.000Z</time>
      </trkpt>
      <trkpt lat="45.78358" lon="1.88052">
        <ele>710.8</ele>
        <time>2026-07-08T10:22:52.000Z</time>
      </trkpt>
      <trkpt lat="45.78358" lon="1.88054">
        <ele>710.5</ele>
        <time>2026-07-08T10:22:53.000Z</time>
      </trkpt>
      <trkpt lat="45.78358" lon="1.88054">
        <ele>710.5</ele>
        <time>2026-07-08T10:22:54.000Z</time>
      </trkpt>
      <trkpt lat="45.78358" lon="1.88056">
        <ele>710.9</ele>
        <time>2026-07-08T10:22:55.000Z</time>
      </trkpt>
      <trkpt lat="45.78358" lon="1.88057">
        <ele>711.3</ele>
        <time>2026-07-08T10:22:56.000Z</time>
      </trkpt>
      <trkpt lat="45.78359" lon="1.88058">
        <ele>711.5</ele>
        <time>2026-07-08T10:22:57.000Z</time>
      </trkpt>
      <trkpt lat="45.7836" lon="1.88059">
        <ele>712.3</ele>
        <time>2026-07-08T10:22:58.000Z</time>
      </trkpt>
      <trkpt lat="45.78361" lon="1.8806">
        <ele>712.1</ele>
        <time>2026-07-08T10:22:59.000Z</time>
      </trkpt>
      <trkpt lat="45.78361" lon="1.88062">
        <ele>711.9</ele>
        <time>2026-07-08T10:23:00.000Z</time>
      </trkpt>
      <trkpt lat="45.78362" lon="1.88065">
        <ele>711.1</ele>
        <time>2026-07-08T10:23:01.000Z</time>
      </trkpt>
      <trkpt lat="45.78362" lon="1.88067">
        <ele>711</ele>
        <time>2026-07-08T10:23:02.000Z</time>
      </trkpt>
      <trkpt lat="45.78363" lon="1.88069">
        <ele>710.5</ele>
        <time>2026-07-08T10:23:03.000Z</time>
      </trkpt>
      <trkpt lat="45.78364" lon="1.8807">
        <ele>710.7</ele>
        <time>2026-07-08T10:23:04.000Z</time>
      </trkpt>
      <trkpt lat="45.78366" lon="1.88071">
        <ele>710.5</ele>
        <time>2026-07-08T10:23:05.000Z</time>
      </trkpt>
      <trkpt lat="45.78367" lon="1.88071">
        <ele>710.7</ele>
        <time>2026-07-08T10:23:06.000Z</time>
      </trkpt>
      <trkpt lat="45.78369" lon="1.88072">
        <ele>709.6</ele>
        <time>2026-07-08T10:23:07.000Z</time>
      </trkpt>
      <trkpt lat="45.7837" lon="1.88073">
        <ele>708.9</ele>
        <time>2026-07-08T10:23:08.000Z</time>
      </trkpt>
      <trkpt lat="45.78372" lon="1.88073">
        <ele>708.7</ele>
        <time>2026-07-08T10:23:09.000Z</time>
      </trkpt>
      <trkpt lat="45.78374" lon="1.88073">
        <ele>709</ele>
        <time>2026-07-08T10:23:10.000Z</time>
      </trkpt>
      <trkpt lat="45.78376" lon="1.88072">
        <ele>708.4</ele>
        <time>2026-07-08T10:23:11.000Z</time>
      </trkpt>
      <trkpt lat="45.78377" lon="1.88072">
        <ele>708.5</ele>
        <time>2026-07-08T10:23:12.000Z</time>
      </trkpt>
      <trkpt lat="45.78379" lon="1.88072">
        <ele>708.4</ele>
        <time>2026-07-08T10:23:13.000Z</time>
      </trkpt>
      <trkpt lat="45.78381" lon="1.88072">
        <ele>708.9</ele>
        <time>2026-07-08T10:23:14.000Z</time>
      </trkpt>
      <trkpt lat="45.78383" lon="1.88072">
        <ele>709.1</ele>
        <time>2026-07-08T10:23:15.000Z</time>
      </trkpt>
      <trkpt lat="45.78384" lon="1.88071">
        <ele>709.8</ele>
        <time>2026-07-08T10:23:16.000Z</time>
      </trkpt>
      <trkpt lat="45.78386" lon="1.88072">
        <ele>710.8</ele>
        <time>2026-07-08T10:23:17.000Z</time>
      </trkpt>
      <trkpt lat="45.78388" lon="1.88071">
        <ele>711.8</ele>
        <time>2026-07-08T10:23:18.000Z</time>
      </trkpt>
      <trkpt lat="45.78391" lon="1.8807">
        <ele>712.4</ele>
        <time>2026-07-08T10:23:19.000Z</time>
      </trkpt>
      <trkpt lat="45.78393" lon="1.88069">
        <ele>712.5</ele>
        <time>2026-07-08T10:23:20.000Z</time>
      </trkpt>
      <trkpt lat="45.78395" lon="1.88069">
        <ele>713.4</ele>
        <time>2026-07-08T10:23:21.000Z</time>
      </trkpt>
      <trkpt lat="45.78397" lon="1.88068">
        <ele>713.5</ele>
        <time>2026-07-08T10:23:22.000Z</time>
      </trkpt>
      <trkpt lat="45.78398" lon="1.88067">
        <ele>713.2</ele>
        <time>2026-07-08T10:23:23.000Z</time>
      </trkpt>
      <trkpt lat="45.784" lon="1.88067">
        <ele>713.1</ele>
        <time>2026-07-08T10:23:24.000Z</time>
      </trkpt>
      <trkpt lat="45.78402" lon="1.88066">
        <ele>713</ele>
        <time>2026-07-08T10:23:25.000Z</time>
      </trkpt>
      <trkpt lat="45.78404" lon="1.88066">
        <ele>713.2</ele>
        <time>2026-07-08T10:23:26.000Z</time>
      </trkpt>
      <trkpt lat="45.78406" lon="1.88066">
        <ele>713.1</ele>
        <time>2026-07-08T10:23:27.000Z</time>
      </trkpt>
      <trkpt lat="45.78408" lon="1.88066">
        <ele>713</ele>
        <time>2026-07-08T10:23:28.000Z</time>
      </trkpt>
      <trkpt lat="45.78409" lon="1.88066">
        <ele>713.2</ele>
        <time>2026-07-08T10:23:29.000Z</time>
      </trkpt>
      <trkpt lat="45.78411" lon="1.88066">
        <ele>713.4</ele>
        <time>2026-07-08T10:23:30.000Z</time>
      </trkpt>
      <trkpt lat="45.78412" lon="1.88066">
        <ele>713.5</ele>
        <time>2026-07-08T10:23:31.000Z</time>
      </trkpt>
      <trkpt lat="45.78414" lon="1.88066">
        <ele>714</ele>
        <time>2026-07-08T10:23:32.000Z</time>
      </trkpt>
      <trkpt lat="45.78416" lon="1.88067">
        <ele>713.9</ele>
        <time>2026-07-08T10:23:33.000Z</time>
      </trkpt>
      <trkpt lat="45.78417" lon="1.88067">
        <ele>714</ele>
        <time>2026-07-08T10:23:34.000Z</time>
      </trkpt>
      <trkpt lat="45.78419" lon="1.88067">
        <ele>713.9</ele>
        <time>2026-07-08T10:23:35.000Z</time>
      </trkpt>
      <trkpt lat="45.7842" lon="1.88069">
        <ele>713.9</ele>
        <time>2026-07-08T10:23:36.000Z</time>
      </trkpt>
      <trkpt lat="45.78422" lon="1.8807">
        <ele>713.9</ele>
        <time>2026-07-08T10:23:37.000Z</time>
      </trkpt>
      <trkpt lat="45.78423" lon="1.88071">
        <ele>714</ele>
        <time>2026-07-08T10:23:38.000Z</time>
      </trkpt>
      <trkpt lat="45.78424" lon="1.88073">
        <ele>714.1</ele>
        <time>2026-07-08T10:23:39.000Z</time>
      </trkpt>
      <trkpt lat="45.78425" lon="1.88075">
        <ele>713.8</ele>
        <time>2026-07-08T10:23:40.000Z</time>
      </trkpt>
      <trkpt lat="45.78425" lon="1.88076">
        <ele>713.5</ele>
        <time>2026-07-08T10:23:41.000Z</time>
      </trkpt>
      <trkpt lat="45.78426" lon="1.88078">
        <ele>713.4</ele>
        <time>2026-07-08T10:23:42.000Z</time>
      </trkpt>
      <trkpt lat="45.78427" lon="1.8808">
        <ele>712.5</ele>
        <time>2026-07-08T10:23:43.000Z</time>
      </trkpt>
      <trkpt lat="45.78427" lon="1.88081">
        <ele>712</ele>
        <time>2026-07-08T10:23:44.000Z</time>
      </trkpt>
      <trkpt lat="45.78428" lon="1.88083">
        <ele>712.5</ele>
        <time>2026-07-08T10:23:45.000Z</time>
      </trkpt>
      <trkpt lat="45.7843" lon="1.88084">
        <ele>712.5</ele>
        <time>2026-07-08T10:23:46.000Z</time>
      </trkpt>
      <trkpt lat="45.78431" lon="1.88084">
        <ele>712.4</ele>
        <time>2026-07-08T10:23:47.000Z</time>
      </trkpt>
      <trkpt lat="45.78433" lon="1.88084">
        <ele>711.8</ele>
        <time>2026-07-08T10:23:48.000Z</time>
      </trkpt>
      <trkpt lat="45.78435" lon="1.88083">
        <ele>711.6</ele>
        <time>2026-07-08T10:23:49.000Z</time>
      </trkpt>
      <trkpt lat="45.78436" lon="1.88082">
        <ele>711.3</ele>
        <time>2026-07-08T10:23:50.000Z</time>
      </trkpt>
      <trkpt lat="45.78438" lon="1.88082">
        <ele>711.5</ele>
        <time>2026-07-08T10:23:51.000Z</time>
      </trkpt>
      <trkpt lat="45.7844" lon="1.88081">
        <ele>711.7</ele>
        <time>2026-07-08T10:23:52.000Z</time>
      </trkpt>
      <trkpt lat="45.78441" lon="1.88081">
        <ele>711.3</ele>
        <time>2026-07-08T10:23:53.000Z</time>
      </trkpt>
      <trkpt lat="45.78443" lon="1.8808">
        <ele>711.2</ele>
        <time>2026-07-08T10:23:54.000Z</time>
      </trkpt>
      <trkpt lat="45.78444" lon="1.8808">
        <ele>711.2</ele>
        <time>2026-07-08T10:23:55.000Z</time>
      </trkpt>
      <trkpt lat="45.78446" lon="1.8808">
        <ele>711.2</ele>
        <time>2026-07-08T10:23:56.000Z</time>
      </trkpt>
      <trkpt lat="45.78447" lon="1.8808">
        <ele>711.1</ele>
        <time>2026-07-08T10:23:57.000Z</time>
      </trkpt>
      <trkpt lat="45.78449" lon="1.8808">
        <ele>711.1</ele>
        <time>2026-07-08T10:23:58.000Z</time>
      </trkpt>
      <trkpt lat="45.7845" lon="1.8808">
        <ele>711</ele>
        <time>2026-07-08T10:23:59.000Z</time>
      </trkpt>
      <trkpt lat="45.78452" lon="1.8808">
        <ele>711</ele>
        <time>2026-07-08T10:24:00.000Z</time>
      </trkpt>
      <trkpt lat="45.78453" lon="1.88081">
        <ele>710.4</ele>
        <time>2026-07-08T10:24:01.000Z</time>
      </trkpt>
      <trkpt lat="45.78455" lon="1.88081">
        <ele>710.4</ele>
        <time>2026-07-08T10:24:02.000Z</time>
      </trkpt>
      <trkpt lat="45.78457" lon="1.88081">
        <ele>710.2</ele>
        <time>2026-07-08T10:24:03.000Z</time>
      </trkpt>
      <trkpt lat="45.78458" lon="1.88082">
        <ele>709.7</ele>
        <time>2026-07-08T10:24:04.000Z</time>
      </trkpt>
      <trkpt lat="45.7846" lon="1.88082">
        <ele>709.2</ele>
        <time>2026-07-08T10:24:05.000Z</time>
      </trkpt>
      <trkpt lat="45.78461" lon="1.88082">
        <ele>708.8</ele>
        <time>2026-07-08T10:24:06.000Z</time>
      </trkpt>
      <trkpt lat="45.78463" lon="1.88083">
        <ele>708.8</ele>
        <time>2026-07-08T10:24:07.000Z</time>
      </trkpt>
      <trkpt lat="45.78464" lon="1.88084">
        <ele>708.8</ele>
        <time>2026-07-08T10:24:08.000Z</time>
      </trkpt>
      <trkpt lat="45.78466" lon="1.88085">
        <ele>708.7</ele>
        <time>2026-07-08T10:24:09.000Z</time>
      </trkpt>
      <trkpt lat="45.78468" lon="1.88086">
        <ele>708.7</ele>
        <time>2026-07-08T10:24:10.000Z</time>
      </trkpt>
      <trkpt lat="45.78469" lon="1.88086">
        <ele>708.5</ele>
        <time>2026-07-08T10:24:11.000Z</time>
      </trkpt>
      <trkpt lat="45.78471" lon="1.88087">
        <ele>708.6</ele>
        <time>2026-07-08T10:24:12.000Z</time>
      </trkpt>
      <trkpt lat="45.78473" lon="1.88087">
        <ele>707.7</ele>
        <time>2026-07-08T10:24:13.000Z</time>
      </trkpt>
      <trkpt lat="45.78474" lon="1.88087">
        <ele>707.7</ele>
        <time>2026-07-08T10:24:14.000Z</time>
      </trkpt>
      <trkpt lat="45.78476" lon="1.88087">
        <ele>707.4</ele>
        <time>2026-07-08T10:24:15.000Z</time>
      </trkpt>
      <trkpt lat="45.78477" lon="1.88088">
        <ele>707</ele>
        <time>2026-07-08T10:24:16.000Z</time>
      </trkpt>
      <trkpt lat="45.78479" lon="1.88088">
        <ele>707.3</ele>
        <time>2026-07-08T10:24:17.000Z</time>
      </trkpt>
      <trkpt lat="45.78481" lon="1.88088">
        <ele>707.3</ele>
        <time>2026-07-08T10:24:18.000Z</time>
      </trkpt>
      <trkpt lat="45.78482" lon="1.88088">
        <ele>707.4</ele>
        <time>2026-07-08T10:24:19.000Z</time>
      </trkpt>
      <trkpt lat="45.78484" lon="1.88088">
        <ele>707.5</ele>
        <time>2026-07-08T10:24:20.000Z</time>
      </trkpt>
      <trkpt lat="45.78486" lon="1.88087">
        <ele>706.9</ele>
        <time>2026-07-08T10:24:21.000Z</time>
      </trkpt>
      <trkpt lat="45.78488" lon="1.88086">
        <ele>707</ele>
        <time>2026-07-08T10:24:22.000Z</time>
      </trkpt>
      <trkpt lat="45.78489" lon="1.88086">
        <ele>706.8</ele>
        <time>2026-07-08T10:24:23.000Z</time>
      </trkpt>
      <trkpt lat="45.78491" lon="1.88085">
        <ele>707.1</ele>
        <time>2026-07-08T10:24:24.000Z</time>
      </trkpt>
      <trkpt lat="45.78492" lon="1.88085">
        <ele>707.3</ele>
        <time>2026-07-08T10:24:25.000Z</time>
      </trkpt>
      <trkpt lat="45.78494" lon="1.88085">
        <ele>707.2</ele>
        <time>2026-07-08T10:24:26.000Z</time>
      </trkpt>
      <trkpt lat="45.78495" lon="1.88085">
        <ele>707.3</ele>
        <time>2026-07-08T10:24:27.000Z</time>
      </trkpt>
      <trkpt lat="45.78496" lon="1.88085">
        <ele>707.1</ele>
        <time>2026-07-08T10:24:28.000Z</time>
      </trkpt>
      <trkpt lat="45.78498" lon="1.88085">
        <ele>706.7</ele>
        <time>2026-07-08T10:24:29.000Z</time>
      </trkpt>
      <trkpt lat="45.785" lon="1.88085">
        <ele>706.8</ele>
        <time>2026-07-08T10:24:30.000Z</time>
      </trkpt>
      <trkpt lat="45.78501" lon="1.88085">
        <ele>706.9</ele>
        <time>2026-07-08T10:24:31.000Z</time>
      </trkpt>
      <trkpt lat="45.78503" lon="1.88084">
        <ele>707.2</ele>
        <time>2026-07-08T10:24:32.000Z</time>
      </trkpt>
      <trkpt lat="45.78504" lon="1.88084">
        <ele>707.2</ele>
        <time>2026-07-08T10:24:33.000Z</time>
      </trkpt>
      <trkpt lat="45.78506" lon="1.88084">
        <ele>707.1</ele>
        <time>2026-07-08T10:24:34.000Z</time>
      </trkpt>
      <trkpt lat="45.78508" lon="1.88083">
        <ele>707.4</ele>
        <time>2026-07-08T10:24:35.000Z</time>
      </trkpt>
      <trkpt lat="45.7851" lon="1.88083">
        <ele>707.5</ele>
        <time>2026-07-08T10:24:36.000Z</time>
      </trkpt>
      <trkpt lat="45.78512" lon="1.88083">
        <ele>707.7</ele>
        <time>2026-07-08T10:24:37.000Z</time>
      </trkpt>
      <trkpt lat="45.78514" lon="1.88082">
        <ele>708.3</ele>
        <time>2026-07-08T10:24:38.000Z</time>
      </trkpt>
      <trkpt lat="45.78516" lon="1.88082">
        <ele>708.4</ele>
        <time>2026-07-08T10:24:39.000Z</time>
      </trkpt>
      <trkpt lat="45.78517" lon="1.88082">
        <ele>708.7</ele>
        <time>2026-07-08T10:24:40.000Z</time>
      </trkpt>
      <trkpt lat="45.78519" lon="1.88081">
        <ele>708.6</ele>
        <time>2026-07-08T10:24:41.000Z</time>
      </trkpt>
      <trkpt lat="45.7852" lon="1.88081">
        <ele>709.3</ele>
        <time>2026-07-08T10:24:42.000Z</time>
      </trkpt>
      <trkpt lat="45.78523" lon="1.88083">
        <ele>708.7</ele>
        <time>2026-07-08T10:24:43.000Z</time>
      </trkpt>
      <trkpt lat="45.78524" lon="1.88085">
        <ele>709.5</ele>
        <time>2026-07-08T10:24:44.000Z</time>
      </trkpt>
      <trkpt lat="45.78525" lon="1.88086">
        <ele>708.9</ele>
        <time>2026-07-08T10:24:45.000Z</time>
      </trkpt>
      <trkpt lat="45.78526" lon="1.88086">
        <ele>708.7</ele>
        <time>2026-07-08T10:24:46.000Z</time>
      </trkpt>
      <trkpt lat="45.78528" lon="1.88086">
        <ele>708</ele>
        <time>2026-07-08T10:24:47.000Z</time>
      </trkpt>
      <trkpt lat="45.78529" lon="1.88086">
        <ele>708.6</ele>
        <time>2026-07-08T10:24:48.000Z</time>
      </trkpt>
      <trkpt lat="45.78531" lon="1.88086">
        <ele>709.1</ele>
        <time>2026-07-08T10:24:49.000Z</time>
      </trkpt>
      <trkpt lat="45.78533" lon="1.88087">
        <ele>709.1</ele>
        <time>2026-07-08T10:24:50.000Z</time>
      </trkpt>
      <trkpt lat="45.78535" lon="1.88087">
        <ele>709.1</ele>
        <time>2026-07-08T10:24:51.000Z</time>
      </trkpt>
      <trkpt lat="45.78537" lon="1.88087">
        <ele>708.7</ele>
        <time>2026-07-08T10:24:52.000Z</time>
      </trkpt>
      <trkpt lat="45.78539" lon="1.88087">
        <ele>709</ele>
        <time>2026-07-08T10:24:53.000Z</time>
      </trkpt>
      <trkpt lat="45.7854" lon="1.88089">
        <ele>709.3</ele>
        <time>2026-07-08T10:24:54.000Z</time>
      </trkpt>
      <trkpt lat="45.78541" lon="1.8809">
        <ele>709.4</ele>
        <time>2026-07-08T10:24:55.000Z</time>
      </trkpt>
      <trkpt lat="45.78543" lon="1.88089">
        <ele>708.7</ele>
        <time>2026-07-08T10:24:56.000Z</time>
      </trkpt>
      <trkpt lat="45.78544" lon="1.88089">
        <ele>709.7</ele>
        <time>2026-07-08T10:24:57.000Z</time>
      </trkpt>
      <trkpt lat="45.78545" lon="1.88088">
        <ele>710</ele>
        <time>2026-07-08T10:24:58.000Z</time>
      </trkpt>
      <trkpt lat="45.78547" lon="1.88088">
        <ele>710.2</ele>
        <time>2026-07-08T10:24:59.000Z</time>
      </trkpt>
      <trkpt lat="45.78548" lon="1.88088">
        <ele>710</ele>
        <time>2026-07-08T10:25:00.000Z</time>
      </trkpt>
      <trkpt lat="45.7855" lon="1.88087">
        <ele>709.6</ele>
        <time>2026-07-08T10:25:01.000Z</time>
      </trkpt>
      <trkpt lat="45.78551" lon="1.88086">
        <ele>709.6</ele>
        <time>2026-07-08T10:25:02.000Z</time>
      </trkpt>
      <trkpt lat="45.78553" lon="1.88085">
        <ele>709.9</ele>
        <time>2026-07-08T10:25:03.000Z</time>
      </trkpt>
      <trkpt lat="45.78555" lon="1.88084">
        <ele>709.5</ele>
        <time>2026-07-08T10:25:04.000Z</time>
      </trkpt>
      <trkpt lat="45.78556" lon="1.88084">
        <ele>709.5</ele>
        <time>2026-07-08T10:25:05.000Z</time>
      </trkpt>
      <trkpt lat="45.78557" lon="1.88083">
        <ele>708.9</ele>
        <time>2026-07-08T10:25:06.000Z</time>
      </trkpt>
      <trkpt lat="45.78558" lon="1.88082">
        <ele>708.4</ele>
        <time>2026-07-08T10:25:07.000Z</time>
      </trkpt>
      <trkpt lat="45.7856" lon="1.88082">
        <ele>708.5</ele>
        <time>2026-07-08T10:25:08.000Z</time>
      </trkpt>
      <trkpt lat="45.78561" lon="1.88081">
        <ele>709.1</ele>
        <time>2026-07-08T10:25:09.000Z</time>
      </trkpt>
      <trkpt lat="45.78562" lon="1.8808">
        <ele>707.1</ele>
        <time>2026-07-08T10:25:10.000Z</time>
      </trkpt>
      <trkpt lat="45.78563" lon="1.88079">
        <ele>705.5</ele>
        <time>2026-07-08T10:25:11.000Z</time>
      </trkpt>
      <trkpt lat="45.78564" lon="1.88078">
        <ele>703.8</ele>
        <time>2026-07-08T10:25:12.000Z</time>
      </trkpt>
      <trkpt lat="45.78564" lon="1.88078">
        <ele>704.6</ele>
        <time>2026-07-08T10:25:13.000Z</time>
      </trkpt>
      <trkpt lat="45.78564" lon="1.88078">
        <ele>704.3</ele>
        <time>2026-07-08T10:25:14.000Z</time>
      </trkpt>
      <trkpt lat="45.78566" lon="1.88077">
        <ele>704.7</ele>
        <time>2026-07-08T10:25:15.000Z</time>
      </trkpt>
      <trkpt lat="45.78567" lon="1.88076">
        <ele>704.7</ele>
        <time>2026-07-08T10:25:16.000Z</time>
      </trkpt>
      <trkpt lat="45.78568" lon="1.88077">
        <ele>705.4</ele>
        <time>2026-07-08T10:25:17.000Z</time>
      </trkpt>
      <trkpt lat="45.78569" lon="1.88076">
        <ele>706.5</ele>
        <time>2026-07-08T10:25:18.000Z</time>
      </trkpt>
      <trkpt lat="45.7857" lon="1.88075">
        <ele>706.9</ele>
        <time>2026-07-08T10:25:19.000Z</time>
      </trkpt>
      <trkpt lat="45.78571" lon="1.88073">
        <ele>706.4</ele>
        <time>2026-07-08T10:25:20.000Z</time>
      </trkpt>
      <trkpt lat="45.78571" lon="1.88071">
        <ele>705.2</ele>
        <time>2026-07-08T10:25:21.000Z</time>
      </trkpt>
      <trkpt lat="45.78575" lon="1.88072">
        <ele>704.6</ele>
        <time>2026-07-08T10:25:22.000Z</time>
      </trkpt>
      <trkpt lat="45.78576" lon="1.88077">
        <ele>705.6</ele>
        <time>2026-07-08T10:25:23.000Z</time>
      </trkpt>
      <trkpt lat="45.78575" lon="1.8808">
        <ele>705.6</ele>
        <time>2026-07-08T10:25:24.000Z</time>
      </trkpt>
      <trkpt lat="45.78574" lon="1.88079">
        <ele>705.7</ele>
        <time>2026-07-08T10:25:25.000Z</time>
      </trkpt>
      <trkpt lat="45.78573" lon="1.88078">
        <ele>705.5</ele>
        <time>2026-07-08T10:25:26.000Z</time>
      </trkpt>
      <trkpt lat="45.78573" lon="1.88078">
        <ele>705.5</ele>
        <time>2026-07-08T10:25:27.000Z</time>
      </trkpt>
      <trkpt lat="45.78573" lon="1.88078">
        <ele>705.5</ele>
        <time>2026-07-08T10:25:28.000Z</time>
      </trkpt>
      <trkpt lat="45.78573" lon="1.88078">
        <ele>705.4</ele>
        <time>2026-07-08T10:25:29.000Z</time>
      </trkpt>
      <trkpt lat="45.78573" lon="1.88078">
        <ele>705.1</ele>
        <time>2026-07-08T10:25:30.000Z</time>
      </trkpt>
      <trkpt lat="45.78576" lon="1.88083">
        <ele>705.6</ele>
        <time>2026-07-08T10:25:31.000Z</time>
      </trkpt>
      <trkpt lat="45.78574" lon="1.88088">
        <ele>705.8</ele>
        <time>2026-07-08T10:25:32.000Z</time>
      </trkpt>
      <trkpt lat="45.78573" lon="1.8809">
        <ele>706.1</ele>
        <time>2026-07-08T10:25:33.000Z</time>
      </trkpt>
      <trkpt lat="45.78576" lon="1.88087">
        <ele>706.1</ele>
        <time>2026-07-08T10:25:34.000Z</time>
      </trkpt>
      <trkpt lat="45.78576" lon="1.88086">
        <ele>705.4</ele>
        <time>2026-07-08T10:25:35.000Z</time>
      </trkpt>
      <trkpt lat="45.78576" lon="1.88085">
        <ele>705.4</ele>
        <time>2026-07-08T10:25:36.000Z</time>
      </trkpt>
      <trkpt lat="45.78575" lon="1.88084">
        <ele>704.4</ele>
        <time>2026-07-08T10:25:37.000Z</time>
      </trkpt>
      <trkpt lat="45.78574" lon="1.88083">
        <ele>704.8</ele>
        <time>2026-07-08T10:25:38.000Z</time>
      </trkpt>
      <trkpt lat="45.78572" lon="1.88082">
        <ele>705.1</ele>
        <time>2026-07-08T10:25:39.000Z</time>
      </trkpt>
      <trkpt lat="45.78572" lon="1.88081">
        <ele>704.9</ele>
        <time>2026-07-08T10:25:40.000Z</time>
      </trkpt>
      <trkpt lat="45.78571" lon="1.8808">
        <ele>705.3</ele>
        <time>2026-07-08T10:25:41.000Z</time>
      </trkpt>
      <trkpt lat="45.78571" lon="1.8808">
        <ele>705.7</ele>
        <time>2026-07-08T10:25:42.000Z</time>
      </trkpt>
      <trkpt lat="45.78571" lon="1.8808">
        <ele>705.6</ele>
        <time>2026-07-08T10:25:43.000Z</time>
      </trkpt>
      <trkpt lat="45.78571" lon="1.8808">
        <ele>705.6</ele>
        <time>2026-07-08T10:25:44.000Z</time>
      </trkpt>
      <trkpt lat="45.78571" lon="1.8808">
        <ele>705.6</ele>
        <time>2026-07-08T10:25:45.000Z</time>
      </trkpt>
      <trkpt lat="45.78571" lon="1.8808">
        <ele>705.6</ele>
        <time>2026-07-08T10:25:46.000Z</time>
      </trkpt>
      <trkpt lat="45.78571" lon="1.8808">
        <ele>705.6</ele>
        <time>2026-07-08T10:25:47.000Z</time>
      </trkpt>
      <trkpt lat="45.78571" lon="1.88079">
        <ele>705.6</ele>
        <time>2026-07-08T10:25:48.000Z</time>
      </trkpt>
      <trkpt lat="45.7857" lon="1.88077">
        <ele>705.5</ele>
        <time>2026-07-08T10:25:49.000Z</time>
      </trkpt>
      <trkpt lat="45.7857" lon="1.88077">
        <ele>705.5</ele>
        <time>2026-07-08T10:25:50.000Z</time>
      </trkpt>
      <trkpt lat="45.7857" lon="1.88077">
        <ele>705.5</ele>
        <time>2026-07-08T10:25:51.000Z</time>
      </trkpt>
      <trkpt lat="45.7857" lon="1.88077">
        <ele>705.5</ele>
        <time>2026-07-08T10:25:52.000Z</time>
      </trkpt>
      <trkpt lat="45.7857" lon="1.88077">
        <ele>705.5</ele>
        <time>2026-07-08T10:25:53.000Z</time>
      </trkpt>
      <trkpt lat="45.7857" lon="1.88077">
        <ele>705.5</ele>
        <time>2026-07-08T10:25:54.000Z</time>
      </trkpt>
      <trkpt lat="45.7857" lon="1.88077">
        <ele>705.5</ele>
        <time>2026-07-08T10:25:55.000Z</time>
      </trkpt>
      <trkpt lat="45.7857" lon="1.88077">
        <ele>705.5</ele>
        <time>2026-07-08T10:25:56.000Z</time>
      </trkpt>
      <trkpt lat="45.7857" lon="1.88077">
        <ele>705.5</ele>
        <time>2026-07-08T10:25:57.000Z</time>
      </trkpt>
      <trkpt lat="45.7857" lon="1.88077">
        <ele>705.5</ele>
        <time>2026-07-08T10:25:58.000Z</time>
      </trkpt>
      <trkpt lat="45.7857" lon="1.88077">
        <ele>705.5</ele>
        <time>2026-07-08T10:25:59.000Z</time>
      </trkpt>
      <trkpt lat="45.7857" lon="1.88077">
        <ele>705.5</ele>
        <time>2026-07-08T10:26:00.000Z</time>
      </trkpt>
      <trkpt lat="45.7857" lon="1.88077">
        <ele>705.5</ele>
        <time>2026-07-08T10:26:01.000Z</time>
      </trkpt>
      <trkpt lat="45.7857" lon="1.88077">
        <ele>705.5</ele>
        <time>2026-07-08T10:26:02.000Z</time>
      </trkpt>
      <trkpt lat="45.7857" lon="1.88077">
        <ele>705.5</ele>
        <time>2026-07-08T10:26:03.000Z</time>
      </trkpt>
      <trkpt lat="45.7857" lon="1.88077">
        <ele>705.5</ele>
        <time>2026-07-08T10:26:04.000Z</time>
      </trkpt>
      <trkpt lat="45.7857" lon="1.88077">
        <ele>705.4</ele>
        <time>2026-07-08T10:26:05.000Z</time>
      </trkpt>
      <trkpt lat="45.7857" lon="1.88077">
        <ele>705.4</ele>
        <time>2026-07-08T10:26:06.000Z</time>
      </trkpt>
      <trkpt lat="45.7857" lon="1.88076">
        <ele>705.5</ele>
        <time>2026-07-08T10:26:07.000Z</time>
      </trkpt>
      <trkpt lat="45.78571" lon="1.88077">
        <ele>704.7</ele>
        <time>2026-07-08T10:26:08.000Z</time>
      </trkpt>
      <trkpt lat="45.78572" lon="1.88077">
        <ele>703.4</ele>
        <time>2026-07-08T10:26:09.000Z</time>
      </trkpt>
      <trkpt lat="45.78572" lon="1.88077">
        <ele>702.7</ele>
        <time>2026-07-08T10:26:10.000Z</time>
      </trkpt>
      <trkpt lat="45.78573" lon="1.88077">
        <ele>701.6</ele>
        <time>2026-07-08T10:26:11.000Z</time>
      </trkpt>
      <trkpt lat="45.78573" lon="1.88077">
        <ele>700.9</ele>
        <time>2026-07-08T10:26:12.000Z</time>
      </trkpt>
      <trkpt lat="45.78572" lon="1.88077">
        <ele>701.1</ele>
        <time>2026-07-08T10:26:13.000Z</time>
      </trkpt>
      <trkpt lat="45.78571" lon="1.88076">
        <ele>701.2</ele>
        <time>2026-07-08T10:26:14.000Z</time>
      </trkpt>
      <trkpt lat="45.78571" lon="1.88076">
        <ele>701.2</ele>
        <time>2026-07-08T10:26:15.000Z</time>
      </trkpt>
      <trkpt lat="45.78571" lon="1.88075">
        <ele>701.8</ele>
        <time>2026-07-08T10:26:16.000Z</time>
      </trkpt>
      <trkpt lat="45.78572" lon="1.88074">
        <ele>702.3</ele>
        <time>2026-07-08T10:26:17.000Z</time>
      </trkpt>
      <trkpt lat="45.78572" lon="1.88073">
        <ele>702.4</ele>
        <time>2026-07-08T10:26:18.000Z</time>
      </trkpt>
      <trkpt lat="45.78571" lon="1.88072">
        <ele>702.2</ele>
        <time>2026-07-08T10:26:19.000Z</time>
      </trkpt>
      <trkpt lat="45.78571" lon="1.88071">
        <ele>702.2</ele>
        <time>2026-07-08T10:26:20.000Z</time>
      </trkpt>
      <trkpt lat="45.78571" lon="1.88071">
        <ele>702.1</ele>
        <time>2026-07-08T10:26:21.000Z</time>
      </trkpt>
      <trkpt lat="45.78571" lon="1.8807">
        <ele>703</ele>
        <time>2026-07-08T10:26:22.000Z</time>
      </trkpt>
      <trkpt lat="45.78571" lon="1.8807">
        <ele>703.5</ele>
        <time>2026-07-08T10:26:23.000Z</time>
      </trkpt>
      <trkpt lat="45.78571" lon="1.88069">
        <ele>704.1</ele>
        <time>2026-07-08T10:26:24.000Z</time>
      </trkpt>
      <trkpt lat="45.78571" lon="1.88069">
        <ele>704.6</ele>
        <time>2026-07-08T10:26:25.000Z</time>
      </trkpt>
      <trkpt lat="45.7857" lon="1.88069">
        <ele>704.7</ele>
        <time>2026-07-08T10:26:26.000Z</time>
      </trkpt>
      <trkpt lat="45.7857" lon="1.88069">
        <ele>704.7</ele>
        <time>2026-07-08T10:26:27.000Z</time>
      </trkpt>
      <trkpt lat="45.7857" lon="1.88069">
        <ele>704.7</ele>
        <time>2026-07-08T10:26:28.000Z</time>
      </trkpt>
      <trkpt lat="45.7857" lon="1.88069">
        <ele>704.7</ele>
        <time>2026-07-08T10:26:29.000Z</time>
      </trkpt>
      <trkpt lat="45.7857" lon="1.88069">
        <ele>704.6</ele>
        <time>2026-07-08T10:26:30.000Z</time>
      </trkpt>
      <trkpt lat="45.7857" lon="1.88068">
        <ele>705.1</ele>
        <time>2026-07-08T10:26:31.000Z</time>
      </trkpt>
      <trkpt lat="45.7857" lon="1.88067">
        <ele>705.3</ele>
        <time>2026-07-08T10:26:32.000Z</time>
      </trkpt>
      <trkpt lat="45.78569" lon="1.88067">
        <ele>705.6</ele>
        <time>2026-07-08T10:26:33.000Z</time>
      </trkpt>
      <trkpt lat="45.78569" lon="1.88066">
        <ele>705.4</ele>
        <time>2026-07-08T10:26:34.000Z</time>
      </trkpt>
      <trkpt lat="45.78568" lon="1.88065">
        <ele>705.4</ele>
        <time>2026-07-08T10:26:35.000Z</time>
      </trkpt>
      <trkpt lat="45.78567" lon="1.88065">
        <ele>704.9</ele>
        <time>2026-07-08T10:26:36.000Z</time>
      </trkpt>
      <trkpt lat="45.78567" lon="1.88065">
        <ele>704.9</ele>
        <time>2026-07-08T10:26:37.000Z</time>
      </trkpt>
      <trkpt lat="45.78567" lon="1.88065">
        <ele>704.9</ele>
        <time>2026-07-08T10:26:38.000Z</time>
      </trkpt>
      <trkpt lat="45.78567" lon="1.88065">
        <ele>704.9</ele>
        <time>2026-07-08T10:26:39.000Z</time>
      </trkpt>
      <trkpt lat="45.78567" lon="1.88065">
        <ele>704.9</ele>
        <time>2026-07-08T10:26:40.000Z</time>
      </trkpt>
      <trkpt lat="45.78567" lon="1.88065">
        <ele>704.9</ele>
        <time>2026-07-08T10:26:41.000Z</time>
      </trkpt>
      <trkpt lat="45.78567" lon="1.88065">
        <ele>704.9</ele>
        <time>2026-07-08T10:26:42.000Z</time>
      </trkpt>
      <trkpt lat="45.78567" lon="1.88065">
        <ele>704.9</ele>
        <time>2026-07-08T10:26:43.000Z</time>
      </trkpt>
      <trkpt lat="45.78567" lon="1.88065">
        <ele>704.9</ele>
        <time>2026-07-08T10:26:44.000Z</time>
      </trkpt>
      <trkpt lat="45.78567" lon="1.88065">
        <ele>704.9</ele>
        <time>2026-07-08T10:26:45.000Z</time>
      </trkpt>
      <trkpt lat="45.78567" lon="1.88066">
        <ele>704.9</ele>
        <time>2026-07-08T10:26:46.000Z</time>
      </trkpt>
      <trkpt lat="45.78567" lon="1.88066">
        <ele>704.9</ele>
        <time>2026-07-08T10:26:47.000Z</time>
      </trkpt>
      <trkpt lat="45.78567" lon="1.88066">
        <ele>704.9</ele>
        <time>2026-07-08T10:26:48.000Z</time>
      </trkpt>
      <trkpt lat="45.78567" lon="1.88066">
        <ele>704.6</ele>
        <time>2026-07-08T10:26:49.000Z</time>
      </trkpt>
      <trkpt lat="45.78566" lon="1.88066">
        <ele>705</ele>
        <time>2026-07-08T10:26:50.000Z</time>
      </trkpt>
      <trkpt lat="45.78566" lon="1.88065">
        <ele>705.2</ele>
        <time>2026-07-08T10:26:51.000Z</time>
      </trkpt>
      <trkpt lat="45.78566" lon="1.88065">
        <ele>705.5</ele>
        <time>2026-07-08T10:26:52.000Z</time>
      </trkpt>
      <trkpt lat="45.78565" lon="1.88065">
        <ele>705.7</ele>
        <time>2026-07-08T10:26:53.000Z</time>
      </trkpt>
      <trkpt lat="45.78564" lon="1.88064">
        <ele>704.6</ele>
        <time>2026-07-08T10:26:54.000Z</time>
      </trkpt>
      <trkpt lat="45.78564" lon="1.88064">
        <ele>703.9</ele>
        <time>2026-07-08T10:26:55.000Z</time>
      </trkpt>
      <trkpt lat="45.78564" lon="1.88065">
        <ele>704.1</ele>
        <time>2026-07-08T10:26:56.000Z</time>
      </trkpt>
      <trkpt lat="45.78565" lon="1.88063">
        <ele>704.8</ele>
        <time>2026-07-08T10:26:57.000Z</time>
      </trkpt>
      <trkpt lat="45.78567" lon="1.88064">
        <ele>706.3</ele>
        <time>2026-07-08T10:26:58.000Z</time>
      </trkpt>
      <trkpt lat="45.78568" lon="1.88064">
        <ele>706.6</ele>
        <time>2026-07-08T10:26:59.000Z</time>
      </trkpt>
      <trkpt lat="45.78568" lon="1.88065">
        <ele>706.6</ele>
        <time>2026-07-08T10:27:00.000Z</time>
      </trkpt>
      <trkpt lat="45.78568" lon="1.88065">
        <ele>706.6</ele>
        <time>2026-07-08T10:27:01.000Z</time>
      </trkpt>
      <trkpt lat="45.78568" lon="1.88065">
        <ele>706.1</ele>
        <time>2026-07-08T10:27:02.000Z</time>
      </trkpt>
      <trkpt lat="45.78567" lon="1.88066">
        <ele>707.6</ele>
        <time>2026-07-08T10:27:03.000Z</time>
      </trkpt>
      <trkpt lat="45.78567" lon="1.88067">
        <ele>707.3</ele>
        <time>2026-07-08T10:27:04.000Z</time>
      </trkpt>
      <trkpt lat="45.78567" lon="1.88069">
        <ele>707.6</ele>
        <time>2026-07-08T10:27:05.000Z</time>
      </trkpt>
      <trkpt lat="45.78566" lon="1.88072">
        <ele>708.4</ele>
        <time>2026-07-08T10:27:06.000Z</time>
      </trkpt>
      <trkpt lat="45.78566" lon="1.88072">
        <ele>708.4</ele>
        <time>2026-07-08T10:27:07.000Z</time>
      </trkpt>
      <trkpt lat="45.78565" lon="1.88072">
        <ele>709.1</ele>
        <time>2026-07-08T10:27:08.000Z</time>
      </trkpt>
      <trkpt lat="45.78565" lon="1.88072">
        <ele>709.1</ele>
        <time>2026-07-08T10:27:09.000Z</time>
      </trkpt>
      <trkpt lat="45.78565" lon="1.88072">
        <ele>709.1</ele>
        <time>2026-07-08T10:27:10.000Z</time>
      </trkpt>
      <trkpt lat="45.78565" lon="1.88072">
        <ele>709.1</ele>
        <time>2026-07-08T10:27:11.000Z</time>
      </trkpt>
      <trkpt lat="45.78565" lon="1.88072">
        <ele>709.1</ele>
        <time>2026-07-08T10:27:12.000Z</time>
      </trkpt>
      <trkpt lat="45.78565" lon="1.88072">
        <ele>709.1</ele>
        <time>2026-07-08T10:27:13.000Z</time>
      </trkpt>
      <trkpt lat="45.78565" lon="1.88072">
        <ele>709.1</ele>
        <time>2026-07-08T10:27:14.000Z</time>
      </trkpt>
      <trkpt lat="45.78565" lon="1.88072">
        <ele>709.1</ele>
        <time>2026-07-08T10:27:15.000Z</time>
      </trkpt>
      <trkpt lat="45.78565" lon="1.88072">
        <ele>709.1</ele>
        <time>2026-07-08T10:27:16.000Z</time>
      </trkpt>
      <trkpt lat="45.78565" lon="1.88072">
        <ele>709.2</ele>
        <time>2026-07-08T10:27:17.000Z</time>
      </trkpt>
      <trkpt lat="45.78565" lon="1.88072">
        <ele>709.2</ele>
        <time>2026-07-08T10:27:18.000Z</time>
      </trkpt>
      <trkpt lat="45.78565" lon="1.88072">
        <ele>709.2</ele>
        <time>2026-07-08T10:27:19.000Z</time>
      </trkpt>
      <trkpt lat="45.78565" lon="1.88072">
        <ele>709.1</ele>
        <time>2026-07-08T10:27:20.000Z</time>
      </trkpt>
      <trkpt lat="45.78565" lon="1.88072">
        <ele>709.1</ele>
        <time>2026-07-08T10:27:21.000Z</time>
      </trkpt>
      <trkpt lat="45.78565" lon="1.88072">
        <ele>709.1</ele>
        <time>2026-07-08T10:27:22.000Z</time>
      </trkpt>
      <trkpt lat="45.78565" lon="1.88072">
        <ele>709.2</ele>
        <time>2026-07-08T10:27:23.000Z</time>
      </trkpt>
      <trkpt lat="45.78565" lon="1.88072">
        <ele>709.2</ele>
        <time>2026-07-08T10:27:24.000Z</time>
      </trkpt>
      <trkpt lat="45.78565" lon="1.88072">
        <ele>709.2</ele>
        <time>2026-07-08T10:27:25.000Z</time>
      </trkpt>
      <trkpt lat="45.78565" lon="1.88071">
        <ele>709.2</ele>
        <time>2026-07-08T10:27:26.000Z</time>
      </trkpt>
      <trkpt lat="45.78565" lon="1.88071">
        <ele>709.2</ele>
        <time>2026-07-08T10:27:27.000Z</time>
      </trkpt>
      <trkpt lat="45.78565" lon="1.88071">
        <ele>709.2</ele>
        <time>2026-07-08T10:27:28.000Z</time>
      </trkpt>
      <trkpt lat="45.78565" lon="1.88071">
        <ele>709.2</ele>
        <time>2026-07-08T10:27:29.000Z</time>
      </trkpt>
      <trkpt lat="45.78565" lon="1.88071">
        <ele>709.2</ele>
        <time>2026-07-08T10:27:30.000Z</time>
      </trkpt>
      <trkpt lat="45.78565" lon="1.88071">
        <ele>709.2</ele>
        <time>2026-07-08T10:27:31.000Z</time>
      </trkpt>
      <trkpt lat="45.78565" lon="1.88071">
        <ele>709.2</ele>
        <time>2026-07-08T10:27:32.000Z</time>
      </trkpt>
      <trkpt lat="45.78565" lon="1.88071">
        <ele>709.2</ele>
        <time>2026-07-08T10:27:33.000Z</time>
      </trkpt>
      <trkpt lat="45.78565" lon="1.88071">
        <ele>709.2</ele>
        <time>2026-07-08T10:27:34.000Z</time>
      </trkpt>
      <trkpt lat="45.78565" lon="1.88071">
        <ele>709.2</ele>
        <time>2026-07-08T10:27:35.000Z</time>
      </trkpt>
      <trkpt lat="45.78565" lon="1.88071">
        <ele>709.2</ele>
        <time>2026-07-08T10:27:36.000Z</time>
      </trkpt>
      <trkpt lat="45.78565" lon="1.88071">
        <ele>709.2</ele>
        <time>2026-07-08T10:27:37.000Z</time>
      </trkpt>
      <trkpt lat="45.78565" lon="1.88071">
        <ele>708.9</ele>
        <time>2026-07-08T10:27:38.000Z</time>
      </trkpt>
      <trkpt lat="45.78565" lon="1.88071">
        <ele>708.8</ele>
        <time>2026-07-08T10:27:39.000Z</time>
      </trkpt>
      <trkpt lat="45.78565" lon="1.88071">
        <ele>708.9</ele>
        <time>2026-07-08T10:27:40.000Z</time>
      </trkpt>
      <trkpt lat="45.78565" lon="1.88071">
        <ele>709</ele>
        <time>2026-07-08T10:27:41.000Z</time>
      </trkpt>
      <trkpt lat="45.78565" lon="1.88071">
        <ele>709</ele>
        <time>2026-07-08T10:27:42.000Z</time>
      </trkpt>
      <trkpt lat="45.78565" lon="1.8807">
        <ele>709</ele>
        <time>2026-07-08T10:27:43.000Z</time>
      </trkpt>
      <trkpt lat="45.78565" lon="1.8807">
        <ele>709.1</ele>
        <time>2026-07-08T10:27:44.000Z</time>
      </trkpt>
      <trkpt lat="45.78566" lon="1.8807">
        <ele>709.1</ele>
        <time>2026-07-08T10:27:45.000Z</time>
      </trkpt>
      <trkpt lat="45.78566" lon="1.8807">
        <ele>709.1</ele>
        <time>2026-07-08T10:27:46.000Z</time>
      </trkpt>
      <trkpt lat="45.78566" lon="1.8807">
        <ele>709.1</ele>
        <time>2026-07-08T10:27:47.000Z</time>
      </trkpt>
      <trkpt lat="45.78566" lon="1.8807">
        <ele>709.1</ele>
        <time>2026-07-08T10:27:48.000Z</time>
      </trkpt>
      <trkpt lat="45.78566" lon="1.8807">
        <ele>709.1</ele>
        <time>2026-07-08T10:27:49.000Z</time>
      </trkpt>
      <trkpt lat="45.78566" lon="1.8807">
        <ele>709.1</ele>
        <time>2026-07-08T10:27:50.000Z</time>
      </trkpt>
      <trkpt lat="45.78566" lon="1.8807">
        <ele>709.1</ele>
        <time>2026-07-08T10:27:51.000Z</time>
      </trkpt>
      <trkpt lat="45.78566" lon="1.8807">
        <ele>709.1</ele>
        <time>2026-07-08T10:27:52.000Z</time>
      </trkpt>
      <trkpt lat="45.78566" lon="1.8807">
        <ele>709.1</ele>
        <time>2026-07-08T10:27:53.000Z</time>
      </trkpt>
      <trkpt lat="45.78566" lon="1.8807">
        <ele>709.1</ele>
        <time>2026-07-08T10:27:54.000Z</time>
      </trkpt>
      <trkpt lat="45.78566" lon="1.8807">
        <ele>709.1</ele>
        <time>2026-07-08T10:27:55.000Z</time>
      </trkpt>
      <trkpt lat="45.78565" lon="1.8807">
        <ele>709.1</ele>
        <time>2026-07-08T10:27:56.000Z</time>
      </trkpt>
      <trkpt lat="45.78566" lon="1.8807">
        <ele>709.2</ele>
        <time>2026-07-08T10:27:57.000Z</time>
      </trkpt>
      <trkpt lat="45.78566" lon="1.8807">
        <ele>709.6</ele>
        <time>2026-07-08T10:27:58.000Z</time>
      </trkpt>
      <trkpt lat="45.78567" lon="1.8807">
        <ele>709.4</ele>
        <time>2026-07-08T10:27:59.000Z</time>
      </trkpt>
      <trkpt lat="45.78568" lon="1.8807">
        <ele>708.5</ele>
        <time>2026-07-08T10:28:00.000Z</time>
      </trkpt>
      <trkpt lat="45.78569" lon="1.8807">
        <ele>708.3</ele>
        <time>2026-07-08T10:28:01.000Z</time>
      </trkpt>
      <trkpt lat="45.78569" lon="1.8807">
        <ele>707.9</ele>
        <time>2026-07-08T10:28:02.000Z</time>
      </trkpt>
      <trkpt lat="45.78569" lon="1.88069">
        <ele>707.9</ele>
        <time>2026-07-08T10:28:03.000Z</time>
      </trkpt>
      <trkpt lat="45.78569" lon="1.88069">
        <ele>707.9</ele>
        <time>2026-07-08T10:28:04.000Z</time>
      </trkpt>
      <trkpt lat="45.78569" lon="1.88069">
        <ele>707.9</ele>
        <time>2026-07-08T10:28:05.000Z</time>
      </trkpt>
      <trkpt lat="45.78569" lon="1.88069">
        <ele>707.9</ele>
        <time>2026-07-08T10:28:06.000Z</time>
      </trkpt>
      <trkpt lat="45.78569" lon="1.88069">
        <ele>707.9</ele>
        <time>2026-07-08T10:28:07.000Z</time>
      </trkpt>
      <trkpt lat="45.78569" lon="1.88069">
        <ele>707.9</ele>
        <time>2026-07-08T10:28:08.000Z</time>
      </trkpt>
      <trkpt lat="45.78569" lon="1.88069">
        <ele>707.8</ele>
        <time>2026-07-08T10:28:09.000Z</time>
      </trkpt>
      <trkpt lat="45.78568" lon="1.88069">
        <ele>708</ele>
        <time>2026-07-08T10:28:10.000Z</time>
      </trkpt>
      <trkpt lat="45.78568" lon="1.88068">
        <ele>708</ele>
        <time>2026-07-08T10:28:11.000Z</time>
      </trkpt>
      <trkpt lat="45.78568" lon="1.88068">
        <ele>708</ele>
        <time>2026-07-08T10:28:12.000Z</time>
      </trkpt>
      <trkpt lat="45.78568" lon="1.88068">
        <ele>708</ele>
        <time>2026-07-08T10:28:13.000Z</time>
      </trkpt>
      <trkpt lat="45.78568" lon="1.88068">
        <ele>708</ele>
        <time>2026-07-08T10:28:14.000Z</time>
      </trkpt>
      <trkpt lat="45.78568" lon="1.88068">
        <ele>708</ele>
        <time>2026-07-08T10:28:15.000Z</time>
      </trkpt>
      <trkpt lat="45.78569" lon="1.88068">
        <ele>707.6</ele>
        <time>2026-07-08T10:28:16.000Z</time>
      </trkpt>
      <trkpt lat="45.78568" lon="1.88068">
        <ele>707.6</ele>
        <time>2026-07-08T10:28:17.000Z</time>
      </trkpt>
      <trkpt lat="45.78568" lon="1.88067">
        <ele>707.6</ele>
        <time>2026-07-08T10:28:18.000Z</time>
      </trkpt>
      <trkpt lat="45.78568" lon="1.88067">
        <ele>707.7</ele>
        <time>2026-07-08T10:28:19.000Z</time>
      </trkpt>
      <trkpt lat="45.78568" lon="1.88067">
        <ele>707.6</ele>
        <time>2026-07-08T10:28:20.000Z</time>
      </trkpt>
      <trkpt lat="45.78568" lon="1.88067">
        <ele>707.6</ele>
        <time>2026-07-08T10:28:21.000Z</time>
      </trkpt>
      <trkpt lat="45.78568" lon="1.88067">
        <ele>707.3</ele>
        <time>2026-07-08T10:28:22.000Z</time>
      </trkpt>
      <trkpt lat="45.78568" lon="1.88067">
        <ele>707.3</ele>
        <time>2026-07-08T10:28:23.000Z</time>
      </trkpt>
      <trkpt lat="45.78568" lon="1.88067">
        <ele>707.3</ele>
        <time>2026-07-08T10:28:24.000Z</time>
      </trkpt>
      <trkpt lat="45.78568" lon="1.88069">
        <ele>707.2</ele>
        <time>2026-07-08T10:28:25.000Z</time>
      </trkpt>
      <trkpt lat="45.78568" lon="1.88071">
        <ele>707.6</ele>
        <time>2026-07-08T10:28:26.000Z</time>
      </trkpt>
      <trkpt lat="45.78568" lon="1.88071">
        <ele>707.7</ele>
        <time>2026-07-08T10:28:27.000Z</time>
      </trkpt>
      <trkpt lat="45.78568" lon="1.88071">
        <ele>707.7</ele>
        <time>2026-07-08T10:28:28.000Z</time>
      </trkpt>
      <trkpt lat="45.78568" lon="1.88071">
        <ele>707.7</ele>
        <time>2026-07-08T10:28:29.000Z</time>
      </trkpt>
      <trkpt lat="45.78568" lon="1.88071">
        <ele>707.7</ele>
        <time>2026-07-08T10:28:30.000Z</time>
      </trkpt>
      <trkpt lat="45.78568" lon="1.88071">
        <ele>707.7</ele>
        <time>2026-07-08T10:28:31.000Z</time>
      </trkpt>
      <trkpt lat="45.78568" lon="1.88071">
        <ele>707.7</ele>
        <time>2026-07-08T10:28:32.000Z</time>
      </trkpt>
      <trkpt lat="45.78568" lon="1.88071">
        <ele>707.2</ele>
        <time>2026-07-08T10:28:33.000Z</time>
      </trkpt>
      <trkpt lat="45.78569" lon="1.88071">
        <ele>707.1</ele>
        <time>2026-07-08T10:28:34.000Z</time>
      </trkpt>
      <trkpt lat="45.78569" lon="1.88071">
        <ele>707.1</ele>
        <time>2026-07-08T10:28:35.000Z</time>
      </trkpt>
      <trkpt lat="45.78569" lon="1.8807">
        <ele>707.5</ele>
        <time>2026-07-08T10:28:36.000Z</time>
      </trkpt>
      <trkpt lat="45.78569" lon="1.8807">
        <ele>707.5</ele>
        <time>2026-07-08T10:28:37.000Z</time>
      </trkpt>
      <trkpt lat="45.78569" lon="1.8807">
        <ele>707.5</ele>
        <time>2026-07-08T10:28:38.000Z</time>
      </trkpt>
      <trkpt lat="45.78569" lon="1.8807">
        <ele>707.3</ele>
        <time>2026-07-08T10:28:39.000Z</time>
      </trkpt>
      <trkpt lat="45.78569" lon="1.88069">
        <ele>706.7</ele>
        <time>2026-07-08T10:28:40.000Z</time>
      </trkpt>
      <trkpt lat="45.7857" lon="1.88069">
        <ele>706.7</ele>
        <time>2026-07-08T10:28:41.000Z</time>
      </trkpt>
      <trkpt lat="45.7857" lon="1.88069">
        <ele>706.1</ele>
        <time>2026-07-08T10:28:42.000Z</time>
      </trkpt>
      <trkpt lat="45.7857" lon="1.88068">
        <ele>706</ele>
        <time>2026-07-08T10:28:43.000Z</time>
      </trkpt>
      <trkpt lat="45.7857" lon="1.88067">
        <ele>706</ele>
        <time>2026-07-08T10:28:44.000Z</time>
      </trkpt>
      <trkpt lat="45.7857" lon="1.88067">
        <ele>706</ele>
        <time>2026-07-08T10:28:45.000Z</time>
      </trkpt>
      <trkpt lat="45.7857" lon="1.88067">
        <ele>706</ele>
        <time>2026-07-08T10:28:46.000Z</time>
      </trkpt>
      <trkpt lat="45.7857" lon="1.88067">
        <ele>706</ele>
        <time>2026-07-08T10:28:47.000Z</time>
      </trkpt>
      <trkpt lat="45.7857" lon="1.88067">
        <ele>706.3</ele>
        <time>2026-07-08T10:28:48.000Z</time>
      </trkpt>
      <trkpt lat="45.7857" lon="1.88067">
        <ele>706.4</ele>
        <time>2026-07-08T10:28:49.000Z</time>
      </trkpt>
      <trkpt lat="45.7857" lon="1.88067">
        <ele>706.1</ele>
        <time>2026-07-08T10:28:50.000Z</time>
      </trkpt>
      <trkpt lat="45.7857" lon="1.88067">
        <ele>706.1</ele>
        <time>2026-07-08T10:28:51.000Z</time>
      </trkpt>
      <trkpt lat="45.7857" lon="1.88067">
        <ele>706.1</ele>
        <time>2026-07-08T10:28:52.000Z</time>
      </trkpt>
      <trkpt lat="45.7857" lon="1.88067">
        <ele>706.1</ele>
        <time>2026-07-08T10:28:53.000Z</time>
      </trkpt>
      <trkpt lat="45.7857" lon="1.88067">
        <ele>706.1</ele>
        <time>2026-07-08T10:28:54.000Z</time>
      </trkpt>
      <trkpt lat="45.7857" lon="1.88067">
        <ele>706.5</ele>
        <time>2026-07-08T10:28:55.000Z</time>
      </trkpt>
      <trkpt lat="45.7857" lon="1.88067">
        <ele>706.5</ele>
        <time>2026-07-08T10:28:56.000Z</time>
      </trkpt>
      <trkpt lat="45.7857" lon="1.88067">
        <ele>706.8</ele>
        <time>2026-07-08T10:28:57.000Z</time>
      </trkpt>
      <trkpt lat="45.78569" lon="1.88067">
        <ele>706.9</ele>
        <time>2026-07-08T10:28:58.000Z</time>
      </trkpt>
      <trkpt lat="45.78569" lon="1.88067">
        <ele>706.9</ele>
        <time>2026-07-08T10:28:59.000Z</time>
      </trkpt>
      <trkpt lat="45.7857" lon="1.88066">
        <ele>707.1</ele>
        <time>2026-07-08T10:29:00.000Z</time>
      </trkpt>
      <trkpt lat="45.7857" lon="1.88065">
        <ele>706.6</ele>
        <time>2026-07-08T10:29:01.000Z</time>
      </trkpt>
      <trkpt lat="45.78569" lon="1.88064">
        <ele>706.4</ele>
        <time>2026-07-08T10:29:02.000Z</time>
      </trkpt>
      <trkpt lat="45.78568" lon="1.88063">
        <ele>707.3</ele>
        <time>2026-07-08T10:29:03.000Z</time>
      </trkpt>
      <trkpt lat="45.78568" lon="1.88062">
        <ele>707.2</ele>
        <time>2026-07-08T10:29:04.000Z</time>
      </trkpt>
      <trkpt lat="45.78568" lon="1.88062">
        <ele>707.1</ele>
        <time>2026-07-08T10:29:05.000Z</time>
      </trkpt>
      <trkpt lat="45.78568" lon="1.88062">
        <ele>707.1</ele>
        <time>2026-07-08T10:29:06.000Z</time>
      </trkpt>
      <trkpt lat="45.78568" lon="1.88062">
        <ele>707.1</ele>
        <time>2026-07-08T10:29:07.000Z</time>
      </trkpt>
      <trkpt lat="45.78568" lon="1.88062">
        <ele>707.1</ele>
        <time>2026-07-08T10:29:08.000Z</time>
      </trkpt>
      <trkpt lat="45.78568" lon="1.88062">
        <ele>707.1</ele>
        <time>2026-07-08T10:29:09.000Z</time>
      </trkpt>
      <trkpt lat="45.78568" lon="1.88062">
        <ele>707.1</ele>
        <time>2026-07-08T10:29:10.000Z</time>
      </trkpt>
      <trkpt lat="45.78568" lon="1.88062">
        <ele>707.1</ele>
        <time>2026-07-08T10:29:11.000Z</time>
      </trkpt>
      <trkpt lat="45.78568" lon="1.88062">
        <ele>707.1</ele>
        <time>2026-07-08T10:29:12.000Z</time>
      </trkpt>
      <trkpt lat="45.78568" lon="1.88062">
        <ele>707.1</ele>
        <time>2026-07-08T10:29:13.000Z</time>
      </trkpt>
      <trkpt lat="45.78568" lon="1.88062">
        <ele>707.2</ele>
        <time>2026-07-08T10:29:14.000Z</time>
      </trkpt>
      <trkpt lat="45.78568" lon="1.88062">
        <ele>707.2</ele>
        <time>2026-07-08T10:29:15.000Z</time>
      </trkpt>
      <trkpt lat="45.78568" lon="1.88062">
        <ele>707.2</ele>
        <time>2026-07-08T10:29:16.000Z</time>
      </trkpt>
      <trkpt lat="45.78568" lon="1.88062">
        <ele>707</ele>
        <time>2026-07-08T10:29:17.000Z</time>
      </trkpt>
      <trkpt lat="45.78568" lon="1.88062">
        <ele>707</ele>
        <time>2026-07-08T10:29:18.000Z</time>
      </trkpt>
      <trkpt lat="45.78567" lon="1.8806">
        <ele>707.9</ele>
        <time>2026-07-08T10:29:19.000Z</time>
      </trkpt>
      <trkpt lat="45.78567" lon="1.8806">
        <ele>707.3</ele>
        <time>2026-07-08T10:29:20.000Z</time>
      </trkpt>
      <trkpt lat="45.78566" lon="1.88059">
        <ele>706.3</ele>
        <time>2026-07-08T10:29:21.000Z</time>
      </trkpt>
      <trkpt lat="45.78566" lon="1.88058">
        <ele>705.7</ele>
        <time>2026-07-08T10:29:22.000Z</time>
      </trkpt>
      <trkpt lat="45.78566" lon="1.88059">
        <ele>705.8</ele>
        <time>2026-07-08T10:29:23.000Z</time>
      </trkpt>
      <trkpt lat="45.78566" lon="1.88059">
        <ele>705.8</ele>
        <time>2026-07-08T10:29:24.000Z</time>
      </trkpt>
      <trkpt lat="45.78566" lon="1.88059">
        <ele>705.8</ele>
        <time>2026-07-08T10:29:25.000Z</time>
      </trkpt>
      <trkpt lat="45.78566" lon="1.88059">
        <ele>705.8</ele>
        <time>2026-07-08T10:29:26.000Z</time>
      </trkpt>
      <trkpt lat="45.78566" lon="1.8806">
        <ele>705.5</ele>
        <time>2026-07-08T10:29:27.000Z</time>
      </trkpt>
      <trkpt lat="45.78566" lon="1.8806">
        <ele>705.5</ele>
        <time>2026-07-08T10:29:28.000Z</time>
      </trkpt>
      <trkpt lat="45.78566" lon="1.8806">
        <ele>705.5</ele>
        <time>2026-07-08T10:29:29.000Z</time>
      </trkpt>
      <trkpt lat="45.78566" lon="1.8806">
        <ele>705.5</ele>
        <time>2026-07-08T10:29:30.000Z</time>
      </trkpt>
      <trkpt lat="45.78566" lon="1.8806">
        <ele>705.3</ele>
        <time>2026-07-08T10:29:31.000Z</time>
      </trkpt>
      <trkpt lat="45.78566" lon="1.8806">
        <ele>705</ele>
        <time>2026-07-08T10:29:32.000Z</time>
      </trkpt>
      <trkpt lat="45.78567" lon="1.8806">
        <ele>704.8</ele>
        <time>2026-07-08T10:29:33.000Z</time>
      </trkpt>
      <trkpt lat="45.78566" lon="1.8806">
        <ele>704.8</ele>
        <time>2026-07-08T10:29:34.000Z</time>
      </trkpt>
      <trkpt lat="45.78566" lon="1.8806">
        <ele>704.8</ele>
        <time>2026-07-08T10:29:35.000Z</time>
      </trkpt>
      <trkpt lat="45.78567" lon="1.8806">
        <ele>704.8</ele>
        <time>2026-07-08T10:29:36.000Z</time>
      </trkpt>
      <trkpt lat="45.78567" lon="1.8806">
        <ele>704.8</ele>
        <time>2026-07-08T10:29:37.000Z</time>
      </trkpt>
      <trkpt lat="45.78567" lon="1.8806">
        <ele>704.8</ele>
        <time>2026-07-08T10:29:38.000Z</time>
      </trkpt>
      <trkpt lat="45.78567" lon="1.8806">
        <ele>704.8</ele>
        <time>2026-07-08T10:29:39.000Z</time>
      </trkpt>
      <trkpt lat="45.78567" lon="1.8806">
        <ele>704.8</ele>
        <time>2026-07-08T10:29:40.000Z</time>
      </trkpt>
      <trkpt lat="45.78567" lon="1.88061">
        <ele>704.4</ele>
        <time>2026-07-08T10:29:41.000Z</time>
      </trkpt>
      <trkpt lat="45.78567" lon="1.8806">
        <ele>704.4</ele>
        <time>2026-07-08T10:29:42.000Z</time>
      </trkpt>
      <trkpt lat="45.78568" lon="1.8806">
        <ele>704.2</ele>
        <time>2026-07-08T10:29:43.000Z</time>
      </trkpt>
      <trkpt lat="45.78569" lon="1.88059">
        <ele>704.5</ele>
        <time>2026-07-08T10:29:44.000Z</time>
      </trkpt>
      <trkpt lat="45.7857" lon="1.88058">
        <ele>705.5</ele>
        <time>2026-07-08T10:29:45.000Z</time>
      </trkpt>
      <trkpt lat="45.78571" lon="1.88058">
        <ele>705.4</ele>
        <time>2026-07-08T10:29:46.000Z</time>
      </trkpt>
      <trkpt lat="45.78572" lon="1.88057">
        <ele>705.2</ele>
        <time>2026-07-08T10:29:47.000Z</time>
      </trkpt>
      <trkpt lat="45.78572" lon="1.88056">
        <ele>705.6</ele>
        <time>2026-07-08T10:29:48.000Z</time>
      </trkpt>
      <trkpt lat="45.78573" lon="1.88056">
        <ele>705.8</ele>
        <time>2026-07-08T10:29:49.000Z</time>
      </trkpt>
      <trkpt lat="45.78573" lon="1.88056">
        <ele>705.9</ele>
        <time>2026-07-08T10:29:50.000Z</time>
      </trkpt>
      <trkpt lat="45.78573" lon="1.88056">
        <ele>705.9</ele>
        <time>2026-07-08T10:29:51.000Z</time>
      </trkpt>
      <trkpt lat="45.78573" lon="1.88056">
        <ele>705.9</ele>
        <time>2026-07-08T10:29:52.000Z</time>
      </trkpt>
      <trkpt lat="45.78573" lon="1.88056">
        <ele>706</ele>
        <time>2026-07-08T10:29:53.000Z</time>
      </trkpt>
      <trkpt lat="45.78573" lon="1.88056">
        <ele>706.5</ele>
        <time>2026-07-08T10:29:54.000Z</time>
      </trkpt>
      <trkpt lat="45.78573" lon="1.88057">
        <ele>707.2</ele>
        <time>2026-07-08T10:29:55.000Z</time>
      </trkpt>
      <trkpt lat="45.78573" lon="1.88057">
        <ele>707.1</ele>
        <time>2026-07-08T10:29:56.000Z</time>
      </trkpt>
      <trkpt lat="45.78573" lon="1.88057">
        <ele>707.4</ele>
        <time>2026-07-08T10:29:57.000Z</time>
      </trkpt>
      <trkpt lat="45.78573" lon="1.88058">
        <ele>707.3</ele>
        <time>2026-07-08T10:29:58.000Z</time>
      </trkpt>
      <trkpt lat="45.78574" lon="1.88059">
        <ele>707.3</ele>
        <time>2026-07-08T10:29:59.000Z</time>
      </trkpt>
      <trkpt lat="45.78573" lon="1.88057">
        <ele>707.2</ele>
        <time>2026-07-08T10:30:00.000Z</time>
      </trkpt>
      <trkpt lat="45.78573" lon="1.88057">
        <ele>707.2</ele>
        <time>2026-07-08T10:30:01.000Z</time>
      </trkpt>
      <trkpt lat="45.78573" lon="1.88058">
        <ele>707.2</ele>
        <time>2026-07-08T10:30:02.000Z</time>
      </trkpt>
      <trkpt lat="45.78573" lon="1.88058">
        <ele>707.2</ele>
        <time>2026-07-08T10:30:03.000Z</time>
      </trkpt>
      <trkpt lat="45.78573" lon="1.88058">
        <ele>707.2</ele>
        <time>2026-07-08T10:30:04.000Z</time>
      </trkpt>
      <trkpt lat="45.78573" lon="1.88058">
        <ele>707.2</ele>
        <time>2026-07-08T10:30:05.000Z</time>
      </trkpt>
      <trkpt lat="45.78573" lon="1.88058">
        <ele>707.2</ele>
        <time>2026-07-08T10:30:06.000Z</time>
      </trkpt>
      <trkpt lat="45.78572" lon="1.88057">
        <ele>707.3</ele>
        <time>2026-07-08T10:30:07.000Z</time>
      </trkpt>
      <trkpt lat="45.78572" lon="1.88057">
        <ele>707.2</ele>
        <time>2026-07-08T10:30:08.000Z</time>
      </trkpt>
      <trkpt lat="45.78573" lon="1.88057">
        <ele>707.4</ele>
        <time>2026-07-08T10:30:09.000Z</time>
      </trkpt>
      <trkpt lat="45.78573" lon="1.88057">
        <ele>707.7</ele>
        <time>2026-07-08T10:30:10.000Z</time>
      </trkpt>
      <trkpt lat="45.78573" lon="1.88056">
        <ele>707.7</ele>
        <time>2026-07-08T10:30:11.000Z</time>
      </trkpt>
      <trkpt lat="45.78574" lon="1.88055">
        <ele>708</ele>
        <time>2026-07-08T10:30:12.000Z</time>
      </trkpt>
      <trkpt lat="45.78574" lon="1.88055">
        <ele>707.7</ele>
        <time>2026-07-08T10:30:13.000Z</time>
      </trkpt>
      <trkpt lat="45.78574" lon="1.88055">
        <ele>707.7</ele>
        <time>2026-07-08T10:30:14.000Z</time>
      </trkpt>
      <trkpt lat="45.78574" lon="1.88055">
        <ele>707.7</ele>
        <time>2026-07-08T10:30:15.000Z</time>
      </trkpt>
      <trkpt lat="45.78574" lon="1.88055">
        <ele>707.7</ele>
        <time>2026-07-08T10:30:16.000Z</time>
      </trkpt>
      <trkpt lat="45.78574" lon="1.88054">
        <ele>707.3</ele>
        <time>2026-07-08T10:30:17.000Z</time>
      </trkpt>
      <trkpt lat="45.78575" lon="1.88054">
        <ele>707.2</ele>
        <time>2026-07-08T10:30:18.000Z</time>
      </trkpt>
      <trkpt lat="45.78575" lon="1.88054">
        <ele>707.2</ele>
        <time>2026-07-08T10:30:19.000Z</time>
      </trkpt>
      <trkpt lat="45.78575" lon="1.88054">
        <ele>707.2</ele>
        <time>2026-07-08T10:30:20.000Z</time>
      </trkpt>
      <trkpt lat="45.78575" lon="1.88054">
        <ele>707.2</ele>
        <time>2026-07-08T10:30:21.000Z</time>
      </trkpt>
      <trkpt lat="45.78575" lon="1.88054">
        <ele>707.2</ele>
        <time>2026-07-08T10:30:22.000Z</time>
      </trkpt>
      <trkpt lat="45.78575" lon="1.88054">
        <ele>707.2</ele>
        <time>2026-07-08T10:30:23.000Z</time>
      </trkpt>
      <trkpt lat="45.78575" lon="1.88054">
        <ele>707.2</ele>
        <time>2026-07-08T10:30:24.000Z</time>
      </trkpt>
      <trkpt lat="45.78575" lon="1.88054">
        <ele>707.2</ele>
        <time>2026-07-08T10:30:25.000Z</time>
      </trkpt>
      <trkpt lat="45.78575" lon="1.88054">
        <ele>707.2</ele>
        <time>2026-07-08T10:30:26.000Z</time>
      </trkpt>
      <trkpt lat="45.78575" lon="1.88054">
        <ele>707.5</ele>
        <time>2026-07-08T10:30:27.000Z</time>
      </trkpt>
      <trkpt lat="45.78575" lon="1.88054">
        <ele>707.7</ele>
        <time>2026-07-08T10:30:28.000Z</time>
      </trkpt>
      <trkpt lat="45.78575" lon="1.88054">
        <ele>707.7</ele>
        <time>2026-07-08T10:30:29.000Z</time>
      </trkpt>
      <trkpt lat="45.78575" lon="1.88054">
        <ele>707.7</ele>
        <time>2026-07-08T10:30:30.000Z</time>
      </trkpt>
      <trkpt lat="45.78575" lon="1.88054">
        <ele>707.7</ele>
        <time>2026-07-08T10:30:31.000Z</time>
      </trkpt>
      <trkpt lat="45.78575" lon="1.88054">
        <ele>707.7</ele>
        <time>2026-07-08T10:30:32.000Z</time>
      </trkpt>
      <trkpt lat="45.78575" lon="1.88054">
        <ele>707.7</ele>
        <time>2026-07-08T10:30:33.000Z</time>
      </trkpt>
      <trkpt lat="45.78575" lon="1.88054">
        <ele>707.7</ele>
        <time>2026-07-08T10:30:34.000Z</time>
      </trkpt>
      <trkpt lat="45.78575" lon="1.88054">
        <ele>707.7</ele>
        <time>2026-07-08T10:30:35.000Z</time>
      </trkpt>
      <trkpt lat="45.78575" lon="1.88054">
        <ele>707.9</ele>
        <time>2026-07-08T10:30:36.000Z</time>
      </trkpt>
      <trkpt lat="45.78575" lon="1.88053">
        <ele>707.8</ele>
        <time>2026-07-08T10:30:37.000Z</time>
      </trkpt>
      <trkpt lat="45.78575" lon="1.88053">
        <ele>707.9</ele>
        <time>2026-07-08T10:30:38.000Z</time>
      </trkpt>
      <trkpt lat="45.78576" lon="1.88053">
        <ele>707.9</ele>
        <time>2026-07-08T10:30:39.000Z</time>
      </trkpt>
      <trkpt lat="45.78576" lon="1.88053">
        <ele>707.9</ele>
        <time>2026-07-08T10:30:40.000Z</time>
      </trkpt>
      <trkpt lat="45.78576" lon="1.88053">
        <ele>707.9</ele>
        <time>2026-07-08T10:30:41.000Z</time>
      </trkpt>
      <trkpt lat="45.78576" lon="1.88053">
        <ele>707.9</ele>
        <time>2026-07-08T10:30:42.000Z</time>
      </trkpt>
      <trkpt lat="45.78576" lon="1.88053">
        <ele>707.9</ele>
        <time>2026-07-08T10:30:43.000Z</time>
      </trkpt>
      <trkpt lat="45.78576" lon="1.88053">
        <ele>707.9</ele>
        <time>2026-07-08T10:30:44.000Z</time>
      </trkpt>
      <trkpt lat="45.78576" lon="1.88053">
        <ele>707.9</ele>
        <time>2026-07-08T10:30:45.000Z</time>
      </trkpt>
      <trkpt lat="45.78576" lon="1.88053">
        <ele>707.9</ele>
        <time>2026-07-08T10:30:46.000Z</time>
      </trkpt>
      <trkpt lat="45.78576" lon="1.88053">
        <ele>707.9</ele>
        <time>2026-07-08T10:30:47.000Z</time>
      </trkpt>
      <trkpt lat="45.78575" lon="1.88054">
        <ele>707.7</ele>
        <time>2026-07-08T10:30:48.000Z</time>
      </trkpt>
      <trkpt lat="45.78575" lon="1.88054">
        <ele>707.7</ele>
        <time>2026-07-08T10:30:49.000Z</time>
      </trkpt>
      <trkpt lat="45.78575" lon="1.88054">
        <ele>707.7</ele>
        <time>2026-07-08T10:30:50.000Z</time>
      </trkpt>
      <trkpt lat="45.78575" lon="1.88054">
        <ele>707.7</ele>
        <time>2026-07-08T10:30:51.000Z</time>
      </trkpt>
      <trkpt lat="45.78576" lon="1.88053">
        <ele>707.7</ele>
        <time>2026-07-08T10:30:52.000Z</time>
      </trkpt>
      <trkpt lat="45.78576" lon="1.88053">
        <ele>707.8</ele>
        <time>2026-07-08T10:30:53.000Z</time>
      </trkpt>
      <trkpt lat="45.78576" lon="1.88053">
        <ele>707.7</ele>
        <time>2026-07-08T10:30:54.000Z</time>
      </trkpt>
      <trkpt lat="45.78576" lon="1.88053">
        <ele>707.7</ele>
        <time>2026-07-08T10:30:55.000Z</time>
      </trkpt>
      <trkpt lat="45.78576" lon="1.88053">
        <ele>707.8</ele>
        <time>2026-07-08T10:30:56.000Z</time>
      </trkpt>
      <trkpt lat="45.78576" lon="1.88053">
        <ele>707.8</ele>
        <time>2026-07-08T10:30:57.000Z</time>
      </trkpt>
      <trkpt lat="45.78576" lon="1.88052">
        <ele>707.5</ele>
        <time>2026-07-08T10:30:58.000Z</time>
      </trkpt>
      <trkpt lat="45.78576" lon="1.88052">
        <ele>706.8</ele>
        <time>2026-07-08T10:30:59.000Z</time>
      </trkpt>
      <trkpt lat="45.78576" lon="1.88053">
        <ele>706.7</ele>
        <time>2026-07-08T10:31:00.000Z</time>
      </trkpt>
      <trkpt lat="45.78576" lon="1.88053">
        <ele>706.5</ele>
        <time>2026-07-08T10:31:01.000Z</time>
      </trkpt>
      <trkpt lat="45.78577" lon="1.88053">
        <ele>706.5</ele>
        <time>2026-07-08T10:31:02.000Z</time>
      </trkpt>
      <trkpt lat="45.78577" lon="1.88053">
        <ele>706.5</ele>
        <time>2026-07-08T10:31:03.000Z</time>
      </trkpt>
      <trkpt lat="45.78577" lon="1.88053">
        <ele>706.5</ele>
        <time>2026-07-08T10:31:04.000Z</time>
      </trkpt>
      <trkpt lat="45.78577" lon="1.88053">
        <ele>706.5</ele>
        <time>2026-07-08T10:31:05.000Z</time>
      </trkpt>
      <trkpt lat="45.78577" lon="1.88053">
        <ele>706.5</ele>
        <time>2026-07-08T10:31:06.000Z</time>
      </trkpt>
      <trkpt lat="45.78577" lon="1.88053">
        <ele>706.5</ele>
        <time>2026-07-08T10:31:07.000Z</time>
      </trkpt>
      <trkpt lat="45.78577" lon="1.88053">
        <ele>706.5</ele>
        <time>2026-07-08T10:31:08.000Z</time>
      </trkpt>
      <trkpt lat="45.78577" lon="1.88053">
        <ele>706.5</ele>
        <time>2026-07-08T10:31:09.000Z</time>
      </trkpt>
      <trkpt lat="45.78577" lon="1.88053">
        <ele>706.5</ele>
        <time>2026-07-08T10:31:10.000Z</time>
      </trkpt>
      <trkpt lat="45.78576" lon="1.88053">
        <ele>706.5</ele>
        <time>2026-07-08T10:31:11.000Z</time>
      </trkpt>
      <trkpt lat="45.78576" lon="1.88053">
        <ele>706.5</ele>
        <time>2026-07-08T10:31:12.000Z</time>
      </trkpt>
      <trkpt lat="45.78576" lon="1.88053">
        <ele>706.4</ele>
        <time>2026-07-08T10:31:13.000Z</time>
      </trkpt>
      <trkpt lat="45.78576" lon="1.88054">
        <ele>706.2</ele>
        <time>2026-07-08T10:31:14.000Z</time>
      </trkpt>
      <trkpt lat="45.78575" lon="1.88054">
        <ele>705.7</ele>
        <time>2026-07-08T10:31:15.000Z</time>
      </trkpt>
      <trkpt lat="45.78574" lon="1.88055">
        <ele>706.3</ele>
        <time>2026-07-08T10:31:16.000Z</time>
      </trkpt>
      <trkpt lat="45.78574" lon="1.88055">
        <ele>706.3</ele>
        <time>2026-07-08T10:31:17.000Z</time>
      </trkpt>
      <trkpt lat="45.78574" lon="1.88055">
        <ele>706.3</ele>
        <time>2026-07-08T10:31:18.000Z</time>
      </trkpt>
      <trkpt lat="45.78574" lon="1.88055">
        <ele>706.3</ele>
        <time>2026-07-08T10:31:19.000Z</time>
      </trkpt>
      <trkpt lat="45.78574" lon="1.88055">
        <ele>706.1</ele>
        <time>2026-07-08T10:31:20.000Z</time>
      </trkpt>
      <trkpt lat="45.78574" lon="1.88055">
        <ele>706.1</ele>
        <time>2026-07-08T10:31:21.000Z</time>
      </trkpt>
      <trkpt lat="45.78574" lon="1.88055">
        <ele>706.1</ele>
        <time>2026-07-08T10:31:22.000Z</time>
      </trkpt>
      <trkpt lat="45.78574" lon="1.88056">
        <ele>705.8</ele>
        <time>2026-07-08T10:31:23.000Z</time>
      </trkpt>
      <trkpt lat="45.78573" lon="1.88056">
        <ele>705.7</ele>
        <time>2026-07-08T10:31:24.000Z</time>
      </trkpt>
      <trkpt lat="45.78573" lon="1.88058">
        <ele>705.6</ele>
        <time>2026-07-08T10:31:25.000Z</time>
      </trkpt>
      <trkpt lat="45.78572" lon="1.8806">
        <ele>705.6</ele>
        <time>2026-07-08T10:31:26.000Z</time>
      </trkpt>
      <trkpt lat="45.78572" lon="1.88062">
        <ele>705.1</ele>
        <time>2026-07-08T10:31:27.000Z</time>
      </trkpt>
      <trkpt lat="45.78571" lon="1.88064">
        <ele>705.1</ele>
        <time>2026-07-08T10:31:28.000Z</time>
      </trkpt>
      <trkpt lat="45.78571" lon="1.88065">
        <ele>704.7</ele>
        <time>2026-07-08T10:31:29.000Z</time>
      </trkpt>
      <trkpt lat="45.7857" lon="1.88066">
        <ele>705.8</ele>
        <time>2026-07-08T10:31:30.000Z</time>
      </trkpt>
      <trkpt lat="45.7857" lon="1.88067">
        <ele>706.2</ele>
        <time>2026-07-08T10:31:31.000Z</time>
      </trkpt>
      <trkpt lat="45.78569" lon="1.88068">
        <ele>705.8</ele>
        <time>2026-07-08T10:31:32.000Z</time>
      </trkpt>
      <trkpt lat="45.78569" lon="1.88069">
        <ele>705.5</ele>
        <time>2026-07-08T10:31:33.000Z</time>
      </trkpt>
      <trkpt lat="45.78568" lon="1.8807">
        <ele>704.8</ele>
        <time>2026-07-08T10:31:34.000Z</time>
      </trkpt>
      <trkpt lat="45.78567" lon="1.88072">
        <ele>704.6</ele>
        <time>2026-07-08T10:31:35.000Z</time>
      </trkpt>
      <trkpt lat="45.78566" lon="1.88073">
        <ele>704.4</ele>
        <time>2026-07-08T10:31:36.000Z</time>
      </trkpt>
      <trkpt lat="45.78566" lon="1.88075">
        <ele>704.4</ele>
        <time>2026-07-08T10:31:37.000Z</time>
      </trkpt>
      <trkpt lat="45.78565" lon="1.88077">
        <ele>705.2</ele>
        <time>2026-07-08T10:31:38.000Z</time>
      </trkpt>
      <trkpt lat="45.78564" lon="1.88079">
        <ele>705.2</ele>
        <time>2026-07-08T10:31:39.000Z</time>
      </trkpt>
      <trkpt lat="45.78564" lon="1.8808">
        <ele>705.1</ele>
        <time>2026-07-08T10:31:40.000Z</time>
      </trkpt>
      <trkpt lat="45.78563" lon="1.88081">
        <ele>705.6</ele>
        <time>2026-07-08T10:31:41.000Z</time>
      </trkpt>
      <trkpt lat="45.78563" lon="1.88083">
        <ele>705.9</ele>
        <time>2026-07-08T10:31:42.000Z</time>
      </trkpt>
      <trkpt lat="45.78562" lon="1.88085">
        <ele>706</ele>
        <time>2026-07-08T10:31:43.000Z</time>
      </trkpt>
      <trkpt lat="45.78561" lon="1.88086">
        <ele>706.1</ele>
        <time>2026-07-08T10:31:44.000Z</time>
      </trkpt>
      <trkpt lat="45.7856" lon="1.88088">
        <ele>706.6</ele>
        <time>2026-07-08T10:31:45.000Z</time>
      </trkpt>
      <trkpt lat="45.78559" lon="1.88089">
        <ele>706.7</ele>
        <time>2026-07-08T10:31:46.000Z</time>
      </trkpt>
      <trkpt lat="45.78559" lon="1.88091">
        <ele>707</ele>
        <time>2026-07-08T10:31:47.000Z</time>
      </trkpt>
      <trkpt lat="45.78558" lon="1.88092">
        <ele>707.2</ele>
        <time>2026-07-08T10:31:48.000Z</time>
      </trkpt>
      <trkpt lat="45.78557" lon="1.88092">
        <ele>709</ele>
        <time>2026-07-08T10:31:49.000Z</time>
      </trkpt>
      <trkpt lat="45.78558" lon="1.8809">
        <ele>706.5</ele>
        <time>2026-07-08T10:31:50.000Z</time>
      </trkpt>
      <trkpt lat="45.78558" lon="1.88089">
        <ele>706.3</ele>
        <time>2026-07-08T10:31:51.000Z</time>
      </trkpt>
      <trkpt lat="45.78557" lon="1.88089">
        <ele>707.2</ele>
        <time>2026-07-08T10:31:52.000Z</time>
      </trkpt>
      <trkpt lat="45.78557" lon="1.88089">
        <ele>707.2</ele>
        <time>2026-07-08T10:31:53.000Z</time>
      </trkpt>
      <trkpt lat="45.78557" lon="1.88089">
        <ele>707.2</ele>
        <time>2026-07-08T10:31:54.000Z</time>
      </trkpt>
      <trkpt lat="45.78557" lon="1.88089">
        <ele>707.9</ele>
        <time>2026-07-08T10:31:55.000Z</time>
      </trkpt>
      <trkpt lat="45.78557" lon="1.88089">
        <ele>707.9</ele>
        <time>2026-07-08T10:31:56.000Z</time>
      </trkpt>
      <trkpt lat="45.78557" lon="1.88089">
        <ele>707.9</ele>
        <time>2026-07-08T10:31:57.000Z</time>
      </trkpt>
      <trkpt lat="45.78557" lon="1.88089">
        <ele>707.9</ele>
        <time>2026-07-08T10:31:58.000Z</time>
      </trkpt>
      <trkpt lat="45.78557" lon="1.88089">
        <ele>707.9</ele>
        <time>2026-07-08T10:31:59.000Z</time>
      </trkpt>
      <trkpt lat="45.78557" lon="1.88089">
        <ele>707.9</ele>
        <time>2026-07-08T10:32:00.000Z</time>
      </trkpt>
      <trkpt lat="45.78557" lon="1.88089">
        <ele>707.9</ele>
        <time>2026-07-08T10:32:01.000Z</time>
      </trkpt>
      <trkpt lat="45.78557" lon="1.88089">
        <ele>707.9</ele>
        <time>2026-07-08T10:32:02.000Z</time>
      </trkpt>
      <trkpt lat="45.78557" lon="1.88089">
        <ele>707.9</ele>
        <time>2026-07-08T10:32:03.000Z</time>
      </trkpt>
      <trkpt lat="45.78557" lon="1.88089">
        <ele>707.9</ele>
        <time>2026-07-08T10:32:04.000Z</time>
      </trkpt>
      <trkpt lat="45.78557" lon="1.88089">
        <ele>707.9</ele>
        <time>2026-07-08T10:32:05.000Z</time>
      </trkpt>
      <trkpt lat="45.78557" lon="1.88089">
        <ele>707.9</ele>
        <time>2026-07-08T10:32:06.000Z</time>
      </trkpt>
      <trkpt lat="45.78557" lon="1.88089">
        <ele>707.9</ele>
        <time>2026-07-08T10:32:07.000Z</time>
      </trkpt>
      <trkpt lat="45.78557" lon="1.88089">
        <ele>707.9</ele>
        <time>2026-07-08T10:32:08.000Z</time>
      </trkpt>
      <trkpt lat="45.78557" lon="1.88089">
        <ele>707.9</ele>
        <time>2026-07-08T10:32:09.000Z</time>
      </trkpt>
      <trkpt lat="45.78557" lon="1.88089">
        <ele>707.9</ele>
        <time>2026-07-08T10:32:10.000Z</time>
      </trkpt>
      <trkpt lat="45.78557" lon="1.88089">
        <ele>707.9</ele>
        <time>2026-07-08T10:32:11.000Z</time>
      </trkpt>
      <trkpt lat="45.78557" lon="1.88089">
        <ele>707.9</ele>
        <time>2026-07-08T10:32:12.000Z</time>
      </trkpt>
      <trkpt lat="45.78557" lon="1.88089">
        <ele>707.9</ele>
        <time>2026-07-08T10:32:13.000Z</time>
      </trkpt>
      <trkpt lat="45.78557" lon="1.88089">
        <ele>707.9</ele>
        <time>2026-07-08T10:32:14.000Z</time>
      </trkpt>
      <trkpt lat="45.78557" lon="1.88089">
        <ele>707.9</ele>
        <time>2026-07-08T10:32:15.000Z</time>
      </trkpt>
      <trkpt lat="45.78557" lon="1.88089">
        <ele>707.9</ele>
        <time>2026-07-08T10:32:16.000Z</time>
      </trkpt>
      <trkpt lat="45.78557" lon="1.88089">
        <ele>708.2</ele>
        <time>2026-07-08T10:32:17.000Z</time>
      </trkpt>
      <trkpt lat="45.78557" lon="1.88088">
        <ele>708.2</ele>
        <time>2026-07-08T10:32:18.000Z</time>
      </trkpt>
      <trkpt lat="45.78557" lon="1.88088">
        <ele>708.2</ele>
        <time>2026-07-08T10:32:19.000Z</time>
      </trkpt>
      <trkpt lat="45.78557" lon="1.88088">
        <ele>708.2</ele>
        <time>2026-07-08T10:32:20.000Z</time>
      </trkpt>
      <trkpt lat="45.78557" lon="1.88088">
        <ele>708.2</ele>
        <time>2026-07-08T10:32:21.000Z</time>
      </trkpt>
      <trkpt lat="45.78557" lon="1.88088">
        <ele>708.2</ele>
        <time>2026-07-08T10:32:22.000Z</time>
      </trkpt>
      <trkpt lat="45.78557" lon="1.88088">
        <ele>708.2</ele>
        <time>2026-07-08T10:32:23.000Z</time>
      </trkpt>
      <trkpt lat="45.78557" lon="1.88088">
        <ele>708.2</ele>
        <time>2026-07-08T10:32:24.000Z</time>
      </trkpt>
      <trkpt lat="45.78557" lon="1.88088">
        <ele>708.2</ele>
        <time>2026-07-08T10:32:25.000Z</time>
      </trkpt>
      <trkpt lat="45.78557" lon="1.88088">
        <ele>708.2</ele>
        <time>2026-07-08T10:32:26.000Z</time>
      </trkpt>
      <trkpt lat="45.78557" lon="1.88088">
        <ele>708.2</ele>
        <time>2026-07-08T10:32:27.000Z</time>
      </trkpt>
      <trkpt lat="45.78557" lon="1.88088">
        <ele>708.3</ele>
        <time>2026-07-08T10:32:28.000Z</time>
      </trkpt>
      <trkpt lat="45.78557" lon="1.88088">
        <ele>708.7</ele>
        <time>2026-07-08T10:32:29.000Z</time>
      </trkpt>
      <trkpt lat="45.78557" lon="1.88087">
        <ele>709.1</ele>
        <time>2026-07-08T10:32:30.000Z</time>
      </trkpt>
      <trkpt lat="45.78557" lon="1.88087">
        <ele>709.1</ele>
        <time>2026-07-08T10:32:31.000Z</time>
      </trkpt>
      <trkpt lat="45.78557" lon="1.88087">
        <ele>709.1</ele>
        <time>2026-07-08T10:32:32.000Z</time>
      </trkpt>
      <trkpt lat="45.78557" lon="1.88087">
        <ele>709.1</ele>
        <time>2026-07-08T10:32:33.000Z</time>
      </trkpt>
      <trkpt lat="45.78557" lon="1.88087">
        <ele>709.1</ele>
        <time>2026-07-08T10:32:34.000Z</time>
      </trkpt>
      <trkpt lat="45.78557" lon="1.88087">
        <ele>709.1</ele>
        <time>2026-07-08T10:32:35.000Z</time>
      </trkpt>
      <trkpt lat="45.78557" lon="1.88087">
        <ele>709.1</ele>
        <time>2026-07-08T10:32:36.000Z</time>
      </trkpt>
      <trkpt lat="45.78557" lon="1.88087">
        <ele>709.1</ele>
        <time>2026-07-08T10:32:37.000Z</time>
      </trkpt>
      <trkpt lat="45.78557" lon="1.88087">
        <ele>709.1</ele>
        <time>2026-07-08T10:32:38.000Z</time>
      </trkpt>
      <trkpt lat="45.78557" lon="1.88087">
        <ele>709.1</ele>
        <time>2026-07-08T10:32:39.000Z</time>
      </trkpt>
      <trkpt lat="45.78557" lon="1.88087">
        <ele>709.1</ele>
        <time>2026-07-08T10:32:40.000Z</time>
      </trkpt>
      <trkpt lat="45.78557" lon="1.88087">
        <ele>709.1</ele>
        <time>2026-07-08T10:32:41.000Z</time>
      </trkpt>
      <trkpt lat="45.78557" lon="1.88087">
        <ele>709.1</ele>
        <time>2026-07-08T10:32:42.000Z</time>
      </trkpt>
      <trkpt lat="45.78557" lon="1.88087">
        <ele>709.1</ele>
        <time>2026-07-08T10:32:43.000Z</time>
      </trkpt>
      <trkpt lat="45.78557" lon="1.88087">
        <ele>709.1</ele>
        <time>2026-07-08T10:32:44.000Z</time>
      </trkpt>
      <trkpt lat="45.78557" lon="1.88087">
        <ele>709.1</ele>
        <time>2026-07-08T10:32:45.000Z</time>
      </trkpt>
      <trkpt lat="45.78557" lon="1.88087">
        <ele>709.1</ele>
        <time>2026-07-08T10:32:46.000Z</time>
      </trkpt>
      <trkpt lat="45.78556" lon="1.88087">
        <ele>708.8</ele>
        <time>2026-07-08T10:32:47.000Z</time>
      </trkpt>
      <trkpt lat="45.78556" lon="1.88086">
        <ele>708.6</ele>
        <time>2026-07-08T10:32:48.000Z</time>
      </trkpt>
      <trkpt lat="45.78556" lon="1.88086">
        <ele>708.6</ele>
        <time>2026-07-08T10:32:49.000Z</time>
      </trkpt>
      <trkpt lat="45.78556" lon="1.88086">
        <ele>708.6</ele>
        <time>2026-07-08T10:32:50.000Z</time>
      </trkpt>
      <trkpt lat="45.78556" lon="1.88086">
        <ele>708.6</ele>
        <time>2026-07-08T10:32:51.000Z</time>
      </trkpt>
      <trkpt lat="45.78556" lon="1.88086">
        <ele>708.6</ele>
        <time>2026-07-08T10:32:52.000Z</time>
      </trkpt>
      <trkpt lat="45.78556" lon="1.88086">
        <ele>708.6</ele>
        <time>2026-07-08T10:32:53.000Z</time>
      </trkpt>
      <trkpt lat="45.78556" lon="1.88086">
        <ele>708.6</ele>
        <time>2026-07-08T10:32:54.000Z</time>
      </trkpt>
      <trkpt lat="45.78556" lon="1.88086">
        <ele>708.6</ele>
        <time>2026-07-08T10:32:55.000Z</time>
      </trkpt>
      <trkpt lat="45.78556" lon="1.88086">
        <ele>708.6</ele>
        <time>2026-07-08T10:32:56.000Z</time>
      </trkpt>
      <trkpt lat="45.78556" lon="1.88086">
        <ele>708.6</ele>
        <time>2026-07-08T10:32:57.000Z</time>
      </trkpt>
      <trkpt lat="45.78556" lon="1.88086">
        <ele>708.6</ele>
        <time>2026-07-08T10:32:58.000Z</time>
      </trkpt>
      <trkpt lat="45.78556" lon="1.88086">
        <ele>708.6</ele>
        <time>2026-07-08T10:32:59.000Z</time>
      </trkpt>
      <trkpt lat="45.78556" lon="1.88086">
        <ele>708.6</ele>
        <time>2026-07-08T10:33:00.000Z</time>
      </trkpt>
      <trkpt lat="45.78556" lon="1.88086">
        <ele>708.6</ele>
        <time>2026-07-08T10:33:01.000Z</time>
      </trkpt>
      <trkpt lat="45.78556" lon="1.88086">
        <ele>708.6</ele>
        <time>2026-07-08T10:33:02.000Z</time>
      </trkpt>
      <trkpt lat="45.78556" lon="1.88086">
        <ele>708.6</ele>
        <time>2026-07-08T10:33:03.000Z</time>
      </trkpt>
      <trkpt lat="45.78556" lon="1.88086">
        <ele>708.6</ele>
        <time>2026-07-08T10:33:04.000Z</time>
      </trkpt>
      <trkpt lat="45.78556" lon="1.88086">
        <ele>708.6</ele>
        <time>2026-07-08T10:33:05.000Z</time>
      </trkpt>
      <trkpt lat="45.78556" lon="1.88086">
        <ele>708.6</ele>
        <time>2026-07-08T10:33:06.000Z</time>
      </trkpt>
      <trkpt lat="45.78556" lon="1.88086">
        <ele>708.6</ele>
        <time>2026-07-08T10:33:07.000Z</time>
      </trkpt>
      <trkpt lat="45.78556" lon="1.88086">
        <ele>708.6</ele>
        <time>2026-07-08T10:33:08.000Z</time>
      </trkpt>
      <trkpt lat="45.78556" lon="1.88086">
        <ele>708.4</ele>
        <time>2026-07-08T10:33:09.000Z</time>
      </trkpt>
      <trkpt lat="45.78556" lon="1.88086">
        <ele>708.4</ele>
        <time>2026-07-08T10:33:10.000Z</time>
      </trkpt>
      <trkpt lat="45.78556" lon="1.88086">
        <ele>708.4</ele>
        <time>2026-07-08T10:33:11.000Z</time>
      </trkpt>
      <trkpt lat="45.78556" lon="1.88086">
        <ele>708.4</ele>
        <time>2026-07-08T10:33:12.000Z</time>
      </trkpt>
      <trkpt lat="45.78556" lon="1.88086">
        <ele>708.4</ele>
        <time>2026-07-08T10:33:13.000Z</time>
      </trkpt>
      <trkpt lat="45.78556" lon="1.88086">
        <ele>708.4</ele>
        <time>2026-07-08T10:33:14.000Z</time>
      </trkpt>
      <trkpt lat="45.78556" lon="1.88086">
        <ele>708.4</ele>
        <time>2026-07-08T10:33:15.000Z</time>
      </trkpt>
      <trkpt lat="45.78556" lon="1.88085">
        <ele>708.1</ele>
        <time>2026-07-08T10:33:16.000Z</time>
      </trkpt>
      <trkpt lat="45.78557" lon="1.88085">
        <ele>708.3</ele>
        <time>2026-07-08T10:33:17.000Z</time>
      </trkpt>
      <trkpt lat="45.78556" lon="1.88083">
        <ele>708.4</ele>
        <time>2026-07-08T10:33:18.000Z</time>
      </trkpt>
      <trkpt lat="45.78556" lon="1.88081">
        <ele>707.9</ele>
        <time>2026-07-08T10:33:19.000Z</time>
      </trkpt>
      <trkpt lat="45.78556" lon="1.8808">
        <ele>707.3</ele>
        <time>2026-07-08T10:33:20.000Z</time>
      </trkpt>
      <trkpt lat="45.78557" lon="1.88078">
        <ele>707.4</ele>
        <time>2026-07-08T10:33:21.000Z</time>
      </trkpt>
      <trkpt lat="45.78558" lon="1.88077">
        <ele>706.4</ele>
        <time>2026-07-08T10:33:22.000Z</time>
      </trkpt>
      <trkpt lat="45.78559" lon="1.88076">
        <ele>706</ele>
        <time>2026-07-08T10:33:23.000Z</time>
      </trkpt>
      <trkpt lat="45.7856" lon="1.88075">
        <ele>705.7</ele>
        <time>2026-07-08T10:33:24.000Z</time>
      </trkpt>
      <trkpt lat="45.7856" lon="1.88074">
        <ele>705.8</ele>
        <time>2026-07-08T10:33:25.000Z</time>
      </trkpt>
      <trkpt lat="45.78561" lon="1.88072">
        <ele>706.1</ele>
        <time>2026-07-08T10:33:26.000Z</time>
      </trkpt>
      <trkpt lat="45.78561" lon="1.88071">
        <ele>706.3</ele>
        <time>2026-07-08T10:33:27.000Z</time>
      </trkpt>
      <trkpt lat="45.78562" lon="1.8807">
        <ele>706.5</ele>
        <time>2026-07-08T10:33:28.000Z</time>
      </trkpt>
      <trkpt lat="45.78562" lon="1.88069">
        <ele>706.2</ele>
        <time>2026-07-08T10:33:29.000Z</time>
      </trkpt>
      <trkpt lat="45.78563" lon="1.88067">
        <ele>705.9</ele>
        <time>2026-07-08T10:33:30.000Z</time>
      </trkpt>
      <trkpt lat="45.78563" lon="1.88066">
        <ele>705.7</ele>
        <time>2026-07-08T10:33:31.000Z</time>
      </trkpt>
      <trkpt lat="45.78563" lon="1.88065">
        <ele>704.8</ele>
        <time>2026-07-08T10:33:32.000Z</time>
      </trkpt>
      <trkpt lat="45.78564" lon="1.88064">
        <ele>704.9</ele>
        <time>2026-07-08T10:33:33.000Z</time>
      </trkpt>
      <trkpt lat="45.78565" lon="1.88062">
        <ele>704.6</ele>
        <time>2026-07-08T10:33:34.000Z</time>
      </trkpt>
      <trkpt lat="45.78566" lon="1.88062">
        <ele>704.5</ele>
        <time>2026-07-08T10:33:35.000Z</time>
      </trkpt>
      <trkpt lat="45.78567" lon="1.88061">
        <ele>703.8</ele>
        <time>2026-07-08T10:33:36.000Z</time>
      </trkpt>
      <trkpt lat="45.78568" lon="1.8806">
        <ele>703.6</ele>
        <time>2026-07-08T10:33:37.000Z</time>
      </trkpt>
      <trkpt lat="45.78568" lon="1.88058">
        <ele>704.2</ele>
        <time>2026-07-08T10:33:38.000Z</time>
      </trkpt>
      <trkpt lat="45.78568" lon="1.88057">
        <ele>704.8</ele>
        <time>2026-07-08T10:33:39.000Z</time>
      </trkpt>
      <trkpt lat="45.78568" lon="1.88056">
        <ele>705.3</ele>
        <time>2026-07-08T10:33:40.000Z</time>
      </trkpt>
      <trkpt lat="45.78567" lon="1.88055">
        <ele>705.5</ele>
        <time>2026-07-08T10:33:41.000Z</time>
      </trkpt>
      <trkpt lat="45.78566" lon="1.88054">
        <ele>706</ele>
        <time>2026-07-08T10:33:42.000Z</time>
      </trkpt>
      <trkpt lat="45.78565" lon="1.88054">
        <ele>706.4</ele>
        <time>2026-07-08T10:33:43.000Z</time>
      </trkpt>
      <trkpt lat="45.78564" lon="1.88054">
        <ele>706.7</ele>
        <time>2026-07-08T10:33:44.000Z</time>
      </trkpt>
      <trkpt lat="45.78563" lon="1.88055">
        <ele>706.5</ele>
        <time>2026-07-08T10:33:45.000Z</time>
      </trkpt>
      <trkpt lat="45.78563" lon="1.88056">
        <ele>706.4</ele>
        <time>2026-07-08T10:33:46.000Z</time>
      </trkpt>
      <trkpt lat="45.78563" lon="1.88057">
        <ele>705.6</ele>
        <time>2026-07-08T10:33:47.000Z</time>
      </trkpt>
      <trkpt lat="45.78563" lon="1.88057">
        <ele>705.6</ele>
        <time>2026-07-08T10:33:48.000Z</time>
      </trkpt>
      <trkpt lat="45.78563" lon="1.88057">
        <ele>705.6</ele>
        <time>2026-07-08T10:33:49.000Z</time>
      </trkpt>
      <trkpt lat="45.78563" lon="1.88058">
        <ele>705.6</ele>
        <time>2026-07-08T10:33:50.000Z</time>
      </trkpt>
      <trkpt lat="45.78563" lon="1.88058">
        <ele>705.7</ele>
        <time>2026-07-08T10:33:51.000Z</time>
      </trkpt>
      <trkpt lat="45.78563" lon="1.88058">
        <ele>705.7</ele>
        <time>2026-07-08T10:33:52.000Z</time>
      </trkpt>
      <trkpt lat="45.78563" lon="1.88058">
        <ele>705.7</ele>
        <time>2026-07-08T10:33:53.000Z</time>
      </trkpt>
      <trkpt lat="45.78563" lon="1.88058">
        <ele>705.7</ele>
        <time>2026-07-08T10:33:54.000Z</time>
      </trkpt>
      <trkpt lat="45.78563" lon="1.88058">
        <ele>705.7</ele>
        <time>2026-07-08T10:33:55.000Z</time>
      </trkpt>
      <trkpt lat="45.78563" lon="1.88058">
        <ele>705.8</ele>
        <time>2026-07-08T10:33:56.000Z</time>
      </trkpt>
      <trkpt lat="45.78563" lon="1.88058">
        <ele>705.8</ele>
        <time>2026-07-08T10:33:57.000Z</time>
      </trkpt>
      <trkpt lat="45.78563" lon="1.88058">
        <ele>705.8</ele>
        <time>2026-07-08T10:33:58.000Z</time>
      </trkpt>
      <trkpt lat="45.78563" lon="1.88058">
        <ele>705.7</ele>
        <time>2026-07-08T10:33:59.000Z</time>
      </trkpt>
      <trkpt lat="45.78564" lon="1.88058">
        <ele>705.3</ele>
        <time>2026-07-08T10:34:00.000Z</time>
      </trkpt>
      <trkpt lat="45.78565" lon="1.88058">
        <ele>705</ele>
        <time>2026-07-08T10:34:01.000Z</time>
      </trkpt>
      <trkpt lat="45.78566" lon="1.88061">
        <ele>704.8</ele>
        <time>2026-07-08T10:34:02.000Z</time>
      </trkpt>
      <trkpt lat="45.78568" lon="1.88063">
        <ele>703.9</ele>
        <time>2026-07-08T10:34:03.000Z</time>
      </trkpt>
      <trkpt lat="45.78569" lon="1.88063">
        <ele>703.9</ele>
        <time>2026-07-08T10:34:04.000Z</time>
      </trkpt>
      <trkpt lat="45.78571" lon="1.88061">
        <ele>704.1</ele>
        <time>2026-07-08T10:34:05.000Z</time>
      </trkpt>
      <trkpt lat="45.78572" lon="1.8806">
        <ele>703.9</ele>
        <time>2026-07-08T10:34:06.000Z</time>
      </trkpt>
      <trkpt lat="45.78573" lon="1.88059">
        <ele>704.2</ele>
        <time>2026-07-08T10:34:07.000Z</time>
      </trkpt>
      <trkpt lat="45.78572" lon="1.88057">
        <ele>702</ele>
        <time>2026-07-08T10:34:08.000Z</time>
      </trkpt>
      <trkpt lat="45.78573" lon="1.88055">
        <ele>701.1</ele>
        <time>2026-07-08T10:34:09.000Z</time>
      </trkpt>
      <trkpt lat="45.78573" lon="1.88054">
        <ele>701.7</ele>
        <time>2026-07-08T10:34:10.000Z</time>
      </trkpt>
      <trkpt lat="45.78573" lon="1.88053">
        <ele>701.1</ele>
        <time>2026-07-08T10:34:11.000Z</time>
      </trkpt>
      <trkpt lat="45.78572" lon="1.88053">
        <ele>701.5</ele>
        <time>2026-07-08T10:34:12.000Z</time>
      </trkpt>
      <trkpt lat="45.78573" lon="1.88052">
        <ele>700</ele>
        <time>2026-07-08T10:34:13.000Z</time>
      </trkpt>
      <trkpt lat="45.78574" lon="1.88052">
        <ele>700.9</ele>
        <time>2026-07-08T10:34:14.000Z</time>
      </trkpt>
      <trkpt lat="45.78573" lon="1.88051">
        <ele>701.2</ele>
        <time>2026-07-08T10:34:15.000Z</time>
      </trkpt>
      <trkpt lat="45.78573" lon="1.88051">
        <ele>701.2</ele>
        <time>2026-07-08T10:34:16.000Z</time>
      </trkpt>
      <trkpt lat="45.78573" lon="1.88051">
        <ele>701.2</ele>
        <time>2026-07-08T10:34:17.000Z</time>
      </trkpt>
      <trkpt lat="45.78573" lon="1.88051">
        <ele>701.2</ele>
        <time>2026-07-08T10:34:18.000Z</time>
      </trkpt>
      <trkpt lat="45.78573" lon="1.88051">
        <ele>701.2</ele>
        <time>2026-07-08T10:34:19.000Z</time>
      </trkpt>
      <trkpt lat="45.78573" lon="1.8805">
        <ele>701.2</ele>
        <time>2026-07-08T10:34:20.000Z</time>
      </trkpt>
      <trkpt lat="45.78572" lon="1.8805">
        <ele>700.9</ele>
        <time>2026-07-08T10:34:21.000Z</time>
      </trkpt>
      <trkpt lat="45.78572" lon="1.88051">
        <ele>700.8</ele>
        <time>2026-07-08T10:34:22.000Z</time>
      </trkpt>
      <trkpt lat="45.78572" lon="1.88051">
        <ele>701.3</ele>
        <time>2026-07-08T10:34:23.000Z</time>
      </trkpt>
      <trkpt lat="45.78572" lon="1.88051">
        <ele>701.2</ele>
        <time>2026-07-08T10:34:24.000Z</time>
      </trkpt>
      <trkpt lat="45.78572" lon="1.88051">
        <ele>701.2</ele>
        <time>2026-07-08T10:34:25.000Z</time>
      </trkpt>
      <trkpt lat="45.78572" lon="1.88051">
        <ele>701.2</ele>
        <time>2026-07-08T10:34:26.000Z</time>
      </trkpt>
      <trkpt lat="45.78572" lon="1.88051">
        <ele>701.2</ele>
        <time>2026-07-08T10:34:27.000Z</time>
      </trkpt>
      <trkpt lat="45.78571" lon="1.88051">
        <ele>701.4</ele>
        <time>2026-07-08T10:34:28.000Z</time>
      </trkpt>
      <trkpt lat="45.7857" lon="1.88051">
        <ele>701.2</ele>
        <time>2026-07-08T10:34:29.000Z</time>
      </trkpt>
      <trkpt lat="45.78569" lon="1.88051">
        <ele>701.2</ele>
        <time>2026-07-08T10:34:30.000Z</time>
      </trkpt>
      <trkpt lat="45.78568" lon="1.88052">
        <ele>701.6</ele>
        <time>2026-07-08T10:34:31.000Z</time>
      </trkpt>
      <trkpt lat="45.78567" lon="1.88053">
        <ele>701.7</ele>
        <time>2026-07-08T10:34:32.000Z</time>
      </trkpt>
      <trkpt lat="45.78566" lon="1.88054">
        <ele>701.5</ele>
        <time>2026-07-08T10:34:33.000Z</time>
      </trkpt>
      <trkpt lat="45.78564" lon="1.88056">
        <ele>702.6</ele>
        <time>2026-07-08T10:34:34.000Z</time>
      </trkpt>
      <trkpt lat="45.78563" lon="1.88057">
        <ele>702.5</ele>
        <time>2026-07-08T10:34:35.000Z</time>
      </trkpt>
      <trkpt lat="45.78563" lon="1.88057">
        <ele>702.2</ele>
        <time>2026-07-08T10:34:36.000Z</time>
      </trkpt>
      <trkpt lat="45.78562" lon="1.88058">
        <ele>702.2</ele>
        <time>2026-07-08T10:34:37.000Z</time>
      </trkpt>
      <trkpt lat="45.78562" lon="1.88059">
        <ele>703.3</ele>
        <time>2026-07-08T10:34:38.000Z</time>
      </trkpt>
      <trkpt lat="45.78562" lon="1.8806">
        <ele>704.5</ele>
        <time>2026-07-08T10:34:39.000Z</time>
      </trkpt>
      <trkpt lat="45.78563" lon="1.8806">
        <ele>704.9</ele>
        <time>2026-07-08T10:34:40.000Z</time>
      </trkpt>
      <trkpt lat="45.78563" lon="1.8806">
        <ele>705</ele>
        <time>2026-07-08T10:34:41.000Z</time>
      </trkpt>
      <trkpt lat="45.78563" lon="1.8806">
        <ele>705</ele>
        <time>2026-07-08T10:34:42.000Z</time>
      </trkpt>
      <trkpt lat="45.78563" lon="1.8806">
        <ele>705</ele>
        <time>2026-07-08T10:34:43.000Z</time>
      </trkpt>
      <trkpt lat="45.78563" lon="1.8806">
        <ele>705</ele>
        <time>2026-07-08T10:34:44.000Z</time>
      </trkpt>
      <trkpt lat="45.78563" lon="1.8806">
        <ele>705</ele>
        <time>2026-07-08T10:34:45.000Z</time>
      </trkpt>
      <trkpt lat="45.78563" lon="1.8806">
        <ele>705.1</ele>
        <time>2026-07-08T10:34:46.000Z</time>
      </trkpt>
      <trkpt lat="45.78563" lon="1.8806">
        <ele>705.1</ele>
        <time>2026-07-08T10:34:47.000Z</time>
      </trkpt>
      <trkpt lat="45.78563" lon="1.8806">
        <ele>705.1</ele>
        <time>2026-07-08T10:34:48.000Z</time>
      </trkpt>
      <trkpt lat="45.78563" lon="1.8806">
        <ele>705.1</ele>
        <time>2026-07-08T10:34:49.000Z</time>
      </trkpt>
      <trkpt lat="45.78563" lon="1.8806">
        <ele>705.1</ele>
        <time>2026-07-08T10:34:50.000Z</time>
      </trkpt>
      <trkpt lat="45.78563" lon="1.8806">
        <ele>705.1</ele>
        <time>2026-07-08T10:34:51.000Z</time>
      </trkpt>
      <trkpt lat="45.78563" lon="1.8806">
        <ele>705.1</ele>
        <time>2026-07-08T10:34:52.000Z</time>
      </trkpt>
      <trkpt lat="45.78563" lon="1.8806">
        <ele>705.1</ele>
        <time>2026-07-08T10:34:53.000Z</time>
      </trkpt>
      <trkpt lat="45.78563" lon="1.8806">
        <ele>705.1</ele>
        <time>2026-07-08T10:34:54.000Z</time>
      </trkpt>
      <trkpt lat="45.78563" lon="1.8806">
        <ele>705.1</ele>
        <time>2026-07-08T10:34:55.000Z</time>
      </trkpt>
      <trkpt lat="45.78563" lon="1.8806">
        <ele>705.1</ele>
        <time>2026-07-08T10:34:56.000Z</time>
      </trkpt>
      <trkpt lat="45.78563" lon="1.8806">
        <ele>705.1</ele>
        <time>2026-07-08T10:34:57.000Z</time>
      </trkpt>
      <trkpt lat="45.78563" lon="1.8806">
        <ele>705.1</ele>
        <time>2026-07-08T10:34:58.000Z</time>
      </trkpt>
      <trkpt lat="45.78563" lon="1.8806">
        <ele>705.1</ele>
        <time>2026-07-08T10:34:59.000Z</time>
      </trkpt>
      <trkpt lat="45.78563" lon="1.8806">
        <ele>705.1</ele>
        <time>2026-07-08T10:35:00.000Z</time>
      </trkpt>
      <trkpt lat="45.78563" lon="1.8806">
        <ele>705.1</ele>
        <time>2026-07-08T10:35:01.000Z</time>
      </trkpt>
      <trkpt lat="45.78563" lon="1.8806">
        <ele>705.1</ele>
        <time>2026-07-08T10:35:02.000Z</time>
      </trkpt>
      <trkpt lat="45.78563" lon="1.8806">
        <ele>705.1</ele>
        <time>2026-07-08T10:35:03.000Z</time>
      </trkpt>
      <trkpt lat="45.78563" lon="1.8806">
        <ele>705.1</ele>
        <time>2026-07-08T10:35:04.000Z</time>
      </trkpt>
      <trkpt lat="45.78563" lon="1.8806">
        <ele>705.1</ele>
        <time>2026-07-08T10:35:05.000Z</time>
      </trkpt>
      <trkpt lat="45.78563" lon="1.8806">
        <ele>705.1</ele>
        <time>2026-07-08T10:35:06.000Z</time>
      </trkpt>
      <trkpt lat="45.78563" lon="1.8806">
        <ele>705.1</ele>
        <time>2026-07-08T10:35:07.000Z</time>
      </trkpt>
      <trkpt lat="45.78563" lon="1.8806">
        <ele>705.2</ele>
        <time>2026-07-08T10:35:08.000Z</time>
      </trkpt>
      <trkpt lat="45.78563" lon="1.8806">
        <ele>705.2</ele>
        <time>2026-07-08T10:35:09.000Z</time>
      </trkpt>
      <trkpt lat="45.78563" lon="1.8806">
        <ele>705.2</ele>
        <time>2026-07-08T10:35:10.000Z</time>
      </trkpt>
      <trkpt lat="45.78563" lon="1.8806">
        <ele>705.5</ele>
        <time>2026-07-08T10:35:11.000Z</time>
      </trkpt>
      <trkpt lat="45.78562" lon="1.88061">
        <ele>705.2</ele>
        <time>2026-07-08T10:35:12.000Z</time>
      </trkpt>
      <trkpt lat="45.78563" lon="1.88061">
        <ele>705.2</ele>
        <time>2026-07-08T10:35:13.000Z</time>
      </trkpt>
      <trkpt lat="45.78563" lon="1.88061">
        <ele>705.2</ele>
        <time>2026-07-08T10:35:14.000Z</time>
      </trkpt>
      <trkpt lat="45.78563" lon="1.88061">
        <ele>705.2</ele>
        <time>2026-07-08T10:35:15.000Z</time>
      </trkpt>
      <trkpt lat="45.78563" lon="1.88061">
        <ele>705.2</ele>
        <time>2026-07-08T10:35:16.000Z</time>
      </trkpt>
      <trkpt lat="45.78563" lon="1.88061">
        <ele>705.2</ele>
        <time>2026-07-08T10:35:17.000Z</time>
      </trkpt>
      <trkpt lat="45.78563" lon="1.88061">
        <ele>705.2</ele>
        <time>2026-07-08T10:35:18.000Z</time>
      </trkpt>
      <trkpt lat="45.78563" lon="1.88061">
        <ele>705.2</ele>
        <time>2026-07-08T10:35:19.000Z</time>
      </trkpt>
      <trkpt lat="45.78563" lon="1.88061">
        <ele>705.2</ele>
        <time>2026-07-08T10:35:20.000Z</time>
      </trkpt>
      <trkpt lat="45.78563" lon="1.88061">
        <ele>705.1</ele>
        <time>2026-07-08T10:35:21.000Z</time>
      </trkpt>
      <trkpt lat="45.78563" lon="1.88061">
        <ele>705.1</ele>
        <time>2026-07-08T10:35:22.000Z</time>
      </trkpt>
      <trkpt lat="45.78563" lon="1.88061">
        <ele>704.6</ele>
        <time>2026-07-08T10:35:23.000Z</time>
      </trkpt>
      <trkpt lat="45.78563" lon="1.88061">
        <ele>704.3</ele>
        <time>2026-07-08T10:35:24.000Z</time>
      </trkpt>
      <trkpt lat="45.78563" lon="1.8806">
        <ele>704.7</ele>
        <time>2026-07-08T10:35:25.000Z</time>
      </trkpt>
      <trkpt lat="45.78563" lon="1.8806">
        <ele>704.7</ele>
        <time>2026-07-08T10:35:26.000Z</time>
      </trkpt>
      <trkpt lat="45.78563" lon="1.8806">
        <ele>704.7</ele>
        <time>2026-07-08T10:35:27.000Z</time>
      </trkpt>
      <trkpt lat="45.78563" lon="1.8806">
        <ele>704.7</ele>
        <time>2026-07-08T10:35:28.000Z</time>
      </trkpt>
      <trkpt lat="45.78563" lon="1.8806">
        <ele>704.7</ele>
        <time>2026-07-08T10:35:29.000Z</time>
      </trkpt>
      <trkpt lat="45.78563" lon="1.8806">
        <ele>704.7</ele>
        <time>2026-07-08T10:35:30.000Z</time>
      </trkpt>
      <trkpt lat="45.78563" lon="1.8806">
        <ele>704.7</ele>
        <time>2026-07-08T10:35:31.000Z</time>
      </trkpt>
      <trkpt lat="45.78563" lon="1.8806">
        <ele>704.7</ele>
        <time>2026-07-08T10:35:32.000Z</time>
      </trkpt>
      <trkpt lat="45.78563" lon="1.8806">
        <ele>704.7</ele>
        <time>2026-07-08T10:35:33.000Z</time>
      </trkpt>
      <trkpt lat="45.78563" lon="1.8806">
        <ele>704.7</ele>
        <time>2026-07-08T10:35:34.000Z</time>
      </trkpt>
      <trkpt lat="45.78563" lon="1.8806">
        <ele>704.7</ele>
        <time>2026-07-08T10:35:35.000Z</time>
      </trkpt>
      <trkpt lat="45.78563" lon="1.8806">
        <ele>704.7</ele>
        <time>2026-07-08T10:35:36.000Z</time>
      </trkpt>
      <trkpt lat="45.78563" lon="1.8806">
        <ele>704.7</ele>
        <time>2026-07-08T10:35:37.000Z</time>
      </trkpt>
      <trkpt lat="45.78563" lon="1.8806">
        <ele>704.6</ele>
        <time>2026-07-08T10:35:38.000Z</time>
      </trkpt>
      <trkpt lat="45.78563" lon="1.8806">
        <ele>704.6</ele>
        <time>2026-07-08T10:35:39.000Z</time>
      </trkpt>
      <trkpt lat="45.78563" lon="1.8806">
        <ele>704.6</ele>
        <time>2026-07-08T10:35:40.000Z</time>
      </trkpt>
      <trkpt lat="45.78563" lon="1.8806">
        <ele>704.6</ele>
        <time>2026-07-08T10:35:41.000Z</time>
      </trkpt>
      <trkpt lat="45.78563" lon="1.8806">
        <ele>704.6</ele>
        <time>2026-07-08T10:35:42.000Z</time>
      </trkpt>
      <trkpt lat="45.78563" lon="1.8806">
        <ele>704.6</ele>
        <time>2026-07-08T10:35:43.000Z</time>
      </trkpt>
      <trkpt lat="45.78563" lon="1.8806">
        <ele>704.6</ele>
        <time>2026-07-08T10:35:44.000Z</time>
      </trkpt>
      <trkpt lat="45.78563" lon="1.8806">
        <ele>704.6</ele>
        <time>2026-07-08T10:35:45.000Z</time>
      </trkpt>
      <trkpt lat="45.78563" lon="1.8806">
        <ele>704.6</ele>
        <time>2026-07-08T10:35:46.000Z</time>
      </trkpt>
      <trkpt lat="45.78563" lon="1.8806">
        <ele>704.6</ele>
        <time>2026-07-08T10:35:47.000Z</time>
      </trkpt>
      <trkpt lat="45.78563" lon="1.8806">
        <ele>704.6</ele>
        <time>2026-07-08T10:35:48.000Z</time>
      </trkpt>
      <trkpt lat="45.78563" lon="1.8806">
        <ele>704.6</ele>
        <time>2026-07-08T10:35:49.000Z</time>
      </trkpt>
      <trkpt lat="45.78563" lon="1.8806">
        <ele>704.6</ele>
        <time>2026-07-08T10:35:50.000Z</time>
      </trkpt>
      <trkpt lat="45.78563" lon="1.8806">
        <ele>704.6</ele>
        <time>2026-07-08T10:35:51.000Z</time>
      </trkpt>
      <trkpt lat="45.78563" lon="1.8806">
        <ele>704.6</ele>
        <time>2026-07-08T10:35:52.000Z</time>
      </trkpt>
      <trkpt lat="45.78563" lon="1.8806">
        <ele>704.6</ele>
        <time>2026-07-08T10:35:53.000Z</time>
      </trkpt>
      <trkpt lat="45.78563" lon="1.8806">
        <ele>704.6</ele>
        <time>2026-07-08T10:35:54.000Z</time>
      </trkpt>
      <trkpt lat="45.78563" lon="1.8806">
        <ele>704.6</ele>
        <time>2026-07-08T10:35:55.000Z</time>
      </trkpt>
      <trkpt lat="45.78563" lon="1.8806">
        <ele>704.6</ele>
        <time>2026-07-08T10:35:56.000Z</time>
      </trkpt>
      <trkpt lat="45.78563" lon="1.8806">
        <ele>704.7</ele>
        <time>2026-07-08T10:35:57.000Z</time>
      </trkpt>
      <trkpt lat="45.78563" lon="1.8806">
        <ele>704.8</ele>
        <time>2026-07-08T10:35:58.000Z</time>
      </trkpt>
      <trkpt lat="45.78563" lon="1.8806">
        <ele>704.8</ele>
        <time>2026-07-08T10:35:59.000Z</time>
      </trkpt>
      <trkpt lat="45.78563" lon="1.8806">
        <ele>704.8</ele>
        <time>2026-07-08T10:36:00.000Z</time>
      </trkpt>
      <trkpt lat="45.78563" lon="1.8806">
        <ele>704.8</ele>
        <time>2026-07-08T10:36:01.000Z</time>
      </trkpt>
      <trkpt lat="45.78563" lon="1.8806">
        <ele>704.8</ele>
        <time>2026-07-08T10:36:02.000Z</time>
      </trkpt>
      <trkpt lat="45.78563" lon="1.8806">
        <ele>704.9</ele>
        <time>2026-07-08T10:36:03.000Z</time>
      </trkpt>
      <trkpt lat="45.78563" lon="1.8806">
        <ele>704.9</ele>
        <time>2026-07-08T10:36:04.000Z</time>
      </trkpt>
      <trkpt lat="45.78563" lon="1.8806">
        <ele>704.9</ele>
        <time>2026-07-08T10:36:05.000Z</time>
      </trkpt>
      <trkpt lat="45.78563" lon="1.8806">
        <ele>704.9</ele>
        <time>2026-07-08T10:36:06.000Z</time>
      </trkpt>
      <trkpt lat="45.78563" lon="1.8806">
        <ele>704.9</ele>
        <time>2026-07-08T10:36:07.000Z</time>
      </trkpt>
      <trkpt lat="45.78563" lon="1.8806">
        <ele>704.9</ele>
        <time>2026-07-08T10:36:08.000Z</time>
      </trkpt>
      <trkpt lat="45.78563" lon="1.8806">
        <ele>704.8</ele>
        <time>2026-07-08T10:36:09.000Z</time>
      </trkpt>
      <trkpt lat="45.78563" lon="1.8806">
        <ele>704.8</ele>
        <time>2026-07-08T10:36:10.000Z</time>
      </trkpt>
      <trkpt lat="45.78563" lon="1.8806">
        <ele>704.8</ele>
        <time>2026-07-08T10:36:11.000Z</time>
      </trkpt>
      <trkpt lat="45.78563" lon="1.8806">
        <ele>704.8</ele>
        <time>2026-07-08T10:36:12.000Z</time>
      </trkpt>
      <trkpt lat="45.78564" lon="1.8806">
        <ele>704.8</ele>
        <time>2026-07-08T10:36:13.000Z</time>
      </trkpt>
      <trkpt lat="45.78564" lon="1.8806">
        <ele>705</ele>
        <time>2026-07-08T10:36:14.000Z</time>
      </trkpt>
      <trkpt lat="45.78564" lon="1.88061">
        <ele>705</ele>
        <time>2026-07-08T10:36:15.000Z</time>
      </trkpt>
      <trkpt lat="45.78564" lon="1.88061">
        <ele>705</ele>
        <time>2026-07-08T10:36:16.000Z</time>
      </trkpt>
      <trkpt lat="45.78564" lon="1.88061">
        <ele>705</ele>
        <time>2026-07-08T10:36:17.000Z</time>
      </trkpt>
      <trkpt lat="45.78564" lon="1.88061">
        <ele>705</ele>
        <time>2026-07-08T10:36:18.000Z</time>
      </trkpt>
      <trkpt lat="45.78564" lon="1.88061">
        <ele>705</ele>
        <time>2026-07-08T10:36:19.000Z</time>
      </trkpt>
      <trkpt lat="45.78564" lon="1.88061">
        <ele>705</ele>
        <time>2026-07-08T10:36:20.000Z</time>
      </trkpt>
      <trkpt lat="45.78564" lon="1.88061">
        <ele>705</ele>
        <time>2026-07-08T10:36:21.000Z</time>
      </trkpt>
      <trkpt lat="45.78564" lon="1.88061">
        <ele>705</ele>
        <time>2026-07-08T10:36:22.000Z</time>
      </trkpt>
      <trkpt lat="45.78564" lon="1.88061">
        <ele>705</ele>
        <time>2026-07-08T10:36:23.000Z</time>
      </trkpt>
      <trkpt lat="45.78564" lon="1.88061">
        <ele>705</ele>
        <time>2026-07-08T10:36:24.000Z</time>
      </trkpt>
      <trkpt lat="45.78564" lon="1.88061">
        <ele>705</ele>
        <time>2026-07-08T10:36:25.000Z</time>
      </trkpt>
      <trkpt lat="45.78564" lon="1.88061">
        <ele>705</ele>
        <time>2026-07-08T10:36:26.000Z</time>
      </trkpt>
      <trkpt lat="45.78564" lon="1.8806">
        <ele>703.9</ele>
        <time>2026-07-08T10:36:27.000Z</time>
      </trkpt>
      <trkpt lat="45.78564" lon="1.88059">
        <ele>703.3</ele>
        <time>2026-07-08T10:36:28.000Z</time>
      </trkpt>
      <trkpt lat="45.78565" lon="1.88059">
        <ele>702.9</ele>
        <time>2026-07-08T10:36:29.000Z</time>
      </trkpt>
      <trkpt lat="45.78566" lon="1.88059">
        <ele>702.9</ele>
        <time>2026-07-08T10:36:30.000Z</time>
      </trkpt>
      <trkpt lat="45.78566" lon="1.88059">
        <ele>702.9</ele>
        <time>2026-07-08T10:36:31.000Z</time>
      </trkpt>
      <trkpt lat="45.78566" lon="1.88059">
        <ele>702.9</ele>
        <time>2026-07-08T10:36:32.000Z</time>
      </trkpt>
      <trkpt lat="45.78566" lon="1.88059">
        <ele>702.9</ele>
        <time>2026-07-08T10:36:33.000Z</time>
      </trkpt>
      <trkpt lat="45.78566" lon="1.88059">
        <ele>703</ele>
        <time>2026-07-08T10:36:34.000Z</time>
      </trkpt>
      <trkpt lat="45.78566" lon="1.88059">
        <ele>703.3</ele>
        <time>2026-07-08T10:36:35.000Z</time>
      </trkpt>
      <trkpt lat="45.78566" lon="1.88059">
        <ele>703.3</ele>
        <time>2026-07-08T10:36:36.000Z</time>
      </trkpt>
      <trkpt lat="45.78566" lon="1.88059">
        <ele>703.3</ele>
        <time>2026-07-08T10:36:37.000Z</time>
      </trkpt>
      <trkpt lat="45.78566" lon="1.88059">
        <ele>703.3</ele>
        <time>2026-07-08T10:36:38.000Z</time>
      </trkpt>
      <trkpt lat="45.78566" lon="1.88059">
        <ele>703.3</ele>
        <time>2026-07-08T10:36:39.000Z</time>
      </trkpt>
      <trkpt lat="45.78566" lon="1.88059">
        <ele>703.3</ele>
        <time>2026-07-08T10:36:40.000Z</time>
      </trkpt>
      <trkpt lat="45.78566" lon="1.88059">
        <ele>703.3</ele>
        <time>2026-07-08T10:36:41.000Z</time>
      </trkpt>
      <trkpt lat="45.78566" lon="1.88059">
        <ele>703.3</ele>
        <time>2026-07-08T10:36:42.000Z</time>
      </trkpt>
      <trkpt lat="45.78566" lon="1.88059">
        <ele>703.4</ele>
        <time>2026-07-08T10:36:43.000Z</time>
      </trkpt>
      <trkpt lat="45.78565" lon="1.88059">
        <ele>703.1</ele>
        <time>2026-07-08T10:36:44.000Z</time>
      </trkpt>
      <trkpt lat="45.78565" lon="1.8806">
        <ele>703.8</ele>
        <time>2026-07-08T10:36:45.000Z</time>
      </trkpt>
      <trkpt lat="45.78565" lon="1.88061">
        <ele>704.2</ele>
        <time>2026-07-08T10:36:46.000Z</time>
      </trkpt>
      <trkpt lat="45.78564" lon="1.88063">
        <ele>704.3</ele>
        <time>2026-07-08T10:36:47.000Z</time>
      </trkpt>
      <trkpt lat="45.78565" lon="1.88064">
        <ele>704.5</ele>
        <time>2026-07-08T10:36:48.000Z</time>
      </trkpt>
      <trkpt lat="45.78565" lon="1.88064">
        <ele>704.5</ele>
        <time>2026-07-08T10:36:49.000Z</time>
      </trkpt>
      <trkpt lat="45.78565" lon="1.88064">
        <ele>704.5</ele>
        <time>2026-07-08T10:36:50.000Z</time>
      </trkpt>
      <trkpt lat="45.78565" lon="1.88064">
        <ele>704.5</ele>
        <time>2026-07-08T10:36:51.000Z</time>
      </trkpt>
      <trkpt lat="45.78565" lon="1.88064">
        <ele>704.5</ele>
        <time>2026-07-08T10:36:52.000Z</time>
      </trkpt>
      <trkpt lat="45.78565" lon="1.88064">
        <ele>704.5</ele>
        <time>2026-07-08T10:36:53.000Z</time>
      </trkpt>
      <trkpt lat="45.78565" lon="1.88064">
        <ele>704.5</ele>
        <time>2026-07-08T10:36:54.000Z</time>
      </trkpt>
      <trkpt lat="45.78565" lon="1.88064">
        <ele>704.5</ele>
        <time>2026-07-08T10:36:55.000Z</time>
      </trkpt>
      <trkpt lat="45.78565" lon="1.88064">
        <ele>704.5</ele>
        <time>2026-07-08T10:36:56.000Z</time>
      </trkpt>
      <trkpt lat="45.78565" lon="1.88064">
        <ele>704.5</ele>
        <time>2026-07-08T10:36:57.000Z</time>
      </trkpt>
      <trkpt lat="45.78565" lon="1.88064">
        <ele>704.5</ele>
        <time>2026-07-08T10:36:58.000Z</time>
      </trkpt>
      <trkpt lat="45.78565" lon="1.88064">
        <ele>704.5</ele>
        <time>2026-07-08T10:36:59.000Z</time>
      </trkpt>
      <trkpt lat="45.78565" lon="1.88064">
        <ele>704.6</ele>
        <time>2026-07-08T10:37:00.000Z</time>
      </trkpt>
      <trkpt lat="45.78565" lon="1.88064">
        <ele>704.6</ele>
        <time>2026-07-08T10:37:01.000Z</time>
      </trkpt>
      <trkpt lat="45.78565" lon="1.88064">
        <ele>704.6</ele>
        <time>2026-07-08T10:37:02.000Z</time>
      </trkpt>
      <trkpt lat="45.78565" lon="1.88064">
        <ele>704.6</ele>
        <time>2026-07-08T10:37:03.000Z</time>
      </trkpt>
      <trkpt lat="45.78565" lon="1.88064">
        <ele>704.6</ele>
        <time>2026-07-08T10:37:04.000Z</time>
      </trkpt>
      <trkpt lat="45.78565" lon="1.88064">
        <ele>704.5</ele>
        <time>2026-07-08T10:37:05.000Z</time>
      </trkpt>
      <trkpt lat="45.78565" lon="1.88064">
        <ele>705.5</ele>
        <time>2026-07-08T10:37:06.000Z</time>
      </trkpt>
      <trkpt lat="45.78566" lon="1.88064">
        <ele>706.2</ele>
        <time>2026-07-08T10:37:07.000Z</time>
      </trkpt>
      <trkpt lat="45.78565" lon="1.88063">
        <ele>706.3</ele>
        <time>2026-07-08T10:37:08.000Z</time>
      </trkpt>
      <trkpt lat="45.78565" lon="1.88063">
        <ele>706.9</ele>
        <time>2026-07-08T10:37:09.000Z</time>
      </trkpt>
      <trkpt lat="45.78565" lon="1.88063">
        <ele>706.8</ele>
        <time>2026-07-08T10:37:10.000Z</time>
      </trkpt>
      <trkpt lat="45.78565" lon="1.88063">
        <ele>706.9</ele>
        <time>2026-07-08T10:37:11.000Z</time>
      </trkpt>
      <trkpt lat="45.78565" lon="1.88063">
        <ele>707</ele>
        <time>2026-07-08T10:37:12.000Z</time>
      </trkpt>
      <trkpt lat="45.78565" lon="1.88063">
        <ele>707</ele>
        <time>2026-07-08T10:37:13.000Z</time>
      </trkpt>
      <trkpt lat="45.78565" lon="1.88063">
        <ele>707</ele>
        <time>2026-07-08T10:37:14.000Z</time>
      </trkpt>
      <trkpt lat="45.78565" lon="1.88063">
        <ele>707</ele>
        <time>2026-07-08T10:37:15.000Z</time>
      </trkpt>
      <trkpt lat="45.78565" lon="1.88063">
        <ele>707</ele>
        <time>2026-07-08T10:37:16.000Z</time>
      </trkpt>
      <trkpt lat="45.78565" lon="1.88063">
        <ele>706.9</ele>
        <time>2026-07-08T10:37:17.000Z</time>
      </trkpt>
      <trkpt lat="45.78565" lon="1.88063">
        <ele>706.9</ele>
        <time>2026-07-08T10:37:18.000Z</time>
      </trkpt>
      <trkpt lat="45.78565" lon="1.88063">
        <ele>706.9</ele>
        <time>2026-07-08T10:37:19.000Z</time>
      </trkpt>
      <trkpt lat="45.78565" lon="1.88063">
        <ele>706.9</ele>
        <time>2026-07-08T10:37:20.000Z</time>
      </trkpt>
      <trkpt lat="45.78565" lon="1.88063">
        <ele>706.9</ele>
        <time>2026-07-08T10:37:21.000Z</time>
      </trkpt>
      <trkpt lat="45.78565" lon="1.88063">
        <ele>706.9</ele>
        <time>2026-07-08T10:37:22.000Z</time>
      </trkpt>
      <trkpt lat="45.78565" lon="1.88063">
        <ele>706.9</ele>
        <time>2026-07-08T10:37:23.000Z</time>
      </trkpt>
      <trkpt lat="45.78565" lon="1.88063">
        <ele>706.9</ele>
        <time>2026-07-08T10:37:24.000Z</time>
      </trkpt>
      <trkpt lat="45.78565" lon="1.88063">
        <ele>706.9</ele>
        <time>2026-07-08T10:37:25.000Z</time>
      </trkpt>
      <trkpt lat="45.78565" lon="1.88063">
        <ele>706.9</ele>
        <time>2026-07-08T10:37:26.000Z</time>
      </trkpt>
      <trkpt lat="45.78565" lon="1.88063">
        <ele>706.9</ele>
        <time>2026-07-08T10:37:27.000Z</time>
      </trkpt>
      <trkpt lat="45.78565" lon="1.88063">
        <ele>706.9</ele>
        <time>2026-07-08T10:37:28.000Z</time>
      </trkpt>
      <trkpt lat="45.78565" lon="1.88063">
        <ele>706.9</ele>
        <time>2026-07-08T10:37:29.000Z</time>
      </trkpt>
      <trkpt lat="45.78565" lon="1.88063">
        <ele>706.9</ele>
        <time>2026-07-08T10:37:30.000Z</time>
      </trkpt>
      <trkpt lat="45.78565" lon="1.88063">
        <ele>706.9</ele>
        <time>2026-07-08T10:37:31.000Z</time>
      </trkpt>
      <trkpt lat="45.78565" lon="1.88063">
        <ele>706.9</ele>
        <time>2026-07-08T10:37:32.000Z</time>
      </trkpt>
      <trkpt lat="45.78565" lon="1.88063">
        <ele>706.9</ele>
        <time>2026-07-08T10:37:33.000Z</time>
      </trkpt>
      <trkpt lat="45.78565" lon="1.88063">
        <ele>706.9</ele>
        <time>2026-07-08T10:37:34.000Z</time>
      </trkpt>
      <trkpt lat="45.78565" lon="1.88063">
        <ele>706.9</ele>
        <time>2026-07-08T10:37:35.000Z</time>
      </trkpt>
      <trkpt lat="45.78565" lon="1.88063">
        <ele>706.9</ele>
        <time>2026-07-08T10:37:36.000Z</time>
      </trkpt>
      <trkpt lat="45.78565" lon="1.88063">
        <ele>706.9</ele>
        <time>2026-07-08T10:37:37.000Z</time>
      </trkpt>
      <trkpt lat="45.78565" lon="1.88063">
        <ele>706.9</ele>
        <time>2026-07-08T10:37:38.000Z</time>
      </trkpt>
      <trkpt lat="45.78565" lon="1.88063">
        <ele>706.9</ele>
        <time>2026-07-08T10:37:39.000Z</time>
      </trkpt>
      <trkpt lat="45.78565" lon="1.88063">
        <ele>706.9</ele>
        <time>2026-07-08T10:37:40.000Z</time>
      </trkpt>
      <trkpt lat="45.78565" lon="1.88063">
        <ele>706.9</ele>
        <time>2026-07-08T10:37:41.000Z</time>
      </trkpt>
      <trkpt lat="45.78565" lon="1.88063">
        <ele>706.9</ele>
        <time>2026-07-08T10:37:42.000Z</time>
      </trkpt>
      <trkpt lat="45.78565" lon="1.88063">
        <ele>706.5</ele>
        <time>2026-07-08T10:37:43.000Z</time>
      </trkpt>
      <trkpt lat="45.78565" lon="1.88062">
        <ele>706.6</ele>
        <time>2026-07-08T10:37:44.000Z</time>
      </trkpt>
      <trkpt lat="45.78565" lon="1.88062">
        <ele>706.6</ele>
        <time>2026-07-08T10:37:45.000Z</time>
      </trkpt>
      <trkpt lat="45.78565" lon="1.88062">
        <ele>706.6</ele>
        <time>2026-07-08T10:37:46.000Z</time>
      </trkpt>
      <trkpt lat="45.78565" lon="1.88062">
        <ele>706.6</ele>
        <time>2026-07-08T10:37:47.000Z</time>
      </trkpt>
      <trkpt lat="45.78566" lon="1.88062">
        <ele>706.6</ele>
        <time>2026-07-08T10:37:48.000Z</time>
      </trkpt>
      <trkpt lat="45.78566" lon="1.88062">
        <ele>706.6</ele>
        <time>2026-07-08T10:37:49.000Z</time>
      </trkpt>
      <trkpt lat="45.78566" lon="1.88062">
        <ele>706.6</ele>
        <time>2026-07-08T10:37:50.000Z</time>
      </trkpt>
      <trkpt lat="45.78566" lon="1.88063">
        <ele>706.6</ele>
        <time>2026-07-08T10:37:51.000Z</time>
      </trkpt>
      <trkpt lat="45.78566" lon="1.88063">
        <ele>706.6</ele>
        <time>2026-07-08T10:37:52.000Z</time>
      </trkpt>
      <trkpt lat="45.78566" lon="1.88063">
        <ele>706.6</ele>
        <time>2026-07-08T10:37:53.000Z</time>
      </trkpt>
      <trkpt lat="45.78566" lon="1.88063">
        <ele>706.6</ele>
        <time>2026-07-08T10:37:54.000Z</time>
      </trkpt>
      <trkpt lat="45.78566" lon="1.88063">
        <ele>706.7</ele>
        <time>2026-07-08T10:37:55.000Z</time>
      </trkpt>
      <trkpt lat="45.78566" lon="1.88063">
        <ele>706.7</ele>
        <time>2026-07-08T10:37:56.000Z</time>
      </trkpt>
      <trkpt lat="45.78566" lon="1.88063">
        <ele>706.7</ele>
        <time>2026-07-08T10:37:57.000Z</time>
      </trkpt>
      <trkpt lat="45.78566" lon="1.88063">
        <ele>706.7</ele>
        <time>2026-07-08T10:37:58.000Z</time>
      </trkpt>
      <trkpt lat="45.78566" lon="1.88063">
        <ele>706.7</ele>
        <time>2026-07-08T10:37:59.000Z</time>
      </trkpt>
      <trkpt lat="45.78566" lon="1.88063">
        <ele>706.7</ele>
        <time>2026-07-08T10:38:00.000Z</time>
      </trkpt>
      <trkpt lat="45.78566" lon="1.88063">
        <ele>706.7</ele>
        <time>2026-07-08T10:38:01.000Z</time>
      </trkpt>
      <trkpt lat="45.78566" lon="1.88063">
        <ele>706.7</ele>
        <time>2026-07-08T10:38:02.000Z</time>
      </trkpt>
      <trkpt lat="45.78566" lon="1.88063">
        <ele>706.7</ele>
        <time>2026-07-08T10:38:03.000Z</time>
      </trkpt>
      <trkpt lat="45.78566" lon="1.88063">
        <ele>706.7</ele>
        <time>2026-07-08T10:38:04.000Z</time>
      </trkpt>
      <trkpt lat="45.78566" lon="1.88063">
        <ele>706.7</ele>
        <time>2026-07-08T10:38:05.000Z</time>
      </trkpt>
      <trkpt lat="45.78566" lon="1.88063">
        <ele>706.7</ele>
        <time>2026-07-08T10:38:06.000Z</time>
      </trkpt>
      <trkpt lat="45.78566" lon="1.88063">
        <ele>706.7</ele>
        <time>2026-07-08T10:38:07.000Z</time>
      </trkpt>
      <trkpt lat="45.78566" lon="1.88063">
        <ele>706.7</ele>
        <time>2026-07-08T10:38:08.000Z</time>
      </trkpt>
      <trkpt lat="45.78566" lon="1.88063">
        <ele>706.7</ele>
        <time>2026-07-08T10:38:09.000Z</time>
      </trkpt>
      <trkpt lat="45.78566" lon="1.88063">
        <ele>706.7</ele>
        <time>2026-07-08T10:38:10.000Z</time>
      </trkpt>
      <trkpt lat="45.78566" lon="1.88063">
        <ele>706.7</ele>
        <time>2026-07-08T10:38:11.000Z</time>
      </trkpt>
      <trkpt lat="45.78566" lon="1.88063">
        <ele>706.7</ele>
        <time>2026-07-08T10:38:12.000Z</time>
      </trkpt>
      <trkpt lat="45.78566" lon="1.88063">
        <ele>706.5</ele>
        <time>2026-07-08T10:38:13.000Z</time>
      </trkpt>
      <trkpt lat="45.78566" lon="1.88063">
        <ele>706.5</ele>
        <time>2026-07-08T10:38:14.000Z</time>
      </trkpt>
      <trkpt lat="45.78566" lon="1.88063">
        <ele>706.5</ele>
        <time>2026-07-08T10:38:15.000Z</time>
      </trkpt>
      <trkpt lat="45.78566" lon="1.88063">
        <ele>706.5</ele>
        <time>2026-07-08T10:38:16.000Z</time>
      </trkpt>
      <trkpt lat="45.78566" lon="1.88063">
        <ele>706.5</ele>
        <time>2026-07-08T10:38:17.000Z</time>
      </trkpt>
      <trkpt lat="45.78566" lon="1.88063">
        <ele>706.5</ele>
        <time>2026-07-08T10:38:18.000Z</time>
      </trkpt>
      <trkpt lat="45.78566" lon="1.88063">
        <ele>706.5</ele>
        <time>2026-07-08T10:38:19.000Z</time>
      </trkpt>
      <trkpt lat="45.78566" lon="1.88063">
        <ele>706.5</ele>
        <time>2026-07-08T10:38:20.000Z</time>
      </trkpt>
      <trkpt lat="45.78566" lon="1.88063">
        <ele>706.5</ele>
        <time>2026-07-08T10:38:21.000Z</time>
      </trkpt>
      <trkpt lat="45.78566" lon="1.88063">
        <ele>706.6</ele>
        <time>2026-07-08T10:38:22.000Z</time>
      </trkpt>
      <trkpt lat="45.78566" lon="1.88063">
        <ele>706.6</ele>
        <time>2026-07-08T10:38:23.000Z</time>
      </trkpt>
      <trkpt lat="45.78566" lon="1.88063">
        <ele>706.6</ele>
        <time>2026-07-08T10:38:24.000Z</time>
      </trkpt>
      <trkpt lat="45.78566" lon="1.88063">
        <ele>706.6</ele>
        <time>2026-07-08T10:38:25.000Z</time>
      </trkpt>
      <trkpt lat="45.78566" lon="1.88063">
        <ele>706.6</ele>
        <time>2026-07-08T10:38:26.000Z</time>
      </trkpt>
      <trkpt lat="45.78566" lon="1.88063">
        <ele>706.6</ele>
        <time>2026-07-08T10:38:27.000Z</time>
      </trkpt>
      <trkpt lat="45.78566" lon="1.88063">
        <ele>706.6</ele>
        <time>2026-07-08T10:38:28.000Z</time>
      </trkpt>
      <trkpt lat="45.78566" lon="1.88063">
        <ele>706.7</ele>
        <time>2026-07-08T10:38:29.000Z</time>
      </trkpt>
      <trkpt lat="45.78566" lon="1.88063">
        <ele>706.7</ele>
        <time>2026-07-08T10:38:30.000Z</time>
      </trkpt>
      <trkpt lat="45.78566" lon="1.88063">
        <ele>706.7</ele>
        <time>2026-07-08T10:38:31.000Z</time>
      </trkpt>
      <trkpt lat="45.78566" lon="1.88063">
        <ele>706.7</ele>
        <time>2026-07-08T10:38:32.000Z</time>
      </trkpt>
      <trkpt lat="45.78566" lon="1.88063">
        <ele>706.7</ele>
        <time>2026-07-08T10:38:33.000Z</time>
      </trkpt>
      <trkpt lat="45.78566" lon="1.88063">
        <ele>706.7</ele>
        <time>2026-07-08T10:38:34.000Z</time>
      </trkpt>
      <trkpt lat="45.78566" lon="1.88062">
        <ele>706.5</ele>
        <time>2026-07-08T10:38:35.000Z</time>
      </trkpt>
      <trkpt lat="45.78565" lon="1.88062">
        <ele>706.5</ele>
        <time>2026-07-08T10:38:36.000Z</time>
      </trkpt>
      <trkpt lat="45.78566" lon="1.88062">
        <ele>706.6</ele>
        <time>2026-07-08T10:38:37.000Z</time>
      </trkpt>
      <trkpt lat="45.78564" lon="1.88066">
        <ele>706.8</ele>
        <time>2026-07-08T10:38:38.000Z</time>
      </trkpt>
      <trkpt lat="45.78563" lon="1.88067">
        <ele>706.8</ele>
        <time>2026-07-08T10:38:39.000Z</time>
      </trkpt>
      <trkpt lat="45.78563" lon="1.88067">
        <ele>706.8</ele>
        <time>2026-07-08T10:38:40.000Z</time>
      </trkpt>
      <trkpt lat="45.78563" lon="1.88068">
        <ele>706.8</ele>
        <time>2026-07-08T10:38:41.000Z</time>
      </trkpt>
      <trkpt lat="45.78563" lon="1.88068">
        <ele>706.8</ele>
        <time>2026-07-08T10:38:42.000Z</time>
      </trkpt>
      <trkpt lat="45.78563" lon="1.88068">
        <ele>706.8</ele>
        <time>2026-07-08T10:38:43.000Z</time>
      </trkpt>
      <trkpt lat="45.78563" lon="1.88068">
        <ele>706.8</ele>
        <time>2026-07-08T10:38:44.000Z</time>
      </trkpt>
      <trkpt lat="45.78564" lon="1.88068">
        <ele>706.8</ele>
        <time>2026-07-08T10:38:45.000Z</time>
      </trkpt>
      <trkpt lat="45.78564" lon="1.88068">
        <ele>706.8</ele>
        <time>2026-07-08T10:38:46.000Z</time>
      </trkpt>
      <trkpt lat="45.78564" lon="1.88068">
        <ele>706.8</ele>
        <time>2026-07-08T10:38:47.000Z</time>
      </trkpt>
      <trkpt lat="45.78563" lon="1.88068">
        <ele>706.4</ele>
        <time>2026-07-08T10:38:48.000Z</time>
      </trkpt>
      <trkpt lat="45.78563" lon="1.88068">
        <ele>707</ele>
        <time>2026-07-08T10:38:49.000Z</time>
      </trkpt>
      <trkpt lat="45.78563" lon="1.88068">
        <ele>707</ele>
        <time>2026-07-08T10:38:50.000Z</time>
      </trkpt>
      <trkpt lat="45.78563" lon="1.88068">
        <ele>707</ele>
        <time>2026-07-08T10:38:51.000Z</time>
      </trkpt>
      <trkpt lat="45.78563" lon="1.88068">
        <ele>707</ele>
        <time>2026-07-08T10:38:52.000Z</time>
      </trkpt>
      <trkpt lat="45.78563" lon="1.88068">
        <ele>707</ele>
        <time>2026-07-08T10:38:53.000Z</time>
      </trkpt>
      <trkpt lat="45.78563" lon="1.88068">
        <ele>707</ele>
        <time>2026-07-08T10:38:54.000Z</time>
      </trkpt>
      <trkpt lat="45.78563" lon="1.88068">
        <ele>707</ele>
        <time>2026-07-08T10:38:55.000Z</time>
      </trkpt>
      <trkpt lat="45.78563" lon="1.88068">
        <ele>707</ele>
        <time>2026-07-08T10:38:56.000Z</time>
      </trkpt>
      <trkpt lat="45.78563" lon="1.88068">
        <ele>707</ele>
        <time>2026-07-08T10:38:57.000Z</time>
      </trkpt>
      <trkpt lat="45.78563" lon="1.88068">
        <ele>707</ele>
        <time>2026-07-08T10:38:58.000Z</time>
      </trkpt>
      <trkpt lat="45.78563" lon="1.88068">
        <ele>707</ele>
        <time>2026-07-08T10:38:59.000Z</time>
      </trkpt>
      <trkpt lat="45.78563" lon="1.88068">
        <ele>707</ele>
        <time>2026-07-08T10:39:00.000Z</time>
      </trkpt>
      <trkpt lat="45.78563" lon="1.88068">
        <ele>707</ele>
        <time>2026-07-08T10:39:01.000Z</time>
      </trkpt>
      <trkpt lat="45.78563" lon="1.88068">
        <ele>707</ele>
        <time>2026-07-08T10:39:02.000Z</time>
      </trkpt>
      <trkpt lat="45.78563" lon="1.88068">
        <ele>707</ele>
        <time>2026-07-08T10:39:03.000Z</time>
      </trkpt>
      <trkpt lat="45.78563" lon="1.88068">
        <ele>707</ele>
        <time>2026-07-08T10:39:04.000Z</time>
      </trkpt>
      <trkpt lat="45.78563" lon="1.88068">
        <ele>707</ele>
        <time>2026-07-08T10:39:05.000Z</time>
      </trkpt>
      <trkpt lat="45.78563" lon="1.88068">
        <ele>707</ele>
        <time>2026-07-08T10:39:06.000Z</time>
      </trkpt>
      <trkpt lat="45.78563" lon="1.88068">
        <ele>707</ele>
        <time>2026-07-08T10:39:07.000Z</time>
      </trkpt>
      <trkpt lat="45.78563" lon="1.88068">
        <ele>707</ele>
        <time>2026-07-08T10:39:08.000Z</time>
      </trkpt>
      <trkpt lat="45.78563" lon="1.88068">
        <ele>707</ele>
        <time>2026-07-08T10:39:09.000Z</time>
      </trkpt>
      <trkpt lat="45.78563" lon="1.88068">
        <ele>706.9</ele>
        <time>2026-07-08T10:39:10.000Z</time>
      </trkpt>
      <trkpt lat="45.78563" lon="1.88068">
        <ele>706.9</ele>
        <time>2026-07-08T10:39:11.000Z</time>
      </trkpt>
      <trkpt lat="45.78563" lon="1.88068">
        <ele>706.9</ele>
        <time>2026-07-08T10:39:12.000Z</time>
      </trkpt>
      <trkpt lat="45.78563" lon="1.88068">
        <ele>706.9</ele>
        <time>2026-07-08T10:39:13.000Z</time>
      </trkpt>
      <trkpt lat="45.78563" lon="1.88068">
        <ele>706.9</ele>
        <time>2026-07-08T10:39:14.000Z</time>
      </trkpt>
      <trkpt lat="45.78563" lon="1.88068">
        <ele>706.9</ele>
        <time>2026-07-08T10:39:15.000Z</time>
      </trkpt>
      <trkpt lat="45.78563" lon="1.88068">
        <ele>706.9</ele>
        <time>2026-07-08T10:39:16.000Z</time>
      </trkpt>
      <trkpt lat="45.78563" lon="1.88068">
        <ele>706.9</ele>
        <time>2026-07-08T10:39:17.000Z</time>
      </trkpt>
      <trkpt lat="45.78563" lon="1.88068">
        <ele>706.9</ele>
        <time>2026-07-08T10:39:18.000Z</time>
      </trkpt>
      <trkpt lat="45.78563" lon="1.88068">
        <ele>706.9</ele>
        <time>2026-07-08T10:39:19.000Z</time>
      </trkpt>
      <trkpt lat="45.78563" lon="1.88068">
        <ele>706.9</ele>
        <time>2026-07-08T10:39:20.000Z</time>
      </trkpt>
      <trkpt lat="45.78563" lon="1.88068">
        <ele>706.9</ele>
        <time>2026-07-08T10:39:21.000Z</time>
      </trkpt>
      <trkpt lat="45.78563" lon="1.88068">
        <ele>706.9</ele>
        <time>2026-07-08T10:39:22.000Z</time>
      </trkpt>
      <trkpt lat="45.78563" lon="1.88068">
        <ele>706.9</ele>
        <time>2026-07-08T10:39:23.000Z</time>
      </trkpt>
      <trkpt lat="45.78563" lon="1.88068">
        <ele>706.9</ele>
        <time>2026-07-08T10:39:24.000Z</time>
      </trkpt>
      <trkpt lat="45.78563" lon="1.88067">
        <ele>707.2</ele>
        <time>2026-07-08T10:39:25.000Z</time>
      </trkpt>
      <trkpt lat="45.78563" lon="1.88067">
        <ele>707.2</ele>
        <time>2026-07-08T10:39:26.000Z</time>
      </trkpt>
      <trkpt lat="45.78563" lon="1.88067">
        <ele>707.6</ele>
        <time>2026-07-08T10:39:27.000Z</time>
      </trkpt>
      <trkpt lat="45.78563" lon="1.88067">
        <ele>707.6</ele>
        <time>2026-07-08T10:39:28.000Z</time>
      </trkpt>
      <trkpt lat="45.78564" lon="1.88067">
        <ele>707.8</ele>
        <time>2026-07-08T10:39:29.000Z</time>
      </trkpt>
      <trkpt lat="45.78564" lon="1.88067">
        <ele>707.8</ele>
        <time>2026-07-08T10:39:30.000Z</time>
      </trkpt>
      <trkpt lat="45.78564" lon="1.88067">
        <ele>707.7</ele>
        <time>2026-07-08T10:39:31.000Z</time>
      </trkpt>
      <trkpt lat="45.78564" lon="1.88067">
        <ele>707.7</ele>
        <time>2026-07-08T10:39:32.000Z</time>
      </trkpt>
      <trkpt lat="45.78564" lon="1.88067">
        <ele>707.7</ele>
        <time>2026-07-08T10:39:33.000Z</time>
      </trkpt>
      <trkpt lat="45.78564" lon="1.88067">
        <ele>707.7</ele>
        <time>2026-07-08T10:39:34.000Z</time>
      </trkpt>
      <trkpt lat="45.78564" lon="1.88067">
        <ele>707.7</ele>
        <time>2026-07-08T10:39:35.000Z</time>
      </trkpt>
      <trkpt lat="45.78564" lon="1.88067">
        <ele>707.7</ele>
        <time>2026-07-08T10:39:36.000Z</time>
      </trkpt>
      <trkpt lat="45.78564" lon="1.88067">
        <ele>707.7</ele>
        <time>2026-07-08T10:39:37.000Z</time>
      </trkpt>
      <trkpt lat="45.78564" lon="1.88067">
        <ele>707.7</ele>
        <time>2026-07-08T10:39:38.000Z</time>
      </trkpt>
      <trkpt lat="45.78564" lon="1.88067">
        <ele>707.7</ele>
        <time>2026-07-08T10:39:39.000Z</time>
      </trkpt>
      <trkpt lat="45.78564" lon="1.88067">
        <ele>707.7</ele>
        <time>2026-07-08T10:39:40.000Z</time>
      </trkpt>
      <trkpt lat="45.78564" lon="1.88067">
        <ele>707.8</ele>
        <time>2026-07-08T10:39:41.000Z</time>
      </trkpt>
      <trkpt lat="45.78564" lon="1.88067">
        <ele>707.8</ele>
        <time>2026-07-08T10:39:42.000Z</time>
      </trkpt>
      <trkpt lat="45.78564" lon="1.88067">
        <ele>707.8</ele>
        <time>2026-07-08T10:39:43.000Z</time>
      </trkpt>
      <trkpt lat="45.78564" lon="1.88067">
        <ele>707.8</ele>
        <time>2026-07-08T10:39:44.000Z</time>
      </trkpt>
      <trkpt lat="45.78564" lon="1.88067">
        <ele>707.8</ele>
        <time>2026-07-08T10:39:45.000Z</time>
      </trkpt>
      <trkpt lat="45.78564" lon="1.88067">
        <ele>707.7</ele>
        <time>2026-07-08T10:39:46.000Z</time>
      </trkpt>
      <trkpt lat="45.78564" lon="1.88067">
        <ele>707.7</ele>
        <time>2026-07-08T10:39:47.000Z</time>
      </trkpt>
      <trkpt lat="45.78564" lon="1.88067">
        <ele>707.8</ele>
        <time>2026-07-08T10:39:48.000Z</time>
      </trkpt>
      <trkpt lat="45.78564" lon="1.88067">
        <ele>707.7</ele>
        <time>2026-07-08T10:39:49.000Z</time>
      </trkpt>
      <trkpt lat="45.78564" lon="1.88067">
        <ele>707.7</ele>
        <time>2026-07-08T10:39:50.000Z</time>
      </trkpt>
      <trkpt lat="45.78564" lon="1.88067">
        <ele>707.7</ele>
        <time>2026-07-08T10:39:51.000Z</time>
      </trkpt>
      <trkpt lat="45.78564" lon="1.88067">
        <ele>707.7</ele>
        <time>2026-07-08T10:39:52.000Z</time>
      </trkpt>
      <trkpt lat="45.78564" lon="1.88067">
        <ele>707.7</ele>
        <time>2026-07-08T10:39:53.000Z</time>
      </trkpt>
      <trkpt lat="45.78564" lon="1.88066">
        <ele>707.7</ele>
        <time>2026-07-08T10:39:54.000Z</time>
      </trkpt>
      <trkpt lat="45.78564" lon="1.88066">
        <ele>707.7</ele>
        <time>2026-07-08T10:39:55.000Z</time>
      </trkpt>
      <trkpt lat="45.78564" lon="1.88066">
        <ele>707.7</ele>
        <time>2026-07-08T10:39:56.000Z</time>
      </trkpt>
      <trkpt lat="45.78564" lon="1.88066">
        <ele>707.7</ele>
        <time>2026-07-08T10:39:57.000Z</time>
      </trkpt>
      <trkpt lat="45.78564" lon="1.88066">
        <ele>707.7</ele>
        <time>2026-07-08T10:39:58.000Z</time>
      </trkpt>
      <trkpt lat="45.78564" lon="1.88066">
        <ele>707.7</ele>
        <time>2026-07-08T10:39:59.000Z</time>
      </trkpt>
      <trkpt lat="45.78564" lon="1.88066">
        <ele>707.7</ele>
        <time>2026-07-08T10:40:00.000Z</time>
      </trkpt>
      <trkpt lat="45.78564" lon="1.88066">
        <ele>707.7</ele>
        <time>2026-07-08T10:40:01.000Z</time>
      </trkpt>
      <trkpt lat="45.78564" lon="1.88066">
        <ele>707.7</ele>
        <time>2026-07-08T10:40:02.000Z</time>
      </trkpt>
      <trkpt lat="45.78564" lon="1.88065">
        <ele>707.7</ele>
        <time>2026-07-08T10:40:03.000Z</time>
      </trkpt>
      <trkpt lat="45.78564" lon="1.88065">
        <ele>707.7</ele>
        <time>2026-07-08T10:40:04.000Z</time>
      </trkpt>
      <trkpt lat="45.78564" lon="1.88065">
        <ele>707.7</ele>
        <time>2026-07-08T10:40:05.000Z</time>
      </trkpt>
      <trkpt lat="45.78564" lon="1.88065">
        <ele>707.7</ele>
        <time>2026-07-08T10:40:06.000Z</time>
      </trkpt>
      <trkpt lat="45.78564" lon="1.88065">
        <ele>707.7</ele>
        <time>2026-07-08T10:40:07.000Z</time>
      </trkpt>
      <trkpt lat="45.78564" lon="1.88065">
        <ele>707.7</ele>
        <time>2026-07-08T10:40:08.000Z</time>
      </trkpt>
      <trkpt lat="45.78564" lon="1.88065">
        <ele>707.7</ele>
        <time>2026-07-08T10:40:09.000Z</time>
      </trkpt>
      <trkpt lat="45.78564" lon="1.88065">
        <ele>707.7</ele>
        <time>2026-07-08T10:40:10.000Z</time>
      </trkpt>
      <trkpt lat="45.78564" lon="1.88065">
        <ele>707.7</ele>
        <time>2026-07-08T10:40:11.000Z</time>
      </trkpt>
      <trkpt lat="45.78564" lon="1.88065">
        <ele>707.7</ele>
        <time>2026-07-08T10:40:12.000Z</time>
      </trkpt>
      <trkpt lat="45.78564" lon="1.88065">
        <ele>707.7</ele>
        <time>2026-07-08T10:40:13.000Z</time>
      </trkpt>
      <trkpt lat="45.78564" lon="1.88065">
        <ele>707.7</ele>
        <time>2026-07-08T10:40:14.000Z</time>
      </trkpt>
      <trkpt lat="45.78564" lon="1.88065">
        <ele>707.7</ele>
        <time>2026-07-08T10:40:15.000Z</time>
      </trkpt>
      <trkpt lat="45.78564" lon="1.88065">
        <ele>707.7</ele>
        <time>2026-07-08T10:40:16.000Z</time>
      </trkpt>
      <trkpt lat="45.78564" lon="1.88065">
        <ele>707.7</ele>
        <time>2026-07-08T10:40:17.000Z</time>
      </trkpt>
      <trkpt lat="45.78564" lon="1.88065">
        <ele>707.7</ele>
        <time>2026-07-08T10:40:18.000Z</time>
      </trkpt>
      <trkpt lat="45.78564" lon="1.88065">
        <ele>707.7</ele>
        <time>2026-07-08T10:40:19.000Z</time>
      </trkpt>
      <trkpt lat="45.78564" lon="1.88065">
        <ele>707.7</ele>
        <time>2026-07-08T10:40:20.000Z</time>
      </trkpt>
      <trkpt lat="45.78564" lon="1.88065">
        <ele>707.7</ele>
        <time>2026-07-08T10:40:21.000Z</time>
      </trkpt>
      <trkpt lat="45.78564" lon="1.88065">
        <ele>707.2</ele>
        <time>2026-07-08T10:40:22.000Z</time>
      </trkpt>
      <trkpt lat="45.78564" lon="1.88065">
        <ele>707.2</ele>
        <time>2026-07-08T10:40:23.000Z</time>
      </trkpt>
      <trkpt lat="45.78564" lon="1.88065">
        <ele>707.2</ele>
        <time>2026-07-08T10:40:24.000Z</time>
      </trkpt>
      <trkpt lat="45.78564" lon="1.88065">
        <ele>707.2</ele>
        <time>2026-07-08T10:40:25.000Z</time>
      </trkpt>
      <trkpt lat="45.78564" lon="1.88065">
        <ele>707.2</ele>
        <time>2026-07-08T10:40:26.000Z</time>
      </trkpt>
      <trkpt lat="45.78564" lon="1.88065">
        <ele>707.2</ele>
        <time>2026-07-08T10:40:27.000Z</time>
      </trkpt>
      <trkpt lat="45.78564" lon="1.88065">
        <ele>707.2</ele>
        <time>2026-07-08T10:40:28.000Z</time>
      </trkpt>
      <trkpt lat="45.78564" lon="1.88065">
        <ele>707.2</ele>
        <time>2026-07-08T10:40:29.000Z</time>
      </trkpt>
      <trkpt lat="45.78564" lon="1.88065">
        <ele>707.2</ele>
        <time>2026-07-08T10:40:30.000Z</time>
      </trkpt>
      <trkpt lat="45.78564" lon="1.88065">
        <ele>707.2</ele>
        <time>2026-07-08T10:40:31.000Z</time>
      </trkpt>
      <trkpt lat="45.78564" lon="1.88065">
        <ele>707.2</ele>
        <time>2026-07-08T10:40:32.000Z</time>
      </trkpt>
      <trkpt lat="45.78564" lon="1.88065">
        <ele>707.1</ele>
        <time>2026-07-08T10:40:33.000Z</time>
      </trkpt>
      <trkpt lat="45.78564" lon="1.88065">
        <ele>707.1</ele>
        <time>2026-07-08T10:40:34.000Z</time>
      </trkpt>
      <trkpt lat="45.78565" lon="1.88065">
        <ele>707.1</ele>
        <time>2026-07-08T10:40:35.000Z</time>
      </trkpt>
      <trkpt lat="45.78565" lon="1.88065">
        <ele>707.1</ele>
        <time>2026-07-08T10:40:36.000Z</time>
      </trkpt>
      <trkpt lat="45.78565" lon="1.88065">
        <ele>707.1</ele>
        <time>2026-07-08T10:40:37.000Z</time>
      </trkpt>
      <trkpt lat="45.78565" lon="1.88065">
        <ele>707.1</ele>
        <time>2026-07-08T10:40:38.000Z</time>
      </trkpt>
      <trkpt lat="45.78565" lon="1.88065">
        <ele>706.9</ele>
        <time>2026-07-08T10:40:39.000Z</time>
      </trkpt>
      <trkpt lat="45.78565" lon="1.88065">
        <ele>706.9</ele>
        <time>2026-07-08T10:40:40.000Z</time>
      </trkpt>
      <trkpt lat="45.78565" lon="1.88065">
        <ele>707</ele>
        <time>2026-07-08T10:40:41.000Z</time>
      </trkpt>
      <trkpt lat="45.78565" lon="1.88065">
        <ele>707</ele>
        <time>2026-07-08T10:40:42.000Z</time>
      </trkpt>
      <trkpt lat="45.78565" lon="1.88065">
        <ele>707</ele>
        <time>2026-07-08T10:40:43.000Z</time>
      </trkpt>
      <trkpt lat="45.78565" lon="1.88065">
        <ele>707</ele>
        <time>2026-07-08T10:40:44.000Z</time>
      </trkpt>
      <trkpt lat="45.78565" lon="1.88065">
        <ele>707</ele>
        <time>2026-07-08T10:40:45.000Z</time>
      </trkpt>
      <trkpt lat="45.78565" lon="1.88065">
        <ele>707</ele>
        <time>2026-07-08T10:40:46.000Z</time>
      </trkpt>
      <trkpt lat="45.78565" lon="1.88065">
        <ele>707</ele>
        <time>2026-07-08T10:40:47.000Z</time>
      </trkpt>
      <trkpt lat="45.78565" lon="1.88065">
        <ele>707</ele>
        <time>2026-07-08T10:40:48.000Z</time>
      </trkpt>
      <trkpt lat="45.78565" lon="1.88065">
        <ele>707</ele>
        <time>2026-07-08T10:40:49.000Z</time>
      </trkpt>
      <trkpt lat="45.78565" lon="1.88065">
        <ele>707</ele>
        <time>2026-07-08T10:40:50.000Z</time>
      </trkpt>
      <trkpt lat="45.78565" lon="1.88065">
        <ele>707</ele>
        <time>2026-07-08T10:40:51.000Z</time>
      </trkpt>
      <trkpt lat="45.78565" lon="1.88065">
        <ele>706.6</ele>
        <time>2026-07-08T10:40:52.000Z</time>
      </trkpt>
      <trkpt lat="45.78565" lon="1.88064">
        <ele>706.5</ele>
        <time>2026-07-08T10:40:53.000Z</time>
      </trkpt>
      <trkpt lat="45.78566" lon="1.88063">
        <ele>706.3</ele>
        <time>2026-07-08T10:40:54.000Z</time>
      </trkpt>
      <trkpt lat="45.78565" lon="1.88062">
        <ele>706.1</ele>
        <time>2026-07-08T10:40:55.000Z</time>
      </trkpt>
      <trkpt lat="45.78564" lon="1.88062">
        <ele>705.9</ele>
        <time>2026-07-08T10:40:56.000Z</time>
      </trkpt>
      <trkpt lat="45.78563" lon="1.88062">
        <ele>705.7</ele>
        <time>2026-07-08T10:40:57.000Z</time>
      </trkpt>
      <trkpt lat="45.78563" lon="1.88063">
        <ele>705.7</ele>
        <time>2026-07-08T10:40:58.000Z</time>
      </trkpt>
      <trkpt lat="45.78562" lon="1.88062">
        <ele>705.7</ele>
        <time>2026-07-08T10:40:59.000Z</time>
      </trkpt>
      <trkpt lat="45.78562" lon="1.88062">
        <ele>705.7</ele>
        <time>2026-07-08T10:41:00.000Z</time>
      </trkpt>
      <trkpt lat="45.78562" lon="1.88062">
        <ele>705.7</ele>
        <time>2026-07-08T10:41:01.000Z</time>
      </trkpt>
      <trkpt lat="45.78563" lon="1.88062">
        <ele>705.3</ele>
        <time>2026-07-08T10:41:02.000Z</time>
      </trkpt>
      <trkpt lat="45.78563" lon="1.88062">
        <ele>705.3</ele>
        <time>2026-07-08T10:41:03.000Z</time>
      </trkpt>
      <trkpt lat="45.78563" lon="1.88062">
        <ele>705.3</ele>
        <time>2026-07-08T10:41:04.000Z</time>
      </trkpt>
      <trkpt lat="45.78563" lon="1.88061">
        <ele>704.7</ele>
        <time>2026-07-08T10:41:05.000Z</time>
      </trkpt>
      <trkpt lat="45.78563" lon="1.88061">
        <ele>704.6</ele>
        <time>2026-07-08T10:41:06.000Z</time>
      </trkpt>
      <trkpt lat="45.78564" lon="1.8806">
        <ele>704.3</ele>
        <time>2026-07-08T10:41:07.000Z</time>
      </trkpt>
      <trkpt lat="45.78565" lon="1.88059">
        <ele>704.5</ele>
        <time>2026-07-08T10:41:08.000Z</time>
      </trkpt>
      <trkpt lat="45.78566" lon="1.88057">
        <ele>704.3</ele>
        <time>2026-07-08T10:41:09.000Z</time>
      </trkpt>
      <trkpt lat="45.78566" lon="1.88057">
        <ele>704.3</ele>
        <time>2026-07-08T10:41:10.000Z</time>
      </trkpt>
      <trkpt lat="45.78566" lon="1.88057">
        <ele>704.3</ele>
        <time>2026-07-08T10:41:11.000Z</time>
      </trkpt>
      <trkpt lat="45.78566" lon="1.88057">
        <ele>704.3</ele>
        <time>2026-07-08T10:41:12.000Z</time>
      </trkpt>
      <trkpt lat="45.78566" lon="1.88057">
        <ele>704.3</ele>
        <time>2026-07-08T10:41:13.000Z</time>
      </trkpt>
      <trkpt lat="45.78566" lon="1.88057">
        <ele>704.3</ele>
        <time>2026-07-08T10:41:14.000Z</time>
      </trkpt>
      <trkpt lat="45.78566" lon="1.88057">
        <ele>704.3</ele>
        <time>2026-07-08T10:41:15.000Z</time>
      </trkpt>
      <trkpt lat="45.78566" lon="1.88057">
        <ele>704.3</ele>
        <time>2026-07-08T10:41:16.000Z</time>
      </trkpt>
      <trkpt lat="45.78566" lon="1.88057">
        <ele>704.3</ele>
        <time>2026-07-08T10:41:17.000Z</time>
      </trkpt>
      <trkpt lat="45.78566" lon="1.88057">
        <ele>704.3</ele>
        <time>2026-07-08T10:41:18.000Z</time>
      </trkpt>
      <trkpt lat="45.78566" lon="1.88057">
        <ele>704.3</ele>
        <time>2026-07-08T10:41:19.000Z</time>
      </trkpt>
      <trkpt lat="45.78566" lon="1.88057">
        <ele>704.3</ele>
        <time>2026-07-08T10:41:20.000Z</time>
      </trkpt>
      <trkpt lat="45.78566" lon="1.88057">
        <ele>704.3</ele>
        <time>2026-07-08T10:41:21.000Z</time>
      </trkpt>
      <trkpt lat="45.78566" lon="1.88057">
        <ele>704.3</ele>
        <time>2026-07-08T10:41:22.000Z</time>
      </trkpt>
      <trkpt lat="45.78566" lon="1.88057">
        <ele>704.3</ele>
        <time>2026-07-08T10:41:23.000Z</time>
      </trkpt>
      <trkpt lat="45.78566" lon="1.88057">
        <ele>704.3</ele>
        <time>2026-07-08T10:41:24.000Z</time>
      </trkpt>
      <trkpt lat="45.78566" lon="1.88057">
        <ele>704.3</ele>
        <time>2026-07-08T10:41:25.000Z</time>
      </trkpt>
      <trkpt lat="45.78566" lon="1.88057">
        <ele>704.3</ele>
        <time>2026-07-08T10:41:26.000Z</time>
      </trkpt>
      <trkpt lat="45.78566" lon="1.88057">
        <ele>704.3</ele>
        <time>2026-07-08T10:41:27.000Z</time>
      </trkpt>
      <trkpt lat="45.78566" lon="1.88057">
        <ele>704.3</ele>
        <time>2026-07-08T10:41:28.000Z</time>
      </trkpt>
      <trkpt lat="45.78566" lon="1.88057">
        <ele>704.3</ele>
        <time>2026-07-08T10:41:29.000Z</time>
      </trkpt>
      <trkpt lat="45.78566" lon="1.88057">
        <ele>704.3</ele>
        <time>2026-07-08T10:41:30.000Z</time>
      </trkpt>
      <trkpt lat="45.78566" lon="1.88057">
        <ele>704.3</ele>
        <time>2026-07-08T10:41:31.000Z</time>
      </trkpt>
      <trkpt lat="45.78566" lon="1.88057">
        <ele>704.3</ele>
        <time>2026-07-08T10:41:32.000Z</time>
      </trkpt>
      <trkpt lat="45.78566" lon="1.88057">
        <ele>704.3</ele>
        <time>2026-07-08T10:41:33.000Z</time>
      </trkpt>
      <trkpt lat="45.78566" lon="1.88057">
        <ele>704.3</ele>
        <time>2026-07-08T10:41:34.000Z</time>
      </trkpt>
      <trkpt lat="45.78566" lon="1.88057">
        <ele>704.3</ele>
        <time>2026-07-08T10:41:35.000Z</time>
      </trkpt>
      <trkpt lat="45.78566" lon="1.88057">
        <ele>704.3</ele>
        <time>2026-07-08T10:41:36.000Z</time>
      </trkpt>
      <trkpt lat="45.78566" lon="1.88057">
        <ele>704.3</ele>
        <time>2026-07-08T10:41:37.000Z</time>
      </trkpt>
      <trkpt lat="45.78566" lon="1.88057">
        <ele>704.3</ele>
        <time>2026-07-08T10:41:38.000Z</time>
      </trkpt>
      <trkpt lat="45.78566" lon="1.88057">
        <ele>704.3</ele>
        <time>2026-07-08T10:41:39.000Z</time>
      </trkpt>
      <trkpt lat="45.78566" lon="1.88057">
        <ele>704.3</ele>
        <time>2026-07-08T10:41:40.000Z</time>
      </trkpt>
      <trkpt lat="45.78566" lon="1.88057">
        <ele>704.3</ele>
        <time>2026-07-08T10:41:41.000Z</time>
      </trkpt>
      <trkpt lat="45.78566" lon="1.88057">
        <ele>704.3</ele>
        <time>2026-07-08T10:41:42.000Z</time>
      </trkpt>
      <trkpt lat="45.78566" lon="1.88057">
        <ele>704.3</ele>
        <time>2026-07-08T10:41:43.000Z</time>
      </trkpt>
      <trkpt lat="45.78566" lon="1.88057">
        <ele>704.3</ele>
        <time>2026-07-08T10:41:44.000Z</time>
      </trkpt>
      <trkpt lat="45.78566" lon="1.88057">
        <ele>704.3</ele>
        <time>2026-07-08T10:41:45.000Z</time>
      </trkpt>
      <trkpt lat="45.78566" lon="1.88057">
        <ele>704.3</ele>
        <time>2026-07-08T10:41:46.000Z</time>
      </trkpt>
      <trkpt lat="45.78566" lon="1.88057">
        <ele>704.3</ele>
        <time>2026-07-08T10:41:47.000Z</time>
      </trkpt>
      <trkpt lat="45.78566" lon="1.88057">
        <ele>704.3</ele>
        <time>2026-07-08T10:41:48.000Z</time>
      </trkpt>
      <trkpt lat="45.78566" lon="1.88057">
        <ele>704.3</ele>
        <time>2026-07-08T10:41:49.000Z</time>
      </trkpt>
      <trkpt lat="45.78566" lon="1.88057">
        <ele>704.3</ele>
        <time>2026-07-08T10:41:50.000Z</time>
      </trkpt>
      <trkpt lat="45.78566" lon="1.88057">
        <ele>704.3</ele>
        <time>2026-07-08T10:41:51.000Z</time>
      </trkpt>
      <trkpt lat="45.78566" lon="1.88057">
        <ele>704.3</ele>
        <time>2026-07-08T10:41:52.000Z</time>
      </trkpt>
      <trkpt lat="45.78566" lon="1.88057">
        <ele>704.3</ele>
        <time>2026-07-08T10:41:53.000Z</time>
      </trkpt>
      <trkpt lat="45.78566" lon="1.88057">
        <ele>704.4</ele>
        <time>2026-07-08T10:41:54.000Z</time>
      </trkpt>
      <trkpt lat="45.78566" lon="1.88057">
        <ele>704.3</ele>
        <time>2026-07-08T10:41:55.000Z</time>
      </trkpt>
      <trkpt lat="45.78566" lon="1.88057">
        <ele>704.4</ele>
        <time>2026-07-08T10:41:56.000Z</time>
      </trkpt>
      <trkpt lat="45.78566" lon="1.88057">
        <ele>704.3</ele>
        <time>2026-07-08T10:41:57.000Z</time>
      </trkpt>
      <trkpt lat="45.78566" lon="1.88057">
        <ele>704.4</ele>
        <time>2026-07-08T10:41:58.000Z</time>
      </trkpt>
      <trkpt lat="45.78566" lon="1.88057">
        <ele>704.4</ele>
        <time>2026-07-08T10:41:59.000Z</time>
      </trkpt>
      <trkpt lat="45.78566" lon="1.88057">
        <ele>704.4</ele>
        <time>2026-07-08T10:42:00.000Z</time>
      </trkpt>
      <trkpt lat="45.78566" lon="1.88057">
        <ele>704.4</ele>
        <time>2026-07-08T10:42:01.000Z</time>
      </trkpt>
      <trkpt lat="45.78566" lon="1.88057">
        <ele>704.4</ele>
        <time>2026-07-08T10:42:02.000Z</time>
      </trkpt>
      <trkpt lat="45.78566" lon="1.88057">
        <ele>704.4</ele>
        <time>2026-07-08T10:42:03.000Z</time>
      </trkpt>
      <trkpt lat="45.78566" lon="1.88057">
        <ele>704.4</ele>
        <time>2026-07-08T10:42:04.000Z</time>
      </trkpt>
      <trkpt lat="45.78566" lon="1.88057">
        <ele>704.4</ele>
        <time>2026-07-08T10:42:05.000Z</time>
      </trkpt>
      <trkpt lat="45.78566" lon="1.88057">
        <ele>704.4</ele>
        <time>2026-07-08T10:42:06.000Z</time>
      </trkpt>
      <trkpt lat="45.78566" lon="1.88057">
        <ele>704.4</ele>
        <time>2026-07-08T10:42:07.000Z</time>
      </trkpt>
      <trkpt lat="45.78566" lon="1.88057">
        <ele>704.4</ele>
        <time>2026-07-08T10:42:08.000Z</time>
      </trkpt>
      <trkpt lat="45.78566" lon="1.88057">
        <ele>704.4</ele>
        <time>2026-07-08T10:42:09.000Z</time>
      </trkpt>
      <trkpt lat="45.78566" lon="1.88057">
        <ele>704.4</ele>
        <time>2026-07-08T10:42:10.000Z</time>
      </trkpt>
      <trkpt lat="45.78566" lon="1.88057">
        <ele>704.4</ele>
        <time>2026-07-08T10:42:11.000Z</time>
      </trkpt>
      <trkpt lat="45.78566" lon="1.88057">
        <ele>704.4</ele>
        <time>2026-07-08T10:42:12.000Z</time>
      </trkpt>
      <trkpt lat="45.78566" lon="1.88057">
        <ele>704.4</ele>
        <time>2026-07-08T10:42:13.000Z</time>
      </trkpt>
      <trkpt lat="45.78566" lon="1.88057">
        <ele>704.4</ele>
        <time>2026-07-08T10:42:14.000Z</time>
      </trkpt>
      <trkpt lat="45.78566" lon="1.88057">
        <ele>704.4</ele>
        <time>2026-07-08T10:42:15.000Z</time>
      </trkpt>
      <trkpt lat="45.78566" lon="1.88057">
        <ele>704.4</ele>
        <time>2026-07-08T10:42:16.000Z</time>
      </trkpt>
      <trkpt lat="45.78566" lon="1.88057">
        <ele>704.4</ele>
        <time>2026-07-08T10:42:17.000Z</time>
      </trkpt>
      <trkpt lat="45.78566" lon="1.88057">
        <ele>704.4</ele>
        <time>2026-07-08T10:42:18.000Z</time>
      </trkpt>
      <trkpt lat="45.78566" lon="1.88057">
        <ele>704.4</ele>
        <time>2026-07-08T10:42:19.000Z</time>
      </trkpt>
      <trkpt lat="45.78566" lon="1.88057">
        <ele>704.4</ele>
        <time>2026-07-08T10:42:20.000Z</time>
      </trkpt>
      <trkpt lat="45.78566" lon="1.88057">
        <ele>704.4</ele>
        <time>2026-07-08T10:42:21.000Z</time>
      </trkpt>
      <trkpt lat="45.78566" lon="1.88057">
        <ele>704.4</ele>
        <time>2026-07-08T10:42:22.000Z</time>
      </trkpt>
      <trkpt lat="45.78566" lon="1.88057">
        <ele>704.4</ele>
        <time>2026-07-08T10:42:23.000Z</time>
      </trkpt>
      <trkpt lat="45.78566" lon="1.88057">
        <ele>704.4</ele>
        <time>2026-07-08T10:42:24.000Z</time>
      </trkpt>
      <trkpt lat="45.78566" lon="1.88057">
        <ele>704.4</ele>
        <time>2026-07-08T10:42:25.000Z</time>
      </trkpt>
      <trkpt lat="45.78566" lon="1.88057">
        <ele>704.5</ele>
        <time>2026-07-08T10:42:26.000Z</time>
      </trkpt>
      <trkpt lat="45.78566" lon="1.88057">
        <ele>704.5</ele>
        <time>2026-07-08T10:42:27.000Z</time>
      </trkpt>
      <trkpt lat="45.78566" lon="1.88057">
        <ele>704.5</ele>
        <time>2026-07-08T10:42:28.000Z</time>
      </trkpt>
      <trkpt lat="45.78566" lon="1.88057">
        <ele>704.5</ele>
        <time>2026-07-08T10:42:29.000Z</time>
      </trkpt>
      <trkpt lat="45.78566" lon="1.88057">
        <ele>704.5</ele>
        <time>2026-07-08T10:42:30.000Z</time>
      </trkpt>
      <trkpt lat="45.78566" lon="1.88057">
        <ele>704.5</ele>
        <time>2026-07-08T10:42:31.000Z</time>
      </trkpt>
      <trkpt lat="45.78566" lon="1.88057">
        <ele>704.5</ele>
        <time>2026-07-08T10:42:32.000Z</time>
      </trkpt>
      <trkpt lat="45.78566" lon="1.88057">
        <ele>704.5</ele>
        <time>2026-07-08T10:42:33.000Z</time>
      </trkpt>
      <trkpt lat="45.78566" lon="1.88057">
        <ele>704.5</ele>
        <time>2026-07-08T10:42:34.000Z</time>
      </trkpt>
      <trkpt lat="45.78566" lon="1.88057">
        <ele>704.5</ele>
        <time>2026-07-08T10:42:35.000Z</time>
      </trkpt>
      <trkpt lat="45.78566" lon="1.88057">
        <ele>704.5</ele>
        <time>2026-07-08T10:42:36.000Z</time>
      </trkpt>
      <trkpt lat="45.78566" lon="1.88057">
        <ele>704.5</ele>
        <time>2026-07-08T10:42:37.000Z</time>
      </trkpt>
      <trkpt lat="45.78566" lon="1.88057">
        <ele>704.5</ele>
        <time>2026-07-08T10:42:38.000Z</time>
      </trkpt>
      <trkpt lat="45.78566" lon="1.88057">
        <ele>704.5</ele>
        <time>2026-07-08T10:42:39.000Z</time>
      </trkpt>
      <trkpt lat="45.78566" lon="1.88057">
        <ele>704.5</ele>
        <time>2026-07-08T10:42:40.000Z</time>
      </trkpt>
      <trkpt lat="45.78566" lon="1.88057">
        <ele>704.5</ele>
        <time>2026-07-08T10:42:41.000Z</time>
      </trkpt>
      <trkpt lat="45.78566" lon="1.88057">
        <ele>704.5</ele>
        <time>2026-07-08T10:42:42.000Z</time>
      </trkpt>
      <trkpt lat="45.78566" lon="1.88057">
        <ele>704.5</ele>
        <time>2026-07-08T10:42:43.000Z</time>
      </trkpt>
      <trkpt lat="45.78566" lon="1.88057">
        <ele>704.5</ele>
        <time>2026-07-08T10:42:44.000Z</time>
      </trkpt>
      <trkpt lat="45.78566" lon="1.88057">
        <ele>704.5</ele>
        <time>2026-07-08T10:42:45.000Z</time>
      </trkpt>
      <trkpt lat="45.78566" lon="1.88057">
        <ele>704.5</ele>
        <time>2026-07-08T10:42:46.000Z</time>
      </trkpt>
      <trkpt lat="45.78566" lon="1.88057">
        <ele>704.5</ele>
        <time>2026-07-08T10:42:47.000Z</time>
      </trkpt>
      <trkpt lat="45.78566" lon="1.88057">
        <ele>704.5</ele>
        <time>2026-07-08T10:42:48.000Z</time>
      </trkpt>
      <trkpt lat="45.78566" lon="1.88057">
        <ele>704.6</ele>
        <time>2026-07-08T10:42:49.000Z</time>
      </trkpt>
      <trkpt lat="45.78566" lon="1.88057">
        <ele>704.6</ele>
        <time>2026-07-08T10:42:50.000Z</time>
      </trkpt>
      <trkpt lat="45.78566" lon="1.88057">
        <ele>704.6</ele>
        <time>2026-07-08T10:42:51.000Z</time>
      </trkpt>
      <trkpt lat="45.78566" lon="1.88057">
        <ele>704.6</ele>
        <time>2026-07-08T10:42:52.000Z</time>
      </trkpt>
      <trkpt lat="45.78566" lon="1.88057">
        <ele>704.6</ele>
        <time>2026-07-08T10:42:53.000Z</time>
      </trkpt>
      <trkpt lat="45.78566" lon="1.88057">
        <ele>704.6</ele>
        <time>2026-07-08T10:42:54.000Z</time>
      </trkpt>
      <trkpt lat="45.78566" lon="1.88057">
        <ele>704.6</ele>
        <time>2026-07-08T10:42:55.000Z</time>
      </trkpt>
      <trkpt lat="45.78566" lon="1.88057">
        <ele>704.6</ele>
        <time>2026-07-08T10:42:56.000Z</time>
      </trkpt>
      <trkpt lat="45.78566" lon="1.88057">
        <ele>704.6</ele>
        <time>2026-07-08T10:42:57.000Z</time>
      </trkpt>
      <trkpt lat="45.78566" lon="1.88057">
        <ele>704.6</ele>
        <time>2026-07-08T10:42:58.000Z</time>
      </trkpt>
      <trkpt lat="45.78566" lon="1.88058">
        <ele>704.6</ele>
        <time>2026-07-08T10:42:59.000Z</time>
      </trkpt>
      <trkpt lat="45.78566" lon="1.88058">
        <ele>704.6</ele>
        <time>2026-07-08T10:43:00.000Z</time>
      </trkpt>
      <trkpt lat="45.78566" lon="1.88058">
        <ele>704.6</ele>
        <time>2026-07-08T10:43:01.000Z</time>
      </trkpt>
      <trkpt lat="45.78566" lon="1.88058">
        <ele>704.6</ele>
        <time>2026-07-08T10:43:02.000Z</time>
      </trkpt>
      <trkpt lat="45.78566" lon="1.88058">
        <ele>704.6</ele>
        <time>2026-07-08T10:43:03.000Z</time>
      </trkpt>
      <trkpt lat="45.78566" lon="1.88058">
        <ele>704.6</ele>
        <time>2026-07-08T10:43:04.000Z</time>
      </trkpt>
      <trkpt lat="45.78566" lon="1.88058">
        <ele>704.6</ele>
        <time>2026-07-08T10:43:05.000Z</time>
      </trkpt>
      <trkpt lat="45.78566" lon="1.88058">
        <ele>704.6</ele>
        <time>2026-07-08T10:43:06.000Z</time>
      </trkpt>
      <trkpt lat="45.78566" lon="1.88058">
        <ele>704.6</ele>
        <time>2026-07-08T10:43:07.000Z</time>
      </trkpt>
      <trkpt lat="45.78566" lon="1.88058">
        <ele>704.6</ele>
        <time>2026-07-08T10:43:08.000Z</time>
      </trkpt>
      <trkpt lat="45.78566" lon="1.88058">
        <ele>704.6</ele>
        <time>2026-07-08T10:43:09.000Z</time>
      </trkpt>
      <trkpt lat="45.78566" lon="1.88058">
        <ele>704.6</ele>
        <time>2026-07-08T10:43:10.000Z</time>
      </trkpt>
      <trkpt lat="45.78566" lon="1.88058">
        <ele>704.6</ele>
        <time>2026-07-08T10:43:11.000Z</time>
      </trkpt>
      <trkpt lat="45.78566" lon="1.88058">
        <ele>704.6</ele>
        <time>2026-07-08T10:43:12.000Z</time>
      </trkpt>
      <trkpt lat="45.78566" lon="1.88058">
        <ele>704.6</ele>
        <time>2026-07-08T10:43:13.000Z</time>
      </trkpt>
      <trkpt lat="45.78566" lon="1.88058">
        <ele>704.6</ele>
        <time>2026-07-08T10:43:14.000Z</time>
      </trkpt>
      <trkpt lat="45.78566" lon="1.88058">
        <ele>704.6</ele>
        <time>2026-07-08T10:43:15.000Z</time>
      </trkpt>
      <trkpt lat="45.78566" lon="1.88058">
        <ele>704.7</ele>
        <time>2026-07-08T10:43:16.000Z</time>
      </trkpt>
      <trkpt lat="45.78566" lon="1.88058">
        <ele>704.7</ele>
        <time>2026-07-08T10:43:17.000Z</time>
      </trkpt>
      <trkpt lat="45.78566" lon="1.88058">
        <ele>704.7</ele>
        <time>2026-07-08T10:43:18.000Z</time>
      </trkpt>
      <trkpt lat="45.78566" lon="1.88058">
        <ele>704.7</ele>
        <time>2026-07-08T10:43:19.000Z</time>
      </trkpt>
      <trkpt lat="45.78566" lon="1.88058">
        <ele>704.7</ele>
        <time>2026-07-08T10:43:20.000Z</time>
      </trkpt>
      <trkpt lat="45.78566" lon="1.88058">
        <ele>704.7</ele>
        <time>2026-07-08T10:43:21.000Z</time>
      </trkpt>
      <trkpt lat="45.78566" lon="1.88058">
        <ele>705.1</ele>
        <time>2026-07-08T10:43:22.000Z</time>
      </trkpt>
      <trkpt lat="45.78566" lon="1.88058">
        <ele>705.1</ele>
        <time>2026-07-08T10:43:23.000Z</time>
      </trkpt>
      <trkpt lat="45.78566" lon="1.88058">
        <ele>704.9</ele>
        <time>2026-07-08T10:43:24.000Z</time>
      </trkpt>
      <trkpt lat="45.78566" lon="1.88058">
        <ele>704.6</ele>
        <time>2026-07-08T10:43:25.000Z</time>
      </trkpt>
      <trkpt lat="45.78566" lon="1.88058">
        <ele>705.6</ele>
        <time>2026-07-08T10:43:26.000Z</time>
      </trkpt>
      <trkpt lat="45.78566" lon="1.88058">
        <ele>705.6</ele>
        <time>2026-07-08T10:43:27.000Z</time>
      </trkpt>
      <trkpt lat="45.78566" lon="1.88058">
        <ele>705.4</ele>
        <time>2026-07-08T10:43:28.000Z</time>
      </trkpt>
      <trkpt lat="45.78566" lon="1.88058">
        <ele>705.4</ele>
        <time>2026-07-08T10:43:29.000Z</time>
      </trkpt>
      <trkpt lat="45.78566" lon="1.88058">
        <ele>705.4</ele>
        <time>2026-07-08T10:43:30.000Z</time>
      </trkpt>
      <trkpt lat="45.78566" lon="1.88058">
        <ele>705.4</ele>
        <time>2026-07-08T10:43:31.000Z</time>
      </trkpt>
      <trkpt lat="45.78566" lon="1.88058">
        <ele>705.5</ele>
        <time>2026-07-08T10:43:32.000Z</time>
      </trkpt>
      <trkpt lat="45.78566" lon="1.88058">
        <ele>705.5</ele>
        <time>2026-07-08T10:43:33.000Z</time>
      </trkpt>
      <trkpt lat="45.78567" lon="1.88058">
        <ele>705.4</ele>
        <time>2026-07-08T10:43:34.000Z</time>
      </trkpt>
      <trkpt lat="45.78568" lon="1.88059">
        <ele>705.5</ele>
        <time>2026-07-08T10:43:35.000Z</time>
      </trkpt>
      <trkpt lat="45.78569" lon="1.88059">
        <ele>705.9</ele>
        <time>2026-07-08T10:43:36.000Z</time>
      </trkpt>
      <trkpt lat="45.7857" lon="1.88058">
        <ele>706.2</ele>
        <time>2026-07-08T10:43:37.000Z</time>
      </trkpt>
      <trkpt lat="45.78571" lon="1.88059">
        <ele>705.7</ele>
        <time>2026-07-08T10:43:38.000Z</time>
      </trkpt>
      <trkpt lat="45.78572" lon="1.88059">
        <ele>705.1</ele>
        <time>2026-07-08T10:43:39.000Z</time>
      </trkpt>
      <trkpt lat="45.78573" lon="1.88059">
        <ele>704.1</ele>
        <time>2026-07-08T10:43:40.000Z</time>
      </trkpt>
      <trkpt lat="45.78572" lon="1.8806">
        <ele>705.6</ele>
        <time>2026-07-08T10:43:41.000Z</time>
      </trkpt>
      <trkpt lat="45.78572" lon="1.88062">
        <ele>705.6</ele>
        <time>2026-07-08T10:43:42.000Z</time>
      </trkpt>
      <trkpt lat="45.78571" lon="1.88063">
        <ele>707.1</ele>
        <time>2026-07-08T10:43:43.000Z</time>
      </trkpt>
      <trkpt lat="45.78571" lon="1.88064">
        <ele>707.1</ele>
        <time>2026-07-08T10:43:44.000Z</time>
      </trkpt>
      <trkpt lat="45.78571" lon="1.88064">
        <ele>707.1</ele>
        <time>2026-07-08T10:43:45.000Z</time>
      </trkpt>
      <trkpt lat="45.78571" lon="1.88064">
        <ele>707.1</ele>
        <time>2026-07-08T10:43:46.000Z</time>
      </trkpt>
      <trkpt lat="45.78571" lon="1.88064">
        <ele>707.1</ele>
        <time>2026-07-08T10:43:47.000Z</time>
      </trkpt>
      <trkpt lat="45.78571" lon="1.88064">
        <ele>707.1</ele>
        <time>2026-07-08T10:43:48.000Z</time>
      </trkpt>
      <trkpt lat="45.78571" lon="1.88064">
        <ele>707.1</ele>
        <time>2026-07-08T10:43:49.000Z</time>
      </trkpt>
      <trkpt lat="45.78571" lon="1.88064">
        <ele>707.1</ele>
        <time>2026-07-08T10:43:50.000Z</time>
      </trkpt>
      <trkpt lat="45.78571" lon="1.88064">
        <ele>707.1</ele>
        <time>2026-07-08T10:43:51.000Z</time>
      </trkpt>
      <trkpt lat="45.78571" lon="1.88064">
        <ele>707.1</ele>
        <time>2026-07-08T10:43:52.000Z</time>
      </trkpt>
      <trkpt lat="45.78571" lon="1.88064">
        <ele>707.1</ele>
        <time>2026-07-08T10:43:53.000Z</time>
      </trkpt>
      <trkpt lat="45.78571" lon="1.88064">
        <ele>707.1</ele>
        <time>2026-07-08T10:43:54.000Z</time>
      </trkpt>
      <trkpt lat="45.78571" lon="1.88064">
        <ele>707.1</ele>
        <time>2026-07-08T10:43:55.000Z</time>
      </trkpt>
      <trkpt lat="45.78571" lon="1.88064">
        <ele>707.1</ele>
        <time>2026-07-08T10:43:56.000Z</time>
      </trkpt>
      <trkpt lat="45.78571" lon="1.88064">
        <ele>707.1</ele>
        <time>2026-07-08T10:43:57.000Z</time>
      </trkpt>
      <trkpt lat="45.78571" lon="1.88064">
        <ele>707.1</ele>
        <time>2026-07-08T10:43:58.000Z</time>
      </trkpt>
      <trkpt lat="45.78571" lon="1.88064">
        <ele>707.1</ele>
        <time>2026-07-08T10:43:59.000Z</time>
      </trkpt>
      <trkpt lat="45.78571" lon="1.88064">
        <ele>707.1</ele>
        <time>2026-07-08T10:44:00.000Z</time>
      </trkpt>
      <trkpt lat="45.78571" lon="1.88064">
        <ele>707.1</ele>
        <time>2026-07-08T10:44:01.000Z</time>
      </trkpt>
      <trkpt lat="45.78571" lon="1.88064">
        <ele>707.1</ele>
        <time>2026-07-08T10:44:02.000Z</time>
      </trkpt>
      <trkpt lat="45.78571" lon="1.88064">
        <ele>707.1</ele>
        <time>2026-07-08T10:44:03.000Z</time>
      </trkpt>
      <trkpt lat="45.78571" lon="1.88064">
        <ele>707.1</ele>
        <time>2026-07-08T10:44:04.000Z</time>
      </trkpt>
      <trkpt lat="45.78571" lon="1.88064">
        <ele>707.1</ele>
        <time>2026-07-08T10:44:05.000Z</time>
      </trkpt>
      <trkpt lat="45.7857" lon="1.88064">
        <ele>707.1</ele>
        <time>2026-07-08T10:44:06.000Z</time>
      </trkpt>
      <trkpt lat="45.7857" lon="1.88064">
        <ele>707.1</ele>
        <time>2026-07-08T10:44:07.000Z</time>
      </trkpt>
      <trkpt lat="45.7857" lon="1.88064">
        <ele>707.1</ele>
        <time>2026-07-08T10:44:08.000Z</time>
      </trkpt>
      <trkpt lat="45.7857" lon="1.88064">
        <ele>707.1</ele>
        <time>2026-07-08T10:44:09.000Z</time>
      </trkpt>
      <trkpt lat="45.7857" lon="1.88064">
        <ele>707</ele>
        <time>2026-07-08T10:44:10.000Z</time>
      </trkpt>
      <trkpt lat="45.7857" lon="1.88064">
        <ele>707</ele>
        <time>2026-07-08T10:44:11.000Z</time>
      </trkpt>
      <trkpt lat="45.7857" lon="1.88064">
        <ele>707</ele>
        <time>2026-07-08T10:44:12.000Z</time>
      </trkpt>
      <trkpt lat="45.7857" lon="1.88064">
        <ele>707</ele>
        <time>2026-07-08T10:44:13.000Z</time>
      </trkpt>
      <trkpt lat="45.7857" lon="1.88064">
        <ele>707</ele>
        <time>2026-07-08T10:44:14.000Z</time>
      </trkpt>
      <trkpt lat="45.7857" lon="1.88064">
        <ele>707</ele>
        <time>2026-07-08T10:44:15.000Z</time>
      </trkpt>
      <trkpt lat="45.7857" lon="1.88064">
        <ele>707</ele>
        <time>2026-07-08T10:44:16.000Z</time>
      </trkpt>
      <trkpt lat="45.7857" lon="1.88064">
        <ele>707</ele>
        <time>2026-07-08T10:44:17.000Z</time>
      </trkpt>
      <trkpt lat="45.7857" lon="1.88064">
        <ele>707.1</ele>
        <time>2026-07-08T10:44:18.000Z</time>
      </trkpt>
      <trkpt lat="45.7857" lon="1.88064">
        <ele>707.1</ele>
        <time>2026-07-08T10:44:19.000Z</time>
      </trkpt>
      <trkpt lat="45.7857" lon="1.88064">
        <ele>707.1</ele>
        <time>2026-07-08T10:44:20.000Z</time>
      </trkpt>
      <trkpt lat="45.7857" lon="1.88064">
        <ele>707</ele>
        <time>2026-07-08T10:44:21.000Z</time>
      </trkpt>
      <trkpt lat="45.7857" lon="1.88064">
        <ele>707</ele>
        <time>2026-07-08T10:44:22.000Z</time>
      </trkpt>
      <trkpt lat="45.7857" lon="1.88064">
        <ele>707</ele>
        <time>2026-07-08T10:44:23.000Z</time>
      </trkpt>
      <trkpt lat="45.7857" lon="1.88064">
        <ele>707</ele>
        <time>2026-07-08T10:44:24.000Z</time>
      </trkpt>
      <trkpt lat="45.7857" lon="1.88064">
        <ele>707</ele>
        <time>2026-07-08T10:44:25.000Z</time>
      </trkpt>
      <trkpt lat="45.7857" lon="1.88064">
        <ele>707</ele>
        <time>2026-07-08T10:44:26.000Z</time>
      </trkpt>
      <trkpt lat="45.7857" lon="1.88064">
        <ele>707</ele>
        <time>2026-07-08T10:44:27.000Z</time>
      </trkpt>
      <trkpt lat="45.7857" lon="1.88064">
        <ele>707</ele>
        <time>2026-07-08T10:44:28.000Z</time>
      </trkpt>
      <trkpt lat="45.78571" lon="1.88064">
        <ele>707.7</ele>
        <time>2026-07-08T10:44:29.000Z</time>
      </trkpt>
      <trkpt lat="45.7857" lon="1.88064">
        <ele>707.1</ele>
        <time>2026-07-08T10:44:30.000Z</time>
      </trkpt>
      <trkpt lat="45.7857" lon="1.88063">
        <ele>706.4</ele>
        <time>2026-07-08T10:44:31.000Z</time>
      </trkpt>
      <trkpt lat="45.7857" lon="1.88063">
        <ele>707.3</ele>
        <time>2026-07-08T10:44:32.000Z</time>
      </trkpt>
      <trkpt lat="45.7857" lon="1.88061">
        <ele>707.3</ele>
        <time>2026-07-08T10:44:33.000Z</time>
      </trkpt>
      <trkpt lat="45.7857" lon="1.88061">
        <ele>707.3</ele>
        <time>2026-07-08T10:44:34.000Z</time>
      </trkpt>
      <trkpt lat="45.7857" lon="1.88061">
        <ele>707.3</ele>
        <time>2026-07-08T10:44:35.000Z</time>
      </trkpt>
      <trkpt lat="45.7857" lon="1.88061">
        <ele>707.3</ele>
        <time>2026-07-08T10:44:36.000Z</time>
      </trkpt>
      <trkpt lat="45.7857" lon="1.88061">
        <ele>707.3</ele>
        <time>2026-07-08T10:44:37.000Z</time>
      </trkpt>
      <trkpt lat="45.7857" lon="1.88061">
        <ele>707.3</ele>
        <time>2026-07-08T10:44:38.000Z</time>
      </trkpt>
      <trkpt lat="45.7857" lon="1.88061">
        <ele>707.3</ele>
        <time>2026-07-08T10:44:39.000Z</time>
      </trkpt>
      <trkpt lat="45.7857" lon="1.88061">
        <ele>707.3</ele>
        <time>2026-07-08T10:44:40.000Z</time>
      </trkpt>
      <trkpt lat="45.7857" lon="1.88061">
        <ele>707.3</ele>
        <time>2026-07-08T10:44:41.000Z</time>
      </trkpt>
      <trkpt lat="45.7857" lon="1.88061">
        <ele>707.3</ele>
        <time>2026-07-08T10:44:42.000Z</time>
      </trkpt>
      <trkpt lat="45.7857" lon="1.88061">
        <ele>707.3</ele>
        <time>2026-07-08T10:44:43.000Z</time>
      </trkpt>
      <trkpt lat="45.7857" lon="1.88061">
        <ele>707.3</ele>
        <time>2026-07-08T10:44:44.000Z</time>
      </trkpt>
      <trkpt lat="45.7857" lon="1.88061">
        <ele>707.3</ele>
        <time>2026-07-08T10:44:45.000Z</time>
      </trkpt>
      <trkpt lat="45.7857" lon="1.88061">
        <ele>707.3</ele>
        <time>2026-07-08T10:44:46.000Z</time>
      </trkpt>
      <trkpt lat="45.7857" lon="1.88061">
        <ele>707.3</ele>
        <time>2026-07-08T10:44:47.000Z</time>
      </trkpt>
      <trkpt lat="45.7857" lon="1.88061">
        <ele>707.3</ele>
        <time>2026-07-08T10:44:48.000Z</time>
      </trkpt>
      <trkpt lat="45.7857" lon="1.88061">
        <ele>707.3</ele>
        <time>2026-07-08T10:44:49.000Z</time>
      </trkpt>
      <trkpt lat="45.7857" lon="1.88061">
        <ele>707.3</ele>
        <time>2026-07-08T10:44:50.000Z</time>
      </trkpt>
      <trkpt lat="45.7857" lon="1.88061">
        <ele>707.3</ele>
        <time>2026-07-08T10:44:51.000Z</time>
      </trkpt>
      <trkpt lat="45.7857" lon="1.88061">
        <ele>707.3</ele>
        <time>2026-07-08T10:44:52.000Z</time>
      </trkpt>
      <trkpt lat="45.7857" lon="1.88061">
        <ele>707.3</ele>
        <time>2026-07-08T10:44:53.000Z</time>
      </trkpt>
      <trkpt lat="45.7857" lon="1.88061">
        <ele>707.3</ele>
        <time>2026-07-08T10:44:54.000Z</time>
      </trkpt>
      <trkpt lat="45.7857" lon="1.88061">
        <ele>707.4</ele>
        <time>2026-07-08T10:44:55.000Z</time>
      </trkpt>
      <trkpt lat="45.7857" lon="1.88061">
        <ele>707.4</ele>
        <time>2026-07-08T10:44:56.000Z</time>
      </trkpt>
      <trkpt lat="45.7857" lon="1.88061">
        <ele>707.4</ele>
        <time>2026-07-08T10:44:57.000Z</time>
      </trkpt>
      <trkpt lat="45.7857" lon="1.88061">
        <ele>707.4</ele>
        <time>2026-07-08T10:44:58.000Z</time>
      </trkpt>
      <trkpt lat="45.7857" lon="1.88061">
        <ele>707.4</ele>
        <time>2026-07-08T10:44:59.000Z</time>
      </trkpt>
      <trkpt lat="45.7857" lon="1.88061">
        <ele>707.4</ele>
        <time>2026-07-08T10:45:00.000Z</time>
      </trkpt>
      <trkpt lat="45.7857" lon="1.88061">
        <ele>707.4</ele>
        <time>2026-07-08T10:45:01.000Z</time>
      </trkpt>
      <trkpt lat="45.7857" lon="1.88061">
        <ele>707.4</ele>
        <time>2026-07-08T10:45:02.000Z</time>
      </trkpt>
      <trkpt lat="45.7857" lon="1.88061">
        <ele>707.4</ele>
        <time>2026-07-08T10:45:03.000Z</time>
      </trkpt>
      <trkpt lat="45.7857" lon="1.88061">
        <ele>707.5</ele>
        <time>2026-07-08T10:45:04.000Z</time>
      </trkpt>
      <trkpt lat="45.7857" lon="1.88061">
        <ele>707.5</ele>
        <time>2026-07-08T10:45:05.000Z</time>
      </trkpt>
      <trkpt lat="45.7857" lon="1.88061">
        <ele>707.5</ele>
        <time>2026-07-08T10:45:06.000Z</time>
      </trkpt>
      <trkpt lat="45.7857" lon="1.88061">
        <ele>707.5</ele>
        <time>2026-07-08T10:45:07.000Z</time>
      </trkpt>
      <trkpt lat="45.7857" lon="1.88061">
        <ele>707.5</ele>
        <time>2026-07-08T10:45:08.000Z</time>
      </trkpt>
      <trkpt lat="45.7857" lon="1.88061">
        <ele>707.5</ele>
        <time>2026-07-08T10:45:09.000Z</time>
      </trkpt>
      <trkpt lat="45.7857" lon="1.88061">
        <ele>707.5</ele>
        <time>2026-07-08T10:45:10.000Z</time>
      </trkpt>
      <trkpt lat="45.7857" lon="1.88061">
        <ele>707.5</ele>
        <time>2026-07-08T10:45:11.000Z</time>
      </trkpt>
      <trkpt lat="45.7857" lon="1.88061">
        <ele>707.5</ele>
        <time>2026-07-08T10:45:12.000Z</time>
      </trkpt>
      <trkpt lat="45.7857" lon="1.88061">
        <ele>707.5</ele>
        <time>2026-07-08T10:45:13.000Z</time>
      </trkpt>
      <trkpt lat="45.7857" lon="1.88061">
        <ele>707.5</ele>
        <time>2026-07-08T10:45:14.000Z</time>
      </trkpt>
      <trkpt lat="45.7857" lon="1.88061">
        <ele>707.6</ele>
        <time>2026-07-08T10:45:15.000Z</time>
      </trkpt>
      <trkpt lat="45.7857" lon="1.88061">
        <ele>707.6</ele>
        <time>2026-07-08T10:45:16.000Z</time>
      </trkpt>
      <trkpt lat="45.7857" lon="1.88061">
        <ele>707.6</ele>
        <time>2026-07-08T10:45:17.000Z</time>
      </trkpt>
      <trkpt lat="45.7857" lon="1.88061">
        <ele>707.6</ele>
        <time>2026-07-08T10:45:18.000Z</time>
      </trkpt>
      <trkpt lat="45.7857" lon="1.88061">
        <ele>707.6</ele>
        <time>2026-07-08T10:45:19.000Z</time>
      </trkpt>
      <trkpt lat="45.7857" lon="1.88061">
        <ele>707.6</ele>
        <time>2026-07-08T10:45:20.000Z</time>
      </trkpt>
      <trkpt lat="45.7857" lon="1.88061">
        <ele>707.6</ele>
        <time>2026-07-08T10:45:21.000Z</time>
      </trkpt>
      <trkpt lat="45.7857" lon="1.88061">
        <ele>707.7</ele>
        <time>2026-07-08T10:45:22.000Z</time>
      </trkpt>
      <trkpt lat="45.7857" lon="1.88061">
        <ele>707.7</ele>
        <time>2026-07-08T10:45:23.000Z</time>
      </trkpt>
      <trkpt lat="45.7857" lon="1.88061">
        <ele>707.7</ele>
        <time>2026-07-08T10:45:24.000Z</time>
      </trkpt>
      <trkpt lat="45.7857" lon="1.88061">
        <ele>707.7</ele>
        <time>2026-07-08T10:45:25.000Z</time>
      </trkpt>
      <trkpt lat="45.7857" lon="1.88061">
        <ele>707.7</ele>
        <time>2026-07-08T10:45:26.000Z</time>
      </trkpt>
      <trkpt lat="45.7857" lon="1.88061">
        <ele>707.7</ele>
        <time>2026-07-08T10:45:27.000Z</time>
      </trkpt>
      <trkpt lat="45.7857" lon="1.88061">
        <ele>707.7</ele>
        <time>2026-07-08T10:45:28.000Z</time>
      </trkpt>
      <trkpt lat="45.7857" lon="1.88061">
        <ele>707.7</ele>
        <time>2026-07-08T10:45:29.000Z</time>
      </trkpt>
      <trkpt lat="45.7857" lon="1.88061">
        <ele>707.7</ele>
        <time>2026-07-08T10:45:30.000Z</time>
      </trkpt>
      <trkpt lat="45.7857" lon="1.88061">
        <ele>707.7</ele>
        <time>2026-07-08T10:45:31.000Z</time>
      </trkpt>
      <trkpt lat="45.7857" lon="1.88061">
        <ele>707.7</ele>
        <time>2026-07-08T10:45:32.000Z</time>
      </trkpt>
      <trkpt lat="45.7857" lon="1.88061">
        <ele>707.7</ele>
        <time>2026-07-08T10:45:33.000Z</time>
      </trkpt>
      <trkpt lat="45.7857" lon="1.88061">
        <ele>707.7</ele>
        <time>2026-07-08T10:45:34.000Z</time>
      </trkpt>
      <trkpt lat="45.7857" lon="1.88061">
        <ele>707.8</ele>
        <time>2026-07-08T10:45:35.000Z</time>
      </trkpt>
      <trkpt lat="45.7857" lon="1.88061">
        <ele>707.8</ele>
        <time>2026-07-08T10:45:36.000Z</time>
      </trkpt>
      <trkpt lat="45.7857" lon="1.88061">
        <ele>707.8</ele>
        <time>2026-07-08T10:45:37.000Z</time>
      </trkpt>
      <trkpt lat="45.7857" lon="1.88061">
        <ele>707.8</ele>
        <time>2026-07-08T10:45:38.000Z</time>
      </trkpt>
      <trkpt lat="45.7857" lon="1.88061">
        <ele>707.8</ele>
        <time>2026-07-08T10:45:39.000Z</time>
      </trkpt>
      <trkpt lat="45.7857" lon="1.88061">
        <ele>707.8</ele>
        <time>2026-07-08T10:45:40.000Z</time>
      </trkpt>
      <trkpt lat="45.7857" lon="1.88061">
        <ele>707.8</ele>
        <time>2026-07-08T10:45:41.000Z</time>
      </trkpt>
      <trkpt lat="45.7857" lon="1.88061">
        <ele>707.9</ele>
        <time>2026-07-08T10:45:42.000Z</time>
      </trkpt>
      <trkpt lat="45.7857" lon="1.88061">
        <ele>707.8</ele>
        <time>2026-07-08T10:45:43.000Z</time>
      </trkpt>
      <trkpt lat="45.78569" lon="1.88061">
        <ele>707.7</ele>
        <time>2026-07-08T10:45:44.000Z</time>
      </trkpt>
      <trkpt lat="45.78569" lon="1.88061">
        <ele>707.6</ele>
        <time>2026-07-08T10:45:45.000Z</time>
      </trkpt>
      <trkpt lat="45.78569" lon="1.88061">
        <ele>707.6</ele>
        <time>2026-07-08T10:45:46.000Z</time>
      </trkpt>
      <trkpt lat="45.78569" lon="1.88061">
        <ele>707.6</ele>
        <time>2026-07-08T10:45:47.000Z</time>
      </trkpt>
      <trkpt lat="45.78569" lon="1.88061">
        <ele>707.7</ele>
        <time>2026-07-08T10:45:48.000Z</time>
      </trkpt>
      <trkpt lat="45.78569" lon="1.88061">
        <ele>707.7</ele>
        <time>2026-07-08T10:45:49.000Z</time>
      </trkpt>
      <trkpt lat="45.78569" lon="1.88061">
        <ele>707.7</ele>
        <time>2026-07-08T10:45:50.000Z</time>
      </trkpt>
      <trkpt lat="45.78569" lon="1.88061">
        <ele>707.8</ele>
        <time>2026-07-08T10:45:51.000Z</time>
      </trkpt>
      <trkpt lat="45.78569" lon="1.88061">
        <ele>707.8</ele>
        <time>2026-07-08T10:45:52.000Z</time>
      </trkpt>
      <trkpt lat="45.78569" lon="1.88062">
        <ele>707.9</ele>
        <time>2026-07-08T10:45:53.000Z</time>
      </trkpt>
      <trkpt lat="45.78569" lon="1.88062">
        <ele>707.9</ele>
        <time>2026-07-08T10:45:54.000Z</time>
      </trkpt>
      <trkpt lat="45.78569" lon="1.88062">
        <ele>707.9</ele>
        <time>2026-07-08T10:45:55.000Z</time>
      </trkpt>
      <trkpt lat="45.78569" lon="1.88062">
        <ele>707.9</ele>
        <time>2026-07-08T10:45:56.000Z</time>
      </trkpt>
      <trkpt lat="45.78569" lon="1.88062">
        <ele>707.9</ele>
        <time>2026-07-08T10:45:57.000Z</time>
      </trkpt>
      <trkpt lat="45.78569" lon="1.88062">
        <ele>707.9</ele>
        <time>2026-07-08T10:45:58.000Z</time>
      </trkpt>
      <trkpt lat="45.78569" lon="1.88062">
        <ele>707.9</ele>
        <time>2026-07-08T10:45:59.000Z</time>
      </trkpt>
      <trkpt lat="45.78568" lon="1.88062">
        <ele>708.2</ele>
        <time>2026-07-08T10:46:00.000Z</time>
      </trkpt>
      <trkpt lat="45.78568" lon="1.88062">
        <ele>708.2</ele>
        <time>2026-07-08T10:46:01.000Z</time>
      </trkpt>
      <trkpt lat="45.78569" lon="1.88062">
        <ele>708.2</ele>
        <time>2026-07-08T10:46:02.000Z</time>
      </trkpt>
      <trkpt lat="45.78569" lon="1.88062">
        <ele>708.2</ele>
        <time>2026-07-08T10:46:03.000Z</time>
      </trkpt>
      <trkpt lat="45.78569" lon="1.88062">
        <ele>708.2</ele>
        <time>2026-07-08T10:46:04.000Z</time>
      </trkpt>
      <trkpt lat="45.78569" lon="1.88062">
        <ele>708.3</ele>
        <time>2026-07-08T10:46:05.000Z</time>
      </trkpt>
      <trkpt lat="45.78569" lon="1.88062">
        <ele>708.3</ele>
        <time>2026-07-08T10:46:06.000Z</time>
      </trkpt>
      <trkpt lat="45.78569" lon="1.88062">
        <ele>708.3</ele>
        <time>2026-07-08T10:46:07.000Z</time>
      </trkpt>
      <trkpt lat="45.78568" lon="1.88062">
        <ele>708.4</ele>
        <time>2026-07-08T10:46:08.000Z</time>
      </trkpt>
      <trkpt lat="45.78568" lon="1.88061">
        <ele>708.4</ele>
        <time>2026-07-08T10:46:09.000Z</time>
      </trkpt>
      <trkpt lat="45.78568" lon="1.88061">
        <ele>708.3</ele>
        <time>2026-07-08T10:46:10.000Z</time>
      </trkpt>
      <trkpt lat="45.78568" lon="1.88061">
        <ele>708.2</ele>
        <time>2026-07-08T10:46:11.000Z</time>
      </trkpt>
      <trkpt lat="45.78568" lon="1.88061">
        <ele>708.3</ele>
        <time>2026-07-08T10:46:12.000Z</time>
      </trkpt>
      <trkpt lat="45.78568" lon="1.88061">
        <ele>708.3</ele>
        <time>2026-07-08T10:46:13.000Z</time>
      </trkpt>
      <trkpt lat="45.78568" lon="1.88061">
        <ele>708.3</ele>
        <time>2026-07-08T10:46:14.000Z</time>
      </trkpt>
      <trkpt lat="45.78568" lon="1.88061">
        <ele>708.3</ele>
        <time>2026-07-08T10:46:15.000Z</time>
      </trkpt>
      <trkpt lat="45.78568" lon="1.88061">
        <ele>708.3</ele>
        <time>2026-07-08T10:46:16.000Z</time>
      </trkpt>
      <trkpt lat="45.78568" lon="1.88061">
        <ele>708</ele>
        <time>2026-07-08T10:46:17.000Z</time>
      </trkpt>
      <trkpt lat="45.78567" lon="1.8806">
        <ele>708.1</ele>
        <time>2026-07-08T10:46:18.000Z</time>
      </trkpt>
      <trkpt lat="45.78567" lon="1.8806">
        <ele>708</ele>
        <time>2026-07-08T10:46:19.000Z</time>
      </trkpt>
      <trkpt lat="45.78567" lon="1.8806">
        <ele>708</ele>
        <time>2026-07-08T10:46:20.000Z</time>
      </trkpt>
      <trkpt lat="45.78567" lon="1.8806">
        <ele>708</ele>
        <time>2026-07-08T10:46:21.000Z</time>
      </trkpt>
      <trkpt lat="45.78567" lon="1.8806">
        <ele>708</ele>
        <time>2026-07-08T10:46:22.000Z</time>
      </trkpt>
      <trkpt lat="45.78567" lon="1.8806">
        <ele>708</ele>
        <time>2026-07-08T10:46:23.000Z</time>
      </trkpt>
      <trkpt lat="45.78567" lon="1.8806">
        <ele>708</ele>
        <time>2026-07-08T10:46:24.000Z</time>
      </trkpt>
      <trkpt lat="45.78567" lon="1.8806">
        <ele>708</ele>
        <time>2026-07-08T10:46:25.000Z</time>
      </trkpt>
      <trkpt lat="45.78567" lon="1.8806">
        <ele>708</ele>
        <time>2026-07-08T10:46:26.000Z</time>
      </trkpt>
      <trkpt lat="45.78567" lon="1.8806">
        <ele>708</ele>
        <time>2026-07-08T10:46:27.000Z</time>
      </trkpt>
      <trkpt lat="45.78567" lon="1.8806">
        <ele>708</ele>
        <time>2026-07-08T10:46:28.000Z</time>
      </trkpt>
      <trkpt lat="45.78567" lon="1.8806">
        <ele>708</ele>
        <time>2026-07-08T10:46:29.000Z</time>
      </trkpt>
      <trkpt lat="45.78567" lon="1.8806">
        <ele>708</ele>
        <time>2026-07-08T10:46:30.000Z</time>
      </trkpt>
      <trkpt lat="45.78567" lon="1.8806">
        <ele>708</ele>
        <time>2026-07-08T10:46:31.000Z</time>
      </trkpt>
      <trkpt lat="45.78567" lon="1.8806">
        <ele>708</ele>
        <time>2026-07-08T10:46:32.000Z</time>
      </trkpt>
      <trkpt lat="45.78567" lon="1.8806">
        <ele>708</ele>
        <time>2026-07-08T10:46:33.000Z</time>
      </trkpt>
      <trkpt lat="45.78567" lon="1.8806">
        <ele>708</ele>
        <time>2026-07-08T10:46:34.000Z</time>
      </trkpt>
      <trkpt lat="45.78567" lon="1.8806">
        <ele>708</ele>
        <time>2026-07-08T10:46:35.000Z</time>
      </trkpt>
      <trkpt lat="45.78567" lon="1.8806">
        <ele>708</ele>
        <time>2026-07-08T10:46:36.000Z</time>
      </trkpt>
      <trkpt lat="45.78567" lon="1.8806">
        <ele>708</ele>
        <time>2026-07-08T10:46:37.000Z</time>
      </trkpt>
      <trkpt lat="45.78567" lon="1.8806">
        <ele>708</ele>
        <time>2026-07-08T10:46:38.000Z</time>
      </trkpt>
      <trkpt lat="45.78567" lon="1.8806">
        <ele>708</ele>
        <time>2026-07-08T10:46:39.000Z</time>
      </trkpt>
      <trkpt lat="45.78567" lon="1.8806">
        <ele>708</ele>
        <time>2026-07-08T10:46:40.000Z</time>
      </trkpt>
      <trkpt lat="45.78567" lon="1.8806">
        <ele>708</ele>
        <time>2026-07-08T10:46:41.000Z</time>
      </trkpt>
      <trkpt lat="45.78567" lon="1.8806">
        <ele>708</ele>
        <time>2026-07-08T10:46:42.000Z</time>
      </trkpt>
      <trkpt lat="45.78567" lon="1.8806">
        <ele>708.1</ele>
        <time>2026-07-08T10:46:43.000Z</time>
      </trkpt>
      <trkpt lat="45.78567" lon="1.8806">
        <ele>708.1</ele>
        <time>2026-07-08T10:46:44.000Z</time>
      </trkpt>
      <trkpt lat="45.78567" lon="1.8806">
        <ele>708.1</ele>
        <time>2026-07-08T10:46:45.000Z</time>
      </trkpt>
      <trkpt lat="45.78567" lon="1.8806">
        <ele>708.1</ele>
        <time>2026-07-08T10:46:46.000Z</time>
      </trkpt>
      <trkpt lat="45.78567" lon="1.8806">
        <ele>708.1</ele>
        <time>2026-07-08T10:46:47.000Z</time>
      </trkpt>
      <trkpt lat="45.78568" lon="1.8806">
        <ele>707.3</ele>
        <time>2026-07-08T10:46:48.000Z</time>
      </trkpt>
      <trkpt lat="45.78568" lon="1.8806">
        <ele>707.3</ele>
        <time>2026-07-08T10:46:49.000Z</time>
      </trkpt>
      <trkpt lat="45.78568" lon="1.8806">
        <ele>707.3</ele>
        <time>2026-07-08T10:46:50.000Z</time>
      </trkpt>
      <trkpt lat="45.78568" lon="1.8806">
        <ele>707.3</ele>
        <time>2026-07-08T10:46:51.000Z</time>
      </trkpt>
      <trkpt lat="45.78568" lon="1.8806">
        <ele>707.3</ele>
        <time>2026-07-08T10:46:52.000Z</time>
      </trkpt>
      <trkpt lat="45.78568" lon="1.8806">
        <ele>707.3</ele>
        <time>2026-07-08T10:46:53.000Z</time>
      </trkpt>
      <trkpt lat="45.78568" lon="1.8806">
        <ele>707.3</ele>
        <time>2026-07-08T10:46:54.000Z</time>
      </trkpt>
      <trkpt lat="45.78568" lon="1.8806">
        <ele>707.3</ele>
        <time>2026-07-08T10:46:55.000Z</time>
      </trkpt>
      <trkpt lat="45.78568" lon="1.8806">
        <ele>707.3</ele>
        <time>2026-07-08T10:46:56.000Z</time>
      </trkpt>
      <trkpt lat="45.78568" lon="1.8806">
        <ele>707.3</ele>
        <time>2026-07-08T10:46:57.000Z</time>
      </trkpt>
      <trkpt lat="45.78568" lon="1.8806">
        <ele>707.3</ele>
        <time>2026-07-08T10:46:58.000Z</time>
      </trkpt>
      <trkpt lat="45.78568" lon="1.8806">
        <ele>707.3</ele>
        <time>2026-07-08T10:46:59.000Z</time>
      </trkpt>
      <trkpt lat="45.78568" lon="1.8806">
        <ele>707.3</ele>
        <time>2026-07-08T10:47:00.000Z</time>
      </trkpt>
      <trkpt lat="45.78568" lon="1.8806">
        <ele>707.3</ele>
        <time>2026-07-08T10:47:01.000Z</time>
      </trkpt>
      <trkpt lat="45.78568" lon="1.8806">
        <ele>707.3</ele>
        <time>2026-07-08T10:47:02.000Z</time>
      </trkpt>
      <trkpt lat="45.78568" lon="1.8806">
        <ele>707.3</ele>
        <time>2026-07-08T10:47:03.000Z</time>
      </trkpt>
      <trkpt lat="45.78568" lon="1.8806">
        <ele>707.3</ele>
        <time>2026-07-08T10:47:04.000Z</time>
      </trkpt>
      <trkpt lat="45.78568" lon="1.8806">
        <ele>707.3</ele>
        <time>2026-07-08T10:47:05.000Z</time>
      </trkpt>
      <trkpt lat="45.78568" lon="1.8806">
        <ele>707.3</ele>
        <time>2026-07-08T10:47:06.000Z</time>
      </trkpt>
      <trkpt lat="45.78568" lon="1.8806">
        <ele>707.3</ele>
        <time>2026-07-08T10:47:07.000Z</time>
      </trkpt>
      <trkpt lat="45.78568" lon="1.8806">
        <ele>707.3</ele>
        <time>2026-07-08T10:47:08.000Z</time>
      </trkpt>
      <trkpt lat="45.78568" lon="1.8806">
        <ele>707.2</ele>
        <time>2026-07-08T10:47:09.000Z</time>
      </trkpt>
      <trkpt lat="45.78568" lon="1.8806">
        <ele>707.2</ele>
        <time>2026-07-08T10:47:10.000Z</time>
      </trkpt>
      <trkpt lat="45.78568" lon="1.8806">
        <ele>707.2</ele>
        <time>2026-07-08T10:47:11.000Z</time>
      </trkpt>
      <trkpt lat="45.78568" lon="1.8806">
        <ele>706.7</ele>
        <time>2026-07-08T10:47:12.000Z</time>
      </trkpt>
      <trkpt lat="45.78569" lon="1.88059">
        <ele>706.1</ele>
        <time>2026-07-08T10:47:13.000Z</time>
      </trkpt>
      <trkpt lat="45.78569" lon="1.88059">
        <ele>705.4</ele>
        <time>2026-07-08T10:47:14.000Z</time>
      </trkpt>
      <trkpt lat="45.78569" lon="1.88059">
        <ele>705.4</ele>
        <time>2026-07-08T10:47:15.000Z</time>
      </trkpt>
      <trkpt lat="45.78569" lon="1.88058">
        <ele>705.4</ele>
        <time>2026-07-08T10:47:16.000Z</time>
      </trkpt>
      <trkpt lat="45.78569" lon="1.88058">
        <ele>705.4</ele>
        <time>2026-07-08T10:47:17.000Z</time>
      </trkpt>
      <trkpt lat="45.78569" lon="1.88058">
        <ele>705.4</ele>
        <time>2026-07-08T10:47:18.000Z</time>
      </trkpt>
      <trkpt lat="45.78569" lon="1.88058">
        <ele>705.4</ele>
        <time>2026-07-08T10:47:19.000Z</time>
      </trkpt>
      <trkpt lat="45.78569" lon="1.88058">
        <ele>705.4</ele>
        <time>2026-07-08T10:47:20.000Z</time>
      </trkpt>
      <trkpt lat="45.78569" lon="1.88058">
        <ele>705.4</ele>
        <time>2026-07-08T10:47:21.000Z</time>
      </trkpt>
      <trkpt lat="45.78569" lon="1.88058">
        <ele>705.4</ele>
        <time>2026-07-08T10:47:22.000Z</time>
      </trkpt>
      <trkpt lat="45.7857" lon="1.88058">
        <ele>705.4</ele>
        <time>2026-07-08T10:47:23.000Z</time>
      </trkpt>
      <trkpt lat="45.7857" lon="1.88058">
        <ele>705.4</ele>
        <time>2026-07-08T10:47:24.000Z</time>
      </trkpt>
      <trkpt lat="45.7857" lon="1.88058">
        <ele>705.4</ele>
        <time>2026-07-08T10:47:25.000Z</time>
      </trkpt>
      <trkpt lat="45.7857" lon="1.88058">
        <ele>705.4</ele>
        <time>2026-07-08T10:47:26.000Z</time>
      </trkpt>
      <trkpt lat="45.7857" lon="1.88058">
        <ele>705.4</ele>
        <time>2026-07-08T10:47:27.000Z</time>
      </trkpt>
      <trkpt lat="45.7857" lon="1.88058">
        <ele>705.4</ele>
        <time>2026-07-08T10:47:28.000Z</time>
      </trkpt>
      <trkpt lat="45.7857" lon="1.88058">
        <ele>705.4</ele>
        <time>2026-07-08T10:47:29.000Z</time>
      </trkpt>
      <trkpt lat="45.7857" lon="1.88058">
        <ele>705.4</ele>
        <time>2026-07-08T10:47:30.000Z</time>
      </trkpt>
      <trkpt lat="45.7857" lon="1.88058">
        <ele>705.4</ele>
        <time>2026-07-08T10:47:31.000Z</time>
      </trkpt>
      <trkpt lat="45.78569" lon="1.88058">
        <ele>705.5</ele>
        <time>2026-07-08T10:47:32.000Z</time>
      </trkpt>
      <trkpt lat="45.78569" lon="1.88058">
        <ele>705.5</ele>
        <time>2026-07-08T10:47:33.000Z</time>
      </trkpt>
      <trkpt lat="45.78569" lon="1.88058">
        <ele>705.4</ele>
        <time>2026-07-08T10:47:34.000Z</time>
      </trkpt>
      <trkpt lat="45.78569" lon="1.88058">
        <ele>705.4</ele>
        <time>2026-07-08T10:47:35.000Z</time>
      </trkpt>
      <trkpt lat="45.78569" lon="1.88057">
        <ele>704.9</ele>
        <time>2026-07-08T10:47:36.000Z</time>
      </trkpt>
      <trkpt lat="45.78568" lon="1.88057">
        <ele>705.1</ele>
        <time>2026-07-08T10:47:37.000Z</time>
      </trkpt>
      <trkpt lat="45.78567" lon="1.88056">
        <ele>704.7</ele>
        <time>2026-07-08T10:47:38.000Z</time>
      </trkpt>
      <trkpt lat="45.78566" lon="1.88056">
        <ele>704.7</ele>
        <time>2026-07-08T10:47:39.000Z</time>
      </trkpt>
      <trkpt lat="45.78565" lon="1.88056">
        <ele>704.5</ele>
        <time>2026-07-08T10:47:40.000Z</time>
      </trkpt>
      <trkpt lat="45.78564" lon="1.88057">
        <ele>704</ele>
        <time>2026-07-08T10:47:41.000Z</time>
      </trkpt>
      <trkpt lat="45.78564" lon="1.88058">
        <ele>704</ele>
        <time>2026-07-08T10:47:42.000Z</time>
      </trkpt>
      <trkpt lat="45.78565" lon="1.88059">
        <ele>704</ele>
        <time>2026-07-08T10:47:43.000Z</time>
      </trkpt>
      <trkpt lat="45.78565" lon="1.88059">
        <ele>703.9</ele>
        <time>2026-07-08T10:47:44.000Z</time>
      </trkpt>
      <trkpt lat="45.78565" lon="1.88058">
        <ele>703.9</ele>
        <time>2026-07-08T10:47:45.000Z</time>
      </trkpt>
      <trkpt lat="45.78565" lon="1.88058">
        <ele>703.9</ele>
        <time>2026-07-08T10:47:46.000Z</time>
      </trkpt>
      <trkpt lat="45.78565" lon="1.88058">
        <ele>703.9</ele>
        <time>2026-07-08T10:47:47.000Z</time>
      </trkpt>
      <trkpt lat="45.78565" lon="1.88058">
        <ele>703.9</ele>
        <time>2026-07-08T10:47:48.000Z</time>
      </trkpt>
      <trkpt lat="45.78565" lon="1.88058">
        <ele>704</ele>
        <time>2026-07-08T10:47:49.000Z</time>
      </trkpt>
      <trkpt lat="45.78565" lon="1.88058">
        <ele>703.7</ele>
        <time>2026-07-08T10:47:50.000Z</time>
      </trkpt>
      <trkpt lat="45.78565" lon="1.88059">
        <ele>704.1</ele>
        <time>2026-07-08T10:47:51.000Z</time>
      </trkpt>
      <trkpt lat="45.78565" lon="1.88059">
        <ele>703.5</ele>
        <time>2026-07-08T10:47:52.000Z</time>
      </trkpt>
      <trkpt lat="45.78565" lon="1.88059">
        <ele>703.5</ele>
        <time>2026-07-08T10:47:53.000Z</time>
      </trkpt>
      <trkpt lat="45.78565" lon="1.88058">
        <ele>703.5</ele>
        <time>2026-07-08T10:47:54.000Z</time>
      </trkpt>
      <trkpt lat="45.78566" lon="1.88058">
        <ele>703.6</ele>
        <time>2026-07-08T10:47:55.000Z</time>
      </trkpt>
      <trkpt lat="45.78566" lon="1.88057">
        <ele>703.9</ele>
        <time>2026-07-08T10:47:56.000Z</time>
      </trkpt>
      <trkpt lat="45.78567" lon="1.88057">
        <ele>704.9</ele>
        <time>2026-07-08T10:47:57.000Z</time>
      </trkpt>
      <trkpt lat="45.78568" lon="1.88057">
        <ele>704.9</ele>
        <time>2026-07-08T10:47:58.000Z</time>
      </trkpt>
      <trkpt lat="45.78569" lon="1.88057">
        <ele>704.4</ele>
        <time>2026-07-08T10:47:59.000Z</time>
      </trkpt>
      <trkpt lat="45.7857" lon="1.88057">
        <ele>704.2</ele>
        <time>2026-07-08T10:48:00.000Z</time>
      </trkpt>
      <trkpt lat="45.78571" lon="1.88058">
        <ele>704</ele>
        <time>2026-07-08T10:48:01.000Z</time>
      </trkpt>
      <trkpt lat="45.78572" lon="1.88059">
        <ele>703.9</ele>
        <time>2026-07-08T10:48:02.000Z</time>
      </trkpt>
      <trkpt lat="45.78573" lon="1.88059">
        <ele>704</ele>
        <time>2026-07-08T10:48:03.000Z</time>
      </trkpt>
      <trkpt lat="45.78574" lon="1.8806">
        <ele>704.2</ele>
        <time>2026-07-08T10:48:04.000Z</time>
      </trkpt>
      <trkpt lat="45.78574" lon="1.88061">
        <ele>704.4</ele>
        <time>2026-07-08T10:48:05.000Z</time>
      </trkpt>
      <trkpt lat="45.78575" lon="1.88061">
        <ele>705.1</ele>
        <time>2026-07-08T10:48:06.000Z</time>
      </trkpt>
      <trkpt lat="45.78573" lon="1.88061">
        <ele>706</ele>
        <time>2026-07-08T10:48:07.000Z</time>
      </trkpt>
      <trkpt lat="45.78573" lon="1.88061">
        <ele>706</ele>
        <time>2026-07-08T10:48:08.000Z</time>
      </trkpt>
      <trkpt lat="45.78573" lon="1.88061">
        <ele>706</ele>
        <time>2026-07-08T10:48:09.000Z</time>
      </trkpt>
      <trkpt lat="45.78573" lon="1.88061">
        <ele>706</ele>
        <time>2026-07-08T10:48:10.000Z</time>
      </trkpt>
      <trkpt lat="45.78573" lon="1.88061">
        <ele>706</ele>
        <time>2026-07-08T10:48:11.000Z</time>
      </trkpt>
      <trkpt lat="45.78573" lon="1.88061">
        <ele>706</ele>
        <time>2026-07-08T10:48:12.000Z</time>
      </trkpt>
      <trkpt lat="45.78573" lon="1.88061">
        <ele>706</ele>
        <time>2026-07-08T10:48:13.000Z</time>
      </trkpt>
      <trkpt lat="45.78573" lon="1.88061">
        <ele>706</ele>
        <time>2026-07-08T10:48:14.000Z</time>
      </trkpt>
      <trkpt lat="45.78573" lon="1.88061">
        <ele>706.1</ele>
        <time>2026-07-08T10:48:15.000Z</time>
      </trkpt>
      <trkpt lat="45.78573" lon="1.88061">
        <ele>706.1</ele>
        <time>2026-07-08T10:48:16.000Z</time>
      </trkpt>
      <trkpt lat="45.78573" lon="1.88061">
        <ele>706.1</ele>
        <time>2026-07-08T10:48:17.000Z</time>
      </trkpt>
      <trkpt lat="45.78573" lon="1.88061">
        <ele>706.1</ele>
        <time>2026-07-08T10:48:18.000Z</time>
      </trkpt>
      <trkpt lat="45.78573" lon="1.88061">
        <ele>706.1</ele>
        <time>2026-07-08T10:48:19.000Z</time>
      </trkpt>
      <trkpt lat="45.78573" lon="1.88061">
        <ele>706.1</ele>
        <time>2026-07-08T10:48:20.000Z</time>
      </trkpt>
      <trkpt lat="45.78573" lon="1.88061">
        <ele>706.1</ele>
        <time>2026-07-08T10:48:21.000Z</time>
      </trkpt>
      <trkpt lat="45.78573" lon="1.88061">
        <ele>706.1</ele>
        <time>2026-07-08T10:48:22.000Z</time>
      </trkpt>
      <trkpt lat="45.78573" lon="1.88061">
        <ele>706.1</ele>
        <time>2026-07-08T10:48:23.000Z</time>
      </trkpt>
      <trkpt lat="45.78573" lon="1.88061">
        <ele>706.1</ele>
        <time>2026-07-08T10:48:24.000Z</time>
      </trkpt>
      <trkpt lat="45.78573" lon="1.88061">
        <ele>706.1</ele>
        <time>2026-07-08T10:48:25.000Z</time>
      </trkpt>
      <trkpt lat="45.78573" lon="1.88061">
        <ele>706.1</ele>
        <time>2026-07-08T10:48:26.000Z</time>
      </trkpt>
      <trkpt lat="45.78573" lon="1.88061">
        <ele>706.1</ele>
        <time>2026-07-08T10:48:27.000Z</time>
      </trkpt>
      <trkpt lat="45.78573" lon="1.88061">
        <ele>706.1</ele>
        <time>2026-07-08T10:48:28.000Z</time>
      </trkpt>
      <trkpt lat="45.78573" lon="1.88061">
        <ele>706.1</ele>
        <time>2026-07-08T10:48:29.000Z</time>
      </trkpt>
      <trkpt lat="45.78573" lon="1.88061">
        <ele>706.1</ele>
        <time>2026-07-08T10:48:30.000Z</time>
      </trkpt>
      <trkpt lat="45.78573" lon="1.88061">
        <ele>706.1</ele>
        <time>2026-07-08T10:48:31.000Z</time>
      </trkpt>
      <trkpt lat="45.78573" lon="1.88061">
        <ele>706.1</ele>
        <time>2026-07-08T10:48:32.000Z</time>
      </trkpt>
      <trkpt lat="45.78573" lon="1.88061">
        <ele>706.1</ele>
        <time>2026-07-08T10:48:33.000Z</time>
      </trkpt>
      <trkpt lat="45.78573" lon="1.88061">
        <ele>706.1</ele>
        <time>2026-07-08T10:48:34.000Z</time>
      </trkpt>
      <trkpt lat="45.78573" lon="1.88061">
        <ele>706.1</ele>
        <time>2026-07-08T10:48:35.000Z</time>
      </trkpt>
      <trkpt lat="45.78573" lon="1.88061">
        <ele>706.1</ele>
        <time>2026-07-08T10:48:36.000Z</time>
      </trkpt>
      <trkpt lat="45.78573" lon="1.88061">
        <ele>706.1</ele>
        <time>2026-07-08T10:48:37.000Z</time>
      </trkpt>
      <trkpt lat="45.78573" lon="1.88061">
        <ele>706.1</ele>
        <time>2026-07-08T10:48:38.000Z</time>
      </trkpt>
      <trkpt lat="45.78573" lon="1.88061">
        <ele>706.1</ele>
        <time>2026-07-08T10:48:39.000Z</time>
      </trkpt>
      <trkpt lat="45.78573" lon="1.88061">
        <ele>706.1</ele>
        <time>2026-07-08T10:48:40.000Z</time>
      </trkpt>
      <trkpt lat="45.78573" lon="1.88061">
        <ele>706.1</ele>
        <time>2026-07-08T10:48:41.000Z</time>
      </trkpt>
      <trkpt lat="45.78573" lon="1.88061">
        <ele>706.1</ele>
        <time>2026-07-08T10:48:42.000Z</time>
      </trkpt>
      <trkpt lat="45.78573" lon="1.88061">
        <ele>706.1</ele>
        <time>2026-07-08T10:48:43.000Z</time>
      </trkpt>
      <trkpt lat="45.78573" lon="1.88061">
        <ele>706.1</ele>
        <time>2026-07-08T10:48:44.000Z</time>
      </trkpt>
      <trkpt lat="45.78573" lon="1.88061">
        <ele>706.1</ele>
        <time>2026-07-08T10:48:45.000Z</time>
      </trkpt>
      <trkpt lat="45.78573" lon="1.88061">
        <ele>706.1</ele>
        <time>2026-07-08T10:48:46.000Z</time>
      </trkpt>
      <trkpt lat="45.78573" lon="1.88061">
        <ele>706.2</ele>
        <time>2026-07-08T10:48:47.000Z</time>
      </trkpt>
      <trkpt lat="45.78573" lon="1.88061">
        <ele>706.2</ele>
        <time>2026-07-08T10:48:48.000Z</time>
      </trkpt>
      <trkpt lat="45.78573" lon="1.88061">
        <ele>706.2</ele>
        <time>2026-07-08T10:48:49.000Z</time>
      </trkpt>
      <trkpt lat="45.78573" lon="1.88061">
        <ele>706.2</ele>
        <time>2026-07-08T10:48:50.000Z</time>
      </trkpt>
      <trkpt lat="45.78573" lon="1.88061">
        <ele>706.2</ele>
        <time>2026-07-08T10:48:51.000Z</time>
      </trkpt>
      <trkpt lat="45.78573" lon="1.88061">
        <ele>706.2</ele>
        <time>2026-07-08T10:48:52.000Z</time>
      </trkpt>
      <trkpt lat="45.78573" lon="1.88061">
        <ele>706.2</ele>
        <time>2026-07-08T10:48:53.000Z</time>
      </trkpt>
      <trkpt lat="45.78573" lon="1.88061">
        <ele>706.2</ele>
        <time>2026-07-08T10:48:54.000Z</time>
      </trkpt>
      <trkpt lat="45.78573" lon="1.88061">
        <ele>706.2</ele>
        <time>2026-07-08T10:48:55.000Z</time>
      </trkpt>
      <trkpt lat="45.78573" lon="1.88061">
        <ele>706.2</ele>
        <time>2026-07-08T10:48:56.000Z</time>
      </trkpt>
      <trkpt lat="45.78573" lon="1.88061">
        <ele>706.2</ele>
        <time>2026-07-08T10:48:57.000Z</time>
      </trkpt>
      <trkpt lat="45.78573" lon="1.88061">
        <ele>706.2</ele>
        <time>2026-07-08T10:48:58.000Z</time>
      </trkpt>
      <trkpt lat="45.78573" lon="1.88061">
        <ele>706.2</ele>
        <time>2026-07-08T10:48:59.000Z</time>
      </trkpt>
      <trkpt lat="45.78573" lon="1.88061">
        <ele>706.2</ele>
        <time>2026-07-08T10:49:00.000Z</time>
      </trkpt>
      <trkpt lat="45.78573" lon="1.88061">
        <ele>706.2</ele>
        <time>2026-07-08T10:49:01.000Z</time>
      </trkpt>
      <trkpt lat="45.78573" lon="1.88061">
        <ele>706.2</ele>
        <time>2026-07-08T10:49:02.000Z</time>
      </trkpt>
      <trkpt lat="45.78573" lon="1.88061">
        <ele>706.2</ele>
        <time>2026-07-08T10:49:03.000Z</time>
      </trkpt>
      <trkpt lat="45.78572" lon="1.88061">
        <ele>706.2</ele>
        <time>2026-07-08T10:49:04.000Z</time>
      </trkpt>
      <trkpt lat="45.78571" lon="1.88061">
        <ele>706.5</ele>
        <time>2026-07-08T10:49:05.000Z</time>
      </trkpt>
      <trkpt lat="45.7857" lon="1.88061">
        <ele>706.5</ele>
        <time>2026-07-08T10:49:06.000Z</time>
      </trkpt>
      <trkpt lat="45.78569" lon="1.88061">
        <ele>706.3</ele>
        <time>2026-07-08T10:49:07.000Z</time>
      </trkpt>
      <trkpt lat="45.78568" lon="1.8806">
        <ele>706.2</ele>
        <time>2026-07-08T10:49:08.000Z</time>
      </trkpt>
      <trkpt lat="45.78566" lon="1.88059">
        <ele>706.5</ele>
        <time>2026-07-08T10:49:09.000Z</time>
      </trkpt>
      <trkpt lat="45.78565" lon="1.88059">
        <ele>706</ele>
        <time>2026-07-08T10:49:10.000Z</time>
      </trkpt>
      <trkpt lat="45.78565" lon="1.8806">
        <ele>706.1</ele>
        <time>2026-07-08T10:49:11.000Z</time>
      </trkpt>
      <trkpt lat="45.78564" lon="1.8806">
        <ele>706.1</ele>
        <time>2026-07-08T10:49:12.000Z</time>
      </trkpt>
      <trkpt lat="45.78564" lon="1.8806">
        <ele>706.2</ele>
        <time>2026-07-08T10:49:13.000Z</time>
      </trkpt>
      <trkpt lat="45.78564" lon="1.88059">
        <ele>706.5</ele>
        <time>2026-07-08T10:49:14.000Z</time>
      </trkpt>
      <trkpt lat="45.78564" lon="1.88059">
        <ele>706.5</ele>
        <time>2026-07-08T10:49:15.000Z</time>
      </trkpt>
      <trkpt lat="45.78564" lon="1.88059">
        <ele>706.5</ele>
        <time>2026-07-08T10:49:16.000Z</time>
      </trkpt>
      <trkpt lat="45.78564" lon="1.88059">
        <ele>706.5</ele>
        <time>2026-07-08T10:49:17.000Z</time>
      </trkpt>
      <trkpt lat="45.78564" lon="1.88059">
        <ele>706.5</ele>
        <time>2026-07-08T10:49:18.000Z</time>
      </trkpt>
      <trkpt lat="45.78564" lon="1.88059">
        <ele>706.5</ele>
        <time>2026-07-08T10:49:19.000Z</time>
      </trkpt>
      <trkpt lat="45.78564" lon="1.88059">
        <ele>706.5</ele>
        <time>2026-07-08T10:49:20.000Z</time>
      </trkpt>
      <trkpt lat="45.78564" lon="1.88059">
        <ele>706.5</ele>
        <time>2026-07-08T10:49:21.000Z</time>
      </trkpt>
      <trkpt lat="45.78564" lon="1.88059">
        <ele>706.5</ele>
        <time>2026-07-08T10:49:22.000Z</time>
      </trkpt>
      <trkpt lat="45.78564" lon="1.88059">
        <ele>706.5</ele>
        <time>2026-07-08T10:49:23.000Z</time>
      </trkpt>
      <trkpt lat="45.78564" lon="1.88059">
        <ele>706.5</ele>
        <time>2026-07-08T10:49:24.000Z</time>
      </trkpt>
      <trkpt lat="45.78564" lon="1.88059">
        <ele>706.5</ele>
        <time>2026-07-08T10:49:25.000Z</time>
      </trkpt>
      <trkpt lat="45.78564" lon="1.88059">
        <ele>706.5</ele>
        <time>2026-07-08T10:49:26.000Z</time>
      </trkpt>
      <trkpt lat="45.78564" lon="1.88059">
        <ele>706.5</ele>
        <time>2026-07-08T10:49:27.000Z</time>
      </trkpt>
      <trkpt lat="45.78564" lon="1.88059">
        <ele>706.5</ele>
        <time>2026-07-08T10:49:28.000Z</time>
      </trkpt>
      <trkpt lat="45.78564" lon="1.88059">
        <ele>706.5</ele>
        <time>2026-07-08T10:49:29.000Z</time>
      </trkpt>
      <trkpt lat="45.78564" lon="1.88059">
        <ele>706.5</ele>
        <time>2026-07-08T10:49:30.000Z</time>
      </trkpt>
      <trkpt lat="45.78564" lon="1.88059">
        <ele>706.5</ele>
        <time>2026-07-08T10:49:31.000Z</time>
      </trkpt>
      <trkpt lat="45.78564" lon="1.88059">
        <ele>706.5</ele>
        <time>2026-07-08T10:49:32.000Z</time>
      </trkpt>
      <trkpt lat="45.78564" lon="1.88059">
        <ele>706.5</ele>
        <time>2026-07-08T10:49:33.000Z</time>
      </trkpt>
      <trkpt lat="45.78564" lon="1.88059">
        <ele>706.5</ele>
        <time>2026-07-08T10:49:34.000Z</time>
      </trkpt>
      <trkpt lat="45.78564" lon="1.88059">
        <ele>706.5</ele>
        <time>2026-07-08T10:49:35.000Z</time>
      </trkpt>
      <trkpt lat="45.78564" lon="1.88059">
        <ele>706.5</ele>
        <time>2026-07-08T10:49:36.000Z</time>
      </trkpt>
      <trkpt lat="45.78564" lon="1.88059">
        <ele>706.5</ele>
        <time>2026-07-08T10:49:37.000Z</time>
      </trkpt>
      <trkpt lat="45.78564" lon="1.88059">
        <ele>706.5</ele>
        <time>2026-07-08T10:49:38.000Z</time>
      </trkpt>
      <trkpt lat="45.78564" lon="1.88059">
        <ele>706.5</ele>
        <time>2026-07-08T10:49:39.000Z</time>
      </trkpt>
      <trkpt lat="45.78564" lon="1.88059">
        <ele>706.5</ele>
        <time>2026-07-08T10:49:40.000Z</time>
      </trkpt>
      <trkpt lat="45.78564" lon="1.88059">
        <ele>706.5</ele>
        <time>2026-07-08T10:49:41.000Z</time>
      </trkpt>
      <trkpt lat="45.78564" lon="1.88059">
        <ele>706.5</ele>
        <time>2026-07-08T10:49:42.000Z</time>
      </trkpt>
      <trkpt lat="45.78563" lon="1.88059">
        <ele>706.5</ele>
        <time>2026-07-08T10:49:43.000Z</time>
      </trkpt>
      <trkpt lat="45.78563" lon="1.88059">
        <ele>706.5</ele>
        <time>2026-07-08T10:49:44.000Z</time>
      </trkpt>
      <trkpt lat="45.78563" lon="1.88059">
        <ele>706.5</ele>
        <time>2026-07-08T10:49:45.000Z</time>
      </trkpt>
      <trkpt lat="45.78563" lon="1.88059">
        <ele>706.5</ele>
        <time>2026-07-08T10:49:46.000Z</time>
      </trkpt>
      <trkpt lat="45.78563" lon="1.88059">
        <ele>706.5</ele>
        <time>2026-07-08T10:49:47.000Z</time>
      </trkpt>
      <trkpt lat="45.78563" lon="1.88059">
        <ele>706.5</ele>
        <time>2026-07-08T10:49:48.000Z</time>
      </trkpt>
      <trkpt lat="45.78563" lon="1.88059">
        <ele>706.5</ele>
        <time>2026-07-08T10:49:49.000Z</time>
      </trkpt>
      <trkpt lat="45.78563" lon="1.88059">
        <ele>706.5</ele>
        <time>2026-07-08T10:49:50.000Z</time>
      </trkpt>
      <trkpt lat="45.78563" lon="1.88059">
        <ele>706.5</ele>
        <time>2026-07-08T10:49:51.000Z</time>
      </trkpt>
      <trkpt lat="45.78563" lon="1.88059">
        <ele>706.5</ele>
        <time>2026-07-08T10:49:52.000Z</time>
      </trkpt>
      <trkpt lat="45.78563" lon="1.88059">
        <ele>706.5</ele>
        <time>2026-07-08T10:49:53.000Z</time>
      </trkpt>
      <trkpt lat="45.78563" lon="1.88059">
        <ele>706.5</ele>
        <time>2026-07-08T10:49:54.000Z</time>
      </trkpt>
      <trkpt lat="45.78563" lon="1.88059">
        <ele>706.5</ele>
        <time>2026-07-08T10:49:55.000Z</time>
      </trkpt>
      <trkpt lat="45.78563" lon="1.88059">
        <ele>706.5</ele>
        <time>2026-07-08T10:49:56.000Z</time>
      </trkpt>
      <trkpt lat="45.78563" lon="1.88059">
        <ele>706.5</ele>
        <time>2026-07-08T10:49:57.000Z</time>
      </trkpt>
      <trkpt lat="45.78563" lon="1.88059">
        <ele>706.5</ele>
        <time>2026-07-08T10:49:58.000Z</time>
      </trkpt>
      <trkpt lat="45.78563" lon="1.88059">
        <ele>706.5</ele>
        <time>2026-07-08T10:49:59.000Z</time>
      </trkpt>
      <trkpt lat="45.78563" lon="1.88059">
        <ele>706.5</ele>
        <time>2026-07-08T10:50:00.000Z</time>
      </trkpt>
      <trkpt lat="45.78563" lon="1.88059">
        <ele>706.5</ele>
        <time>2026-07-08T10:50:01.000Z</time>
      </trkpt>
      <trkpt lat="45.78563" lon="1.88059">
        <ele>706.5</ele>
        <time>2026-07-08T10:50:02.000Z</time>
      </trkpt>
      <trkpt lat="45.78563" lon="1.88059">
        <ele>706.5</ele>
        <time>2026-07-08T10:50:03.000Z</time>
      </trkpt>
      <trkpt lat="45.78563" lon="1.88059">
        <ele>706.5</ele>
        <time>2026-07-08T10:50:04.000Z</time>
      </trkpt>
      <trkpt lat="45.78563" lon="1.88059">
        <ele>706.5</ele>
        <time>2026-07-08T10:50:05.000Z</time>
      </trkpt>
      <trkpt lat="45.78563" lon="1.88059">
        <ele>706.5</ele>
        <time>2026-07-08T10:50:06.000Z</time>
      </trkpt>
      <trkpt lat="45.78563" lon="1.88059">
        <ele>706.5</ele>
        <time>2026-07-08T10:50:07.000Z</time>
      </trkpt>
      <trkpt lat="45.78563" lon="1.88059">
        <ele>706.5</ele>
        <time>2026-07-08T10:50:08.000Z</time>
      </trkpt>
      <trkpt lat="45.78563" lon="1.88059">
        <ele>706.5</ele>
        <time>2026-07-08T10:50:09.000Z</time>
      </trkpt>
      <trkpt lat="45.78563" lon="1.88059">
        <ele>706.6</ele>
        <time>2026-07-08T10:50:10.000Z</time>
      </trkpt>
      <trkpt lat="45.78563" lon="1.88059">
        <ele>706.6</ele>
        <time>2026-07-08T10:50:11.000Z</time>
      </trkpt>
      <trkpt lat="45.78563" lon="1.88059">
        <ele>706.6</ele>
        <time>2026-07-08T10:50:12.000Z</time>
      </trkpt>
      <trkpt lat="45.78563" lon="1.88059">
        <ele>706.6</ele>
        <time>2026-07-08T10:50:13.000Z</time>
      </trkpt>
      <trkpt lat="45.78563" lon="1.88059">
        <ele>706.6</ele>
        <time>2026-07-08T10:50:14.000Z</time>
      </trkpt>
      <trkpt lat="45.78563" lon="1.88059">
        <ele>706.6</ele>
        <time>2026-07-08T10:50:15.000Z</time>
      </trkpt>
      <trkpt lat="45.78563" lon="1.88059">
        <ele>706.6</ele>
        <time>2026-07-08T10:50:16.000Z</time>
      </trkpt>
      <trkpt lat="45.78563" lon="1.88059">
        <ele>706.6</ele>
        <time>2026-07-08T10:50:17.000Z</time>
      </trkpt>
      <trkpt lat="45.78563" lon="1.88059">
        <ele>706.5</ele>
        <time>2026-07-08T10:50:18.000Z</time>
      </trkpt>
      <trkpt lat="45.78563" lon="1.88059">
        <ele>706.5</ele>
        <time>2026-07-08T10:50:19.000Z</time>
      </trkpt>
      <trkpt lat="45.78563" lon="1.88059">
        <ele>706.5</ele>
        <time>2026-07-08T10:50:20.000Z</time>
      </trkpt>
      <trkpt lat="45.78563" lon="1.88059">
        <ele>706.5</ele>
        <time>2026-07-08T10:50:21.000Z</time>
      </trkpt>
      <trkpt lat="45.78563" lon="1.88059">
        <ele>706.5</ele>
        <time>2026-07-08T10:50:22.000Z</time>
      </trkpt>
      <trkpt lat="45.78563" lon="1.88059">
        <ele>706.5</ele>
        <time>2026-07-08T10:50:23.000Z</time>
      </trkpt>
      <trkpt lat="45.78563" lon="1.88059">
        <ele>706.5</ele>
        <time>2026-07-08T10:50:24.000Z</time>
      </trkpt>
      <trkpt lat="45.78563" lon="1.88059">
        <ele>706.5</ele>
        <time>2026-07-08T10:50:25.000Z</time>
      </trkpt>
      <trkpt lat="45.78563" lon="1.88059">
        <ele>706.5</ele>
        <time>2026-07-08T10:50:26.000Z</time>
      </trkpt>
      <trkpt lat="45.78563" lon="1.88059">
        <ele>706.5</ele>
        <time>2026-07-08T10:50:27.000Z</time>
      </trkpt>
      <trkpt lat="45.78563" lon="1.88059">
        <ele>706.5</ele>
        <time>2026-07-08T10:50:28.000Z</time>
      </trkpt>
      <trkpt lat="45.78563" lon="1.88059">
        <ele>706.5</ele>
        <time>2026-07-08T10:50:29.000Z</time>
      </trkpt>
      <trkpt lat="45.78563" lon="1.88059">
        <ele>706.5</ele>
        <time>2026-07-08T10:50:30.000Z</time>
      </trkpt>
      <trkpt lat="45.78563" lon="1.88059">
        <ele>706.5</ele>
        <time>2026-07-08T10:50:31.000Z</time>
      </trkpt>
      <trkpt lat="45.78563" lon="1.88059">
        <ele>706.5</ele>
        <time>2026-07-08T10:50:32.000Z</time>
      </trkpt>
      <trkpt lat="45.78563" lon="1.88059">
        <ele>706.5</ele>
        <time>2026-07-08T10:50:33.000Z</time>
      </trkpt>
      <trkpt lat="45.78563" lon="1.88059">
        <ele>706.5</ele>
        <time>2026-07-08T10:50:34.000Z</time>
      </trkpt>
      <trkpt lat="45.78563" lon="1.88059">
        <ele>706.5</ele>
        <time>2026-07-08T10:50:35.000Z</time>
      </trkpt>
      <trkpt lat="45.78563" lon="1.88059">
        <ele>706.6</ele>
        <time>2026-07-08T10:50:36.000Z</time>
      </trkpt>
      <trkpt lat="45.78563" lon="1.88059">
        <ele>706.6</ele>
        <time>2026-07-08T10:50:37.000Z</time>
      </trkpt>
      <trkpt lat="45.78563" lon="1.88059">
        <ele>706.6</ele>
        <time>2026-07-08T10:50:38.000Z</time>
      </trkpt>
      <trkpt lat="45.78563" lon="1.88059">
        <ele>706.6</ele>
        <time>2026-07-08T10:50:39.000Z</time>
      </trkpt>
      <trkpt lat="45.78563" lon="1.88059">
        <ele>706.6</ele>
        <time>2026-07-08T10:50:40.000Z</time>
      </trkpt>
      <trkpt lat="45.78563" lon="1.88059">
        <ele>706.6</ele>
        <time>2026-07-08T10:50:41.000Z</time>
      </trkpt>
      <trkpt lat="45.78563" lon="1.88059">
        <ele>706.6</ele>
        <time>2026-07-08T10:50:42.000Z</time>
      </trkpt>
      <trkpt lat="45.78563" lon="1.88059">
        <ele>706.6</ele>
        <time>2026-07-08T10:50:43.000Z</time>
      </trkpt>
      <trkpt lat="45.78563" lon="1.88059">
        <ele>706.6</ele>
        <time>2026-07-08T10:50:44.000Z</time>
      </trkpt>
      <trkpt lat="45.78563" lon="1.88059">
        <ele>706.6</ele>
        <time>2026-07-08T10:50:45.000Z</time>
      </trkpt>
      <trkpt lat="45.78563" lon="1.88059">
        <ele>706.7</ele>
        <time>2026-07-08T10:50:46.000Z</time>
      </trkpt>
      <trkpt lat="45.78563" lon="1.88059">
        <ele>706.7</ele>
        <time>2026-07-08T10:50:47.000Z</time>
      </trkpt>
      <trkpt lat="45.78563" lon="1.88059">
        <ele>706.7</ele>
        <time>2026-07-08T10:50:48.000Z</time>
      </trkpt>
      <trkpt lat="45.78563" lon="1.88059">
        <ele>706.6</ele>
        <time>2026-07-08T10:50:49.000Z</time>
      </trkpt>
      <trkpt lat="45.78563" lon="1.88059">
        <ele>706.6</ele>
        <time>2026-07-08T10:50:50.000Z</time>
      </trkpt>
      <trkpt lat="45.78563" lon="1.88059">
        <ele>706.6</ele>
        <time>2026-07-08T10:50:51.000Z</time>
      </trkpt>
      <trkpt lat="45.78563" lon="1.88059">
        <ele>706.7</ele>
        <time>2026-07-08T10:50:52.000Z</time>
      </trkpt>
      <trkpt lat="45.78563" lon="1.88059">
        <ele>706.7</ele>
        <time>2026-07-08T10:50:53.000Z</time>
      </trkpt>
      <trkpt lat="45.78563" lon="1.88059">
        <ele>706.7</ele>
        <time>2026-07-08T10:50:54.000Z</time>
      </trkpt>
      <trkpt lat="45.78563" lon="1.88059">
        <ele>706.6</ele>
        <time>2026-07-08T10:50:55.000Z</time>
      </trkpt>
      <trkpt lat="45.78563" lon="1.88059">
        <ele>706.6</ele>
        <time>2026-07-08T10:50:56.000Z</time>
      </trkpt>
      <trkpt lat="45.78563" lon="1.88059">
        <ele>706.6</ele>
        <time>2026-07-08T10:50:57.000Z</time>
      </trkpt>
      <trkpt lat="45.78563" lon="1.88059">
        <ele>706.6</ele>
        <time>2026-07-08T10:50:58.000Z</time>
      </trkpt>
      <trkpt lat="45.78563" lon="1.88059">
        <ele>706.6</ele>
        <time>2026-07-08T10:50:59.000Z</time>
      </trkpt>
      <trkpt lat="45.78563" lon="1.88059">
        <ele>706.6</ele>
        <time>2026-07-08T10:51:00.000Z</time>
      </trkpt>
      <trkpt lat="45.78563" lon="1.88059">
        <ele>706.6</ele>
        <time>2026-07-08T10:51:01.000Z</time>
      </trkpt>
      <trkpt lat="45.78563" lon="1.88059">
        <ele>706.6</ele>
        <time>2026-07-08T10:51:02.000Z</time>
      </trkpt>
      <trkpt lat="45.78563" lon="1.88059">
        <ele>706.6</ele>
        <time>2026-07-08T10:51:03.000Z</time>
      </trkpt>
      <trkpt lat="45.78563" lon="1.88059">
        <ele>706.6</ele>
        <time>2026-07-08T10:51:04.000Z</time>
      </trkpt>
      <trkpt lat="45.78563" lon="1.88059">
        <ele>706.6</ele>
        <time>2026-07-08T10:51:05.000Z</time>
      </trkpt>
      <trkpt lat="45.78564" lon="1.8806">
        <ele>706</ele>
        <time>2026-07-08T10:51:06.000Z</time>
      </trkpt>
      <trkpt lat="45.78566" lon="1.88059">
        <ele>706.1</ele>
        <time>2026-07-08T10:51:07.000Z</time>
      </trkpt>
      <trkpt lat="45.78567" lon="1.88059">
        <ele>705.6</ele>
        <time>2026-07-08T10:51:08.000Z</time>
      </trkpt>
      <trkpt lat="45.78568" lon="1.88058">
        <ele>705.7</ele>
        <time>2026-07-08T10:51:09.000Z</time>
      </trkpt>
      <trkpt lat="45.78569" lon="1.88058">
        <ele>705.7</ele>
        <time>2026-07-08T10:51:10.000Z</time>
      </trkpt>
      <trkpt lat="45.7857" lon="1.88059">
        <ele>704.9</ele>
        <time>2026-07-08T10:51:11.000Z</time>
      </trkpt>
      <trkpt lat="45.7857" lon="1.8806">
        <ele>704.7</ele>
        <time>2026-07-08T10:51:12.000Z</time>
      </trkpt>
      <trkpt lat="45.7857" lon="1.88061">
        <ele>704.7</ele>
        <time>2026-07-08T10:51:13.000Z</time>
      </trkpt>
      <trkpt lat="45.7857" lon="1.88061">
        <ele>704.7</ele>
        <time>2026-07-08T10:51:14.000Z</time>
      </trkpt>
      <trkpt lat="45.7857" lon="1.88061">
        <ele>704.7</ele>
        <time>2026-07-08T10:51:15.000Z</time>
      </trkpt>
      <trkpt lat="45.7857" lon="1.88061">
        <ele>704.7</ele>
        <time>2026-07-08T10:51:16.000Z</time>
      </trkpt>
      <trkpt lat="45.7857" lon="1.88062">
        <ele>704.9</ele>
        <time>2026-07-08T10:51:17.000Z</time>
      </trkpt>
      <trkpt lat="45.78569" lon="1.88061">
        <ele>705.2</ele>
        <time>2026-07-08T10:51:18.000Z</time>
      </trkpt>
      <trkpt lat="45.7857" lon="1.88061">
        <ele>705.2</ele>
        <time>2026-07-08T10:51:19.000Z</time>
      </trkpt>
      <trkpt lat="45.7857" lon="1.88061">
        <ele>705.2</ele>
        <time>2026-07-08T10:51:20.000Z</time>
      </trkpt>
      <trkpt lat="45.78569" lon="1.88061">
        <ele>705.1</ele>
        <time>2026-07-08T10:51:21.000Z</time>
      </trkpt>
      <trkpt lat="45.78569" lon="1.88061">
        <ele>705.3</ele>
        <time>2026-07-08T10:51:22.000Z</time>
      </trkpt>
      <trkpt lat="45.78569" lon="1.88061">
        <ele>705.3</ele>
        <time>2026-07-08T10:51:23.000Z</time>
      </trkpt>
      <trkpt lat="45.78569" lon="1.88061">
        <ele>705.3</ele>
        <time>2026-07-08T10:51:24.000Z</time>
      </trkpt>
      <trkpt lat="45.78569" lon="1.8806">
        <ele>705.2</ele>
        <time>2026-07-08T10:51:25.000Z</time>
      </trkpt>
      <trkpt lat="45.7857" lon="1.8806">
        <ele>704.9</ele>
        <time>2026-07-08T10:51:26.000Z</time>
      </trkpt>
      <trkpt lat="45.7857" lon="1.8806">
        <ele>705</ele>
        <time>2026-07-08T10:51:27.000Z</time>
      </trkpt>
      <trkpt lat="45.7857" lon="1.8806">
        <ele>705</ele>
        <time>2026-07-08T10:51:28.000Z</time>
      </trkpt>
      <trkpt lat="45.7857" lon="1.8806">
        <ele>705</ele>
        <time>2026-07-08T10:51:29.000Z</time>
      </trkpt>
      <trkpt lat="45.7857" lon="1.8806">
        <ele>705</ele>
        <time>2026-07-08T10:51:30.000Z</time>
      </trkpt>
      <trkpt lat="45.7857" lon="1.8806">
        <ele>705</ele>
        <time>2026-07-08T10:51:31.000Z</time>
      </trkpt>
      <trkpt lat="45.7857" lon="1.8806">
        <ele>705</ele>
        <time>2026-07-08T10:51:32.000Z</time>
      </trkpt>
      <trkpt lat="45.7857" lon="1.8806">
        <ele>705</ele>
        <time>2026-07-08T10:51:33.000Z</time>
      </trkpt>
      <trkpt lat="45.7857" lon="1.8806">
        <ele>705</ele>
        <time>2026-07-08T10:51:34.000Z</time>
      </trkpt>
      <trkpt lat="45.7857" lon="1.8806">
        <ele>705</ele>
        <time>2026-07-08T10:51:35.000Z</time>
      </trkpt>
      <trkpt lat="45.7857" lon="1.88059">
        <ele>705.1</ele>
        <time>2026-07-08T10:51:36.000Z</time>
      </trkpt>
      <trkpt lat="45.7857" lon="1.88058">
        <ele>704.9</ele>
        <time>2026-07-08T10:51:37.000Z</time>
      </trkpt>
      <trkpt lat="45.7857" lon="1.88057">
        <ele>704.9</ele>
        <time>2026-07-08T10:51:38.000Z</time>
      </trkpt>
      <trkpt lat="45.7857" lon="1.88057">
        <ele>704.7</ele>
        <time>2026-07-08T10:51:39.000Z</time>
      </trkpt>
      <trkpt lat="45.7857" lon="1.88057">
        <ele>704.8</ele>
        <time>2026-07-08T10:51:40.000Z</time>
      </trkpt>
      <trkpt lat="45.7857" lon="1.88057">
        <ele>704.8</ele>
        <time>2026-07-08T10:51:41.000Z</time>
      </trkpt>
      <trkpt lat="45.7857" lon="1.88057">
        <ele>704.8</ele>
        <time>2026-07-08T10:51:42.000Z</time>
      </trkpt>
      <trkpt lat="45.7857" lon="1.88057">
        <ele>704.8</ele>
        <time>2026-07-08T10:51:43.000Z</time>
      </trkpt>
      <trkpt lat="45.7857" lon="1.88057">
        <ele>704.8</ele>
        <time>2026-07-08T10:51:44.000Z</time>
      </trkpt>
      <trkpt lat="45.7857" lon="1.88057">
        <ele>704.8</ele>
        <time>2026-07-08T10:51:45.000Z</time>
      </trkpt>
      <trkpt lat="45.7857" lon="1.88057">
        <ele>704.8</ele>
        <time>2026-07-08T10:51:46.000Z</time>
      </trkpt>
      <trkpt lat="45.7857" lon="1.88057">
        <ele>704.8</ele>
        <time>2026-07-08T10:51:47.000Z</time>
      </trkpt>
      <trkpt lat="45.7857" lon="1.88057">
        <ele>704.2</ele>
        <time>2026-07-08T10:51:48.000Z</time>
      </trkpt>
      <trkpt lat="45.78571" lon="1.88057">
        <ele>704</ele>
        <time>2026-07-08T10:51:49.000Z</time>
      </trkpt>
      <trkpt lat="45.78571" lon="1.88057">
        <ele>704</ele>
        <time>2026-07-08T10:51:50.000Z</time>
      </trkpt>
      <trkpt lat="45.78571" lon="1.88057">
        <ele>704</ele>
        <time>2026-07-08T10:51:51.000Z</time>
      </trkpt>
      <trkpt lat="45.78571" lon="1.88057">
        <ele>704</ele>
        <time>2026-07-08T10:51:52.000Z</time>
      </trkpt>
      <trkpt lat="45.78571" lon="1.88057">
        <ele>704</ele>
        <time>2026-07-08T10:51:53.000Z</time>
      </trkpt>
      <trkpt lat="45.78571" lon="1.88056">
        <ele>704</ele>
        <time>2026-07-08T10:51:54.000Z</time>
      </trkpt>
      <trkpt lat="45.78571" lon="1.88056">
        <ele>704</ele>
        <time>2026-07-08T10:51:55.000Z</time>
      </trkpt>
      <trkpt lat="45.78571" lon="1.88056">
        <ele>704</ele>
        <time>2026-07-08T10:51:56.000Z</time>
      </trkpt>
      <trkpt lat="45.78571" lon="1.88056">
        <ele>704</ele>
        <time>2026-07-08T10:51:57.000Z</time>
      </trkpt>
      <trkpt lat="45.78571" lon="1.88057">
        <ele>703.8</ele>
        <time>2026-07-08T10:51:58.000Z</time>
      </trkpt>
      <trkpt lat="45.78572" lon="1.88057">
        <ele>703.7</ele>
        <time>2026-07-08T10:51:59.000Z</time>
      </trkpt>
      <trkpt lat="45.78572" lon="1.88057">
        <ele>703.5</ele>
        <time>2026-07-08T10:52:00.000Z</time>
      </trkpt>
      <trkpt lat="45.78573" lon="1.88057">
        <ele>703.5</ele>
        <time>2026-07-08T10:52:01.000Z</time>
      </trkpt>
      <trkpt lat="45.78574" lon="1.88057">
        <ele>703.5</ele>
        <time>2026-07-08T10:52:02.000Z</time>
      </trkpt>
      <trkpt lat="45.78574" lon="1.88057">
        <ele>703.5</ele>
        <time>2026-07-08T10:52:03.000Z</time>
      </trkpt>
      <trkpt lat="45.78574" lon="1.88057">
        <ele>703.5</ele>
        <time>2026-07-08T10:52:04.000Z</time>
      </trkpt>
      <trkpt lat="45.78574" lon="1.88057">
        <ele>703.7</ele>
        <time>2026-07-08T10:52:05.000Z</time>
      </trkpt>
      <trkpt lat="45.78574" lon="1.88057">
        <ele>703.7</ele>
        <time>2026-07-08T10:52:06.000Z</time>
      </trkpt>
      <trkpt lat="45.78574" lon="1.88057">
        <ele>703.7</ele>
        <time>2026-07-08T10:52:07.000Z</time>
      </trkpt>
      <trkpt lat="45.78573" lon="1.88056">
        <ele>703.7</ele>
        <time>2026-07-08T10:52:08.000Z</time>
      </trkpt>
      <trkpt lat="45.78573" lon="1.88056">
        <ele>703.4</ele>
        <time>2026-07-08T10:52:09.000Z</time>
      </trkpt>
      <trkpt lat="45.78573" lon="1.88056">
        <ele>703.4</ele>
        <time>2026-07-08T10:52:10.000Z</time>
      </trkpt>
      <trkpt lat="45.78573" lon="1.88056">
        <ele>703.4</ele>
        <time>2026-07-08T10:52:11.000Z</time>
      </trkpt>
      <trkpt lat="45.78573" lon="1.88056">
        <ele>703.4</ele>
        <time>2026-07-08T10:52:12.000Z</time>
      </trkpt>
      <trkpt lat="45.78573" lon="1.88056">
        <ele>703.4</ele>
        <time>2026-07-08T10:52:13.000Z</time>
      </trkpt>
      <trkpt lat="45.78573" lon="1.88056">
        <ele>703.4</ele>
        <time>2026-07-08T10:52:14.000Z</time>
      </trkpt>
      <trkpt lat="45.78573" lon="1.88056">
        <ele>703.4</ele>
        <time>2026-07-08T10:52:15.000Z</time>
      </trkpt>
      <trkpt lat="45.78573" lon="1.88056">
        <ele>703.4</ele>
        <time>2026-07-08T10:52:16.000Z</time>
      </trkpt>
      <trkpt lat="45.78573" lon="1.88056">
        <ele>703.4</ele>
        <time>2026-07-08T10:52:17.000Z</time>
      </trkpt>
      <trkpt lat="45.78573" lon="1.88056">
        <ele>703.4</ele>
        <time>2026-07-08T10:52:18.000Z</time>
      </trkpt>
      <trkpt lat="45.78573" lon="1.88056">
        <ele>703.4</ele>
        <time>2026-07-08T10:52:19.000Z</time>
      </trkpt>
      <trkpt lat="45.78573" lon="1.88056">
        <ele>703.4</ele>
        <time>2026-07-08T10:52:20.000Z</time>
      </trkpt>
      <trkpt lat="45.78573" lon="1.88056">
        <ele>703.4</ele>
        <time>2026-07-08T10:52:21.000Z</time>
      </trkpt>
      <trkpt lat="45.78573" lon="1.88056">
        <ele>703.4</ele>
        <time>2026-07-08T10:52:22.000Z</time>
      </trkpt>
      <trkpt lat="45.78573" lon="1.88056">
        <ele>703.4</ele>
        <time>2026-07-08T10:52:23.000Z</time>
      </trkpt>
      <trkpt lat="45.78573" lon="1.88056">
        <ele>703.4</ele>
        <time>2026-07-08T10:52:24.000Z</time>
      </trkpt>
      <trkpt lat="45.78573" lon="1.88056">
        <ele>703.4</ele>
        <time>2026-07-08T10:52:25.000Z</time>
      </trkpt>
      <trkpt lat="45.78573" lon="1.88056">
        <ele>703.4</ele>
        <time>2026-07-08T10:52:26.000Z</time>
      </trkpt>
      <trkpt lat="45.78573" lon="1.88056">
        <ele>703.4</ele>
        <time>2026-07-08T10:52:27.000Z</time>
      </trkpt>
      <trkpt lat="45.78573" lon="1.88056">
        <ele>703.4</ele>
        <time>2026-07-08T10:52:28.000Z</time>
      </trkpt>
      <trkpt lat="45.78573" lon="1.88056">
        <ele>703.5</ele>
        <time>2026-07-08T10:52:29.000Z</time>
      </trkpt>
      <trkpt lat="45.78573" lon="1.88056">
        <ele>703.5</ele>
        <time>2026-07-08T10:52:30.000Z</time>
      </trkpt>
      <trkpt lat="45.78573" lon="1.88056">
        <ele>703.3</ele>
        <time>2026-07-08T10:52:31.000Z</time>
      </trkpt>
      <trkpt lat="45.78573" lon="1.88055">
        <ele>703.1</ele>
        <time>2026-07-08T10:52:32.000Z</time>
      </trkpt>
      <trkpt lat="45.78573" lon="1.88055">
        <ele>702.6</ele>
        <time>2026-07-08T10:52:33.000Z</time>
      </trkpt>
      <trkpt lat="45.78573" lon="1.88055">
        <ele>702.6</ele>
        <time>2026-07-08T10:52:34.000Z</time>
      </trkpt>
      <trkpt lat="45.78573" lon="1.88055">
        <ele>702.6</ele>
        <time>2026-07-08T10:52:35.000Z</time>
      </trkpt>
      <trkpt lat="45.78573" lon="1.88054">
        <ele>702.3</ele>
        <time>2026-07-08T10:52:36.000Z</time>
      </trkpt>
      <trkpt lat="45.78573" lon="1.88054">
        <ele>702.3</ele>
        <time>2026-07-08T10:52:37.000Z</time>
      </trkpt>
      <trkpt lat="45.78573" lon="1.88054">
        <ele>702.6</ele>
        <time>2026-07-08T10:52:38.000Z</time>
      </trkpt>
      <trkpt lat="45.78573" lon="1.88054">
        <ele>702.6</ele>
        <time>2026-07-08T10:52:39.000Z</time>
      </trkpt>
      <trkpt lat="45.78573" lon="1.88054">
        <ele>702.6</ele>
        <time>2026-07-08T10:52:40.000Z</time>
      </trkpt>
      <trkpt lat="45.78573" lon="1.88054">
        <ele>702.6</ele>
        <time>2026-07-08T10:52:41.000Z</time>
      </trkpt>
      <trkpt lat="45.78573" lon="1.88054">
        <ele>702.6</ele>
        <time>2026-07-08T10:52:42.000Z</time>
      </trkpt>
      <trkpt lat="45.78573" lon="1.88054">
        <ele>702.6</ele>
        <time>2026-07-08T10:52:43.000Z</time>
      </trkpt>
      <trkpt lat="45.78573" lon="1.88054">
        <ele>702.6</ele>
        <time>2026-07-08T10:52:44.000Z</time>
      </trkpt>
      <trkpt lat="45.78573" lon="1.88054">
        <ele>702.6</ele>
        <time>2026-07-08T10:52:45.000Z</time>
      </trkpt>
      <trkpt lat="45.78573" lon="1.88054">
        <ele>702.6</ele>
        <time>2026-07-08T10:52:46.000Z</time>
      </trkpt>
      <trkpt lat="45.78573" lon="1.88054">
        <ele>702.6</ele>
        <time>2026-07-08T10:52:47.000Z</time>
      </trkpt>
      <trkpt lat="45.78573" lon="1.88053">
        <ele>702.6</ele>
        <time>2026-07-08T10:52:48.000Z</time>
      </trkpt>
      <trkpt lat="45.78573" lon="1.88054">
        <ele>702.6</ele>
        <time>2026-07-08T10:52:49.000Z</time>
      </trkpt>
      <trkpt lat="45.78573" lon="1.88054">
        <ele>702.6</ele>
        <time>2026-07-08T10:52:50.000Z</time>
      </trkpt>
      <trkpt lat="45.78573" lon="1.88054">
        <ele>702.6</ele>
        <time>2026-07-08T10:52:51.000Z</time>
      </trkpt>
      <trkpt lat="45.78573" lon="1.88054">
        <ele>702.6</ele>
        <time>2026-07-08T10:52:52.000Z</time>
      </trkpt>
      <trkpt lat="45.78573" lon="1.88054">
        <ele>702.6</ele>
        <time>2026-07-08T10:52:53.000Z</time>
      </trkpt>
      <trkpt lat="45.78573" lon="1.88054">
        <ele>702.6</ele>
        <time>2026-07-08T10:52:54.000Z</time>
      </trkpt>
      <trkpt lat="45.78573" lon="1.88054">
        <ele>703</ele>
        <time>2026-07-08T10:52:55.000Z</time>
      </trkpt>
      <trkpt lat="45.78573" lon="1.88054">
        <ele>703</ele>
        <time>2026-07-08T10:52:56.000Z</time>
      </trkpt>
      <trkpt lat="45.78573" lon="1.88055">
        <ele>703</ele>
        <time>2026-07-08T10:52:57.000Z</time>
      </trkpt>
      <trkpt lat="45.78573" lon="1.88055">
        <ele>703</ele>
        <time>2026-07-08T10:52:58.000Z</time>
      </trkpt>
      <trkpt lat="45.78573" lon="1.88055">
        <ele>703</ele>
        <time>2026-07-08T10:52:59.000Z</time>
      </trkpt>
      <trkpt lat="45.78573" lon="1.88055">
        <ele>703</ele>
        <time>2026-07-08T10:53:00.000Z</time>
      </trkpt>
      <trkpt lat="45.78573" lon="1.88055">
        <ele>703</ele>
        <time>2026-07-08T10:53:01.000Z</time>
      </trkpt>
      <trkpt lat="45.78573" lon="1.88055">
        <ele>703</ele>
        <time>2026-07-08T10:53:02.000Z</time>
      </trkpt>
      <trkpt lat="45.78573" lon="1.88055">
        <ele>703</ele>
        <time>2026-07-08T10:53:03.000Z</time>
      </trkpt>
      <trkpt lat="45.78573" lon="1.88055">
        <ele>703</ele>
        <time>2026-07-08T10:53:04.000Z</time>
      </trkpt>
      <trkpt lat="45.78573" lon="1.88054">
        <ele>703.2</ele>
        <time>2026-07-08T10:53:05.000Z</time>
      </trkpt>
      <trkpt lat="45.78573" lon="1.88054">
        <ele>703.1</ele>
        <time>2026-07-08T10:53:06.000Z</time>
      </trkpt>
      <trkpt lat="45.78573" lon="1.88054">
        <ele>703.4</ele>
        <time>2026-07-08T10:53:07.000Z</time>
      </trkpt>
      <trkpt lat="45.78574" lon="1.88054">
        <ele>703.5</ele>
        <time>2026-07-08T10:53:08.000Z</time>
      </trkpt>
      <trkpt lat="45.78576" lon="1.88055">
        <ele>703.2</ele>
        <time>2026-07-08T10:53:09.000Z</time>
      </trkpt>
      <trkpt lat="45.78577" lon="1.88055">
        <ele>703.1</ele>
        <time>2026-07-08T10:53:10.000Z</time>
      </trkpt>
      <trkpt lat="45.78578" lon="1.88056">
        <ele>703.5</ele>
        <time>2026-07-08T10:53:11.000Z</time>
      </trkpt>
      <trkpt lat="45.78579" lon="1.88057">
        <ele>703.7</ele>
        <time>2026-07-08T10:53:12.000Z</time>
      </trkpt>
      <trkpt lat="45.78577" lon="1.88057">
        <ele>703.8</ele>
        <time>2026-07-08T10:53:13.000Z</time>
      </trkpt>
      <trkpt lat="45.78577" lon="1.88056">
        <ele>704.1</ele>
        <time>2026-07-08T10:53:14.000Z</time>
      </trkpt>
      <trkpt lat="45.78577" lon="1.88056">
        <ele>704.4</ele>
        <time>2026-07-08T10:53:15.000Z</time>
      </trkpt>
      <trkpt lat="45.78576" lon="1.88055">
        <ele>704.4</ele>
        <time>2026-07-08T10:53:16.000Z</time>
      </trkpt>
      <trkpt lat="45.78576" lon="1.88055">
        <ele>705.1</ele>
        <time>2026-07-08T10:53:17.000Z</time>
      </trkpt>
      <trkpt lat="45.78576" lon="1.88055">
        <ele>705.2</ele>
        <time>2026-07-08T10:53:18.000Z</time>
      </trkpt>
      <trkpt lat="45.78578" lon="1.88055">
        <ele>705.5</ele>
        <time>2026-07-08T10:53:19.000Z</time>
      </trkpt>
      <trkpt lat="45.78579" lon="1.88058">
        <ele>706.5</ele>
        <time>2026-07-08T10:53:20.000Z</time>
      </trkpt>
      <trkpt lat="45.7858" lon="1.88059">
        <ele>707.6</ele>
        <time>2026-07-08T10:53:21.000Z</time>
      </trkpt>
      <trkpt lat="45.78581" lon="1.88061">
        <ele>707</ele>
        <time>2026-07-08T10:53:22.000Z</time>
      </trkpt>
      <trkpt lat="45.78582" lon="1.88062">
        <ele>706.8</ele>
        <time>2026-07-08T10:53:23.000Z</time>
      </trkpt>
      <trkpt lat="45.78583" lon="1.88063">
        <ele>706.8</ele>
        <time>2026-07-08T10:53:24.000Z</time>
      </trkpt>
      <trkpt lat="45.78584" lon="1.88065">
        <ele>706.3</ele>
        <time>2026-07-08T10:53:25.000Z</time>
      </trkpt>
      <trkpt lat="45.78585" lon="1.88066">
        <ele>707.1</ele>
        <time>2026-07-08T10:53:26.000Z</time>
      </trkpt>
      <trkpt lat="45.78586" lon="1.88067">
        <ele>707.7</ele>
        <time>2026-07-08T10:53:27.000Z</time>
      </trkpt>
      <trkpt lat="45.78587" lon="1.88067">
        <ele>707</ele>
        <time>2026-07-08T10:53:28.000Z</time>
      </trkpt>
      <trkpt lat="45.78587" lon="1.88068">
        <ele>706.1</ele>
        <time>2026-07-08T10:53:29.000Z</time>
      </trkpt>
      <trkpt lat="45.78585" lon="1.88067">
        <ele>707.2</ele>
        <time>2026-07-08T10:53:30.000Z</time>
      </trkpt>
      <trkpt lat="45.78583" lon="1.88067">
        <ele>707.1</ele>
        <time>2026-07-08T10:53:31.000Z</time>
      </trkpt>
      <trkpt lat="45.78582" lon="1.88068">
        <ele>708</ele>
        <time>2026-07-08T10:53:32.000Z</time>
      </trkpt>
      <trkpt lat="45.78581" lon="1.88069">
        <ele>708.9</ele>
        <time>2026-07-08T10:53:33.000Z</time>
      </trkpt>
      <trkpt lat="45.78582" lon="1.88068">
        <ele>708.9</ele>
        <time>2026-07-08T10:53:34.000Z</time>
      </trkpt>
      <trkpt lat="45.78582" lon="1.88067">
        <ele>708.9</ele>
        <time>2026-07-08T10:53:35.000Z</time>
      </trkpt>
      <trkpt lat="45.78582" lon="1.88067">
        <ele>708.9</ele>
        <time>2026-07-08T10:53:36.000Z</time>
      </trkpt>
      <trkpt lat="45.78582" lon="1.88067">
        <ele>708.9</ele>
        <time>2026-07-08T10:53:37.000Z</time>
      </trkpt>
      <trkpt lat="45.78582" lon="1.88067">
        <ele>708.9</ele>
        <time>2026-07-08T10:53:38.000Z</time>
      </trkpt>
      <trkpt lat="45.78582" lon="1.88067">
        <ele>708.9</ele>
        <time>2026-07-08T10:53:39.000Z</time>
      </trkpt>
      <trkpt lat="45.78582" lon="1.88067">
        <ele>708.9</ele>
        <time>2026-07-08T10:53:40.000Z</time>
      </trkpt>
      <trkpt lat="45.78582" lon="1.88067">
        <ele>708.9</ele>
        <time>2026-07-08T10:53:41.000Z</time>
      </trkpt>
      <trkpt lat="45.78582" lon="1.88067">
        <ele>708.9</ele>
        <time>2026-07-08T10:53:42.000Z</time>
      </trkpt>
      <trkpt lat="45.78582" lon="1.88067">
        <ele>709</ele>
        <time>2026-07-08T10:53:43.000Z</time>
      </trkpt>
      <trkpt lat="45.78582" lon="1.88067">
        <ele>709</ele>
        <time>2026-07-08T10:53:44.000Z</time>
      </trkpt>
      <trkpt lat="45.78582" lon="1.88067">
        <ele>709</ele>
        <time>2026-07-08T10:53:45.000Z</time>
      </trkpt>
      <trkpt lat="45.78582" lon="1.88067">
        <ele>709</ele>
        <time>2026-07-08T10:53:46.000Z</time>
      </trkpt>
      <trkpt lat="45.78582" lon="1.88067">
        <ele>709</ele>
        <time>2026-07-08T10:53:47.000Z</time>
      </trkpt>
      <trkpt lat="45.79015" lon="1.8828">
        <ele>708.9</ele>
        <time>2026-07-08T11:08:09.297Z</time>
      </trkpt>
      <trkpt lat="45.78974" lon="1.88279">
        <ele>740.5</ele>
        <time>2026-07-08T11:54:52.000Z</time>
      </trkpt>
      <trkpt lat="45.78962" lon="1.88289">
        <ele>719.6</ele>
        <time>2026-07-08T11:54:54.000Z</time>
      </trkpt>
      <trkpt lat="45.78961" lon="1.8829">
        <ele>716.3</ele>
        <time>2026-07-08T11:54:55.000Z</time>
      </trkpt>
      <trkpt lat="45.7896" lon="1.88291">
        <ele>714</ele>
        <time>2026-07-08T11:54:56.000Z</time>
      </trkpt>
      <trkpt lat="45.7896" lon="1.88292">
        <ele>713.1</ele>
        <time>2026-07-08T11:54:57.000Z</time>
      </trkpt>
      <trkpt lat="45.7896" lon="1.88291">
        <ele>712.9</ele>
        <time>2026-07-08T11:54:58.000Z</time>
      </trkpt>
      <trkpt lat="45.7896" lon="1.88291">
        <ele>713.6</ele>
        <time>2026-07-08T11:54:59.000Z</time>
      </trkpt>
      <trkpt lat="45.7896" lon="1.88291">
        <ele>713.5</ele>
        <time>2026-07-08T11:55:00.000Z</time>
      </trkpt>
      <trkpt lat="45.7896" lon="1.88291">
        <ele>713.6</ele>
        <time>2026-07-08T11:55:01.000Z</time>
      </trkpt>
      <trkpt lat="45.78959" lon="1.88291">
        <ele>713.5</ele>
        <time>2026-07-08T11:55:02.000Z</time>
      </trkpt>
      <trkpt lat="45.78959" lon="1.88291">
        <ele>713.4</ele>
        <time>2026-07-08T11:55:03.000Z</time>
      </trkpt>
      <trkpt lat="45.78959" lon="1.88291">
        <ele>713.5</ele>
        <time>2026-07-08T11:55:04.000Z</time>
      </trkpt>
      <trkpt lat="45.78959" lon="1.88291">
        <ele>713.4</ele>
        <time>2026-07-08T11:55:05.000Z</time>
      </trkpt>
      <trkpt lat="45.78959" lon="1.88291">
        <ele>713.4</ele>
        <time>2026-07-08T11:55:06.000Z</time>
      </trkpt>
      <trkpt lat="45.78959" lon="1.88291">
        <ele>713.4</ele>
        <time>2026-07-08T11:55:07.000Z</time>
      </trkpt>
      <trkpt lat="45.78959" lon="1.88292">
        <ele>713.1</ele>
        <time>2026-07-08T11:55:08.000Z</time>
      </trkpt>
      <trkpt lat="45.78959" lon="1.88292">
        <ele>713.1</ele>
        <time>2026-07-08T11:55:09.000Z</time>
      </trkpt>
      <trkpt lat="45.78959" lon="1.88292">
        <ele>713.2</ele>
        <time>2026-07-08T11:55:10.000Z</time>
      </trkpt>
      <trkpt lat="45.78959" lon="1.88292">
        <ele>713.1</ele>
        <time>2026-07-08T11:55:11.000Z</time>
      </trkpt>
      <trkpt lat="45.78959" lon="1.88292">
        <ele>713.1</ele>
        <time>2026-07-08T11:55:12.000Z</time>
      </trkpt>
      <trkpt lat="45.78959" lon="1.88292">
        <ele>713.1</ele>
        <time>2026-07-08T11:55:13.000Z</time>
      </trkpt>
      <trkpt lat="45.78959" lon="1.88292">
        <ele>713.1</ele>
        <time>2026-07-08T11:55:14.000Z</time>
      </trkpt>
      <trkpt lat="45.78959" lon="1.88292">
        <ele>713.1</ele>
        <time>2026-07-08T11:55:15.000Z</time>
      </trkpt>
      <trkpt lat="45.78959" lon="1.88291">
        <ele>713.2</ele>
        <time>2026-07-08T11:55:16.000Z</time>
      </trkpt>
      <trkpt lat="45.78959" lon="1.88291">
        <ele>713.1</ele>
        <time>2026-07-08T11:55:17.000Z</time>
      </trkpt>
      <trkpt lat="45.78959" lon="1.88291">
        <ele>713.1</ele>
        <time>2026-07-08T11:55:18.000Z</time>
      </trkpt>
      <trkpt lat="45.78959" lon="1.88291">
        <ele>713.1</ele>
        <time>2026-07-08T11:55:19.000Z</time>
      </trkpt>
      <trkpt lat="45.78959" lon="1.88291">
        <ele>713.1</ele>
        <time>2026-07-08T11:55:20.000Z</time>
      </trkpt>
      <trkpt lat="45.78959" lon="1.88291">
        <ele>713.1</ele>
        <time>2026-07-08T11:55:21.000Z</time>
      </trkpt>
      <trkpt lat="45.78959" lon="1.88291">
        <ele>713.1</ele>
        <time>2026-07-08T11:55:22.000Z</time>
      </trkpt>
      <trkpt lat="45.78959" lon="1.88291">
        <ele>713.1</ele>
        <time>2026-07-08T11:55:23.000Z</time>
      </trkpt>
      <trkpt lat="45.78959" lon="1.88291">
        <ele>713.1</ele>
        <time>2026-07-08T11:55:24.000Z</time>
      </trkpt>
      <trkpt lat="45.78959" lon="1.88291">
        <ele>713.1</ele>
        <time>2026-07-08T11:55:25.000Z</time>
      </trkpt>
      <trkpt lat="45.78959" lon="1.88291">
        <ele>713.1</ele>
        <time>2026-07-08T11:55:26.000Z</time>
      </trkpt>
      <trkpt lat="45.78959" lon="1.88291">
        <ele>713</ele>
        <time>2026-07-08T11:55:27.000Z</time>
      </trkpt>
      <trkpt lat="45.78959" lon="1.88291">
        <ele>713</ele>
        <time>2026-07-08T11:55:28.000Z</time>
      </trkpt>
      <trkpt lat="45.78959" lon="1.88291">
        <ele>713</ele>
        <time>2026-07-08T11:55:29.000Z</time>
      </trkpt>
      <trkpt lat="45.78959" lon="1.88291">
        <ele>713</ele>
        <time>2026-07-08T11:55:30.000Z</time>
      </trkpt>
      <trkpt lat="45.78959" lon="1.88291">
        <ele>713</ele>
        <time>2026-07-08T11:55:31.000Z</time>
      </trkpt>
      <trkpt lat="45.78959" lon="1.88291">
        <ele>713</ele>
        <time>2026-07-08T11:55:32.000Z</time>
      </trkpt>
      <trkpt lat="45.78959" lon="1.88291">
        <ele>713</ele>
        <time>2026-07-08T11:55:33.000Z</time>
      </trkpt>
      <trkpt lat="45.78959" lon="1.88292">
        <ele>712.9</ele>
        <time>2026-07-08T11:55:34.000Z</time>
      </trkpt>
      <trkpt lat="45.78959" lon="1.88292">
        <ele>712.9</ele>
        <time>2026-07-08T11:55:35.000Z</time>
      </trkpt>
      <trkpt lat="45.78959" lon="1.88292">
        <ele>713</ele>
        <time>2026-07-08T11:55:36.000Z</time>
      </trkpt>
      <trkpt lat="45.78959" lon="1.88292">
        <ele>713</ele>
        <time>2026-07-08T11:55:37.000Z</time>
      </trkpt>
      <trkpt lat="45.78959" lon="1.88292">
        <ele>712.8</ele>
        <time>2026-07-08T11:55:38.000Z</time>
      </trkpt>
      <trkpt lat="45.78959" lon="1.88292">
        <ele>712.8</ele>
        <time>2026-07-08T11:55:39.000Z</time>
      </trkpt>
      <trkpt lat="45.78959" lon="1.88292">
        <ele>712.8</ele>
        <time>2026-07-08T11:55:40.000Z</time>
      </trkpt>
      <trkpt lat="45.78959" lon="1.88292">
        <ele>712.8</ele>
        <time>2026-07-08T11:55:41.000Z</time>
      </trkpt>
      <trkpt lat="45.78959" lon="1.88292">
        <ele>712.8</ele>
        <time>2026-07-08T11:55:42.000Z</time>
      </trkpt>
      <trkpt lat="45.78959" lon="1.88292">
        <ele>712.8</ele>
        <time>2026-07-08T11:55:43.000Z</time>
      </trkpt>
      <trkpt lat="45.78959" lon="1.88292">
        <ele>712.8</ele>
        <time>2026-07-08T11:55:44.000Z</time>
      </trkpt>
      <trkpt lat="45.78959" lon="1.88292">
        <ele>712.8</ele>
        <time>2026-07-08T11:55:45.000Z</time>
      </trkpt>
      <trkpt lat="45.78959" lon="1.88292">
        <ele>712.8</ele>
        <time>2026-07-08T11:55:46.000Z</time>
      </trkpt>
      <trkpt lat="45.78959" lon="1.88292">
        <ele>712.8</ele>
        <time>2026-07-08T11:55:47.000Z</time>
      </trkpt>
      <trkpt lat="45.78959" lon="1.88292">
        <ele>712.8</ele>
        <time>2026-07-08T11:55:48.000Z</time>
      </trkpt>
      <trkpt lat="45.78959" lon="1.88292">
        <ele>712.8</ele>
        <time>2026-07-08T11:55:49.000Z</time>
      </trkpt>
      <trkpt lat="45.78959" lon="1.88292">
        <ele>712.7</ele>
        <time>2026-07-08T11:55:50.000Z</time>
      </trkpt>
      <trkpt lat="45.78959" lon="1.88292">
        <ele>712.7</ele>
        <time>2026-07-08T11:55:51.000Z</time>
      </trkpt>
      <trkpt lat="45.78959" lon="1.88292">
        <ele>712.7</ele>
        <time>2026-07-08T11:55:52.000Z</time>
      </trkpt>
      <trkpt lat="45.78959" lon="1.88292">
        <ele>712.7</ele>
        <time>2026-07-08T11:55:53.000Z</time>
      </trkpt>
      <trkpt lat="45.78959" lon="1.88292">
        <ele>712.7</ele>
        <time>2026-07-08T11:55:54.000Z</time>
      </trkpt>
      <trkpt lat="45.78959" lon="1.88292">
        <ele>712.7</ele>
        <time>2026-07-08T11:55:55.000Z</time>
      </trkpt>
      <trkpt lat="45.78959" lon="1.88292">
        <ele>712.7</ele>
        <time>2026-07-08T11:55:56.000Z</time>
      </trkpt>
      <trkpt lat="45.78959" lon="1.88292">
        <ele>712.7</ele>
        <time>2026-07-08T11:55:57.000Z</time>
      </trkpt>
      <trkpt lat="45.78959" lon="1.88292">
        <ele>712.7</ele>
        <time>2026-07-08T11:55:58.000Z</time>
      </trkpt>
      <trkpt lat="45.78959" lon="1.88292">
        <ele>712.7</ele>
        <time>2026-07-08T11:55:59.000Z</time>
      </trkpt>
      <trkpt lat="45.78959" lon="1.88292">
        <ele>712.7</ele>
        <time>2026-07-08T11:56:00.000Z</time>
      </trkpt>
      <trkpt lat="45.78959" lon="1.88292">
        <ele>712.7</ele>
        <time>2026-07-08T11:56:01.000Z</time>
      </trkpt>
      <trkpt lat="45.78959" lon="1.88292">
        <ele>712.6</ele>
        <time>2026-07-08T11:56:02.000Z</time>
      </trkpt>
      <trkpt lat="45.78959" lon="1.88292">
        <ele>712.6</ele>
        <time>2026-07-08T11:56:03.000Z</time>
      </trkpt>
      <trkpt lat="45.78959" lon="1.88292">
        <ele>712.6</ele>
        <time>2026-07-08T11:56:04.000Z</time>
      </trkpt>
      <trkpt lat="45.78959" lon="1.88292">
        <ele>712.6</ele>
        <time>2026-07-08T11:56:05.000Z</time>
      </trkpt>
      <trkpt lat="45.78959" lon="1.88292">
        <ele>712.6</ele>
        <time>2026-07-08T11:56:06.000Z</time>
      </trkpt>
      <trkpt lat="45.78959" lon="1.88292">
        <ele>712.6</ele>
        <time>2026-07-08T11:56:07.000Z</time>
      </trkpt>
      <trkpt lat="45.78959" lon="1.88292">
        <ele>712.6</ele>
        <time>2026-07-08T11:56:08.000Z</time>
      </trkpt>
      <trkpt lat="45.78959" lon="1.88292">
        <ele>712.6</ele>
        <time>2026-07-08T11:56:09.000Z</time>
      </trkpt>
      <trkpt lat="45.78959" lon="1.88292">
        <ele>712.6</ele>
        <time>2026-07-08T11:56:10.000Z</time>
      </trkpt>
      <trkpt lat="45.78959" lon="1.88292">
        <ele>712.5</ele>
        <time>2026-07-08T11:56:11.000Z</time>
      </trkpt>
      <trkpt lat="45.78959" lon="1.88292">
        <ele>712.5</ele>
        <time>2026-07-08T11:56:12.000Z</time>
      </trkpt>
      <trkpt lat="45.78959" lon="1.88292">
        <ele>712.5</ele>
        <time>2026-07-08T11:56:13.000Z</time>
      </trkpt>
      <trkpt lat="45.78959" lon="1.88292">
        <ele>712.5</ele>
        <time>2026-07-08T11:56:14.000Z</time>
      </trkpt>
      <trkpt lat="45.78959" lon="1.88292">
        <ele>712.5</ele>
        <time>2026-07-08T11:56:15.000Z</time>
      </trkpt>
      <trkpt lat="45.78959" lon="1.88292">
        <ele>712.5</ele>
        <time>2026-07-08T11:56:16.000Z</time>
      </trkpt>
      <trkpt lat="45.78959" lon="1.88292">
        <ele>712.5</ele>
        <time>2026-07-08T11:56:17.000Z</time>
      </trkpt>
      <trkpt lat="45.78959" lon="1.88292">
        <ele>712.5</ele>
        <time>2026-07-08T11:56:18.000Z</time>
      </trkpt>
      <trkpt lat="45.78959" lon="1.88292">
        <ele>712.5</ele>
        <time>2026-07-08T11:56:19.000Z</time>
      </trkpt>
      <trkpt lat="45.78959" lon="1.88292">
        <ele>712.5</ele>
        <time>2026-07-08T11:56:20.000Z</time>
      </trkpt>
      <trkpt lat="45.78959" lon="1.88292">
        <ele>712.4</ele>
        <time>2026-07-08T11:56:21.000Z</time>
      </trkpt>
      <trkpt lat="45.78959" lon="1.88292">
        <ele>712.4</ele>
        <time>2026-07-08T11:56:22.000Z</time>
      </trkpt>
      <trkpt lat="45.78959" lon="1.88292">
        <ele>712.4</ele>
        <time>2026-07-08T11:56:23.000Z</time>
      </trkpt>
      <trkpt lat="45.78959" lon="1.88292">
        <ele>712.4</ele>
        <time>2026-07-08T11:56:24.000Z</time>
      </trkpt>
      <trkpt lat="45.78959" lon="1.88292">
        <ele>712.4</ele>
        <time>2026-07-08T11:56:25.000Z</time>
      </trkpt>
      <trkpt lat="45.78959" lon="1.88292">
        <ele>712.4</ele>
        <time>2026-07-08T11:56:26.000Z</time>
      </trkpt>
      <trkpt lat="45.78959" lon="1.88292">
        <ele>712.4</ele>
        <time>2026-07-08T11:56:27.000Z</time>
      </trkpt>
      <trkpt lat="45.78959" lon="1.88292">
        <ele>712.4</ele>
        <time>2026-07-08T11:56:28.000Z</time>
      </trkpt>
      <trkpt lat="45.78959" lon="1.88292">
        <ele>712.4</ele>
        <time>2026-07-08T11:56:29.000Z</time>
      </trkpt>
      <trkpt lat="45.78959" lon="1.88292">
        <ele>712.4</ele>
        <time>2026-07-08T11:56:30.000Z</time>
      </trkpt>
      <trkpt lat="45.78959" lon="1.88292">
        <ele>712.4</ele>
        <time>2026-07-08T11:56:31.000Z</time>
      </trkpt>
      <trkpt lat="45.78959" lon="1.88292">
        <ele>712.4</ele>
        <time>2026-07-08T11:56:32.000Z</time>
      </trkpt>
      <trkpt lat="45.78959" lon="1.88292">
        <ele>712.4</ele>
        <time>2026-07-08T11:56:33.000Z</time>
      </trkpt>
      <trkpt lat="45.78959" lon="1.88292">
        <ele>712.4</ele>
        <time>2026-07-08T11:56:34.000Z</time>
      </trkpt>
      <trkpt lat="45.78959" lon="1.88292">
        <ele>712.4</ele>
        <time>2026-07-08T11:56:35.000Z</time>
      </trkpt>
      <trkpt lat="45.78959" lon="1.88292">
        <ele>712.4</ele>
        <time>2026-07-08T11:56:36.000Z</time>
      </trkpt>
      <trkpt lat="45.78959" lon="1.88292">
        <ele>712.4</ele>
        <time>2026-07-08T11:56:37.000Z</time>
      </trkpt>
      <trkpt lat="45.78959" lon="1.88292">
        <ele>712.4</ele>
        <time>2026-07-08T11:56:38.000Z</time>
      </trkpt>
      <trkpt lat="45.78959" lon="1.88292">
        <ele>712.4</ele>
        <time>2026-07-08T11:56:39.000Z</time>
      </trkpt>
      <trkpt lat="45.78959" lon="1.88292">
        <ele>712.4</ele>
        <time>2026-07-08T11:56:40.000Z</time>
      </trkpt>
      <trkpt lat="45.78959" lon="1.88292">
        <ele>712.4</ele>
        <time>2026-07-08T11:56:41.000Z</time>
      </trkpt>
      <trkpt lat="45.78959" lon="1.88292">
        <ele>712.4</ele>
        <time>2026-07-08T11:56:42.000Z</time>
      </trkpt>
      <trkpt lat="45.78959" lon="1.88292">
        <ele>712.4</ele>
        <time>2026-07-08T11:56:43.000Z</time>
      </trkpt>
      <trkpt lat="45.78959" lon="1.88292">
        <ele>712.4</ele>
        <time>2026-07-08T11:56:44.000Z</time>
      </trkpt>
      <trkpt lat="45.78959" lon="1.88292">
        <ele>712.4</ele>
        <time>2026-07-08T11:56:45.000Z</time>
      </trkpt>
      <trkpt lat="45.78959" lon="1.88292">
        <ele>712.4</ele>
        <time>2026-07-08T11:56:46.000Z</time>
      </trkpt>
      <trkpt lat="45.78959" lon="1.88292">
        <ele>712.4</ele>
        <time>2026-07-08T11:56:47.000Z</time>
      </trkpt>
      <trkpt lat="45.78959" lon="1.88292">
        <ele>712.4</ele>
        <time>2026-07-08T11:56:48.000Z</time>
      </trkpt>
      <trkpt lat="45.78959" lon="1.88292">
        <ele>712.4</ele>
        <time>2026-07-08T11:56:49.000Z</time>
      </trkpt>
      <trkpt lat="45.78959" lon="1.88292">
        <ele>712.4</ele>
        <time>2026-07-08T11:56:50.000Z</time>
      </trkpt>
      <trkpt lat="45.78959" lon="1.88292">
        <ele>712.4</ele>
        <time>2026-07-08T11:56:51.000Z</time>
      </trkpt>
      <trkpt lat="45.78959" lon="1.88292">
        <ele>712.4</ele>
        <time>2026-07-08T11:56:52.000Z</time>
      </trkpt>
      <trkpt lat="45.78959" lon="1.88292">
        <ele>712.4</ele>
        <time>2026-07-08T11:56:53.000Z</time>
      </trkpt>
      <trkpt lat="45.78959" lon="1.88292">
        <ele>712.4</ele>
        <time>2026-07-08T11:56:54.000Z</time>
      </trkpt>
      <trkpt lat="45.78959" lon="1.88292">
        <ele>712.4</ele>
        <time>2026-07-08T11:57:22.000Z</time>
      </trkpt>
      <trkpt lat="45.78959" lon="1.88292">
        <ele>712.4</ele>
        <time>2026-07-08T11:57:23.000Z</time>
      </trkpt>
      <trkpt lat="45.78959" lon="1.88292">
        <ele>712.4</ele>
        <time>2026-07-08T11:57:24.000Z</time>
      </trkpt>
      <trkpt lat="45.78959" lon="1.88292">
        <ele>712.4</ele>
        <time>2026-07-08T11:57:25.000Z</time>
      </trkpt>
      <trkpt lat="45.78959" lon="1.88292">
        <ele>712.4</ele>
        <time>2026-07-08T11:57:26.000Z</time>
      </trkpt>
      <trkpt lat="45.78959" lon="1.88292">
        <ele>712.4</ele>
        <time>2026-07-08T11:57:27.000Z</time>
      </trkpt>
      <trkpt lat="45.78959" lon="1.88292">
        <ele>712.4</ele>
        <time>2026-07-08T11:57:28.000Z</time>
      </trkpt>
      <trkpt lat="45.78959" lon="1.88292">
        <ele>712.4</ele>
        <time>2026-07-08T11:57:29.000Z</time>
      </trkpt>
      <trkpt lat="45.78959" lon="1.88292">
        <ele>712.4</ele>
        <time>2026-07-08T11:57:30.000Z</time>
      </trkpt>
      <trkpt lat="45.78959" lon="1.88292">
        <ele>712.4</ele>
        <time>2026-07-08T11:57:31.000Z</time>
      </trkpt>
      <trkpt lat="45.78959" lon="1.88292">
        <ele>712.4</ele>
        <time>2026-07-08T11:57:32.000Z</time>
      </trkpt>
      <trkpt lat="45.78959" lon="1.88292">
        <ele>712.4</ele>
        <time>2026-07-08T11:57:33.000Z</time>
      </trkpt>
      <trkpt lat="45.78959" lon="1.88292">
        <ele>712.4</ele>
        <time>2026-07-08T11:57:34.000Z</time>
      </trkpt>
      <trkpt lat="45.78959" lon="1.88292">
        <ele>712.4</ele>
        <time>2026-07-08T11:57:35.000Z</time>
      </trkpt>
      <trkpt lat="45.78959" lon="1.88292">
        <ele>712.4</ele>
        <time>2026-07-08T11:57:36.000Z</time>
      </trkpt>
      <trkpt lat="45.78959" lon="1.88292">
        <ele>712.4</ele>
        <time>2026-07-08T11:57:37.000Z</time>
      </trkpt>
      <trkpt lat="45.78959" lon="1.88292">
        <ele>712.4</ele>
        <time>2026-07-08T11:57:38.000Z</time>
      </trkpt>
      <trkpt lat="45.78959" lon="1.88292">
        <ele>712.3</ele>
        <time>2026-07-08T11:57:39.000Z</time>
      </trkpt>
      <trkpt lat="45.78959" lon="1.88292">
        <ele>712.3</ele>
        <time>2026-07-08T11:57:40.000Z</time>
      </trkpt>
      <trkpt lat="45.78959" lon="1.88292">
        <ele>712.3</ele>
        <time>2026-07-08T11:57:41.000Z</time>
      </trkpt>
      <trkpt lat="45.78959" lon="1.88292">
        <ele>712.3</ele>
        <time>2026-07-08T11:57:42.000Z</time>
      </trkpt>
      <trkpt lat="45.78959" lon="1.88292">
        <ele>712.3</ele>
        <time>2026-07-08T11:57:43.000Z</time>
      </trkpt>
      <trkpt lat="45.78959" lon="1.88292">
        <ele>712.3</ele>
        <time>2026-07-08T11:57:44.000Z</time>
      </trkpt>
      <trkpt lat="45.78959" lon="1.88292">
        <ele>712.3</ele>
        <time>2026-07-08T11:57:45.000Z</time>
      </trkpt>
      <trkpt lat="45.78959" lon="1.88292">
        <ele>712.3</ele>
        <time>2026-07-08T11:57:46.000Z</time>
      </trkpt>
      <trkpt lat="45.78959" lon="1.88292">
        <ele>712.3</ele>
        <time>2026-07-08T11:57:47.000Z</time>
      </trkpt>
      <trkpt lat="45.78959" lon="1.88292">
        <ele>712.3</ele>
        <time>2026-07-08T11:57:48.000Z</time>
      </trkpt>
      <trkpt lat="45.78959" lon="1.88292">
        <ele>712.3</ele>
        <time>2026-07-08T11:57:49.000Z</time>
      </trkpt>
      <trkpt lat="45.78959" lon="1.88292">
        <ele>712.3</ele>
        <time>2026-07-08T11:57:50.000Z</time>
      </trkpt>
      <trkpt lat="45.78959" lon="1.88292">
        <ele>712.3</ele>
        <time>2026-07-08T11:57:51.000Z</time>
      </trkpt>
      <trkpt lat="45.78959" lon="1.88292">
        <ele>712.3</ele>
        <time>2026-07-08T11:57:52.000Z</time>
      </trkpt>
      <trkpt lat="45.78959" lon="1.88292">
        <ele>712.3</ele>
        <time>2026-07-08T11:57:53.000Z</time>
      </trkpt>
      <trkpt lat="45.78959" lon="1.88292">
        <ele>712.3</ele>
        <time>2026-07-08T11:57:54.000Z</time>
      </trkpt>
      <trkpt lat="45.78959" lon="1.88292">
        <ele>712.2</ele>
        <time>2026-07-08T11:57:55.000Z</time>
      </trkpt>
      <trkpt lat="45.78959" lon="1.88292">
        <ele>712.2</ele>
        <time>2026-07-08T11:57:56.000Z</time>
      </trkpt>
      <trkpt lat="45.78959" lon="1.88292">
        <ele>712.2</ele>
        <time>2026-07-08T11:57:57.000Z</time>
      </trkpt>
      <trkpt lat="45.78959" lon="1.88292">
        <ele>712.2</ele>
        <time>2026-07-08T11:57:58.000Z</time>
      </trkpt>
      <trkpt lat="45.78959" lon="1.88292">
        <ele>712.2</ele>
        <time>2026-07-08T11:57:59.000Z</time>
      </trkpt>
      <trkpt lat="45.78959" lon="1.88292">
        <ele>712.2</ele>
        <time>2026-07-08T11:58:00.000Z</time>
      </trkpt>
      <trkpt lat="45.78959" lon="1.88292">
        <ele>712.2</ele>
        <time>2026-07-08T11:58:01.000Z</time>
      </trkpt>
      <trkpt lat="45.78959" lon="1.88292">
        <ele>712.2</ele>
        <time>2026-07-08T11:58:02.000Z</time>
      </trkpt>
      <trkpt lat="45.78959" lon="1.88292">
        <ele>712.2</ele>
        <time>2026-07-08T11:58:03.000Z</time>
      </trkpt>
      <trkpt lat="45.78959" lon="1.88292">
        <ele>712.2</ele>
        <time>2026-07-08T11:58:04.000Z</time>
      </trkpt>
      <trkpt lat="45.78959" lon="1.88292">
        <ele>712.2</ele>
        <time>2026-07-08T11:58:05.000Z</time>
      </trkpt>
      <trkpt lat="45.78959" lon="1.88292">
        <ele>712.2</ele>
        <time>2026-07-08T11:58:06.000Z</time>
      </trkpt>
      <trkpt lat="45.78959" lon="1.88292">
        <ele>712.2</ele>
        <time>2026-07-08T11:58:07.000Z</time>
      </trkpt>
      <trkpt lat="45.78959" lon="1.88292">
        <ele>712.2</ele>
        <time>2026-07-08T11:58:08.000Z</time>
      </trkpt>
      <trkpt lat="45.78959" lon="1.88292">
        <ele>712.2</ele>
        <time>2026-07-08T11:58:09.000Z</time>
      </trkpt>
      <trkpt lat="45.78959" lon="1.88292">
        <ele>712.1</ele>
        <time>2026-07-08T11:58:10.000Z</time>
      </trkpt>
      <trkpt lat="45.78959" lon="1.88292">
        <ele>712.1</ele>
        <time>2026-07-08T11:58:11.000Z</time>
      </trkpt>
      <trkpt lat="45.78959" lon="1.88292">
        <ele>712.1</ele>
        <time>2026-07-08T11:58:12.000Z</time>
      </trkpt>
      <trkpt lat="45.78959" lon="1.88292">
        <ele>712.1</ele>
        <time>2026-07-08T11:58:13.000Z</time>
      </trkpt>
      <trkpt lat="45.78959" lon="1.88292">
        <ele>712.1</ele>
        <time>2026-07-08T11:58:14.000Z</time>
      </trkpt>
      <trkpt lat="45.78959" lon="1.88292">
        <ele>712.1</ele>
        <time>2026-07-08T11:58:15.000Z</time>
      </trkpt>
      <trkpt lat="45.78959" lon="1.88292">
        <ele>712.1</ele>
        <time>2026-07-08T11:58:16.000Z</time>
      </trkpt>
      <trkpt lat="45.78959" lon="1.88292">
        <ele>712.1</ele>
        <time>2026-07-08T11:58:17.000Z</time>
      </trkpt>
      <trkpt lat="45.78959" lon="1.88292">
        <ele>712.1</ele>
        <time>2026-07-08T11:58:18.000Z</time>
      </trkpt>
      <trkpt lat="45.78959" lon="1.88292">
        <ele>712.1</ele>
        <time>2026-07-08T11:58:19.000Z</time>
      </trkpt>
      <trkpt lat="45.78959" lon="1.88292">
        <ele>712.1</ele>
        <time>2026-07-08T11:58:20.000Z</time>
      </trkpt>
      <trkpt lat="45.78959" lon="1.88292">
        <ele>712.1</ele>
        <time>2026-07-08T11:58:21.000Z</time>
      </trkpt>
      <trkpt lat="45.78959" lon="1.88292">
        <ele>712.1</ele>
        <time>2026-07-08T11:58:22.000Z</time>
      </trkpt>
      <trkpt lat="45.78959" lon="1.88292">
        <ele>712.1</ele>
        <time>2026-07-08T11:58:23.000Z</time>
      </trkpt>
      <trkpt lat="45.78959" lon="1.88292">
        <ele>712.1</ele>
        <time>2026-07-08T11:58:24.000Z</time>
      </trkpt>
      <trkpt lat="45.78959" lon="1.88292">
        <ele>712.1</ele>
        <time>2026-07-08T11:58:25.000Z</time>
      </trkpt>
      <trkpt lat="45.78959" lon="1.88292">
        <ele>712.1</ele>
        <time>2026-07-08T11:58:26.000Z</time>
      </trkpt>
      <trkpt lat="45.78959" lon="1.88292">
        <ele>712.1</ele>
        <time>2026-07-08T11:58:27.000Z</time>
      </trkpt>
      <trkpt lat="45.78959" lon="1.88292">
        <ele>712.1</ele>
        <time>2026-07-08T11:58:28.000Z</time>
      </trkpt>
      <trkpt lat="45.78959" lon="1.88292">
        <ele>712.1</ele>
        <time>2026-07-08T11:58:29.000Z</time>
      </trkpt>
      <trkpt lat="45.78959" lon="1.88292">
        <ele>712.1</ele>
        <time>2026-07-08T11:58:30.000Z</time>
      </trkpt>
      <trkpt lat="45.78959" lon="1.88292">
        <ele>712.1</ele>
        <time>2026-07-08T11:58:31.000Z</time>
      </trkpt>
      <trkpt lat="45.78959" lon="1.88292">
        <ele>712.1</ele>
        <time>2026-07-08T11:58:32.000Z</time>
      </trkpt>
      <trkpt lat="45.78959" lon="1.88292">
        <ele>712.1</ele>
        <time>2026-07-08T11:58:33.000Z</time>
      </trkpt>
      <trkpt lat="45.78959" lon="1.88292">
        <ele>712.1</ele>
        <time>2026-07-08T11:58:34.000Z</time>
      </trkpt>
      <trkpt lat="45.78959" lon="1.88292">
        <ele>712.1</ele>
        <time>2026-07-08T11:58:35.000Z</time>
      </trkpt>
      <trkpt lat="45.78959" lon="1.88292">
        <ele>712.1</ele>
        <time>2026-07-08T11:58:36.000Z</time>
      </trkpt>
      <trkpt lat="45.78959" lon="1.88292">
        <ele>712.1</ele>
        <time>2026-07-08T11:58:37.000Z</time>
      </trkpt>
      <trkpt lat="45.78959" lon="1.88292">
        <ele>712.1</ele>
        <time>2026-07-08T11:58:38.000Z</time>
      </trkpt>
      <trkpt lat="45.78959" lon="1.88292">
        <ele>712.1</ele>
        <time>2026-07-08T11:58:39.000Z</time>
      </trkpt>
      <trkpt lat="45.78959" lon="1.88292">
        <ele>712.1</ele>
        <time>2026-07-08T11:58:40.000Z</time>
      </trkpt>
      <trkpt lat="45.78959" lon="1.88292">
        <ele>712.1</ele>
        <time>2026-07-08T11:58:41.000Z</time>
      </trkpt>
      <trkpt lat="45.78959" lon="1.88292">
        <ele>712.1</ele>
        <time>2026-07-08T11:58:42.000Z</time>
      </trkpt>
      <trkpt lat="45.78959" lon="1.88292">
        <ele>712.1</ele>
        <time>2026-07-08T11:58:43.000Z</time>
      </trkpt>
      <trkpt lat="45.78959" lon="1.88292">
        <ele>712.1</ele>
        <time>2026-07-08T11:58:44.000Z</time>
      </trkpt>
      <trkpt lat="45.78959" lon="1.88292">
        <ele>712.1</ele>
        <time>2026-07-08T11:58:45.000Z</time>
      </trkpt>
      <trkpt lat="45.78959" lon="1.88292">
        <ele>712.1</ele>
        <time>2026-07-08T11:58:46.000Z</time>
      </trkpt>
      <trkpt lat="45.78959" lon="1.88292">
        <ele>712.1</ele>
        <time>2026-07-08T11:58:47.000Z</time>
      </trkpt>
      <trkpt lat="45.78959" lon="1.88292">
        <ele>712.1</ele>
        <time>2026-07-08T11:58:48.000Z</time>
      </trkpt>
      <trkpt lat="45.78959" lon="1.88292">
        <ele>712.1</ele>
        <time>2026-07-08T11:58:49.000Z</time>
      </trkpt>
      <trkpt lat="45.78959" lon="1.88292">
        <ele>712.1</ele>
        <time>2026-07-08T11:58:50.000Z</time>
      </trkpt>
      <trkpt lat="45.78959" lon="1.88292">
        <ele>712.1</ele>
        <time>2026-07-08T11:58:51.000Z</time>
      </trkpt>
      <trkpt lat="45.78959" lon="1.88292">
        <ele>712</ele>
        <time>2026-07-08T11:58:52.000Z</time>
      </trkpt>
      <trkpt lat="45.78959" lon="1.88292">
        <ele>712</ele>
        <time>2026-07-08T11:58:53.000Z</time>
      </trkpt>
      <trkpt lat="45.78959" lon="1.88292">
        <ele>712</ele>
        <time>2026-07-08T11:58:54.000Z</time>
      </trkpt>
      <trkpt lat="45.78959" lon="1.88292">
        <ele>712</ele>
        <time>2026-07-08T11:58:55.000Z</time>
      </trkpt>
      <trkpt lat="45.78959" lon="1.88292">
        <ele>712</ele>
        <time>2026-07-08T11:58:56.000Z</time>
      </trkpt>
      <trkpt lat="45.78959" lon="1.88292">
        <ele>712</ele>
        <time>2026-07-08T11:58:57.000Z</time>
      </trkpt>
      <trkpt lat="45.78959" lon="1.88292">
        <ele>712</ele>
        <time>2026-07-08T11:58:58.000Z</time>
      </trkpt>
      <trkpt lat="45.78959" lon="1.88292">
        <ele>712</ele>
        <time>2026-07-08T11:58:59.000Z</time>
      </trkpt>
      <trkpt lat="45.78959" lon="1.88292">
        <ele>712</ele>
        <time>2026-07-08T11:59:00.000Z</time>
      </trkpt>
      <trkpt lat="45.78959" lon="1.88292">
        <ele>712</ele>
        <time>2026-07-08T11:59:01.000Z</time>
      </trkpt>
      <trkpt lat="45.78959" lon="1.88292">
        <ele>712</ele>
        <time>2026-07-08T11:59:02.000Z</time>
      </trkpt>
      <trkpt lat="45.78959" lon="1.88292">
        <ele>712</ele>
        <time>2026-07-08T11:59:03.000Z</time>
      </trkpt>
      <trkpt lat="45.78959" lon="1.88292">
        <ele>712</ele>
        <time>2026-07-08T11:59:04.000Z</time>
      </trkpt>
      <trkpt lat="45.78959" lon="1.88292">
        <ele>712</ele>
        <time>2026-07-08T11:59:05.000Z</time>
      </trkpt>
      <trkpt lat="45.78959" lon="1.88292">
        <ele>712</ele>
        <time>2026-07-08T11:59:06.000Z</time>
      </trkpt>
      <trkpt lat="45.78959" lon="1.88292">
        <ele>712</ele>
        <time>2026-07-08T11:59:07.000Z</time>
      </trkpt>
      <trkpt lat="45.78959" lon="1.88292">
        <ele>712</ele>
        <time>2026-07-08T11:59:08.000Z</time>
      </trkpt>
      <trkpt lat="45.78959" lon="1.88292">
        <ele>712</ele>
        <time>2026-07-08T11:59:09.000Z</time>
      </trkpt>
      <trkpt lat="45.78959" lon="1.88292">
        <ele>712</ele>
        <time>2026-07-08T11:59:10.000Z</time>
      </trkpt>
      <trkpt lat="45.78959" lon="1.88292">
        <ele>712</ele>
        <time>2026-07-08T11:59:11.000Z</time>
      </trkpt>
      <trkpt lat="45.78959" lon="1.88292">
        <ele>712.1</ele>
        <time>2026-07-08T11:59:12.000Z</time>
      </trkpt>
      <trkpt lat="45.78959" lon="1.88292">
        <ele>712</ele>
        <time>2026-07-08T11:59:13.000Z</time>
      </trkpt>
      <trkpt lat="45.78959" lon="1.88292">
        <ele>712</ele>
        <time>2026-07-08T11:59:14.000Z</time>
      </trkpt>
      <trkpt lat="45.78959" lon="1.88292">
        <ele>712</ele>
        <time>2026-07-08T11:59:15.000Z</time>
      </trkpt>
      <trkpt lat="45.78959" lon="1.88292">
        <ele>712.1</ele>
        <time>2026-07-08T11:59:16.000Z</time>
      </trkpt>
      <trkpt lat="45.78959" lon="1.88292">
        <ele>712.1</ele>
        <time>2026-07-08T11:59:17.000Z</time>
      </trkpt>
      <trkpt lat="45.78959" lon="1.88292">
        <ele>712.1</ele>
        <time>2026-07-08T11:59:18.000Z</time>
      </trkpt>
      <trkpt lat="45.78959" lon="1.88292">
        <ele>712.1</ele>
        <time>2026-07-08T11:59:19.000Z</time>
      </trkpt>
      <trkpt lat="45.78959" lon="1.88292">
        <ele>712.1</ele>
        <time>2026-07-08T11:59:20.000Z</time>
      </trkpt>
      <trkpt lat="45.78959" lon="1.88292">
        <ele>712.1</ele>
        <time>2026-07-08T11:59:21.000Z</time>
      </trkpt>
      <trkpt lat="45.78959" lon="1.88292">
        <ele>712.1</ele>
        <time>2026-07-08T11:59:22.000Z</time>
      </trkpt>
      <trkpt lat="45.78959" lon="1.88292">
        <ele>712.1</ele>
        <time>2026-07-08T11:59:23.000Z</time>
      </trkpt>
      <trkpt lat="45.78959" lon="1.88292">
        <ele>712.1</ele>
        <time>2026-07-08T11:59:24.000Z</time>
      </trkpt>
      <trkpt lat="45.78959" lon="1.88292">
        <ele>712.1</ele>
        <time>2026-07-08T11:59:25.000Z</time>
      </trkpt>
      <trkpt lat="45.78959" lon="1.88292">
        <ele>712.1</ele>
        <time>2026-07-08T11:59:26.000Z</time>
      </trkpt>
      <trkpt lat="45.78959" lon="1.88292">
        <ele>712.1</ele>
        <time>2026-07-08T11:59:27.000Z</time>
      </trkpt>
      <trkpt lat="45.78959" lon="1.88292">
        <ele>712.1</ele>
        <time>2026-07-08T11:59:28.000Z</time>
      </trkpt>
      <trkpt lat="45.78959" lon="1.88292">
        <ele>712.1</ele>
        <time>2026-07-08T11:59:29.000Z</time>
      </trkpt>
      <trkpt lat="45.78959" lon="1.88292">
        <ele>712.1</ele>
        <time>2026-07-08T11:59:30.000Z</time>
      </trkpt>
      <trkpt lat="45.78959" lon="1.88292">
        <ele>712.1</ele>
        <time>2026-07-08T11:59:31.000Z</time>
      </trkpt>
      <trkpt lat="45.78959" lon="1.88292">
        <ele>712.1</ele>
        <time>2026-07-08T11:59:32.000Z</time>
      </trkpt>
      <trkpt lat="45.78959" lon="1.88292">
        <ele>712.1</ele>
        <time>2026-07-08T11:59:33.000Z</time>
      </trkpt>
      <trkpt lat="45.78959" lon="1.88292">
        <ele>712.1</ele>
        <time>2026-07-08T11:59:34.000Z</time>
      </trkpt>
      <trkpt lat="45.78959" lon="1.88292">
        <ele>712.1</ele>
        <time>2026-07-08T11:59:35.000Z</time>
      </trkpt>
      <trkpt lat="45.78959" lon="1.88292">
        <ele>712.1</ele>
        <time>2026-07-08T11:59:36.000Z</time>
      </trkpt>
      <trkpt lat="45.78959" lon="1.88292">
        <ele>712</ele>
        <time>2026-07-08T11:59:37.000Z</time>
      </trkpt>
      <trkpt lat="45.78959" lon="1.88292">
        <ele>712.1</ele>
        <time>2026-07-08T11:59:38.000Z</time>
      </trkpt>
      <trkpt lat="45.78959" lon="1.88292">
        <ele>712.1</ele>
        <time>2026-07-08T11:59:39.000Z</time>
      </trkpt>
      <trkpt lat="45.78959" lon="1.88292">
        <ele>712</ele>
        <time>2026-07-08T11:59:40.000Z</time>
      </trkpt>
      <trkpt lat="45.78959" lon="1.88292">
        <ele>712.1</ele>
        <time>2026-07-08T11:59:41.000Z</time>
      </trkpt>
      <trkpt lat="45.78959" lon="1.88292">
        <ele>712</ele>
        <time>2026-07-08T11:59:42.000Z</time>
      </trkpt>
      <trkpt lat="45.78959" lon="1.88292">
        <ele>712</ele>
        <time>2026-07-08T11:59:43.000Z</time>
      </trkpt>
      <trkpt lat="45.78959" lon="1.88292">
        <ele>712</ele>
        <time>2026-07-08T11:59:44.000Z</time>
      </trkpt>
      <trkpt lat="45.78959" lon="1.88292">
        <ele>712</ele>
        <time>2026-07-08T11:59:45.000Z</time>
      </trkpt>
      <trkpt lat="45.78959" lon="1.88292">
        <ele>712</ele>
        <time>2026-07-08T11:59:46.000Z</time>
      </trkpt>
      <trkpt lat="45.78959" lon="1.88292">
        <ele>712</ele>
        <time>2026-07-08T11:59:47.000Z</time>
      </trkpt>
      <trkpt lat="45.78959" lon="1.88292">
        <ele>712</ele>
        <time>2026-07-08T11:59:48.000Z</time>
      </trkpt>
      <trkpt lat="45.78959" lon="1.88292">
        <ele>712</ele>
        <time>2026-07-08T11:59:49.000Z</time>
      </trkpt>
      <trkpt lat="45.78959" lon="1.88292">
        <ele>712</ele>
        <time>2026-07-08T11:59:50.000Z</time>
      </trkpt>
      <trkpt lat="45.78959" lon="1.88292">
        <ele>712.1</ele>
        <time>2026-07-08T11:59:51.000Z</time>
      </trkpt>
      <trkpt lat="45.78959" lon="1.88292">
        <ele>712.1</ele>
        <time>2026-07-08T11:59:52.000Z</time>
      </trkpt>
      <trkpt lat="45.78959" lon="1.88292">
        <ele>712.1</ele>
        <time>2026-07-08T11:59:53.000Z</time>
      </trkpt>
      <trkpt lat="45.78959" lon="1.88292">
        <ele>712.1</ele>
        <time>2026-07-08T11:59:54.000Z</time>
      </trkpt>
      <trkpt lat="45.78959" lon="1.88292">
        <ele>712.1</ele>
        <time>2026-07-08T11:59:55.000Z</time>
      </trkpt>
      <trkpt lat="45.78959" lon="1.88292">
        <ele>712.1</ele>
        <time>2026-07-08T11:59:56.000Z</time>
      </trkpt>
      <trkpt lat="45.78959" lon="1.88292">
        <ele>712.1</ele>
        <time>2026-07-08T11:59:57.000Z</time>
      </trkpt>
      <trkpt lat="45.78959" lon="1.88292">
        <ele>712.1</ele>
        <time>2026-07-08T11:59:58.000Z</time>
      </trkpt>
      <trkpt lat="45.78959" lon="1.88292">
        <ele>712.1</ele>
        <time>2026-07-08T11:59:59.000Z</time>
      </trkpt>
      <trkpt lat="45.78959" lon="1.88292">
        <ele>712.1</ele>
        <time>2026-07-08T12:00:00.000Z</time>
      </trkpt>
      <trkpt lat="45.78959" lon="1.88292">
        <ele>712.1</ele>
        <time>2026-07-08T12:00:01.000Z</time>
      </trkpt>
      <trkpt lat="45.78959" lon="1.88292">
        <ele>712.1</ele>
        <time>2026-07-08T12:00:02.000Z</time>
      </trkpt>
      <trkpt lat="45.78959" lon="1.88292">
        <ele>712.1</ele>
        <time>2026-07-08T12:00:03.000Z</time>
      </trkpt>
      <trkpt lat="45.78959" lon="1.88292">
        <ele>712.1</ele>
        <time>2026-07-08T12:00:04.000Z</time>
      </trkpt>
      <trkpt lat="45.78959" lon="1.88292">
        <ele>712.1</ele>
        <time>2026-07-08T12:00:05.000Z</time>
      </trkpt>
      <trkpt lat="45.78959" lon="1.88292">
        <ele>712.1</ele>
        <time>2026-07-08T12:00:06.000Z</time>
      </trkpt>
      <trkpt lat="45.78959" lon="1.88292">
        <ele>712.1</ele>
        <time>2026-07-08T12:00:07.000Z</time>
      </trkpt>
      <trkpt lat="45.78959" lon="1.88292">
        <ele>712.1</ele>
        <time>2026-07-08T12:00:08.000Z</time>
      </trkpt>
      <trkpt lat="45.78959" lon="1.88292">
        <ele>712.1</ele>
        <time>2026-07-08T12:00:09.000Z</time>
      </trkpt>
      <trkpt lat="45.78959" lon="1.88292">
        <ele>712.1</ele>
        <time>2026-07-08T12:00:10.000Z</time>
      </trkpt>
      <trkpt lat="45.78959" lon="1.88292">
        <ele>712.1</ele>
        <time>2026-07-08T12:00:11.000Z</time>
      </trkpt>
      <trkpt lat="45.78959" lon="1.88292">
        <ele>712.1</ele>
        <time>2026-07-08T12:00:12.000Z</time>
      </trkpt>
      <trkpt lat="45.78959" lon="1.88292">
        <ele>712.1</ele>
        <time>2026-07-08T12:00:13.000Z</time>
      </trkpt>
      <trkpt lat="45.78959" lon="1.88292">
        <ele>712.1</ele>
        <time>2026-07-08T12:00:14.000Z</time>
      </trkpt>
      <trkpt lat="45.78959" lon="1.88292">
        <ele>712.1</ele>
        <time>2026-07-08T12:00:15.000Z</time>
      </trkpt>
      <trkpt lat="45.78959" lon="1.88292">
        <ele>712.1</ele>
        <time>2026-07-08T12:00:16.000Z</time>
      </trkpt>
      <trkpt lat="45.78959" lon="1.88292">
        <ele>712.1</ele>
        <time>2026-07-08T12:00:17.000Z</time>
      </trkpt>
      <trkpt lat="45.78959" lon="1.88292">
        <ele>712.1</ele>
        <time>2026-07-08T12:00:18.000Z</time>
      </trkpt>
      <trkpt lat="45.78959" lon="1.88292">
        <ele>712.1</ele>
        <time>2026-07-08T12:00:19.000Z</time>
      </trkpt>
      <trkpt lat="45.78959" lon="1.88291">
        <ele>712</ele>
        <time>2026-07-08T12:00:20.000Z</time>
      </trkpt>
      <trkpt lat="45.78959" lon="1.88291">
        <ele>712.1</ele>
        <time>2026-07-08T12:00:21.000Z</time>
      </trkpt>
      <trkpt lat="45.78959" lon="1.88291">
        <ele>712.1</ele>
        <time>2026-07-08T12:00:22.000Z</time>
      </trkpt>
      <trkpt lat="45.78959" lon="1.88291">
        <ele>712</ele>
        <time>2026-07-08T12:00:23.000Z</time>
      </trkpt>
      <trkpt lat="45.78959" lon="1.88291">
        <ele>712.3</ele>
        <time>2026-07-08T12:00:24.000Z</time>
      </trkpt>
      <trkpt lat="45.78959" lon="1.88291">
        <ele>712.4</ele>
        <time>2026-07-08T12:00:25.000Z</time>
      </trkpt>
      <trkpt lat="45.78959" lon="1.88291">
        <ele>712.4</ele>
        <time>2026-07-08T12:00:26.000Z</time>
      </trkpt>
      <trkpt lat="45.78959" lon="1.88291">
        <ele>712.7</ele>
        <time>2026-07-08T12:00:27.000Z</time>
      </trkpt>
      <trkpt lat="45.78958" lon="1.88291">
        <ele>712.5</ele>
        <time>2026-07-08T12:00:28.000Z</time>
      </trkpt>
      <trkpt lat="45.78958" lon="1.88291">
        <ele>712.9</ele>
        <time>2026-07-08T12:00:29.000Z</time>
      </trkpt>
      <trkpt lat="45.78958" lon="1.88291">
        <ele>713</ele>
        <time>2026-07-08T12:00:30.000Z</time>
      </trkpt>
      <trkpt lat="45.78958" lon="1.88291">
        <ele>713</ele>
        <time>2026-07-08T12:00:31.000Z</time>
      </trkpt>
      <trkpt lat="45.78958" lon="1.88291">
        <ele>712.9</ele>
        <time>2026-07-08T12:00:32.000Z</time>
      </trkpt>
      <trkpt lat="45.78958" lon="1.88291">
        <ele>712.5</ele>
        <time>2026-07-08T12:00:33.000Z</time>
      </trkpt>
      <trkpt lat="45.78958" lon="1.88291">
        <ele>712.3</ele>
        <time>2026-07-08T12:00:34.000Z</time>
      </trkpt>
      <trkpt lat="45.78958" lon="1.88291">
        <ele>712.3</ele>
        <time>2026-07-08T12:00:35.000Z</time>
      </trkpt>
      <trkpt lat="45.78958" lon="1.88291">
        <ele>712.2</ele>
        <time>2026-07-08T12:00:36.000Z</time>
      </trkpt>
      <trkpt lat="45.78958" lon="1.88291">
        <ele>712.2</ele>
        <time>2026-07-08T12:00:37.000Z</time>
      </trkpt>
      <trkpt lat="45.78958" lon="1.88291">
        <ele>712.3</ele>
        <time>2026-07-08T12:00:38.000Z</time>
      </trkpt>
      <trkpt lat="45.78958" lon="1.88291">
        <ele>712.3</ele>
        <time>2026-07-08T12:00:39.000Z</time>
      </trkpt>
      <trkpt lat="45.78958" lon="1.88291">
        <ele>712.3</ele>
        <time>2026-07-08T12:00:40.000Z</time>
      </trkpt>
      <trkpt lat="45.78958" lon="1.88291">
        <ele>712.3</ele>
        <time>2026-07-08T12:00:41.000Z</time>
      </trkpt>
      <trkpt lat="45.78958" lon="1.88291">
        <ele>712.3</ele>
        <time>2026-07-08T12:00:42.000Z</time>
      </trkpt>
      <trkpt lat="45.78958" lon="1.88291">
        <ele>712.3</ele>
        <time>2026-07-08T12:00:43.000Z</time>
      </trkpt>
      <trkpt lat="45.78958" lon="1.88291">
        <ele>712.3</ele>
        <time>2026-07-08T12:00:44.000Z</time>
      </trkpt>
      <trkpt lat="45.78958" lon="1.88291">
        <ele>712.3</ele>
        <time>2026-07-08T12:00:45.000Z</time>
      </trkpt>
      <trkpt lat="45.78958" lon="1.88291">
        <ele>712.3</ele>
        <time>2026-07-08T12:00:46.000Z</time>
      </trkpt>
      <trkpt lat="45.78958" lon="1.88291">
        <ele>712.3</ele>
        <time>2026-07-08T12:00:47.000Z</time>
      </trkpt>
      <trkpt lat="45.78958" lon="1.88291">
        <ele>712.3</ele>
        <time>2026-07-08T12:00:48.000Z</time>
      </trkpt>
      <trkpt lat="45.78958" lon="1.88291">
        <ele>712.3</ele>
        <time>2026-07-08T12:00:49.000Z</time>
      </trkpt>
      <trkpt lat="45.78958" lon="1.88291">
        <ele>712.3</ele>
        <time>2026-07-08T12:00:50.000Z</time>
      </trkpt>
      <trkpt lat="45.78958" lon="1.88291">
        <ele>712.3</ele>
        <time>2026-07-08T12:00:51.000Z</time>
      </trkpt>
      <trkpt lat="45.78958" lon="1.88291">
        <ele>712.3</ele>
        <time>2026-07-08T12:00:52.000Z</time>
      </trkpt>
      <trkpt lat="45.78958" lon="1.88291">
        <ele>712.3</ele>
        <time>2026-07-08T12:00:53.000Z</time>
      </trkpt>
      <trkpt lat="45.78958" lon="1.88291">
        <ele>712.3</ele>
        <time>2026-07-08T12:00:54.000Z</time>
      </trkpt>
      <trkpt lat="45.78958" lon="1.88291">
        <ele>712.3</ele>
        <time>2026-07-08T12:00:55.000Z</time>
      </trkpt>
      <trkpt lat="45.78958" lon="1.88291">
        <ele>712.3</ele>
        <time>2026-07-08T12:00:56.000Z</time>
      </trkpt>
      <trkpt lat="45.78958" lon="1.88291">
        <ele>712.3</ele>
        <time>2026-07-08T12:00:57.000Z</time>
      </trkpt>
      <trkpt lat="45.78958" lon="1.88291">
        <ele>712.2</ele>
        <time>2026-07-08T12:00:58.000Z</time>
      </trkpt>
      <trkpt lat="45.78958" lon="1.88291">
        <ele>712.2</ele>
        <time>2026-07-08T12:00:59.000Z</time>
      </trkpt>
      <trkpt lat="45.78958" lon="1.88291">
        <ele>712.2</ele>
        <time>2026-07-08T12:01:00.000Z</time>
      </trkpt>
      <trkpt lat="45.78958" lon="1.88291">
        <ele>712.3</ele>
        <time>2026-07-08T12:01:01.000Z</time>
      </trkpt>
      <trkpt lat="45.78958" lon="1.88291">
        <ele>712.2</ele>
        <time>2026-07-08T12:01:02.000Z</time>
      </trkpt>
      <trkpt lat="45.78958" lon="1.88291">
        <ele>712.2</ele>
        <time>2026-07-08T12:01:03.000Z</time>
      </trkpt>
      <trkpt lat="45.78958" lon="1.88291">
        <ele>712.2</ele>
        <time>2026-07-08T12:01:04.000Z</time>
      </trkpt>
      <trkpt lat="45.78958" lon="1.88291">
        <ele>712.2</ele>
        <time>2026-07-08T12:01:05.000Z</time>
      </trkpt>
      <trkpt lat="45.78958" lon="1.88291">
        <ele>712.2</ele>
        <time>2026-07-08T12:01:06.000Z</time>
      </trkpt>
      <trkpt lat="45.78958" lon="1.88291">
        <ele>712.2</ele>
        <time>2026-07-08T12:01:07.000Z</time>
      </trkpt>
      <trkpt lat="45.78958" lon="1.88291">
        <ele>712.2</ele>
        <time>2026-07-08T12:01:08.000Z</time>
      </trkpt>
      <trkpt lat="45.78958" lon="1.88291">
        <ele>712.2</ele>
        <time>2026-07-08T12:01:09.000Z</time>
      </trkpt>
      <trkpt lat="45.78958" lon="1.88291">
        <ele>712.2</ele>
        <time>2026-07-08T12:01:10.000Z</time>
      </trkpt>
      <trkpt lat="45.78958" lon="1.88291">
        <ele>712.2</ele>
        <time>2026-07-08T12:01:11.000Z</time>
      </trkpt>
      <trkpt lat="45.78958" lon="1.88291">
        <ele>712.2</ele>
        <time>2026-07-08T12:01:12.000Z</time>
      </trkpt>
      <trkpt lat="45.78958" lon="1.88291">
        <ele>712.2</ele>
        <time>2026-07-08T12:01:13.000Z</time>
      </trkpt>
      <trkpt lat="45.78958" lon="1.88291">
        <ele>712.2</ele>
        <time>2026-07-08T12:01:14.000Z</time>
      </trkpt>
      <trkpt lat="45.78958" lon="1.88291">
        <ele>712.2</ele>
        <time>2026-07-08T12:01:15.000Z</time>
      </trkpt>
      <trkpt lat="45.78958" lon="1.88291">
        <ele>712.2</ele>
        <time>2026-07-08T12:01:16.000Z</time>
      </trkpt>
      <trkpt lat="45.78958" lon="1.88291">
        <ele>712.2</ele>
        <time>2026-07-08T12:01:17.000Z</time>
      </trkpt>
      <trkpt lat="45.78958" lon="1.88291">
        <ele>712.2</ele>
        <time>2026-07-08T12:01:18.000Z</time>
      </trkpt>
      <trkpt lat="45.78958" lon="1.88291">
        <ele>712.2</ele>
        <time>2026-07-08T12:01:19.000Z</time>
      </trkpt>
      <trkpt lat="45.78958" lon="1.88291">
        <ele>712.2</ele>
        <time>2026-07-08T12:01:20.000Z</time>
      </trkpt>
      <trkpt lat="45.78958" lon="1.88291">
        <ele>712.2</ele>
        <time>2026-07-08T12:01:21.000Z</time>
      </trkpt>
      <trkpt lat="45.78958" lon="1.88291">
        <ele>712.2</ele>
        <time>2026-07-08T12:01:22.000Z</time>
      </trkpt>
      <trkpt lat="45.78958" lon="1.88291">
        <ele>712.2</ele>
        <time>2026-07-08T12:01:23.000Z</time>
      </trkpt>
      <trkpt lat="45.78958" lon="1.88291">
        <ele>712.3</ele>
        <time>2026-07-08T12:01:24.000Z</time>
      </trkpt>
      <trkpt lat="45.78958" lon="1.88291">
        <ele>712.3</ele>
        <time>2026-07-08T12:01:25.000Z</time>
      </trkpt>
      <trkpt lat="45.78958" lon="1.88291">
        <ele>712.3</ele>
        <time>2026-07-08T12:01:26.000Z</time>
      </trkpt>
      <trkpt lat="45.78958" lon="1.88291">
        <ele>712.3</ele>
        <time>2026-07-08T12:01:27.000Z</time>
      </trkpt>
      <trkpt lat="45.78958" lon="1.88291">
        <ele>712.3</ele>
        <time>2026-07-08T12:01:28.000Z</time>
      </trkpt>
      <trkpt lat="45.78958" lon="1.88291">
        <ele>712.3</ele>
        <time>2026-07-08T12:01:29.000Z</time>
      </trkpt>
      <trkpt lat="45.78958" lon="1.88291">
        <ele>712.3</ele>
        <time>2026-07-08T12:01:30.000Z</time>
      </trkpt>
      <trkpt lat="45.78958" lon="1.88291">
        <ele>712.3</ele>
        <time>2026-07-08T12:01:31.000Z</time>
      </trkpt>
      <trkpt lat="45.78958" lon="1.88291">
        <ele>712.3</ele>
        <time>2026-07-08T12:01:32.000Z</time>
      </trkpt>
      <trkpt lat="45.78958" lon="1.88291">
        <ele>712.3</ele>
        <time>2026-07-08T12:01:33.000Z</time>
      </trkpt>
      <trkpt lat="45.78958" lon="1.88291">
        <ele>712.3</ele>
        <time>2026-07-08T12:01:34.000Z</time>
      </trkpt>
      <trkpt lat="45.78958" lon="1.88291">
        <ele>712.3</ele>
        <time>2026-07-08T12:01:35.000Z</time>
      </trkpt>
      <trkpt lat="45.78958" lon="1.88291">
        <ele>712.3</ele>
        <time>2026-07-08T12:01:36.000Z</time>
      </trkpt>
      <trkpt lat="45.78958" lon="1.88291">
        <ele>712.3</ele>
        <time>2026-07-08T12:01:37.000Z</time>
      </trkpt>
      <trkpt lat="45.78958" lon="1.88291">
        <ele>712.3</ele>
        <time>2026-07-08T12:01:38.000Z</time>
      </trkpt>
      <trkpt lat="45.78958" lon="1.88291">
        <ele>712.3</ele>
        <time>2026-07-08T12:01:39.000Z</time>
      </trkpt>
      <trkpt lat="45.78958" lon="1.88291">
        <ele>712.3</ele>
        <time>2026-07-08T12:01:40.000Z</time>
      </trkpt>
      <trkpt lat="45.78958" lon="1.8829">
        <ele>712.4</ele>
        <time>2026-07-08T12:01:41.000Z</time>
      </trkpt>
      <trkpt lat="45.78958" lon="1.8829">
        <ele>712.2</ele>
        <time>2026-07-08T12:01:42.000Z</time>
      </trkpt>
      <trkpt lat="45.78957" lon="1.8829">
        <ele>711.5</ele>
        <time>2026-07-08T12:01:43.000Z</time>
      </trkpt>
      <trkpt lat="45.78957" lon="1.8829">
        <ele>710.8</ele>
        <time>2026-07-08T12:01:44.000Z</time>
      </trkpt>
      <trkpt lat="45.78957" lon="1.8829">
        <ele>710.8</ele>
        <time>2026-07-08T12:01:45.000Z</time>
      </trkpt>
      <trkpt lat="45.78957" lon="1.88291">
        <ele>710.4</ele>
        <time>2026-07-08T12:01:46.000Z</time>
      </trkpt>
      <trkpt lat="45.78957" lon="1.88291">
        <ele>710.2</ele>
        <time>2026-07-08T12:01:47.000Z</time>
      </trkpt>
      <trkpt lat="45.78957" lon="1.88291">
        <ele>710</ele>
        <time>2026-07-08T12:01:48.000Z</time>
      </trkpt>
      <trkpt lat="45.78957" lon="1.88291">
        <ele>710.1</ele>
        <time>2026-07-08T12:01:49.000Z</time>
      </trkpt>
      <trkpt lat="45.78957" lon="1.88291">
        <ele>710</ele>
        <time>2026-07-08T12:01:50.000Z</time>
      </trkpt>
      <trkpt lat="45.78958" lon="1.88292">
        <ele>710.3</ele>
        <time>2026-07-08T12:01:51.000Z</time>
      </trkpt>
      <trkpt lat="45.78958" lon="1.88292">
        <ele>710.4</ele>
        <time>2026-07-08T12:01:52.000Z</time>
      </trkpt>
      <trkpt lat="45.78958" lon="1.88292">
        <ele>710.4</ele>
        <time>2026-07-08T12:01:53.000Z</time>
      </trkpt>
      <trkpt lat="45.78958" lon="1.88292">
        <ele>710.4</ele>
        <time>2026-07-08T12:01:54.000Z</time>
      </trkpt>
      <trkpt lat="45.78958" lon="1.88292">
        <ele>710.4</ele>
        <time>2026-07-08T12:01:55.000Z</time>
      </trkpt>
      <trkpt lat="45.78958" lon="1.88292">
        <ele>710.4</ele>
        <time>2026-07-08T12:01:56.000Z</time>
      </trkpt>
      <trkpt lat="45.78958" lon="1.88292">
        <ele>710.4</ele>
        <time>2026-07-08T12:01:57.000Z</time>
      </trkpt>
      <trkpt lat="45.78958" lon="1.88292">
        <ele>710.4</ele>
        <time>2026-07-08T12:01:58.000Z</time>
      </trkpt>
      <trkpt lat="45.78958" lon="1.88292">
        <ele>710.4</ele>
        <time>2026-07-08T12:01:59.000Z</time>
      </trkpt>
      <trkpt lat="45.78958" lon="1.88292">
        <ele>710.4</ele>
        <time>2026-07-08T12:02:00.000Z</time>
      </trkpt>
      <trkpt lat="45.78958" lon="1.88292">
        <ele>710.4</ele>
        <time>2026-07-08T12:02:01.000Z</time>
      </trkpt>
      <trkpt lat="45.78958" lon="1.88292">
        <ele>710.4</ele>
        <time>2026-07-08T12:02:02.000Z</time>
      </trkpt>
      <trkpt lat="45.78958" lon="1.88292">
        <ele>710.4</ele>
        <time>2026-07-08T12:02:03.000Z</time>
      </trkpt>
      <trkpt lat="45.78958" lon="1.88292">
        <ele>710.4</ele>
        <time>2026-07-08T12:02:04.000Z</time>
      </trkpt>
      <trkpt lat="45.78958" lon="1.88292">
        <ele>710.4</ele>
        <time>2026-07-08T12:02:05.000Z</time>
      </trkpt>
      <trkpt lat="45.78958" lon="1.88292">
        <ele>710.4</ele>
        <time>2026-07-08T12:02:06.000Z</time>
      </trkpt>
      <trkpt lat="45.78958" lon="1.88292">
        <ele>710.4</ele>
        <time>2026-07-08T12:02:07.000Z</time>
      </trkpt>
      <trkpt lat="45.78958" lon="1.88292">
        <ele>710.4</ele>
        <time>2026-07-08T12:02:08.000Z</time>
      </trkpt>
      <trkpt lat="45.78958" lon="1.88292">
        <ele>710.4</ele>
        <time>2026-07-08T12:02:09.000Z</time>
      </trkpt>
      <trkpt lat="45.78958" lon="1.88292">
        <ele>710.4</ele>
        <time>2026-07-08T12:02:10.000Z</time>
      </trkpt>
      <trkpt lat="45.78958" lon="1.88292">
        <ele>710.4</ele>
        <time>2026-07-08T12:02:11.000Z</time>
      </trkpt>
      <trkpt lat="45.78958" lon="1.88292">
        <ele>710.4</ele>
        <time>2026-07-08T12:02:12.000Z</time>
      </trkpt>
      <trkpt lat="45.78958" lon="1.88292">
        <ele>710.4</ele>
        <time>2026-07-08T12:02:13.000Z</time>
      </trkpt>
      <trkpt lat="45.78958" lon="1.88292">
        <ele>710.4</ele>
        <time>2026-07-08T12:02:14.000Z</time>
      </trkpt>
      <trkpt lat="45.78958" lon="1.88292">
        <ele>710.4</ele>
        <time>2026-07-08T12:02:15.000Z</time>
      </trkpt>
      <trkpt lat="45.78958" lon="1.88292">
        <ele>710.4</ele>
        <time>2026-07-08T12:02:16.000Z</time>
      </trkpt>
      <trkpt lat="45.78958" lon="1.88292">
        <ele>710.4</ele>
        <time>2026-07-08T12:02:17.000Z</time>
      </trkpt>
      <trkpt lat="45.78958" lon="1.88292">
        <ele>710.4</ele>
        <time>2026-07-08T12:02:18.000Z</time>
      </trkpt>
      <trkpt lat="45.78958" lon="1.88292">
        <ele>710.4</ele>
        <time>2026-07-08T12:02:19.000Z</time>
      </trkpt>
      <trkpt lat="45.78958" lon="1.88292">
        <ele>710.4</ele>
        <time>2026-07-08T12:02:20.000Z</time>
      </trkpt>
      <trkpt lat="45.78958" lon="1.88292">
        <ele>710.4</ele>
        <time>2026-07-08T12:02:21.000Z</time>
      </trkpt>
      <trkpt lat="45.78958" lon="1.88292">
        <ele>710.4</ele>
        <time>2026-07-08T12:02:22.000Z</time>
      </trkpt>
      <trkpt lat="45.78958" lon="1.88292">
        <ele>710.4</ele>
        <time>2026-07-08T12:02:23.000Z</time>
      </trkpt>
      <trkpt lat="45.78958" lon="1.88292">
        <ele>710.4</ele>
        <time>2026-07-08T12:02:24.000Z</time>
      </trkpt>
      <trkpt lat="45.78958" lon="1.88292">
        <ele>710.4</ele>
        <time>2026-07-08T12:02:25.000Z</time>
      </trkpt>
      <trkpt lat="45.78958" lon="1.88292">
        <ele>710.4</ele>
        <time>2026-07-08T12:02:26.000Z</time>
      </trkpt>
      <trkpt lat="45.78958" lon="1.88292">
        <ele>710.4</ele>
        <time>2026-07-08T12:02:27.000Z</time>
      </trkpt>
      <trkpt lat="45.78958" lon="1.88292">
        <ele>710.4</ele>
        <time>2026-07-08T12:02:28.000Z</time>
      </trkpt>
      <trkpt lat="45.78958" lon="1.88292">
        <ele>710.4</ele>
        <time>2026-07-08T12:02:29.000Z</time>
      </trkpt>
      <trkpt lat="45.78958" lon="1.88292">
        <ele>710.4</ele>
        <time>2026-07-08T12:02:30.000Z</time>
      </trkpt>
      <trkpt lat="45.78958" lon="1.88292">
        <ele>710.4</ele>
        <time>2026-07-08T12:02:31.000Z</time>
      </trkpt>
      <trkpt lat="45.78958" lon="1.88292">
        <ele>710.4</ele>
        <time>2026-07-08T12:02:32.000Z</time>
      </trkpt>
      <trkpt lat="45.78958" lon="1.88292">
        <ele>710.4</ele>
        <time>2026-07-08T12:02:33.000Z</time>
      </trkpt>
      <trkpt lat="45.78958" lon="1.88292">
        <ele>710.4</ele>
        <time>2026-07-08T12:02:34.000Z</time>
      </trkpt>
      <trkpt lat="45.78958" lon="1.88292">
        <ele>710.4</ele>
        <time>2026-07-08T12:02:35.000Z</time>
      </trkpt>
      <trkpt lat="45.78958" lon="1.88292">
        <ele>710.4</ele>
        <time>2026-07-08T12:02:36.000Z</time>
      </trkpt>
      <trkpt lat="45.78958" lon="1.88292">
        <ele>710.4</ele>
        <time>2026-07-08T12:02:37.000Z</time>
      </trkpt>
      <trkpt lat="45.78958" lon="1.88292">
        <ele>710.4</ele>
        <time>2026-07-08T12:02:38.000Z</time>
      </trkpt>
      <trkpt lat="45.78958" lon="1.88292">
        <ele>710.4</ele>
        <time>2026-07-08T12:02:39.000Z</time>
      </trkpt>
      <trkpt lat="45.78958" lon="1.88292">
        <ele>710.4</ele>
        <time>2026-07-08T12:02:40.000Z</time>
      </trkpt>
      <trkpt lat="45.78958" lon="1.88292">
        <ele>710.4</ele>
        <time>2026-07-08T12:02:41.000Z</time>
      </trkpt>
      <trkpt lat="45.78958" lon="1.88292">
        <ele>710.4</ele>
        <time>2026-07-08T12:02:42.000Z</time>
      </trkpt>
      <trkpt lat="45.78958" lon="1.88292">
        <ele>710.4</ele>
        <time>2026-07-08T12:02:43.000Z</time>
      </trkpt>
      <trkpt lat="45.78958" lon="1.88292">
        <ele>710.4</ele>
        <time>2026-07-08T12:02:44.000Z</time>
      </trkpt>
      <trkpt lat="45.78958" lon="1.88292">
        <ele>710.4</ele>
        <time>2026-07-08T12:02:45.000Z</time>
      </trkpt>
      <trkpt lat="45.78958" lon="1.88292">
        <ele>710.4</ele>
        <time>2026-07-08T12:02:46.000Z</time>
      </trkpt>
      <trkpt lat="45.78958" lon="1.88292">
        <ele>710.4</ele>
        <time>2026-07-08T12:02:47.000Z</time>
      </trkpt>
      <trkpt lat="45.78958" lon="1.88292">
        <ele>710.4</ele>
        <time>2026-07-08T12:02:48.000Z</time>
      </trkpt>
      <trkpt lat="45.78958" lon="1.88292">
        <ele>710.4</ele>
        <time>2026-07-08T12:02:49.000Z</time>
      </trkpt>
      <trkpt lat="45.78958" lon="1.88292">
        <ele>710.4</ele>
        <time>2026-07-08T12:02:50.000Z</time>
      </trkpt>
      <trkpt lat="45.78958" lon="1.88292">
        <ele>710.4</ele>
        <time>2026-07-08T12:02:51.000Z</time>
      </trkpt>
      <trkpt lat="45.78958" lon="1.88292">
        <ele>710.4</ele>
        <time>2026-07-08T12:02:52.000Z</time>
      </trkpt>
      <trkpt lat="45.78958" lon="1.88292">
        <ele>710.4</ele>
        <time>2026-07-08T12:02:53.000Z</time>
      </trkpt>
      <trkpt lat="45.78958" lon="1.88292">
        <ele>710.4</ele>
        <time>2026-07-08T12:02:54.000Z</time>
      </trkpt>
      <trkpt lat="45.78958" lon="1.88292">
        <ele>710.4</ele>
        <time>2026-07-08T12:02:55.000Z</time>
      </trkpt>
      <trkpt lat="45.78958" lon="1.88292">
        <ele>710.4</ele>
        <time>2026-07-08T12:02:56.000Z</time>
      </trkpt>
      <trkpt lat="45.78958" lon="1.88292">
        <ele>710.4</ele>
        <time>2026-07-08T12:02:57.000Z</time>
      </trkpt>
      <trkpt lat="45.78958" lon="1.88292">
        <ele>710.4</ele>
        <time>2026-07-08T12:02:58.000Z</time>
      </trkpt>
      <trkpt lat="45.78958" lon="1.88292">
        <ele>710.4</ele>
        <time>2026-07-08T12:02:59.000Z</time>
      </trkpt>
      <trkpt lat="45.78958" lon="1.88292">
        <ele>710.4</ele>
        <time>2026-07-08T12:03:00.000Z</time>
      </trkpt>
      <trkpt lat="45.78958" lon="1.88292">
        <ele>710.4</ele>
        <time>2026-07-08T12:03:01.000Z</time>
      </trkpt>
      <trkpt lat="45.78958" lon="1.88292">
        <ele>710.4</ele>
        <time>2026-07-08T12:03:02.000Z</time>
      </trkpt>
      <trkpt lat="45.78958" lon="1.88292">
        <ele>710.4</ele>
        <time>2026-07-08T12:03:03.000Z</time>
      </trkpt>
      <trkpt lat="45.78958" lon="1.88292">
        <ele>710.4</ele>
        <time>2026-07-08T12:03:04.000Z</time>
      </trkpt>
      <trkpt lat="45.78958" lon="1.88292">
        <ele>710.4</ele>
        <time>2026-07-08T12:03:05.000Z</time>
      </trkpt>
      <trkpt lat="45.78958" lon="1.88292">
        <ele>710.4</ele>
        <time>2026-07-08T12:03:06.000Z</time>
      </trkpt>
      <trkpt lat="45.78958" lon="1.88292">
        <ele>710.4</ele>
        <time>2026-07-08T12:03:07.000Z</time>
      </trkpt>
      <trkpt lat="45.78958" lon="1.88292">
        <ele>710.4</ele>
        <time>2026-07-08T12:03:08.000Z</time>
      </trkpt>
      <trkpt lat="45.78958" lon="1.88292">
        <ele>710.4</ele>
        <time>2026-07-08T12:03:09.000Z</time>
      </trkpt>
      <trkpt lat="45.78958" lon="1.88292">
        <ele>710.4</ele>
        <time>2026-07-08T12:03:10.000Z</time>
      </trkpt>
      <trkpt lat="45.78958" lon="1.88292">
        <ele>710.4</ele>
        <time>2026-07-08T12:03:11.000Z</time>
      </trkpt>
      <trkpt lat="45.78958" lon="1.88292">
        <ele>710.4</ele>
        <time>2026-07-08T12:03:12.000Z</time>
      </trkpt>
      <trkpt lat="45.78958" lon="1.88292">
        <ele>710.4</ele>
        <time>2026-07-08T12:03:13.000Z</time>
      </trkpt>
      <trkpt lat="45.78958" lon="1.88292">
        <ele>710.4</ele>
        <time>2026-07-08T12:03:14.000Z</time>
      </trkpt>
      <trkpt lat="45.78958" lon="1.88292">
        <ele>710.4</ele>
        <time>2026-07-08T12:03:15.000Z</time>
      </trkpt>
      <trkpt lat="45.78958" lon="1.88292">
        <ele>710.4</ele>
        <time>2026-07-08T12:03:16.000Z</time>
      </trkpt>
      <trkpt lat="45.78958" lon="1.88292">
        <ele>710.4</ele>
        <time>2026-07-08T12:03:17.000Z</time>
      </trkpt>
      <trkpt lat="45.78958" lon="1.88292">
        <ele>710.4</ele>
        <time>2026-07-08T12:03:18.000Z</time>
      </trkpt>
      <trkpt lat="45.78958" lon="1.88292">
        <ele>710.4</ele>
        <time>2026-07-08T12:03:19.000Z</time>
      </trkpt>
      <trkpt lat="45.78958" lon="1.88292">
        <ele>710.4</ele>
        <time>2026-07-08T12:03:20.000Z</time>
      </trkpt>
      <trkpt lat="45.78958" lon="1.88292">
        <ele>710.3</ele>
        <time>2026-07-08T12:03:21.000Z</time>
      </trkpt>
      <trkpt lat="45.78958" lon="1.88292">
        <ele>710.3</ele>
        <time>2026-07-08T12:03:22.000Z</time>
      </trkpt>
      <trkpt lat="45.78958" lon="1.88292">
        <ele>710.3</ele>
        <time>2026-07-08T12:03:23.000Z</time>
      </trkpt>
      <trkpt lat="45.78958" lon="1.88292">
        <ele>710.3</ele>
        <time>2026-07-08T12:03:24.000Z</time>
      </trkpt>
      <trkpt lat="45.78958" lon="1.88292">
        <ele>710.3</ele>
        <time>2026-07-08T12:03:25.000Z</time>
      </trkpt>
      <trkpt lat="45.78958" lon="1.88292">
        <ele>710.3</ele>
        <time>2026-07-08T12:03:26.000Z</time>
      </trkpt>
      <trkpt lat="45.78958" lon="1.88292">
        <ele>710.3</ele>
        <time>2026-07-08T12:03:27.000Z</time>
      </trkpt>
      <trkpt lat="45.78958" lon="1.88292">
        <ele>710.3</ele>
        <time>2026-07-08T12:03:28.000Z</time>
      </trkpt>
      <trkpt lat="45.78958" lon="1.88292">
        <ele>710.3</ele>
        <time>2026-07-08T12:03:29.000Z</time>
      </trkpt>
      <trkpt lat="45.78958" lon="1.88292">
        <ele>710.3</ele>
        <time>2026-07-08T12:03:30.000Z</time>
      </trkpt>
      <trkpt lat="45.78958" lon="1.88292">
        <ele>710.3</ele>
        <time>2026-07-08T12:03:31.000Z</time>
      </trkpt>
      <trkpt lat="45.78958" lon="1.88292">
        <ele>710.3</ele>
        <time>2026-07-08T12:03:32.000Z</time>
      </trkpt>
      <trkpt lat="45.78958" lon="1.88292">
        <ele>710.3</ele>
        <time>2026-07-08T12:03:33.000Z</time>
      </trkpt>
      <trkpt lat="45.78958" lon="1.88292">
        <ele>710.3</ele>
        <time>2026-07-08T12:03:34.000Z</time>
      </trkpt>
      <trkpt lat="45.78958" lon="1.88292">
        <ele>710.3</ele>
        <time>2026-07-08T12:03:35.000Z</time>
      </trkpt>
      <trkpt lat="45.78958" lon="1.88292">
        <ele>710.2</ele>
        <time>2026-07-08T12:03:36.000Z</time>
      </trkpt>
      <trkpt lat="45.78958" lon="1.88292">
        <ele>710.2</ele>
        <time>2026-07-08T12:03:37.000Z</time>
      </trkpt>
      <trkpt lat="45.78958" lon="1.88292">
        <ele>710.2</ele>
        <time>2026-07-08T12:03:38.000Z</time>
      </trkpt>
      <trkpt lat="45.78958" lon="1.88292">
        <ele>710.2</ele>
        <time>2026-07-08T12:03:39.000Z</time>
      </trkpt>
      <trkpt lat="45.78957" lon="1.88291">
        <ele>710.6</ele>
        <time>2026-07-08T12:03:40.000Z</time>
      </trkpt>
      <trkpt lat="45.78958" lon="1.88291">
        <ele>710.6</ele>
        <time>2026-07-08T12:03:41.000Z</time>
      </trkpt>
      <trkpt lat="45.78958" lon="1.88291">
        <ele>710.7</ele>
        <time>2026-07-08T12:03:42.000Z</time>
      </trkpt>
      <trkpt lat="45.78958" lon="1.88291">
        <ele>710.5</ele>
        <time>2026-07-08T12:03:43.000Z</time>
      </trkpt>
      <trkpt lat="45.78958" lon="1.88291">
        <ele>710.3</ele>
        <time>2026-07-08T12:03:44.000Z</time>
      </trkpt>
      <trkpt lat="45.78958" lon="1.88291">
        <ele>710.2</ele>
        <time>2026-07-08T12:03:45.000Z</time>
      </trkpt>
      <trkpt lat="45.78958" lon="1.88292">
        <ele>710</ele>
        <time>2026-07-08T12:03:46.000Z</time>
      </trkpt>
      <trkpt lat="45.78958" lon="1.88292">
        <ele>710.2</ele>
        <time>2026-07-08T12:03:47.000Z</time>
      </trkpt>
      <trkpt lat="45.78958" lon="1.88292">
        <ele>710.1</ele>
        <time>2026-07-08T12:03:48.000Z</time>
      </trkpt>
      <trkpt lat="45.78958" lon="1.88293">
        <ele>709.9</ele>
        <time>2026-07-08T12:03:49.000Z</time>
      </trkpt>
      <trkpt lat="45.78958" lon="1.88293">
        <ele>709.5</ele>
        <time>2026-07-08T12:03:50.000Z</time>
      </trkpt>
      <trkpt lat="45.78958" lon="1.88293">
        <ele>709.7</ele>
        <time>2026-07-08T12:03:51.000Z</time>
      </trkpt>
      <trkpt lat="45.78958" lon="1.88293">
        <ele>709.9</ele>
        <time>2026-07-08T12:03:52.000Z</time>
      </trkpt>
      <trkpt lat="45.78959" lon="1.88293">
        <ele>710</ele>
        <time>2026-07-08T12:03:53.000Z</time>
      </trkpt>
      <trkpt lat="45.78958" lon="1.88292">
        <ele>710</ele>
        <time>2026-07-08T12:03:54.000Z</time>
      </trkpt>
      <trkpt lat="45.78958" lon="1.88292">
        <ele>710</ele>
        <time>2026-07-08T12:03:55.000Z</time>
      </trkpt>
      <trkpt lat="45.78958" lon="1.88292">
        <ele>710</ele>
        <time>2026-07-08T12:03:56.000Z</time>
      </trkpt>
      <trkpt lat="45.78958" lon="1.88292">
        <ele>710</ele>
        <time>2026-07-08T12:03:57.000Z</time>
      </trkpt>
      <trkpt lat="45.78958" lon="1.88292">
        <ele>710</ele>
        <time>2026-07-08T12:03:58.000Z</time>
      </trkpt>
      <trkpt lat="45.78958" lon="1.88292">
        <ele>710</ele>
        <time>2026-07-08T12:03:59.000Z</time>
      </trkpt>
      <trkpt lat="45.78958" lon="1.88292">
        <ele>710</ele>
        <time>2026-07-08T12:04:00.000Z</time>
      </trkpt>
      <trkpt lat="45.78958" lon="1.88292">
        <ele>710</ele>
        <time>2026-07-08T12:04:01.000Z</time>
      </trkpt>
      <trkpt lat="45.78958" lon="1.88292">
        <ele>710</ele>
        <time>2026-07-08T12:04:02.000Z</time>
      </trkpt>
      <trkpt lat="45.78958" lon="1.88292">
        <ele>710</ele>
        <time>2026-07-08T12:04:03.000Z</time>
      </trkpt>
      <trkpt lat="45.78958" lon="1.88292">
        <ele>710</ele>
        <time>2026-07-08T12:04:04.000Z</time>
      </trkpt>
      <trkpt lat="45.78958" lon="1.88292">
        <ele>710</ele>
        <time>2026-07-08T12:04:05.000Z</time>
      </trkpt>
      <trkpt lat="45.78958" lon="1.88292">
        <ele>710</ele>
        <time>2026-07-08T12:04:06.000Z</time>
      </trkpt>
      <trkpt lat="45.78958" lon="1.88292">
        <ele>710</ele>
        <time>2026-07-08T12:04:07.000Z</time>
      </trkpt>
      <trkpt lat="45.78958" lon="1.88292">
        <ele>710.1</ele>
        <time>2026-07-08T12:04:08.000Z</time>
      </trkpt>
      <trkpt lat="45.78958" lon="1.88292">
        <ele>710.1</ele>
        <time>2026-07-08T12:04:09.000Z</time>
      </trkpt>
      <trkpt lat="45.78958" lon="1.88292">
        <ele>710.1</ele>
        <time>2026-07-08T12:04:10.000Z</time>
      </trkpt>
      <trkpt lat="45.78958" lon="1.88292">
        <ele>710.1</ele>
        <time>2026-07-08T12:04:11.000Z</time>
      </trkpt>
      <trkpt lat="45.78958" lon="1.88292">
        <ele>710.1</ele>
        <time>2026-07-08T12:04:12.000Z</time>
      </trkpt>
      <trkpt lat="45.78958" lon="1.88292">
        <ele>710.1</ele>
        <time>2026-07-08T12:04:13.000Z</time>
      </trkpt>
      <trkpt lat="45.78958" lon="1.88292">
        <ele>710</ele>
        <time>2026-07-08T12:04:14.000Z</time>
      </trkpt>
      <trkpt lat="45.78958" lon="1.88292">
        <ele>710</ele>
        <time>2026-07-08T12:04:15.000Z</time>
      </trkpt>
      <trkpt lat="45.78958" lon="1.88292">
        <ele>710</ele>
        <time>2026-07-08T12:04:16.000Z</time>
      </trkpt>
      <trkpt lat="45.78958" lon="1.88292">
        <ele>709.9</ele>
        <time>2026-07-08T12:04:17.000Z</time>
      </trkpt>
      <trkpt lat="45.78958" lon="1.88292">
        <ele>709.9</ele>
        <time>2026-07-08T12:04:18.000Z</time>
      </trkpt>
      <trkpt lat="45.78958" lon="1.88292">
        <ele>709.9</ele>
        <time>2026-07-08T12:04:19.000Z</time>
      </trkpt>
      <trkpt lat="45.78958" lon="1.88292">
        <ele>709.9</ele>
        <time>2026-07-08T12:04:20.000Z</time>
      </trkpt>
      <trkpt lat="45.78958" lon="1.88292">
        <ele>709.9</ele>
        <time>2026-07-08T12:04:21.000Z</time>
      </trkpt>
      <trkpt lat="45.78958" lon="1.88292">
        <ele>709.9</ele>
        <time>2026-07-08T12:04:22.000Z</time>
      </trkpt>
      <trkpt lat="45.78958" lon="1.88292">
        <ele>709.9</ele>
        <time>2026-07-08T12:04:23.000Z</time>
      </trkpt>
      <trkpt lat="45.78958" lon="1.88292">
        <ele>709.9</ele>
        <time>2026-07-08T12:04:24.000Z</time>
      </trkpt>
      <trkpt lat="45.78958" lon="1.88292">
        <ele>709.9</ele>
        <time>2026-07-08T12:04:25.000Z</time>
      </trkpt>
      <trkpt lat="45.78958" lon="1.88292">
        <ele>709.9</ele>
        <time>2026-07-08T12:04:26.000Z</time>
      </trkpt>
      <trkpt lat="45.78958" lon="1.88292">
        <ele>709.9</ele>
        <time>2026-07-08T12:04:27.000Z</time>
      </trkpt>
      <trkpt lat="45.78958" lon="1.88292">
        <ele>709.9</ele>
        <time>2026-07-08T12:04:28.000Z</time>
      </trkpt>
      <trkpt lat="45.78958" lon="1.88292">
        <ele>709.9</ele>
        <time>2026-07-08T12:04:29.000Z</time>
      </trkpt>
      <trkpt lat="45.78958" lon="1.88292">
        <ele>709.8</ele>
        <time>2026-07-08T12:04:30.000Z</time>
      </trkpt>
      <trkpt lat="45.78958" lon="1.88292">
        <ele>709.8</ele>
        <time>2026-07-08T12:04:31.000Z</time>
      </trkpt>
      <trkpt lat="45.78958" lon="1.88292">
        <ele>709.8</ele>
        <time>2026-07-08T12:04:32.000Z</time>
      </trkpt>
      <trkpt lat="45.78958" lon="1.88292">
        <ele>709.8</ele>
        <time>2026-07-08T12:04:33.000Z</time>
      </trkpt>
      <trkpt lat="45.78958" lon="1.88292">
        <ele>709.8</ele>
        <time>2026-07-08T12:04:34.000Z</time>
      </trkpt>
      <trkpt lat="45.78958" lon="1.88292">
        <ele>709.8</ele>
        <time>2026-07-08T12:04:35.000Z</time>
      </trkpt>
      <trkpt lat="45.78958" lon="1.88292">
        <ele>709.8</ele>
        <time>2026-07-08T12:04:36.000Z</time>
      </trkpt>
      <trkpt lat="45.78958" lon="1.88292">
        <ele>709.8</ele>
        <time>2026-07-08T12:04:37.000Z</time>
      </trkpt>
      <trkpt lat="45.78958" lon="1.88292">
        <ele>709.8</ele>
        <time>2026-07-08T12:04:38.000Z</time>
      </trkpt>
      <trkpt lat="45.78958" lon="1.88292">
        <ele>709.8</ele>
        <time>2026-07-08T12:04:39.000Z</time>
      </trkpt>
      <trkpt lat="45.78958" lon="1.88292">
        <ele>709.8</ele>
        <time>2026-07-08T12:04:40.000Z</time>
      </trkpt>
      <trkpt lat="45.78958" lon="1.88292">
        <ele>709.8</ele>
        <time>2026-07-08T12:04:41.000Z</time>
      </trkpt>
      <trkpt lat="45.78958" lon="1.88292">
        <ele>709.8</ele>
        <time>2026-07-08T12:04:42.000Z</time>
      </trkpt>
      <trkpt lat="45.78958" lon="1.88292">
        <ele>709.8</ele>
        <time>2026-07-08T12:04:43.000Z</time>
      </trkpt>
      <trkpt lat="45.78958" lon="1.88292">
        <ele>709.8</ele>
        <time>2026-07-08T12:04:44.000Z</time>
      </trkpt>
      <trkpt lat="45.78958" lon="1.88292">
        <ele>709.8</ele>
        <time>2026-07-08T12:04:45.000Z</time>
      </trkpt>
      <trkpt lat="45.78958" lon="1.88292">
        <ele>709.8</ele>
        <time>2026-07-08T12:04:46.000Z</time>
      </trkpt>
      <trkpt lat="45.78958" lon="1.88292">
        <ele>709.8</ele>
        <time>2026-07-08T12:04:47.000Z</time>
      </trkpt>
      <trkpt lat="45.78958" lon="1.88292">
        <ele>709.8</ele>
        <time>2026-07-08T12:04:48.000Z</time>
      </trkpt>
      <trkpt lat="45.78958" lon="1.88292">
        <ele>709.8</ele>
        <time>2026-07-08T12:04:49.000Z</time>
      </trkpt>
      <trkpt lat="45.78958" lon="1.88292">
        <ele>709.8</ele>
        <time>2026-07-08T12:04:50.000Z</time>
      </trkpt>
      <trkpt lat="45.78958" lon="1.88292">
        <ele>709.8</ele>
        <time>2026-07-08T12:04:51.000Z</time>
      </trkpt>
      <trkpt lat="45.78958" lon="1.88292">
        <ele>709.8</ele>
        <time>2026-07-08T12:04:52.000Z</time>
      </trkpt>
      <trkpt lat="45.78958" lon="1.88292">
        <ele>709.8</ele>
        <time>2026-07-08T12:04:53.000Z</time>
      </trkpt>
      <trkpt lat="45.78958" lon="1.88292">
        <ele>709.8</ele>
        <time>2026-07-08T12:04:54.000Z</time>
      </trkpt>
      <trkpt lat="45.78958" lon="1.88292">
        <ele>709.8</ele>
        <time>2026-07-08T12:04:55.000Z</time>
      </trkpt>
      <trkpt lat="45.78958" lon="1.88292">
        <ele>709.8</ele>
        <time>2026-07-08T12:04:56.000Z</time>
      </trkpt>
      <trkpt lat="45.78958" lon="1.88292">
        <ele>709.8</ele>
        <time>2026-07-08T12:04:57.000Z</time>
      </trkpt>
      <trkpt lat="45.78958" lon="1.88292">
        <ele>709.8</ele>
        <time>2026-07-08T12:04:58.000Z</time>
      </trkpt>
      <trkpt lat="45.78958" lon="1.88292">
        <ele>709.8</ele>
        <time>2026-07-08T12:04:59.000Z</time>
      </trkpt>
      <trkpt lat="45.78958" lon="1.88292">
        <ele>709.8</ele>
        <time>2026-07-08T12:05:00.000Z</time>
      </trkpt>
      <trkpt lat="45.78958" lon="1.88292">
        <ele>709.8</ele>
        <time>2026-07-08T12:05:01.000Z</time>
      </trkpt>
      <trkpt lat="45.78958" lon="1.88292">
        <ele>709.8</ele>
        <time>2026-07-08T12:05:02.000Z</time>
      </trkpt>
      <trkpt lat="45.78958" lon="1.88292">
        <ele>709.8</ele>
        <time>2026-07-08T12:05:03.000Z</time>
      </trkpt>
      <trkpt lat="45.78958" lon="1.88292">
        <ele>709.8</ele>
        <time>2026-07-08T12:05:04.000Z</time>
      </trkpt>
      <trkpt lat="45.78958" lon="1.88292">
        <ele>709.8</ele>
        <time>2026-07-08T12:05:05.000Z</time>
      </trkpt>
      <trkpt lat="45.78958" lon="1.88292">
        <ele>709.8</ele>
        <time>2026-07-08T12:05:06.000Z</time>
      </trkpt>
      <trkpt lat="45.78958" lon="1.88292">
        <ele>709.8</ele>
        <time>2026-07-08T12:05:07.000Z</time>
      </trkpt>
      <trkpt lat="45.78958" lon="1.88292">
        <ele>709.8</ele>
        <time>2026-07-08T12:05:08.000Z</time>
      </trkpt>
      <trkpt lat="45.78958" lon="1.88292">
        <ele>709.8</ele>
        <time>2026-07-08T12:05:09.000Z</time>
      </trkpt>
      <trkpt lat="45.78958" lon="1.88292">
        <ele>709.8</ele>
        <time>2026-07-08T12:05:10.000Z</time>
      </trkpt>
      <trkpt lat="45.78958" lon="1.88292">
        <ele>709.8</ele>
        <time>2026-07-08T12:05:11.000Z</time>
      </trkpt>
      <trkpt lat="45.78958" lon="1.88292">
        <ele>709.8</ele>
        <time>2026-07-08T12:05:12.000Z</time>
      </trkpt>
      <trkpt lat="45.78958" lon="1.88292">
        <ele>709.8</ele>
        <time>2026-07-08T12:05:13.000Z</time>
      </trkpt>
      <trkpt lat="45.78958" lon="1.88292">
        <ele>709.8</ele>
        <time>2026-07-08T12:05:14.000Z</time>
      </trkpt>
      <trkpt lat="45.78958" lon="1.88292">
        <ele>709.8</ele>
        <time>2026-07-08T12:05:15.000Z</time>
      </trkpt>
      <trkpt lat="45.78958" lon="1.88292">
        <ele>709.8</ele>
        <time>2026-07-08T12:05:16.000Z</time>
      </trkpt>
      <trkpt lat="45.78958" lon="1.88292">
        <ele>709.8</ele>
        <time>2026-07-08T12:05:17.000Z</time>
      </trkpt>
      <trkpt lat="45.78958" lon="1.88292">
        <ele>709.8</ele>
        <time>2026-07-08T12:05:18.000Z</time>
      </trkpt>
      <trkpt lat="45.78958" lon="1.88292">
        <ele>709.8</ele>
        <time>2026-07-08T12:05:19.000Z</time>
      </trkpt>
      <trkpt lat="45.78958" lon="1.88292">
        <ele>709.8</ele>
        <time>2026-07-08T12:05:20.000Z</time>
      </trkpt>
      <trkpt lat="45.78958" lon="1.88292">
        <ele>709.8</ele>
        <time>2026-07-08T12:05:21.000Z</time>
      </trkpt>
      <trkpt lat="45.78958" lon="1.88292">
        <ele>709.8</ele>
        <time>2026-07-08T12:05:22.000Z</time>
      </trkpt>
      <trkpt lat="45.78958" lon="1.88292">
        <ele>709.8</ele>
        <time>2026-07-08T12:05:23.000Z</time>
      </trkpt>
      <trkpt lat="45.78958" lon="1.88292">
        <ele>709.8</ele>
        <time>2026-07-08T12:05:24.000Z</time>
      </trkpt>
      <trkpt lat="45.78958" lon="1.88292">
        <ele>709.8</ele>
        <time>2026-07-08T12:05:25.000Z</time>
      </trkpt>
      <trkpt lat="45.78958" lon="1.88292">
        <ele>709.8</ele>
        <time>2026-07-08T12:05:26.000Z</time>
      </trkpt>
      <trkpt lat="45.78958" lon="1.88292">
        <ele>709.8</ele>
        <time>2026-07-08T12:05:27.000Z</time>
      </trkpt>
      <trkpt lat="45.78958" lon="1.88292">
        <ele>709.8</ele>
        <time>2026-07-08T12:05:28.000Z</time>
      </trkpt>
      <trkpt lat="45.78958" lon="1.88292">
        <ele>709.8</ele>
        <time>2026-07-08T12:05:29.000Z</time>
      </trkpt>
      <trkpt lat="45.78958" lon="1.88292">
        <ele>709.8</ele>
        <time>2026-07-08T12:05:30.000Z</time>
      </trkpt>
      <trkpt lat="45.78958" lon="1.88292">
        <ele>709.8</ele>
        <time>2026-07-08T12:05:31.000Z</time>
      </trkpt>
      <trkpt lat="45.78958" lon="1.88292">
        <ele>709.8</ele>
        <time>2026-07-08T12:05:32.000Z</time>
      </trkpt>
      <trkpt lat="45.78958" lon="1.88292">
        <ele>709.8</ele>
        <time>2026-07-08T12:05:33.000Z</time>
      </trkpt>
      <trkpt lat="45.78958" lon="1.88292">
        <ele>709.8</ele>
        <time>2026-07-08T12:05:34.000Z</time>
      </trkpt>
      <trkpt lat="45.78958" lon="1.88292">
        <ele>709.8</ele>
        <time>2026-07-08T12:05:35.000Z</time>
      </trkpt>
      <trkpt lat="45.78958" lon="1.88292">
        <ele>709.8</ele>
        <time>2026-07-08T12:05:36.000Z</time>
      </trkpt>
      <trkpt lat="45.78958" lon="1.88292">
        <ele>709.8</ele>
        <time>2026-07-08T12:05:37.000Z</time>
      </trkpt>
      <trkpt lat="45.78958" lon="1.88292">
        <ele>709.8</ele>
        <time>2026-07-08T12:05:38.000Z</time>
      </trkpt>
      <trkpt lat="45.78958" lon="1.88292">
        <ele>709.8</ele>
        <time>2026-07-08T12:05:39.000Z</time>
      </trkpt>
      <trkpt lat="45.78958" lon="1.88292">
        <ele>709.8</ele>
        <time>2026-07-08T12:05:40.000Z</time>
      </trkpt>
      <trkpt lat="45.78958" lon="1.88292">
        <ele>709.8</ele>
        <time>2026-07-08T12:05:41.000Z</time>
      </trkpt>
      <trkpt lat="45.78958" lon="1.88292">
        <ele>709.8</ele>
        <time>2026-07-08T12:05:42.000Z</time>
      </trkpt>
      <trkpt lat="45.78958" lon="1.88292">
        <ele>709.8</ele>
        <time>2026-07-08T12:05:43.000Z</time>
      </trkpt>
      <trkpt lat="45.78958" lon="1.88292">
        <ele>709.8</ele>
        <time>2026-07-08T12:05:44.000Z</time>
      </trkpt>
      <trkpt lat="45.78958" lon="1.88292">
        <ele>709.8</ele>
        <time>2026-07-08T12:05:45.000Z</time>
      </trkpt>
      <trkpt lat="45.78958" lon="1.88292">
        <ele>709.8</ele>
        <time>2026-07-08T12:05:46.000Z</time>
      </trkpt>
      <trkpt lat="45.78958" lon="1.88292">
        <ele>709.8</ele>
        <time>2026-07-08T12:05:47.000Z</time>
      </trkpt>
      <trkpt lat="45.78958" lon="1.88292">
        <ele>709.8</ele>
        <time>2026-07-08T12:05:48.000Z</time>
      </trkpt>
      <trkpt lat="45.78958" lon="1.88292">
        <ele>709.8</ele>
        <time>2026-07-08T12:05:49.000Z</time>
      </trkpt>
      <trkpt lat="45.78958" lon="1.88292">
        <ele>709.8</ele>
        <time>2026-07-08T12:05:50.000Z</time>
      </trkpt>
      <trkpt lat="45.78958" lon="1.88292">
        <ele>709.8</ele>
        <time>2026-07-08T12:05:51.000Z</time>
      </trkpt>
      <trkpt lat="45.78958" lon="1.88292">
        <ele>709.8</ele>
        <time>2026-07-08T12:05:52.000Z</time>
      </trkpt>
      <trkpt lat="45.78958" lon="1.88292">
        <ele>709.8</ele>
        <time>2026-07-08T12:05:53.000Z</time>
      </trkpt>
      <trkpt lat="45.78958" lon="1.88292">
        <ele>709.8</ele>
        <time>2026-07-08T12:05:54.000Z</time>
      </trkpt>
      <trkpt lat="45.78958" lon="1.88292">
        <ele>709.8</ele>
        <time>2026-07-08T12:05:55.000Z</time>
      </trkpt>
      <trkpt lat="45.78958" lon="1.88292">
        <ele>709.8</ele>
        <time>2026-07-08T12:05:56.000Z</time>
      </trkpt>
      <trkpt lat="45.78958" lon="1.88292">
        <ele>709.8</ele>
        <time>2026-07-08T12:05:57.000Z</time>
      </trkpt>
      <trkpt lat="45.78958" lon="1.88292">
        <ele>709.8</ele>
        <time>2026-07-08T12:05:58.000Z</time>
      </trkpt>
      <trkpt lat="45.78958" lon="1.88292">
        <ele>709.8</ele>
        <time>2026-07-08T12:05:59.000Z</time>
      </trkpt>
      <trkpt lat="45.78958" lon="1.88292">
        <ele>709.8</ele>
        <time>2026-07-08T12:06:00.000Z</time>
      </trkpt>
      <trkpt lat="45.78958" lon="1.88292">
        <ele>709.8</ele>
        <time>2026-07-08T12:06:01.000Z</time>
      </trkpt>
      <trkpt lat="45.78958" lon="1.88292">
        <ele>709.8</ele>
        <time>2026-07-08T12:06:02.000Z</time>
      </trkpt>
      <trkpt lat="45.78958" lon="1.88292">
        <ele>709.8</ele>
        <time>2026-07-08T12:06:03.000Z</time>
      </trkpt>
      <trkpt lat="45.78958" lon="1.88292">
        <ele>709.8</ele>
        <time>2026-07-08T12:06:04.000Z</time>
      </trkpt>
      <trkpt lat="45.78958" lon="1.88292">
        <ele>709.8</ele>
        <time>2026-07-08T12:06:05.000Z</time>
      </trkpt>
      <trkpt lat="45.78958" lon="1.88292">
        <ele>709.8</ele>
        <time>2026-07-08T12:06:06.000Z</time>
      </trkpt>
      <trkpt lat="45.78958" lon="1.88292">
        <ele>709.8</ele>
        <time>2026-07-08T12:06:07.000Z</time>
      </trkpt>
      <trkpt lat="45.78958" lon="1.88292">
        <ele>709.8</ele>
        <time>2026-07-08T12:06:08.000Z</time>
      </trkpt>
      <trkpt lat="45.78958" lon="1.88292">
        <ele>709.8</ele>
        <time>2026-07-08T12:06:09.000Z</time>
      </trkpt>
      <trkpt lat="45.78958" lon="1.88292">
        <ele>709.8</ele>
        <time>2026-07-08T12:06:10.000Z</time>
      </trkpt>
      <trkpt lat="45.78958" lon="1.88292">
        <ele>709.8</ele>
        <time>2026-07-08T12:06:11.000Z</time>
      </trkpt>
      <trkpt lat="45.78958" lon="1.88292">
        <ele>709.8</ele>
        <time>2026-07-08T12:06:12.000Z</time>
      </trkpt>
      <trkpt lat="45.78958" lon="1.88292">
        <ele>709.8</ele>
        <time>2026-07-08T12:06:13.000Z</time>
      </trkpt>
      <trkpt lat="45.78958" lon="1.88292">
        <ele>709.8</ele>
        <time>2026-07-08T12:06:14.000Z</time>
      </trkpt>
      <trkpt lat="45.78958" lon="1.88292">
        <ele>709.8</ele>
        <time>2026-07-08T12:06:15.000Z</time>
      </trkpt>
      <trkpt lat="45.78958" lon="1.88292">
        <ele>709.8</ele>
        <time>2026-07-08T12:06:16.000Z</time>
      </trkpt>
      <trkpt lat="45.78958" lon="1.88292">
        <ele>709.8</ele>
        <time>2026-07-08T12:06:17.000Z</time>
      </trkpt>
      <trkpt lat="45.78958" lon="1.88292">
        <ele>709.8</ele>
        <time>2026-07-08T12:06:18.000Z</time>
      </trkpt>
      <trkpt lat="45.78958" lon="1.88292">
        <ele>709.8</ele>
        <time>2026-07-08T12:06:19.000Z</time>
      </trkpt>
      <trkpt lat="45.78958" lon="1.88292">
        <ele>709.8</ele>
        <time>2026-07-08T12:06:20.000Z</time>
      </trkpt>
      <trkpt lat="45.78958" lon="1.88292">
        <ele>709.8</ele>
        <time>2026-07-08T12:06:21.000Z</time>
      </trkpt>
      <trkpt lat="45.78958" lon="1.88292">
        <ele>709.8</ele>
        <time>2026-07-08T12:06:22.000Z</time>
      </trkpt>
      <trkpt lat="45.78958" lon="1.88292">
        <ele>709.8</ele>
        <time>2026-07-08T12:06:23.000Z</time>
      </trkpt>
      <trkpt lat="45.78958" lon="1.88292">
        <ele>709.8</ele>
        <time>2026-07-08T12:06:24.000Z</time>
      </trkpt>
      <trkpt lat="45.78958" lon="1.88292">
        <ele>709.8</ele>
        <time>2026-07-08T12:06:25.000Z</time>
      </trkpt>
      <trkpt lat="45.78958" lon="1.88292">
        <ele>709.8</ele>
        <time>2026-07-08T12:06:26.000Z</time>
      </trkpt>
      <trkpt lat="45.78958" lon="1.88292">
        <ele>709.8</ele>
        <time>2026-07-08T12:06:27.000Z</time>
      </trkpt>
      <trkpt lat="45.78958" lon="1.88292">
        <ele>709.8</ele>
        <time>2026-07-08T12:06:28.000Z</time>
      </trkpt>
      <trkpt lat="45.78958" lon="1.88292">
        <ele>709.8</ele>
        <time>2026-07-08T12:06:29.000Z</time>
      </trkpt>
      <trkpt lat="45.78958" lon="1.88292">
        <ele>709.8</ele>
        <time>2026-07-08T12:06:30.000Z</time>
      </trkpt>
      <trkpt lat="45.78958" lon="1.88292">
        <ele>709.8</ele>
        <time>2026-07-08T12:06:31.000Z</time>
      </trkpt>
      <trkpt lat="45.78958" lon="1.88292">
        <ele>709.8</ele>
        <time>2026-07-08T12:06:32.000Z</time>
      </trkpt>
      <trkpt lat="45.78958" lon="1.88292">
        <ele>709.8</ele>
        <time>2026-07-08T12:06:33.000Z</time>
      </trkpt>
      <trkpt lat="45.78958" lon="1.88292">
        <ele>709.8</ele>
        <time>2026-07-08T12:06:34.000Z</time>
      </trkpt>
      <trkpt lat="45.78958" lon="1.88292">
        <ele>709.8</ele>
        <time>2026-07-08T12:06:35.000Z</time>
      </trkpt>
      <trkpt lat="45.78958" lon="1.88292">
        <ele>709.8</ele>
        <time>2026-07-08T12:06:36.000Z</time>
      </trkpt>
      <trkpt lat="45.78958" lon="1.88292">
        <ele>709.8</ele>
        <time>2026-07-08T12:06:37.000Z</time>
      </trkpt>
      <trkpt lat="45.78958" lon="1.88292">
        <ele>709.8</ele>
        <time>2026-07-08T12:06:38.000Z</time>
      </trkpt>
      <trkpt lat="45.78958" lon="1.88292">
        <ele>709.8</ele>
        <time>2026-07-08T12:06:39.000Z</time>
      </trkpt>
      <trkpt lat="45.78958" lon="1.88292">
        <ele>709.8</ele>
        <time>2026-07-08T12:06:40.000Z</time>
      </trkpt>
      <trkpt lat="45.78958" lon="1.88292">
        <ele>709.8</ele>
        <time>2026-07-08T12:06:41.000Z</time>
      </trkpt>
      <trkpt lat="45.78958" lon="1.88292">
        <ele>709.8</ele>
        <time>2026-07-08T12:06:42.000Z</time>
      </trkpt>
      <trkpt lat="45.78958" lon="1.88292">
        <ele>709.8</ele>
        <time>2026-07-08T12:06:43.000Z</time>
      </trkpt>
      <trkpt lat="45.78958" lon="1.88292">
        <ele>709.8</ele>
        <time>2026-07-08T12:06:44.000Z</time>
      </trkpt>
      <trkpt lat="45.78958" lon="1.88292">
        <ele>709.8</ele>
        <time>2026-07-08T12:06:45.000Z</time>
      </trkpt>
      <trkpt lat="45.78958" lon="1.88292">
        <ele>709.8</ele>
        <time>2026-07-08T12:06:46.000Z</time>
      </trkpt>
      <trkpt lat="45.78958" lon="1.88292">
        <ele>709.8</ele>
        <time>2026-07-08T12:06:47.000Z</time>
      </trkpt>
      <trkpt lat="45.78958" lon="1.88292">
        <ele>709.8</ele>
        <time>2026-07-08T12:06:48.000Z</time>
      </trkpt>
      <trkpt lat="45.78958" lon="1.88292">
        <ele>709.8</ele>
        <time>2026-07-08T12:06:49.000Z</time>
      </trkpt>
      <trkpt lat="45.78958" lon="1.88292">
        <ele>709.8</ele>
        <time>2026-07-08T12:06:50.000Z</time>
      </trkpt>
      <trkpt lat="45.78958" lon="1.88292">
        <ele>709.8</ele>
        <time>2026-07-08T12:06:51.000Z</time>
      </trkpt>
      <trkpt lat="45.78958" lon="1.88292">
        <ele>709.8</ele>
        <time>2026-07-08T12:06:52.000Z</time>
      </trkpt>
      <trkpt lat="45.78958" lon="1.88292">
        <ele>709.8</ele>
        <time>2026-07-08T12:06:53.000Z</time>
      </trkpt>
      <trkpt lat="45.78958" lon="1.88292">
        <ele>709.8</ele>
        <time>2026-07-08T12:06:54.000Z</time>
      </trkpt>
      <trkpt lat="45.78958" lon="1.88292">
        <ele>709.8</ele>
        <time>2026-07-08T12:06:55.000Z</time>
      </trkpt>
      <trkpt lat="45.78958" lon="1.88292">
        <ele>709.8</ele>
        <time>2026-07-08T12:06:56.000Z</time>
      </trkpt>
      <trkpt lat="45.78958" lon="1.88292">
        <ele>709.8</ele>
        <time>2026-07-08T12:06:57.000Z</time>
      </trkpt>
      <trkpt lat="45.78958" lon="1.88292">
        <ele>709.8</ele>
        <time>2026-07-08T12:06:58.000Z</time>
      </trkpt>
      <trkpt lat="45.78958" lon="1.88292">
        <ele>709.8</ele>
        <time>2026-07-08T12:06:59.000Z</time>
      </trkpt>
      <trkpt lat="45.78958" lon="1.88292">
        <ele>709.8</ele>
        <time>2026-07-08T12:07:00.000Z</time>
      </trkpt>
      <trkpt lat="45.78958" lon="1.88292">
        <ele>709.8</ele>
        <time>2026-07-08T12:07:01.000Z</time>
      </trkpt>
      <trkpt lat="45.78958" lon="1.88292">
        <ele>709.7</ele>
        <time>2026-07-08T12:07:02.000Z</time>
      </trkpt>
      <trkpt lat="45.78958" lon="1.88292">
        <ele>709.7</ele>
        <time>2026-07-08T12:07:03.000Z</time>
      </trkpt>
      <trkpt lat="45.78958" lon="1.88292">
        <ele>709.7</ele>
        <time>2026-07-08T12:07:04.000Z</time>
      </trkpt>
      <trkpt lat="45.78958" lon="1.88292">
        <ele>709.7</ele>
        <time>2026-07-08T12:07:05.000Z</time>
      </trkpt>
      <trkpt lat="45.78958" lon="1.88292">
        <ele>709.7</ele>
        <time>2026-07-08T12:07:06.000Z</time>
      </trkpt>
      <trkpt lat="45.78958" lon="1.88292">
        <ele>709.7</ele>
        <time>2026-07-08T12:07:07.000Z</time>
      </trkpt>
      <trkpt lat="45.78958" lon="1.88292">
        <ele>709.8</ele>
        <time>2026-07-08T12:07:08.000Z</time>
      </trkpt>
      <trkpt lat="45.78958" lon="1.88292">
        <ele>709.8</ele>
        <time>2026-07-08T12:07:09.000Z</time>
      </trkpt>
      <trkpt lat="45.78958" lon="1.88292">
        <ele>709.8</ele>
        <time>2026-07-08T12:07:10.000Z</time>
      </trkpt>
      <trkpt lat="45.78958" lon="1.88292">
        <ele>709.8</ele>
        <time>2026-07-08T12:07:11.000Z</time>
      </trkpt>
      <trkpt lat="45.78958" lon="1.88292">
        <ele>709.8</ele>
        <time>2026-07-08T12:07:12.000Z</time>
      </trkpt>
      <trkpt lat="45.78958" lon="1.88292">
        <ele>709.8</ele>
        <time>2026-07-08T12:07:13.000Z</time>
      </trkpt>
      <trkpt lat="45.78958" lon="1.88292">
        <ele>709.7</ele>
        <time>2026-07-08T12:07:14.000Z</time>
      </trkpt>
      <trkpt lat="45.78958" lon="1.88292">
        <ele>709.7</ele>
        <time>2026-07-08T12:07:15.000Z</time>
      </trkpt>
      <trkpt lat="45.78958" lon="1.88292">
        <ele>709.8</ele>
        <time>2026-07-08T12:07:16.000Z</time>
      </trkpt>
      <trkpt lat="45.78958" lon="1.88292">
        <ele>709.8</ele>
        <time>2026-07-08T12:07:17.000Z</time>
      </trkpt>
      <trkpt lat="45.78958" lon="1.88292">
        <ele>709.8</ele>
        <time>2026-07-08T12:07:18.000Z</time>
      </trkpt>
      <trkpt lat="45.78958" lon="1.88292">
        <ele>709.8</ele>
        <time>2026-07-08T12:07:19.000Z</time>
      </trkpt>
      <trkpt lat="45.78958" lon="1.88292">
        <ele>709.7</ele>
        <time>2026-07-08T12:07:20.000Z</time>
      </trkpt>
      <trkpt lat="45.78958" lon="1.88292">
        <ele>709.8</ele>
        <time>2026-07-08T12:07:21.000Z</time>
      </trkpt>
      <trkpt lat="45.78958" lon="1.88292">
        <ele>709.7</ele>
        <time>2026-07-08T12:07:22.000Z</time>
      </trkpt>
      <trkpt lat="45.78958" lon="1.88292">
        <ele>709.8</ele>
        <time>2026-07-08T12:07:23.000Z</time>
      </trkpt>
      <trkpt lat="45.78958" lon="1.88292">
        <ele>709.8</ele>
        <time>2026-07-08T12:07:24.000Z</time>
      </trkpt>
      <trkpt lat="45.78958" lon="1.88292">
        <ele>709.8</ele>
        <time>2026-07-08T12:07:25.000Z</time>
      </trkpt>
      <trkpt lat="45.78958" lon="1.88292">
        <ele>709.8</ele>
        <time>2026-07-08T12:07:26.000Z</time>
      </trkpt>
      <trkpt lat="45.78958" lon="1.88292">
        <ele>709.8</ele>
        <time>2026-07-08T12:07:27.000Z</time>
      </trkpt>
      <trkpt lat="45.78958" lon="1.88292">
        <ele>709.8</ele>
        <time>2026-07-08T12:07:28.000Z</time>
      </trkpt>
      <trkpt lat="45.78958" lon="1.88292">
        <ele>709.8</ele>
        <time>2026-07-08T12:07:29.000Z</time>
      </trkpt>
      <trkpt lat="45.78958" lon="1.88292">
        <ele>709.8</ele>
        <time>2026-07-08T12:07:30.000Z</time>
      </trkpt>
      <trkpt lat="45.78958" lon="1.88292">
        <ele>709.8</ele>
        <time>2026-07-08T12:07:31.000Z</time>
      </trkpt>
      <trkpt lat="45.78958" lon="1.88292">
        <ele>709.8</ele>
        <time>2026-07-08T12:07:32.000Z</time>
      </trkpt>
      <trkpt lat="45.78958" lon="1.88292">
        <ele>709.8</ele>
        <time>2026-07-08T12:07:33.000Z</time>
      </trkpt>
      <trkpt lat="45.78958" lon="1.88292">
        <ele>709.8</ele>
        <time>2026-07-08T12:07:34.000Z</time>
      </trkpt>
      <trkpt lat="45.78958" lon="1.88292">
        <ele>709.8</ele>
        <time>2026-07-08T12:07:35.000Z</time>
      </trkpt>
      <trkpt lat="45.78958" lon="1.88292">
        <ele>709.8</ele>
        <time>2026-07-08T12:07:36.000Z</time>
      </trkpt>
      <trkpt lat="45.78958" lon="1.88292">
        <ele>709.8</ele>
        <time>2026-07-08T12:07:37.000Z</time>
      </trkpt>
      <trkpt lat="45.78958" lon="1.88292">
        <ele>709.8</ele>
        <time>2026-07-08T12:07:38.000Z</time>
      </trkpt>
      <trkpt lat="45.78958" lon="1.88292">
        <ele>709.7</ele>
        <time>2026-07-08T12:07:39.000Z</time>
      </trkpt>
      <trkpt lat="45.78958" lon="1.88292">
        <ele>709.7</ele>
        <time>2026-07-08T12:07:40.000Z</time>
      </trkpt>
      <trkpt lat="45.78958" lon="1.88292">
        <ele>709.7</ele>
        <time>2026-07-08T12:07:41.000Z</time>
      </trkpt>
      <trkpt lat="45.78958" lon="1.88292">
        <ele>709.7</ele>
        <time>2026-07-08T12:07:42.000Z</time>
      </trkpt>
      <trkpt lat="45.78958" lon="1.88292">
        <ele>709.7</ele>
        <time>2026-07-08T12:07:43.000Z</time>
      </trkpt>
      <trkpt lat="45.78958" lon="1.88292">
        <ele>709.7</ele>
        <time>2026-07-08T12:07:44.000Z</time>
      </trkpt>
      <trkpt lat="45.78958" lon="1.88292">
        <ele>709.7</ele>
        <time>2026-07-08T12:07:45.000Z</time>
      </trkpt>
      <trkpt lat="45.78958" lon="1.88292">
        <ele>709.7</ele>
        <time>2026-07-08T12:07:46.000Z</time>
      </trkpt>
      <trkpt lat="45.78958" lon="1.88292">
        <ele>709.7</ele>
        <time>2026-07-08T12:07:47.000Z</time>
      </trkpt>
      <trkpt lat="45.78958" lon="1.88292">
        <ele>709.7</ele>
        <time>2026-07-08T12:07:48.000Z</time>
      </trkpt>
      <trkpt lat="45.78958" lon="1.88292">
        <ele>709.7</ele>
        <time>2026-07-08T12:07:49.000Z</time>
      </trkpt>
      <trkpt lat="45.78958" lon="1.88292">
        <ele>709.7</ele>
        <time>2026-07-08T12:07:50.000Z</time>
      </trkpt>
      <trkpt lat="45.78958" lon="1.88292">
        <ele>709.7</ele>
        <time>2026-07-08T12:07:51.000Z</time>
      </trkpt>
      <trkpt lat="45.78958" lon="1.88292">
        <ele>709.7</ele>
        <time>2026-07-08T12:07:52.000Z</time>
      </trkpt>
      <trkpt lat="45.78958" lon="1.88292">
        <ele>709.7</ele>
        <time>2026-07-08T12:07:53.000Z</time>
      </trkpt>
      <trkpt lat="45.78958" lon="1.88292">
        <ele>709.7</ele>
        <time>2026-07-08T12:07:54.000Z</time>
      </trkpt>
      <trkpt lat="45.78958" lon="1.88292">
        <ele>709.7</ele>
        <time>2026-07-08T12:07:55.000Z</time>
      </trkpt>
      <trkpt lat="45.78958" lon="1.88292">
        <ele>709.7</ele>
        <time>2026-07-08T12:07:56.000Z</time>
      </trkpt>
      <trkpt lat="45.78958" lon="1.88292">
        <ele>709.7</ele>
        <time>2026-07-08T12:07:57.000Z</time>
      </trkpt>
      <trkpt lat="45.78958" lon="1.88292">
        <ele>709.7</ele>
        <time>2026-07-08T12:07:58.000Z</time>
      </trkpt>
      <trkpt lat="45.78958" lon="1.88292">
        <ele>709.7</ele>
        <time>2026-07-08T12:07:59.000Z</time>
      </trkpt>
      <trkpt lat="45.78958" lon="1.88292">
        <ele>709.7</ele>
        <time>2026-07-08T12:08:00.000Z</time>
      </trkpt>
      <trkpt lat="45.78958" lon="1.88292">
        <ele>709.7</ele>
        <time>2026-07-08T12:08:01.000Z</time>
      </trkpt>
      <trkpt lat="45.78958" lon="1.88292">
        <ele>709.7</ele>
        <time>2026-07-08T12:08:02.000Z</time>
      </trkpt>
      <trkpt lat="45.78958" lon="1.88292">
        <ele>709.7</ele>
        <time>2026-07-08T12:08:03.000Z</time>
      </trkpt>
      <trkpt lat="45.78958" lon="1.88292">
        <ele>709.7</ele>
        <time>2026-07-08T12:08:04.000Z</time>
      </trkpt>
      <trkpt lat="45.78958" lon="1.88292">
        <ele>709.7</ele>
        <time>2026-07-08T12:08:05.000Z</time>
      </trkpt>
      <trkpt lat="45.78958" lon="1.88292">
        <ele>709.7</ele>
        <time>2026-07-08T12:08:06.000Z</time>
      </trkpt>
      <trkpt lat="45.78958" lon="1.88292">
        <ele>709.7</ele>
        <time>2026-07-08T12:08:07.000Z</time>
      </trkpt>
      <trkpt lat="45.78958" lon="1.88292">
        <ele>709.7</ele>
        <time>2026-07-08T12:08:08.000Z</time>
      </trkpt>
      <trkpt lat="45.78958" lon="1.88292">
        <ele>709.7</ele>
        <time>2026-07-08T12:08:09.000Z</time>
      </trkpt>
      <trkpt lat="45.78958" lon="1.88292">
        <ele>709.7</ele>
        <time>2026-07-08T12:08:10.000Z</time>
      </trkpt>
      <trkpt lat="45.78958" lon="1.88292">
        <ele>709.7</ele>
        <time>2026-07-08T12:08:11.000Z</time>
      </trkpt>
      <trkpt lat="45.78958" lon="1.88292">
        <ele>709.7</ele>
        <time>2026-07-08T12:08:12.000Z</time>
      </trkpt>
      <trkpt lat="45.78958" lon="1.88292">
        <ele>709.7</ele>
        <time>2026-07-08T12:08:13.000Z</time>
      </trkpt>
      <trkpt lat="45.78958" lon="1.88292">
        <ele>709.7</ele>
        <time>2026-07-08T12:08:14.000Z</time>
      </trkpt>
      <trkpt lat="45.78958" lon="1.88292">
        <ele>709.7</ele>
        <time>2026-07-08T12:08:15.000Z</time>
      </trkpt>
      <trkpt lat="45.78958" lon="1.88292">
        <ele>709.7</ele>
        <time>2026-07-08T12:08:16.000Z</time>
      </trkpt>
      <trkpt lat="45.78958" lon="1.88292">
        <ele>709.7</ele>
        <time>2026-07-08T12:08:17.000Z</time>
      </trkpt>
      <trkpt lat="45.78958" lon="1.88292">
        <ele>709.7</ele>
        <time>2026-07-08T12:08:18.000Z</time>
      </trkpt>
      <trkpt lat="45.78958" lon="1.88292">
        <ele>709.7</ele>
        <time>2026-07-08T12:08:19.000Z</time>
      </trkpt>
      <trkpt lat="45.78958" lon="1.88292">
        <ele>709.7</ele>
        <time>2026-07-08T12:08:20.000Z</time>
      </trkpt>
      <trkpt lat="45.78958" lon="1.88292">
        <ele>709.7</ele>
        <time>2026-07-08T12:08:21.000Z</time>
      </trkpt>
      <trkpt lat="45.78958" lon="1.88292">
        <ele>709.7</ele>
        <time>2026-07-08T12:08:22.000Z</time>
      </trkpt>
      <trkpt lat="45.78958" lon="1.88292">
        <ele>709.7</ele>
        <time>2026-07-08T12:08:23.000Z</time>
      </trkpt>
      <trkpt lat="45.78958" lon="1.88292">
        <ele>709.7</ele>
        <time>2026-07-08T12:08:24.000Z</time>
      </trkpt>
      <trkpt lat="45.78958" lon="1.88292">
        <ele>709.7</ele>
        <time>2026-07-08T12:08:25.000Z</time>
      </trkpt>
      <trkpt lat="45.78958" lon="1.88292">
        <ele>709.7</ele>
        <time>2026-07-08T12:08:26.000Z</time>
      </trkpt>
      <trkpt lat="45.78958" lon="1.88292">
        <ele>709.7</ele>
        <time>2026-07-08T12:08:27.000Z</time>
      </trkpt>
      <trkpt lat="45.78958" lon="1.88292">
        <ele>709.7</ele>
        <time>2026-07-08T12:08:28.000Z</time>
      </trkpt>
      <trkpt lat="45.78958" lon="1.88292">
        <ele>709.7</ele>
        <time>2026-07-08T12:08:29.000Z</time>
      </trkpt>
      <trkpt lat="45.78958" lon="1.88292">
        <ele>709.7</ele>
        <time>2026-07-08T12:08:30.000Z</time>
      </trkpt>
      <trkpt lat="45.78958" lon="1.88292">
        <ele>709.7</ele>
        <time>2026-07-08T12:08:31.000Z</time>
      </trkpt>
      <trkpt lat="45.78958" lon="1.88292">
        <ele>709.7</ele>
        <time>2026-07-08T12:08:32.000Z</time>
      </trkpt>
      <trkpt lat="45.78958" lon="1.88292">
        <ele>709.7</ele>
        <time>2026-07-08T12:08:33.000Z</time>
      </trkpt>
      <trkpt lat="45.78958" lon="1.88292">
        <ele>709.7</ele>
        <time>2026-07-08T12:08:34.000Z</time>
      </trkpt>
      <trkpt lat="45.78958" lon="1.88292">
        <ele>709.7</ele>
        <time>2026-07-08T12:08:35.000Z</time>
      </trkpt>
      <trkpt lat="45.78958" lon="1.88292">
        <ele>709.7</ele>
        <time>2026-07-08T12:08:36.000Z</time>
      </trkpt>
      <trkpt lat="45.78958" lon="1.88292">
        <ele>709.7</ele>
        <time>2026-07-08T12:08:37.000Z</time>
      </trkpt>
      <trkpt lat="45.78958" lon="1.88292">
        <ele>709.7</ele>
        <time>2026-07-08T12:08:38.000Z</time>
      </trkpt>
      <trkpt lat="45.78958" lon="1.88292">
        <ele>709.7</ele>
        <time>2026-07-08T12:08:39.000Z</time>
      </trkpt>
      <trkpt lat="45.78958" lon="1.88292">
        <ele>709.7</ele>
        <time>2026-07-08T12:08:40.000Z</time>
      </trkpt>
      <trkpt lat="45.78958" lon="1.88292">
        <ele>709.7</ele>
        <time>2026-07-08T12:08:41.000Z</time>
      </trkpt>
      <trkpt lat="45.78958" lon="1.88292">
        <ele>709.7</ele>
        <time>2026-07-08T12:08:42.000Z</time>
      </trkpt>
      <trkpt lat="45.78958" lon="1.88292">
        <ele>709.7</ele>
        <time>2026-07-08T12:08:43.000Z</time>
      </trkpt>
      <trkpt lat="45.78958" lon="1.88292">
        <ele>709.7</ele>
        <time>2026-07-08T12:08:44.000Z</time>
      </trkpt>
      <trkpt lat="45.78958" lon="1.88292">
        <ele>709.7</ele>
        <time>2026-07-08T12:08:45.000Z</time>
      </trkpt>
      <trkpt lat="45.78958" lon="1.88292">
        <ele>709.7</ele>
        <time>2026-07-08T12:08:46.000Z</time>
      </trkpt>
      <trkpt lat="45.78958" lon="1.88292">
        <ele>709.7</ele>
        <time>2026-07-08T12:08:47.000Z</time>
      </trkpt>
      <trkpt lat="45.78958" lon="1.88292">
        <ele>709.7</ele>
        <time>2026-07-08T12:08:48.000Z</time>
      </trkpt>
      <trkpt lat="45.78958" lon="1.88292">
        <ele>709.7</ele>
        <time>2026-07-08T12:08:49.000Z</time>
      </trkpt>
      <trkpt lat="45.78958" lon="1.88292">
        <ele>709.7</ele>
        <time>2026-07-08T12:08:50.000Z</time>
      </trkpt>
      <trkpt lat="45.78958" lon="1.88292">
        <ele>709.7</ele>
        <time>2026-07-08T12:08:51.000Z</time>
      </trkpt>
      <trkpt lat="45.78958" lon="1.88292">
        <ele>709.7</ele>
        <time>2026-07-08T12:08:52.000Z</time>
      </trkpt>
      <trkpt lat="45.78958" lon="1.88292">
        <ele>709.7</ele>
        <time>2026-07-08T12:08:53.000Z</time>
      </trkpt>
      <trkpt lat="45.78958" lon="1.88292">
        <ele>709.7</ele>
        <time>2026-07-08T12:08:54.000Z</time>
      </trkpt>
      <trkpt lat="45.78958" lon="1.88292">
        <ele>709.7</ele>
        <time>2026-07-08T12:08:55.000Z</time>
      </trkpt>
      <trkpt lat="45.78958" lon="1.88292">
        <ele>709.6</ele>
        <time>2026-07-08T12:08:56.000Z</time>
      </trkpt>
      <trkpt lat="45.78958" lon="1.88292">
        <ele>709.6</ele>
        <time>2026-07-08T12:08:57.000Z</time>
      </trkpt>
      <trkpt lat="45.78958" lon="1.88292">
        <ele>709.6</ele>
        <time>2026-07-08T12:08:58.000Z</time>
      </trkpt>
      <trkpt lat="45.78958" lon="1.88292">
        <ele>709.6</ele>
        <time>2026-07-08T12:08:59.000Z</time>
      </trkpt>
      <trkpt lat="45.78958" lon="1.88292">
        <ele>709.6</ele>
        <time>2026-07-08T12:09:00.000Z</time>
      </trkpt>
      <trkpt lat="45.78958" lon="1.88292">
        <ele>709.6</ele>
        <time>2026-07-08T12:09:01.000Z</time>
      </trkpt>
      <trkpt lat="45.78958" lon="1.88292">
        <ele>709.6</ele>
        <time>2026-07-08T12:09:02.000Z</time>
      </trkpt>
      <trkpt lat="45.78958" lon="1.88292">
        <ele>709.6</ele>
        <time>2026-07-08T12:09:03.000Z</time>
      </trkpt>
      <trkpt lat="45.78958" lon="1.88292">
        <ele>709.6</ele>
        <time>2026-07-08T12:09:04.000Z</time>
      </trkpt>
      <trkpt lat="45.78958" lon="1.88292">
        <ele>709.6</ele>
        <time>2026-07-08T12:09:05.000Z</time>
      </trkpt>
      <trkpt lat="45.78958" lon="1.88292">
        <ele>709.6</ele>
        <time>2026-07-08T12:09:06.000Z</time>
      </trkpt>
      <trkpt lat="45.78958" lon="1.88292">
        <ele>709.6</ele>
        <time>2026-07-08T12:09:07.000Z</time>
      </trkpt>
      <trkpt lat="45.78958" lon="1.88292">
        <ele>709.6</ele>
        <time>2026-07-08T12:09:08.000Z</time>
      </trkpt>
      <trkpt lat="45.78958" lon="1.88292">
        <ele>709.6</ele>
        <time>2026-07-08T12:09:09.000Z</time>
      </trkpt>
      <trkpt lat="45.78958" lon="1.88292">
        <ele>709.6</ele>
        <time>2026-07-08T12:09:10.000Z</time>
      </trkpt>
      <trkpt lat="45.78958" lon="1.88292">
        <ele>709.6</ele>
        <time>2026-07-08T12:09:11.000Z</time>
      </trkpt>
      <trkpt lat="45.78958" lon="1.88292">
        <ele>709.6</ele>
        <time>2026-07-08T12:09:12.000Z</time>
      </trkpt>
      <trkpt lat="45.78958" lon="1.88292">
        <ele>709.6</ele>
        <time>2026-07-08T12:09:13.000Z</time>
      </trkpt>
      <trkpt lat="45.78958" lon="1.88292">
        <ele>709.6</ele>
        <time>2026-07-08T12:09:14.000Z</time>
      </trkpt>
      <trkpt lat="45.78958" lon="1.88292">
        <ele>709.6</ele>
        <time>2026-07-08T12:09:15.000Z</time>
      </trkpt>
      <trkpt lat="45.78958" lon="1.88292">
        <ele>709.6</ele>
        <time>2026-07-08T12:09:16.000Z</time>
      </trkpt>
      <trkpt lat="45.78958" lon="1.88292">
        <ele>709.6</ele>
        <time>2026-07-08T12:09:17.000Z</time>
      </trkpt>
      <trkpt lat="45.78958" lon="1.88292">
        <ele>709.6</ele>
        <time>2026-07-08T12:09:18.000Z</time>
      </trkpt>
      <trkpt lat="45.78958" lon="1.88292">
        <ele>709.6</ele>
        <time>2026-07-08T12:09:19.000Z</time>
      </trkpt>
      <trkpt lat="45.78958" lon="1.88292">
        <ele>709.6</ele>
        <time>2026-07-08T12:09:20.000Z</time>
      </trkpt>
      <trkpt lat="45.78958" lon="1.88292">
        <ele>709.6</ele>
        <time>2026-07-08T12:09:21.000Z</time>
      </trkpt>
      <trkpt lat="45.78958" lon="1.88292">
        <ele>709.6</ele>
        <time>2026-07-08T12:09:22.000Z</time>
      </trkpt>
      <trkpt lat="45.78958" lon="1.88292">
        <ele>709.6</ele>
        <time>2026-07-08T12:09:23.000Z</time>
      </trkpt>
      <trkpt lat="45.78958" lon="1.88292">
        <ele>709.6</ele>
        <time>2026-07-08T12:09:24.000Z</time>
      </trkpt>
      <trkpt lat="45.78958" lon="1.88292">
        <ele>709.6</ele>
        <time>2026-07-08T12:09:25.000Z</time>
      </trkpt>
      <trkpt lat="45.78958" lon="1.88292">
        <ele>709.6</ele>
        <time>2026-07-08T12:09:26.000Z</time>
      </trkpt>
      <trkpt lat="45.78958" lon="1.88292">
        <ele>709.6</ele>
        <time>2026-07-08T12:09:27.000Z</time>
      </trkpt>
      <trkpt lat="45.78958" lon="1.88292">
        <ele>709.6</ele>
        <time>2026-07-08T12:09:28.000Z</time>
      </trkpt>
      <trkpt lat="45.78958" lon="1.88292">
        <ele>709.6</ele>
        <time>2026-07-08T12:09:29.000Z</time>
      </trkpt>
      <trkpt lat="45.78958" lon="1.88292">
        <ele>709.6</ele>
        <time>2026-07-08T12:09:30.000Z</time>
      </trkpt>
      <trkpt lat="45.78958" lon="1.88292">
        <ele>709.6</ele>
        <time>2026-07-08T12:09:31.000Z</time>
      </trkpt>
      <trkpt lat="45.78958" lon="1.88292">
        <ele>709.6</ele>
        <time>2026-07-08T12:09:32.000Z</time>
      </trkpt>
      <trkpt lat="45.78958" lon="1.88292">
        <ele>709.6</ele>
        <time>2026-07-08T12:09:33.000Z</time>
      </trkpt>
      <trkpt lat="45.78958" lon="1.88292">
        <ele>709.6</ele>
        <time>2026-07-08T12:09:34.000Z</time>
      </trkpt>
      <trkpt lat="45.78958" lon="1.88292">
        <ele>709.6</ele>
        <time>2026-07-08T12:09:35.000Z</time>
      </trkpt>
      <trkpt lat="45.78958" lon="1.88292">
        <ele>709.6</ele>
        <time>2026-07-08T12:09:36.000Z</time>
      </trkpt>
      <trkpt lat="45.78958" lon="1.88292">
        <ele>709.6</ele>
        <time>2026-07-08T12:09:37.000Z</time>
      </trkpt>
      <trkpt lat="45.78958" lon="1.88292">
        <ele>709.6</ele>
        <time>2026-07-08T12:09:38.000Z</time>
      </trkpt>
      <trkpt lat="45.78958" lon="1.88292">
        <ele>709.6</ele>
        <time>2026-07-08T12:09:39.000Z</time>
      </trkpt>
      <trkpt lat="45.78958" lon="1.88292">
        <ele>709.6</ele>
        <time>2026-07-08T12:09:40.000Z</time>
      </trkpt>
      <trkpt lat="45.78958" lon="1.88292">
        <ele>709.6</ele>
        <time>2026-07-08T12:09:41.000Z</time>
      </trkpt>
      <trkpt lat="45.78958" lon="1.88292">
        <ele>709.6</ele>
        <time>2026-07-08T12:09:42.000Z</time>
      </trkpt>
      <trkpt lat="45.78958" lon="1.88292">
        <ele>709.6</ele>
        <time>2026-07-08T12:09:43.000Z</time>
      </trkpt>
      <trkpt lat="45.78958" lon="1.88292">
        <ele>709.6</ele>
        <time>2026-07-08T12:09:44.000Z</time>
      </trkpt>
      <trkpt lat="45.78958" lon="1.88292">
        <ele>709.6</ele>
        <time>2026-07-08T12:09:45.000Z</time>
      </trkpt>
      <trkpt lat="45.78958" lon="1.88292">
        <ele>709.6</ele>
        <time>2026-07-08T12:09:46.000Z</time>
      </trkpt>
      <trkpt lat="45.78958" lon="1.88292">
        <ele>709.6</ele>
        <time>2026-07-08T12:09:47.000Z</time>
      </trkpt>
      <trkpt lat="45.78958" lon="1.88292">
        <ele>709.6</ele>
        <time>2026-07-08T12:09:48.000Z</time>
      </trkpt>
      <trkpt lat="45.78958" lon="1.88292">
        <ele>709.6</ele>
        <time>2026-07-08T12:09:49.000Z</time>
      </trkpt>
      <trkpt lat="45.78958" lon="1.88292">
        <ele>709.6</ele>
        <time>2026-07-08T12:09:50.000Z</time>
      </trkpt>
      <trkpt lat="45.78958" lon="1.88292">
        <ele>709.6</ele>
        <time>2026-07-08T12:09:51.000Z</time>
      </trkpt>
      <trkpt lat="45.78958" lon="1.88292">
        <ele>709.6</ele>
        <time>2026-07-08T12:09:52.000Z</time>
      </trkpt>
      <trkpt lat="45.78958" lon="1.88292">
        <ele>709.6</ele>
        <time>2026-07-08T12:09:53.000Z</time>
      </trkpt>
      <trkpt lat="45.78958" lon="1.88292">
        <ele>709.6</ele>
        <time>2026-07-08T12:09:54.000Z</time>
      </trkpt>
      <trkpt lat="45.78958" lon="1.88292">
        <ele>709.6</ele>
        <time>2026-07-08T12:09:55.000Z</time>
      </trkpt>
      <trkpt lat="45.78958" lon="1.88292">
        <ele>709.6</ele>
        <time>2026-07-08T12:09:56.000Z</time>
      </trkpt>
      <trkpt lat="45.78958" lon="1.88292">
        <ele>709.6</ele>
        <time>2026-07-08T12:09:57.000Z</time>
      </trkpt>
      <trkpt lat="45.78958" lon="1.88292">
        <ele>709.6</ele>
        <time>2026-07-08T12:09:58.000Z</time>
      </trkpt>
      <trkpt lat="45.78958" lon="1.88292">
        <ele>709.6</ele>
        <time>2026-07-08T12:09:59.000Z</time>
      </trkpt>
      <trkpt lat="45.78958" lon="1.88292">
        <ele>709.6</ele>
        <time>2026-07-08T12:10:00.000Z</time>
      </trkpt>
      <trkpt lat="45.78958" lon="1.88292">
        <ele>709.6</ele>
        <time>2026-07-08T12:10:01.000Z</time>
      </trkpt>
      <trkpt lat="45.78958" lon="1.88292">
        <ele>709.6</ele>
        <time>2026-07-08T12:10:02.000Z</time>
      </trkpt>
      <trkpt lat="45.78958" lon="1.88292">
        <ele>709.6</ele>
        <time>2026-07-08T12:10:03.000Z</time>
      </trkpt>
      <trkpt lat="45.78958" lon="1.88292">
        <ele>709.6</ele>
        <time>2026-07-08T12:10:04.000Z</time>
      </trkpt>
      <trkpt lat="45.78958" lon="1.88292">
        <ele>709.6</ele>
        <time>2026-07-08T12:10:05.000Z</time>
      </trkpt>
      <trkpt lat="45.78958" lon="1.88292">
        <ele>709.6</ele>
        <time>2026-07-08T12:10:06.000Z</time>
      </trkpt>
      <trkpt lat="45.78958" lon="1.88292">
        <ele>709.6</ele>
        <time>2026-07-08T12:10:07.000Z</time>
      </trkpt>
      <trkpt lat="45.78958" lon="1.88292">
        <ele>709.6</ele>
        <time>2026-07-08T12:10:08.000Z</time>
      </trkpt>
      <trkpt lat="45.78958" lon="1.88292">
        <ele>709.6</ele>
        <time>2026-07-08T12:10:09.000Z</time>
      </trkpt>
      <trkpt lat="45.78958" lon="1.88292">
        <ele>709.6</ele>
        <time>2026-07-08T12:10:10.000Z</time>
      </trkpt>
      <trkpt lat="45.78958" lon="1.88292">
        <ele>709.6</ele>
        <time>2026-07-08T12:10:11.000Z</time>
      </trkpt>
      <trkpt lat="45.78958" lon="1.88292">
        <ele>709.6</ele>
        <time>2026-07-08T12:10:12.000Z</time>
      </trkpt>
      <trkpt lat="45.78958" lon="1.88292">
        <ele>709.6</ele>
        <time>2026-07-08T12:10:13.000Z</time>
      </trkpt>
      <trkpt lat="45.78958" lon="1.88292">
        <ele>709.6</ele>
        <time>2026-07-08T12:10:14.000Z</time>
      </trkpt>
      <trkpt lat="45.78958" lon="1.88292">
        <ele>709.6</ele>
        <time>2026-07-08T12:10:15.000Z</time>
      </trkpt>
      <trkpt lat="45.78958" lon="1.88292">
        <ele>709.6</ele>
        <time>2026-07-08T12:10:16.000Z</time>
      </trkpt>
      <trkpt lat="45.78958" lon="1.88292">
        <ele>709.6</ele>
        <time>2026-07-08T12:10:17.000Z</time>
      </trkpt>
      <trkpt lat="45.78958" lon="1.88292">
        <ele>709.6</ele>
        <time>2026-07-08T12:10:18.000Z</time>
      </trkpt>
      <trkpt lat="45.78958" lon="1.88292">
        <ele>709.6</ele>
        <time>2026-07-08T12:10:19.000Z</time>
      </trkpt>
      <trkpt lat="45.78958" lon="1.88292">
        <ele>709.6</ele>
        <time>2026-07-08T12:10:20.000Z</time>
      </trkpt>
      <trkpt lat="45.78958" lon="1.88292">
        <ele>709.6</ele>
        <time>2026-07-08T12:10:21.000Z</time>
      </trkpt>
      <trkpt lat="45.78958" lon="1.88292">
        <ele>709.6</ele>
        <time>2026-07-08T12:10:22.000Z</time>
      </trkpt>
      <trkpt lat="45.78958" lon="1.88292">
        <ele>709.6</ele>
        <time>2026-07-08T12:10:23.000Z</time>
      </trkpt>
      <trkpt lat="45.78958" lon="1.88292">
        <ele>709.6</ele>
        <time>2026-07-08T12:10:24.000Z</time>
      </trkpt>
      <trkpt lat="45.78958" lon="1.88292">
        <ele>709.6</ele>
        <time>2026-07-08T12:10:25.000Z</time>
      </trkpt>
      <trkpt lat="45.78958" lon="1.88292">
        <ele>709.6</ele>
        <time>2026-07-08T12:10:26.000Z</time>
      </trkpt>
      <trkpt lat="45.78958" lon="1.88292">
        <ele>709.6</ele>
        <time>2026-07-08T12:10:27.000Z</time>
      </trkpt>
      <trkpt lat="45.78958" lon="1.88292">
        <ele>709.4</ele>
        <time>2026-07-08T12:10:28.000Z</time>
      </trkpt>
      <trkpt lat="45.78958" lon="1.88292">
        <ele>709.3</ele>
        <time>2026-07-08T12:10:29.000Z</time>
      </trkpt>
      <trkpt lat="45.78958" lon="1.88292">
        <ele>709.4</ele>
        <time>2026-07-08T12:10:30.000Z</time>
      </trkpt>
      <trkpt lat="45.78958" lon="1.88292">
        <ele>709.4</ele>
        <time>2026-07-08T12:10:31.000Z</time>
      </trkpt>
      <trkpt lat="45.78958" lon="1.88292">
        <ele>709.5</ele>
        <time>2026-07-08T12:10:32.000Z</time>
      </trkpt>
      <trkpt lat="45.78958" lon="1.88292">
        <ele>709.5</ele>
        <time>2026-07-08T12:10:33.000Z</time>
      </trkpt>
      <trkpt lat="45.78957" lon="1.88292">
        <ele>709.6</ele>
        <time>2026-07-08T12:10:34.000Z</time>
      </trkpt>
      <trkpt lat="45.78958" lon="1.88292">
        <ele>709.8</ele>
        <time>2026-07-08T12:10:35.000Z</time>
      </trkpt>
      <trkpt lat="45.78958" lon="1.88292">
        <ele>709.9</ele>
        <time>2026-07-08T12:10:36.000Z</time>
      </trkpt>
      <trkpt lat="45.78958" lon="1.88292">
        <ele>709.6</ele>
        <time>2026-07-08T12:10:37.000Z</time>
      </trkpt>
      <trkpt lat="45.78959" lon="1.88293">
        <ele>709.5</ele>
        <time>2026-07-08T12:10:38.000Z</time>
      </trkpt>
      <trkpt lat="45.78959" lon="1.88293">
        <ele>709.2</ele>
        <time>2026-07-08T12:10:39.000Z</time>
      </trkpt>
      <trkpt lat="45.78959" lon="1.88293">
        <ele>709.6</ele>
        <time>2026-07-08T12:10:40.000Z</time>
      </trkpt>
      <trkpt lat="45.78959" lon="1.88293">
        <ele>709.6</ele>
        <time>2026-07-08T12:10:41.000Z</time>
      </trkpt>
      <trkpt lat="45.78959" lon="1.88293">
        <ele>709.7</ele>
        <time>2026-07-08T12:10:42.000Z</time>
      </trkpt>
      <trkpt lat="45.78959" lon="1.88293">
        <ele>709.5</ele>
        <time>2026-07-08T12:10:43.000Z</time>
      </trkpt>
      <trkpt lat="45.78958" lon="1.88293">
        <ele>709.6</ele>
        <time>2026-07-08T12:10:44.000Z</time>
      </trkpt>
      <trkpt lat="45.78958" lon="1.88293">
        <ele>709.5</ele>
        <time>2026-07-08T12:10:45.000Z</time>
      </trkpt>
      <trkpt lat="45.78958" lon="1.88293">
        <ele>709.4</ele>
        <time>2026-07-08T12:10:46.000Z</time>
      </trkpt>
      <trkpt lat="45.78958" lon="1.88293">
        <ele>709.4</ele>
        <time>2026-07-08T12:10:47.000Z</time>
      </trkpt>
      <trkpt lat="45.78958" lon="1.88293">
        <ele>709.3</ele>
        <time>2026-07-08T12:10:48.000Z</time>
      </trkpt>
      <trkpt lat="45.78958" lon="1.88293">
        <ele>709.3</ele>
        <time>2026-07-08T12:10:49.000Z</time>
      </trkpt>
      <trkpt lat="45.78958" lon="1.88293">
        <ele>709.5</ele>
        <time>2026-07-08T12:10:50.000Z</time>
      </trkpt>
      <trkpt lat="45.78958" lon="1.88292">
        <ele>709.7</ele>
        <time>2026-07-08T12:10:51.000Z</time>
      </trkpt>
      <trkpt lat="45.78958" lon="1.88293">
        <ele>709.7</ele>
        <time>2026-07-08T12:10:52.000Z</time>
      </trkpt>
      <trkpt lat="45.78958" lon="1.88292">
        <ele>709.7</ele>
        <time>2026-07-08T12:10:53.000Z</time>
      </trkpt>
      <trkpt lat="45.78958" lon="1.88292">
        <ele>709.9</ele>
        <time>2026-07-08T12:10:54.000Z</time>
      </trkpt>
      <trkpt lat="45.78959" lon="1.88292">
        <ele>709.9</ele>
        <time>2026-07-08T12:10:55.000Z</time>
      </trkpt>
      <trkpt lat="45.78959" lon="1.88292">
        <ele>710.1</ele>
        <time>2026-07-08T12:10:56.000Z</time>
      </trkpt>
      <trkpt lat="45.78959" lon="1.88291">
        <ele>710.3</ele>
        <time>2026-07-08T12:10:57.000Z</time>
      </trkpt>
      <trkpt lat="45.78958" lon="1.88291">
        <ele>710.2</ele>
        <time>2026-07-08T12:10:58.000Z</time>
      </trkpt>
      <trkpt lat="45.78959" lon="1.88291">
        <ele>710.4</ele>
        <time>2026-07-08T12:10:59.000Z</time>
      </trkpt>
      <trkpt lat="45.78959" lon="1.88291">
        <ele>710.4</ele>
        <time>2026-07-08T12:11:00.000Z</time>
      </trkpt>
      <trkpt lat="45.78959" lon="1.88291">
        <ele>710.6</ele>
        <time>2026-07-08T12:11:01.000Z</time>
      </trkpt>
      <trkpt lat="45.78958" lon="1.88291">
        <ele>710.6</ele>
        <time>2026-07-08T12:11:02.000Z</time>
      </trkpt>
      <trkpt lat="45.78958" lon="1.88291">
        <ele>710.6</ele>
        <time>2026-07-08T12:11:03.000Z</time>
      </trkpt>
      <trkpt lat="45.78958" lon="1.88291">
        <ele>710.6</ele>
        <time>2026-07-08T12:11:04.000Z</time>
      </trkpt>
      <trkpt lat="45.78958" lon="1.88291">
        <ele>710.6</ele>
        <time>2026-07-08T12:11:05.000Z</time>
      </trkpt>
      <trkpt lat="45.78958" lon="1.88291">
        <ele>710.6</ele>
        <time>2026-07-08T12:11:06.000Z</time>
      </trkpt>
      <trkpt lat="45.78958" lon="1.88291">
        <ele>710.6</ele>
        <time>2026-07-08T12:11:07.000Z</time>
      </trkpt>
      <trkpt lat="45.78958" lon="1.88291">
        <ele>710.6</ele>
        <time>2026-07-08T12:11:08.000Z</time>
      </trkpt>
      <trkpt lat="45.78958" lon="1.88291">
        <ele>710.6</ele>
        <time>2026-07-08T12:11:09.000Z</time>
      </trkpt>
      <trkpt lat="45.78958" lon="1.88291">
        <ele>710.6</ele>
        <time>2026-07-08T12:11:10.000Z</time>
      </trkpt>
      <trkpt lat="45.78958" lon="1.88291">
        <ele>710.6</ele>
        <time>2026-07-08T12:11:11.000Z</time>
      </trkpt>
      <trkpt lat="45.78958" lon="1.88291">
        <ele>710.6</ele>
        <time>2026-07-08T12:11:12.000Z</time>
      </trkpt>
      <trkpt lat="45.78958" lon="1.88291">
        <ele>710.6</ele>
        <time>2026-07-08T12:11:13.000Z</time>
      </trkpt>
      <trkpt lat="45.78958" lon="1.88291">
        <ele>710.6</ele>
        <time>2026-07-08T12:11:14.000Z</time>
      </trkpt>
      <trkpt lat="45.78958" lon="1.88291">
        <ele>710.6</ele>
        <time>2026-07-08T12:11:15.000Z</time>
      </trkpt>
      <trkpt lat="45.78958" lon="1.88291">
        <ele>710.6</ele>
        <time>2026-07-08T12:11:16.000Z</time>
      </trkpt>
      <trkpt lat="45.78958" lon="1.88291">
        <ele>710.6</ele>
        <time>2026-07-08T12:11:17.000Z</time>
      </trkpt>
      <trkpt lat="45.78958" lon="1.88291">
        <ele>710.6</ele>
        <time>2026-07-08T12:11:18.000Z</time>
      </trkpt>
      <trkpt lat="45.78958" lon="1.88291">
        <ele>710.6</ele>
        <time>2026-07-08T12:11:19.000Z</time>
      </trkpt>
      <trkpt lat="45.78958" lon="1.88291">
        <ele>710.6</ele>
        <time>2026-07-08T12:11:20.000Z</time>
      </trkpt>
      <trkpt lat="45.78958" lon="1.88291">
        <ele>710.6</ele>
        <time>2026-07-08T12:11:21.000Z</time>
      </trkpt>
      <trkpt lat="45.78958" lon="1.88291">
        <ele>710.6</ele>
        <time>2026-07-08T12:11:22.000Z</time>
      </trkpt>
      <trkpt lat="45.78958" lon="1.88291">
        <ele>710.6</ele>
        <time>2026-07-08T12:11:23.000Z</time>
      </trkpt>
      <trkpt lat="45.78958" lon="1.88291">
        <ele>710.6</ele>
        <time>2026-07-08T12:11:24.000Z</time>
      </trkpt>
      <trkpt lat="45.78958" lon="1.88291">
        <ele>710.6</ele>
        <time>2026-07-08T12:11:25.000Z</time>
      </trkpt>
      <trkpt lat="45.78958" lon="1.88291">
        <ele>710.6</ele>
        <time>2026-07-08T12:11:26.000Z</time>
      </trkpt>
      <trkpt lat="45.78958" lon="1.88291">
        <ele>710.6</ele>
        <time>2026-07-08T12:11:27.000Z</time>
      </trkpt>
      <trkpt lat="45.78958" lon="1.88291">
        <ele>710.6</ele>
        <time>2026-07-08T12:11:28.000Z</time>
      </trkpt>
      <trkpt lat="45.78958" lon="1.88291">
        <ele>710.6</ele>
        <time>2026-07-08T12:11:29.000Z</time>
      </trkpt>
      <trkpt lat="45.78958" lon="1.88291">
        <ele>710.6</ele>
        <time>2026-07-08T12:11:30.000Z</time>
      </trkpt>
      <trkpt lat="45.78958" lon="1.88291">
        <ele>710.6</ele>
        <time>2026-07-08T12:11:31.000Z</time>
      </trkpt>
      <trkpt lat="45.78958" lon="1.88291">
        <ele>710.6</ele>
        <time>2026-07-08T12:11:32.000Z</time>
      </trkpt>
      <trkpt lat="45.78958" lon="1.88291">
        <ele>710.6</ele>
        <time>2026-07-08T12:11:33.000Z</time>
      </trkpt>
      <trkpt lat="45.78958" lon="1.88291">
        <ele>710.6</ele>
        <time>2026-07-08T12:11:34.000Z</time>
      </trkpt>
      <trkpt lat="45.78958" lon="1.88291">
        <ele>710.6</ele>
        <time>2026-07-08T12:11:35.000Z</time>
      </trkpt>
      <trkpt lat="45.78958" lon="1.88291">
        <ele>710.6</ele>
        <time>2026-07-08T12:11:36.000Z</time>
      </trkpt>
      <trkpt lat="45.78958" lon="1.88291">
        <ele>710.6</ele>
        <time>2026-07-08T12:11:37.000Z</time>
      </trkpt>
      <trkpt lat="45.78958" lon="1.88291">
        <ele>710.6</ele>
        <time>2026-07-08T12:11:38.000Z</time>
      </trkpt>
      <trkpt lat="45.78958" lon="1.88291">
        <ele>710.6</ele>
        <time>2026-07-08T12:11:39.000Z</time>
      </trkpt>
      <trkpt lat="45.78958" lon="1.88291">
        <ele>710.6</ele>
        <time>2026-07-08T12:11:40.000Z</time>
      </trkpt>
      <trkpt lat="45.78958" lon="1.88291">
        <ele>710.6</ele>
        <time>2026-07-08T12:11:41.000Z</time>
      </trkpt>
      <trkpt lat="45.78958" lon="1.88291">
        <ele>710.6</ele>
        <time>2026-07-08T12:11:42.000Z</time>
      </trkpt>
      <trkpt lat="45.78958" lon="1.8829">
        <ele>711</ele>
        <time>2026-07-08T12:11:43.000Z</time>
      </trkpt>
      <trkpt lat="45.78958" lon="1.8829">
        <ele>710.9</ele>
        <time>2026-07-08T12:11:44.000Z</time>
      </trkpt>
      <trkpt lat="45.78958" lon="1.88291">
        <ele>711.2</ele>
        <time>2026-07-08T12:11:45.000Z</time>
      </trkpt>
      <trkpt lat="45.78958" lon="1.88291">
        <ele>710.8</ele>
        <time>2026-07-08T12:11:46.000Z</time>
      </trkpt>
      <trkpt lat="45.78958" lon="1.88291">
        <ele>710.7</ele>
        <time>2026-07-08T12:11:47.000Z</time>
      </trkpt>
      <trkpt lat="45.78958" lon="1.88291">
        <ele>710.7</ele>
        <time>2026-07-08T12:11:48.000Z</time>
      </trkpt>
      <trkpt lat="45.78958" lon="1.88291">
        <ele>710.6</ele>
        <time>2026-07-08T12:11:49.000Z</time>
      </trkpt>
      <trkpt lat="45.78958" lon="1.88291">
        <ele>710.7</ele>
        <time>2026-07-08T12:11:50.000Z</time>
      </trkpt>
      <trkpt lat="45.78958" lon="1.88292">
        <ele>710.6</ele>
        <time>2026-07-08T12:11:51.000Z</time>
      </trkpt>
      <trkpt lat="45.78958" lon="1.88292">
        <ele>710.4</ele>
        <time>2026-07-08T12:11:52.000Z</time>
      </trkpt>
      <trkpt lat="45.78958" lon="1.88291">
        <ele>710.6</ele>
        <time>2026-07-08T12:11:53.000Z</time>
      </trkpt>
      <trkpt lat="45.78958" lon="1.88291">
        <ele>710.7</ele>
        <time>2026-07-08T12:11:54.000Z</time>
      </trkpt>
      <trkpt lat="45.78958" lon="1.88291">
        <ele>710.7</ele>
        <time>2026-07-08T12:11:55.000Z</time>
      </trkpt>
      <trkpt lat="45.78958" lon="1.88291">
        <ele>710.5</ele>
        <time>2026-07-08T12:11:56.000Z</time>
      </trkpt>
      <trkpt lat="45.78958" lon="1.88291">
        <ele>710.6</ele>
        <time>2026-07-08T12:11:57.000Z</time>
      </trkpt>
      <trkpt lat="45.78958" lon="1.88291">
        <ele>710.6</ele>
        <time>2026-07-08T12:11:58.000Z</time>
      </trkpt>
      <trkpt lat="45.78958" lon="1.88291">
        <ele>710.6</ele>
        <time>2026-07-08T12:11:59.000Z</time>
      </trkpt>
      <trkpt lat="45.78958" lon="1.88291">
        <ele>710.6</ele>
        <time>2026-07-08T12:12:00.000Z</time>
      </trkpt>
      <trkpt lat="45.78958" lon="1.88291">
        <ele>710.5</ele>
        <time>2026-07-08T12:12:01.000Z</time>
      </trkpt>
      <trkpt lat="45.78958" lon="1.88291">
        <ele>710.5</ele>
        <time>2026-07-08T12:12:02.000Z</time>
      </trkpt>
      <trkpt lat="45.78958" lon="1.88291">
        <ele>710.5</ele>
        <time>2026-07-08T12:12:03.000Z</time>
      </trkpt>
      <trkpt lat="45.78958" lon="1.88291">
        <ele>710.5</ele>
        <time>2026-07-08T12:12:04.000Z</time>
      </trkpt>
      <trkpt lat="45.78958" lon="1.88291">
        <ele>710.5</ele>
        <time>2026-07-08T12:12:05.000Z</time>
      </trkpt>
      <trkpt lat="45.78958" lon="1.88291">
        <ele>710.6</ele>
        <time>2026-07-08T12:12:06.000Z</time>
      </trkpt>
      <trkpt lat="45.78958" lon="1.88291">
        <ele>710.6</ele>
        <time>2026-07-08T12:12:07.000Z</time>
      </trkpt>
      <trkpt lat="45.78958" lon="1.88291">
        <ele>710.6</ele>
        <time>2026-07-08T12:12:08.000Z</time>
      </trkpt>
      <trkpt lat="45.78958" lon="1.88291">
        <ele>710.6</ele>
        <time>2026-07-08T12:12:09.000Z</time>
      </trkpt>
      <trkpt lat="45.78958" lon="1.88291">
        <ele>710.5</ele>
        <time>2026-07-08T12:12:10.000Z</time>
      </trkpt>
      <trkpt lat="45.78958" lon="1.88291">
        <ele>710.5</ele>
        <time>2026-07-08T12:12:11.000Z</time>
      </trkpt>
      <trkpt lat="45.78958" lon="1.88291">
        <ele>710.5</ele>
        <time>2026-07-08T12:12:12.000Z</time>
      </trkpt>
      <trkpt lat="45.78958" lon="1.88291">
        <ele>710.5</ele>
        <time>2026-07-08T12:12:13.000Z</time>
      </trkpt>
      <trkpt lat="45.78958" lon="1.88291">
        <ele>710.5</ele>
        <time>2026-07-08T12:12:14.000Z</time>
      </trkpt>
      <trkpt lat="45.78958" lon="1.88291">
        <ele>710.5</ele>
        <time>2026-07-08T12:12:15.000Z</time>
      </trkpt>
      <trkpt lat="45.78958" lon="1.88291">
        <ele>710.5</ele>
        <time>2026-07-08T12:12:16.000Z</time>
      </trkpt>
      <trkpt lat="45.78958" lon="1.88291">
        <ele>710.5</ele>
        <time>2026-07-08T12:12:17.000Z</time>
      </trkpt>
      <trkpt lat="45.78958" lon="1.88291">
        <ele>710.5</ele>
        <time>2026-07-08T12:12:18.000Z</time>
      </trkpt>
      <trkpt lat="45.78958" lon="1.88291">
        <ele>710.5</ele>
        <time>2026-07-08T12:12:19.000Z</time>
      </trkpt>
      <trkpt lat="45.78958" lon="1.88291">
        <ele>710.5</ele>
        <time>2026-07-08T12:12:20.000Z</time>
      </trkpt>
      <trkpt lat="45.78958" lon="1.88291">
        <ele>710.5</ele>
        <time>2026-07-08T12:12:21.000Z</time>
      </trkpt>
      <trkpt lat="45.78958" lon="1.88291">
        <ele>710.5</ele>
        <time>2026-07-08T12:12:22.000Z</time>
      </trkpt>
      <trkpt lat="45.78958" lon="1.88291">
        <ele>710.5</ele>
        <time>2026-07-08T12:12:23.000Z</time>
      </trkpt>
      <trkpt lat="45.78958" lon="1.88291">
        <ele>710.5</ele>
        <time>2026-07-08T12:12:24.000Z</time>
      </trkpt>
      <trkpt lat="45.78958" lon="1.88291">
        <ele>710.5</ele>
        <time>2026-07-08T12:12:25.000Z</time>
      </trkpt>
      <trkpt lat="45.78958" lon="1.88291">
        <ele>710.5</ele>
        <time>2026-07-08T12:12:26.000Z</time>
      </trkpt>
      <trkpt lat="45.78958" lon="1.88291">
        <ele>710.5</ele>
        <time>2026-07-08T12:12:27.000Z</time>
      </trkpt>
      <trkpt lat="45.78958" lon="1.88291">
        <ele>710.5</ele>
        <time>2026-07-08T12:12:28.000Z</time>
      </trkpt>
      <trkpt lat="45.78958" lon="1.88291">
        <ele>710.5</ele>
        <time>2026-07-08T12:12:29.000Z</time>
      </trkpt>
      <trkpt lat="45.78958" lon="1.88291">
        <ele>710.5</ele>
        <time>2026-07-08T12:12:30.000Z</time>
      </trkpt>
      <trkpt lat="45.78958" lon="1.88291">
        <ele>710.5</ele>
        <time>2026-07-08T12:12:31.000Z</time>
      </trkpt>
      <trkpt lat="45.78958" lon="1.88291">
        <ele>710.5</ele>
        <time>2026-07-08T12:12:32.000Z</time>
      </trkpt>
      <trkpt lat="45.78958" lon="1.88291">
        <ele>710.5</ele>
        <time>2026-07-08T12:12:33.000Z</time>
      </trkpt>
      <trkpt lat="45.78958" lon="1.88291">
        <ele>710.5</ele>
        <time>2026-07-08T12:12:34.000Z</time>
      </trkpt>
      <trkpt lat="45.78958" lon="1.88291">
        <ele>710.5</ele>
        <time>2026-07-08T12:12:35.000Z</time>
      </trkpt>
      <trkpt lat="45.78958" lon="1.88291">
        <ele>710.5</ele>
        <time>2026-07-08T12:12:36.000Z</time>
      </trkpt>
      <trkpt lat="45.78958" lon="1.88291">
        <ele>710.5</ele>
        <time>2026-07-08T12:12:37.000Z</time>
      </trkpt>
      <trkpt lat="45.78958" lon="1.88291">
        <ele>710.5</ele>
        <time>2026-07-08T12:12:38.000Z</time>
      </trkpt>
      <trkpt lat="45.78958" lon="1.88291">
        <ele>710.5</ele>
        <time>2026-07-08T12:12:39.000Z</time>
      </trkpt>
      <trkpt lat="45.78958" lon="1.88291">
        <ele>710.5</ele>
        <time>2026-07-08T12:12:40.000Z</time>
      </trkpt>
      <trkpt lat="45.78958" lon="1.88291">
        <ele>710.5</ele>
        <time>2026-07-08T12:12:41.000Z</time>
      </trkpt>
      <trkpt lat="45.78958" lon="1.88291">
        <ele>710.5</ele>
        <time>2026-07-08T12:12:42.000Z</time>
      </trkpt>
      <trkpt lat="45.78958" lon="1.88291">
        <ele>710.5</ele>
        <time>2026-07-08T12:12:43.000Z</time>
      </trkpt>
      <trkpt lat="45.78958" lon="1.88291">
        <ele>710.5</ele>
        <time>2026-07-08T12:12:44.000Z</time>
      </trkpt>
      <trkpt lat="45.78958" lon="1.88291">
        <ele>710.5</ele>
        <time>2026-07-08T12:12:45.000Z</time>
      </trkpt>
      <trkpt lat="45.78958" lon="1.88291">
        <ele>710.5</ele>
        <time>2026-07-08T12:12:46.000Z</time>
      </trkpt>
      <trkpt lat="45.78958" lon="1.88291">
        <ele>710.5</ele>
        <time>2026-07-08T12:12:47.000Z</time>
      </trkpt>
      <trkpt lat="45.78958" lon="1.88291">
        <ele>710.5</ele>
        <time>2026-07-08T12:12:48.000Z</time>
      </trkpt>
      <trkpt lat="45.78958" lon="1.88291">
        <ele>710.5</ele>
        <time>2026-07-08T12:12:49.000Z</time>
      </trkpt>
      <trkpt lat="45.78958" lon="1.88291">
        <ele>710.5</ele>
        <time>2026-07-08T12:12:50.000Z</time>
      </trkpt>
      <trkpt lat="45.78958" lon="1.88291">
        <ele>710.5</ele>
        <time>2026-07-08T12:12:51.000Z</time>
      </trkpt>
      <trkpt lat="45.78958" lon="1.88291">
        <ele>710.5</ele>
        <time>2026-07-08T12:12:52.000Z</time>
      </trkpt>
      <trkpt lat="45.78958" lon="1.88291">
        <ele>710.5</ele>
        <time>2026-07-08T12:12:53.000Z</time>
      </trkpt>
      <trkpt lat="45.78958" lon="1.88291">
        <ele>710.5</ele>
        <time>2026-07-08T12:12:54.000Z</time>
      </trkpt>
      <trkpt lat="45.78958" lon="1.88291">
        <ele>710.5</ele>
        <time>2026-07-08T12:12:55.000Z</time>
      </trkpt>
      <trkpt lat="45.78958" lon="1.88291">
        <ele>710.5</ele>
        <time>2026-07-08T12:12:56.000Z</time>
      </trkpt>
      <trkpt lat="45.78958" lon="1.88291">
        <ele>710.5</ele>
        <time>2026-07-08T12:12:57.000Z</time>
      </trkpt>
      <trkpt lat="45.78958" lon="1.88291">
        <ele>710.5</ele>
        <time>2026-07-08T12:12:58.000Z</time>
      </trkpt>
      <trkpt lat="45.78958" lon="1.88291">
        <ele>710.5</ele>
        <time>2026-07-08T12:12:59.000Z</time>
      </trkpt>
      <trkpt lat="45.78958" lon="1.88291">
        <ele>710.5</ele>
        <time>2026-07-08T12:13:00.000Z</time>
      </trkpt>
      <trkpt lat="45.78958" lon="1.88291">
        <ele>710.5</ele>
        <time>2026-07-08T12:13:01.000Z</time>
      </trkpt>
      <trkpt lat="45.78958" lon="1.88291">
        <ele>710.5</ele>
        <time>2026-07-08T12:13:02.000Z</time>
      </trkpt>
      <trkpt lat="45.78958" lon="1.88291">
        <ele>710.5</ele>
        <time>2026-07-08T12:13:03.000Z</time>
      </trkpt>
      <trkpt lat="45.78958" lon="1.88291">
        <ele>710.5</ele>
        <time>2026-07-08T12:13:04.000Z</time>
      </trkpt>
      <trkpt lat="45.78958" lon="1.88291">
        <ele>710.5</ele>
        <time>2026-07-08T12:13:05.000Z</time>
      </trkpt>
      <trkpt lat="45.78958" lon="1.88291">
        <ele>710.5</ele>
        <time>2026-07-08T12:13:06.000Z</time>
      </trkpt>
      <trkpt lat="45.78958" lon="1.88291">
        <ele>710.5</ele>
        <time>2026-07-08T12:13:07.000Z</time>
      </trkpt>
      <trkpt lat="45.78958" lon="1.88291">
        <ele>710.5</ele>
        <time>2026-07-08T12:13:08.000Z</time>
      </trkpt>
      <trkpt lat="45.78958" lon="1.88291">
        <ele>710.5</ele>
        <time>2026-07-08T12:13:09.000Z</time>
      </trkpt>
      <trkpt lat="45.78958" lon="1.88291">
        <ele>710.5</ele>
        <time>2026-07-08T12:13:10.000Z</time>
      </trkpt>
      <trkpt lat="45.78958" lon="1.88291">
        <ele>710.5</ele>
        <time>2026-07-08T12:13:11.000Z</time>
      </trkpt>
      <trkpt lat="45.78958" lon="1.88291">
        <ele>710.5</ele>
        <time>2026-07-08T12:13:12.000Z</time>
      </trkpt>
      <trkpt lat="45.78958" lon="1.88291">
        <ele>710.5</ele>
        <time>2026-07-08T12:13:13.000Z</time>
      </trkpt>
      <trkpt lat="45.78958" lon="1.88291">
        <ele>710.5</ele>
        <time>2026-07-08T12:13:14.000Z</time>
      </trkpt>
      <trkpt lat="45.78958" lon="1.88291">
        <ele>710.5</ele>
        <time>2026-07-08T12:13:15.000Z</time>
      </trkpt>
      <trkpt lat="45.78958" lon="1.88291">
        <ele>710.5</ele>
        <time>2026-07-08T12:13:16.000Z</time>
      </trkpt>
      <trkpt lat="45.78958" lon="1.88291">
        <ele>710.5</ele>
        <time>2026-07-08T12:13:17.000Z</time>
      </trkpt>
      <trkpt lat="45.78958" lon="1.88291">
        <ele>710.5</ele>
        <time>2026-07-08T12:13:18.000Z</time>
      </trkpt>
      <trkpt lat="45.78958" lon="1.88291">
        <ele>710.4</ele>
        <time>2026-07-08T12:13:19.000Z</time>
      </trkpt>
      <trkpt lat="45.78958" lon="1.88291">
        <ele>710.4</ele>
        <time>2026-07-08T12:13:20.000Z</time>
      </trkpt>
      <trkpt lat="45.78958" lon="1.88291">
        <ele>710.4</ele>
        <time>2026-07-08T12:13:21.000Z</time>
      </trkpt>
      <trkpt lat="45.78958" lon="1.88291">
        <ele>710.4</ele>
        <time>2026-07-08T12:13:22.000Z</time>
      </trkpt>
      <trkpt lat="45.78958" lon="1.88291">
        <ele>710.4</ele>
        <time>2026-07-08T12:13:23.000Z</time>
      </trkpt>
      <trkpt lat="45.78958" lon="1.88291">
        <ele>710.4</ele>
        <time>2026-07-08T12:13:24.000Z</time>
      </trkpt>
      <trkpt lat="45.78958" lon="1.88291">
        <ele>710.4</ele>
        <time>2026-07-08T12:13:25.000Z</time>
      </trkpt>
      <trkpt lat="45.78958" lon="1.88291">
        <ele>710.4</ele>
        <time>2026-07-08T12:13:26.000Z</time>
      </trkpt>
      <trkpt lat="45.78958" lon="1.88291">
        <ele>710.4</ele>
        <time>2026-07-08T12:13:27.000Z</time>
      </trkpt>
      <trkpt lat="45.78958" lon="1.88291">
        <ele>710.4</ele>
        <time>2026-07-08T12:13:28.000Z</time>
      </trkpt>
      <trkpt lat="45.78958" lon="1.88291">
        <ele>710.4</ele>
        <time>2026-07-08T12:13:29.000Z</time>
      </trkpt>
      <trkpt lat="45.78958" lon="1.88291">
        <ele>710.4</ele>
        <time>2026-07-08T12:13:30.000Z</time>
      </trkpt>
      <trkpt lat="45.78958" lon="1.88291">
        <ele>710.4</ele>
        <time>2026-07-08T12:13:31.000Z</time>
      </trkpt>
      <trkpt lat="45.78958" lon="1.88291">
        <ele>710.4</ele>
        <time>2026-07-08T12:13:32.000Z</time>
      </trkpt>
      <trkpt lat="45.78958" lon="1.88291">
        <ele>710.4</ele>
        <time>2026-07-08T12:13:33.000Z</time>
      </trkpt>
      <trkpt lat="45.78958" lon="1.88291">
        <ele>710.4</ele>
        <time>2026-07-08T12:13:34.000Z</time>
      </trkpt>
      <trkpt lat="45.78958" lon="1.88291">
        <ele>710.4</ele>
        <time>2026-07-08T12:13:35.000Z</time>
      </trkpt>
      <trkpt lat="45.78958" lon="1.88291">
        <ele>710.4</ele>
        <time>2026-07-08T12:13:36.000Z</time>
      </trkpt>
      <trkpt lat="45.78958" lon="1.88291">
        <ele>710.4</ele>
        <time>2026-07-08T12:13:37.000Z</time>
      </trkpt>
      <trkpt lat="45.78958" lon="1.88291">
        <ele>710.4</ele>
        <time>2026-07-08T12:13:38.000Z</time>
      </trkpt>
      <trkpt lat="45.78958" lon="1.88291">
        <ele>710.4</ele>
        <time>2026-07-08T12:13:39.000Z</time>
      </trkpt>
      <trkpt lat="45.78958" lon="1.88291">
        <ele>710.4</ele>
        <time>2026-07-08T12:13:40.000Z</time>
      </trkpt>
      <trkpt lat="45.78958" lon="1.88291">
        <ele>710.4</ele>
        <time>2026-07-08T12:13:41.000Z</time>
      </trkpt>
      <trkpt lat="45.78958" lon="1.88291">
        <ele>710.4</ele>
        <time>2026-07-08T12:13:42.000Z</time>
      </trkpt>
      <trkpt lat="45.78958" lon="1.88291">
        <ele>710.4</ele>
        <time>2026-07-08T12:13:43.000Z</time>
      </trkpt>
      <trkpt lat="45.78958" lon="1.88291">
        <ele>710.4</ele>
        <time>2026-07-08T12:13:44.000Z</time>
      </trkpt>
      <trkpt lat="45.78958" lon="1.88291">
        <ele>710.4</ele>
        <time>2026-07-08T12:13:45.000Z</time>
      </trkpt>
      <trkpt lat="45.78958" lon="1.88291">
        <ele>710.4</ele>
        <time>2026-07-08T12:13:46.000Z</time>
      </trkpt>
      <trkpt lat="45.78958" lon="1.88291">
        <ele>710.4</ele>
        <time>2026-07-08T12:13:47.000Z</time>
      </trkpt>
      <trkpt lat="45.78958" lon="1.88291">
        <ele>710.4</ele>
        <time>2026-07-08T12:13:48.000Z</time>
      </trkpt>
      <trkpt lat="45.78958" lon="1.88291">
        <ele>710.4</ele>
        <time>2026-07-08T12:13:49.000Z</time>
      </trkpt>
      <trkpt lat="45.78958" lon="1.88291">
        <ele>710.4</ele>
        <time>2026-07-08T12:13:50.000Z</time>
      </trkpt>
      <trkpt lat="45.78958" lon="1.88291">
        <ele>710.4</ele>
        <time>2026-07-08T12:13:51.000Z</time>
      </trkpt>
      <trkpt lat="45.78958" lon="1.88291">
        <ele>710.4</ele>
        <time>2026-07-08T12:13:52.000Z</time>
      </trkpt>
      <trkpt lat="45.78958" lon="1.88291">
        <ele>710.4</ele>
        <time>2026-07-08T12:13:53.000Z</time>
      </trkpt>
      <trkpt lat="45.78958" lon="1.88291">
        <ele>710.4</ele>
        <time>2026-07-08T12:13:54.000Z</time>
      </trkpt>
      <trkpt lat="45.78958" lon="1.88291">
        <ele>710.4</ele>
        <time>2026-07-08T12:13:55.000Z</time>
      </trkpt>
      <trkpt lat="45.78958" lon="1.88291">
        <ele>710.3</ele>
        <time>2026-07-08T12:13:56.000Z</time>
      </trkpt>
      <trkpt lat="45.78958" lon="1.88291">
        <ele>710.7</ele>
        <time>2026-07-08T12:13:57.000Z</time>
      </trkpt>
      <trkpt lat="45.78958" lon="1.88291">
        <ele>710.6</ele>
        <time>2026-07-08T12:13:58.000Z</time>
      </trkpt>
      <trkpt lat="45.78958" lon="1.88291">
        <ele>710.6</ele>
        <time>2026-07-08T12:13:59.000Z</time>
      </trkpt>
      <trkpt lat="45.78958" lon="1.88291">
        <ele>710.9</ele>
        <time>2026-07-08T12:14:00.000Z</time>
      </trkpt>
      <trkpt lat="45.78958" lon="1.88291">
        <ele>711.1</ele>
        <time>2026-07-08T12:14:01.000Z</time>
      </trkpt>
      <trkpt lat="45.78958" lon="1.88291">
        <ele>711.1</ele>
        <time>2026-07-08T12:14:02.000Z</time>
      </trkpt>
      <trkpt lat="45.78958" lon="1.88291">
        <ele>711.3</ele>
        <time>2026-07-08T12:14:03.000Z</time>
      </trkpt>
      <trkpt lat="45.78958" lon="1.88291">
        <ele>711.2</ele>
        <time>2026-07-08T12:14:04.000Z</time>
      </trkpt>
      <trkpt lat="45.78958" lon="1.88291">
        <ele>711.4</ele>
        <time>2026-07-08T12:14:05.000Z</time>
      </trkpt>
      <trkpt lat="45.78958" lon="1.88291">
        <ele>711.3</ele>
        <time>2026-07-08T12:14:06.000Z</time>
      </trkpt>
      <trkpt lat="45.78958" lon="1.88291">
        <ele>711.4</ele>
        <time>2026-07-08T12:14:07.000Z</time>
      </trkpt>
      <trkpt lat="45.78958" lon="1.88291">
        <ele>711.4</ele>
        <time>2026-07-08T12:14:08.000Z</time>
      </trkpt>
      <trkpt lat="45.78958" lon="1.88291">
        <ele>711.4</ele>
        <time>2026-07-08T12:14:09.000Z</time>
      </trkpt>
      <trkpt lat="45.78958" lon="1.88291">
        <ele>711.4</ele>
        <time>2026-07-08T12:14:10.000Z</time>
      </trkpt>
      <trkpt lat="45.78958" lon="1.88291">
        <ele>711.4</ele>
        <time>2026-07-08T12:14:11.000Z</time>
      </trkpt>
      <trkpt lat="45.78958" lon="1.88291">
        <ele>711.4</ele>
        <time>2026-07-08T12:14:12.000Z</time>
      </trkpt>
      <trkpt lat="45.78958" lon="1.88291">
        <ele>711.4</ele>
        <time>2026-07-08T12:14:13.000Z</time>
      </trkpt>
      <trkpt lat="45.78958" lon="1.88291">
        <ele>711.4</ele>
        <time>2026-07-08T12:14:14.000Z</time>
      </trkpt>
      <trkpt lat="45.78958" lon="1.88291">
        <ele>711.4</ele>
        <time>2026-07-08T12:14:15.000Z</time>
      </trkpt>
      <trkpt lat="45.78958" lon="1.88291">
        <ele>711.4</ele>
        <time>2026-07-08T12:14:16.000Z</time>
      </trkpt>
      <trkpt lat="45.78958" lon="1.88291">
        <ele>711.4</ele>
        <time>2026-07-08T12:14:17.000Z</time>
      </trkpt>
      <trkpt lat="45.78958" lon="1.88291">
        <ele>711.4</ele>
        <time>2026-07-08T12:14:18.000Z</time>
      </trkpt>
      <trkpt lat="45.78958" lon="1.88291">
        <ele>711.4</ele>
        <time>2026-07-08T12:14:19.000Z</time>
      </trkpt>
      <trkpt lat="45.78958" lon="1.88291">
        <ele>711.4</ele>
        <time>2026-07-08T12:14:20.000Z</time>
      </trkpt>
      <trkpt lat="45.78958" lon="1.88291">
        <ele>710.8</ele>
        <time>2026-07-08T12:14:21.000Z</time>
      </trkpt>
      <trkpt lat="45.78959" lon="1.88291">
        <ele>710.8</ele>
        <time>2026-07-08T12:14:22.000Z</time>
      </trkpt>
      <trkpt lat="45.78959" lon="1.88291">
        <ele>710.8</ele>
        <time>2026-07-08T12:14:23.000Z</time>
      </trkpt>
      <trkpt lat="45.78959" lon="1.88291">
        <ele>711.2</ele>
        <time>2026-07-08T12:14:24.000Z</time>
      </trkpt>
      <trkpt lat="45.78959" lon="1.88291">
        <ele>711.3</ele>
        <time>2026-07-08T12:14:25.000Z</time>
      </trkpt>
      <trkpt lat="45.78959" lon="1.88291">
        <ele>710.9</ele>
        <time>2026-07-08T12:14:26.000Z</time>
      </trkpt>
      <trkpt lat="45.78959" lon="1.88292">
        <ele>710.2</ele>
        <time>2026-07-08T12:14:27.000Z</time>
      </trkpt>
      <trkpt lat="45.78959" lon="1.88292">
        <ele>710</ele>
        <time>2026-07-08T12:14:28.000Z</time>
      </trkpt>
      <trkpt lat="45.78959" lon="1.88292">
        <ele>710</ele>
        <time>2026-07-08T12:14:29.000Z</time>
      </trkpt>
      <trkpt lat="45.78959" lon="1.88292">
        <ele>709.9</ele>
        <time>2026-07-08T12:14:30.000Z</time>
      </trkpt>
      <trkpt lat="45.78959" lon="1.88292">
        <ele>709.9</ele>
        <time>2026-07-08T12:14:31.000Z</time>
      </trkpt>
      <trkpt lat="45.78959" lon="1.88292">
        <ele>709.9</ele>
        <time>2026-07-08T12:14:32.000Z</time>
      </trkpt>
      <trkpt lat="45.78959" lon="1.88292">
        <ele>709.9</ele>
        <time>2026-07-08T12:14:33.000Z</time>
      </trkpt>
      <trkpt lat="45.78959" lon="1.88292">
        <ele>709.9</ele>
        <time>2026-07-08T12:14:34.000Z</time>
      </trkpt>
      <trkpt lat="45.78959" lon="1.88292">
        <ele>709.9</ele>
        <time>2026-07-08T12:14:35.000Z</time>
      </trkpt>
      <trkpt lat="45.78959" lon="1.88292">
        <ele>709.9</ele>
        <time>2026-07-08T12:14:36.000Z</time>
      </trkpt>
      <trkpt lat="45.78959" lon="1.88292">
        <ele>709.9</ele>
        <time>2026-07-08T12:14:37.000Z</time>
      </trkpt>
      <trkpt lat="45.78959" lon="1.88292">
        <ele>709.9</ele>
        <time>2026-07-08T12:14:38.000Z</time>
      </trkpt>
      <trkpt lat="45.78959" lon="1.88292">
        <ele>709.9</ele>
        <time>2026-07-08T12:14:39.000Z</time>
      </trkpt>
      <trkpt lat="45.78959" lon="1.88292">
        <ele>709.9</ele>
        <time>2026-07-08T12:14:40.000Z</time>
      </trkpt>
      <trkpt lat="45.78959" lon="1.88292">
        <ele>709.9</ele>
        <time>2026-07-08T12:14:41.000Z</time>
      </trkpt>
      <trkpt lat="45.78959" lon="1.88292">
        <ele>709.9</ele>
        <time>2026-07-08T12:14:42.000Z</time>
      </trkpt>
      <trkpt lat="45.78959" lon="1.88292">
        <ele>709.9</ele>
        <time>2026-07-08T12:14:43.000Z</time>
      </trkpt>
      <trkpt lat="45.78959" lon="1.88292">
        <ele>709.9</ele>
        <time>2026-07-08T12:14:44.000Z</time>
      </trkpt>
      <trkpt lat="45.78959" lon="1.88292">
        <ele>709.9</ele>
        <time>2026-07-08T12:14:45.000Z</time>
      </trkpt>
      <trkpt lat="45.78959" lon="1.88292">
        <ele>709.9</ele>
        <time>2026-07-08T12:14:46.000Z</time>
      </trkpt>
      <trkpt lat="45.78959" lon="1.88292">
        <ele>709.9</ele>
        <time>2026-07-08T12:14:47.000Z</time>
      </trkpt>
      <trkpt lat="45.78959" lon="1.88292">
        <ele>710</ele>
        <time>2026-07-08T12:14:48.000Z</time>
      </trkpt>
      <trkpt lat="45.78959" lon="1.88292">
        <ele>710</ele>
        <time>2026-07-08T12:14:49.000Z</time>
      </trkpt>
      <trkpt lat="45.78959" lon="1.88292">
        <ele>710</ele>
        <time>2026-07-08T12:14:50.000Z</time>
      </trkpt>
      <trkpt lat="45.78959" lon="1.88292">
        <ele>710</ele>
        <time>2026-07-08T12:14:51.000Z</time>
      </trkpt>
      <trkpt lat="45.78959" lon="1.88292">
        <ele>710</ele>
        <time>2026-07-08T12:14:52.000Z</time>
      </trkpt>
      <trkpt lat="45.78959" lon="1.88292">
        <ele>710</ele>
        <time>2026-07-08T12:14:53.000Z</time>
      </trkpt>
      <trkpt lat="45.78959" lon="1.88292">
        <ele>710</ele>
        <time>2026-07-08T12:14:54.000Z</time>
      </trkpt>
      <trkpt lat="45.78959" lon="1.88292">
        <ele>710</ele>
        <time>2026-07-08T12:14:55.000Z</time>
      </trkpt>
      <trkpt lat="45.78959" lon="1.88292">
        <ele>710</ele>
        <time>2026-07-08T12:14:56.000Z</time>
      </trkpt>
      <trkpt lat="45.78959" lon="1.88292">
        <ele>710</ele>
        <time>2026-07-08T12:14:57.000Z</time>
      </trkpt>
      <trkpt lat="45.78959" lon="1.88292">
        <ele>710</ele>
        <time>2026-07-08T12:14:58.000Z</time>
      </trkpt>
      <trkpt lat="45.78959" lon="1.88292">
        <ele>710</ele>
        <time>2026-07-08T12:14:59.000Z</time>
      </trkpt>
      <trkpt lat="45.78959" lon="1.88292">
        <ele>710</ele>
        <time>2026-07-08T12:15:00.000Z</time>
      </trkpt>
      <trkpt lat="45.78959" lon="1.88292">
        <ele>710</ele>
        <time>2026-07-08T12:15:01.000Z</time>
      </trkpt>
      <trkpt lat="45.78959" lon="1.88292">
        <ele>710</ele>
        <time>2026-07-08T12:15:02.000Z</time>
      </trkpt>
      <trkpt lat="45.78959" lon="1.88292">
        <ele>710</ele>
        <time>2026-07-08T12:15:03.000Z</time>
      </trkpt>
      <trkpt lat="45.78959" lon="1.88292">
        <ele>710</ele>
        <time>2026-07-08T12:15:04.000Z</time>
      </trkpt>
      <trkpt lat="45.78959" lon="1.88292">
        <ele>710</ele>
        <time>2026-07-08T12:15:05.000Z</time>
      </trkpt>
      <trkpt lat="45.78959" lon="1.88292">
        <ele>710</ele>
        <time>2026-07-08T12:15:06.000Z</time>
      </trkpt>
      <trkpt lat="45.78959" lon="1.88292">
        <ele>710</ele>
        <time>2026-07-08T12:15:07.000Z</time>
      </trkpt>
      <trkpt lat="45.78959" lon="1.88292">
        <ele>710</ele>
        <time>2026-07-08T12:15:08.000Z</time>
      </trkpt>
      <trkpt lat="45.78959" lon="1.88292">
        <ele>710</ele>
        <time>2026-07-08T12:15:09.000Z</time>
      </trkpt>
      <trkpt lat="45.78959" lon="1.88292">
        <ele>710</ele>
        <time>2026-07-08T12:15:10.000Z</time>
      </trkpt>
      <trkpt lat="45.78959" lon="1.88292">
        <ele>710</ele>
        <time>2026-07-08T12:15:11.000Z</time>
      </trkpt>
      <trkpt lat="45.78959" lon="1.88292">
        <ele>710</ele>
        <time>2026-07-08T12:15:12.000Z</time>
      </trkpt>
      <trkpt lat="45.78959" lon="1.88292">
        <ele>710</ele>
        <time>2026-07-08T12:15:13.000Z</time>
      </trkpt>
      <trkpt lat="45.78959" lon="1.88292">
        <ele>710</ele>
        <time>2026-07-08T12:15:14.000Z</time>
      </trkpt>
      <trkpt lat="45.78959" lon="1.88292">
        <ele>710</ele>
        <time>2026-07-08T12:15:15.000Z</time>
      </trkpt>
      <trkpt lat="45.78959" lon="1.88292">
        <ele>710</ele>
        <time>2026-07-08T12:15:16.000Z</time>
      </trkpt>
      <trkpt lat="45.78959" lon="1.88292">
        <ele>710</ele>
        <time>2026-07-08T12:15:17.000Z</time>
      </trkpt>
      <trkpt lat="45.78959" lon="1.88292">
        <ele>710</ele>
        <time>2026-07-08T12:15:18.000Z</time>
      </trkpt>
      <trkpt lat="45.78959" lon="1.88292">
        <ele>710</ele>
        <time>2026-07-08T12:15:19.000Z</time>
      </trkpt>
      <trkpt lat="45.78959" lon="1.88292">
        <ele>710</ele>
        <time>2026-07-08T12:15:20.000Z</time>
      </trkpt>
      <trkpt lat="45.78959" lon="1.88292">
        <ele>710</ele>
        <time>2026-07-08T12:15:21.000Z</time>
      </trkpt>
      <trkpt lat="45.78959" lon="1.88292">
        <ele>710</ele>
        <time>2026-07-08T12:15:22.000Z</time>
      </trkpt>
      <trkpt lat="45.78959" lon="1.88292">
        <ele>710</ele>
        <time>2026-07-08T12:15:23.000Z</time>
      </trkpt>
      <trkpt lat="45.78959" lon="1.88292">
        <ele>710</ele>
        <time>2026-07-08T12:15:24.000Z</time>
      </trkpt>
      <trkpt lat="45.78959" lon="1.88292">
        <ele>710</ele>
        <time>2026-07-08T12:15:25.000Z</time>
      </trkpt>
      <trkpt lat="45.78959" lon="1.88292">
        <ele>710</ele>
        <time>2026-07-08T12:15:26.000Z</time>
      </trkpt>
      <trkpt lat="45.78959" lon="1.88292">
        <ele>710</ele>
        <time>2026-07-08T12:15:27.000Z</time>
      </trkpt>
      <trkpt lat="45.78959" lon="1.88292">
        <ele>710</ele>
        <time>2026-07-08T12:15:28.000Z</time>
      </trkpt>
      <trkpt lat="45.78959" lon="1.88292">
        <ele>710</ele>
        <time>2026-07-08T12:15:29.000Z</time>
      </trkpt>
      <trkpt lat="45.78959" lon="1.88292">
        <ele>710</ele>
        <time>2026-07-08T12:15:30.000Z</time>
      </trkpt>
      <trkpt lat="45.78959" lon="1.88292">
        <ele>710</ele>
        <time>2026-07-08T12:15:31.000Z</time>
      </trkpt>
      <trkpt lat="45.78959" lon="1.88292">
        <ele>710</ele>
        <time>2026-07-08T12:15:32.000Z</time>
      </trkpt>
      <trkpt lat="45.78958" lon="1.88292">
        <ele>709.9</ele>
        <time>2026-07-08T12:15:33.000Z</time>
      </trkpt>
      <trkpt lat="45.78958" lon="1.88292">
        <ele>709.6</ele>
        <time>2026-07-08T12:15:34.000Z</time>
      </trkpt>
      <trkpt lat="45.78958" lon="1.88292">
        <ele>709.4</ele>
        <time>2026-07-08T12:15:35.000Z</time>
      </trkpt>
      <trkpt lat="45.78958" lon="1.88292">
        <ele>709.2</ele>
        <time>2026-07-08T12:15:36.000Z</time>
      </trkpt>
      <trkpt lat="45.78958" lon="1.88292">
        <ele>709.2</ele>
        <time>2026-07-08T12:15:37.000Z</time>
      </trkpt>
      <trkpt lat="45.78958" lon="1.88292">
        <ele>709.1</ele>
        <time>2026-07-08T12:15:38.000Z</time>
      </trkpt>
      <trkpt lat="45.78958" lon="1.88292">
        <ele>709</ele>
        <time>2026-07-08T12:15:39.000Z</time>
      </trkpt>
      <trkpt lat="45.78958" lon="1.88292">
        <ele>708.9</ele>
        <time>2026-07-08T12:15:40.000Z</time>
      </trkpt>
      <trkpt lat="45.78958" lon="1.88293">
        <ele>708.9</ele>
        <time>2026-07-08T12:15:41.000Z</time>
      </trkpt>
      <trkpt lat="45.78958" lon="1.88293">
        <ele>708.9</ele>
        <time>2026-07-08T12:15:42.000Z</time>
      </trkpt>
      <trkpt lat="45.78959" lon="1.88293">
        <ele>708.8</ele>
        <time>2026-07-08T12:15:43.000Z</time>
      </trkpt>
      <trkpt lat="45.78959" lon="1.88293">
        <ele>708.6</ele>
        <time>2026-07-08T12:15:44.000Z</time>
      </trkpt>
      <trkpt lat="45.78959" lon="1.88294">
        <ele>708.8</ele>
        <time>2026-07-08T12:15:45.000Z</time>
      </trkpt>
      <trkpt lat="45.78959" lon="1.88294">
        <ele>708.9</ele>
        <time>2026-07-08T12:15:46.000Z</time>
      </trkpt>
      <trkpt lat="45.78959" lon="1.88294">
        <ele>708.5</ele>
        <time>2026-07-08T12:15:47.000Z</time>
      </trkpt>
      <trkpt lat="45.78959" lon="1.88294">
        <ele>708.1</ele>
        <time>2026-07-08T12:15:48.000Z</time>
      </trkpt>
      <trkpt lat="45.78959" lon="1.88294">
        <ele>708</ele>
        <time>2026-07-08T12:15:49.000Z</time>
      </trkpt>
      <trkpt lat="45.78959" lon="1.88294">
        <ele>707.7</ele>
        <time>2026-07-08T12:15:50.000Z</time>
      </trkpt>
      <trkpt lat="45.78959" lon="1.88294">
        <ele>707.8</ele>
        <time>2026-07-08T12:15:51.000Z</time>
      </trkpt>
      <trkpt lat="45.78959" lon="1.88294">
        <ele>707.7</ele>
        <time>2026-07-08T12:15:52.000Z</time>
      </trkpt>
      <trkpt lat="45.78959" lon="1.88294">
        <ele>707.8</ele>
        <time>2026-07-08T12:15:53.000Z</time>
      </trkpt>
      <trkpt lat="45.78959" lon="1.88294">
        <ele>707.8</ele>
        <time>2026-07-08T12:15:54.000Z</time>
      </trkpt>
      <trkpt lat="45.78959" lon="1.88294">
        <ele>707.8</ele>
        <time>2026-07-08T12:15:55.000Z</time>
      </trkpt>
      <trkpt lat="45.78958" lon="1.88294">
        <ele>707.8</ele>
        <time>2026-07-08T12:15:56.000Z</time>
      </trkpt>
      <trkpt lat="45.78958" lon="1.88294">
        <ele>707.8</ele>
        <time>2026-07-08T12:15:57.000Z</time>
      </trkpt>
      <trkpt lat="45.78958" lon="1.88294">
        <ele>707.8</ele>
        <time>2026-07-08T12:15:58.000Z</time>
      </trkpt>
      <trkpt lat="45.78958" lon="1.88294">
        <ele>707.8</ele>
        <time>2026-07-08T12:15:59.000Z</time>
      </trkpt>
      <trkpt lat="45.78958" lon="1.88294">
        <ele>707.8</ele>
        <time>2026-07-08T12:16:00.000Z</time>
      </trkpt>
      <trkpt lat="45.78958" lon="1.88294">
        <ele>707.8</ele>
        <time>2026-07-08T12:16:01.000Z</time>
      </trkpt>
      <trkpt lat="45.78958" lon="1.88294">
        <ele>707.8</ele>
        <time>2026-07-08T12:16:02.000Z</time>
      </trkpt>
      <trkpt lat="45.78958" lon="1.88294">
        <ele>707.8</ele>
        <time>2026-07-08T12:16:03.000Z</time>
      </trkpt>
      <trkpt lat="45.78959" lon="1.88294">
        <ele>707.6</ele>
        <time>2026-07-08T12:16:04.000Z</time>
      </trkpt>
      <trkpt lat="45.78958" lon="1.88294">
        <ele>708.3</ele>
        <time>2026-07-08T12:16:05.000Z</time>
      </trkpt>
      <trkpt lat="45.78958" lon="1.88294">
        <ele>708.3</ele>
        <time>2026-07-08T12:16:06.000Z</time>
      </trkpt>
      <trkpt lat="45.78958" lon="1.88294">
        <ele>708.3</ele>
        <time>2026-07-08T12:16:07.000Z</time>
      </trkpt>
      <trkpt lat="45.78958" lon="1.88293">
        <ele>708.3</ele>
        <time>2026-07-08T12:16:08.000Z</time>
      </trkpt>
      <trkpt lat="45.78958" lon="1.88293">
        <ele>708.5</ele>
        <time>2026-07-08T12:16:09.000Z</time>
      </trkpt>
      <trkpt lat="45.78958" lon="1.88293">
        <ele>708.5</ele>
        <time>2026-07-08T12:16:10.000Z</time>
      </trkpt>
      <trkpt lat="45.78958" lon="1.88293">
        <ele>708.2</ele>
        <time>2026-07-08T12:16:11.000Z</time>
      </trkpt>
      <trkpt lat="45.78958" lon="1.88292">
        <ele>708.4</ele>
        <time>2026-07-08T12:16:12.000Z</time>
      </trkpt>
      <trkpt lat="45.78958" lon="1.88292">
        <ele>708.4</ele>
        <time>2026-07-08T12:16:13.000Z</time>
      </trkpt>
      <trkpt lat="45.78958" lon="1.88292">
        <ele>708.4</ele>
        <time>2026-07-08T12:16:14.000Z</time>
      </trkpt>
      <trkpt lat="45.78958" lon="1.88292">
        <ele>708.3</ele>
        <time>2026-07-08T12:16:15.000Z</time>
      </trkpt>
      <trkpt lat="45.78958" lon="1.88292">
        <ele>708.4</ele>
        <time>2026-07-08T12:16:16.000Z</time>
      </trkpt>
      <trkpt lat="45.78958" lon="1.88292">
        <ele>708.4</ele>
        <time>2026-07-08T12:16:17.000Z</time>
      </trkpt>
      <trkpt lat="45.78958" lon="1.88292">
        <ele>708.4</ele>
        <time>2026-07-08T12:16:18.000Z</time>
      </trkpt>
      <trkpt lat="45.78958" lon="1.88292">
        <ele>708.4</ele>
        <time>2026-07-08T12:16:19.000Z</time>
      </trkpt>
      <trkpt lat="45.78958" lon="1.88292">
        <ele>708.4</ele>
        <time>2026-07-08T12:16:20.000Z</time>
      </trkpt>
      <trkpt lat="45.78958" lon="1.88292">
        <ele>708.4</ele>
        <time>2026-07-08T12:16:21.000Z</time>
      </trkpt>
      <trkpt lat="45.78958" lon="1.88292">
        <ele>708.4</ele>
        <time>2026-07-08T12:16:22.000Z</time>
      </trkpt>
      <trkpt lat="45.78958" lon="1.88292">
        <ele>708.4</ele>
        <time>2026-07-08T12:16:23.000Z</time>
      </trkpt>
      <trkpt lat="45.78958" lon="1.88292">
        <ele>708.4</ele>
        <time>2026-07-08T12:16:24.000Z</time>
      </trkpt>
      <trkpt lat="45.78958" lon="1.88292">
        <ele>708.4</ele>
        <time>2026-07-08T12:16:25.000Z</time>
      </trkpt>
      <trkpt lat="45.78958" lon="1.88292">
        <ele>708.4</ele>
        <time>2026-07-08T12:16:26.000Z</time>
      </trkpt>
      <trkpt lat="45.78958" lon="1.88292">
        <ele>708.4</ele>
        <time>2026-07-08T12:16:27.000Z</time>
      </trkpt>
      <trkpt lat="45.78958" lon="1.88292">
        <ele>708.4</ele>
        <time>2026-07-08T12:16:28.000Z</time>
      </trkpt>
      <trkpt lat="45.78958" lon="1.88292">
        <ele>708.4</ele>
        <time>2026-07-08T12:16:29.000Z</time>
      </trkpt>
      <trkpt lat="45.78958" lon="1.88292">
        <ele>708.4</ele>
        <time>2026-07-08T12:16:30.000Z</time>
      </trkpt>
      <trkpt lat="45.78958" lon="1.88292">
        <ele>708.4</ele>
        <time>2026-07-08T12:16:31.000Z</time>
      </trkpt>
      <trkpt lat="45.78958" lon="1.88292">
        <ele>708.4</ele>
        <time>2026-07-08T12:16:32.000Z</time>
      </trkpt>
      <trkpt lat="45.78958" lon="1.88292">
        <ele>708.4</ele>
        <time>2026-07-08T12:16:33.000Z</time>
      </trkpt>
      <trkpt lat="45.78958" lon="1.88292">
        <ele>708.4</ele>
        <time>2026-07-08T12:16:34.000Z</time>
      </trkpt>
      <trkpt lat="45.78958" lon="1.88292">
        <ele>708.4</ele>
        <time>2026-07-08T12:16:35.000Z</time>
      </trkpt>
      <trkpt lat="45.78958" lon="1.88292">
        <ele>708.4</ele>
        <time>2026-07-08T12:16:36.000Z</time>
      </trkpt>
      <trkpt lat="45.78958" lon="1.88292">
        <ele>708.4</ele>
        <time>2026-07-08T12:16:37.000Z</time>
      </trkpt>
      <trkpt lat="45.78958" lon="1.88292">
        <ele>708.4</ele>
        <time>2026-07-08T12:16:38.000Z</time>
      </trkpt>
      <trkpt lat="45.78958" lon="1.88292">
        <ele>708.4</ele>
        <time>2026-07-08T12:16:39.000Z</time>
      </trkpt>
      <trkpt lat="45.78958" lon="1.88292">
        <ele>708.4</ele>
        <time>2026-07-08T12:16:40.000Z</time>
      </trkpt>
      <trkpt lat="45.78958" lon="1.88292">
        <ele>708.4</ele>
        <time>2026-07-08T12:16:41.000Z</time>
      </trkpt>
      <trkpt lat="45.78958" lon="1.88292">
        <ele>708.4</ele>
        <time>2026-07-08T12:16:42.000Z</time>
      </trkpt>
      <trkpt lat="45.78958" lon="1.88292">
        <ele>708.4</ele>
        <time>2026-07-08T12:16:43.000Z</time>
      </trkpt>
      <trkpt lat="45.78958" lon="1.88292">
        <ele>708.4</ele>
        <time>2026-07-08T12:16:44.000Z</time>
      </trkpt>
      <trkpt lat="45.78958" lon="1.88292">
        <ele>708.3</ele>
        <time>2026-07-08T12:16:45.000Z</time>
      </trkpt>
      <trkpt lat="45.78958" lon="1.88293">
        <ele>708</ele>
        <time>2026-07-08T12:16:46.000Z</time>
      </trkpt>
      <trkpt lat="45.78958" lon="1.88293">
        <ele>708.1</ele>
        <time>2026-07-08T12:16:47.000Z</time>
      </trkpt>
      <trkpt lat="45.78958" lon="1.88293">
        <ele>708.2</ele>
        <time>2026-07-08T12:16:48.000Z</time>
      </trkpt>
      <trkpt lat="45.78958" lon="1.88292">
        <ele>708.3</ele>
        <time>2026-07-08T12:16:49.000Z</time>
      </trkpt>
      <trkpt lat="45.78958" lon="1.88292">
        <ele>708.6</ele>
        <time>2026-07-08T12:16:50.000Z</time>
      </trkpt>
      <trkpt lat="45.78957" lon="1.88293">
        <ele>708.5</ele>
        <time>2026-07-08T12:16:51.000Z</time>
      </trkpt>
      <trkpt lat="45.78958" lon="1.88292">
        <ele>708.4</ele>
        <time>2026-07-08T12:16:52.000Z</time>
      </trkpt>
      <trkpt lat="45.78958" lon="1.88292">
        <ele>708.5</ele>
        <time>2026-07-08T12:16:53.000Z</time>
      </trkpt>
      <trkpt lat="45.78958" lon="1.88292">
        <ele>708.6</ele>
        <time>2026-07-08T12:16:54.000Z</time>
      </trkpt>
      <trkpt lat="45.78958" lon="1.88292">
        <ele>708.7</ele>
        <time>2026-07-08T12:16:55.000Z</time>
      </trkpt>
      <trkpt lat="45.78958" lon="1.88292">
        <ele>708.7</ele>
        <time>2026-07-08T12:16:56.000Z</time>
      </trkpt>
      <trkpt lat="45.78958" lon="1.88292">
        <ele>708.7</ele>
        <time>2026-07-08T12:16:57.000Z</time>
      </trkpt>
      <trkpt lat="45.78958" lon="1.88292">
        <ele>708.7</ele>
        <time>2026-07-08T12:16:58.000Z</time>
      </trkpt>
      <trkpt lat="45.78958" lon="1.88292">
        <ele>708.7</ele>
        <time>2026-07-08T12:16:59.000Z</time>
      </trkpt>
      <trkpt lat="45.78958" lon="1.88292">
        <ele>708.7</ele>
        <time>2026-07-08T12:17:00.000Z</time>
      </trkpt>
      <trkpt lat="45.78958" lon="1.88292">
        <ele>708.7</ele>
        <time>2026-07-08T12:17:01.000Z</time>
      </trkpt>
      <trkpt lat="45.78958" lon="1.88292">
        <ele>708.7</ele>
        <time>2026-07-08T12:17:02.000Z</time>
      </trkpt>
      <trkpt lat="45.78958" lon="1.88292">
        <ele>708.7</ele>
        <time>2026-07-08T12:17:03.000Z</time>
      </trkpt>
      <trkpt lat="45.78958" lon="1.88292">
        <ele>708.7</ele>
        <time>2026-07-08T12:17:04.000Z</time>
      </trkpt>
      <trkpt lat="45.78958" lon="1.88292">
        <ele>708.7</ele>
        <time>2026-07-08T12:17:05.000Z</time>
      </trkpt>
      <trkpt lat="45.78958" lon="1.88292">
        <ele>708.7</ele>
        <time>2026-07-08T12:17:06.000Z</time>
      </trkpt>
      <trkpt lat="45.78958" lon="1.88292">
        <ele>708.7</ele>
        <time>2026-07-08T12:17:07.000Z</time>
      </trkpt>
      <trkpt lat="45.78958" lon="1.88292">
        <ele>708.7</ele>
        <time>2026-07-08T12:17:08.000Z</time>
      </trkpt>
      <trkpt lat="45.78958" lon="1.88292">
        <ele>708.7</ele>
        <time>2026-07-08T12:17:09.000Z</time>
      </trkpt>
      <trkpt lat="45.78958" lon="1.88292">
        <ele>708.7</ele>
        <time>2026-07-08T12:17:10.000Z</time>
      </trkpt>
      <trkpt lat="45.78958" lon="1.88292">
        <ele>708.7</ele>
        <time>2026-07-08T12:17:11.000Z</time>
      </trkpt>
      <trkpt lat="45.78958" lon="1.88292">
        <ele>708.7</ele>
        <time>2026-07-08T12:17:12.000Z</time>
      </trkpt>
      <trkpt lat="45.78958" lon="1.88292">
        <ele>708.7</ele>
        <time>2026-07-08T12:17:13.000Z</time>
      </trkpt>
      <trkpt lat="45.78958" lon="1.88292">
        <ele>708.6</ele>
        <time>2026-07-08T12:17:14.000Z</time>
      </trkpt>
      <trkpt lat="45.78958" lon="1.88292">
        <ele>708.6</ele>
        <time>2026-07-08T12:17:15.000Z</time>
      </trkpt>
      <trkpt lat="45.78958" lon="1.88292">
        <ele>708.6</ele>
        <time>2026-07-08T12:17:16.000Z</time>
      </trkpt>
      <trkpt lat="45.78958" lon="1.88292">
        <ele>708.6</ele>
        <time>2026-07-08T12:17:17.000Z</time>
      </trkpt>
      <trkpt lat="45.78958" lon="1.88292">
        <ele>708.7</ele>
        <time>2026-07-08T12:17:18.000Z</time>
      </trkpt>
      <trkpt lat="45.78958" lon="1.88292">
        <ele>708.7</ele>
        <time>2026-07-08T12:17:19.000Z</time>
      </trkpt>
      <trkpt lat="45.78958" lon="1.88292">
        <ele>708.7</ele>
        <time>2026-07-08T12:17:20.000Z</time>
      </trkpt>
      <trkpt lat="45.78958" lon="1.88292">
        <ele>708.7</ele>
        <time>2026-07-08T12:17:21.000Z</time>
      </trkpt>
      <trkpt lat="45.78958" lon="1.88292">
        <ele>708.6</ele>
        <time>2026-07-08T12:17:22.000Z</time>
      </trkpt>
      <trkpt lat="45.78958" lon="1.88292">
        <ele>708.6</ele>
        <time>2026-07-08T12:17:23.000Z</time>
      </trkpt>
      <trkpt lat="45.78958" lon="1.88292">
        <ele>708.7</ele>
        <time>2026-07-08T12:17:24.000Z</time>
      </trkpt>
      <trkpt lat="45.78958" lon="1.88292">
        <ele>708.7</ele>
        <time>2026-07-08T12:17:25.000Z</time>
      </trkpt>
      <trkpt lat="45.78958" lon="1.88292">
        <ele>708.7</ele>
        <time>2026-07-08T12:17:26.000Z</time>
      </trkpt>
      <trkpt lat="45.78958" lon="1.88292">
        <ele>708.7</ele>
        <time>2026-07-08T12:17:27.000Z</time>
      </trkpt>
      <trkpt lat="45.78958" lon="1.88292">
        <ele>708.7</ele>
        <time>2026-07-08T12:17:28.000Z</time>
      </trkpt>
      <trkpt lat="45.78958" lon="1.88292">
        <ele>708.7</ele>
        <time>2026-07-08T12:17:29.000Z</time>
      </trkpt>
      <trkpt lat="45.78958" lon="1.88292">
        <ele>708.7</ele>
        <time>2026-07-08T12:17:30.000Z</time>
      </trkpt>
      <trkpt lat="45.78958" lon="1.88292">
        <ele>708.7</ele>
        <time>2026-07-08T12:17:31.000Z</time>
      </trkpt>
      <trkpt lat="45.78958" lon="1.88292">
        <ele>708.7</ele>
        <time>2026-07-08T12:17:32.000Z</time>
      </trkpt>
      <trkpt lat="45.78958" lon="1.88292">
        <ele>708.7</ele>
        <time>2026-07-08T12:17:33.000Z</time>
      </trkpt>
      <trkpt lat="45.78958" lon="1.88292">
        <ele>708.7</ele>
        <time>2026-07-08T12:17:34.000Z</time>
      </trkpt>
      <trkpt lat="45.78958" lon="1.88292">
        <ele>708.7</ele>
        <time>2026-07-08T12:17:35.000Z</time>
      </trkpt>
      <trkpt lat="45.78958" lon="1.88292">
        <ele>708.7</ele>
        <time>2026-07-08T12:17:36.000Z</time>
      </trkpt>
      <trkpt lat="45.78958" lon="1.88292">
        <ele>708.7</ele>
        <time>2026-07-08T12:17:37.000Z</time>
      </trkpt>
      <trkpt lat="45.78958" lon="1.88292">
        <ele>708.7</ele>
        <time>2026-07-08T12:17:38.000Z</time>
      </trkpt>
      <trkpt lat="45.78958" lon="1.88292">
        <ele>708.7</ele>
        <time>2026-07-08T12:17:39.000Z</time>
      </trkpt>
      <trkpt lat="45.78958" lon="1.88292">
        <ele>708.7</ele>
        <time>2026-07-08T12:17:40.000Z</time>
      </trkpt>
      <trkpt lat="45.78958" lon="1.88292">
        <ele>708.7</ele>
        <time>2026-07-08T12:17:41.000Z</time>
      </trkpt>
      <trkpt lat="45.78958" lon="1.88292">
        <ele>708.7</ele>
        <time>2026-07-08T12:17:42.000Z</time>
      </trkpt>
      <trkpt lat="45.78958" lon="1.88292">
        <ele>708.7</ele>
        <time>2026-07-08T12:17:43.000Z</time>
      </trkpt>
      <trkpt lat="45.78958" lon="1.88292">
        <ele>708.7</ele>
        <time>2026-07-08T12:17:44.000Z</time>
      </trkpt>
      <trkpt lat="45.78958" lon="1.88292">
        <ele>708.7</ele>
        <time>2026-07-08T12:17:45.000Z</time>
      </trkpt>
      <trkpt lat="45.78958" lon="1.88292">
        <ele>708.7</ele>
        <time>2026-07-08T12:17:46.000Z</time>
      </trkpt>
      <trkpt lat="45.78958" lon="1.88292">
        <ele>708.7</ele>
        <time>2026-07-08T12:17:47.000Z</time>
      </trkpt>
      <trkpt lat="45.78958" lon="1.88292">
        <ele>708.7</ele>
        <time>2026-07-08T12:17:48.000Z</time>
      </trkpt>
      <trkpt lat="45.78958" lon="1.88292">
        <ele>708.7</ele>
        <time>2026-07-08T12:17:49.000Z</time>
      </trkpt>
      <trkpt lat="45.78958" lon="1.88292">
        <ele>708.7</ele>
        <time>2026-07-08T12:17:50.000Z</time>
      </trkpt>
      <trkpt lat="45.78958" lon="1.88292">
        <ele>708.7</ele>
        <time>2026-07-08T12:17:51.000Z</time>
      </trkpt>
      <trkpt lat="45.78958" lon="1.88292">
        <ele>708.7</ele>
        <time>2026-07-08T12:17:52.000Z</time>
      </trkpt>
      <trkpt lat="45.78958" lon="1.88292">
        <ele>708.7</ele>
        <time>2026-07-08T12:17:53.000Z</time>
      </trkpt>
      <trkpt lat="45.78958" lon="1.88292">
        <ele>708.7</ele>
        <time>2026-07-08T12:17:54.000Z</time>
      </trkpt>
      <trkpt lat="45.78958" lon="1.88292">
        <ele>708.7</ele>
        <time>2026-07-08T12:17:55.000Z</time>
      </trkpt>
      <trkpt lat="45.78958" lon="1.88292">
        <ele>708.7</ele>
        <time>2026-07-08T12:17:56.000Z</time>
      </trkpt>
      <trkpt lat="45.78958" lon="1.88292">
        <ele>708.7</ele>
        <time>2026-07-08T12:17:57.000Z</time>
      </trkpt>
      <trkpt lat="45.78958" lon="1.88292">
        <ele>708.7</ele>
        <time>2026-07-08T12:17:58.000Z</time>
      </trkpt>
      <trkpt lat="45.78958" lon="1.88292">
        <ele>708.7</ele>
        <time>2026-07-08T12:17:59.000Z</time>
      </trkpt>
      <trkpt lat="45.78958" lon="1.88292">
        <ele>708.7</ele>
        <time>2026-07-08T12:18:00.000Z</time>
      </trkpt>
      <trkpt lat="45.78958" lon="1.88292">
        <ele>708.7</ele>
        <time>2026-07-08T12:18:01.000Z</time>
      </trkpt>
      <trkpt lat="45.78958" lon="1.88292">
        <ele>708.7</ele>
        <time>2026-07-08T12:18:02.000Z</time>
      </trkpt>
      <trkpt lat="45.78958" lon="1.88292">
        <ele>708.7</ele>
        <time>2026-07-08T12:18:03.000Z</time>
      </trkpt>
      <trkpt lat="45.78958" lon="1.88292">
        <ele>708.7</ele>
        <time>2026-07-08T12:18:04.000Z</time>
      </trkpt>
      <trkpt lat="45.78958" lon="1.88292">
        <ele>708.7</ele>
        <time>2026-07-08T12:18:05.000Z</time>
      </trkpt>
      <trkpt lat="45.78958" lon="1.88291">
        <ele>708.8</ele>
        <time>2026-07-08T12:18:06.000Z</time>
      </trkpt>
      <trkpt lat="45.78958" lon="1.88291">
        <ele>708.7</ele>
        <time>2026-07-08T12:18:07.000Z</time>
      </trkpt>
      <trkpt lat="45.78958" lon="1.88291">
        <ele>708.7</ele>
        <time>2026-07-08T12:18:08.000Z</time>
      </trkpt>
      <trkpt lat="45.78958" lon="1.88291">
        <ele>708.7</ele>
        <time>2026-07-08T12:18:09.000Z</time>
      </trkpt>
      <trkpt lat="45.78958" lon="1.88291">
        <ele>708.8</ele>
        <time>2026-07-08T12:18:10.000Z</time>
      </trkpt>
      <trkpt lat="45.78958" lon="1.88291">
        <ele>708.8</ele>
        <time>2026-07-08T12:18:11.000Z</time>
      </trkpt>
      <trkpt lat="45.78958" lon="1.88291">
        <ele>708.8</ele>
        <time>2026-07-08T12:18:12.000Z</time>
      </trkpt>
      <trkpt lat="45.78958" lon="1.88291">
        <ele>708.4</ele>
        <time>2026-07-08T12:18:13.000Z</time>
      </trkpt>
      <trkpt lat="45.78957" lon="1.88291">
        <ele>708.2</ele>
        <time>2026-07-08T12:18:14.000Z</time>
      </trkpt>
      <trkpt lat="45.78958" lon="1.88291">
        <ele>708</ele>
        <time>2026-07-08T12:18:15.000Z</time>
      </trkpt>
      <trkpt lat="45.78958" lon="1.88291">
        <ele>707.9</ele>
        <time>2026-07-08T12:18:16.000Z</time>
      </trkpt>
      <trkpt lat="45.78958" lon="1.88291">
        <ele>707.9</ele>
        <time>2026-07-08T12:18:17.000Z</time>
      </trkpt>
      <trkpt lat="45.78958" lon="1.88291">
        <ele>707.8</ele>
        <time>2026-07-08T12:18:18.000Z</time>
      </trkpt>
      <trkpt lat="45.78958" lon="1.88291">
        <ele>707.8</ele>
        <time>2026-07-08T12:18:19.000Z</time>
      </trkpt>
      <trkpt lat="45.78958" lon="1.88291">
        <ele>707.9</ele>
        <time>2026-07-08T12:18:20.000Z</time>
      </trkpt>
      <trkpt lat="45.78958" lon="1.88291">
        <ele>707.8</ele>
        <time>2026-07-08T12:18:21.000Z</time>
      </trkpt>
      <trkpt lat="45.78958" lon="1.88291">
        <ele>707.9</ele>
        <time>2026-07-08T12:18:22.000Z</time>
      </trkpt>
      <trkpt lat="45.78958" lon="1.88291">
        <ele>707.9</ele>
        <time>2026-07-08T12:18:23.000Z</time>
      </trkpt>
      <trkpt lat="45.78958" lon="1.88291">
        <ele>707.9</ele>
        <time>2026-07-08T12:18:24.000Z</time>
      </trkpt>
      <trkpt lat="45.78958" lon="1.88291">
        <ele>707.9</ele>
        <time>2026-07-08T12:18:25.000Z</time>
      </trkpt>
      <trkpt lat="45.78958" lon="1.88291">
        <ele>707.9</ele>
        <time>2026-07-08T12:18:26.000Z</time>
      </trkpt>
      <trkpt lat="45.78958" lon="1.88291">
        <ele>707.9</ele>
        <time>2026-07-08T12:18:27.000Z</time>
      </trkpt>
      <trkpt lat="45.78958" lon="1.88291">
        <ele>707.9</ele>
        <time>2026-07-08T12:18:28.000Z</time>
      </trkpt>
      <trkpt lat="45.78958" lon="1.88291">
        <ele>707.9</ele>
        <time>2026-07-08T12:18:29.000Z</time>
      </trkpt>
      <trkpt lat="45.78958" lon="1.88291">
        <ele>707.9</ele>
        <time>2026-07-08T12:18:30.000Z</time>
      </trkpt>
      <trkpt lat="45.78958" lon="1.88291">
        <ele>707.9</ele>
        <time>2026-07-08T12:18:31.000Z</time>
      </trkpt>
      <trkpt lat="45.78958" lon="1.88291">
        <ele>707.9</ele>
        <time>2026-07-08T12:18:32.000Z</time>
      </trkpt>
      <trkpt lat="45.78958" lon="1.88291">
        <ele>707.9</ele>
        <time>2026-07-08T12:18:33.000Z</time>
      </trkpt>
      <trkpt lat="45.78958" lon="1.88291">
        <ele>707.9</ele>
        <time>2026-07-08T12:18:34.000Z</time>
      </trkpt>
      <trkpt lat="45.78958" lon="1.88291">
        <ele>707.9</ele>
        <time>2026-07-08T12:18:35.000Z</time>
      </trkpt>
      <trkpt lat="45.78958" lon="1.88291">
        <ele>707.9</ele>
        <time>2026-07-08T12:18:36.000Z</time>
      </trkpt>
      <trkpt lat="45.78958" lon="1.88291">
        <ele>707.9</ele>
        <time>2026-07-08T12:18:37.000Z</time>
      </trkpt>
      <trkpt lat="45.78958" lon="1.88291">
        <ele>707.9</ele>
        <time>2026-07-08T12:18:38.000Z</time>
      </trkpt>
      <trkpt lat="45.78958" lon="1.88291">
        <ele>707.9</ele>
        <time>2026-07-08T12:18:39.000Z</time>
      </trkpt>
      <trkpt lat="45.78958" lon="1.88291">
        <ele>707.9</ele>
        <time>2026-07-08T12:18:40.000Z</time>
      </trkpt>
      <trkpt lat="45.78958" lon="1.88291">
        <ele>707.9</ele>
        <time>2026-07-08T12:18:41.000Z</time>
      </trkpt>
      <trkpt lat="45.78958" lon="1.88291">
        <ele>707.9</ele>
        <time>2026-07-08T12:18:42.000Z</time>
      </trkpt>
      <trkpt lat="45.78958" lon="1.88291">
        <ele>707.9</ele>
        <time>2026-07-08T12:18:43.000Z</time>
      </trkpt>
      <trkpt lat="45.78958" lon="1.88291">
        <ele>707.9</ele>
        <time>2026-07-08T12:18:44.000Z</time>
      </trkpt>
      <trkpt lat="45.78958" lon="1.88291">
        <ele>707.9</ele>
        <time>2026-07-08T12:18:45.000Z</time>
      </trkpt>
      <trkpt lat="45.78958" lon="1.88291">
        <ele>707.9</ele>
        <time>2026-07-08T12:18:46.000Z</time>
      </trkpt>
      <trkpt lat="45.78958" lon="1.88291">
        <ele>707.9</ele>
        <time>2026-07-08T12:18:47.000Z</time>
      </trkpt>
      <trkpt lat="45.78958" lon="1.88291">
        <ele>707.9</ele>
        <time>2026-07-08T12:18:48.000Z</time>
      </trkpt>
      <trkpt lat="45.78958" lon="1.88291">
        <ele>707.9</ele>
        <time>2026-07-08T12:18:49.000Z</time>
      </trkpt>
      <trkpt lat="45.78958" lon="1.88291">
        <ele>707.9</ele>
        <time>2026-07-08T12:18:50.000Z</time>
      </trkpt>
      <trkpt lat="45.78958" lon="1.88291">
        <ele>707.9</ele>
        <time>2026-07-08T12:18:51.000Z</time>
      </trkpt>
      <trkpt lat="45.78958" lon="1.88291">
        <ele>707.9</ele>
        <time>2026-07-08T12:18:52.000Z</time>
      </trkpt>
      <trkpt lat="45.78958" lon="1.88291">
        <ele>707.9</ele>
        <time>2026-07-08T12:18:53.000Z</time>
      </trkpt>
      <trkpt lat="45.78958" lon="1.88291">
        <ele>707.9</ele>
        <time>2026-07-08T12:18:54.000Z</time>
      </trkpt>
      <trkpt lat="45.78958" lon="1.88291">
        <ele>707.9</ele>
        <time>2026-07-08T12:18:55.000Z</time>
      </trkpt>
      <trkpt lat="45.78958" lon="1.88291">
        <ele>707.9</ele>
        <time>2026-07-08T12:18:56.000Z</time>
      </trkpt>
      <trkpt lat="45.78958" lon="1.88291">
        <ele>707.9</ele>
        <time>2026-07-08T12:18:57.000Z</time>
      </trkpt>
      <trkpt lat="45.78958" lon="1.88291">
        <ele>707.9</ele>
        <time>2026-07-08T12:18:58.000Z</time>
      </trkpt>
      <trkpt lat="45.78958" lon="1.88291">
        <ele>707.9</ele>
        <time>2026-07-08T12:18:59.000Z</time>
      </trkpt>
      <trkpt lat="45.78958" lon="1.88291">
        <ele>707.9</ele>
        <time>2026-07-08T12:19:00.000Z</time>
      </trkpt>
      <trkpt lat="45.78958" lon="1.88291">
        <ele>707.9</ele>
        <time>2026-07-08T12:19:01.000Z</time>
      </trkpt>
      <trkpt lat="45.78958" lon="1.88291">
        <ele>707.9</ele>
        <time>2026-07-08T12:19:02.000Z</time>
      </trkpt>
      <trkpt lat="45.78958" lon="1.88291">
        <ele>707.9</ele>
        <time>2026-07-08T12:19:03.000Z</time>
      </trkpt>
      <trkpt lat="45.78958" lon="1.88291">
        <ele>707.9</ele>
        <time>2026-07-08T12:19:04.000Z</time>
      </trkpt>
      <trkpt lat="45.78958" lon="1.88291">
        <ele>707.9</ele>
        <time>2026-07-08T12:19:05.000Z</time>
      </trkpt>
      <trkpt lat="45.78958" lon="1.88291">
        <ele>707.9</ele>
        <time>2026-07-08T12:19:06.000Z</time>
      </trkpt>
      <trkpt lat="45.78958" lon="1.88291">
        <ele>707.9</ele>
        <time>2026-07-08T12:19:07.000Z</time>
      </trkpt>
      <trkpt lat="45.78958" lon="1.88291">
        <ele>707.9</ele>
        <time>2026-07-08T12:19:08.000Z</time>
      </trkpt>
      <trkpt lat="45.78958" lon="1.88291">
        <ele>707.9</ele>
        <time>2026-07-08T12:19:09.000Z</time>
      </trkpt>
      <trkpt lat="45.78958" lon="1.88291">
        <ele>707.9</ele>
        <time>2026-07-08T12:19:10.000Z</time>
      </trkpt>
      <trkpt lat="45.78958" lon="1.88291">
        <ele>707.9</ele>
        <time>2026-07-08T12:19:11.000Z</time>
      </trkpt>
      <trkpt lat="45.78958" lon="1.88291">
        <ele>707.9</ele>
        <time>2026-07-08T12:19:12.000Z</time>
      </trkpt>
      <trkpt lat="45.78958" lon="1.88291">
        <ele>707.9</ele>
        <time>2026-07-08T12:19:13.000Z</time>
      </trkpt>
      <trkpt lat="45.78958" lon="1.88291">
        <ele>707.9</ele>
        <time>2026-07-08T12:19:14.000Z</time>
      </trkpt>
      <trkpt lat="45.78958" lon="1.88291">
        <ele>707.9</ele>
        <time>2026-07-08T12:19:15.000Z</time>
      </trkpt>
      <trkpt lat="45.78958" lon="1.88291">
        <ele>707.9</ele>
        <time>2026-07-08T12:19:16.000Z</time>
      </trkpt>
      <trkpt lat="45.78958" lon="1.88291">
        <ele>707.9</ele>
        <time>2026-07-08T12:19:17.000Z</time>
      </trkpt>
      <trkpt lat="45.78958" lon="1.88291">
        <ele>707.9</ele>
        <time>2026-07-08T12:19:18.000Z</time>
      </trkpt>
      <trkpt lat="45.78958" lon="1.88291">
        <ele>707.9</ele>
        <time>2026-07-08T12:19:19.000Z</time>
      </trkpt>
      <trkpt lat="45.78958" lon="1.88291">
        <ele>707.9</ele>
        <time>2026-07-08T12:19:20.000Z</time>
      </trkpt>
      <trkpt lat="45.78958" lon="1.88291">
        <ele>707.9</ele>
        <time>2026-07-08T12:19:21.000Z</time>
      </trkpt>
      <trkpt lat="45.78958" lon="1.88291">
        <ele>707.9</ele>
        <time>2026-07-08T12:19:22.000Z</time>
      </trkpt>
      <trkpt lat="45.78958" lon="1.88291">
        <ele>707.9</ele>
        <time>2026-07-08T12:19:23.000Z</time>
      </trkpt>
      <trkpt lat="45.78958" lon="1.88291">
        <ele>707.9</ele>
        <time>2026-07-08T12:19:24.000Z</time>
      </trkpt>
      <trkpt lat="45.78958" lon="1.88291">
        <ele>707.9</ele>
        <time>2026-07-08T12:19:25.000Z</time>
      </trkpt>
      <trkpt lat="45.78958" lon="1.88291">
        <ele>707.9</ele>
        <time>2026-07-08T12:19:26.000Z</time>
      </trkpt>
      <trkpt lat="45.78958" lon="1.88291">
        <ele>707.9</ele>
        <time>2026-07-08T12:19:27.000Z</time>
      </trkpt>
      <trkpt lat="45.78958" lon="1.88291">
        <ele>707.9</ele>
        <time>2026-07-08T12:19:28.000Z</time>
      </trkpt>
      <trkpt lat="45.78958" lon="1.88291">
        <ele>707.9</ele>
        <time>2026-07-08T12:19:29.000Z</time>
      </trkpt>
      <trkpt lat="45.78958" lon="1.88291">
        <ele>707.9</ele>
        <time>2026-07-08T12:19:30.000Z</time>
      </trkpt>
      <trkpt lat="45.78958" lon="1.88291">
        <ele>707.9</ele>
        <time>2026-07-08T12:19:31.000Z</time>
      </trkpt>
      <trkpt lat="45.78958" lon="1.88291">
        <ele>707.9</ele>
        <time>2026-07-08T12:19:32.000Z</time>
      </trkpt>
      <trkpt lat="45.78958" lon="1.88291">
        <ele>707.9</ele>
        <time>2026-07-08T12:19:33.000Z</time>
      </trkpt>
      <trkpt lat="45.78958" lon="1.88291">
        <ele>707.9</ele>
        <time>2026-07-08T12:19:34.000Z</time>
      </trkpt>
      <trkpt lat="45.78958" lon="1.88291">
        <ele>707.9</ele>
        <time>2026-07-08T12:19:35.000Z</time>
      </trkpt>
      <trkpt lat="45.78958" lon="1.88291">
        <ele>707.9</ele>
        <time>2026-07-08T12:19:36.000Z</time>
      </trkpt>
      <trkpt lat="45.78958" lon="1.88291">
        <ele>707.9</ele>
        <time>2026-07-08T12:19:37.000Z</time>
      </trkpt>
      <trkpt lat="45.78958" lon="1.88291">
        <ele>707.9</ele>
        <time>2026-07-08T12:19:38.000Z</time>
      </trkpt>
      <trkpt lat="45.78958" lon="1.88291">
        <ele>707.9</ele>
        <time>2026-07-08T12:19:39.000Z</time>
      </trkpt>
      <trkpt lat="45.78958" lon="1.88291">
        <ele>707.9</ele>
        <time>2026-07-08T12:19:40.000Z</time>
      </trkpt>
      <trkpt lat="45.78958" lon="1.88291">
        <ele>707.9</ele>
        <time>2026-07-08T12:19:41.000Z</time>
      </trkpt>
      <trkpt lat="45.78958" lon="1.88291">
        <ele>707.9</ele>
        <time>2026-07-08T12:19:42.000Z</time>
      </trkpt>
      <trkpt lat="45.78958" lon="1.88291">
        <ele>707.9</ele>
        <time>2026-07-08T12:19:43.000Z</time>
      </trkpt>
      <trkpt lat="45.78958" lon="1.88291">
        <ele>707.9</ele>
        <time>2026-07-08T12:19:44.000Z</time>
      </trkpt>
      <trkpt lat="45.78958" lon="1.88291">
        <ele>707.9</ele>
        <time>2026-07-08T12:19:45.000Z</time>
      </trkpt>
      <trkpt lat="45.78958" lon="1.88291">
        <ele>707.9</ele>
        <time>2026-07-08T12:19:46.000Z</time>
      </trkpt>
      <trkpt lat="45.78958" lon="1.88291">
        <ele>707.9</ele>
        <time>2026-07-08T12:19:47.000Z</time>
      </trkpt>
      <trkpt lat="45.78958" lon="1.88291">
        <ele>707.9</ele>
        <time>2026-07-08T12:19:48.000Z</time>
      </trkpt>
      <trkpt lat="45.78958" lon="1.88291">
        <ele>707.9</ele>
        <time>2026-07-08T12:19:49.000Z</time>
      </trkpt>
      <trkpt lat="45.78958" lon="1.88291">
        <ele>707.9</ele>
        <time>2026-07-08T12:19:50.000Z</time>
      </trkpt>
      <trkpt lat="45.78958" lon="1.88291">
        <ele>707.9</ele>
        <time>2026-07-08T12:19:51.000Z</time>
      </trkpt>
      <trkpt lat="45.78958" lon="1.88291">
        <ele>707.9</ele>
        <time>2026-07-08T12:19:52.000Z</time>
      </trkpt>
      <trkpt lat="45.78958" lon="1.88291">
        <ele>707.9</ele>
        <time>2026-07-08T12:19:53.000Z</time>
      </trkpt>
      <trkpt lat="45.78958" lon="1.88291">
        <ele>707.9</ele>
        <time>2026-07-08T12:19:54.000Z</time>
      </trkpt>
      <trkpt lat="45.78958" lon="1.88291">
        <ele>707.9</ele>
        <time>2026-07-08T12:19:55.000Z</time>
      </trkpt>
      <trkpt lat="45.78958" lon="1.88291">
        <ele>707.9</ele>
        <time>2026-07-08T12:19:56.000Z</time>
      </trkpt>
      <trkpt lat="45.78958" lon="1.88291">
        <ele>707.9</ele>
        <time>2026-07-08T12:19:57.000Z</time>
      </trkpt>
      <trkpt lat="45.78958" lon="1.88291">
        <ele>707.9</ele>
        <time>2026-07-08T12:19:58.000Z</time>
      </trkpt>
      <trkpt lat="45.78958" lon="1.88291">
        <ele>707.9</ele>
        <time>2026-07-08T12:19:59.000Z</time>
      </trkpt>
      <trkpt lat="45.78958" lon="1.88291">
        <ele>707.9</ele>
        <time>2026-07-08T12:20:00.000Z</time>
      </trkpt>
      <trkpt lat="45.78958" lon="1.88291">
        <ele>707.9</ele>
        <time>2026-07-08T12:20:01.000Z</time>
      </trkpt>
      <trkpt lat="45.78958" lon="1.88291">
        <ele>707.9</ele>
        <time>2026-07-08T12:20:02.000Z</time>
      </trkpt>
      <trkpt lat="45.78958" lon="1.88291">
        <ele>707.9</ele>
        <time>2026-07-08T12:20:03.000Z</time>
      </trkpt>
      <trkpt lat="45.78958" lon="1.88291">
        <ele>708.1</ele>
        <time>2026-07-08T12:20:04.000Z</time>
      </trkpt>
      <trkpt lat="45.78959" lon="1.88291">
        <ele>708.7</ele>
        <time>2026-07-08T12:20:05.000Z</time>
      </trkpt>
      <trkpt lat="45.78958" lon="1.88291">
        <ele>708.9</ele>
        <time>2026-07-08T12:20:06.000Z</time>
      </trkpt>
      <trkpt lat="45.78958" lon="1.88291">
        <ele>708.8</ele>
        <time>2026-07-08T12:20:07.000Z</time>
      </trkpt>
      <trkpt lat="45.78958" lon="1.88291">
        <ele>708.5</ele>
        <time>2026-07-08T12:20:08.000Z</time>
      </trkpt>
      <trkpt lat="45.78958" lon="1.88291">
        <ele>708.7</ele>
        <time>2026-07-08T12:20:09.000Z</time>
      </trkpt>
      <trkpt lat="45.78958" lon="1.88291">
        <ele>708.7</ele>
        <time>2026-07-08T12:20:10.000Z</time>
      </trkpt>
      <trkpt lat="45.78958" lon="1.88291">
        <ele>708.6</ele>
        <time>2026-07-08T12:20:11.000Z</time>
      </trkpt>
      <trkpt lat="45.78958" lon="1.88291">
        <ele>708.6</ele>
        <time>2026-07-08T12:20:12.000Z</time>
      </trkpt>
      <trkpt lat="45.78958" lon="1.8829">
        <ele>708.8</ele>
        <time>2026-07-08T12:20:13.000Z</time>
      </trkpt>
      <trkpt lat="45.78957" lon="1.8829">
        <ele>708.9</ele>
        <time>2026-07-08T12:20:14.000Z</time>
      </trkpt>
      <trkpt lat="45.78957" lon="1.8829">
        <ele>708.9</ele>
        <time>2026-07-08T12:20:15.000Z</time>
      </trkpt>
      <trkpt lat="45.78957" lon="1.8829">
        <ele>709</ele>
        <time>2026-07-08T12:20:16.000Z</time>
      </trkpt>
      <trkpt lat="45.78957" lon="1.8829">
        <ele>709</ele>
        <time>2026-07-08T12:20:17.000Z</time>
      </trkpt>
      <trkpt lat="45.78957" lon="1.8829">
        <ele>709</ele>
        <time>2026-07-08T12:20:18.000Z</time>
      </trkpt>
      <trkpt lat="45.78957" lon="1.8829">
        <ele>709</ele>
        <time>2026-07-08T12:20:19.000Z</time>
      </trkpt>
      <trkpt lat="45.78957" lon="1.8829">
        <ele>709</ele>
        <time>2026-07-08T12:20:20.000Z</time>
      </trkpt>
      <trkpt lat="45.78957" lon="1.8829">
        <ele>709</ele>
        <time>2026-07-08T12:20:21.000Z</time>
      </trkpt>
      <trkpt lat="45.78957" lon="1.8829">
        <ele>709</ele>
        <time>2026-07-08T12:20:22.000Z</time>
      </trkpt>
      <trkpt lat="45.78957" lon="1.8829">
        <ele>709</ele>
        <time>2026-07-08T12:20:23.000Z</time>
      </trkpt>
      <trkpt lat="45.78957" lon="1.8829">
        <ele>709</ele>
        <time>2026-07-08T12:20:24.000Z</time>
      </trkpt>
      <trkpt lat="45.78957" lon="1.8829">
        <ele>709</ele>
        <time>2026-07-08T12:20:25.000Z</time>
      </trkpt>
      <trkpt lat="45.78957" lon="1.8829">
        <ele>709</ele>
        <time>2026-07-08T12:20:26.000Z</time>
      </trkpt>
      <trkpt lat="45.78957" lon="1.8829">
        <ele>709</ele>
        <time>2026-07-08T12:20:27.000Z</time>
      </trkpt>
      <trkpt lat="45.78957" lon="1.8829">
        <ele>709</ele>
        <time>2026-07-08T12:20:28.000Z</time>
      </trkpt>
      <trkpt lat="45.78957" lon="1.8829">
        <ele>709</ele>
        <time>2026-07-08T12:20:29.000Z</time>
      </trkpt>
      <trkpt lat="45.78957" lon="1.8829">
        <ele>709</ele>
        <time>2026-07-08T12:20:30.000Z</time>
      </trkpt>
      <trkpt lat="45.78957" lon="1.8829">
        <ele>709</ele>
        <time>2026-07-08T12:20:31.000Z</time>
      </trkpt>
      <trkpt lat="45.78957" lon="1.8829">
        <ele>709</ele>
        <time>2026-07-08T12:20:32.000Z</time>
      </trkpt>
      <trkpt lat="45.78957" lon="1.8829">
        <ele>709</ele>
        <time>2026-07-08T12:20:33.000Z</time>
      </trkpt>
      <trkpt lat="45.78957" lon="1.8829">
        <ele>709</ele>
        <time>2026-07-08T12:20:34.000Z</time>
      </trkpt>
      <trkpt lat="45.78957" lon="1.8829">
        <ele>709</ele>
        <time>2026-07-08T12:20:35.000Z</time>
      </trkpt>
      <trkpt lat="45.78957" lon="1.8829">
        <ele>709</ele>
        <time>2026-07-08T12:20:36.000Z</time>
      </trkpt>
      <trkpt lat="45.78957" lon="1.8829">
        <ele>709</ele>
        <time>2026-07-08T12:20:37.000Z</time>
      </trkpt>
      <trkpt lat="45.78957" lon="1.8829">
        <ele>709</ele>
        <time>2026-07-08T12:20:38.000Z</time>
      </trkpt>
      <trkpt lat="45.78957" lon="1.8829">
        <ele>709</ele>
        <time>2026-07-08T12:20:39.000Z</time>
      </trkpt>
      <trkpt lat="45.78957" lon="1.8829">
        <ele>709</ele>
        <time>2026-07-08T12:20:40.000Z</time>
      </trkpt>
      <trkpt lat="45.78957" lon="1.8829">
        <ele>709</ele>
        <time>2026-07-08T12:20:41.000Z</time>
      </trkpt>
      <trkpt lat="45.78957" lon="1.8829">
        <ele>709</ele>
        <time>2026-07-08T12:20:42.000Z</time>
      </trkpt>
      <trkpt lat="45.78957" lon="1.8829">
        <ele>709</ele>
        <time>2026-07-08T12:20:43.000Z</time>
      </trkpt>
      <trkpt lat="45.78957" lon="1.8829">
        <ele>709</ele>
        <time>2026-07-08T12:20:44.000Z</time>
      </trkpt>
      <trkpt lat="45.78957" lon="1.8829">
        <ele>709</ele>
        <time>2026-07-08T12:20:45.000Z</time>
      </trkpt>
      <trkpt lat="45.78957" lon="1.8829">
        <ele>709</ele>
        <time>2026-07-08T12:20:46.000Z</time>
      </trkpt>
      <trkpt lat="45.78957" lon="1.8829">
        <ele>709</ele>
        <time>2026-07-08T12:20:47.000Z</time>
      </trkpt>
      <trkpt lat="45.78957" lon="1.8829">
        <ele>709</ele>
        <time>2026-07-08T12:20:48.000Z</time>
      </trkpt>
      <trkpt lat="45.78957" lon="1.8829">
        <ele>709</ele>
        <time>2026-07-08T12:20:49.000Z</time>
      </trkpt>
      <trkpt lat="45.78957" lon="1.8829">
        <ele>709</ele>
        <time>2026-07-08T12:20:50.000Z</time>
      </trkpt>
      <trkpt lat="45.78957" lon="1.8829">
        <ele>709</ele>
        <time>2026-07-08T12:20:51.000Z</time>
      </trkpt>
      <trkpt lat="45.78957" lon="1.8829">
        <ele>709</ele>
        <time>2026-07-08T12:20:52.000Z</time>
      </trkpt>
      <trkpt lat="45.78957" lon="1.8829">
        <ele>709</ele>
        <time>2026-07-08T12:20:53.000Z</time>
      </trkpt>
      <trkpt lat="45.78957" lon="1.8829">
        <ele>709</ele>
        <time>2026-07-08T12:20:54.000Z</time>
      </trkpt>
      <trkpt lat="45.78957" lon="1.8829">
        <ele>709</ele>
        <time>2026-07-08T12:20:55.000Z</time>
      </trkpt>
      <trkpt lat="45.78957" lon="1.8829">
        <ele>709</ele>
        <time>2026-07-08T12:20:56.000Z</time>
      </trkpt>
      <trkpt lat="45.78957" lon="1.8829">
        <ele>709</ele>
        <time>2026-07-08T12:20:57.000Z</time>
      </trkpt>
      <trkpt lat="45.78957" lon="1.8829">
        <ele>709</ele>
        <time>2026-07-08T12:20:58.000Z</time>
      </trkpt>
      <trkpt lat="45.78957" lon="1.8829">
        <ele>709</ele>
        <time>2026-07-08T12:20:59.000Z</time>
      </trkpt>
      <trkpt lat="45.78957" lon="1.8829">
        <ele>709</ele>
        <time>2026-07-08T12:21:00.000Z</time>
      </trkpt>
      <trkpt lat="45.78957" lon="1.8829">
        <ele>709</ele>
        <time>2026-07-08T12:21:01.000Z</time>
      </trkpt>
      <trkpt lat="45.78957" lon="1.8829">
        <ele>709</ele>
        <time>2026-07-08T12:21:02.000Z</time>
      </trkpt>
      <trkpt lat="45.78957" lon="1.8829">
        <ele>709</ele>
        <time>2026-07-08T12:21:03.000Z</time>
      </trkpt>
      <trkpt lat="45.78957" lon="1.8829">
        <ele>709</ele>
        <time>2026-07-08T12:21:04.000Z</time>
      </trkpt>
      <trkpt lat="45.78957" lon="1.8829">
        <ele>709</ele>
        <time>2026-07-08T12:21:05.000Z</time>
      </trkpt>
      <trkpt lat="45.78957" lon="1.8829">
        <ele>709</ele>
        <time>2026-07-08T12:21:06.000Z</time>
      </trkpt>
      <trkpt lat="45.78957" lon="1.8829">
        <ele>709</ele>
        <time>2026-07-08T12:21:07.000Z</time>
      </trkpt>
      <trkpt lat="45.78957" lon="1.8829">
        <ele>709</ele>
        <time>2026-07-08T12:21:08.000Z</time>
      </trkpt>
      <trkpt lat="45.78957" lon="1.8829">
        <ele>709</ele>
        <time>2026-07-08T12:21:09.000Z</time>
      </trkpt>
      <trkpt lat="45.78957" lon="1.8829">
        <ele>709</ele>
        <time>2026-07-08T12:21:10.000Z</time>
      </trkpt>
      <trkpt lat="45.78957" lon="1.8829">
        <ele>709</ele>
        <time>2026-07-08T12:21:11.000Z</time>
      </trkpt>
      <trkpt lat="45.78957" lon="1.8829">
        <ele>709</ele>
        <time>2026-07-08T12:21:12.000Z</time>
      </trkpt>
      <trkpt lat="45.78957" lon="1.8829">
        <ele>709</ele>
        <time>2026-07-08T12:21:13.000Z</time>
      </trkpt>
      <trkpt lat="45.78957" lon="1.8829">
        <ele>709</ele>
        <time>2026-07-08T12:21:14.000Z</time>
      </trkpt>
      <trkpt lat="45.78957" lon="1.8829">
        <ele>709</ele>
        <time>2026-07-08T12:21:15.000Z</time>
      </trkpt>
      <trkpt lat="45.78957" lon="1.8829">
        <ele>709</ele>
        <time>2026-07-08T12:21:16.000Z</time>
      </trkpt>
      <trkpt lat="45.78957" lon="1.8829">
        <ele>709</ele>
        <time>2026-07-08T12:21:17.000Z</time>
      </trkpt>
      <trkpt lat="45.78957" lon="1.8829">
        <ele>709</ele>
        <time>2026-07-08T12:21:18.000Z</time>
      </trkpt>
      <trkpt lat="45.78957" lon="1.8829">
        <ele>709</ele>
        <time>2026-07-08T12:21:19.000Z</time>
      </trkpt>
      <trkpt lat="45.78957" lon="1.8829">
        <ele>709.1</ele>
        <time>2026-07-08T12:21:20.000Z</time>
      </trkpt>
      <trkpt lat="45.78957" lon="1.8829">
        <ele>709.1</ele>
        <time>2026-07-08T12:21:21.000Z</time>
      </trkpt>
      <trkpt lat="45.78957" lon="1.8829">
        <ele>709.1</ele>
        <time>2026-07-08T12:21:22.000Z</time>
      </trkpt>
      <trkpt lat="45.78957" lon="1.8829">
        <ele>709.1</ele>
        <time>2026-07-08T12:21:23.000Z</time>
      </trkpt>
      <trkpt lat="45.78957" lon="1.8829">
        <ele>709.1</ele>
        <time>2026-07-08T12:21:24.000Z</time>
      </trkpt>
      <trkpt lat="45.78958" lon="1.88292">
        <ele>709.7</ele>
        <time>2026-07-08T12:21:25.000Z</time>
      </trkpt>
      <trkpt lat="45.78957" lon="1.88292">
        <ele>711</ele>
        <time>2026-07-08T12:21:26.000Z</time>
      </trkpt>
      <trkpt lat="45.78957" lon="1.88291">
        <ele>711</ele>
        <time>2026-07-08T12:21:27.000Z</time>
      </trkpt>
      <trkpt lat="45.78957" lon="1.88291">
        <ele>711</ele>
        <time>2026-07-08T12:21:28.000Z</time>
      </trkpt>
      <trkpt lat="45.78957" lon="1.8829">
        <ele>711.1</ele>
        <time>2026-07-08T12:21:29.000Z</time>
      </trkpt>
      <trkpt lat="45.78957" lon="1.8829">
        <ele>711</ele>
        <time>2026-07-08T12:21:30.000Z</time>
      </trkpt>
      <trkpt lat="45.78957" lon="1.8829">
        <ele>711.3</ele>
        <time>2026-07-08T12:21:31.000Z</time>
      </trkpt>
      <trkpt lat="45.78957" lon="1.8829">
        <ele>710.9</ele>
        <time>2026-07-08T12:21:32.000Z</time>
      </trkpt>
      <trkpt lat="45.78957" lon="1.88291">
        <ele>710.7</ele>
        <time>2026-07-08T12:21:33.000Z</time>
      </trkpt>
      <trkpt lat="45.78957" lon="1.8829">
        <ele>710.4</ele>
        <time>2026-07-08T12:21:34.000Z</time>
      </trkpt>
      <trkpt lat="45.78957" lon="1.8829">
        <ele>710.4</ele>
        <time>2026-07-08T12:21:35.000Z</time>
      </trkpt>
      <trkpt lat="45.78957" lon="1.8829">
        <ele>710.4</ele>
        <time>2026-07-08T12:21:36.000Z</time>
      </trkpt>
      <trkpt lat="45.78957" lon="1.8829">
        <ele>710.3</ele>
        <time>2026-07-08T12:21:37.000Z</time>
      </trkpt>
      <trkpt lat="45.78957" lon="1.8829">
        <ele>710.2</ele>
        <time>2026-07-08T12:21:38.000Z</time>
      </trkpt>
      <trkpt lat="45.78957" lon="1.8829">
        <ele>710.2</ele>
        <time>2026-07-08T12:21:39.000Z</time>
      </trkpt>
      <trkpt lat="45.78957" lon="1.8829">
        <ele>710.2</ele>
        <time>2026-07-08T12:21:40.000Z</time>
      </trkpt>
      <trkpt lat="45.78957" lon="1.8829">
        <ele>710.2</ele>
        <time>2026-07-08T12:21:41.000Z</time>
      </trkpt>
      <trkpt lat="45.78957" lon="1.8829">
        <ele>710.2</ele>
        <time>2026-07-08T12:21:42.000Z</time>
      </trkpt>
      <trkpt lat="45.78957" lon="1.8829">
        <ele>710.2</ele>
        <time>2026-07-08T12:21:43.000Z</time>
      </trkpt>
      <trkpt lat="45.78957" lon="1.8829">
        <ele>710.2</ele>
        <time>2026-07-08T12:21:44.000Z</time>
      </trkpt>
      <trkpt lat="45.78957" lon="1.8829">
        <ele>710.2</ele>
        <time>2026-07-08T12:21:45.000Z</time>
      </trkpt>
      <trkpt lat="45.78957" lon="1.8829">
        <ele>710.2</ele>
        <time>2026-07-08T12:21:46.000Z</time>
      </trkpt>
      <trkpt lat="45.78957" lon="1.88291">
        <ele>710</ele>
        <time>2026-07-08T12:21:47.000Z</time>
      </trkpt>
      <trkpt lat="45.78957" lon="1.88291">
        <ele>710</ele>
        <time>2026-07-08T12:21:48.000Z</time>
      </trkpt>
      <trkpt lat="45.78957" lon="1.88291">
        <ele>709.9</ele>
        <time>2026-07-08T12:21:49.000Z</time>
      </trkpt>
      <trkpt lat="45.78957" lon="1.88291">
        <ele>709.8</ele>
        <time>2026-07-08T12:21:50.000Z</time>
      </trkpt>
      <trkpt lat="45.78957" lon="1.88291">
        <ele>709.8</ele>
        <time>2026-07-08T12:21:51.000Z</time>
      </trkpt>
      <trkpt lat="45.78957" lon="1.88291">
        <ele>709.8</ele>
        <time>2026-07-08T12:21:52.000Z</time>
      </trkpt>
      <trkpt lat="45.78957" lon="1.88291">
        <ele>709.8</ele>
        <time>2026-07-08T12:21:53.000Z</time>
      </trkpt>
      <trkpt lat="45.78957" lon="1.88291">
        <ele>709.8</ele>
        <time>2026-07-08T12:21:54.000Z</time>
      </trkpt>
      <trkpt lat="45.78957" lon="1.88291">
        <ele>709.8</ele>
        <time>2026-07-08T12:21:55.000Z</time>
      </trkpt>
      <trkpt lat="45.78957" lon="1.88291">
        <ele>709.8</ele>
        <time>2026-07-08T12:21:56.000Z</time>
      </trkpt>
      <trkpt lat="45.78957" lon="1.88291">
        <ele>709.8</ele>
        <time>2026-07-08T12:21:57.000Z</time>
      </trkpt>
      <trkpt lat="45.78957" lon="1.88291">
        <ele>709.8</ele>
        <time>2026-07-08T12:21:58.000Z</time>
      </trkpt>
      <trkpt lat="45.78957" lon="1.88291">
        <ele>709.8</ele>
        <time>2026-07-08T12:21:59.000Z</time>
      </trkpt>
      <trkpt lat="45.78957" lon="1.88291">
        <ele>709.8</ele>
        <time>2026-07-08T12:22:00.000Z</time>
      </trkpt>
      <trkpt lat="45.78957" lon="1.88291">
        <ele>709.8</ele>
        <time>2026-07-08T12:22:01.000Z</time>
      </trkpt>
      <trkpt lat="45.78957" lon="1.88291">
        <ele>709.8</ele>
        <time>2026-07-08T12:22:02.000Z</time>
      </trkpt>
      <trkpt lat="45.78957" lon="1.88291">
        <ele>709.8</ele>
        <time>2026-07-08T12:22:03.000Z</time>
      </trkpt>
      <trkpt lat="45.78957" lon="1.88291">
        <ele>709.8</ele>
        <time>2026-07-08T12:22:04.000Z</time>
      </trkpt>
      <trkpt lat="45.78957" lon="1.88291">
        <ele>709.8</ele>
        <time>2026-07-08T12:22:05.000Z</time>
      </trkpt>
      <trkpt lat="45.78957" lon="1.88291">
        <ele>709.8</ele>
        <time>2026-07-08T12:22:06.000Z</time>
      </trkpt>
      <trkpt lat="45.78957" lon="1.88291">
        <ele>709.8</ele>
        <time>2026-07-08T12:22:07.000Z</time>
      </trkpt>
      <trkpt lat="45.78957" lon="1.88291">
        <ele>709.8</ele>
        <time>2026-07-08T12:22:08.000Z</time>
      </trkpt>
      <trkpt lat="45.78957" lon="1.88291">
        <ele>709.8</ele>
        <time>2026-07-08T12:22:09.000Z</time>
      </trkpt>
      <trkpt lat="45.78957" lon="1.88291">
        <ele>709.8</ele>
        <time>2026-07-08T12:22:10.000Z</time>
      </trkpt>
      <trkpt lat="45.78957" lon="1.88291">
        <ele>709.8</ele>
        <time>2026-07-08T12:22:11.000Z</time>
      </trkpt>
      <trkpt lat="45.78957" lon="1.88291">
        <ele>709.8</ele>
        <time>2026-07-08T12:22:12.000Z</time>
      </trkpt>
      <trkpt lat="45.78957" lon="1.88291">
        <ele>709.8</ele>
        <time>2026-07-08T12:22:13.000Z</time>
      </trkpt>
      <trkpt lat="45.78957" lon="1.88291">
        <ele>709.8</ele>
        <time>2026-07-08T12:22:14.000Z</time>
      </trkpt>
      <trkpt lat="45.78957" lon="1.88291">
        <ele>709.8</ele>
        <time>2026-07-08T12:22:15.000Z</time>
      </trkpt>
      <trkpt lat="45.78957" lon="1.88291">
        <ele>709.8</ele>
        <time>2026-07-08T12:22:16.000Z</time>
      </trkpt>
      <trkpt lat="45.78957" lon="1.88291">
        <ele>709.8</ele>
        <time>2026-07-08T12:22:17.000Z</time>
      </trkpt>
      <trkpt lat="45.78957" lon="1.88291">
        <ele>709.8</ele>
        <time>2026-07-08T12:22:18.000Z</time>
      </trkpt>
      <trkpt lat="45.78957" lon="1.88291">
        <ele>709.8</ele>
        <time>2026-07-08T12:22:19.000Z</time>
      </trkpt>
      <trkpt lat="45.78957" lon="1.88291">
        <ele>709.8</ele>
        <time>2026-07-08T12:22:20.000Z</time>
      </trkpt>
      <trkpt lat="45.78957" lon="1.88291">
        <ele>709.7</ele>
        <time>2026-07-08T12:22:21.000Z</time>
      </trkpt>
      <trkpt lat="45.78957" lon="1.88291">
        <ele>709.8</ele>
        <time>2026-07-08T12:22:22.000Z</time>
      </trkpt>
      <trkpt lat="45.78957" lon="1.88291">
        <ele>709.8</ele>
        <time>2026-07-08T12:22:23.000Z</time>
      </trkpt>
      <trkpt lat="45.78957" lon="1.88291">
        <ele>709.8</ele>
        <time>2026-07-08T12:22:24.000Z</time>
      </trkpt>
      <trkpt lat="45.78957" lon="1.88291">
        <ele>709.8</ele>
        <time>2026-07-08T12:22:25.000Z</time>
      </trkpt>
      <trkpt lat="45.78957" lon="1.88291">
        <ele>709.8</ele>
        <time>2026-07-08T12:22:26.000Z</time>
      </trkpt>
      <trkpt lat="45.78957" lon="1.88291">
        <ele>709.8</ele>
        <time>2026-07-08T12:22:27.000Z</time>
      </trkpt>
      <trkpt lat="45.78957" lon="1.88291">
        <ele>709.8</ele>
        <time>2026-07-08T12:22:28.000Z</time>
      </trkpt>
      <trkpt lat="45.78957" lon="1.88291">
        <ele>709.8</ele>
        <time>2026-07-08T12:22:29.000Z</time>
      </trkpt>
      <trkpt lat="45.78957" lon="1.88291">
        <ele>709.8</ele>
        <time>2026-07-08T12:22:30.000Z</time>
      </trkpt>
      <trkpt lat="45.78957" lon="1.88291">
        <ele>709.8</ele>
        <time>2026-07-08T12:22:31.000Z</time>
      </trkpt>
      <trkpt lat="45.78957" lon="1.88291">
        <ele>709.8</ele>
        <time>2026-07-08T12:22:32.000Z</time>
      </trkpt>
      <trkpt lat="45.78957" lon="1.88291">
        <ele>709.8</ele>
        <time>2026-07-08T12:22:33.000Z</time>
      </trkpt>
      <trkpt lat="45.78957" lon="1.88291">
        <ele>709.8</ele>
        <time>2026-07-08T12:22:34.000Z</time>
      </trkpt>
      <trkpt lat="45.78957" lon="1.88291">
        <ele>709.8</ele>
        <time>2026-07-08T12:22:35.000Z</time>
      </trkpt>
      <trkpt lat="45.78957" lon="1.88291">
        <ele>709.8</ele>
        <time>2026-07-08T12:22:36.000Z</time>
      </trkpt>
      <trkpt lat="45.78957" lon="1.88291">
        <ele>709.8</ele>
        <time>2026-07-08T12:22:37.000Z</time>
      </trkpt>
      <trkpt lat="45.78957" lon="1.88291">
        <ele>709.7</ele>
        <time>2026-07-08T12:22:38.000Z</time>
      </trkpt>
      <trkpt lat="45.78957" lon="1.88291">
        <ele>709.7</ele>
        <time>2026-07-08T12:22:39.000Z</time>
      </trkpt>
      <trkpt lat="45.78957" lon="1.88291">
        <ele>709.7</ele>
        <time>2026-07-08T12:22:40.000Z</time>
      </trkpt>
      <trkpt lat="45.78957" lon="1.88291">
        <ele>709.7</ele>
        <time>2026-07-08T12:22:41.000Z</time>
      </trkpt>
      <trkpt lat="45.78957" lon="1.88291">
        <ele>709.7</ele>
        <time>2026-07-08T12:22:42.000Z</time>
      </trkpt>
      <trkpt lat="45.78957" lon="1.88291">
        <ele>709.7</ele>
        <time>2026-07-08T12:22:43.000Z</time>
      </trkpt>
      <trkpt lat="45.78957" lon="1.88291">
        <ele>709.8</ele>
        <time>2026-07-08T12:22:44.000Z</time>
      </trkpt>
      <trkpt lat="45.78957" lon="1.88291">
        <ele>709.7</ele>
        <time>2026-07-08T12:22:45.000Z</time>
      </trkpt>
      <trkpt lat="45.78957" lon="1.88291">
        <ele>709.7</ele>
        <time>2026-07-08T12:22:46.000Z</time>
      </trkpt>
      <trkpt lat="45.78957" lon="1.88291">
        <ele>709.8</ele>
        <time>2026-07-08T12:22:47.000Z</time>
      </trkpt>
      <trkpt lat="45.78957" lon="1.88291">
        <ele>709.8</ele>
        <time>2026-07-08T12:22:48.000Z</time>
      </trkpt>
      <trkpt lat="45.78957" lon="1.8829">
        <ele>708.7</ele>
        <time>2026-07-08T12:22:49.000Z</time>
      </trkpt>
      <trkpt lat="45.78956" lon="1.8829">
        <ele>709.5</ele>
        <time>2026-07-08T12:22:50.000Z</time>
      </trkpt>
      <trkpt lat="45.78957" lon="1.88291">
        <ele>710.5</ele>
        <time>2026-07-08T12:22:51.000Z</time>
      </trkpt>
      <trkpt lat="45.78957" lon="1.88291">
        <ele>710.5</ele>
        <time>2026-07-08T12:22:52.000Z</time>
      </trkpt>
      <trkpt lat="45.78957" lon="1.88291">
        <ele>710.8</ele>
        <time>2026-07-08T12:22:53.000Z</time>
      </trkpt>
      <trkpt lat="45.78957" lon="1.88291">
        <ele>710.7</ele>
        <time>2026-07-08T12:22:54.000Z</time>
      </trkpt>
      <trkpt lat="45.78958" lon="1.88291">
        <ele>710.6</ele>
        <time>2026-07-08T12:22:55.000Z</time>
      </trkpt>
      <trkpt lat="45.78958" lon="1.88291">
        <ele>710.5</ele>
        <time>2026-07-08T12:22:56.000Z</time>
      </trkpt>
      <trkpt lat="45.78958" lon="1.8829">
        <ele>710.5</ele>
        <time>2026-07-08T12:22:57.000Z</time>
      </trkpt>
      <trkpt lat="45.78958" lon="1.8829">
        <ele>710.1</ele>
        <time>2026-07-08T12:22:58.000Z</time>
      </trkpt>
      <trkpt lat="45.78958" lon="1.8829">
        <ele>710</ele>
        <time>2026-07-08T12:22:59.000Z</time>
      </trkpt>
      <trkpt lat="45.78958" lon="1.8829">
        <ele>709.7</ele>
        <time>2026-07-08T12:23:00.000Z</time>
      </trkpt>
      <trkpt lat="45.78958" lon="1.88289">
        <ele>709.6</ele>
        <time>2026-07-08T12:23:01.000Z</time>
      </trkpt>
      <trkpt lat="45.78958" lon="1.88289">
        <ele>709.6</ele>
        <time>2026-07-08T12:23:02.000Z</time>
      </trkpt>
      <trkpt lat="45.78958" lon="1.88289">
        <ele>709.5</ele>
        <time>2026-07-08T12:23:03.000Z</time>
      </trkpt>
      <trkpt lat="45.78958" lon="1.88289">
        <ele>709.5</ele>
        <time>2026-07-08T12:23:04.000Z</time>
      </trkpt>
      <trkpt lat="45.78958" lon="1.88289">
        <ele>709.5</ele>
        <time>2026-07-08T12:23:05.000Z</time>
      </trkpt>
      <trkpt lat="45.78958" lon="1.88289">
        <ele>709.5</ele>
        <time>2026-07-08T12:23:06.000Z</time>
      </trkpt>
      <trkpt lat="45.78958" lon="1.88289">
        <ele>709.5</ele>
        <time>2026-07-08T12:23:07.000Z</time>
      </trkpt>
      <trkpt lat="45.78958" lon="1.88289">
        <ele>709.5</ele>
        <time>2026-07-08T12:23:08.000Z</time>
      </trkpt>
      <trkpt lat="45.78958" lon="1.88289">
        <ele>709.5</ele>
        <time>2026-07-08T12:23:09.000Z</time>
      </trkpt>
      <trkpt lat="45.78958" lon="1.88289">
        <ele>709.5</ele>
        <time>2026-07-08T12:23:10.000Z</time>
      </trkpt>
      <trkpt lat="45.78958" lon="1.88289">
        <ele>709.5</ele>
        <time>2026-07-08T12:23:11.000Z</time>
      </trkpt>
      <trkpt lat="45.78958" lon="1.88289">
        <ele>709.5</ele>
        <time>2026-07-08T12:23:12.000Z</time>
      </trkpt>
      <trkpt lat="45.78958" lon="1.88289">
        <ele>709.5</ele>
        <time>2026-07-08T12:23:13.000Z</time>
      </trkpt>
      <trkpt lat="45.78958" lon="1.88289">
        <ele>709.5</ele>
        <time>2026-07-08T12:23:14.000Z</time>
      </trkpt>
      <trkpt lat="45.78958" lon="1.88289">
        <ele>709.5</ele>
        <time>2026-07-08T12:23:15.000Z</time>
      </trkpt>
      <trkpt lat="45.78958" lon="1.88289">
        <ele>709.5</ele>
        <time>2026-07-08T12:23:16.000Z</time>
      </trkpt>
      <trkpt lat="45.78958" lon="1.88289">
        <ele>709.5</ele>
        <time>2026-07-08T12:23:17.000Z</time>
      </trkpt>
      <trkpt lat="45.78958" lon="1.88289">
        <ele>709.5</ele>
        <time>2026-07-08T12:23:18.000Z</time>
      </trkpt>
      <trkpt lat="45.78958" lon="1.88289">
        <ele>709.5</ele>
        <time>2026-07-08T12:23:19.000Z</time>
      </trkpt>
      <trkpt lat="45.78958" lon="1.88289">
        <ele>709.5</ele>
        <time>2026-07-08T12:23:20.000Z</time>
      </trkpt>
      <trkpt lat="45.78958" lon="1.88289">
        <ele>709.5</ele>
        <time>2026-07-08T12:23:21.000Z</time>
      </trkpt>
      <trkpt lat="45.78958" lon="1.88289">
        <ele>709.5</ele>
        <time>2026-07-08T12:23:22.000Z</time>
      </trkpt>
      <trkpt lat="45.78958" lon="1.88289">
        <ele>709.5</ele>
        <time>2026-07-08T12:23:23.000Z</time>
      </trkpt>
      <trkpt lat="45.78958" lon="1.88289">
        <ele>709.5</ele>
        <time>2026-07-08T12:23:24.000Z</time>
      </trkpt>
      <trkpt lat="45.78958" lon="1.88289">
        <ele>709.5</ele>
        <time>2026-07-08T12:23:25.000Z</time>
      </trkpt>
      <trkpt lat="45.78958" lon="1.88289">
        <ele>709.5</ele>
        <time>2026-07-08T12:23:26.000Z</time>
      </trkpt>
      <trkpt lat="45.78958" lon="1.88289">
        <ele>709.5</ele>
        <time>2026-07-08T12:23:27.000Z</time>
      </trkpt>
      <trkpt lat="45.78958" lon="1.88289">
        <ele>709.5</ele>
        <time>2026-07-08T12:23:28.000Z</time>
      </trkpt>
      <trkpt lat="45.78958" lon="1.88289">
        <ele>709.5</ele>
        <time>2026-07-08T12:23:29.000Z</time>
      </trkpt>
      <trkpt lat="45.78958" lon="1.88289">
        <ele>709.5</ele>
        <time>2026-07-08T12:23:30.000Z</time>
      </trkpt>
      <trkpt lat="45.78958" lon="1.88289">
        <ele>709.5</ele>
        <time>2026-07-08T12:23:31.000Z</time>
      </trkpt>
      <trkpt lat="45.78958" lon="1.88289">
        <ele>709.5</ele>
        <time>2026-07-08T12:23:32.000Z</time>
      </trkpt>
      <trkpt lat="45.78958" lon="1.88289">
        <ele>709.5</ele>
        <time>2026-07-08T12:23:33.000Z</time>
      </trkpt>
      <trkpt lat="45.78958" lon="1.88289">
        <ele>709.5</ele>
        <time>2026-07-08T12:23:34.000Z</time>
      </trkpt>
      <trkpt lat="45.78958" lon="1.88289">
        <ele>709.5</ele>
        <time>2026-07-08T12:23:35.000Z</time>
      </trkpt>
      <trkpt lat="45.78958" lon="1.88289">
        <ele>709.5</ele>
        <time>2026-07-08T12:23:36.000Z</time>
      </trkpt>
      <trkpt lat="45.78958" lon="1.88289">
        <ele>709.5</ele>
        <time>2026-07-08T12:23:37.000Z</time>
      </trkpt>
      <trkpt lat="45.78958" lon="1.88289">
        <ele>709.5</ele>
        <time>2026-07-08T12:23:38.000Z</time>
      </trkpt>
      <trkpt lat="45.78958" lon="1.88289">
        <ele>709.5</ele>
        <time>2026-07-08T12:23:39.000Z</time>
      </trkpt>
      <trkpt lat="45.78958" lon="1.88289">
        <ele>709.5</ele>
        <time>2026-07-08T12:23:40.000Z</time>
      </trkpt>
      <trkpt lat="45.78958" lon="1.88289">
        <ele>709.5</ele>
        <time>2026-07-08T12:23:41.000Z</time>
      </trkpt>
      <trkpt lat="45.78958" lon="1.88289">
        <ele>709.5</ele>
        <time>2026-07-08T12:23:42.000Z</time>
      </trkpt>
      <trkpt lat="45.78958" lon="1.88289">
        <ele>709.5</ele>
        <time>2026-07-08T12:23:43.000Z</time>
      </trkpt>
      <trkpt lat="45.78958" lon="1.88289">
        <ele>709.5</ele>
        <time>2026-07-08T12:23:44.000Z</time>
      </trkpt>
      <trkpt lat="45.78958" lon="1.88289">
        <ele>709.5</ele>
        <time>2026-07-08T12:23:45.000Z</time>
      </trkpt>
      <trkpt lat="45.78958" lon="1.88289">
        <ele>709.5</ele>
        <time>2026-07-08T12:23:46.000Z</time>
      </trkpt>
      <trkpt lat="45.78958" lon="1.88289">
        <ele>709.5</ele>
        <time>2026-07-08T12:23:47.000Z</time>
      </trkpt>
      <trkpt lat="45.78958" lon="1.88289">
        <ele>709.5</ele>
        <time>2026-07-08T12:23:48.000Z</time>
      </trkpt>
      <trkpt lat="45.78958" lon="1.88289">
        <ele>709.5</ele>
        <time>2026-07-08T12:23:49.000Z</time>
      </trkpt>
      <trkpt lat="45.78958" lon="1.88289">
        <ele>709.5</ele>
        <time>2026-07-08T12:23:50.000Z</time>
      </trkpt>
      <trkpt lat="45.78958" lon="1.88289">
        <ele>709.5</ele>
        <time>2026-07-08T12:23:51.000Z</time>
      </trkpt>
      <trkpt lat="45.78958" lon="1.88289">
        <ele>709.5</ele>
        <time>2026-07-08T12:23:52.000Z</time>
      </trkpt>
      <trkpt lat="45.78958" lon="1.88289">
        <ele>709.5</ele>
        <time>2026-07-08T12:23:53.000Z</time>
      </trkpt>
      <trkpt lat="45.78958" lon="1.88289">
        <ele>709.5</ele>
        <time>2026-07-08T12:23:54.000Z</time>
      </trkpt>
      <trkpt lat="45.78958" lon="1.88289">
        <ele>709.5</ele>
        <time>2026-07-08T12:23:55.000Z</time>
      </trkpt>
      <trkpt lat="45.78958" lon="1.88289">
        <ele>709.5</ele>
        <time>2026-07-08T12:23:56.000Z</time>
      </trkpt>
      <trkpt lat="45.78958" lon="1.88289">
        <ele>709.5</ele>
        <time>2026-07-08T12:23:57.000Z</time>
      </trkpt>
      <trkpt lat="45.78958" lon="1.88289">
        <ele>708.6</ele>
        <time>2026-07-08T12:23:58.000Z</time>
      </trkpt>
      <trkpt lat="45.78958" lon="1.88289">
        <ele>708.7</ele>
        <time>2026-07-08T12:23:59.000Z</time>
      </trkpt>
      <trkpt lat="45.78958" lon="1.88289">
        <ele>708.5</ele>
        <time>2026-07-08T12:24:00.000Z</time>
      </trkpt>
      <trkpt lat="45.78958" lon="1.88289">
        <ele>708.6</ele>
        <time>2026-07-08T12:24:01.000Z</time>
      </trkpt>
      <trkpt lat="45.78958" lon="1.88289">
        <ele>708.6</ele>
        <time>2026-07-08T12:24:02.000Z</time>
      </trkpt>
      <trkpt lat="45.78958" lon="1.88289">
        <ele>708.4</ele>
        <time>2026-07-08T12:24:03.000Z</time>
      </trkpt>
      <trkpt lat="45.78958" lon="1.88289">
        <ele>708.5</ele>
        <time>2026-07-08T12:24:04.000Z</time>
      </trkpt>
      <trkpt lat="45.78958" lon="1.88289">
        <ele>708.2</ele>
        <time>2026-07-08T12:24:05.000Z</time>
      </trkpt>
      <trkpt lat="45.78957" lon="1.88289">
        <ele>708.2</ele>
        <time>2026-07-08T12:24:06.000Z</time>
      </trkpt>
      <trkpt lat="45.78957" lon="1.88289">
        <ele>708.3</ele>
        <time>2026-07-08T12:24:07.000Z</time>
      </trkpt>
      <trkpt lat="45.78957" lon="1.88289">
        <ele>708.3</ele>
        <time>2026-07-08T12:24:08.000Z</time>
      </trkpt>
      <trkpt lat="45.78957" lon="1.88289">
        <ele>708.4</ele>
        <time>2026-07-08T12:24:09.000Z</time>
      </trkpt>
      <trkpt lat="45.78957" lon="1.88289">
        <ele>708.5</ele>
        <time>2026-07-08T12:24:10.000Z</time>
      </trkpt>
      <trkpt lat="45.78957" lon="1.88289">
        <ele>708.5</ele>
        <time>2026-07-08T12:24:11.000Z</time>
      </trkpt>
      <trkpt lat="45.78957" lon="1.88289">
        <ele>708.5</ele>
        <time>2026-07-08T12:24:12.000Z</time>
      </trkpt>
      <trkpt lat="45.78957" lon="1.88289">
        <ele>708.5</ele>
        <time>2026-07-08T12:24:13.000Z</time>
      </trkpt>
      <trkpt lat="45.78957" lon="1.88289">
        <ele>708.5</ele>
        <time>2026-07-08T12:24:14.000Z</time>
      </trkpt>
      <trkpt lat="45.78957" lon="1.88289">
        <ele>708.5</ele>
        <time>2026-07-08T12:24:15.000Z</time>
      </trkpt>
      <trkpt lat="45.78957" lon="1.88289">
        <ele>708.5</ele>
        <time>2026-07-08T12:24:16.000Z</time>
      </trkpt>
      <trkpt lat="45.78957" lon="1.88289">
        <ele>708.5</ele>
        <time>2026-07-08T12:24:17.000Z</time>
      </trkpt>
      <trkpt lat="45.78957" lon="1.88289">
        <ele>708.5</ele>
        <time>2026-07-08T12:24:18.000Z</time>
      </trkpt>
      <trkpt lat="45.78957" lon="1.88289">
        <ele>708.5</ele>
        <time>2026-07-08T12:24:19.000Z</time>
      </trkpt>
      <trkpt lat="45.78957" lon="1.88289">
        <ele>708.5</ele>
        <time>2026-07-08T12:24:20.000Z</time>
      </trkpt>
      <trkpt lat="45.78957" lon="1.88289">
        <ele>708.5</ele>
        <time>2026-07-08T12:24:21.000Z</time>
      </trkpt>
      <trkpt lat="45.78957" lon="1.88289">
        <ele>708.4</ele>
        <time>2026-07-08T12:24:22.000Z</time>
      </trkpt>
      <trkpt lat="45.78957" lon="1.8829">
        <ele>708.4</ele>
        <time>2026-07-08T12:24:23.000Z</time>
      </trkpt>
      <trkpt lat="45.78957" lon="1.8829">
        <ele>708.4</ele>
        <time>2026-07-08T12:24:24.000Z</time>
      </trkpt>
      <trkpt lat="45.78957" lon="1.8829">
        <ele>708.4</ele>
        <time>2026-07-08T12:24:25.000Z</time>
      </trkpt>
      <trkpt lat="45.78957" lon="1.8829">
        <ele>708.4</ele>
        <time>2026-07-08T12:24:26.000Z</time>
      </trkpt>
      <trkpt lat="45.78957" lon="1.8829">
        <ele>708.4</ele>
        <time>2026-07-08T12:24:27.000Z</time>
      </trkpt>
      <trkpt lat="45.78957" lon="1.8829">
        <ele>708.4</ele>
        <time>2026-07-08T12:24:28.000Z</time>
      </trkpt>
      <trkpt lat="45.78957" lon="1.8829">
        <ele>708.4</ele>
        <time>2026-07-08T12:24:29.000Z</time>
      </trkpt>
      <trkpt lat="45.78957" lon="1.8829">
        <ele>708.4</ele>
        <time>2026-07-08T12:24:30.000Z</time>
      </trkpt>
      <trkpt lat="45.78957" lon="1.8829">
        <ele>708.4</ele>
        <time>2026-07-08T12:24:31.000Z</time>
      </trkpt>
      <trkpt lat="45.78957" lon="1.8829">
        <ele>708.4</ele>
        <time>2026-07-08T12:24:32.000Z</time>
      </trkpt>
      <trkpt lat="45.78957" lon="1.8829">
        <ele>708.4</ele>
        <time>2026-07-08T12:24:33.000Z</time>
      </trkpt>
      <trkpt lat="45.78957" lon="1.8829">
        <ele>708.4</ele>
        <time>2026-07-08T12:24:34.000Z</time>
      </trkpt>
      <trkpt lat="45.78957" lon="1.8829">
        <ele>708.4</ele>
        <time>2026-07-08T12:24:35.000Z</time>
      </trkpt>
      <trkpt lat="45.78957" lon="1.8829">
        <ele>708.4</ele>
        <time>2026-07-08T12:24:36.000Z</time>
      </trkpt>
      <trkpt lat="45.78957" lon="1.8829">
        <ele>708.4</ele>
        <time>2026-07-08T12:24:37.000Z</time>
      </trkpt>
      <trkpt lat="45.78957" lon="1.8829">
        <ele>708.4</ele>
        <time>2026-07-08T12:24:38.000Z</time>
      </trkpt>
      <trkpt lat="45.78957" lon="1.8829">
        <ele>708.4</ele>
        <time>2026-07-08T12:24:39.000Z</time>
      </trkpt>
      <trkpt lat="45.78957" lon="1.8829">
        <ele>708.4</ele>
        <time>2026-07-08T12:24:40.000Z</time>
      </trkpt>
      <trkpt lat="45.78957" lon="1.8829">
        <ele>708.4</ele>
        <time>2026-07-08T12:24:41.000Z</time>
      </trkpt>
      <trkpt lat="45.78957" lon="1.8829">
        <ele>708.4</ele>
        <time>2026-07-08T12:24:42.000Z</time>
      </trkpt>
      <trkpt lat="45.78957" lon="1.8829">
        <ele>708.4</ele>
        <time>2026-07-08T12:24:43.000Z</time>
      </trkpt>
      <trkpt lat="45.78957" lon="1.8829">
        <ele>708.4</ele>
        <time>2026-07-08T12:24:44.000Z</time>
      </trkpt>
      <trkpt lat="45.78957" lon="1.8829">
        <ele>708.4</ele>
        <time>2026-07-08T12:24:45.000Z</time>
      </trkpt>
      <trkpt lat="45.78957" lon="1.8829">
        <ele>708.4</ele>
        <time>2026-07-08T12:24:46.000Z</time>
      </trkpt>
      <trkpt lat="45.78957" lon="1.8829">
        <ele>708.4</ele>
        <time>2026-07-08T12:24:47.000Z</time>
      </trkpt>
      <trkpt lat="45.78957" lon="1.8829">
        <ele>708.3</ele>
        <time>2026-07-08T12:24:48.000Z</time>
      </trkpt>
      <trkpt lat="45.78957" lon="1.8829">
        <ele>708.3</ele>
        <time>2026-07-08T12:24:49.000Z</time>
      </trkpt>
      <trkpt lat="45.78957" lon="1.8829">
        <ele>708.3</ele>
        <time>2026-07-08T12:24:50.000Z</time>
      </trkpt>
      <trkpt lat="45.78957" lon="1.8829">
        <ele>708.3</ele>
        <time>2026-07-08T12:24:51.000Z</time>
      </trkpt>
      <trkpt lat="45.78957" lon="1.8829">
        <ele>708.3</ele>
        <time>2026-07-08T12:24:52.000Z</time>
      </trkpt>
      <trkpt lat="45.78957" lon="1.8829">
        <ele>708.3</ele>
        <time>2026-07-08T12:24:53.000Z</time>
      </trkpt>
      <trkpt lat="45.78957" lon="1.8829">
        <ele>708.3</ele>
        <time>2026-07-08T12:24:54.000Z</time>
      </trkpt>
      <trkpt lat="45.78957" lon="1.8829">
        <ele>708.3</ele>
        <time>2026-07-08T12:24:55.000Z</time>
      </trkpt>
      <trkpt lat="45.78957" lon="1.8829">
        <ele>708.3</ele>
        <time>2026-07-08T12:24:56.000Z</time>
      </trkpt>
      <trkpt lat="45.78957" lon="1.8829">
        <ele>708.3</ele>
        <time>2026-07-08T12:24:57.000Z</time>
      </trkpt>
      <trkpt lat="45.78957" lon="1.8829">
        <ele>708.3</ele>
        <time>2026-07-08T12:24:58.000Z</time>
      </trkpt>
      <trkpt lat="45.78957" lon="1.8829">
        <ele>708.3</ele>
        <time>2026-07-08T12:24:59.000Z</time>
      </trkpt>
      <trkpt lat="45.78957" lon="1.8829">
        <ele>708.3</ele>
        <time>2026-07-08T12:25:00.000Z</time>
      </trkpt>
      <trkpt lat="45.78957" lon="1.8829">
        <ele>708.3</ele>
        <time>2026-07-08T12:25:01.000Z</time>
      </trkpt>
      <trkpt lat="45.78957" lon="1.8829">
        <ele>708.3</ele>
        <time>2026-07-08T12:25:02.000Z</time>
      </trkpt>
      <trkpt lat="45.78957" lon="1.8829">
        <ele>708.3</ele>
        <time>2026-07-08T12:25:03.000Z</time>
      </trkpt>
      <trkpt lat="45.78957" lon="1.8829">
        <ele>708.3</ele>
        <time>2026-07-08T12:25:04.000Z</time>
      </trkpt>
      <trkpt lat="45.78957" lon="1.8829">
        <ele>708.3</ele>
        <time>2026-07-08T12:25:05.000Z</time>
      </trkpt>
      <trkpt lat="45.78957" lon="1.8829">
        <ele>708.3</ele>
        <time>2026-07-08T12:25:06.000Z</time>
      </trkpt>
      <trkpt lat="45.78957" lon="1.8829">
        <ele>708.3</ele>
        <time>2026-07-08T12:25:07.000Z</time>
      </trkpt>
      <trkpt lat="45.78957" lon="1.8829">
        <ele>708.3</ele>
        <time>2026-07-08T12:25:08.000Z</time>
      </trkpt>
      <trkpt lat="45.78957" lon="1.8829">
        <ele>708.3</ele>
        <time>2026-07-08T12:25:09.000Z</time>
      </trkpt>
      <trkpt lat="45.78957" lon="1.8829">
        <ele>708.3</ele>
        <time>2026-07-08T12:25:10.000Z</time>
      </trkpt>
      <trkpt lat="45.78957" lon="1.8829">
        <ele>708.3</ele>
        <time>2026-07-08T12:25:11.000Z</time>
      </trkpt>
      <trkpt lat="45.78957" lon="1.8829">
        <ele>708.3</ele>
        <time>2026-07-08T12:25:12.000Z</time>
      </trkpt>
      <trkpt lat="45.78957" lon="1.8829">
        <ele>708.3</ele>
        <time>2026-07-08T12:25:13.000Z</time>
      </trkpt>
      <trkpt lat="45.78957" lon="1.8829">
        <ele>708.3</ele>
        <time>2026-07-08T12:25:14.000Z</time>
      </trkpt>
      <trkpt lat="45.78957" lon="1.8829">
        <ele>708.3</ele>
        <time>2026-07-08T12:25:15.000Z</time>
      </trkpt>
      <trkpt lat="45.78957" lon="1.8829">
        <ele>708.3</ele>
        <time>2026-07-08T12:25:16.000Z</time>
      </trkpt>
      <trkpt lat="45.78957" lon="1.8829">
        <ele>708.3</ele>
        <time>2026-07-08T12:25:17.000Z</time>
      </trkpt>
      <trkpt lat="45.78957" lon="1.8829">
        <ele>708.3</ele>
        <time>2026-07-08T12:25:18.000Z</time>
      </trkpt>
      <trkpt lat="45.78957" lon="1.8829">
        <ele>708.3</ele>
        <time>2026-07-08T12:25:19.000Z</time>
      </trkpt>
      <trkpt lat="45.78957" lon="1.8829">
        <ele>708.3</ele>
        <time>2026-07-08T12:25:20.000Z</time>
      </trkpt>
      <trkpt lat="45.78957" lon="1.8829">
        <ele>708.4</ele>
        <time>2026-07-08T12:25:21.000Z</time>
      </trkpt>
      <trkpt lat="45.78957" lon="1.8829">
        <ele>708.4</ele>
        <time>2026-07-08T12:25:22.000Z</time>
      </trkpt>
      <trkpt lat="45.78957" lon="1.8829">
        <ele>708.4</ele>
        <time>2026-07-08T12:25:23.000Z</time>
      </trkpt>
      <trkpt lat="45.78957" lon="1.8829">
        <ele>708.4</ele>
        <time>2026-07-08T12:25:24.000Z</time>
      </trkpt>
      <trkpt lat="45.78957" lon="1.8829">
        <ele>708.4</ele>
        <time>2026-07-08T12:25:25.000Z</time>
      </trkpt>
      <trkpt lat="45.78957" lon="1.8829">
        <ele>708.4</ele>
        <time>2026-07-08T12:25:26.000Z</time>
      </trkpt>
      <trkpt lat="45.78957" lon="1.8829">
        <ele>708.4</ele>
        <time>2026-07-08T12:25:27.000Z</time>
      </trkpt>
      <trkpt lat="45.78957" lon="1.8829">
        <ele>708.4</ele>
        <time>2026-07-08T12:25:28.000Z</time>
      </trkpt>
      <trkpt lat="45.78957" lon="1.8829">
        <ele>708.4</ele>
        <time>2026-07-08T12:25:29.000Z</time>
      </trkpt>
      <trkpt lat="45.78957" lon="1.8829">
        <ele>708.4</ele>
        <time>2026-07-08T12:25:30.000Z</time>
      </trkpt>
      <trkpt lat="45.78957" lon="1.8829">
        <ele>708.4</ele>
        <time>2026-07-08T12:25:31.000Z</time>
      </trkpt>
      <trkpt lat="45.78957" lon="1.8829">
        <ele>708.4</ele>
        <time>2026-07-08T12:25:32.000Z</time>
      </trkpt>
      <trkpt lat="45.78957" lon="1.8829">
        <ele>708.4</ele>
        <time>2026-07-08T12:25:33.000Z</time>
      </trkpt>
      <trkpt lat="45.78957" lon="1.8829">
        <ele>708.4</ele>
        <time>2026-07-08T12:25:34.000Z</time>
      </trkpt>
      <trkpt lat="45.78957" lon="1.8829">
        <ele>708.4</ele>
        <time>2026-07-08T12:25:35.000Z</time>
      </trkpt>
      <trkpt lat="45.78957" lon="1.8829">
        <ele>708.4</ele>
        <time>2026-07-08T12:25:36.000Z</time>
      </trkpt>
      <trkpt lat="45.78957" lon="1.8829">
        <ele>708.4</ele>
        <time>2026-07-08T12:25:37.000Z</time>
      </trkpt>
      <trkpt lat="45.78957" lon="1.8829">
        <ele>708.4</ele>
        <time>2026-07-08T12:25:38.000Z</time>
      </trkpt>
      <trkpt lat="45.78957" lon="1.8829">
        <ele>708.4</ele>
        <time>2026-07-08T12:25:39.000Z</time>
      </trkpt>
      <trkpt lat="45.78957" lon="1.8829">
        <ele>708.4</ele>
        <time>2026-07-08T12:25:40.000Z</time>
      </trkpt>
      <trkpt lat="45.78957" lon="1.8829">
        <ele>708.4</ele>
        <time>2026-07-08T12:25:41.000Z</time>
      </trkpt>
      <trkpt lat="45.78957" lon="1.8829">
        <ele>708.4</ele>
        <time>2026-07-08T12:25:42.000Z</time>
      </trkpt>
      <trkpt lat="45.78957" lon="1.8829">
        <ele>708.4</ele>
        <time>2026-07-08T12:25:43.000Z</time>
      </trkpt>
      <trkpt lat="45.78957" lon="1.8829">
        <ele>708.3</ele>
        <time>2026-07-08T12:25:44.000Z</time>
      </trkpt>
      <trkpt lat="45.78957" lon="1.8829">
        <ele>708.2</ele>
        <time>2026-07-08T12:25:45.000Z</time>
      </trkpt>
      <trkpt lat="45.78957" lon="1.88289">
        <ele>708.4</ele>
        <time>2026-07-08T12:25:46.000Z</time>
      </trkpt>
      <trkpt lat="45.78957" lon="1.88289">
        <ele>708.1</ele>
        <time>2026-07-08T12:25:47.000Z</time>
      </trkpt>
      <trkpt lat="45.78957" lon="1.8829">
        <ele>708.1</ele>
        <time>2026-07-08T12:25:48.000Z</time>
      </trkpt>
      <trkpt lat="45.78957" lon="1.8829">
        <ele>708</ele>
        <time>2026-07-08T12:25:49.000Z</time>
      </trkpt>
      <trkpt lat="45.78957" lon="1.8829">
        <ele>708.1</ele>
        <time>2026-07-08T12:25:50.000Z</time>
      </trkpt>
      <trkpt lat="45.78957" lon="1.8829">
        <ele>708.3</ele>
        <time>2026-07-08T12:25:51.000Z</time>
      </trkpt>
      <trkpt lat="45.78957" lon="1.8829">
        <ele>708.3</ele>
        <time>2026-07-08T12:25:52.000Z</time>
      </trkpt>
      <trkpt lat="45.78958" lon="1.8829">
        <ele>708.2</ele>
        <time>2026-07-08T12:25:53.000Z</time>
      </trkpt>
      <trkpt lat="45.78958" lon="1.8829">
        <ele>708.2</ele>
        <time>2026-07-08T12:25:54.000Z</time>
      </trkpt>
      <trkpt lat="45.78958" lon="1.88291">
        <ele>708.4</ele>
        <time>2026-07-08T12:25:55.000Z</time>
      </trkpt>
      <trkpt lat="45.78958" lon="1.88291">
        <ele>708.4</ele>
        <time>2026-07-08T12:25:56.000Z</time>
      </trkpt>
      <trkpt lat="45.78958" lon="1.88291">
        <ele>708.3</ele>
        <time>2026-07-08T12:25:57.000Z</time>
      </trkpt>
      <trkpt lat="45.78958" lon="1.88291">
        <ele>708.3</ele>
        <time>2026-07-08T12:25:58.000Z</time>
      </trkpt>
      <trkpt lat="45.78958" lon="1.88291">
        <ele>708.3</ele>
        <time>2026-07-08T12:25:59.000Z</time>
      </trkpt>
      <trkpt lat="45.78958" lon="1.88291">
        <ele>708.3</ele>
        <time>2026-07-08T12:26:00.000Z</time>
      </trkpt>
      <trkpt lat="45.78958" lon="1.88291">
        <ele>708.3</ele>
        <time>2026-07-08T12:26:01.000Z</time>
      </trkpt>
      <trkpt lat="45.78958" lon="1.88291">
        <ele>708.3</ele>
        <time>2026-07-08T12:26:02.000Z</time>
      </trkpt>
      <trkpt lat="45.78958" lon="1.88291">
        <ele>708.3</ele>
        <time>2026-07-08T12:26:03.000Z</time>
      </trkpt>
      <trkpt lat="45.78958" lon="1.88291">
        <ele>708.3</ele>
        <time>2026-07-08T12:26:04.000Z</time>
      </trkpt>
      <trkpt lat="45.78958" lon="1.88291">
        <ele>708.3</ele>
        <time>2026-07-08T12:26:05.000Z</time>
      </trkpt>
      <trkpt lat="45.78958" lon="1.88291">
        <ele>708.2</ele>
        <time>2026-07-08T12:26:06.000Z</time>
      </trkpt>
      <trkpt lat="45.78958" lon="1.88291">
        <ele>708.5</ele>
        <time>2026-07-08T12:26:07.000Z</time>
      </trkpt>
      <trkpt lat="45.78958" lon="1.88291">
        <ele>708.9</ele>
        <time>2026-07-08T12:26:08.000Z</time>
      </trkpt>
      <trkpt lat="45.78959" lon="1.88291">
        <ele>708.9</ele>
        <time>2026-07-08T12:26:09.000Z</time>
      </trkpt>
      <trkpt lat="45.78959" lon="1.88291">
        <ele>708.9</ele>
        <time>2026-07-08T12:26:10.000Z</time>
      </trkpt>
      <trkpt lat="45.78959" lon="1.88291">
        <ele>708.4</ele>
        <time>2026-07-08T12:26:11.000Z</time>
      </trkpt>
      <trkpt lat="45.78959" lon="1.88291">
        <ele>708.6</ele>
        <time>2026-07-08T12:26:12.000Z</time>
      </trkpt>
      <trkpt lat="45.78959" lon="1.88291">
        <ele>708.7</ele>
        <time>2026-07-08T12:26:13.000Z</time>
      </trkpt>
      <trkpt lat="45.78959" lon="1.88292">
        <ele>708.2</ele>
        <time>2026-07-08T12:26:14.000Z</time>
      </trkpt>
      <trkpt lat="45.78959" lon="1.88292">
        <ele>708</ele>
        <time>2026-07-08T12:26:15.000Z</time>
      </trkpt>
      <trkpt lat="45.78959" lon="1.88292">
        <ele>707.4</ele>
        <time>2026-07-08T12:26:16.000Z</time>
      </trkpt>
      <trkpt lat="45.78958" lon="1.88292">
        <ele>707.1</ele>
        <time>2026-07-08T12:26:17.000Z</time>
      </trkpt>
      <trkpt lat="45.78959" lon="1.88293">
        <ele>707.3</ele>
        <time>2026-07-08T12:26:18.000Z</time>
      </trkpt>
      <trkpt lat="45.78959" lon="1.88293">
        <ele>707.3</ele>
        <time>2026-07-08T12:26:19.000Z</time>
      </trkpt>
      <trkpt lat="45.78959" lon="1.88293">
        <ele>707.3</ele>
        <time>2026-07-08T12:26:20.000Z</time>
      </trkpt>
      <trkpt lat="45.78959" lon="1.88293">
        <ele>707.3</ele>
        <time>2026-07-08T12:26:21.000Z</time>
      </trkpt>
      <trkpt lat="45.78959" lon="1.88293">
        <ele>707.4</ele>
        <time>2026-07-08T12:26:22.000Z</time>
      </trkpt>
      <trkpt lat="45.78959" lon="1.88293">
        <ele>707.4</ele>
        <time>2026-07-08T12:26:23.000Z</time>
      </trkpt>
      <trkpt lat="45.78959" lon="1.88293">
        <ele>707.4</ele>
        <time>2026-07-08T12:26:24.000Z</time>
      </trkpt>
      <trkpt lat="45.78959" lon="1.88293">
        <ele>707.4</ele>
        <time>2026-07-08T12:26:25.000Z</time>
      </trkpt>
      <trkpt lat="45.78959" lon="1.88293">
        <ele>707.4</ele>
        <time>2026-07-08T12:26:26.000Z</time>
      </trkpt>
      <trkpt lat="45.78959" lon="1.88293">
        <ele>707.4</ele>
        <time>2026-07-08T12:26:27.000Z</time>
      </trkpt>
      <trkpt lat="45.78959" lon="1.88293">
        <ele>707.3</ele>
        <time>2026-07-08T12:26:28.000Z</time>
      </trkpt>
      <trkpt lat="45.78959" lon="1.88293">
        <ele>707.3</ele>
        <time>2026-07-08T12:26:29.000Z</time>
      </trkpt>
      <trkpt lat="45.78959" lon="1.88293">
        <ele>707.3</ele>
        <time>2026-07-08T12:26:30.000Z</time>
      </trkpt>
      <trkpt lat="45.78959" lon="1.88293">
        <ele>707.3</ele>
        <time>2026-07-08T12:26:31.000Z</time>
      </trkpt>
      <trkpt lat="45.78959" lon="1.88293">
        <ele>707.3</ele>
        <time>2026-07-08T12:26:32.000Z</time>
      </trkpt>
      <trkpt lat="45.78959" lon="1.88293">
        <ele>707.4</ele>
        <time>2026-07-08T12:26:34.000Z</time>
      </trkpt>
      <trkpt lat="45.78959" lon="1.88293">
        <ele>707.4</ele>
        <time>2026-07-08T12:26:35.000Z</time>
      </trkpt>
      <trkpt lat="45.78959" lon="1.88293">
        <ele>707.4</ele>
        <time>2026-07-08T12:26:36.000Z</time>
      </trkpt>
      <trkpt lat="45.78959" lon="1.88293">
        <ele>707.4</ele>
        <time>2026-07-08T12:26:37.000Z</time>
      </trkpt>
      <trkpt lat="45.78959" lon="1.88293">
        <ele>707.4</ele>
        <time>2026-07-08T12:26:38.000Z</time>
      </trkpt>
      <trkpt lat="45.78959" lon="1.88293">
        <ele>707.5</ele>
        <time>2026-07-08T12:26:39.000Z</time>
      </trkpt>
      <trkpt lat="45.78959" lon="1.88293">
        <ele>707.5</ele>
        <time>2026-07-08T12:26:40.000Z</time>
      </trkpt>
      <trkpt lat="45.78959" lon="1.88293">
        <ele>707.5</ele>
        <time>2026-07-08T12:26:41.000Z</time>
      </trkpt>
      <trkpt lat="45.78959" lon="1.88293">
        <ele>707.4</ele>
        <time>2026-07-08T12:26:42.000Z</time>
      </trkpt>
      <trkpt lat="45.78959" lon="1.88293">
        <ele>707.5</ele>
        <time>2026-07-08T12:26:43.000Z</time>
      </trkpt>
      <trkpt lat="45.78959" lon="1.88293">
        <ele>707.5</ele>
        <time>2026-07-08T12:26:44.000Z</time>
      </trkpt>
      <trkpt lat="45.78959" lon="1.88293">
        <ele>707.5</ele>
        <time>2026-07-08T12:26:45.000Z</time>
      </trkpt>
      <trkpt lat="45.78959" lon="1.88293">
        <ele>707.5</ele>
        <time>2026-07-08T12:26:46.000Z</time>
      </trkpt>
      <trkpt lat="45.78959" lon="1.88293">
        <ele>707.5</ele>
        <time>2026-07-08T12:26:47.000Z</time>
      </trkpt>
      <trkpt lat="45.78959" lon="1.88293">
        <ele>707.5</ele>
        <time>2026-07-08T12:26:48.000Z</time>
      </trkpt>
      <trkpt lat="45.78959" lon="1.88293">
        <ele>707.5</ele>
        <time>2026-07-08T12:26:49.000Z</time>
      </trkpt>
      <trkpt lat="45.78959" lon="1.88293">
        <ele>707.4</ele>
        <time>2026-07-08T12:26:50.000Z</time>
      </trkpt>
      <trkpt lat="45.78959" lon="1.88293">
        <ele>707.4</ele>
        <time>2026-07-08T12:26:51.000Z</time>
      </trkpt>
      <trkpt lat="45.78959" lon="1.88293">
        <ele>707.4</ele>
        <time>2026-07-08T12:26:52.000Z</time>
      </trkpt>
      <trkpt lat="45.78959" lon="1.88293">
        <ele>707.4</ele>
        <time>2026-07-08T12:26:53.000Z</time>
      </trkpt>
      <trkpt lat="45.78959" lon="1.88293">
        <ele>707.4</ele>
        <time>2026-07-08T12:26:54.000Z</time>
      </trkpt>
      <trkpt lat="45.78959" lon="1.88293">
        <ele>707.5</ele>
        <time>2026-07-08T12:26:55.000Z</time>
      </trkpt>
      <trkpt lat="45.78959" lon="1.88293">
        <ele>707.4</ele>
        <time>2026-07-08T12:26:56.000Z</time>
      </trkpt>
      <trkpt lat="45.78959" lon="1.88293">
        <ele>707.5</ele>
        <time>2026-07-08T12:26:57.000Z</time>
      </trkpt>
      <trkpt lat="45.78959" lon="1.88293">
        <ele>707.4</ele>
        <time>2026-07-08T12:26:58.000Z</time>
      </trkpt>
      <trkpt lat="45.78959" lon="1.88293">
        <ele>707.4</ele>
        <time>2026-07-08T12:26:59.000Z</time>
      </trkpt>
      <trkpt lat="45.78959" lon="1.88293">
        <ele>707.4</ele>
        <time>2026-07-08T12:27:00.000Z</time>
      </trkpt>
      <trkpt lat="45.78959" lon="1.88293">
        <ele>707.4</ele>
        <time>2026-07-08T12:27:01.000Z</time>
      </trkpt>
      <trkpt lat="45.78959" lon="1.88293">
        <ele>707.4</ele>
        <time>2026-07-08T12:27:02.000Z</time>
      </trkpt>
      <trkpt lat="45.78959" lon="1.88293">
        <ele>707.4</ele>
        <time>2026-07-08T12:27:03.000Z</time>
      </trkpt>
      <trkpt lat="45.78959" lon="1.88293">
        <ele>707.4</ele>
        <time>2026-07-08T12:27:04.000Z</time>
      </trkpt>
      <trkpt lat="45.78959" lon="1.88293">
        <ele>707.4</ele>
        <time>2026-07-08T12:27:05.000Z</time>
      </trkpt>
      <trkpt lat="45.78959" lon="1.88293">
        <ele>707.4</ele>
        <time>2026-07-08T12:27:06.000Z</time>
      </trkpt>
      <trkpt lat="45.78959" lon="1.88293">
        <ele>707.4</ele>
        <time>2026-07-08T12:27:07.000Z</time>
      </trkpt>
      <trkpt lat="45.78959" lon="1.88293">
        <ele>707.4</ele>
        <time>2026-07-08T12:27:08.000Z</time>
      </trkpt>
      <trkpt lat="45.78959" lon="1.88293">
        <ele>707.4</ele>
        <time>2026-07-08T12:27:09.000Z</time>
      </trkpt>
      <trkpt lat="45.78959" lon="1.88293">
        <ele>707.4</ele>
        <time>2026-07-08T12:27:10.000Z</time>
      </trkpt>
      <trkpt lat="45.78959" lon="1.88293">
        <ele>707.4</ele>
        <time>2026-07-08T12:27:11.000Z</time>
      </trkpt>
      <trkpt lat="45.78959" lon="1.88293">
        <ele>707.4</ele>
        <time>2026-07-08T12:27:12.000Z</time>
      </trkpt>
      <trkpt lat="45.78959" lon="1.88293">
        <ele>707.4</ele>
        <time>2026-07-08T12:27:13.000Z</time>
      </trkpt>
      <trkpt lat="45.78959" lon="1.88293">
        <ele>707.4</ele>
        <time>2026-07-08T12:27:14.000Z</time>
      </trkpt>
      <trkpt lat="45.78959" lon="1.88293">
        <ele>707.4</ele>
        <time>2026-07-08T12:27:15.000Z</time>
      </trkpt>
      <trkpt lat="45.78959" lon="1.88293">
        <ele>707.4</ele>
        <time>2026-07-08T12:27:16.000Z</time>
      </trkpt>
      <trkpt lat="45.78959" lon="1.88293">
        <ele>707.4</ele>
        <time>2026-07-08T12:27:17.000Z</time>
      </trkpt>
      <trkpt lat="45.78959" lon="1.88293">
        <ele>707.4</ele>
        <time>2026-07-08T12:27:18.000Z</time>
      </trkpt>
      <trkpt lat="45.78959" lon="1.88293">
        <ele>707.4</ele>
        <time>2026-07-08T12:27:19.000Z</time>
      </trkpt>
      <trkpt lat="45.78959" lon="1.88293">
        <ele>707.4</ele>
        <time>2026-07-08T12:27:20.000Z</time>
      </trkpt>
      <trkpt lat="45.78959" lon="1.88293">
        <ele>707.4</ele>
        <time>2026-07-08T12:27:21.000Z</time>
      </trkpt>
      <trkpt lat="45.78959" lon="1.88293">
        <ele>707.4</ele>
        <time>2026-07-08T12:27:22.000Z</time>
      </trkpt>
      <trkpt lat="45.78959" lon="1.88293">
        <ele>707.4</ele>
        <time>2026-07-08T12:27:23.000Z</time>
      </trkpt>
      <trkpt lat="45.78959" lon="1.88293">
        <ele>707.4</ele>
        <time>2026-07-08T12:27:24.000Z</time>
      </trkpt>
      <trkpt lat="45.78959" lon="1.88293">
        <ele>707.4</ele>
        <time>2026-07-08T12:27:25.000Z</time>
      </trkpt>
      <trkpt lat="45.78959" lon="1.88293">
        <ele>707.4</ele>
        <time>2026-07-08T12:27:26.000Z</time>
      </trkpt>
      <trkpt lat="45.78959" lon="1.88293">
        <ele>707.4</ele>
        <time>2026-07-08T12:27:27.000Z</time>
      </trkpt>
      <trkpt lat="45.78959" lon="1.88293">
        <ele>707.4</ele>
        <time>2026-07-08T12:27:28.000Z</time>
      </trkpt>
      <trkpt lat="45.78959" lon="1.88293">
        <ele>707.4</ele>
        <time>2026-07-08T12:27:29.000Z</time>
      </trkpt>
      <trkpt lat="45.78959" lon="1.88293">
        <ele>707.4</ele>
        <time>2026-07-08T12:27:30.000Z</time>
      </trkpt>
      <trkpt lat="45.78959" lon="1.88293">
        <ele>707.4</ele>
        <time>2026-07-08T12:27:31.000Z</time>
      </trkpt>
      <trkpt lat="45.78959" lon="1.88293">
        <ele>707.4</ele>
        <time>2026-07-08T12:27:32.000Z</time>
      </trkpt>
      <trkpt lat="45.78959" lon="1.88293">
        <ele>707.4</ele>
        <time>2026-07-08T12:27:33.000Z</time>
      </trkpt>
      <trkpt lat="45.78959" lon="1.88293">
        <ele>707.4</ele>
        <time>2026-07-08T12:27:34.000Z</time>
      </trkpt>
      <trkpt lat="45.78959" lon="1.88293">
        <ele>707.6</ele>
        <time>2026-07-08T12:27:35.000Z</time>
      </trkpt>
      <trkpt lat="45.78959" lon="1.88293">
        <ele>706.8</ele>
        <time>2026-07-08T12:27:36.000Z</time>
      </trkpt>
      <trkpt lat="45.78959" lon="1.88293">
        <ele>705.9</ele>
        <time>2026-07-08T12:27:37.000Z</time>
      </trkpt>
      <trkpt lat="45.78959" lon="1.88293">
        <ele>705.7</ele>
        <time>2026-07-08T12:27:38.000Z</time>
      </trkpt>
      <trkpt lat="45.78959" lon="1.88294">
        <ele>705.4</ele>
        <time>2026-07-08T12:27:39.000Z</time>
      </trkpt>
      <trkpt lat="45.78959" lon="1.88294">
        <ele>705</ele>
        <time>2026-07-08T12:27:40.000Z</time>
      </trkpt>
      <trkpt lat="45.78959" lon="1.88294">
        <ele>705</ele>
        <time>2026-07-08T12:27:41.000Z</time>
      </trkpt>
      <trkpt lat="45.78959" lon="1.88294">
        <ele>704.6</ele>
        <time>2026-07-08T12:27:42.000Z</time>
      </trkpt>
      <trkpt lat="45.78959" lon="1.88294">
        <ele>704.9</ele>
        <time>2026-07-08T12:27:43.000Z</time>
      </trkpt>
      <trkpt lat="45.78959" lon="1.88294">
        <ele>704.5</ele>
        <time>2026-07-08T12:27:44.000Z</time>
      </trkpt>
      <trkpt lat="45.78959" lon="1.88294">
        <ele>704.7</ele>
        <time>2026-07-08T12:27:45.000Z</time>
      </trkpt>
      <trkpt lat="45.78959" lon="1.88294">
        <ele>704.6</ele>
        <time>2026-07-08T12:27:46.000Z</time>
      </trkpt>
      <trkpt lat="45.78959" lon="1.88294">
        <ele>704.5</ele>
        <time>2026-07-08T12:27:47.000Z</time>
      </trkpt>
      <trkpt lat="45.78959" lon="1.88294">
        <ele>704.5</ele>
        <time>2026-07-08T12:27:48.000Z</time>
      </trkpt>
      <trkpt lat="45.78959" lon="1.88294">
        <ele>704.5</ele>
        <time>2026-07-08T12:27:49.000Z</time>
      </trkpt>
      <trkpt lat="45.78959" lon="1.88294">
        <ele>704.5</ele>
        <time>2026-07-08T12:27:50.000Z</time>
      </trkpt>
      <trkpt lat="45.78959" lon="1.88294">
        <ele>704.5</ele>
        <time>2026-07-08T12:27:51.000Z</time>
      </trkpt>
      <trkpt lat="45.78959" lon="1.88294">
        <ele>704.5</ele>
        <time>2026-07-08T12:27:52.000Z</time>
      </trkpt>
      <trkpt lat="45.78959" lon="1.88294">
        <ele>704.5</ele>
        <time>2026-07-08T12:27:53.000Z</time>
      </trkpt>
      <trkpt lat="45.78959" lon="1.88294">
        <ele>704.5</ele>
        <time>2026-07-08T12:27:54.000Z</time>
      </trkpt>
      <trkpt lat="45.78959" lon="1.88294">
        <ele>704.5</ele>
        <time>2026-07-08T12:27:55.000Z</time>
      </trkpt>
      <trkpt lat="45.78959" lon="1.88294">
        <ele>704.5</ele>
        <time>2026-07-08T12:27:56.000Z</time>
      </trkpt>
      <trkpt lat="45.78959" lon="1.88294">
        <ele>704.5</ele>
        <time>2026-07-08T12:27:57.000Z</time>
      </trkpt>
      <trkpt lat="45.78959" lon="1.88294">
        <ele>704.5</ele>
        <time>2026-07-08T12:27:58.000Z</time>
      </trkpt>
      <trkpt lat="45.78959" lon="1.88294">
        <ele>704.5</ele>
        <time>2026-07-08T12:27:59.000Z</time>
      </trkpt>
      <trkpt lat="45.78959" lon="1.88294">
        <ele>704.5</ele>
        <time>2026-07-08T12:28:00.000Z</time>
      </trkpt>
      <trkpt lat="45.78959" lon="1.88294">
        <ele>704.5</ele>
        <time>2026-07-08T12:28:01.000Z</time>
      </trkpt>
      <trkpt lat="45.78959" lon="1.88294">
        <ele>704.5</ele>
        <time>2026-07-08T12:28:02.000Z</time>
      </trkpt>
      <trkpt lat="45.78959" lon="1.88294">
        <ele>704.5</ele>
        <time>2026-07-08T12:28:03.000Z</time>
      </trkpt>
      <trkpt lat="45.78959" lon="1.88294">
        <ele>704.5</ele>
        <time>2026-07-08T12:28:04.000Z</time>
      </trkpt>
      <trkpt lat="45.78959" lon="1.88294">
        <ele>704.5</ele>
        <time>2026-07-08T12:28:05.000Z</time>
      </trkpt>
      <trkpt lat="45.78959" lon="1.88294">
        <ele>704.5</ele>
        <time>2026-07-08T12:28:06.000Z</time>
      </trkpt>
      <trkpt lat="45.78959" lon="1.88294">
        <ele>704.5</ele>
        <time>2026-07-08T12:28:07.000Z</time>
      </trkpt>
      <trkpt lat="45.78959" lon="1.88294">
        <ele>704.5</ele>
        <time>2026-07-08T12:28:08.000Z</time>
      </trkpt>
      <trkpt lat="45.78959" lon="1.88294">
        <ele>704.5</ele>
        <time>2026-07-08T12:28:09.000Z</time>
      </trkpt>
      <trkpt lat="45.78959" lon="1.88294">
        <ele>704.5</ele>
        <time>2026-07-08T12:28:10.000Z</time>
      </trkpt>
      <trkpt lat="45.78959" lon="1.88294">
        <ele>704.5</ele>
        <time>2026-07-08T12:28:11.000Z</time>
      </trkpt>
      <trkpt lat="45.78959" lon="1.88294">
        <ele>704.5</ele>
        <time>2026-07-08T12:28:12.000Z</time>
      </trkpt>
      <trkpt lat="45.78959" lon="1.88294">
        <ele>704.5</ele>
        <time>2026-07-08T12:28:13.000Z</time>
      </trkpt>
      <trkpt lat="45.78959" lon="1.88294">
        <ele>704.5</ele>
        <time>2026-07-08T12:28:14.000Z</time>
      </trkpt>
      <trkpt lat="45.78959" lon="1.88294">
        <ele>704.5</ele>
        <time>2026-07-08T12:28:15.000Z</time>
      </trkpt>
      <trkpt lat="45.78959" lon="1.88294">
        <ele>704.5</ele>
        <time>2026-07-08T12:28:16.000Z</time>
      </trkpt>
      <trkpt lat="45.78959" lon="1.88294">
        <ele>704.5</ele>
        <time>2026-07-08T12:28:17.000Z</time>
      </trkpt>
      <trkpt lat="45.78959" lon="1.88294">
        <ele>704.5</ele>
        <time>2026-07-08T12:28:18.000Z</time>
      </trkpt>
      <trkpt lat="45.78959" lon="1.88294">
        <ele>704.5</ele>
        <time>2026-07-08T12:28:19.000Z</time>
      </trkpt>
      <trkpt lat="45.78959" lon="1.88294">
        <ele>704.5</ele>
        <time>2026-07-08T12:28:20.000Z</time>
      </trkpt>
      <trkpt lat="45.78959" lon="1.88294">
        <ele>704.5</ele>
        <time>2026-07-08T12:28:21.000Z</time>
      </trkpt>
      <trkpt lat="45.78959" lon="1.88294">
        <ele>704.5</ele>
        <time>2026-07-08T12:28:22.000Z</time>
      </trkpt>
      <trkpt lat="45.78959" lon="1.88294">
        <ele>704.5</ele>
        <time>2026-07-08T12:28:23.000Z</time>
      </trkpt>
      <trkpt lat="45.78959" lon="1.88294">
        <ele>704.5</ele>
        <time>2026-07-08T12:28:24.000Z</time>
      </trkpt>
      <trkpt lat="45.78959" lon="1.88294">
        <ele>704.5</ele>
        <time>2026-07-08T12:28:25.000Z</time>
      </trkpt>
      <trkpt lat="45.78959" lon="1.88294">
        <ele>704.5</ele>
        <time>2026-07-08T12:28:26.000Z</time>
      </trkpt>
      <trkpt lat="45.78959" lon="1.88294">
        <ele>704.5</ele>
        <time>2026-07-08T12:28:27.000Z</time>
      </trkpt>
      <trkpt lat="45.78959" lon="1.88294">
        <ele>704.5</ele>
        <time>2026-07-08T12:28:28.000Z</time>
      </trkpt>
      <trkpt lat="45.78959" lon="1.88294">
        <ele>704.5</ele>
        <time>2026-07-08T12:28:29.000Z</time>
      </trkpt>
      <trkpt lat="45.78959" lon="1.88294">
        <ele>704.5</ele>
        <time>2026-07-08T12:28:30.000Z</time>
      </trkpt>
      <trkpt lat="45.78959" lon="1.88294">
        <ele>705.2</ele>
        <time>2026-07-08T12:28:31.000Z</time>
      </trkpt>
      <trkpt lat="45.78959" lon="1.88295">
        <ele>704.7</ele>
        <time>2026-07-08T12:28:32.000Z</time>
      </trkpt>
      <trkpt lat="45.78959" lon="1.88295">
        <ele>704.5</ele>
        <time>2026-07-08T12:28:33.000Z</time>
      </trkpt>
      <trkpt lat="45.7896" lon="1.88295">
        <ele>705.1</ele>
        <time>2026-07-08T12:28:34.000Z</time>
      </trkpt>
      <trkpt lat="45.7896" lon="1.88295">
        <ele>705</ele>
        <time>2026-07-08T12:28:35.000Z</time>
      </trkpt>
      <trkpt lat="45.7896" lon="1.88295">
        <ele>704.6</ele>
        <time>2026-07-08T12:28:36.000Z</time>
      </trkpt>
      <trkpt lat="45.7896" lon="1.88295">
        <ele>704.3</ele>
        <time>2026-07-08T12:28:37.000Z</time>
      </trkpt>
      <trkpt lat="45.7896" lon="1.88295">
        <ele>704.6</ele>
        <time>2026-07-08T12:28:38.000Z</time>
      </trkpt>
      <trkpt lat="45.7896" lon="1.88295">
        <ele>705</ele>
        <time>2026-07-08T12:28:39.000Z</time>
      </trkpt>
      <trkpt lat="45.78959" lon="1.88295">
        <ele>704.7</ele>
        <time>2026-07-08T12:28:40.000Z</time>
      </trkpt>
      <trkpt lat="45.78959" lon="1.88295">
        <ele>704.9</ele>
        <time>2026-07-08T12:28:41.000Z</time>
      </trkpt>
      <trkpt lat="45.78959" lon="1.88295">
        <ele>704.6</ele>
        <time>2026-07-08T12:28:42.000Z</time>
      </trkpt>
      <trkpt lat="45.78959" lon="1.88295">
        <ele>704.8</ele>
        <time>2026-07-08T12:28:43.000Z</time>
      </trkpt>
      <trkpt lat="45.78959" lon="1.88295">
        <ele>704.8</ele>
        <time>2026-07-08T12:28:44.000Z</time>
      </trkpt>
      <trkpt lat="45.78959" lon="1.88295">
        <ele>704.9</ele>
        <time>2026-07-08T12:28:45.000Z</time>
      </trkpt>
      <trkpt lat="45.78959" lon="1.88295">
        <ele>704.9</ele>
        <time>2026-07-08T12:28:46.000Z</time>
      </trkpt>
      <trkpt lat="45.78959" lon="1.88295">
        <ele>705</ele>
        <time>2026-07-08T12:28:47.000Z</time>
      </trkpt>
      <trkpt lat="45.78959" lon="1.88295">
        <ele>705</ele>
        <time>2026-07-08T12:28:48.000Z</time>
      </trkpt>
      <trkpt lat="45.78959" lon="1.88295">
        <ele>705</ele>
        <time>2026-07-08T12:28:49.000Z</time>
      </trkpt>
      <trkpt lat="45.78959" lon="1.88295">
        <ele>705</ele>
        <time>2026-07-08T12:28:50.000Z</time>
      </trkpt>
      <trkpt lat="45.78959" lon="1.88295">
        <ele>705</ele>
        <time>2026-07-08T12:28:51.000Z</time>
      </trkpt>
      <trkpt lat="45.78959" lon="1.88295">
        <ele>705</ele>
        <time>2026-07-08T12:28:52.000Z</time>
      </trkpt>
      <trkpt lat="45.78959" lon="1.88295">
        <ele>705</ele>
        <time>2026-07-08T12:28:53.000Z</time>
      </trkpt>
      <trkpt lat="45.78959" lon="1.88295">
        <ele>705</ele>
        <time>2026-07-08T12:28:54.000Z</time>
      </trkpt>
      <trkpt lat="45.78959" lon="1.88295">
        <ele>705</ele>
        <time>2026-07-08T12:28:55.000Z</time>
      </trkpt>
      <trkpt lat="45.78959" lon="1.88295">
        <ele>705</ele>
        <time>2026-07-08T12:28:56.000Z</time>
      </trkpt>
      <trkpt lat="45.78959" lon="1.88295">
        <ele>705</ele>
        <time>2026-07-08T12:28:57.000Z</time>
      </trkpt>
      <trkpt lat="45.78959" lon="1.88295">
        <ele>705</ele>
        <time>2026-07-08T12:28:58.000Z</time>
      </trkpt>
      <trkpt lat="45.78959" lon="1.88295">
        <ele>705</ele>
        <time>2026-07-08T12:28:59.000Z</time>
      </trkpt>
      <trkpt lat="45.78959" lon="1.88295">
        <ele>705</ele>
        <time>2026-07-08T12:29:00.000Z</time>
      </trkpt>
      <trkpt lat="45.78959" lon="1.88295">
        <ele>705</ele>
        <time>2026-07-08T12:29:01.000Z</time>
      </trkpt>
      <trkpt lat="45.78959" lon="1.88295">
        <ele>704.3</ele>
        <time>2026-07-08T12:29:02.000Z</time>
      </trkpt>
      <trkpt lat="45.78959" lon="1.88294">
        <ele>704.3</ele>
        <time>2026-07-08T12:29:03.000Z</time>
      </trkpt>
      <trkpt lat="45.78959" lon="1.88294">
        <ele>704</ele>
        <time>2026-07-08T12:29:04.000Z</time>
      </trkpt>
      <trkpt lat="45.78959" lon="1.88294">
        <ele>703.6</ele>
        <time>2026-07-08T12:29:05.000Z</time>
      </trkpt>
      <trkpt lat="45.78959" lon="1.88295">
        <ele>703.4</ele>
        <time>2026-07-08T12:29:06.000Z</time>
      </trkpt>
      <trkpt lat="45.78959" lon="1.88294">
        <ele>703.3</ele>
        <time>2026-07-08T12:29:07.000Z</time>
      </trkpt>
      <trkpt lat="45.78959" lon="1.88295">
        <ele>703.3</ele>
        <time>2026-07-08T12:29:08.000Z</time>
      </trkpt>
      <trkpt lat="45.78959" lon="1.88294">
        <ele>703</ele>
        <time>2026-07-08T12:29:09.000Z</time>
      </trkpt>
      <trkpt lat="45.78959" lon="1.88294">
        <ele>703.2</ele>
        <time>2026-07-08T12:29:10.000Z</time>
      </trkpt>
      <trkpt lat="45.78959" lon="1.88294">
        <ele>703.4</ele>
        <time>2026-07-08T12:29:11.000Z</time>
      </trkpt>
      <trkpt lat="45.78959" lon="1.88294">
        <ele>703.2</ele>
        <time>2026-07-08T12:29:12.000Z</time>
      </trkpt>
      <trkpt lat="45.78959" lon="1.88294">
        <ele>703.2</ele>
        <time>2026-07-08T12:29:13.000Z</time>
      </trkpt>
      <trkpt lat="45.78959" lon="1.88294">
        <ele>703.2</ele>
        <time>2026-07-08T12:29:14.000Z</time>
      </trkpt>
      <trkpt lat="45.78959" lon="1.88294">
        <ele>703.2</ele>
        <time>2026-07-08T12:29:15.000Z</time>
      </trkpt>
      <trkpt lat="45.78959" lon="1.88294">
        <ele>703.1</ele>
        <time>2026-07-08T12:29:16.000Z</time>
      </trkpt>
      <trkpt lat="45.78959" lon="1.88294">
        <ele>703.2</ele>
        <time>2026-07-08T12:29:17.000Z</time>
      </trkpt>
      <trkpt lat="45.78959" lon="1.88294">
        <ele>703</ele>
        <time>2026-07-08T12:29:18.000Z</time>
      </trkpt>
      <trkpt lat="45.7896" lon="1.88295">
        <ele>703</ele>
        <time>2026-07-08T12:29:19.000Z</time>
      </trkpt>
      <trkpt lat="45.7896" lon="1.88295">
        <ele>702.5</ele>
        <time>2026-07-08T12:29:20.000Z</time>
      </trkpt>
      <trkpt lat="45.7896" lon="1.88295">
        <ele>702.5</ele>
        <time>2026-07-08T12:29:21.000Z</time>
      </trkpt>
      <trkpt lat="45.7896" lon="1.88294">
        <ele>702.8</ele>
        <time>2026-07-08T12:29:22.000Z</time>
      </trkpt>
      <trkpt lat="45.7896" lon="1.88294">
        <ele>703.2</ele>
        <time>2026-07-08T12:29:23.000Z</time>
      </trkpt>
      <trkpt lat="45.7896" lon="1.88294">
        <ele>703.6</ele>
        <time>2026-07-08T12:29:24.000Z</time>
      </trkpt>
      <trkpt lat="45.78961" lon="1.88294">
        <ele>703.9</ele>
        <time>2026-07-08T12:29:25.000Z</time>
      </trkpt>
      <trkpt lat="45.78961" lon="1.88294">
        <ele>704.2</ele>
        <time>2026-07-08T12:29:26.000Z</time>
      </trkpt>
      <trkpt lat="45.78961" lon="1.88294">
        <ele>704.5</ele>
        <time>2026-07-08T12:29:27.000Z</time>
      </trkpt>
      <trkpt lat="45.78961" lon="1.88294">
        <ele>704.6</ele>
        <time>2026-07-08T12:29:28.000Z</time>
      </trkpt>
      <trkpt lat="45.78961" lon="1.88294">
        <ele>705</ele>
        <time>2026-07-08T12:29:29.000Z</time>
      </trkpt>
      <trkpt lat="45.78961" lon="1.88294">
        <ele>704.9</ele>
        <time>2026-07-08T12:29:30.000Z</time>
      </trkpt>
      <trkpt lat="45.78961" lon="1.88294">
        <ele>705</ele>
        <time>2026-07-08T12:29:31.000Z</time>
      </trkpt>
      <trkpt lat="45.78961" lon="1.88294">
        <ele>705</ele>
        <time>2026-07-08T12:29:32.000Z</time>
      </trkpt>
      <trkpt lat="45.78961" lon="1.88294">
        <ele>705</ele>
        <time>2026-07-08T12:29:33.000Z</time>
      </trkpt>
      <trkpt lat="45.78961" lon="1.88294">
        <ele>705</ele>
        <time>2026-07-08T12:29:34.000Z</time>
      </trkpt>
      <trkpt lat="45.78961" lon="1.88294">
        <ele>705</ele>
        <time>2026-07-08T12:29:35.000Z</time>
      </trkpt>
      <trkpt lat="45.78961" lon="1.88294">
        <ele>705</ele>
        <time>2026-07-08T12:29:36.000Z</time>
      </trkpt>
      <trkpt lat="45.78961" lon="1.88294">
        <ele>705</ele>
        <time>2026-07-08T12:29:37.000Z</time>
      </trkpt>
      <trkpt lat="45.78961" lon="1.88294">
        <ele>705</ele>
        <time>2026-07-08T12:29:38.000Z</time>
      </trkpt>
      <trkpt lat="45.78961" lon="1.88294">
        <ele>705</ele>
        <time>2026-07-08T12:29:39.000Z</time>
      </trkpt>
      <trkpt lat="45.78961" lon="1.88294">
        <ele>705</ele>
        <time>2026-07-08T12:29:40.000Z</time>
      </trkpt>
      <trkpt lat="45.78961" lon="1.88294">
        <ele>705</ele>
        <time>2026-07-08T12:29:41.000Z</time>
      </trkpt>
      <trkpt lat="45.78961" lon="1.88294">
        <ele>705</ele>
        <time>2026-07-08T12:29:42.000Z</time>
      </trkpt>
      <trkpt lat="45.78961" lon="1.88294">
        <ele>704.9</ele>
        <time>2026-07-08T12:29:43.000Z</time>
      </trkpt>
      <trkpt lat="45.78961" lon="1.88294">
        <ele>704.9</ele>
        <time>2026-07-08T12:29:44.000Z</time>
      </trkpt>
      <trkpt lat="45.78961" lon="1.88294">
        <ele>705</ele>
        <time>2026-07-08T12:29:45.000Z</time>
      </trkpt>
      <trkpt lat="45.78961" lon="1.88293">
        <ele>704.9</ele>
        <time>2026-07-08T12:29:46.000Z</time>
      </trkpt>
      <trkpt lat="45.78961" lon="1.88293">
        <ele>705.2</ele>
        <time>2026-07-08T12:29:47.000Z</time>
      </trkpt>
      <trkpt lat="45.78961" lon="1.88294">
        <ele>705.7</ele>
        <time>2026-07-08T12:29:48.000Z</time>
      </trkpt>
      <trkpt lat="45.78961" lon="1.88294">
        <ele>706</ele>
        <time>2026-07-08T12:29:49.000Z</time>
      </trkpt>
      <trkpt lat="45.78961" lon="1.88294">
        <ele>706.1</ele>
        <time>2026-07-08T12:29:50.000Z</time>
      </trkpt>
      <trkpt lat="45.78961" lon="1.88294">
        <ele>706.2</ele>
        <time>2026-07-08T12:29:51.000Z</time>
      </trkpt>
      <trkpt lat="45.78961" lon="1.88294">
        <ele>706.5</ele>
        <time>2026-07-08T12:29:52.000Z</time>
      </trkpt>
      <trkpt lat="45.78961" lon="1.88294">
        <ele>706.6</ele>
        <time>2026-07-08T12:29:53.000Z</time>
      </trkpt>
      <trkpt lat="45.78961" lon="1.88294">
        <ele>706.4</ele>
        <time>2026-07-08T12:29:54.000Z</time>
      </trkpt>
      <trkpt lat="45.78961" lon="1.88294">
        <ele>706.5</ele>
        <time>2026-07-08T12:29:55.000Z</time>
      </trkpt>
      <trkpt lat="45.78961" lon="1.88294">
        <ele>706.4</ele>
        <time>2026-07-08T12:29:56.000Z</time>
      </trkpt>
      <trkpt lat="45.78961" lon="1.88294">
        <ele>706.4</ele>
        <time>2026-07-08T12:29:57.000Z</time>
      </trkpt>
      <trkpt lat="45.78961" lon="1.88294">
        <ele>706.4</ele>
        <time>2026-07-08T12:29:58.000Z</time>
      </trkpt>
      <trkpt lat="45.78961" lon="1.88294">
        <ele>706.4</ele>
        <time>2026-07-08T12:29:59.000Z</time>
      </trkpt>
      <trkpt lat="45.78961" lon="1.88294">
        <ele>706.4</ele>
        <time>2026-07-08T12:30:00.000Z</time>
      </trkpt>
      <trkpt lat="45.78961" lon="1.88294">
        <ele>706.4</ele>
        <time>2026-07-08T12:30:01.000Z</time>
      </trkpt>
      <trkpt lat="45.78961" lon="1.88294">
        <ele>706.4</ele>
        <time>2026-07-08T12:30:02.000Z</time>
      </trkpt>
      <trkpt lat="45.78961" lon="1.88294">
        <ele>706.4</ele>
        <time>2026-07-08T12:30:03.000Z</time>
      </trkpt>
      <trkpt lat="45.78961" lon="1.88294">
        <ele>706.4</ele>
        <time>2026-07-08T12:30:04.000Z</time>
      </trkpt>
      <trkpt lat="45.78961" lon="1.88294">
        <ele>706.4</ele>
        <time>2026-07-08T12:30:05.000Z</time>
      </trkpt>
      <trkpt lat="45.78961" lon="1.88294">
        <ele>706.4</ele>
        <time>2026-07-08T12:30:06.000Z</time>
      </trkpt>
      <trkpt lat="45.78961" lon="1.88294">
        <ele>706.4</ele>
        <time>2026-07-08T12:30:07.000Z</time>
      </trkpt>
      <trkpt lat="45.78961" lon="1.88294">
        <ele>706.4</ele>
        <time>2026-07-08T12:30:08.000Z</time>
      </trkpt>
      <trkpt lat="45.78961" lon="1.88294">
        <ele>706.4</ele>
        <time>2026-07-08T12:30:09.000Z</time>
      </trkpt>
      <trkpt lat="45.78961" lon="1.88294">
        <ele>706.4</ele>
        <time>2026-07-08T12:30:10.000Z</time>
      </trkpt>
      <trkpt lat="45.78961" lon="1.88294">
        <ele>706.4</ele>
        <time>2026-07-08T12:30:11.000Z</time>
      </trkpt>
      <trkpt lat="45.78961" lon="1.88294">
        <ele>706.4</ele>
        <time>2026-07-08T12:30:12.000Z</time>
      </trkpt>
      <trkpt lat="45.78961" lon="1.88294">
        <ele>706.4</ele>
        <time>2026-07-08T12:30:13.000Z</time>
      </trkpt>
      <trkpt lat="45.78961" lon="1.88294">
        <ele>706.4</ele>
        <time>2026-07-08T12:30:14.000Z</time>
      </trkpt>
      <trkpt lat="45.78961" lon="1.88294">
        <ele>706.4</ele>
        <time>2026-07-08T12:30:15.000Z</time>
      </trkpt>
      <trkpt lat="45.78961" lon="1.88294">
        <ele>706.4</ele>
        <time>2026-07-08T12:30:16.000Z</time>
      </trkpt>
      <trkpt lat="45.78961" lon="1.88294">
        <ele>706.4</ele>
        <time>2026-07-08T12:30:17.000Z</time>
      </trkpt>
      <trkpt lat="45.78961" lon="1.88294">
        <ele>706.4</ele>
        <time>2026-07-08T12:30:18.000Z</time>
      </trkpt>
      <trkpt lat="45.78961" lon="1.88294">
        <ele>706.4</ele>
        <time>2026-07-08T12:30:19.000Z</time>
      </trkpt>
      <trkpt lat="45.78961" lon="1.88294">
        <ele>706.4</ele>
        <time>2026-07-08T12:30:20.000Z</time>
      </trkpt>
      <trkpt lat="45.78961" lon="1.88294">
        <ele>706.4</ele>
        <time>2026-07-08T12:30:21.000Z</time>
      </trkpt>
      <trkpt lat="45.78961" lon="1.88294">
        <ele>706.5</ele>
        <time>2026-07-08T12:30:22.000Z</time>
      </trkpt>
      <trkpt lat="45.78961" lon="1.88294">
        <ele>706.5</ele>
        <time>2026-07-08T12:30:23.000Z</time>
      </trkpt>
      <trkpt lat="45.78961" lon="1.88294">
        <ele>706.5</ele>
        <time>2026-07-08T12:30:24.000Z</time>
      </trkpt>
      <trkpt lat="45.78961" lon="1.88294">
        <ele>706.5</ele>
        <time>2026-07-08T12:30:25.000Z</time>
      </trkpt>
      <trkpt lat="45.78961" lon="1.88294">
        <ele>706.5</ele>
        <time>2026-07-08T12:30:26.000Z</time>
      </trkpt>
      <trkpt lat="45.78961" lon="1.88294">
        <ele>706.5</ele>
        <time>2026-07-08T12:30:27.000Z</time>
      </trkpt>
      <trkpt lat="45.78961" lon="1.88294">
        <ele>706.5</ele>
        <time>2026-07-08T12:30:28.000Z</time>
      </trkpt>
      <trkpt lat="45.78961" lon="1.88294">
        <ele>706.5</ele>
        <time>2026-07-08T12:30:29.000Z</time>
      </trkpt>
      <trkpt lat="45.78961" lon="1.88294">
        <ele>706.5</ele>
        <time>2026-07-08T12:30:30.000Z</time>
      </trkpt>
      <trkpt lat="45.78961" lon="1.88294">
        <ele>706.5</ele>
        <time>2026-07-08T12:30:31.000Z</time>
      </trkpt>
      <trkpt lat="45.78961" lon="1.88294">
        <ele>706.5</ele>
        <time>2026-07-08T12:30:32.000Z</time>
      </trkpt>
      <trkpt lat="45.78961" lon="1.88294">
        <ele>706.5</ele>
        <time>2026-07-08T12:30:33.000Z</time>
      </trkpt>
      <trkpt lat="45.78961" lon="1.88294">
        <ele>706.5</ele>
        <time>2026-07-08T12:30:34.000Z</time>
      </trkpt>
      <trkpt lat="45.78961" lon="1.88294">
        <ele>706.5</ele>
        <time>2026-07-08T12:30:35.000Z</time>
      </trkpt>
      <trkpt lat="45.78961" lon="1.88294">
        <ele>706.5</ele>
        <time>2026-07-08T12:30:36.000Z</time>
      </trkpt>
      <trkpt lat="45.78961" lon="1.88294">
        <ele>706.5</ele>
        <time>2026-07-08T12:30:37.000Z</time>
      </trkpt>
      <trkpt lat="45.78961" lon="1.88294">
        <ele>706.5</ele>
        <time>2026-07-08T12:30:38.000Z</time>
      </trkpt>
      <trkpt lat="45.78961" lon="1.88294">
        <ele>706.5</ele>
        <time>2026-07-08T12:30:39.000Z</time>
      </trkpt>
      <trkpt lat="45.78961" lon="1.88294">
        <ele>706.5</ele>
        <time>2026-07-08T12:30:40.000Z</time>
      </trkpt>
      <trkpt lat="45.78961" lon="1.88294">
        <ele>706.5</ele>
        <time>2026-07-08T12:30:41.000Z</time>
      </trkpt>
      <trkpt lat="45.78961" lon="1.88294">
        <ele>706.5</ele>
        <time>2026-07-08T12:30:42.000Z</time>
      </trkpt>
      <trkpt lat="45.78961" lon="1.88294">
        <ele>706.5</ele>
        <time>2026-07-08T12:30:43.000Z</time>
      </trkpt>
      <trkpt lat="45.78961" lon="1.88294">
        <ele>706.5</ele>
        <time>2026-07-08T12:30:44.000Z</time>
      </trkpt>
      <trkpt lat="45.78961" lon="1.88294">
        <ele>706.5</ele>
        <time>2026-07-08T12:30:45.000Z</time>
      </trkpt>
      <trkpt lat="45.78961" lon="1.88294">
        <ele>706.5</ele>
        <time>2026-07-08T12:30:46.000Z</time>
      </trkpt>
      <trkpt lat="45.78961" lon="1.88294">
        <ele>706.5</ele>
        <time>2026-07-08T12:30:47.000Z</time>
      </trkpt>
      <trkpt lat="45.78961" lon="1.88294">
        <ele>706.5</ele>
        <time>2026-07-08T12:30:48.000Z</time>
      </trkpt>
      <trkpt lat="45.78961" lon="1.88294">
        <ele>706.6</ele>
        <time>2026-07-08T12:30:49.000Z</time>
      </trkpt>
      <trkpt lat="45.78961" lon="1.88294">
        <ele>706.6</ele>
        <time>2026-07-08T12:30:50.000Z</time>
      </trkpt>
      <trkpt lat="45.78961" lon="1.88294">
        <ele>706.6</ele>
        <time>2026-07-08T12:30:51.000Z</time>
      </trkpt>
      <trkpt lat="45.78961" lon="1.88294">
        <ele>706.6</ele>
        <time>2026-07-08T12:30:52.000Z</time>
      </trkpt>
      <trkpt lat="45.78961" lon="1.88294">
        <ele>706.6</ele>
        <time>2026-07-08T12:30:53.000Z</time>
      </trkpt>
      <trkpt lat="45.78961" lon="1.88294">
        <ele>706.6</ele>
        <time>2026-07-08T12:30:54.000Z</time>
      </trkpt>
      <trkpt lat="45.78961" lon="1.88294">
        <ele>706.6</ele>
        <time>2026-07-08T12:30:55.000Z</time>
      </trkpt>
      <trkpt lat="45.78961" lon="1.88294">
        <ele>706.6</ele>
        <time>2026-07-08T12:30:56.000Z</time>
      </trkpt>
      <trkpt lat="45.78961" lon="1.88294">
        <ele>706.6</ele>
        <time>2026-07-08T12:30:57.000Z</time>
      </trkpt>
      <trkpt lat="45.78961" lon="1.88294">
        <ele>706.6</ele>
        <time>2026-07-08T12:30:58.000Z</time>
      </trkpt>
      <trkpt lat="45.78961" lon="1.88294">
        <ele>706.6</ele>
        <time>2026-07-08T12:30:59.000Z</time>
      </trkpt>
      <trkpt lat="45.78961" lon="1.88294">
        <ele>706.6</ele>
        <time>2026-07-08T12:31:00.000Z</time>
      </trkpt>
      <trkpt lat="45.78961" lon="1.88294">
        <ele>706.6</ele>
        <time>2026-07-08T12:31:01.000Z</time>
      </trkpt>
      <trkpt lat="45.78961" lon="1.88294">
        <ele>706.6</ele>
        <time>2026-07-08T12:31:02.000Z</time>
      </trkpt>
      <trkpt lat="45.78961" lon="1.88294">
        <ele>706.6</ele>
        <time>2026-07-08T12:31:03.000Z</time>
      </trkpt>
      <trkpt lat="45.78961" lon="1.88294">
        <ele>706.6</ele>
        <time>2026-07-08T12:31:04.000Z</time>
      </trkpt>
      <trkpt lat="45.78961" lon="1.88294">
        <ele>706.6</ele>
        <time>2026-07-08T12:31:05.000Z</time>
      </trkpt>
      <trkpt lat="45.78961" lon="1.88294">
        <ele>706.6</ele>
        <time>2026-07-08T12:31:06.000Z</time>
      </trkpt>
      <trkpt lat="45.78961" lon="1.88294">
        <ele>706.6</ele>
        <time>2026-07-08T12:31:07.000Z</time>
      </trkpt>
      <trkpt lat="45.78961" lon="1.88294">
        <ele>706.6</ele>
        <time>2026-07-08T12:31:08.000Z</time>
      </trkpt>
      <trkpt lat="45.78961" lon="1.88294">
        <ele>706.6</ele>
        <time>2026-07-08T12:31:09.000Z</time>
      </trkpt>
      <trkpt lat="45.78961" lon="1.88294">
        <ele>706.6</ele>
        <time>2026-07-08T12:31:10.000Z</time>
      </trkpt>
      <trkpt lat="45.78961" lon="1.88294">
        <ele>706.6</ele>
        <time>2026-07-08T12:31:11.000Z</time>
      </trkpt>
      <trkpt lat="45.78961" lon="1.88294">
        <ele>706.6</ele>
        <time>2026-07-08T12:31:12.000Z</time>
      </trkpt>
      <trkpt lat="45.78961" lon="1.88294">
        <ele>706.6</ele>
        <time>2026-07-08T12:31:13.000Z</time>
      </trkpt>
      <trkpt lat="45.78961" lon="1.88294">
        <ele>706.6</ele>
        <time>2026-07-08T12:31:14.000Z</time>
      </trkpt>
      <trkpt lat="45.78961" lon="1.88294">
        <ele>706.6</ele>
        <time>2026-07-08T12:31:15.000Z</time>
      </trkpt>
      <trkpt lat="45.78961" lon="1.88294">
        <ele>706.6</ele>
        <time>2026-07-08T12:31:16.000Z</time>
      </trkpt>
      <trkpt lat="45.78961" lon="1.88294">
        <ele>706.6</ele>
        <time>2026-07-08T12:31:17.000Z</time>
      </trkpt>
      <trkpt lat="45.78961" lon="1.88294">
        <ele>706.6</ele>
        <time>2026-07-08T12:31:18.000Z</time>
      </trkpt>
      <trkpt lat="45.78961" lon="1.88294">
        <ele>706.6</ele>
        <time>2026-07-08T12:31:19.000Z</time>
      </trkpt>
      <trkpt lat="45.78961" lon="1.88294">
        <ele>706.6</ele>
        <time>2026-07-08T12:31:20.000Z</time>
      </trkpt>
      <trkpt lat="45.78961" lon="1.88294">
        <ele>706.6</ele>
        <time>2026-07-08T12:31:21.000Z</time>
      </trkpt>
      <trkpt lat="45.78961" lon="1.88294">
        <ele>706.6</ele>
        <time>2026-07-08T12:31:22.000Z</time>
      </trkpt>
      <trkpt lat="45.78961" lon="1.88294">
        <ele>706.6</ele>
        <time>2026-07-08T12:31:23.000Z</time>
      </trkpt>
      <trkpt lat="45.78961" lon="1.88294">
        <ele>706.6</ele>
        <time>2026-07-08T12:31:24.000Z</time>
      </trkpt>
      <trkpt lat="45.78961" lon="1.88294">
        <ele>706.6</ele>
        <time>2026-07-08T12:31:25.000Z</time>
      </trkpt>
      <trkpt lat="45.78961" lon="1.88294">
        <ele>706.6</ele>
        <time>2026-07-08T12:31:26.000Z</time>
      </trkpt>
      <trkpt lat="45.78961" lon="1.88294">
        <ele>706.6</ele>
        <time>2026-07-08T12:31:27.000Z</time>
      </trkpt>
      <trkpt lat="45.78961" lon="1.88294">
        <ele>706.6</ele>
        <time>2026-07-08T12:31:28.000Z</time>
      </trkpt>
      <trkpt lat="45.78961" lon="1.88294">
        <ele>706.6</ele>
        <time>2026-07-08T12:31:29.000Z</time>
      </trkpt>
      <trkpt lat="45.78961" lon="1.88294">
        <ele>706.6</ele>
        <time>2026-07-08T12:31:30.000Z</time>
      </trkpt>
      <trkpt lat="45.78961" lon="1.88294">
        <ele>706.6</ele>
        <time>2026-07-08T12:31:31.000Z</time>
      </trkpt>
      <trkpt lat="45.7896" lon="1.88294">
        <ele>706.2</ele>
        <time>2026-07-08T12:31:32.000Z</time>
      </trkpt>
      <trkpt lat="45.7896" lon="1.88295">
        <ele>706.7</ele>
        <time>2026-07-08T12:31:33.000Z</time>
      </trkpt>
      <trkpt lat="45.78959" lon="1.88295">
        <ele>706.3</ele>
        <time>2026-07-08T12:31:34.000Z</time>
      </trkpt>
      <trkpt lat="45.78959" lon="1.88295">
        <ele>706.4</ele>
        <time>2026-07-08T12:31:35.000Z</time>
      </trkpt>
      <trkpt lat="45.78959" lon="1.88295">
        <ele>706.6</ele>
        <time>2026-07-08T12:31:36.000Z</time>
      </trkpt>
      <trkpt lat="45.78959" lon="1.88295">
        <ele>706.5</ele>
        <time>2026-07-08T12:31:37.000Z</time>
      </trkpt>
      <trkpt lat="45.78958" lon="1.88295">
        <ele>706.4</ele>
        <time>2026-07-08T12:31:38.000Z</time>
      </trkpt>
      <trkpt lat="45.78958" lon="1.88296">
        <ele>706</ele>
        <time>2026-07-08T12:31:39.000Z</time>
      </trkpt>
      <trkpt lat="45.78958" lon="1.88296">
        <ele>706.5</ele>
        <time>2026-07-08T12:31:40.000Z</time>
      </trkpt>
      <trkpt lat="45.78959" lon="1.88295">
        <ele>706.6</ele>
        <time>2026-07-08T12:31:41.000Z</time>
      </trkpt>
      <trkpt lat="45.78959" lon="1.88295">
        <ele>706.6</ele>
        <time>2026-07-08T12:31:42.000Z</time>
      </trkpt>
      <trkpt lat="45.78959" lon="1.88295">
        <ele>706.5</ele>
        <time>2026-07-08T12:31:43.000Z</time>
      </trkpt>
      <trkpt lat="45.78959" lon="1.88295">
        <ele>706.6</ele>
        <time>2026-07-08T12:31:44.000Z</time>
      </trkpt>
      <trkpt lat="45.78959" lon="1.88295">
        <ele>706.7</ele>
        <time>2026-07-08T12:31:45.000Z</time>
      </trkpt>
      <trkpt lat="45.78959" lon="1.88295">
        <ele>706.7</ele>
        <time>2026-07-08T12:31:46.000Z</time>
      </trkpt>
      <trkpt lat="45.78959" lon="1.88295">
        <ele>706.7</ele>
        <time>2026-07-08T12:31:47.000Z</time>
      </trkpt>
      <trkpt lat="45.78959" lon="1.88295">
        <ele>706.7</ele>
        <time>2026-07-08T12:31:48.000Z</time>
      </trkpt>
      <trkpt lat="45.78959" lon="1.88295">
        <ele>706.6</ele>
        <time>2026-07-08T12:31:49.000Z</time>
      </trkpt>
      <trkpt lat="45.78959" lon="1.88295">
        <ele>706.7</ele>
        <time>2026-07-08T12:31:50.000Z</time>
      </trkpt>
      <trkpt lat="45.78959" lon="1.88295">
        <ele>706.7</ele>
        <time>2026-07-08T12:31:51.000Z</time>
      </trkpt>
      <trkpt lat="45.78959" lon="1.88295">
        <ele>706.7</ele>
        <time>2026-07-08T12:31:52.000Z</time>
      </trkpt>
      <trkpt lat="45.78959" lon="1.88295">
        <ele>706.7</ele>
        <time>2026-07-08T12:31:53.000Z</time>
      </trkpt>
      <trkpt lat="45.78959" lon="1.88295">
        <ele>706.7</ele>
        <time>2026-07-08T12:31:54.000Z</time>
      </trkpt>
      <trkpt lat="45.78959" lon="1.88295">
        <ele>706.7</ele>
        <time>2026-07-08T12:31:55.000Z</time>
      </trkpt>
      <trkpt lat="45.78959" lon="1.88295">
        <ele>706.7</ele>
        <time>2026-07-08T12:31:56.000Z</time>
      </trkpt>
      <trkpt lat="45.78959" lon="1.88295">
        <ele>706.7</ele>
        <time>2026-07-08T12:31:57.000Z</time>
      </trkpt>
      <trkpt lat="45.78959" lon="1.88295">
        <ele>706.7</ele>
        <time>2026-07-08T12:31:58.000Z</time>
      </trkpt>
      <trkpt lat="45.78959" lon="1.88295">
        <ele>706.7</ele>
        <time>2026-07-08T12:31:59.000Z</time>
      </trkpt>
      <trkpt lat="45.78959" lon="1.88295">
        <ele>706.7</ele>
        <time>2026-07-08T12:32:00.000Z</time>
      </trkpt>
      <trkpt lat="45.78959" lon="1.88295">
        <ele>706.7</ele>
        <time>2026-07-08T12:32:01.000Z</time>
      </trkpt>
      <trkpt lat="45.78959" lon="1.88295">
        <ele>706.7</ele>
        <time>2026-07-08T12:32:02.000Z</time>
      </trkpt>
      <trkpt lat="45.78959" lon="1.88295">
        <ele>706.7</ele>
        <time>2026-07-08T12:32:03.000Z</time>
      </trkpt>
      <trkpt lat="45.78959" lon="1.88295">
        <ele>706.7</ele>
        <time>2026-07-08T12:32:04.000Z</time>
      </trkpt>
      <trkpt lat="45.78959" lon="1.88295">
        <ele>706.7</ele>
        <time>2026-07-08T12:32:05.000Z</time>
      </trkpt>
      <trkpt lat="45.78959" lon="1.88295">
        <ele>706.7</ele>
        <time>2026-07-08T12:32:06.000Z</time>
      </trkpt>
      <trkpt lat="45.78959" lon="1.88295">
        <ele>706.7</ele>
        <time>2026-07-08T12:32:07.000Z</time>
      </trkpt>
      <trkpt lat="45.78959" lon="1.88295">
        <ele>706.7</ele>
        <time>2026-07-08T12:32:08.000Z</time>
      </trkpt>
      <trkpt lat="45.78959" lon="1.88295">
        <ele>706.7</ele>
        <time>2026-07-08T12:32:09.000Z</time>
      </trkpt>
      <trkpt lat="45.78959" lon="1.88295">
        <ele>706.7</ele>
        <time>2026-07-08T12:32:10.000Z</time>
      </trkpt>
      <trkpt lat="45.78959" lon="1.88295">
        <ele>706.7</ele>
        <time>2026-07-08T12:32:11.000Z</time>
      </trkpt>
      <trkpt lat="45.78959" lon="1.88295">
        <ele>706.7</ele>
        <time>2026-07-08T12:32:12.000Z</time>
      </trkpt>
      <trkpt lat="45.78959" lon="1.88295">
        <ele>706.7</ele>
        <time>2026-07-08T12:32:13.000Z</time>
      </trkpt>
      <trkpt lat="45.78959" lon="1.88295">
        <ele>706.7</ele>
        <time>2026-07-08T12:32:14.000Z</time>
      </trkpt>
      <trkpt lat="45.78959" lon="1.88295">
        <ele>706.7</ele>
        <time>2026-07-08T12:32:15.000Z</time>
      </trkpt>
      <trkpt lat="45.78959" lon="1.88295">
        <ele>706.7</ele>
        <time>2026-07-08T12:32:16.000Z</time>
      </trkpt>
      <trkpt lat="45.78959" lon="1.88295">
        <ele>706.7</ele>
        <time>2026-07-08T12:32:17.000Z</time>
      </trkpt>
      <trkpt lat="45.78959" lon="1.88295">
        <ele>706.7</ele>
        <time>2026-07-08T12:32:18.000Z</time>
      </trkpt>
      <trkpt lat="45.78959" lon="1.88295">
        <ele>706.7</ele>
        <time>2026-07-08T12:32:19.000Z</time>
      </trkpt>
      <trkpt lat="45.78959" lon="1.88295">
        <ele>706.7</ele>
        <time>2026-07-08T12:32:20.000Z</time>
      </trkpt>
      <trkpt lat="45.78959" lon="1.88295">
        <ele>706.7</ele>
        <time>2026-07-08T12:32:21.000Z</time>
      </trkpt>
      <trkpt lat="45.78959" lon="1.88295">
        <ele>706.8</ele>
        <time>2026-07-08T12:32:22.000Z</time>
      </trkpt>
      <trkpt lat="45.78959" lon="1.88295">
        <ele>706.8</ele>
        <time>2026-07-08T12:32:23.000Z</time>
      </trkpt>
      <trkpt lat="45.78959" lon="1.88295">
        <ele>706.8</ele>
        <time>2026-07-08T12:32:24.000Z</time>
      </trkpt>
      <trkpt lat="45.78959" lon="1.88295">
        <ele>706.8</ele>
        <time>2026-07-08T12:32:25.000Z</time>
      </trkpt>
      <trkpt lat="45.78959" lon="1.88295">
        <ele>706.8</ele>
        <time>2026-07-08T12:32:26.000Z</time>
      </trkpt>
      <trkpt lat="45.78959" lon="1.88295">
        <ele>706.8</ele>
        <time>2026-07-08T12:32:27.000Z</time>
      </trkpt>
      <trkpt lat="45.78959" lon="1.88295">
        <ele>706.8</ele>
        <time>2026-07-08T12:32:28.000Z</time>
      </trkpt>
      <trkpt lat="45.78959" lon="1.88295">
        <ele>706.8</ele>
        <time>2026-07-08T12:32:29.000Z</time>
      </trkpt>
      <trkpt lat="45.78959" lon="1.88295">
        <ele>706.8</ele>
        <time>2026-07-08T12:32:30.000Z</time>
      </trkpt>
      <trkpt lat="45.78959" lon="1.88295">
        <ele>706.8</ele>
        <time>2026-07-08T12:32:31.000Z</time>
      </trkpt>
      <trkpt lat="45.78959" lon="1.88295">
        <ele>706.8</ele>
        <time>2026-07-08T12:32:32.000Z</time>
      </trkpt>
      <trkpt lat="45.78959" lon="1.88295">
        <ele>706.8</ele>
        <time>2026-07-08T12:32:33.000Z</time>
      </trkpt>
      <trkpt lat="45.78959" lon="1.88295">
        <ele>706.8</ele>
        <time>2026-07-08T12:32:34.000Z</time>
      </trkpt>
      <trkpt lat="45.78959" lon="1.88295">
        <ele>706.8</ele>
        <time>2026-07-08T12:32:35.000Z</time>
      </trkpt>
      <trkpt lat="45.78959" lon="1.88295">
        <ele>706.8</ele>
        <time>2026-07-08T12:32:36.000Z</time>
      </trkpt>
      <trkpt lat="45.78959" lon="1.88295">
        <ele>706.8</ele>
        <time>2026-07-08T12:32:37.000Z</time>
      </trkpt>
      <trkpt lat="45.78959" lon="1.88295">
        <ele>706.8</ele>
        <time>2026-07-08T12:32:38.000Z</time>
      </trkpt>
      <trkpt lat="45.78959" lon="1.88295">
        <ele>706.8</ele>
        <time>2026-07-08T12:32:39.000Z</time>
      </trkpt>
      <trkpt lat="45.78959" lon="1.88295">
        <ele>706.8</ele>
        <time>2026-07-08T12:32:40.000Z</time>
      </trkpt>
      <trkpt lat="45.78959" lon="1.88295">
        <ele>706.8</ele>
        <time>2026-07-08T12:32:41.000Z</time>
      </trkpt>
      <trkpt lat="45.78959" lon="1.88295">
        <ele>706.8</ele>
        <time>2026-07-08T12:32:42.000Z</time>
      </trkpt>
      <trkpt lat="45.78959" lon="1.88295">
        <ele>706.8</ele>
        <time>2026-07-08T12:32:43.000Z</time>
      </trkpt>
      <trkpt lat="45.78959" lon="1.88295">
        <ele>706.8</ele>
        <time>2026-07-08T12:32:44.000Z</time>
      </trkpt>
      <trkpt lat="45.78959" lon="1.88295">
        <ele>706.8</ele>
        <time>2026-07-08T12:32:45.000Z</time>
      </trkpt>
      <trkpt lat="45.78959" lon="1.88295">
        <ele>706.8</ele>
        <time>2026-07-08T12:32:46.000Z</time>
      </trkpt>
      <trkpt lat="45.78959" lon="1.88295">
        <ele>706.8</ele>
        <time>2026-07-08T12:32:47.000Z</time>
      </trkpt>
      <trkpt lat="45.78959" lon="1.88295">
        <ele>706.8</ele>
        <time>2026-07-08T12:32:48.000Z</time>
      </trkpt>
      <trkpt lat="45.78959" lon="1.88295">
        <ele>706.8</ele>
        <time>2026-07-08T12:32:49.000Z</time>
      </trkpt>
      <trkpt lat="45.78959" lon="1.88295">
        <ele>706.8</ele>
        <time>2026-07-08T12:32:50.000Z</time>
      </trkpt>
      <trkpt lat="45.78959" lon="1.88295">
        <ele>706.8</ele>
        <time>2026-07-08T12:32:51.000Z</time>
      </trkpt>
      <trkpt lat="45.78959" lon="1.88295">
        <ele>706.8</ele>
        <time>2026-07-08T12:32:52.000Z</time>
      </trkpt>
      <trkpt lat="45.78959" lon="1.88295">
        <ele>706.8</ele>
        <time>2026-07-08T12:32:53.000Z</time>
      </trkpt>
      <trkpt lat="45.78959" lon="1.88295">
        <ele>706.8</ele>
        <time>2026-07-08T12:32:54.000Z</time>
      </trkpt>
      <trkpt lat="45.78959" lon="1.88295">
        <ele>706.8</ele>
        <time>2026-07-08T12:32:55.000Z</time>
      </trkpt>
      <trkpt lat="45.78959" lon="1.88295">
        <ele>706.8</ele>
        <time>2026-07-08T12:32:56.000Z</time>
      </trkpt>
      <trkpt lat="45.78959" lon="1.88295">
        <ele>706.9</ele>
        <time>2026-07-08T12:32:57.000Z</time>
      </trkpt>
      <trkpt lat="45.78959" lon="1.88295">
        <ele>706.8</ele>
        <time>2026-07-08T12:32:58.000Z</time>
      </trkpt>
      <trkpt lat="45.78959" lon="1.88295">
        <ele>706.9</ele>
        <time>2026-07-08T12:32:59.000Z</time>
      </trkpt>
      <trkpt lat="45.78959" lon="1.88295">
        <ele>706.9</ele>
        <time>2026-07-08T12:33:00.000Z</time>
      </trkpt>
      <trkpt lat="45.78959" lon="1.88295">
        <ele>706.8</ele>
        <time>2026-07-08T12:33:01.000Z</time>
      </trkpt>
      <trkpt lat="45.78959" lon="1.88295">
        <ele>706.8</ele>
        <time>2026-07-08T12:33:02.000Z</time>
      </trkpt>
      <trkpt lat="45.78959" lon="1.88295">
        <ele>706.8</ele>
        <time>2026-07-08T12:33:03.000Z</time>
      </trkpt>
      <trkpt lat="45.78959" lon="1.88295">
        <ele>706.8</ele>
        <time>2026-07-08T12:33:04.000Z</time>
      </trkpt>
      <trkpt lat="45.78959" lon="1.88295">
        <ele>706.8</ele>
        <time>2026-07-08T12:33:05.000Z</time>
      </trkpt>
      <trkpt lat="45.78959" lon="1.88295">
        <ele>706.8</ele>
        <time>2026-07-08T12:33:06.000Z</time>
      </trkpt>
      <trkpt lat="45.78959" lon="1.88295">
        <ele>706.8</ele>
        <time>2026-07-08T12:33:07.000Z</time>
      </trkpt>
      <trkpt lat="45.78959" lon="1.88295">
        <ele>706.8</ele>
        <time>2026-07-08T12:33:08.000Z</time>
      </trkpt>
      <trkpt lat="45.78959" lon="1.88295">
        <ele>706.8</ele>
        <time>2026-07-08T12:33:09.000Z</time>
      </trkpt>
      <trkpt lat="45.78959" lon="1.88295">
        <ele>706.8</ele>
        <time>2026-07-08T12:33:10.000Z</time>
      </trkpt>
      <trkpt lat="45.78959" lon="1.88295">
        <ele>706.8</ele>
        <time>2026-07-08T12:33:11.000Z</time>
      </trkpt>
      <trkpt lat="45.78959" lon="1.88295">
        <ele>706.8</ele>
        <time>2026-07-08T12:33:12.000Z</time>
      </trkpt>
      <trkpt lat="45.78959" lon="1.88295">
        <ele>706.8</ele>
        <time>2026-07-08T12:33:13.000Z</time>
      </trkpt>
      <trkpt lat="45.78959" lon="1.88295">
        <ele>706.8</ele>
        <time>2026-07-08T12:33:14.000Z</time>
      </trkpt>
      <trkpt lat="45.78959" lon="1.88295">
        <ele>706.8</ele>
        <time>2026-07-08T12:33:15.000Z</time>
      </trkpt>
      <trkpt lat="45.78959" lon="1.88295">
        <ele>706.8</ele>
        <time>2026-07-08T12:33:16.000Z</time>
      </trkpt>
      <trkpt lat="45.78959" lon="1.88295">
        <ele>706.8</ele>
        <time>2026-07-08T12:33:17.000Z</time>
      </trkpt>
      <trkpt lat="45.78959" lon="1.88295">
        <ele>706.8</ele>
        <time>2026-07-08T12:33:18.000Z</time>
      </trkpt>
      <trkpt lat="45.78959" lon="1.88295">
        <ele>706.8</ele>
        <time>2026-07-08T12:33:19.000Z</time>
      </trkpt>
      <trkpt lat="45.78959" lon="1.88295">
        <ele>706.8</ele>
        <time>2026-07-08T12:33:20.000Z</time>
      </trkpt>
      <trkpt lat="45.78959" lon="1.88295">
        <ele>706.8</ele>
        <time>2026-07-08T12:33:21.000Z</time>
      </trkpt>
      <trkpt lat="45.78959" lon="1.88295">
        <ele>706.8</ele>
        <time>2026-07-08T12:33:22.000Z</time>
      </trkpt>
      <trkpt lat="45.78959" lon="1.88295">
        <ele>706.8</ele>
        <time>2026-07-08T12:33:23.000Z</time>
      </trkpt>
      <trkpt lat="45.78959" lon="1.88295">
        <ele>706.8</ele>
        <time>2026-07-08T12:33:24.000Z</time>
      </trkpt>
      <trkpt lat="45.78959" lon="1.88295">
        <ele>706.8</ele>
        <time>2026-07-08T12:33:25.000Z</time>
      </trkpt>
      <trkpt lat="45.78959" lon="1.88295">
        <ele>706.8</ele>
        <time>2026-07-08T12:33:26.000Z</time>
      </trkpt>
      <trkpt lat="45.78959" lon="1.88295">
        <ele>706.8</ele>
        <time>2026-07-08T12:33:27.000Z</time>
      </trkpt>
      <trkpt lat="45.78959" lon="1.88295">
        <ele>706.8</ele>
        <time>2026-07-08T12:33:28.000Z</time>
      </trkpt>
      <trkpt lat="45.78959" lon="1.88295">
        <ele>706.8</ele>
        <time>2026-07-08T12:33:29.000Z</time>
      </trkpt>
      <trkpt lat="45.78959" lon="1.88295">
        <ele>706.8</ele>
        <time>2026-07-08T12:33:30.000Z</time>
      </trkpt>
      <trkpt lat="45.78959" lon="1.88295">
        <ele>706.8</ele>
        <time>2026-07-08T12:33:31.000Z</time>
      </trkpt>
      <trkpt lat="45.78959" lon="1.88295">
        <ele>706.8</ele>
        <time>2026-07-08T12:33:32.000Z</time>
      </trkpt>
      <trkpt lat="45.78959" lon="1.88295">
        <ele>706.8</ele>
        <time>2026-07-08T12:33:33.000Z</time>
      </trkpt>
      <trkpt lat="45.78959" lon="1.88295">
        <ele>706.8</ele>
        <time>2026-07-08T12:33:34.000Z</time>
      </trkpt>
      <trkpt lat="45.78959" lon="1.88295">
        <ele>706.8</ele>
        <time>2026-07-08T12:33:35.000Z</time>
      </trkpt>
      <trkpt lat="45.78959" lon="1.88295">
        <ele>706.8</ele>
        <time>2026-07-08T12:33:36.000Z</time>
      </trkpt>
      <trkpt lat="45.78959" lon="1.88295">
        <ele>706.8</ele>
        <time>2026-07-08T12:33:37.000Z</time>
      </trkpt>
      <trkpt lat="45.78959" lon="1.88295">
        <ele>706.8</ele>
        <time>2026-07-08T12:33:38.000Z</time>
      </trkpt>
      <trkpt lat="45.78959" lon="1.88295">
        <ele>706.8</ele>
        <time>2026-07-08T12:33:39.000Z</time>
      </trkpt>
      <trkpt lat="45.78959" lon="1.88295">
        <ele>706.8</ele>
        <time>2026-07-08T12:33:40.000Z</time>
      </trkpt>
      <trkpt lat="45.78959" lon="1.88295">
        <ele>706.8</ele>
        <time>2026-07-08T12:33:41.000Z</time>
      </trkpt>
      <trkpt lat="45.78959" lon="1.88295">
        <ele>706.8</ele>
        <time>2026-07-08T12:33:42.000Z</time>
      </trkpt>
      <trkpt lat="45.78959" lon="1.88295">
        <ele>706.8</ele>
        <time>2026-07-08T12:33:43.000Z</time>
      </trkpt>
      <trkpt lat="45.78959" lon="1.88295">
        <ele>706.8</ele>
        <time>2026-07-08T12:33:44.000Z</time>
      </trkpt>
      <trkpt lat="45.78959" lon="1.88295">
        <ele>706.8</ele>
        <time>2026-07-08T12:33:45.000Z</time>
      </trkpt>
      <trkpt lat="45.78959" lon="1.88295">
        <ele>706.8</ele>
        <time>2026-07-08T12:33:46.000Z</time>
      </trkpt>
      <trkpt lat="45.78959" lon="1.88295">
        <ele>706.8</ele>
        <time>2026-07-08T12:33:47.000Z</time>
      </trkpt>
      <trkpt lat="45.78959" lon="1.88295">
        <ele>706.8</ele>
        <time>2026-07-08T12:33:48.000Z</time>
      </trkpt>
      <trkpt lat="45.78959" lon="1.88295">
        <ele>706.8</ele>
        <time>2026-07-08T12:33:49.000Z</time>
      </trkpt>
      <trkpt lat="45.78959" lon="1.88295">
        <ele>706.8</ele>
        <time>2026-07-08T12:33:50.000Z</time>
      </trkpt>
      <trkpt lat="45.78959" lon="1.88295">
        <ele>706.8</ele>
        <time>2026-07-08T12:33:51.000Z</time>
      </trkpt>
      <trkpt lat="45.78959" lon="1.88295">
        <ele>706.8</ele>
        <time>2026-07-08T12:33:52.000Z</time>
      </trkpt>
      <trkpt lat="45.78959" lon="1.88295">
        <ele>706.8</ele>
        <time>2026-07-08T12:33:53.000Z</time>
      </trkpt>
      <trkpt lat="45.78959" lon="1.88295">
        <ele>706.8</ele>
        <time>2026-07-08T12:33:54.000Z</time>
      </trkpt>
      <trkpt lat="45.78959" lon="1.88295">
        <ele>706.8</ele>
        <time>2026-07-08T12:33:55.000Z</time>
      </trkpt>
      <trkpt lat="45.78959" lon="1.88295">
        <ele>706.8</ele>
        <time>2026-07-08T12:33:56.000Z</time>
      </trkpt>
      <trkpt lat="45.78959" lon="1.88295">
        <ele>706.8</ele>
        <time>2026-07-08T12:33:57.000Z</time>
      </trkpt>
      <trkpt lat="45.78959" lon="1.88295">
        <ele>706.8</ele>
        <time>2026-07-08T12:33:58.000Z</time>
      </trkpt>
      <trkpt lat="45.78959" lon="1.88295">
        <ele>706.8</ele>
        <time>2026-07-08T12:33:59.000Z</time>
      </trkpt>
      <trkpt lat="45.78959" lon="1.88295">
        <ele>706.8</ele>
        <time>2026-07-08T12:34:00.000Z</time>
      </trkpt>
      <trkpt lat="45.78959" lon="1.88295">
        <ele>706.8</ele>
        <time>2026-07-08T12:34:01.000Z</time>
      </trkpt>
      <trkpt lat="45.78959" lon="1.88295">
        <ele>706.8</ele>
        <time>2026-07-08T12:34:02.000Z</time>
      </trkpt>
      <trkpt lat="45.78959" lon="1.88295">
        <ele>706.9</ele>
        <time>2026-07-08T12:34:03.000Z</time>
      </trkpt>
      <trkpt lat="45.78959" lon="1.88295">
        <ele>706.9</ele>
        <time>2026-07-08T12:34:04.000Z</time>
      </trkpt>
      <trkpt lat="45.78959" lon="1.88295">
        <ele>706.9</ele>
        <time>2026-07-08T12:34:05.000Z</time>
      </trkpt>
      <trkpt lat="45.78959" lon="1.88295">
        <ele>706.9</ele>
        <time>2026-07-08T12:34:06.000Z</time>
      </trkpt>
      <trkpt lat="45.78959" lon="1.88295">
        <ele>706.9</ele>
        <time>2026-07-08T12:34:07.000Z</time>
      </trkpt>
      <trkpt lat="45.78959" lon="1.88295">
        <ele>706.8</ele>
        <time>2026-07-08T12:34:08.000Z</time>
      </trkpt>
      <trkpt lat="45.78959" lon="1.88295">
        <ele>706.8</ele>
        <time>2026-07-08T12:34:09.000Z</time>
      </trkpt>
      <trkpt lat="45.78959" lon="1.88295">
        <ele>706.9</ele>
        <time>2026-07-08T12:34:10.000Z</time>
      </trkpt>
      <trkpt lat="45.78959" lon="1.88295">
        <ele>706.9</ele>
        <time>2026-07-08T12:34:11.000Z</time>
      </trkpt>
      <trkpt lat="45.78959" lon="1.88295">
        <ele>706.9</ele>
        <time>2026-07-08T12:34:12.000Z</time>
      </trkpt>
      <trkpt lat="45.78959" lon="1.88295">
        <ele>706.9</ele>
        <time>2026-07-08T12:34:13.000Z</time>
      </trkpt>
      <trkpt lat="45.78959" lon="1.88295">
        <ele>706.9</ele>
        <time>2026-07-08T12:34:14.000Z</time>
      </trkpt>
      <trkpt lat="45.78959" lon="1.88295">
        <ele>706.9</ele>
        <time>2026-07-08T12:34:15.000Z</time>
      </trkpt>
      <trkpt lat="45.78959" lon="1.88295">
        <ele>706.9</ele>
        <time>2026-07-08T12:34:16.000Z</time>
      </trkpt>
      <trkpt lat="45.78959" lon="1.88295">
        <ele>706.9</ele>
        <time>2026-07-08T12:34:17.000Z</time>
      </trkpt>
      <trkpt lat="45.78959" lon="1.88295">
        <ele>706.9</ele>
        <time>2026-07-08T12:34:18.000Z</time>
      </trkpt>
      <trkpt lat="45.78959" lon="1.88295">
        <ele>707</ele>
        <time>2026-07-08T12:34:19.000Z</time>
      </trkpt>
      <trkpt lat="45.78959" lon="1.88295">
        <ele>707</ele>
        <time>2026-07-08T12:34:20.000Z</time>
      </trkpt>
      <trkpt lat="45.78959" lon="1.88295">
        <ele>707</ele>
        <time>2026-07-08T12:34:21.000Z</time>
      </trkpt>
      <trkpt lat="45.78959" lon="1.88295">
        <ele>707</ele>
        <time>2026-07-08T12:34:22.000Z</time>
      </trkpt>
      <trkpt lat="45.78959" lon="1.88295">
        <ele>707</ele>
        <time>2026-07-08T12:34:23.000Z</time>
      </trkpt>
      <trkpt lat="45.78959" lon="1.88295">
        <ele>707</ele>
        <time>2026-07-08T12:34:24.000Z</time>
      </trkpt>
      <trkpt lat="45.78959" lon="1.88295">
        <ele>707</ele>
        <time>2026-07-08T12:34:25.000Z</time>
      </trkpt>
      <trkpt lat="45.78959" lon="1.88295">
        <ele>707</ele>
        <time>2026-07-08T12:34:26.000Z</time>
      </trkpt>
      <trkpt lat="45.78959" lon="1.88295">
        <ele>707</ele>
        <time>2026-07-08T12:34:27.000Z</time>
      </trkpt>
      <trkpt lat="45.78959" lon="1.88295">
        <ele>707</ele>
        <time>2026-07-08T12:34:28.000Z</time>
      </trkpt>
      <trkpt lat="45.78959" lon="1.88295">
        <ele>707</ele>
        <time>2026-07-08T12:34:29.000Z</time>
      </trkpt>
      <trkpt lat="45.78959" lon="1.88295">
        <ele>707</ele>
        <time>2026-07-08T12:34:30.000Z</time>
      </trkpt>
      <trkpt lat="45.78959" lon="1.88295">
        <ele>707</ele>
        <time>2026-07-08T12:34:31.000Z</time>
      </trkpt>
      <trkpt lat="45.78959" lon="1.88295">
        <ele>707</ele>
        <time>2026-07-08T12:34:32.000Z</time>
      </trkpt>
      <trkpt lat="45.78959" lon="1.88295">
        <ele>707</ele>
        <time>2026-07-08T12:34:33.000Z</time>
      </trkpt>
      <trkpt lat="45.78959" lon="1.88295">
        <ele>707</ele>
        <time>2026-07-08T12:34:34.000Z</time>
      </trkpt>
      <trkpt lat="45.78959" lon="1.88295">
        <ele>707</ele>
        <time>2026-07-08T12:34:35.000Z</time>
      </trkpt>
      <trkpt lat="45.78959" lon="1.88295">
        <ele>707</ele>
        <time>2026-07-08T12:34:36.000Z</time>
      </trkpt>
      <trkpt lat="45.78959" lon="1.88295">
        <ele>707</ele>
        <time>2026-07-08T12:34:37.000Z</time>
      </trkpt>
      <trkpt lat="45.78959" lon="1.88295">
        <ele>707</ele>
        <time>2026-07-08T12:34:38.000Z</time>
      </trkpt>
      <trkpt lat="45.78959" lon="1.88295">
        <ele>707</ele>
        <time>2026-07-08T12:34:39.000Z</time>
      </trkpt>
      <trkpt lat="45.78959" lon="1.88295">
        <ele>707</ele>
        <time>2026-07-08T12:34:40.000Z</time>
      </trkpt>
      <trkpt lat="45.78959" lon="1.88295">
        <ele>706.9</ele>
        <time>2026-07-08T12:34:41.000Z</time>
      </trkpt>
      <trkpt lat="45.78959" lon="1.88295">
        <ele>706.9</ele>
        <time>2026-07-08T12:34:42.000Z</time>
      </trkpt>
      <trkpt lat="45.78959" lon="1.88295">
        <ele>706.9</ele>
        <time>2026-07-08T12:34:43.000Z</time>
      </trkpt>
      <trkpt lat="45.78959" lon="1.88295">
        <ele>707</ele>
        <time>2026-07-08T12:34:44.000Z</time>
      </trkpt>
      <trkpt lat="45.78958" lon="1.88294">
        <ele>707</ele>
        <time>2026-07-08T12:34:45.000Z</time>
      </trkpt>
      <trkpt lat="45.78958" lon="1.88294">
        <ele>707</ele>
        <time>2026-07-08T12:34:46.000Z</time>
      </trkpt>
      <trkpt lat="45.78958" lon="1.88294">
        <ele>706.4</ele>
        <time>2026-07-08T12:34:47.000Z</time>
      </trkpt>
      <trkpt lat="45.78958" lon="1.88294">
        <ele>705.8</ele>
        <time>2026-07-08T12:34:48.000Z</time>
      </trkpt>
      <trkpt lat="45.78959" lon="1.88293">
        <ele>705.1</ele>
        <time>2026-07-08T12:34:49.000Z</time>
      </trkpt>
      <trkpt lat="45.78959" lon="1.88293">
        <ele>704.7</ele>
        <time>2026-07-08T12:34:50.000Z</time>
      </trkpt>
      <trkpt lat="45.78959" lon="1.88293">
        <ele>704.7</ele>
        <time>2026-07-08T12:34:51.000Z</time>
      </trkpt>
      <trkpt lat="45.78959" lon="1.88293">
        <ele>704.6</ele>
        <time>2026-07-08T12:34:52.000Z</time>
      </trkpt>
      <trkpt lat="45.78959" lon="1.88293">
        <ele>704.8</ele>
        <time>2026-07-08T12:34:53.000Z</time>
      </trkpt>
      <trkpt lat="45.78959" lon="1.88292">
        <ele>704.9</ele>
        <time>2026-07-08T12:34:54.000Z</time>
      </trkpt>
      <trkpt lat="45.78959" lon="1.88292">
        <ele>704.8</ele>
        <time>2026-07-08T12:34:55.000Z</time>
      </trkpt>
      <trkpt lat="45.78959" lon="1.88292">
        <ele>704.5</ele>
        <time>2026-07-08T12:34:56.000Z</time>
      </trkpt>
      <trkpt lat="45.78959" lon="1.88293">
        <ele>704.4</ele>
        <time>2026-07-08T12:34:57.000Z</time>
      </trkpt>
      <trkpt lat="45.78959" lon="1.88293">
        <ele>704.4</ele>
        <time>2026-07-08T12:34:58.000Z</time>
      </trkpt>
      <trkpt lat="45.78959" lon="1.88293">
        <ele>704.5</ele>
        <time>2026-07-08T12:34:59.000Z</time>
      </trkpt>
      <trkpt lat="45.78959" lon="1.88293">
        <ele>704.5</ele>
        <time>2026-07-08T12:35:00.000Z</time>
      </trkpt>
      <trkpt lat="45.78959" lon="1.88293">
        <ele>704.5</ele>
        <time>2026-07-08T12:35:01.000Z</time>
      </trkpt>
      <trkpt lat="45.78959" lon="1.88293">
        <ele>704.9</ele>
        <time>2026-07-08T12:35:02.000Z</time>
      </trkpt>
      <trkpt lat="45.78959" lon="1.88293">
        <ele>704.8</ele>
        <time>2026-07-08T12:35:03.000Z</time>
      </trkpt>
      <trkpt lat="45.78959" lon="1.88293">
        <ele>704.8</ele>
        <time>2026-07-08T12:35:04.000Z</time>
      </trkpt>
      <trkpt lat="45.78959" lon="1.88293">
        <ele>704.8</ele>
        <time>2026-07-08T12:35:05.000Z</time>
      </trkpt>
      <trkpt lat="45.78959" lon="1.88293">
        <ele>704.8</ele>
        <time>2026-07-08T12:35:06.000Z</time>
      </trkpt>
      <trkpt lat="45.78959" lon="1.88292">
        <ele>704.8</ele>
        <time>2026-07-08T12:35:07.000Z</time>
      </trkpt>
      <trkpt lat="45.78959" lon="1.88292">
        <ele>704.9</ele>
        <time>2026-07-08T12:35:08.000Z</time>
      </trkpt>
      <trkpt lat="45.78959" lon="1.88292">
        <ele>705</ele>
        <time>2026-07-08T12:35:09.000Z</time>
      </trkpt>
      <trkpt lat="45.78959" lon="1.88292">
        <ele>705.3</ele>
        <time>2026-07-08T12:35:10.000Z</time>
      </trkpt>
      <trkpt lat="45.78959" lon="1.88292">
        <ele>705.1</ele>
        <time>2026-07-08T12:35:11.000Z</time>
      </trkpt>
      <trkpt lat="45.78959" lon="1.88292">
        <ele>705.1</ele>
        <time>2026-07-08T12:35:12.000Z</time>
      </trkpt>
      <trkpt lat="45.78959" lon="1.88291">
        <ele>704.9</ele>
        <time>2026-07-08T12:35:13.000Z</time>
      </trkpt>
      <trkpt lat="45.78959" lon="1.88291">
        <ele>704.8</ele>
        <time>2026-07-08T12:35:14.000Z</time>
      </trkpt>
      <trkpt lat="45.78959" lon="1.88291">
        <ele>705</ele>
        <time>2026-07-08T12:35:15.000Z</time>
      </trkpt>
      <trkpt lat="45.78959" lon="1.88291">
        <ele>705.1</ele>
        <time>2026-07-08T12:35:16.000Z</time>
      </trkpt>
      <trkpt lat="45.78959" lon="1.88291">
        <ele>704.9</ele>
        <time>2026-07-08T12:35:17.000Z</time>
      </trkpt>
      <trkpt lat="45.78959" lon="1.88291">
        <ele>705</ele>
        <time>2026-07-08T12:35:18.000Z</time>
      </trkpt>
      <trkpt lat="45.78959" lon="1.88291">
        <ele>704.9</ele>
        <time>2026-07-08T12:35:19.000Z</time>
      </trkpt>
      <trkpt lat="45.78959" lon="1.88291">
        <ele>704.9</ele>
        <time>2026-07-08T12:35:20.000Z</time>
      </trkpt>
      <trkpt lat="45.78958" lon="1.88291">
        <ele>704.9</ele>
        <time>2026-07-08T12:35:21.000Z</time>
      </trkpt>
      <trkpt lat="45.78958" lon="1.88291">
        <ele>705</ele>
        <time>2026-07-08T12:35:22.000Z</time>
      </trkpt>
      <trkpt lat="45.78958" lon="1.88291">
        <ele>704.9</ele>
        <time>2026-07-08T12:35:23.000Z</time>
      </trkpt>
      <trkpt lat="45.78958" lon="1.88291">
        <ele>704.9</ele>
        <time>2026-07-08T12:35:24.000Z</time>
      </trkpt>
      <trkpt lat="45.78958" lon="1.88291">
        <ele>704.9</ele>
        <time>2026-07-08T12:35:25.000Z</time>
      </trkpt>
      <trkpt lat="45.78958" lon="1.88291">
        <ele>704.9</ele>
        <time>2026-07-08T12:35:26.000Z</time>
      </trkpt>
      <trkpt lat="45.78958" lon="1.88291">
        <ele>704.9</ele>
        <time>2026-07-08T12:35:27.000Z</time>
      </trkpt>
      <trkpt lat="45.78958" lon="1.88291">
        <ele>704.9</ele>
        <time>2026-07-08T12:35:28.000Z</time>
      </trkpt>
      <trkpt lat="45.78958" lon="1.88291">
        <ele>704.9</ele>
        <time>2026-07-08T12:35:29.000Z</time>
      </trkpt>
      <trkpt lat="45.78958" lon="1.88291">
        <ele>704.9</ele>
        <time>2026-07-08T12:35:30.000Z</time>
      </trkpt>
      <trkpt lat="45.78958" lon="1.88291">
        <ele>704.9</ele>
        <time>2026-07-08T12:35:31.000Z</time>
      </trkpt>
      <trkpt lat="45.78958" lon="1.88291">
        <ele>704.9</ele>
        <time>2026-07-08T12:35:32.000Z</time>
      </trkpt>
      <trkpt lat="45.78958" lon="1.88291">
        <ele>704.9</ele>
        <time>2026-07-08T12:35:33.000Z</time>
      </trkpt>
      <trkpt lat="45.78958" lon="1.88291">
        <ele>704.9</ele>
        <time>2026-07-08T12:35:34.000Z</time>
      </trkpt>
      <trkpt lat="45.78958" lon="1.88291">
        <ele>704.9</ele>
        <time>2026-07-08T12:35:35.000Z</time>
      </trkpt>
      <trkpt lat="45.78958" lon="1.88291">
        <ele>704.9</ele>
        <time>2026-07-08T12:35:36.000Z</time>
      </trkpt>
      <trkpt lat="45.78958" lon="1.88291">
        <ele>704.9</ele>
        <time>2026-07-08T12:35:37.000Z</time>
      </trkpt>
      <trkpt lat="45.78958" lon="1.88291">
        <ele>704.9</ele>
        <time>2026-07-08T12:35:38.000Z</time>
      </trkpt>
      <trkpt lat="45.78958" lon="1.88291">
        <ele>704.9</ele>
        <time>2026-07-08T12:35:39.000Z</time>
      </trkpt>
      <trkpt lat="45.78958" lon="1.88291">
        <ele>704.9</ele>
        <time>2026-07-08T12:35:40.000Z</time>
      </trkpt>
      <trkpt lat="45.78958" lon="1.88291">
        <ele>704.9</ele>
        <time>2026-07-08T12:35:41.000Z</time>
      </trkpt>
      <trkpt lat="45.78958" lon="1.88291">
        <ele>704.9</ele>
        <time>2026-07-08T12:35:42.000Z</time>
      </trkpt>
      <trkpt lat="45.78958" lon="1.88291">
        <ele>704.9</ele>
        <time>2026-07-08T12:35:43.000Z</time>
      </trkpt>
      <trkpt lat="45.78958" lon="1.88291">
        <ele>704.9</ele>
        <time>2026-07-08T12:35:44.000Z</time>
      </trkpt>
      <trkpt lat="45.78958" lon="1.88291">
        <ele>704.9</ele>
        <time>2026-07-08T12:35:45.000Z</time>
      </trkpt>
      <trkpt lat="45.78958" lon="1.88291">
        <ele>704.9</ele>
        <time>2026-07-08T12:35:46.000Z</time>
      </trkpt>
      <trkpt lat="45.78958" lon="1.88291">
        <ele>704.9</ele>
        <time>2026-07-08T12:35:47.000Z</time>
      </trkpt>
      <trkpt lat="45.78958" lon="1.88291">
        <ele>704.9</ele>
        <time>2026-07-08T12:35:48.000Z</time>
      </trkpt>
      <trkpt lat="45.78958" lon="1.88291">
        <ele>704.9</ele>
        <time>2026-07-08T12:35:49.000Z</time>
      </trkpt>
      <trkpt lat="45.78958" lon="1.88291">
        <ele>704.9</ele>
        <time>2026-07-08T12:35:50.000Z</time>
      </trkpt>
      <trkpt lat="45.78958" lon="1.88291">
        <ele>704.9</ele>
        <time>2026-07-08T12:35:51.000Z</time>
      </trkpt>
      <trkpt lat="45.78958" lon="1.88291">
        <ele>704.9</ele>
        <time>2026-07-08T12:35:52.000Z</time>
      </trkpt>
      <trkpt lat="45.78958" lon="1.88291">
        <ele>704.9</ele>
        <time>2026-07-08T12:35:53.000Z</time>
      </trkpt>
      <trkpt lat="45.78958" lon="1.88291">
        <ele>704.9</ele>
        <time>2026-07-08T12:35:54.000Z</time>
      </trkpt>
      <trkpt lat="45.78958" lon="1.88291">
        <ele>704.9</ele>
        <time>2026-07-08T12:35:55.000Z</time>
      </trkpt>
      <trkpt lat="45.78958" lon="1.88291">
        <ele>704.9</ele>
        <time>2026-07-08T12:35:56.000Z</time>
      </trkpt>
      <trkpt lat="45.78958" lon="1.88291">
        <ele>704.9</ele>
        <time>2026-07-08T12:35:57.000Z</time>
      </trkpt>
      <trkpt lat="45.78958" lon="1.88291">
        <ele>705</ele>
        <time>2026-07-08T12:35:58.000Z</time>
      </trkpt>
      <trkpt lat="45.78958" lon="1.88291">
        <ele>705.1</ele>
        <time>2026-07-08T12:35:59.000Z</time>
      </trkpt>
      <trkpt lat="45.78958" lon="1.88291">
        <ele>704.8</ele>
        <time>2026-07-08T12:36:00.000Z</time>
      </trkpt>
      <trkpt lat="45.78958" lon="1.88291">
        <ele>705.2</ele>
        <time>2026-07-08T12:36:01.000Z</time>
      </trkpt>
      <trkpt lat="45.78958" lon="1.88291">
        <ele>705.1</ele>
        <time>2026-07-08T12:36:02.000Z</time>
      </trkpt>
      <trkpt lat="45.78958" lon="1.88291">
        <ele>705.1</ele>
        <time>2026-07-08T12:36:03.000Z</time>
      </trkpt>
      <trkpt lat="45.78958" lon="1.88291">
        <ele>705.2</ele>
        <time>2026-07-08T12:36:04.000Z</time>
      </trkpt>
      <trkpt lat="45.78958" lon="1.8829">
        <ele>705.1</ele>
        <time>2026-07-08T12:36:05.000Z</time>
      </trkpt>
      <trkpt lat="45.78958" lon="1.8829">
        <ele>705</ele>
        <time>2026-07-08T12:36:06.000Z</time>
      </trkpt>
      <trkpt lat="45.78958" lon="1.8829">
        <ele>705.1</ele>
        <time>2026-07-08T12:36:07.000Z</time>
      </trkpt>
      <trkpt lat="45.78958" lon="1.8829">
        <ele>705.2</ele>
        <time>2026-07-08T12:36:08.000Z</time>
      </trkpt>
      <trkpt lat="45.78958" lon="1.8829">
        <ele>705.1</ele>
        <time>2026-07-08T12:36:09.000Z</time>
      </trkpt>
      <trkpt lat="45.78958" lon="1.8829">
        <ele>705.2</ele>
        <time>2026-07-08T12:36:10.000Z</time>
      </trkpt>
      <trkpt lat="45.78958" lon="1.8829">
        <ele>705.2</ele>
        <time>2026-07-08T12:36:11.000Z</time>
      </trkpt>
      <trkpt lat="45.78958" lon="1.8829">
        <ele>705.2</ele>
        <time>2026-07-08T12:36:12.000Z</time>
      </trkpt>
      <trkpt lat="45.78958" lon="1.8829">
        <ele>705.2</ele>
        <time>2026-07-08T12:36:13.000Z</time>
      </trkpt>
      <trkpt lat="45.78958" lon="1.8829">
        <ele>705.2</ele>
        <time>2026-07-08T12:36:14.000Z</time>
      </trkpt>
      <trkpt lat="45.78958" lon="1.8829">
        <ele>705.2</ele>
        <time>2026-07-08T12:36:15.000Z</time>
      </trkpt>
      <trkpt lat="45.78958" lon="1.8829">
        <ele>705.2</ele>
        <time>2026-07-08T12:36:16.000Z</time>
      </trkpt>
      <trkpt lat="45.78958" lon="1.8829">
        <ele>705.2</ele>
        <time>2026-07-08T12:36:17.000Z</time>
      </trkpt>
      <trkpt lat="45.78958" lon="1.8829">
        <ele>705.2</ele>
        <time>2026-07-08T12:36:18.000Z</time>
      </trkpt>
      <trkpt lat="45.78958" lon="1.8829">
        <ele>705.2</ele>
        <time>2026-07-08T12:36:19.000Z</time>
      </trkpt>
      <trkpt lat="45.78958" lon="1.8829">
        <ele>705.2</ele>
        <time>2026-07-08T12:36:20.000Z</time>
      </trkpt>
      <trkpt lat="45.78958" lon="1.8829">
        <ele>705.2</ele>
        <time>2026-07-08T12:36:21.000Z</time>
      </trkpt>
      <trkpt lat="45.78958" lon="1.8829">
        <ele>705.2</ele>
        <time>2026-07-08T12:36:22.000Z</time>
      </trkpt>
      <trkpt lat="45.78958" lon="1.8829">
        <ele>705.2</ele>
        <time>2026-07-08T12:36:23.000Z</time>
      </trkpt>
      <trkpt lat="45.78958" lon="1.8829">
        <ele>705.6</ele>
        <time>2026-07-08T12:36:24.000Z</time>
      </trkpt>
      <trkpt lat="45.78958" lon="1.8829">
        <ele>706.2</ele>
        <time>2026-07-08T12:36:25.000Z</time>
      </trkpt>
      <trkpt lat="45.78957" lon="1.88289">
        <ele>706.2</ele>
        <time>2026-07-08T12:36:26.000Z</time>
      </trkpt>
      <trkpt lat="45.78957" lon="1.88289">
        <ele>705.8</ele>
        <time>2026-07-08T12:36:27.000Z</time>
      </trkpt>
      <trkpt lat="45.78957" lon="1.88289">
        <ele>705.8</ele>
        <time>2026-07-08T12:36:28.000Z</time>
      </trkpt>
      <trkpt lat="45.78957" lon="1.88289">
        <ele>706.2</ele>
        <time>2026-07-08T12:36:29.000Z</time>
      </trkpt>
      <trkpt lat="45.78957" lon="1.8829">
        <ele>705.5</ele>
        <time>2026-07-08T12:36:30.000Z</time>
      </trkpt>
      <trkpt lat="45.78957" lon="1.8829">
        <ele>705.4</ele>
        <time>2026-07-08T12:36:31.000Z</time>
      </trkpt>
      <trkpt lat="45.78957" lon="1.8829">
        <ele>705.6</ele>
        <time>2026-07-08T12:36:32.000Z</time>
      </trkpt>
      <trkpt lat="45.78957" lon="1.8829">
        <ele>705.2</ele>
        <time>2026-07-08T12:36:33.000Z</time>
      </trkpt>
      <trkpt lat="45.78958" lon="1.8829">
        <ele>705</ele>
        <time>2026-07-08T12:36:34.000Z</time>
      </trkpt>
      <trkpt lat="45.78957" lon="1.88289">
        <ele>705</ele>
        <time>2026-07-08T12:36:35.000Z</time>
      </trkpt>
      <trkpt lat="45.78957" lon="1.88289">
        <ele>704.9</ele>
        <time>2026-07-08T12:36:36.000Z</time>
      </trkpt>
      <trkpt lat="45.78957" lon="1.88289">
        <ele>705.3</ele>
        <time>2026-07-08T12:36:37.000Z</time>
      </trkpt>
      <trkpt lat="45.78957" lon="1.88289">
        <ele>705.4</ele>
        <time>2026-07-08T12:36:38.000Z</time>
      </trkpt>
      <trkpt lat="45.78957" lon="1.88289">
        <ele>704.6</ele>
        <time>2026-07-08T12:36:39.000Z</time>
      </trkpt>
      <trkpt lat="45.78957" lon="1.88289">
        <ele>704.5</ele>
        <time>2026-07-08T12:36:40.000Z</time>
      </trkpt>
      <trkpt lat="45.78957" lon="1.88288">
        <ele>704.8</ele>
        <time>2026-07-08T12:36:41.000Z</time>
      </trkpt>
      <trkpt lat="45.78957" lon="1.88288">
        <ele>705</ele>
        <time>2026-07-08T12:36:42.000Z</time>
      </trkpt>
      <trkpt lat="45.78957" lon="1.88288">
        <ele>705.2</ele>
        <time>2026-07-08T12:36:43.000Z</time>
      </trkpt>
      <trkpt lat="45.78957" lon="1.88287">
        <ele>705.2</ele>
        <time>2026-07-08T12:36:44.000Z</time>
      </trkpt>
      <trkpt lat="45.78957" lon="1.88287">
        <ele>705.3</ele>
        <time>2026-07-08T12:36:45.000Z</time>
      </trkpt>
      <trkpt lat="45.78957" lon="1.88287">
        <ele>705.4</ele>
        <time>2026-07-08T12:36:46.000Z</time>
      </trkpt>
      <trkpt lat="45.78957" lon="1.88287">
        <ele>705.4</ele>
        <time>2026-07-08T12:36:47.000Z</time>
      </trkpt>
      <trkpt lat="45.78957" lon="1.88287">
        <ele>705.4</ele>
        <time>2026-07-08T12:36:48.000Z</time>
      </trkpt>
      <trkpt lat="45.78957" lon="1.88287">
        <ele>705.4</ele>
        <time>2026-07-08T12:36:49.000Z</time>
      </trkpt>
      <trkpt lat="45.78957" lon="1.88287">
        <ele>705.4</ele>
        <time>2026-07-08T12:36:50.000Z</time>
      </trkpt>
      <trkpt lat="45.78957" lon="1.88287">
        <ele>705.4</ele>
        <time>2026-07-08T12:36:51.000Z</time>
      </trkpt>
      <trkpt lat="45.78957" lon="1.88287">
        <ele>705.4</ele>
        <time>2026-07-08T12:36:52.000Z</time>
      </trkpt>
      <trkpt lat="45.78957" lon="1.88287">
        <ele>705.4</ele>
        <time>2026-07-08T12:36:53.000Z</time>
      </trkpt>
      <trkpt lat="45.78957" lon="1.88287">
        <ele>705.4</ele>
        <time>2026-07-08T12:36:54.000Z</time>
      </trkpt>
      <trkpt lat="45.78957" lon="1.88287">
        <ele>705.4</ele>
        <time>2026-07-08T12:36:55.000Z</time>
      </trkpt>
      <trkpt lat="45.78957" lon="1.88287">
        <ele>705.4</ele>
        <time>2026-07-08T12:36:56.000Z</time>
      </trkpt>
      <trkpt lat="45.78957" lon="1.88287">
        <ele>705.4</ele>
        <time>2026-07-08T12:36:57.000Z</time>
      </trkpt>
      <trkpt lat="45.78957" lon="1.88287">
        <ele>705.4</ele>
        <time>2026-07-08T12:36:58.000Z</time>
      </trkpt>
      <trkpt lat="45.78957" lon="1.88287">
        <ele>705.4</ele>
        <time>2026-07-08T12:36:59.000Z</time>
      </trkpt>
      <trkpt lat="45.78957" lon="1.88287">
        <ele>705.4</ele>
        <time>2026-07-08T12:37:00.000Z</time>
      </trkpt>
      <trkpt lat="45.78957" lon="1.88287">
        <ele>705.4</ele>
        <time>2026-07-08T12:37:01.000Z</time>
      </trkpt>
      <trkpt lat="45.78957" lon="1.88287">
        <ele>705.4</ele>
        <time>2026-07-08T12:37:02.000Z</time>
      </trkpt>
      <trkpt lat="45.78957" lon="1.88287">
        <ele>705.4</ele>
        <time>2026-07-08T12:37:03.000Z</time>
      </trkpt>
      <trkpt lat="45.78957" lon="1.88287">
        <ele>705.4</ele>
        <time>2026-07-08T12:37:04.000Z</time>
      </trkpt>
      <trkpt lat="45.78957" lon="1.88287">
        <ele>705.4</ele>
        <time>2026-07-08T12:37:05.000Z</time>
      </trkpt>
      <trkpt lat="45.78957" lon="1.88287">
        <ele>705.4</ele>
        <time>2026-07-08T12:37:06.000Z</time>
      </trkpt>
      <trkpt lat="45.78957" lon="1.88287">
        <ele>705.5</ele>
        <time>2026-07-08T12:37:07.000Z</time>
      </trkpt>
      <trkpt lat="45.78957" lon="1.88287">
        <ele>705.5</ele>
        <time>2026-07-08T12:37:08.000Z</time>
      </trkpt>
      <trkpt lat="45.78957" lon="1.88287">
        <ele>705.5</ele>
        <time>2026-07-08T12:37:09.000Z</time>
      </trkpt>
      <trkpt lat="45.78957" lon="1.88287">
        <ele>705.5</ele>
        <time>2026-07-08T12:37:10.000Z</time>
      </trkpt>
      <trkpt lat="45.78957" lon="1.88287">
        <ele>705.5</ele>
        <time>2026-07-08T12:37:11.000Z</time>
      </trkpt>
      <trkpt lat="45.78957" lon="1.88287">
        <ele>705.5</ele>
        <time>2026-07-08T12:37:12.000Z</time>
      </trkpt>
      <trkpt lat="45.78957" lon="1.88287">
        <ele>705.5</ele>
        <time>2026-07-08T12:37:13.000Z</time>
      </trkpt>
      <trkpt lat="45.78957" lon="1.88287">
        <ele>705.5</ele>
        <time>2026-07-08T12:37:14.000Z</time>
      </trkpt>
      <trkpt lat="45.78957" lon="1.88287">
        <ele>705.5</ele>
        <time>2026-07-08T12:37:15.000Z</time>
      </trkpt>
      <trkpt lat="45.78957" lon="1.88287">
        <ele>705.5</ele>
        <time>2026-07-08T12:37:16.000Z</time>
      </trkpt>
      <trkpt lat="45.78957" lon="1.88287">
        <ele>705.5</ele>
        <time>2026-07-08T12:37:17.000Z</time>
      </trkpt>
      <trkpt lat="45.78957" lon="1.88287">
        <ele>705.4</ele>
        <time>2026-07-08T12:37:18.000Z</time>
      </trkpt>
      <trkpt lat="45.78957" lon="1.88287">
        <ele>705.4</ele>
        <time>2026-07-08T12:37:19.000Z</time>
      </trkpt>
      <trkpt lat="45.78957" lon="1.88287">
        <ele>705.4</ele>
        <time>2026-07-08T12:37:20.000Z</time>
      </trkpt>
      <trkpt lat="45.78957" lon="1.88287">
        <ele>705.4</ele>
        <time>2026-07-08T12:37:21.000Z</time>
      </trkpt>
      <trkpt lat="45.78957" lon="1.88287">
        <ele>705.4</ele>
        <time>2026-07-08T12:37:22.000Z</time>
      </trkpt>
      <trkpt lat="45.78957" lon="1.88287">
        <ele>705.4</ele>
        <time>2026-07-08T12:37:23.000Z</time>
      </trkpt>
      <trkpt lat="45.78957" lon="1.88287">
        <ele>705.4</ele>
        <time>2026-07-08T12:37:24.000Z</time>
      </trkpt>
      <trkpt lat="45.78957" lon="1.88287">
        <ele>705.4</ele>
        <time>2026-07-08T12:37:25.000Z</time>
      </trkpt>
      <trkpt lat="45.78957" lon="1.88287">
        <ele>705.4</ele>
        <time>2026-07-08T12:37:26.000Z</time>
      </trkpt>
      <trkpt lat="45.78957" lon="1.88287">
        <ele>705.4</ele>
        <time>2026-07-08T12:37:27.000Z</time>
      </trkpt>
      <trkpt lat="45.78957" lon="1.88287">
        <ele>705.4</ele>
        <time>2026-07-08T12:37:28.000Z</time>
      </trkpt>
      <trkpt lat="45.78957" lon="1.88287">
        <ele>705.4</ele>
        <time>2026-07-08T12:37:29.000Z</time>
      </trkpt>
      <trkpt lat="45.78957" lon="1.88287">
        <ele>705.4</ele>
        <time>2026-07-08T12:37:30.000Z</time>
      </trkpt>
      <trkpt lat="45.78957" lon="1.88287">
        <ele>705.4</ele>
        <time>2026-07-08T12:37:31.000Z</time>
      </trkpt>
      <trkpt lat="45.78957" lon="1.88287">
        <ele>705.4</ele>
        <time>2026-07-08T12:37:32.000Z</time>
      </trkpt>
      <trkpt lat="45.78957" lon="1.88287">
        <ele>705.4</ele>
        <time>2026-07-08T12:37:33.000Z</time>
      </trkpt>
      <trkpt lat="45.78957" lon="1.88287">
        <ele>705.4</ele>
        <time>2026-07-08T12:37:34.000Z</time>
      </trkpt>
      <trkpt lat="45.78957" lon="1.88287">
        <ele>705.4</ele>
        <time>2026-07-08T12:37:35.000Z</time>
      </trkpt>
      <trkpt lat="45.78957" lon="1.88287">
        <ele>705.4</ele>
        <time>2026-07-08T12:37:36.000Z</time>
      </trkpt>
      <trkpt lat="45.78957" lon="1.88287">
        <ele>705.4</ele>
        <time>2026-07-08T12:37:37.000Z</time>
      </trkpt>
      <trkpt lat="45.78957" lon="1.88287">
        <ele>705.4</ele>
        <time>2026-07-08T12:37:38.000Z</time>
      </trkpt>
      <trkpt lat="45.78957" lon="1.88287">
        <ele>705.4</ele>
        <time>2026-07-08T12:37:39.000Z</time>
      </trkpt>
      <trkpt lat="45.78957" lon="1.88287">
        <ele>705.4</ele>
        <time>2026-07-08T12:37:40.000Z</time>
      </trkpt>
      <trkpt lat="45.78957" lon="1.88287">
        <ele>705.4</ele>
        <time>2026-07-08T12:37:41.000Z</time>
      </trkpt>
      <trkpt lat="45.78957" lon="1.88286">
        <ele>706.2</ele>
        <time>2026-07-08T12:37:42.000Z</time>
      </trkpt>
      <trkpt lat="45.78957" lon="1.88286">
        <ele>705.6</ele>
        <time>2026-07-08T12:37:43.000Z</time>
      </trkpt>
      <trkpt lat="45.78957" lon="1.88286">
        <ele>704.9</ele>
        <time>2026-07-08T12:37:44.000Z</time>
      </trkpt>
      <trkpt lat="45.78958" lon="1.88286">
        <ele>705.4</ele>
        <time>2026-07-08T12:37:45.000Z</time>
      </trkpt>
      <trkpt lat="45.78958" lon="1.88286">
        <ele>705.2</ele>
        <time>2026-07-08T12:37:46.000Z</time>
      </trkpt>
      <trkpt lat="45.78957" lon="1.88287">
        <ele>705.3</ele>
        <time>2026-07-08T12:37:47.000Z</time>
      </trkpt>
      <trkpt lat="45.78957" lon="1.88286">
        <ele>705</ele>
        <time>2026-07-08T12:37:48.000Z</time>
      </trkpt>
      <trkpt lat="45.78957" lon="1.88286">
        <ele>704.7</ele>
        <time>2026-07-08T12:37:49.000Z</time>
      </trkpt>
      <trkpt lat="45.78957" lon="1.88286">
        <ele>704.3</ele>
        <time>2026-07-08T12:37:50.000Z</time>
      </trkpt>
      <trkpt lat="45.78957" lon="1.88286">
        <ele>704.2</ele>
        <time>2026-07-08T12:37:51.000Z</time>
      </trkpt>
      <trkpt lat="45.78957" lon="1.88286">
        <ele>704.1</ele>
        <time>2026-07-08T12:37:52.000Z</time>
      </trkpt>
      <trkpt lat="45.78958" lon="1.88286">
        <ele>704.3</ele>
        <time>2026-07-08T12:37:53.000Z</time>
      </trkpt>
      <trkpt lat="45.78958" lon="1.88286">
        <ele>704.3</ele>
        <time>2026-07-08T12:37:54.000Z</time>
      </trkpt>
      <trkpt lat="45.78957" lon="1.88286">
        <ele>704.2</ele>
        <time>2026-07-08T12:37:55.000Z</time>
      </trkpt>
      <trkpt lat="45.78957" lon="1.88286">
        <ele>704.2</ele>
        <time>2026-07-08T12:37:56.000Z</time>
      </trkpt>
      <trkpt lat="45.78957" lon="1.88286">
        <ele>704.2</ele>
        <time>2026-07-08T12:37:57.000Z</time>
      </trkpt>
      <trkpt lat="45.78957" lon="1.88286">
        <ele>704.2</ele>
        <time>2026-07-08T12:37:58.000Z</time>
      </trkpt>
      <trkpt lat="45.78957" lon="1.88286">
        <ele>704.2</ele>
        <time>2026-07-08T12:37:59.000Z</time>
      </trkpt>
      <trkpt lat="45.78957" lon="1.88286">
        <ele>704.2</ele>
        <time>2026-07-08T12:38:00.000Z</time>
      </trkpt>
      <trkpt lat="45.78957" lon="1.88286">
        <ele>704.2</ele>
        <time>2026-07-08T12:38:01.000Z</time>
      </trkpt>
      <trkpt lat="45.78957" lon="1.88286">
        <ele>704.2</ele>
        <time>2026-07-08T12:38:02.000Z</time>
      </trkpt>
      <trkpt lat="45.78957" lon="1.88286">
        <ele>704.2</ele>
        <time>2026-07-08T12:38:03.000Z</time>
      </trkpt>
      <trkpt lat="45.78957" lon="1.88286">
        <ele>704.2</ele>
        <time>2026-07-08T12:38:04.000Z</time>
      </trkpt>
      <trkpt lat="45.78957" lon="1.88286">
        <ele>704.2</ele>
        <time>2026-07-08T12:38:05.000Z</time>
      </trkpt>
      <trkpt lat="45.78957" lon="1.88286">
        <ele>704.1</ele>
        <time>2026-07-08T12:38:06.000Z</time>
      </trkpt>
      <trkpt lat="45.78957" lon="1.88287">
        <ele>704</ele>
        <time>2026-07-08T12:38:07.000Z</time>
      </trkpt>
      <trkpt lat="45.78958" lon="1.88286">
        <ele>705.8</ele>
        <time>2026-07-08T12:38:08.000Z</time>
      </trkpt>
      <trkpt lat="45.78958" lon="1.88286">
        <ele>706.8</ele>
        <time>2026-07-08T12:38:09.000Z</time>
      </trkpt>
      <trkpt lat="45.78958" lon="1.88287">
        <ele>707</ele>
        <time>2026-07-08T12:38:10.000Z</time>
      </trkpt>
      <trkpt lat="45.78957" lon="1.88287">
        <ele>706.7</ele>
        <time>2026-07-08T12:38:11.000Z</time>
      </trkpt>
      <trkpt lat="45.78957" lon="1.88288">
        <ele>706.9</ele>
        <time>2026-07-08T12:38:12.000Z</time>
      </trkpt>
      <trkpt lat="45.78957" lon="1.88288">
        <ele>707.1</ele>
        <time>2026-07-08T12:38:13.000Z</time>
      </trkpt>
      <trkpt lat="45.78957" lon="1.88288">
        <ele>707.7</ele>
        <time>2026-07-08T12:38:14.000Z</time>
      </trkpt>
      <trkpt lat="45.78958" lon="1.88288">
        <ele>708</ele>
        <time>2026-07-08T12:38:15.000Z</time>
      </trkpt>
      <trkpt lat="45.78958" lon="1.88289">
        <ele>708.1</ele>
        <time>2026-07-08T12:38:16.000Z</time>
      </trkpt>
      <trkpt lat="45.78957" lon="1.88289">
        <ele>708.4</ele>
        <time>2026-07-08T12:38:17.000Z</time>
      </trkpt>
      <trkpt lat="45.78957" lon="1.88289">
        <ele>708.5</ele>
        <time>2026-07-08T12:38:18.000Z</time>
      </trkpt>
      <trkpt lat="45.78958" lon="1.88289">
        <ele>708.5</ele>
        <time>2026-07-08T12:38:19.000Z</time>
      </trkpt>
      <trkpt lat="45.78958" lon="1.88289">
        <ele>708.6</ele>
        <time>2026-07-08T12:38:20.000Z</time>
      </trkpt>
      <trkpt lat="45.78958" lon="1.88289">
        <ele>708.6</ele>
        <time>2026-07-08T12:38:21.000Z</time>
      </trkpt>
      <trkpt lat="45.78958" lon="1.88289">
        <ele>708.6</ele>
        <time>2026-07-08T12:38:22.000Z</time>
      </trkpt>
      <trkpt lat="45.78958" lon="1.88289">
        <ele>708.6</ele>
        <time>2026-07-08T12:38:23.000Z</time>
      </trkpt>
      <trkpt lat="45.78958" lon="1.88289">
        <ele>708.6</ele>
        <time>2026-07-08T12:38:24.000Z</time>
      </trkpt>
      <trkpt lat="45.78958" lon="1.88289">
        <ele>708.6</ele>
        <time>2026-07-08T12:38:25.000Z</time>
      </trkpt>
      <trkpt lat="45.78958" lon="1.88289">
        <ele>708.6</ele>
        <time>2026-07-08T12:38:26.000Z</time>
      </trkpt>
      <trkpt lat="45.78958" lon="1.88289">
        <ele>708.6</ele>
        <time>2026-07-08T12:38:27.000Z</time>
      </trkpt>
      <trkpt lat="45.78958" lon="1.88289">
        <ele>708.6</ele>
        <time>2026-07-08T12:38:28.000Z</time>
      </trkpt>
      <trkpt lat="45.78958" lon="1.88289">
        <ele>708.6</ele>
        <time>2026-07-08T12:38:29.000Z</time>
      </trkpt>
      <trkpt lat="45.78958" lon="1.88289">
        <ele>708.6</ele>
        <time>2026-07-08T12:38:30.000Z</time>
      </trkpt>
      <trkpt lat="45.78958" lon="1.88289">
        <ele>708.6</ele>
        <time>2026-07-08T12:38:31.000Z</time>
      </trkpt>
      <trkpt lat="45.78958" lon="1.88289">
        <ele>708.6</ele>
        <time>2026-07-08T12:38:32.000Z</time>
      </trkpt>
      <trkpt lat="45.78958" lon="1.88289">
        <ele>708.6</ele>
        <time>2026-07-08T12:38:33.000Z</time>
      </trkpt>
      <trkpt lat="45.78958" lon="1.88289">
        <ele>708.6</ele>
        <time>2026-07-08T12:38:34.000Z</time>
      </trkpt>
      <trkpt lat="45.78958" lon="1.88289">
        <ele>708.6</ele>
        <time>2026-07-08T12:38:35.000Z</time>
      </trkpt>
      <trkpt lat="45.78958" lon="1.88289">
        <ele>708.6</ele>
        <time>2026-07-08T12:38:36.000Z</time>
      </trkpt>
      <trkpt lat="45.78958" lon="1.88289">
        <ele>708.6</ele>
        <time>2026-07-08T12:38:37.000Z</time>
      </trkpt>
      <trkpt lat="45.78958" lon="1.88289">
        <ele>708.6</ele>
        <time>2026-07-08T12:38:38.000Z</time>
      </trkpt>
      <trkpt lat="45.78958" lon="1.88289">
        <ele>708.6</ele>
        <time>2026-07-08T12:38:39.000Z</time>
      </trkpt>
      <trkpt lat="45.78958" lon="1.88289">
        <ele>708.6</ele>
        <time>2026-07-08T12:38:40.000Z</time>
      </trkpt>
      <trkpt lat="45.78958" lon="1.88289">
        <ele>708.6</ele>
        <time>2026-07-08T12:38:41.000Z</time>
      </trkpt>
      <trkpt lat="45.78958" lon="1.88289">
        <ele>708.6</ele>
        <time>2026-07-08T12:38:42.000Z</time>
      </trkpt>
      <trkpt lat="45.78958" lon="1.88289">
        <ele>708.6</ele>
        <time>2026-07-08T12:38:43.000Z</time>
      </trkpt>
      <trkpt lat="45.78958" lon="1.88289">
        <ele>708.6</ele>
        <time>2026-07-08T12:38:44.000Z</time>
      </trkpt>
      <trkpt lat="45.78958" lon="1.88289">
        <ele>708.6</ele>
        <time>2026-07-08T12:38:45.000Z</time>
      </trkpt>
      <trkpt lat="45.78958" lon="1.88289">
        <ele>708.6</ele>
        <time>2026-07-08T12:38:46.000Z</time>
      </trkpt>
      <trkpt lat="45.78958" lon="1.88289">
        <ele>708.6</ele>
        <time>2026-07-08T12:38:47.000Z</time>
      </trkpt>
      <trkpt lat="45.78958" lon="1.88289">
        <ele>708.6</ele>
        <time>2026-07-08T12:38:48.000Z</time>
      </trkpt>
      <trkpt lat="45.78958" lon="1.88289">
        <ele>708.6</ele>
        <time>2026-07-08T12:38:49.000Z</time>
      </trkpt>
      <trkpt lat="45.78958" lon="1.88289">
        <ele>708.6</ele>
        <time>2026-07-08T12:38:50.000Z</time>
      </trkpt>
      <trkpt lat="45.78958" lon="1.88289">
        <ele>708.6</ele>
        <time>2026-07-08T12:38:51.000Z</time>
      </trkpt>
      <trkpt lat="45.78958" lon="1.88289">
        <ele>708.6</ele>
        <time>2026-07-08T12:38:52.000Z</time>
      </trkpt>
      <trkpt lat="45.78958" lon="1.88289">
        <ele>708.6</ele>
        <time>2026-07-08T12:38:53.000Z</time>
      </trkpt>
      <trkpt lat="45.78958" lon="1.88289">
        <ele>708.6</ele>
        <time>2026-07-08T12:38:54.000Z</time>
      </trkpt>
      <trkpt lat="45.78958" lon="1.88289">
        <ele>708.5</ele>
        <time>2026-07-08T12:38:55.000Z</time>
      </trkpt>
      <trkpt lat="45.78958" lon="1.88289">
        <ele>708.5</ele>
        <time>2026-07-08T12:38:56.000Z</time>
      </trkpt>
      <trkpt lat="45.78958" lon="1.88289">
        <ele>708.5</ele>
        <time>2026-07-08T12:38:57.000Z</time>
      </trkpt>
      <trkpt lat="45.78958" lon="1.88289">
        <ele>708.5</ele>
        <time>2026-07-08T12:38:58.000Z</time>
      </trkpt>
      <trkpt lat="45.78958" lon="1.88289">
        <ele>708.5</ele>
        <time>2026-07-08T12:38:59.000Z</time>
      </trkpt>
      <trkpt lat="45.78958" lon="1.88289">
        <ele>708.6</ele>
        <time>2026-07-08T12:39:00.000Z</time>
      </trkpt>
      <trkpt lat="45.78958" lon="1.88289">
        <ele>708.6</ele>
        <time>2026-07-08T12:39:01.000Z</time>
      </trkpt>
      <trkpt lat="45.78958" lon="1.88289">
        <ele>708.6</ele>
        <time>2026-07-08T12:39:02.000Z</time>
      </trkpt>
      <trkpt lat="45.78958" lon="1.88289">
        <ele>708.6</ele>
        <time>2026-07-08T12:39:03.000Z</time>
      </trkpt>
      <trkpt lat="45.78958" lon="1.88289">
        <ele>708.6</ele>
        <time>2026-07-08T12:39:04.000Z</time>
      </trkpt>
      <trkpt lat="45.78958" lon="1.88289">
        <ele>708.6</ele>
        <time>2026-07-08T12:39:05.000Z</time>
      </trkpt>
      <trkpt lat="45.78958" lon="1.88289">
        <ele>708.6</ele>
        <time>2026-07-08T12:39:06.000Z</time>
      </trkpt>
      <trkpt lat="45.78958" lon="1.88289">
        <ele>708.6</ele>
        <time>2026-07-08T12:39:07.000Z</time>
      </trkpt>
      <trkpt lat="45.78958" lon="1.88289">
        <ele>708.6</ele>
        <time>2026-07-08T12:39:08.000Z</time>
      </trkpt>
      <trkpt lat="45.78958" lon="1.88289">
        <ele>708.6</ele>
        <time>2026-07-08T12:39:09.000Z</time>
      </trkpt>
      <trkpt lat="45.78958" lon="1.88289">
        <ele>708.6</ele>
        <time>2026-07-08T12:39:10.000Z</time>
      </trkpt>
      <trkpt lat="45.78958" lon="1.88289">
        <ele>708.6</ele>
        <time>2026-07-08T12:39:11.000Z</time>
      </trkpt>
      <trkpt lat="45.78958" lon="1.88289">
        <ele>708.6</ele>
        <time>2026-07-08T12:39:12.000Z</time>
      </trkpt>
      <trkpt lat="45.78958" lon="1.88289">
        <ele>708.6</ele>
        <time>2026-07-08T12:39:13.000Z</time>
      </trkpt>
      <trkpt lat="45.78958" lon="1.88289">
        <ele>708.6</ele>
        <time>2026-07-08T12:39:14.000Z</time>
      </trkpt>
      <trkpt lat="45.78958" lon="1.88289">
        <ele>708.6</ele>
        <time>2026-07-08T12:39:15.000Z</time>
      </trkpt>
      <trkpt lat="45.78958" lon="1.88289">
        <ele>708.6</ele>
        <time>2026-07-08T12:39:16.000Z</time>
      </trkpt>
      <trkpt lat="45.78958" lon="1.88289">
        <ele>708.6</ele>
        <time>2026-07-08T12:39:17.000Z</time>
      </trkpt>
      <trkpt lat="45.78958" lon="1.88289">
        <ele>708.5</ele>
        <time>2026-07-08T12:39:18.000Z</time>
      </trkpt>
      <trkpt lat="45.78958" lon="1.88289">
        <ele>708.5</ele>
        <time>2026-07-08T12:39:19.000Z</time>
      </trkpt>
      <trkpt lat="45.78958" lon="1.88289">
        <ele>708.5</ele>
        <time>2026-07-08T12:39:20.000Z</time>
      </trkpt>
      <trkpt lat="45.78958" lon="1.88289">
        <ele>708.5</ele>
        <time>2026-07-08T12:39:21.000Z</time>
      </trkpt>
      <trkpt lat="45.78958" lon="1.88289">
        <ele>708.5</ele>
        <time>2026-07-08T12:39:22.000Z</time>
      </trkpt>
      <trkpt lat="45.78958" lon="1.88289">
        <ele>708.5</ele>
        <time>2026-07-08T12:39:23.000Z</time>
      </trkpt>
      <trkpt lat="45.78958" lon="1.88289">
        <ele>708.5</ele>
        <time>2026-07-08T12:39:24.000Z</time>
      </trkpt>
      <trkpt lat="45.78958" lon="1.88289">
        <ele>708.5</ele>
        <time>2026-07-08T12:39:25.000Z</time>
      </trkpt>
      <trkpt lat="45.78958" lon="1.88289">
        <ele>708.5</ele>
        <time>2026-07-08T12:39:26.000Z</time>
      </trkpt>
      <trkpt lat="45.78958" lon="1.88289">
        <ele>708.5</ele>
        <time>2026-07-08T12:39:27.000Z</time>
      </trkpt>
      <trkpt lat="45.78958" lon="1.88289">
        <ele>708.5</ele>
        <time>2026-07-08T12:39:28.000Z</time>
      </trkpt>
      <trkpt lat="45.78958" lon="1.88289">
        <ele>708.5</ele>
        <time>2026-07-08T12:39:29.000Z</time>
      </trkpt>
      <trkpt lat="45.78958" lon="1.88289">
        <ele>708.5</ele>
        <time>2026-07-08T12:39:30.000Z</time>
      </trkpt>
      <trkpt lat="45.78958" lon="1.88289">
        <ele>708.5</ele>
        <time>2026-07-08T12:39:31.000Z</time>
      </trkpt>
      <trkpt lat="45.78958" lon="1.88289">
        <ele>708.5</ele>
        <time>2026-07-08T12:39:32.000Z</time>
      </trkpt>
      <trkpt lat="45.78958" lon="1.88289">
        <ele>708.5</ele>
        <time>2026-07-08T12:39:33.000Z</time>
      </trkpt>
      <trkpt lat="45.78958" lon="1.88289">
        <ele>708.5</ele>
        <time>2026-07-08T12:39:34.000Z</time>
      </trkpt>
      <trkpt lat="45.78958" lon="1.88289">
        <ele>708.5</ele>
        <time>2026-07-08T12:39:35.000Z</time>
      </trkpt>
      <trkpt lat="45.78958" lon="1.88289">
        <ele>708.5</ele>
        <time>2026-07-08T12:39:36.000Z</time>
      </trkpt>
      <trkpt lat="45.78958" lon="1.88289">
        <ele>708.5</ele>
        <time>2026-07-08T12:39:37.000Z</time>
      </trkpt>
      <trkpt lat="45.78958" lon="1.88289">
        <ele>708.5</ele>
        <time>2026-07-08T12:39:38.000Z</time>
      </trkpt>
      <trkpt lat="45.78958" lon="1.88289">
        <ele>708.5</ele>
        <time>2026-07-08T12:39:39.000Z</time>
      </trkpt>
      <trkpt lat="45.78958" lon="1.88289">
        <ele>708.5</ele>
        <time>2026-07-08T12:39:40.000Z</time>
      </trkpt>
      <trkpt lat="45.78958" lon="1.88289">
        <ele>708.5</ele>
        <time>2026-07-08T12:39:41.000Z</time>
      </trkpt>
      <trkpt lat="45.78958" lon="1.88289">
        <ele>708.5</ele>
        <time>2026-07-08T12:39:42.000Z</time>
      </trkpt>
      <trkpt lat="45.78958" lon="1.88289">
        <ele>708.5</ele>
        <time>2026-07-08T12:39:43.000Z</time>
      </trkpt>
      <trkpt lat="45.78958" lon="1.88289">
        <ele>708.5</ele>
        <time>2026-07-08T12:39:44.000Z</time>
      </trkpt>
      <trkpt lat="45.78958" lon="1.88289">
        <ele>708.5</ele>
        <time>2026-07-08T12:39:45.000Z</time>
      </trkpt>
      <trkpt lat="45.78958" lon="1.88289">
        <ele>708.5</ele>
        <time>2026-07-08T12:39:46.000Z</time>
      </trkpt>
      <trkpt lat="45.78958" lon="1.88289">
        <ele>708.5</ele>
        <time>2026-07-08T12:39:47.000Z</time>
      </trkpt>
      <trkpt lat="45.78958" lon="1.88289">
        <ele>708.5</ele>
        <time>2026-07-08T12:39:48.000Z</time>
      </trkpt>
      <trkpt lat="45.78958" lon="1.88289">
        <ele>708.5</ele>
        <time>2026-07-08T12:39:49.000Z</time>
      </trkpt>
      <trkpt lat="45.78958" lon="1.88289">
        <ele>708.5</ele>
        <time>2026-07-08T12:39:50.000Z</time>
      </trkpt>
      <trkpt lat="45.78958" lon="1.88289">
        <ele>708.5</ele>
        <time>2026-07-08T12:39:51.000Z</time>
      </trkpt>
      <trkpt lat="45.78958" lon="1.88289">
        <ele>708.5</ele>
        <time>2026-07-08T12:39:52.000Z</time>
      </trkpt>
      <trkpt lat="45.78958" lon="1.8829">
        <ele>709.3</ele>
        <time>2026-07-08T12:39:53.000Z</time>
      </trkpt>
      <trkpt lat="45.78958" lon="1.8829">
        <ele>709</ele>
        <time>2026-07-08T12:39:54.000Z</time>
      </trkpt>
      <trkpt lat="45.78958" lon="1.8829">
        <ele>708.8</ele>
        <time>2026-07-08T12:39:55.000Z</time>
      </trkpt>
      <trkpt lat="45.78958" lon="1.8829">
        <ele>708.5</ele>
        <time>2026-07-08T12:39:56.000Z</time>
      </trkpt>
      <trkpt lat="45.78958" lon="1.8829">
        <ele>708.9</ele>
        <time>2026-07-08T12:39:57.000Z</time>
      </trkpt>
      <trkpt lat="45.78958" lon="1.8829">
        <ele>708.8</ele>
        <time>2026-07-08T12:39:58.000Z</time>
      </trkpt>
      <trkpt lat="45.78958" lon="1.88291">
        <ele>708.6</ele>
        <time>2026-07-08T12:39:59.000Z</time>
      </trkpt>
      <trkpt lat="45.78957" lon="1.88291">
        <ele>708.3</ele>
        <time>2026-07-08T12:40:00.000Z</time>
      </trkpt>
      <trkpt lat="45.78958" lon="1.88291">
        <ele>708.4</ele>
        <time>2026-07-08T12:40:01.000Z</time>
      </trkpt>
      <trkpt lat="45.78957" lon="1.88291">
        <ele>708.2</ele>
        <time>2026-07-08T12:40:02.000Z</time>
      </trkpt>
      <trkpt lat="45.78957" lon="1.88291">
        <ele>708</ele>
        <time>2026-07-08T12:40:03.000Z</time>
      </trkpt>
      <trkpt lat="45.78957" lon="1.88291">
        <ele>707.7</ele>
        <time>2026-07-08T12:40:04.000Z</time>
      </trkpt>
      <trkpt lat="45.78957" lon="1.88291">
        <ele>707.5</ele>
        <time>2026-07-08T12:40:05.000Z</time>
      </trkpt>
      <trkpt lat="45.78957" lon="1.88291">
        <ele>707.5</ele>
        <time>2026-07-08T12:40:06.000Z</time>
      </trkpt>
      <trkpt lat="45.78957" lon="1.88291">
        <ele>707.6</ele>
        <time>2026-07-08T12:40:07.000Z</time>
      </trkpt>
      <trkpt lat="45.78957" lon="1.88291">
        <ele>707.7</ele>
        <time>2026-07-08T12:40:08.000Z</time>
      </trkpt>
      <trkpt lat="45.78957" lon="1.88291">
        <ele>707.7</ele>
        <time>2026-07-08T12:40:09.000Z</time>
      </trkpt>
      <trkpt lat="45.78957" lon="1.88291">
        <ele>707.7</ele>
        <time>2026-07-08T12:40:10.000Z</time>
      </trkpt>
      <trkpt lat="45.78957" lon="1.88291">
        <ele>707.7</ele>
        <time>2026-07-08T12:40:11.000Z</time>
      </trkpt>
      <trkpt lat="45.78957" lon="1.88291">
        <ele>707.8</ele>
        <time>2026-07-08T12:40:12.000Z</time>
      </trkpt>
      <trkpt lat="45.78957" lon="1.88291">
        <ele>707.8</ele>
        <time>2026-07-08T12:40:13.000Z</time>
      </trkpt>
      <trkpt lat="45.78957" lon="1.88291">
        <ele>708</ele>
        <time>2026-07-08T12:40:14.000Z</time>
      </trkpt>
      <trkpt lat="45.78957" lon="1.88291">
        <ele>708</ele>
        <time>2026-07-08T12:40:15.000Z</time>
      </trkpt>
      <trkpt lat="45.78957" lon="1.88291">
        <ele>708</ele>
        <time>2026-07-08T12:40:16.000Z</time>
      </trkpt>
      <trkpt lat="45.78957" lon="1.88291">
        <ele>708.1</ele>
        <time>2026-07-08T12:40:17.000Z</time>
      </trkpt>
      <trkpt lat="45.78957" lon="1.88291">
        <ele>708.1</ele>
        <time>2026-07-08T12:40:18.000Z</time>
      </trkpt>
      <trkpt lat="45.78957" lon="1.88291">
        <ele>708.1</ele>
        <time>2026-07-08T12:40:19.000Z</time>
      </trkpt>
      <trkpt lat="45.78957" lon="1.88291">
        <ele>708.1</ele>
        <time>2026-07-08T12:40:20.000Z</time>
      </trkpt>
      <trkpt lat="45.78957" lon="1.88291">
        <ele>708.1</ele>
        <time>2026-07-08T12:40:21.000Z</time>
      </trkpt>
      <trkpt lat="45.78957" lon="1.88291">
        <ele>708.1</ele>
        <time>2026-07-08T12:40:22.000Z</time>
      </trkpt>
      <trkpt lat="45.78957" lon="1.88291">
        <ele>708.1</ele>
        <time>2026-07-08T12:40:23.000Z</time>
      </trkpt>
      <trkpt lat="45.78957" lon="1.88291">
        <ele>708.1</ele>
        <time>2026-07-08T12:40:24.000Z</time>
      </trkpt>
      <trkpt lat="45.78957" lon="1.88291">
        <ele>708.1</ele>
        <time>2026-07-08T12:40:25.000Z</time>
      </trkpt>
      <trkpt lat="45.78957" lon="1.88291">
        <ele>708.1</ele>
        <time>2026-07-08T12:40:26.000Z</time>
      </trkpt>
      <trkpt lat="45.78957" lon="1.88291">
        <ele>708.1</ele>
        <time>2026-07-08T12:40:27.000Z</time>
      </trkpt>
      <trkpt lat="45.78957" lon="1.88291">
        <ele>708.1</ele>
        <time>2026-07-08T12:40:28.000Z</time>
      </trkpt>
      <trkpt lat="45.78957" lon="1.88291">
        <ele>708.1</ele>
        <time>2026-07-08T12:40:29.000Z</time>
      </trkpt>
      <trkpt lat="45.78957" lon="1.88291">
        <ele>708.1</ele>
        <time>2026-07-08T12:40:30.000Z</time>
      </trkpt>
      <trkpt lat="45.78957" lon="1.88291">
        <ele>708.1</ele>
        <time>2026-07-08T12:40:31.000Z</time>
      </trkpt>
      <trkpt lat="45.78957" lon="1.88291">
        <ele>708.1</ele>
        <time>2026-07-08T12:40:32.000Z</time>
      </trkpt>
      <trkpt lat="45.78957" lon="1.88291">
        <ele>708.1</ele>
        <time>2026-07-08T12:40:33.000Z</time>
      </trkpt>
      <trkpt lat="45.78957" lon="1.88291">
        <ele>708.1</ele>
        <time>2026-07-08T12:40:34.000Z</time>
      </trkpt>
      <trkpt lat="45.78957" lon="1.88291">
        <ele>708.1</ele>
        <time>2026-07-08T12:40:35.000Z</time>
      </trkpt>
      <trkpt lat="45.78957" lon="1.88291">
        <ele>708.1</ele>
        <time>2026-07-08T12:40:36.000Z</time>
      </trkpt>
      <trkpt lat="45.78957" lon="1.88291">
        <ele>708.1</ele>
        <time>2026-07-08T12:40:37.000Z</time>
      </trkpt>
      <trkpt lat="45.78957" lon="1.88291">
        <ele>708.1</ele>
        <time>2026-07-08T12:40:38.000Z</time>
      </trkpt>
      <trkpt lat="45.78957" lon="1.88291">
        <ele>708.1</ele>
        <time>2026-07-08T12:40:39.000Z</time>
      </trkpt>
      <trkpt lat="45.78957" lon="1.88291">
        <ele>708.1</ele>
        <time>2026-07-08T12:40:40.000Z</time>
      </trkpt>
      <trkpt lat="45.78957" lon="1.88291">
        <ele>708.1</ele>
        <time>2026-07-08T12:40:41.000Z</time>
      </trkpt>
      <trkpt lat="45.78957" lon="1.88291">
        <ele>708.1</ele>
        <time>2026-07-08T12:40:42.000Z</time>
      </trkpt>
      <trkpt lat="45.78957" lon="1.88291">
        <ele>708.1</ele>
        <time>2026-07-08T12:40:43.000Z</time>
      </trkpt>
      <trkpt lat="45.78957" lon="1.88291">
        <ele>708.1</ele>
        <time>2026-07-08T12:40:44.000Z</time>
      </trkpt>
      <trkpt lat="45.78957" lon="1.88291">
        <ele>708.1</ele>
        <time>2026-07-08T12:40:45.000Z</time>
      </trkpt>
      <trkpt lat="45.78957" lon="1.88291">
        <ele>708.1</ele>
        <time>2026-07-08T12:40:46.000Z</time>
      </trkpt>
      <trkpt lat="45.78957" lon="1.88291">
        <ele>708.1</ele>
        <time>2026-07-08T12:40:47.000Z</time>
      </trkpt>
      <trkpt lat="45.78957" lon="1.88291">
        <ele>708.1</ele>
        <time>2026-07-08T12:40:48.000Z</time>
      </trkpt>
      <trkpt lat="45.78957" lon="1.88291">
        <ele>708</ele>
        <time>2026-07-08T12:40:49.000Z</time>
      </trkpt>
      <trkpt lat="45.78957" lon="1.88291">
        <ele>708.5</ele>
        <time>2026-07-08T12:40:50.000Z</time>
      </trkpt>
      <trkpt lat="45.78958" lon="1.88292">
        <ele>708</ele>
        <time>2026-07-08T12:40:51.000Z</time>
      </trkpt>
      <trkpt lat="45.78958" lon="1.88292">
        <ele>707.9</ele>
        <time>2026-07-08T12:40:52.000Z</time>
      </trkpt>
      <trkpt lat="45.78958" lon="1.88292">
        <ele>707.8</ele>
        <time>2026-07-08T12:40:53.000Z</time>
      </trkpt>
      <trkpt lat="45.78958" lon="1.88292">
        <ele>707.9</ele>
        <time>2026-07-08T12:40:54.000Z</time>
      </trkpt>
      <trkpt lat="45.78958" lon="1.88292">
        <ele>707.7</ele>
        <time>2026-07-08T12:40:55.000Z</time>
      </trkpt>
      <trkpt lat="45.78958" lon="1.88292">
        <ele>707.6</ele>
        <time>2026-07-08T12:40:56.000Z</time>
      </trkpt>
      <trkpt lat="45.78958" lon="1.88292">
        <ele>707.4</ele>
        <time>2026-07-08T12:40:57.000Z</time>
      </trkpt>
      <trkpt lat="45.78958" lon="1.88292">
        <ele>707.3</ele>
        <time>2026-07-08T12:40:58.000Z</time>
      </trkpt>
      <trkpt lat="45.78958" lon="1.88292">
        <ele>707.2</ele>
        <time>2026-07-08T12:40:59.000Z</time>
      </trkpt>
      <trkpt lat="45.78958" lon="1.88292">
        <ele>707.4</ele>
        <time>2026-07-08T12:41:00.000Z</time>
      </trkpt>
      <trkpt lat="45.78959" lon="1.88292">
        <ele>707.3</ele>
        <time>2026-07-08T12:41:01.000Z</time>
      </trkpt>
      <trkpt lat="45.78959" lon="1.88292">
        <ele>707.3</ele>
        <time>2026-07-08T12:41:02.000Z</time>
      </trkpt>
      <trkpt lat="45.78959" lon="1.88292">
        <ele>707.2</ele>
        <time>2026-07-08T12:41:03.000Z</time>
      </trkpt>
      <trkpt lat="45.78958" lon="1.88292">
        <ele>707.1</ele>
        <time>2026-07-08T12:41:04.000Z</time>
      </trkpt>
      <trkpt lat="45.78958" lon="1.88292">
        <ele>707.1</ele>
        <time>2026-07-08T12:41:05.000Z</time>
      </trkpt>
      <trkpt lat="45.78958" lon="1.88292">
        <ele>707.1</ele>
        <time>2026-07-08T12:41:06.000Z</time>
      </trkpt>
      <trkpt lat="45.78958" lon="1.88292">
        <ele>707.1</ele>
        <time>2026-07-08T12:41:07.000Z</time>
      </trkpt>
      <trkpt lat="45.78958" lon="1.88292">
        <ele>707.1</ele>
        <time>2026-07-08T12:41:08.000Z</time>
      </trkpt>
      <trkpt lat="45.78958" lon="1.88292">
        <ele>707.1</ele>
        <time>2026-07-08T12:41:09.000Z</time>
      </trkpt>
      <trkpt lat="45.78958" lon="1.88292">
        <ele>707.1</ele>
        <time>2026-07-08T12:41:10.000Z</time>
      </trkpt>
      <trkpt lat="45.78958" lon="1.88292">
        <ele>707.1</ele>
        <time>2026-07-08T12:41:11.000Z</time>
      </trkpt>
      <trkpt lat="45.78958" lon="1.88292">
        <ele>707.1</ele>
        <time>2026-07-08T12:41:12.000Z</time>
      </trkpt>
      <trkpt lat="45.78958" lon="1.88292">
        <ele>707.1</ele>
        <time>2026-07-08T12:41:13.000Z</time>
      </trkpt>
      <trkpt lat="45.78958" lon="1.88292">
        <ele>707.1</ele>
        <time>2026-07-08T12:41:14.000Z</time>
      </trkpt>
      <trkpt lat="45.78958" lon="1.88292">
        <ele>707.1</ele>
        <time>2026-07-08T12:41:15.000Z</time>
      </trkpt>
      <trkpt lat="45.78958" lon="1.88292">
        <ele>707.1</ele>
        <time>2026-07-08T12:41:16.000Z</time>
      </trkpt>
      <trkpt lat="45.78958" lon="1.88292">
        <ele>707.1</ele>
        <time>2026-07-08T12:41:17.000Z</time>
      </trkpt>
      <trkpt lat="45.78958" lon="1.88292">
        <ele>707.1</ele>
        <time>2026-07-08T12:41:18.000Z</time>
      </trkpt>
      <trkpt lat="45.78958" lon="1.88292">
        <ele>707.1</ele>
        <time>2026-07-08T12:41:19.000Z</time>
      </trkpt>
      <trkpt lat="45.78958" lon="1.88292">
        <ele>707.1</ele>
        <time>2026-07-08T12:41:20.000Z</time>
      </trkpt>
      <trkpt lat="45.78958" lon="1.88292">
        <ele>707.1</ele>
        <time>2026-07-08T12:41:21.000Z</time>
      </trkpt>
      <trkpt lat="45.78958" lon="1.88292">
        <ele>707.1</ele>
        <time>2026-07-08T12:41:22.000Z</time>
      </trkpt>
      <trkpt lat="45.78958" lon="1.88292">
        <ele>707.1</ele>
        <time>2026-07-08T12:41:23.000Z</time>
      </trkpt>
      <trkpt lat="45.78958" lon="1.88292">
        <ele>707.1</ele>
        <time>2026-07-08T12:41:24.000Z</time>
      </trkpt>
      <trkpt lat="45.78958" lon="1.88292">
        <ele>707.1</ele>
        <time>2026-07-08T12:41:25.000Z</time>
      </trkpt>
      <trkpt lat="45.78958" lon="1.88292">
        <ele>707.1</ele>
        <time>2026-07-08T12:41:26.000Z</time>
      </trkpt>
      <trkpt lat="45.78958" lon="1.88292">
        <ele>707.1</ele>
        <time>2026-07-08T12:41:27.000Z</time>
      </trkpt>
      <trkpt lat="45.78958" lon="1.88292">
        <ele>707.1</ele>
        <time>2026-07-08T12:41:28.000Z</time>
      </trkpt>
      <trkpt lat="45.78958" lon="1.88292">
        <ele>707.1</ele>
        <time>2026-07-08T12:41:29.000Z</time>
      </trkpt>
      <trkpt lat="45.78958" lon="1.88292">
        <ele>707.1</ele>
        <time>2026-07-08T12:41:30.000Z</time>
      </trkpt>
      <trkpt lat="45.78958" lon="1.88292">
        <ele>707.1</ele>
        <time>2026-07-08T12:41:31.000Z</time>
      </trkpt>
      <trkpt lat="45.78958" lon="1.88292">
        <ele>707.1</ele>
        <time>2026-07-08T12:41:32.000Z</time>
      </trkpt>
      <trkpt lat="45.78958" lon="1.88292">
        <ele>707.1</ele>
        <time>2026-07-08T12:41:33.000Z</time>
      </trkpt>
      <trkpt lat="45.78958" lon="1.88292">
        <ele>707.1</ele>
        <time>2026-07-08T12:41:34.000Z</time>
      </trkpt>
      <trkpt lat="45.78958" lon="1.88292">
        <ele>707.1</ele>
        <time>2026-07-08T12:41:35.000Z</time>
      </trkpt>
      <trkpt lat="45.78958" lon="1.88291">
        <ele>707.3</ele>
        <time>2026-07-08T12:41:36.000Z</time>
      </trkpt>
      <trkpt lat="45.78958" lon="1.88291">
        <ele>707.7</ele>
        <time>2026-07-08T12:41:37.000Z</time>
      </trkpt>
      <trkpt lat="45.78958" lon="1.88291">
        <ele>707.2</ele>
        <time>2026-07-08T12:41:38.000Z</time>
      </trkpt>
      <trkpt lat="45.78959" lon="1.88291">
        <ele>707.2</ele>
        <time>2026-07-08T12:41:39.000Z</time>
      </trkpt>
      <trkpt lat="45.78959" lon="1.88291">
        <ele>707.4</ele>
        <time>2026-07-08T12:41:40.000Z</time>
      </trkpt>
      <trkpt lat="45.78959" lon="1.8829">
        <ele>707.3</ele>
        <time>2026-07-08T12:41:41.000Z</time>
      </trkpt>
      <trkpt lat="45.78959" lon="1.8829">
        <ele>707.3</ele>
        <time>2026-07-08T12:41:42.000Z</time>
      </trkpt>
      <trkpt lat="45.78959" lon="1.8829">
        <ele>707.1</ele>
        <time>2026-07-08T12:41:43.000Z</time>
      </trkpt>
      <trkpt lat="45.78959" lon="1.8829">
        <ele>706.7</ele>
        <time>2026-07-08T12:41:44.000Z</time>
      </trkpt>
      <trkpt lat="45.78959" lon="1.8829">
        <ele>706.6</ele>
        <time>2026-07-08T12:41:45.000Z</time>
      </trkpt>
      <trkpt lat="45.78959" lon="1.8829">
        <ele>706.3</ele>
        <time>2026-07-08T12:41:46.000Z</time>
      </trkpt>
      <trkpt lat="45.78959" lon="1.8829">
        <ele>706.4</ele>
        <time>2026-07-08T12:41:47.000Z</time>
      </trkpt>
      <trkpt lat="45.78959" lon="1.8829">
        <ele>706.4</ele>
        <time>2026-07-08T12:41:48.000Z</time>
      </trkpt>
      <trkpt lat="45.78959" lon="1.8829">
        <ele>706.4</ele>
        <time>2026-07-08T12:41:49.000Z</time>
      </trkpt>
      <trkpt lat="45.78959" lon="1.8829">
        <ele>706.4</ele>
        <time>2026-07-08T12:41:50.000Z</time>
      </trkpt>
      <trkpt lat="45.78959" lon="1.8829">
        <ele>706.3</ele>
        <time>2026-07-08T12:41:51.000Z</time>
      </trkpt>
      <trkpt lat="45.78959" lon="1.8829">
        <ele>706.3</ele>
        <time>2026-07-08T12:41:52.000Z</time>
      </trkpt>
      <trkpt lat="45.78959" lon="1.8829">
        <ele>706.3</ele>
        <time>2026-07-08T12:41:53.000Z</time>
      </trkpt>
      <trkpt lat="45.78959" lon="1.8829">
        <ele>706.3</ele>
        <time>2026-07-08T12:41:54.000Z</time>
      </trkpt>
      <trkpt lat="45.78959" lon="1.8829">
        <ele>706.3</ele>
        <time>2026-07-08T12:41:55.000Z</time>
      </trkpt>
      <trkpt lat="45.78959" lon="1.8829">
        <ele>706.3</ele>
        <time>2026-07-08T12:41:56.000Z</time>
      </trkpt>
      <trkpt lat="45.78959" lon="1.8829">
        <ele>706.3</ele>
        <time>2026-07-08T12:41:57.000Z</time>
      </trkpt>
      <trkpt lat="45.78959" lon="1.8829">
        <ele>706.3</ele>
        <time>2026-07-08T12:41:58.000Z</time>
      </trkpt>
      <trkpt lat="45.78959" lon="1.8829">
        <ele>706.3</ele>
        <time>2026-07-08T12:41:59.000Z</time>
      </trkpt>
      <trkpt lat="45.78959" lon="1.8829">
        <ele>706.3</ele>
        <time>2026-07-08T12:42:00.000Z</time>
      </trkpt>
      <trkpt lat="45.78959" lon="1.8829">
        <ele>706.3</ele>
        <time>2026-07-08T12:42:01.000Z</time>
      </trkpt>
      <trkpt lat="45.78959" lon="1.8829">
        <ele>706.3</ele>
        <time>2026-07-08T12:42:02.000Z</time>
      </trkpt>
      <trkpt lat="45.78959" lon="1.8829">
        <ele>706.3</ele>
        <time>2026-07-08T12:42:03.000Z</time>
      </trkpt>
      <trkpt lat="45.78959" lon="1.8829">
        <ele>706.3</ele>
        <time>2026-07-08T12:42:04.000Z</time>
      </trkpt>
      <trkpt lat="45.78959" lon="1.8829">
        <ele>706.3</ele>
        <time>2026-07-08T12:42:05.000Z</time>
      </trkpt>
      <trkpt lat="45.78959" lon="1.8829">
        <ele>706.3</ele>
        <time>2026-07-08T12:42:06.000Z</time>
      </trkpt>
      <trkpt lat="45.78959" lon="1.8829">
        <ele>706.3</ele>
        <time>2026-07-08T12:42:07.000Z</time>
      </trkpt>
      <trkpt lat="45.78959" lon="1.8829">
        <ele>706.3</ele>
        <time>2026-07-08T12:42:08.000Z</time>
      </trkpt>
      <trkpt lat="45.78959" lon="1.8829">
        <ele>706.3</ele>
        <time>2026-07-08T12:42:09.000Z</time>
      </trkpt>
      <trkpt lat="45.78959" lon="1.8829">
        <ele>706.3</ele>
        <time>2026-07-08T12:42:10.000Z</time>
      </trkpt>
      <trkpt lat="45.78959" lon="1.8829">
        <ele>706.3</ele>
        <time>2026-07-08T12:42:11.000Z</time>
      </trkpt>
      <trkpt lat="45.78959" lon="1.8829">
        <ele>706.3</ele>
        <time>2026-07-08T12:42:12.000Z</time>
      </trkpt>
      <trkpt lat="45.78959" lon="1.8829">
        <ele>706.3</ele>
        <time>2026-07-08T12:42:13.000Z</time>
      </trkpt>
      <trkpt lat="45.78959" lon="1.8829">
        <ele>706.3</ele>
        <time>2026-07-08T12:42:14.000Z</time>
      </trkpt>
      <trkpt lat="45.78959" lon="1.8829">
        <ele>706.3</ele>
        <time>2026-07-08T12:42:15.000Z</time>
      </trkpt>
      <trkpt lat="45.78959" lon="1.8829">
        <ele>706.3</ele>
        <time>2026-07-08T12:42:16.000Z</time>
      </trkpt>
      <trkpt lat="45.78959" lon="1.8829">
        <ele>706.3</ele>
        <time>2026-07-08T12:42:17.000Z</time>
      </trkpt>
      <trkpt lat="45.78959" lon="1.8829">
        <ele>706.3</ele>
        <time>2026-07-08T12:42:18.000Z</time>
      </trkpt>
      <trkpt lat="45.78959" lon="1.8829">
        <ele>706.3</ele>
        <time>2026-07-08T12:42:19.000Z</time>
      </trkpt>
      <trkpt lat="45.78959" lon="1.8829">
        <ele>706.3</ele>
        <time>2026-07-08T12:42:20.000Z</time>
      </trkpt>
      <trkpt lat="45.78959" lon="1.8829">
        <ele>706.3</ele>
        <time>2026-07-08T12:42:21.000Z</time>
      </trkpt>
      <trkpt lat="45.78959" lon="1.8829">
        <ele>706.3</ele>
        <time>2026-07-08T12:42:22.000Z</time>
      </trkpt>
      <trkpt lat="45.78959" lon="1.8829">
        <ele>706.3</ele>
        <time>2026-07-08T12:42:23.000Z</time>
      </trkpt>
      <trkpt lat="45.78959" lon="1.8829">
        <ele>706.3</ele>
        <time>2026-07-08T12:42:24.000Z</time>
      </trkpt>
      <trkpt lat="45.78959" lon="1.8829">
        <ele>706.3</ele>
        <time>2026-07-08T12:42:25.000Z</time>
      </trkpt>
      <trkpt lat="45.78959" lon="1.8829">
        <ele>706.3</ele>
        <time>2026-07-08T12:42:26.000Z</time>
      </trkpt>
      <trkpt lat="45.78959" lon="1.8829">
        <ele>706.3</ele>
        <time>2026-07-08T12:42:27.000Z</time>
      </trkpt>
      <trkpt lat="45.78959" lon="1.8829">
        <ele>706.3</ele>
        <time>2026-07-08T12:42:28.000Z</time>
      </trkpt>
      <trkpt lat="45.78959" lon="1.8829">
        <ele>706.3</ele>
        <time>2026-07-08T12:42:29.000Z</time>
      </trkpt>
      <trkpt lat="45.78959" lon="1.8829">
        <ele>706.3</ele>
        <time>2026-07-08T12:42:30.000Z</time>
      </trkpt>
      <trkpt lat="45.78959" lon="1.8829">
        <ele>706.3</ele>
        <time>2026-07-08T12:42:31.000Z</time>
      </trkpt>
      <trkpt lat="45.78959" lon="1.8829">
        <ele>706.3</ele>
        <time>2026-07-08T12:42:32.000Z</time>
      </trkpt>
      <trkpt lat="45.78959" lon="1.8829">
        <ele>706.3</ele>
        <time>2026-07-08T12:42:33.000Z</time>
      </trkpt>
      <trkpt lat="45.78959" lon="1.8829">
        <ele>706.3</ele>
        <time>2026-07-08T12:42:34.000Z</time>
      </trkpt>
      <trkpt lat="45.78959" lon="1.8829">
        <ele>706.3</ele>
        <time>2026-07-08T12:42:35.000Z</time>
      </trkpt>
      <trkpt lat="45.78959" lon="1.8829">
        <ele>706.3</ele>
        <time>2026-07-08T12:42:36.000Z</time>
      </trkpt>
      <trkpt lat="45.78959" lon="1.8829">
        <ele>706.3</ele>
        <time>2026-07-08T12:42:37.000Z</time>
      </trkpt>
      <trkpt lat="45.78959" lon="1.8829">
        <ele>706.3</ele>
        <time>2026-07-08T12:42:38.000Z</time>
      </trkpt>
      <trkpt lat="45.78959" lon="1.8829">
        <ele>706.3</ele>
        <time>2026-07-08T12:42:39.000Z</time>
      </trkpt>
      <trkpt lat="45.78959" lon="1.8829">
        <ele>706.3</ele>
        <time>2026-07-08T12:42:40.000Z</time>
      </trkpt>
      <trkpt lat="45.78959" lon="1.8829">
        <ele>706.3</ele>
        <time>2026-07-08T12:42:41.000Z</time>
      </trkpt>
      <trkpt lat="45.78959" lon="1.8829">
        <ele>706.3</ele>
        <time>2026-07-08T12:42:42.000Z</time>
      </trkpt>
      <trkpt lat="45.78959" lon="1.8829">
        <ele>706.3</ele>
        <time>2026-07-08T12:42:43.000Z</time>
      </trkpt>
      <trkpt lat="45.78959" lon="1.8829">
        <ele>706.3</ele>
        <time>2026-07-08T12:42:44.000Z</time>
      </trkpt>
      <trkpt lat="45.78959" lon="1.8829">
        <ele>706.3</ele>
        <time>2026-07-08T12:42:45.000Z</time>
      </trkpt>
      <trkpt lat="45.78959" lon="1.8829">
        <ele>706.3</ele>
        <time>2026-07-08T12:42:46.000Z</time>
      </trkpt>
      <trkpt lat="45.78959" lon="1.8829">
        <ele>706.3</ele>
        <time>2026-07-08T12:42:47.000Z</time>
      </trkpt>
      <trkpt lat="45.78959" lon="1.8829">
        <ele>706.3</ele>
        <time>2026-07-08T12:42:48.000Z</time>
      </trkpt>
      <trkpt lat="45.78959" lon="1.8829">
        <ele>706.3</ele>
        <time>2026-07-08T12:42:49.000Z</time>
      </trkpt>
      <trkpt lat="45.78959" lon="1.8829">
        <ele>706.3</ele>
        <time>2026-07-08T12:42:50.000Z</time>
      </trkpt>
      <trkpt lat="45.78959" lon="1.8829">
        <ele>706.3</ele>
        <time>2026-07-08T12:42:51.000Z</time>
      </trkpt>
      <trkpt lat="45.78959" lon="1.8829">
        <ele>706.3</ele>
        <time>2026-07-08T12:42:52.000Z</time>
      </trkpt>
      <trkpt lat="45.78959" lon="1.8829">
        <ele>706.3</ele>
        <time>2026-07-08T12:42:53.000Z</time>
      </trkpt>
      <trkpt lat="45.78959" lon="1.8829">
        <ele>706</ele>
        <time>2026-07-08T12:42:54.000Z</time>
      </trkpt>
      <trkpt lat="45.78959" lon="1.88289">
        <ele>706.4</ele>
        <time>2026-07-08T12:42:55.000Z</time>
      </trkpt>
      <trkpt lat="45.78959" lon="1.8829">
        <ele>706.7</ele>
        <time>2026-07-08T12:42:56.000Z</time>
      </trkpt>
      <trkpt lat="45.78959" lon="1.8829">
        <ele>707</ele>
        <time>2026-07-08T12:42:57.000Z</time>
      </trkpt>
      <trkpt lat="45.78959" lon="1.8829">
        <ele>707.1</ele>
        <time>2026-07-08T12:42:58.000Z</time>
      </trkpt>
      <trkpt lat="45.78959" lon="1.8829">
        <ele>706.8</ele>
        <time>2026-07-08T12:42:59.000Z</time>
      </trkpt>
      <trkpt lat="45.78958" lon="1.88291">
        <ele>707</ele>
        <time>2026-07-08T12:43:00.000Z</time>
      </trkpt>
      <trkpt lat="45.78958" lon="1.88291">
        <ele>706.9</ele>
        <time>2026-07-08T12:43:01.000Z</time>
      </trkpt>
      <trkpt lat="45.78958" lon="1.8829">
        <ele>707</ele>
        <time>2026-07-08T12:43:02.000Z</time>
      </trkpt>
      <trkpt lat="45.78958" lon="1.8829">
        <ele>707</ele>
        <time>2026-07-08T12:43:03.000Z</time>
      </trkpt>
      <trkpt lat="45.78959" lon="1.8829">
        <ele>707</ele>
        <time>2026-07-08T12:43:04.000Z</time>
      </trkpt>
      <trkpt lat="45.78959" lon="1.8829">
        <ele>707</ele>
        <time>2026-07-08T12:43:05.000Z</time>
      </trkpt>
      <trkpt lat="45.78959" lon="1.8829">
        <ele>707</ele>
        <time>2026-07-08T12:43:06.000Z</time>
      </trkpt>
      <trkpt lat="45.78959" lon="1.8829">
        <ele>707</ele>
        <time>2026-07-08T12:43:07.000Z</time>
      </trkpt>
      <trkpt lat="45.78959" lon="1.8829">
        <ele>707</ele>
        <time>2026-07-08T12:43:08.000Z</time>
      </trkpt>
      <trkpt lat="45.78959" lon="1.8829">
        <ele>707</ele>
        <time>2026-07-08T12:43:09.000Z</time>
      </trkpt>
      <trkpt lat="45.78959" lon="1.8829">
        <ele>707</ele>
        <time>2026-07-08T12:43:10.000Z</time>
      </trkpt>
      <trkpt lat="45.78959" lon="1.8829">
        <ele>707</ele>
        <time>2026-07-08T12:43:11.000Z</time>
      </trkpt>
      <trkpt lat="45.78959" lon="1.8829">
        <ele>707</ele>
        <time>2026-07-08T12:43:12.000Z</time>
      </trkpt>
      <trkpt lat="45.78959" lon="1.8829">
        <ele>707</ele>
        <time>2026-07-08T12:43:13.000Z</time>
      </trkpt>
      <trkpt lat="45.78959" lon="1.8829">
        <ele>707</ele>
        <time>2026-07-08T12:43:14.000Z</time>
      </trkpt>
      <trkpt lat="45.78959" lon="1.8829">
        <ele>707.1</ele>
        <time>2026-07-08T12:43:15.000Z</time>
      </trkpt>
      <trkpt lat="45.78959" lon="1.8829">
        <ele>707</ele>
        <time>2026-07-08T12:43:16.000Z</time>
      </trkpt>
      <trkpt lat="45.78959" lon="1.8829">
        <ele>707</ele>
        <time>2026-07-08T12:43:17.000Z</time>
      </trkpt>
      <trkpt lat="45.78959" lon="1.8829">
        <ele>707</ele>
        <time>2026-07-08T12:43:18.000Z</time>
      </trkpt>
      <trkpt lat="45.78959" lon="1.8829">
        <ele>707</ele>
        <time>2026-07-08T12:43:19.000Z</time>
      </trkpt>
      <trkpt lat="45.78959" lon="1.8829">
        <ele>707</ele>
        <time>2026-07-08T12:43:20.000Z</time>
      </trkpt>
      <trkpt lat="45.78959" lon="1.8829">
        <ele>707</ele>
        <time>2026-07-08T12:43:21.000Z</time>
      </trkpt>
      <trkpt lat="45.78959" lon="1.8829">
        <ele>707</ele>
        <time>2026-07-08T12:43:22.000Z</time>
      </trkpt>
      <trkpt lat="45.78959" lon="1.8829">
        <ele>707</ele>
        <time>2026-07-08T12:43:23.000Z</time>
      </trkpt>
      <trkpt lat="45.78959" lon="1.8829">
        <ele>707</ele>
        <time>2026-07-08T12:43:24.000Z</time>
      </trkpt>
      <trkpt lat="45.78959" lon="1.8829">
        <ele>707</ele>
        <time>2026-07-08T12:43:25.000Z</time>
      </trkpt>
      <trkpt lat="45.78959" lon="1.8829">
        <ele>707</ele>
        <time>2026-07-08T12:43:26.000Z</time>
      </trkpt>
      <trkpt lat="45.78959" lon="1.8829">
        <ele>707</ele>
        <time>2026-07-08T12:43:27.000Z</time>
      </trkpt>
      <trkpt lat="45.78959" lon="1.8829">
        <ele>707</ele>
        <time>2026-07-08T12:43:28.000Z</time>
      </trkpt>
      <trkpt lat="45.78959" lon="1.8829">
        <ele>707</ele>
        <time>2026-07-08T12:43:29.000Z</time>
      </trkpt>
      <trkpt lat="45.78959" lon="1.8829">
        <ele>707</ele>
        <time>2026-07-08T12:43:30.000Z</time>
      </trkpt>
      <trkpt lat="45.78959" lon="1.8829">
        <ele>707</ele>
        <time>2026-07-08T12:43:31.000Z</time>
      </trkpt>
      <trkpt lat="45.78959" lon="1.8829">
        <ele>707</ele>
        <time>2026-07-08T12:43:32.000Z</time>
      </trkpt>
      <trkpt lat="45.78959" lon="1.8829">
        <ele>707</ele>
        <time>2026-07-08T12:43:33.000Z</time>
      </trkpt>
      <trkpt lat="45.78959" lon="1.8829">
        <ele>707</ele>
        <time>2026-07-08T12:43:34.000Z</time>
      </trkpt>
      <trkpt lat="45.78959" lon="1.8829">
        <ele>707</ele>
        <time>2026-07-08T12:43:35.000Z</time>
      </trkpt>
      <trkpt lat="45.78959" lon="1.8829">
        <ele>707</ele>
        <time>2026-07-08T12:43:36.000Z</time>
      </trkpt>
      <trkpt lat="45.78959" lon="1.8829">
        <ele>707</ele>
        <time>2026-07-08T12:43:37.000Z</time>
      </trkpt>
      <trkpt lat="45.78959" lon="1.8829">
        <ele>707</ele>
        <time>2026-07-08T12:43:38.000Z</time>
      </trkpt>
      <trkpt lat="45.78959" lon="1.8829">
        <ele>707</ele>
        <time>2026-07-08T12:43:39.000Z</time>
      </trkpt>
      <trkpt lat="45.78959" lon="1.8829">
        <ele>707</ele>
        <time>2026-07-08T12:43:40.000Z</time>
      </trkpt>
      <trkpt lat="45.78959" lon="1.8829">
        <ele>707</ele>
        <time>2026-07-08T12:43:41.000Z</time>
      </trkpt>
      <trkpt lat="45.78959" lon="1.8829">
        <ele>707</ele>
        <time>2026-07-08T12:43:42.000Z</time>
      </trkpt>
      <trkpt lat="45.78959" lon="1.8829">
        <ele>707</ele>
        <time>2026-07-08T12:43:43.000Z</time>
      </trkpt>
      <trkpt lat="45.78959" lon="1.8829">
        <ele>707</ele>
        <time>2026-07-08T12:43:44.000Z</time>
      </trkpt>
      <trkpt lat="45.78959" lon="1.8829">
        <ele>707</ele>
        <time>2026-07-08T12:43:45.000Z</time>
      </trkpt>
      <trkpt lat="45.78959" lon="1.8829">
        <ele>707.1</ele>
        <time>2026-07-08T12:43:46.000Z</time>
      </trkpt>
      <trkpt lat="45.78959" lon="1.8829">
        <ele>707.1</ele>
        <time>2026-07-08T12:43:47.000Z</time>
      </trkpt>
      <trkpt lat="45.78959" lon="1.8829">
        <ele>707.1</ele>
        <time>2026-07-08T12:43:48.000Z</time>
      </trkpt>
      <trkpt lat="45.78959" lon="1.8829">
        <ele>707.1</ele>
        <time>2026-07-08T12:43:49.000Z</time>
      </trkpt>
      <trkpt lat="45.78959" lon="1.8829">
        <ele>707.1</ele>
        <time>2026-07-08T12:43:50.000Z</time>
      </trkpt>
      <trkpt lat="45.78959" lon="1.8829">
        <ele>707.1</ele>
        <time>2026-07-08T12:43:51.000Z</time>
      </trkpt>
      <trkpt lat="45.78959" lon="1.8829">
        <ele>707.1</ele>
        <time>2026-07-08T12:43:52.000Z</time>
      </trkpt>
      <trkpt lat="45.78959" lon="1.8829">
        <ele>707.1</ele>
        <time>2026-07-08T12:43:53.000Z</time>
      </trkpt>
      <trkpt lat="45.78959" lon="1.8829">
        <ele>707.1</ele>
        <time>2026-07-08T12:43:54.000Z</time>
      </trkpt>
      <trkpt lat="45.78959" lon="1.8829">
        <ele>707.1</ele>
        <time>2026-07-08T12:43:55.000Z</time>
      </trkpt>
      <trkpt lat="45.78959" lon="1.8829">
        <ele>707.1</ele>
        <time>2026-07-08T12:43:56.000Z</time>
      </trkpt>
      <trkpt lat="45.78959" lon="1.8829">
        <ele>707.1</ele>
        <time>2026-07-08T12:43:57.000Z</time>
      </trkpt>
      <trkpt lat="45.78959" lon="1.8829">
        <ele>707.1</ele>
        <time>2026-07-08T12:43:58.000Z</time>
      </trkpt>
      <trkpt lat="45.78959" lon="1.8829">
        <ele>707.1</ele>
        <time>2026-07-08T12:43:59.000Z</time>
      </trkpt>
      <trkpt lat="45.78959" lon="1.8829">
        <ele>707.1</ele>
        <time>2026-07-08T12:44:00.000Z</time>
      </trkpt>
      <trkpt lat="45.78959" lon="1.8829">
        <ele>707.1</ele>
        <time>2026-07-08T12:44:01.000Z</time>
      </trkpt>
      <trkpt lat="45.78959" lon="1.8829">
        <ele>707</ele>
        <time>2026-07-08T12:44:02.000Z</time>
      </trkpt>
      <trkpt lat="45.78959" lon="1.8829">
        <ele>707</ele>
        <time>2026-07-08T12:44:03.000Z</time>
      </trkpt>
      <trkpt lat="45.78959" lon="1.8829">
        <ele>707</ele>
        <time>2026-07-08T12:44:04.000Z</time>
      </trkpt>
      <trkpt lat="45.78959" lon="1.8829">
        <ele>707</ele>
        <time>2026-07-08T12:44:05.000Z</time>
      </trkpt>
      <trkpt lat="45.78959" lon="1.8829">
        <ele>707</ele>
        <time>2026-07-08T12:44:06.000Z</time>
      </trkpt>
      <trkpt lat="45.78959" lon="1.8829">
        <ele>707</ele>
        <time>2026-07-08T12:44:07.000Z</time>
      </trkpt>
      <trkpt lat="45.78959" lon="1.8829">
        <ele>707</ele>
        <time>2026-07-08T12:44:08.000Z</time>
      </trkpt>
      <trkpt lat="45.78959" lon="1.8829">
        <ele>707.1</ele>
        <time>2026-07-08T12:44:09.000Z</time>
      </trkpt>
      <trkpt lat="45.78959" lon="1.8829">
        <ele>707.1</ele>
        <time>2026-07-08T12:44:10.000Z</time>
      </trkpt>
      <trkpt lat="45.78959" lon="1.8829">
        <ele>707.1</ele>
        <time>2026-07-08T12:44:11.000Z</time>
      </trkpt>
      <trkpt lat="45.78959" lon="1.8829">
        <ele>707.1</ele>
        <time>2026-07-08T12:44:12.000Z</time>
      </trkpt>
      <trkpt lat="45.78959" lon="1.8829">
        <ele>707.1</ele>
        <time>2026-07-08T12:44:13.000Z</time>
      </trkpt>
      <trkpt lat="45.78959" lon="1.8829">
        <ele>707.1</ele>
        <time>2026-07-08T12:44:14.000Z</time>
      </trkpt>
      <trkpt lat="45.78959" lon="1.8829">
        <ele>707.1</ele>
        <time>2026-07-08T12:44:15.000Z</time>
      </trkpt>
      <trkpt lat="45.78959" lon="1.8829">
        <ele>707.1</ele>
        <time>2026-07-08T12:44:16.000Z</time>
      </trkpt>
      <trkpt lat="45.78959" lon="1.8829">
        <ele>707.1</ele>
        <time>2026-07-08T12:44:17.000Z</time>
      </trkpt>
      <trkpt lat="45.78959" lon="1.8829">
        <ele>707.1</ele>
        <time>2026-07-08T12:44:18.000Z</time>
      </trkpt>
      <trkpt lat="45.78959" lon="1.8829">
        <ele>707.1</ele>
        <time>2026-07-08T12:44:19.000Z</time>
      </trkpt>
      <trkpt lat="45.78959" lon="1.8829">
        <ele>707.1</ele>
        <time>2026-07-08T12:44:20.000Z</time>
      </trkpt>
      <trkpt lat="45.78959" lon="1.8829">
        <ele>707.1</ele>
        <time>2026-07-08T12:44:21.000Z</time>
      </trkpt>
      <trkpt lat="45.78959" lon="1.8829">
        <ele>707.1</ele>
        <time>2026-07-08T12:44:22.000Z</time>
      </trkpt>
      <trkpt lat="45.78959" lon="1.8829">
        <ele>707.1</ele>
        <time>2026-07-08T12:44:23.000Z</time>
      </trkpt>
      <trkpt lat="45.78959" lon="1.8829">
        <ele>707.1</ele>
        <time>2026-07-08T12:44:24.000Z</time>
      </trkpt>
      <trkpt lat="45.78959" lon="1.8829">
        <ele>707.1</ele>
        <time>2026-07-08T12:44:25.000Z</time>
      </trkpt>
      <trkpt lat="45.78959" lon="1.8829">
        <ele>707.1</ele>
        <time>2026-07-08T12:44:26.000Z</time>
      </trkpt>
      <trkpt lat="45.78959" lon="1.8829">
        <ele>707.1</ele>
        <time>2026-07-08T12:44:27.000Z</time>
      </trkpt>
      <trkpt lat="45.78959" lon="1.8829">
        <ele>707.1</ele>
        <time>2026-07-08T12:44:28.000Z</time>
      </trkpt>
      <trkpt lat="45.78959" lon="1.8829">
        <ele>707.1</ele>
        <time>2026-07-08T12:44:29.000Z</time>
      </trkpt>
      <trkpt lat="45.78959" lon="1.8829">
        <ele>707.1</ele>
        <time>2026-07-08T12:44:30.000Z</time>
      </trkpt>
      <trkpt lat="45.78959" lon="1.8829">
        <ele>707.1</ele>
        <time>2026-07-08T12:44:31.000Z</time>
      </trkpt>
      <trkpt lat="45.78959" lon="1.8829">
        <ele>707.1</ele>
        <time>2026-07-08T12:44:32.000Z</time>
      </trkpt>
      <trkpt lat="45.78959" lon="1.8829">
        <ele>707.1</ele>
        <time>2026-07-08T12:44:33.000Z</time>
      </trkpt>
      <trkpt lat="45.78959" lon="1.8829">
        <ele>707.1</ele>
        <time>2026-07-08T12:44:34.000Z</time>
      </trkpt>
      <trkpt lat="45.78959" lon="1.8829">
        <ele>707.1</ele>
        <time>2026-07-08T12:44:35.000Z</time>
      </trkpt>
      <trkpt lat="45.78959" lon="1.8829">
        <ele>707.1</ele>
        <time>2026-07-08T12:44:36.000Z</time>
      </trkpt>
      <trkpt lat="45.78959" lon="1.8829">
        <ele>707.1</ele>
        <time>2026-07-08T12:44:37.000Z</time>
      </trkpt>
      <trkpt lat="45.78959" lon="1.8829">
        <ele>707.1</ele>
        <time>2026-07-08T12:44:38.000Z</time>
      </trkpt>
      <trkpt lat="45.78959" lon="1.8829">
        <ele>707.1</ele>
        <time>2026-07-08T12:44:39.000Z</time>
      </trkpt>
      <trkpt lat="45.78959" lon="1.8829">
        <ele>707.1</ele>
        <time>2026-07-08T12:44:40.000Z</time>
      </trkpt>
      <trkpt lat="45.78959" lon="1.8829">
        <ele>707.1</ele>
        <time>2026-07-08T12:44:41.000Z</time>
      </trkpt>
      <trkpt lat="45.78959" lon="1.8829">
        <ele>707.1</ele>
        <time>2026-07-08T12:44:42.000Z</time>
      </trkpt>
      <trkpt lat="45.78959" lon="1.8829">
        <ele>707.1</ele>
        <time>2026-07-08T12:44:43.000Z</time>
      </trkpt>
      <trkpt lat="45.78959" lon="1.8829">
        <ele>707.1</ele>
        <time>2026-07-08T12:44:44.000Z</time>
      </trkpt>
      <trkpt lat="45.78959" lon="1.8829">
        <ele>707.1</ele>
        <time>2026-07-08T12:44:45.000Z</time>
      </trkpt>
      <trkpt lat="45.78959" lon="1.8829">
        <ele>707.1</ele>
        <time>2026-07-08T12:44:46.000Z</time>
      </trkpt>
      <trkpt lat="45.78959" lon="1.8829">
        <ele>707.1</ele>
        <time>2026-07-08T12:44:47.000Z</time>
      </trkpt>
      <trkpt lat="45.78959" lon="1.8829">
        <ele>707.1</ele>
        <time>2026-07-08T12:44:48.000Z</time>
      </trkpt>
      <trkpt lat="45.78959" lon="1.8829">
        <ele>707.1</ele>
        <time>2026-07-08T12:44:49.000Z</time>
      </trkpt>
      <trkpt lat="45.78959" lon="1.8829">
        <ele>707.1</ele>
        <time>2026-07-08T12:44:50.000Z</time>
      </trkpt>
      <trkpt lat="45.78959" lon="1.8829">
        <ele>707.1</ele>
        <time>2026-07-08T12:44:51.000Z</time>
      </trkpt>
      <trkpt lat="45.78959" lon="1.8829">
        <ele>707.1</ele>
        <time>2026-07-08T12:44:52.000Z</time>
      </trkpt>
      <trkpt lat="45.78959" lon="1.8829">
        <ele>707.1</ele>
        <time>2026-07-08T12:44:53.000Z</time>
      </trkpt>
      <trkpt lat="45.78959" lon="1.8829">
        <ele>707.1</ele>
        <time>2026-07-08T12:44:54.000Z</time>
      </trkpt>
      <trkpt lat="45.78959" lon="1.8829">
        <ele>707.1</ele>
        <time>2026-07-08T12:44:55.000Z</time>
      </trkpt>
      <trkpt lat="45.78959" lon="1.8829">
        <ele>707.1</ele>
        <time>2026-07-08T12:44:56.000Z</time>
      </trkpt>
      <trkpt lat="45.78959" lon="1.8829">
        <ele>707.1</ele>
        <time>2026-07-08T12:44:57.000Z</time>
      </trkpt>
      <trkpt lat="45.78959" lon="1.8829">
        <ele>707.1</ele>
        <time>2026-07-08T12:44:58.000Z</time>
      </trkpt>
      <trkpt lat="45.78959" lon="1.8829">
        <ele>707.1</ele>
        <time>2026-07-08T12:44:59.000Z</time>
      </trkpt>
      <trkpt lat="45.78959" lon="1.8829">
        <ele>707.1</ele>
        <time>2026-07-08T12:45:00.000Z</time>
      </trkpt>
      <trkpt lat="45.78959" lon="1.8829">
        <ele>707.1</ele>
        <time>2026-07-08T12:45:01.000Z</time>
      </trkpt>
      <trkpt lat="45.78959" lon="1.8829">
        <ele>707.1</ele>
        <time>2026-07-08T12:45:02.000Z</time>
      </trkpt>
      <trkpt lat="45.78959" lon="1.8829">
        <ele>707.1</ele>
        <time>2026-07-08T12:45:03.000Z</time>
      </trkpt>
      <trkpt lat="45.78959" lon="1.8829">
        <ele>707.1</ele>
        <time>2026-07-08T12:45:04.000Z</time>
      </trkpt>
      <trkpt lat="45.78959" lon="1.8829">
        <ele>707.1</ele>
        <time>2026-07-08T12:45:05.000Z</time>
      </trkpt>
      <trkpt lat="45.78959" lon="1.8829">
        <ele>707.1</ele>
        <time>2026-07-08T12:45:06.000Z</time>
      </trkpt>
      <trkpt lat="45.78959" lon="1.8829">
        <ele>707.1</ele>
        <time>2026-07-08T12:45:07.000Z</time>
      </trkpt>
      <trkpt lat="45.78959" lon="1.8829">
        <ele>707.1</ele>
        <time>2026-07-08T12:45:08.000Z</time>
      </trkpt>
      <trkpt lat="45.78959" lon="1.8829">
        <ele>707.1</ele>
        <time>2026-07-08T12:45:09.000Z</time>
      </trkpt>
      <trkpt lat="45.78959" lon="1.8829">
        <ele>707.1</ele>
        <time>2026-07-08T12:45:10.000Z</time>
      </trkpt>
      <trkpt lat="45.78959" lon="1.8829">
        <ele>707.1</ele>
        <time>2026-07-08T12:45:11.000Z</time>
      </trkpt>
      <trkpt lat="45.78959" lon="1.8829">
        <ele>707.1</ele>
        <time>2026-07-08T12:45:12.000Z</time>
      </trkpt>
      <trkpt lat="45.78959" lon="1.8829">
        <ele>707.1</ele>
        <time>2026-07-08T12:45:13.000Z</time>
      </trkpt>
      <trkpt lat="45.78959" lon="1.8829">
        <ele>707.1</ele>
        <time>2026-07-08T12:45:14.000Z</time>
      </trkpt>
      <trkpt lat="45.78959" lon="1.8829">
        <ele>707.1</ele>
        <time>2026-07-08T12:45:15.000Z</time>
      </trkpt>
      <trkpt lat="45.78959" lon="1.8829">
        <ele>707.1</ele>
        <time>2026-07-08T12:45:16.000Z</time>
      </trkpt>
      <trkpt lat="45.78959" lon="1.8829">
        <ele>707.1</ele>
        <time>2026-07-08T12:45:17.000Z</time>
      </trkpt>
      <trkpt lat="45.78959" lon="1.8829">
        <ele>707.1</ele>
        <time>2026-07-08T12:45:18.000Z</time>
      </trkpt>
      <trkpt lat="45.78959" lon="1.8829">
        <ele>707.1</ele>
        <time>2026-07-08T12:45:19.000Z</time>
      </trkpt>
      <trkpt lat="45.78959" lon="1.8829">
        <ele>707.1</ele>
        <time>2026-07-08T12:45:20.000Z</time>
      </trkpt>
      <trkpt lat="45.78959" lon="1.8829">
        <ele>707.1</ele>
        <time>2026-07-08T12:45:21.000Z</time>
      </trkpt>
      <trkpt lat="45.78959" lon="1.8829">
        <ele>707.1</ele>
        <time>2026-07-08T12:45:22.000Z</time>
      </trkpt>
      <trkpt lat="45.78959" lon="1.8829">
        <ele>707.2</ele>
        <time>2026-07-08T12:45:23.000Z</time>
      </trkpt>
      <trkpt lat="45.78959" lon="1.8829">
        <ele>707.2</ele>
        <time>2026-07-08T12:45:24.000Z</time>
      </trkpt>
      <trkpt lat="45.78959" lon="1.8829">
        <ele>707.2</ele>
        <time>2026-07-08T12:45:25.000Z</time>
      </trkpt>
      <trkpt lat="45.78959" lon="1.8829">
        <ele>707.2</ele>
        <time>2026-07-08T12:45:26.000Z</time>
      </trkpt>
      <trkpt lat="45.78959" lon="1.8829">
        <ele>707.2</ele>
        <time>2026-07-08T12:45:27.000Z</time>
      </trkpt>
      <trkpt lat="45.78959" lon="1.8829">
        <ele>707.2</ele>
        <time>2026-07-08T12:45:28.000Z</time>
      </trkpt>
      <trkpt lat="45.78959" lon="1.8829">
        <ele>707.2</ele>
        <time>2026-07-08T12:45:29.000Z</time>
      </trkpt>
      <trkpt lat="45.78959" lon="1.8829">
        <ele>707.2</ele>
        <time>2026-07-08T12:45:30.000Z</time>
      </trkpt>
      <trkpt lat="45.78959" lon="1.8829">
        <ele>707.2</ele>
        <time>2026-07-08T12:45:31.000Z</time>
      </trkpt>
      <trkpt lat="45.78959" lon="1.8829">
        <ele>707.2</ele>
        <time>2026-07-08T12:45:32.000Z</time>
      </trkpt>
      <trkpt lat="45.78959" lon="1.8829">
        <ele>707.2</ele>
        <time>2026-07-08T12:45:33.000Z</time>
      </trkpt>
      <trkpt lat="45.78959" lon="1.8829">
        <ele>707.2</ele>
        <time>2026-07-08T12:45:34.000Z</time>
      </trkpt>
      <trkpt lat="45.78959" lon="1.8829">
        <ele>707.2</ele>
        <time>2026-07-08T12:45:35.000Z</time>
      </trkpt>
      <trkpt lat="45.78959" lon="1.8829">
        <ele>707.1</ele>
        <time>2026-07-08T12:45:36.000Z</time>
      </trkpt>
      <trkpt lat="45.78959" lon="1.8829">
        <ele>707.1</ele>
        <time>2026-07-08T12:45:37.000Z</time>
      </trkpt>
      <trkpt lat="45.78959" lon="1.8829">
        <ele>707.1</ele>
        <time>2026-07-08T12:45:38.000Z</time>
      </trkpt>
      <trkpt lat="45.78959" lon="1.8829">
        <ele>707.1</ele>
        <time>2026-07-08T12:45:39.000Z</time>
      </trkpt>
      <trkpt lat="45.78959" lon="1.8829">
        <ele>707.1</ele>
        <time>2026-07-08T12:45:40.000Z</time>
      </trkpt>
      <trkpt lat="45.78959" lon="1.8829">
        <ele>707.1</ele>
        <time>2026-07-08T12:45:41.000Z</time>
      </trkpt>
      <trkpt lat="45.78959" lon="1.8829">
        <ele>707.1</ele>
        <time>2026-07-08T12:45:42.000Z</time>
      </trkpt>
      <trkpt lat="45.78959" lon="1.8829">
        <ele>707.1</ele>
        <time>2026-07-08T12:45:43.000Z</time>
      </trkpt>
      <trkpt lat="45.78959" lon="1.8829">
        <ele>707.1</ele>
        <time>2026-07-08T12:45:44.000Z</time>
      </trkpt>
      <trkpt lat="45.78959" lon="1.8829">
        <ele>707.1</ele>
        <time>2026-07-08T12:45:45.000Z</time>
      </trkpt>
      <trkpt lat="45.78959" lon="1.8829">
        <ele>707.1</ele>
        <time>2026-07-08T12:45:46.000Z</time>
      </trkpt>
      <trkpt lat="45.78959" lon="1.8829">
        <ele>707.1</ele>
        <time>2026-07-08T12:45:47.000Z</time>
      </trkpt>
      <trkpt lat="45.78959" lon="1.8829">
        <ele>707.1</ele>
        <time>2026-07-08T12:45:48.000Z</time>
      </trkpt>
      <trkpt lat="45.78959" lon="1.8829">
        <ele>707.1</ele>
        <time>2026-07-08T12:45:49.000Z</time>
      </trkpt>
      <trkpt lat="45.78959" lon="1.8829">
        <ele>707.1</ele>
        <time>2026-07-08T12:45:50.000Z</time>
      </trkpt>
      <trkpt lat="45.78959" lon="1.8829">
        <ele>707.1</ele>
        <time>2026-07-08T12:45:51.000Z</time>
      </trkpt>
      <trkpt lat="45.78959" lon="1.8829">
        <ele>707.1</ele>
        <time>2026-07-08T12:45:52.000Z</time>
      </trkpt>
      <trkpt lat="45.78959" lon="1.8829">
        <ele>707.1</ele>
        <time>2026-07-08T12:45:53.000Z</time>
      </trkpt>
      <trkpt lat="45.78959" lon="1.8829">
        <ele>707.1</ele>
        <time>2026-07-08T12:45:54.000Z</time>
      </trkpt>
      <trkpt lat="45.78959" lon="1.8829">
        <ele>707.1</ele>
        <time>2026-07-08T12:45:55.000Z</time>
      </trkpt>
      <trkpt lat="45.78959" lon="1.8829">
        <ele>707.1</ele>
        <time>2026-07-08T12:45:56.000Z</time>
      </trkpt>
      <trkpt lat="45.78959" lon="1.8829">
        <ele>707.1</ele>
        <time>2026-07-08T12:45:57.000Z</time>
      </trkpt>
      <trkpt lat="45.78959" lon="1.8829">
        <ele>707.1</ele>
        <time>2026-07-08T12:45:58.000Z</time>
      </trkpt>
      <trkpt lat="45.78959" lon="1.8829">
        <ele>707.1</ele>
        <time>2026-07-08T12:45:59.000Z</time>
      </trkpt>
      <trkpt lat="45.78959" lon="1.8829">
        <ele>707.2</ele>
        <time>2026-07-08T12:46:00.000Z</time>
      </trkpt>
      <trkpt lat="45.78959" lon="1.8829">
        <ele>707.2</ele>
        <time>2026-07-08T12:46:01.000Z</time>
      </trkpt>
      <trkpt lat="45.78959" lon="1.8829">
        <ele>707.2</ele>
        <time>2026-07-08T12:46:02.000Z</time>
      </trkpt>
      <trkpt lat="45.78959" lon="1.8829">
        <ele>707.2</ele>
        <time>2026-07-08T12:46:03.000Z</time>
      </trkpt>
      <trkpt lat="45.78959" lon="1.8829">
        <ele>707.2</ele>
        <time>2026-07-08T12:46:04.000Z</time>
      </trkpt>
      <trkpt lat="45.78959" lon="1.8829">
        <ele>707.2</ele>
        <time>2026-07-08T12:46:05.000Z</time>
      </trkpt>
      <trkpt lat="45.78959" lon="1.8829">
        <ele>707.2</ele>
        <time>2026-07-08T12:46:06.000Z</time>
      </trkpt>
      <trkpt lat="45.78959" lon="1.8829">
        <ele>707.1</ele>
        <time>2026-07-08T12:46:07.000Z</time>
      </trkpt>
      <trkpt lat="45.78959" lon="1.8829">
        <ele>707.2</ele>
        <time>2026-07-08T12:46:08.000Z</time>
      </trkpt>
      <trkpt lat="45.78959" lon="1.8829">
        <ele>707.2</ele>
        <time>2026-07-08T12:46:09.000Z</time>
      </trkpt>
      <trkpt lat="45.78959" lon="1.8829">
        <ele>707.2</ele>
        <time>2026-07-08T12:46:10.000Z</time>
      </trkpt>
      <trkpt lat="45.78959" lon="1.8829">
        <ele>707.2</ele>
        <time>2026-07-08T12:46:11.000Z</time>
      </trkpt>
      <trkpt lat="45.78959" lon="1.8829">
        <ele>707.2</ele>
        <time>2026-07-08T12:46:12.000Z</time>
      </trkpt>
      <trkpt lat="45.78959" lon="1.8829">
        <ele>707.2</ele>
        <time>2026-07-08T12:46:13.000Z</time>
      </trkpt>
      <trkpt lat="45.78959" lon="1.8829">
        <ele>707.2</ele>
        <time>2026-07-08T12:46:14.000Z</time>
      </trkpt>
      <trkpt lat="45.78959" lon="1.8829">
        <ele>707.2</ele>
        <time>2026-07-08T12:46:15.000Z</time>
      </trkpt>
      <trkpt lat="45.78959" lon="1.8829">
        <ele>707.2</ele>
        <time>2026-07-08T12:46:16.000Z</time>
      </trkpt>
      <trkpt lat="45.78959" lon="1.8829">
        <ele>707.2</ele>
        <time>2026-07-08T12:46:17.000Z</time>
      </trkpt>
      <trkpt lat="45.78959" lon="1.8829">
        <ele>707.2</ele>
        <time>2026-07-08T12:46:18.000Z</time>
      </trkpt>
      <trkpt lat="45.78959" lon="1.8829">
        <ele>707.2</ele>
        <time>2026-07-08T12:46:19.000Z</time>
      </trkpt>
      <trkpt lat="45.78959" lon="1.8829">
        <ele>707.2</ele>
        <time>2026-07-08T12:46:20.000Z</time>
      </trkpt>
      <trkpt lat="45.78959" lon="1.8829">
        <ele>707.2</ele>
        <time>2026-07-08T12:46:21.000Z</time>
      </trkpt>
      <trkpt lat="45.78959" lon="1.8829">
        <ele>707.2</ele>
        <time>2026-07-08T12:46:22.000Z</time>
      </trkpt>
      <trkpt lat="45.78959" lon="1.8829">
        <ele>707.2</ele>
        <time>2026-07-08T12:46:23.000Z</time>
      </trkpt>
      <trkpt lat="45.78959" lon="1.8829">
        <ele>707.2</ele>
        <time>2026-07-08T12:46:24.000Z</time>
      </trkpt>
      <trkpt lat="45.78959" lon="1.8829">
        <ele>707.2</ele>
        <time>2026-07-08T12:46:25.000Z</time>
      </trkpt>
      <trkpt lat="45.78959" lon="1.8829">
        <ele>707.2</ele>
        <time>2026-07-08T12:46:26.000Z</time>
      </trkpt>
      <trkpt lat="45.78959" lon="1.8829">
        <ele>707.2</ele>
        <time>2026-07-08T12:46:27.000Z</time>
      </trkpt>
      <trkpt lat="45.78959" lon="1.8829">
        <ele>707.2</ele>
        <time>2026-07-08T12:46:28.000Z</time>
      </trkpt>
      <trkpt lat="45.78959" lon="1.8829">
        <ele>707.2</ele>
        <time>2026-07-08T12:46:29.000Z</time>
      </trkpt>
      <trkpt lat="45.78959" lon="1.8829">
        <ele>707.2</ele>
        <time>2026-07-08T12:46:30.000Z</time>
      </trkpt>
      <trkpt lat="45.78959" lon="1.8829">
        <ele>707.2</ele>
        <time>2026-07-08T12:46:31.000Z</time>
      </trkpt>
      <trkpt lat="45.78959" lon="1.8829">
        <ele>707.2</ele>
        <time>2026-07-08T12:46:32.000Z</time>
      </trkpt>
      <trkpt lat="45.78959" lon="1.8829">
        <ele>707.2</ele>
        <time>2026-07-08T12:46:33.000Z</time>
      </trkpt>
      <trkpt lat="45.78959" lon="1.8829">
        <ele>707.2</ele>
        <time>2026-07-08T12:46:34.000Z</time>
      </trkpt>
      <trkpt lat="45.78959" lon="1.8829">
        <ele>707.2</ele>
        <time>2026-07-08T12:46:35.000Z</time>
      </trkpt>
      <trkpt lat="45.78959" lon="1.8829">
        <ele>707.2</ele>
        <time>2026-07-08T12:46:36.000Z</time>
      </trkpt>
      <trkpt lat="45.78959" lon="1.8829">
        <ele>707.2</ele>
        <time>2026-07-08T12:46:37.000Z</time>
      </trkpt>
      <trkpt lat="45.78959" lon="1.8829">
        <ele>707.2</ele>
        <time>2026-07-08T12:46:38.000Z</time>
      </trkpt>
      <trkpt lat="45.78959" lon="1.8829">
        <ele>707.2</ele>
        <time>2026-07-08T12:46:39.000Z</time>
      </trkpt>
      <trkpt lat="45.78959" lon="1.8829">
        <ele>707.2</ele>
        <time>2026-07-08T12:46:40.000Z</time>
      </trkpt>
      <trkpt lat="45.78959" lon="1.8829">
        <ele>707.2</ele>
        <time>2026-07-08T12:46:41.000Z</time>
      </trkpt>
      <trkpt lat="45.78959" lon="1.8829">
        <ele>707.2</ele>
        <time>2026-07-08T12:46:42.000Z</time>
      </trkpt>
      <trkpt lat="45.78959" lon="1.8829">
        <ele>707.2</ele>
        <time>2026-07-08T12:46:43.000Z</time>
      </trkpt>
      <trkpt lat="45.78959" lon="1.8829">
        <ele>707.2</ele>
        <time>2026-07-08T12:46:44.000Z</time>
      </trkpt>
      <trkpt lat="45.78959" lon="1.8829">
        <ele>707.2</ele>
        <time>2026-07-08T12:46:45.000Z</time>
      </trkpt>
      <trkpt lat="45.78959" lon="1.8829">
        <ele>707.2</ele>
        <time>2026-07-08T12:46:46.000Z</time>
      </trkpt>
      <trkpt lat="45.78959" lon="1.8829">
        <ele>707.2</ele>
        <time>2026-07-08T12:46:47.000Z</time>
      </trkpt>
      <trkpt lat="45.78959" lon="1.8829">
        <ele>707.2</ele>
        <time>2026-07-08T12:46:48.000Z</time>
      </trkpt>
      <trkpt lat="45.78959" lon="1.8829">
        <ele>707.2</ele>
        <time>2026-07-08T12:46:49.000Z</time>
      </trkpt>
      <trkpt lat="45.78959" lon="1.8829">
        <ele>707.2</ele>
        <time>2026-07-08T12:46:50.000Z</time>
      </trkpt>
      <trkpt lat="45.78959" lon="1.8829">
        <ele>707.2</ele>
        <time>2026-07-08T12:46:51.000Z</time>
      </trkpt>
      <trkpt lat="45.78959" lon="1.8829">
        <ele>707.2</ele>
        <time>2026-07-08T12:46:52.000Z</time>
      </trkpt>
      <trkpt lat="45.78959" lon="1.8829">
        <ele>707.2</ele>
        <time>2026-07-08T12:46:53.000Z</time>
      </trkpt>
      <trkpt lat="45.78959" lon="1.8829">
        <ele>707.2</ele>
        <time>2026-07-08T12:46:54.000Z</time>
      </trkpt>
      <trkpt lat="45.78959" lon="1.8829">
        <ele>707.2</ele>
        <time>2026-07-08T12:46:55.000Z</time>
      </trkpt>
      <trkpt lat="45.78959" lon="1.8829">
        <ele>707.2</ele>
        <time>2026-07-08T12:46:56.000Z</time>
      </trkpt>
      <trkpt lat="45.78959" lon="1.8829">
        <ele>707.2</ele>
        <time>2026-07-08T12:46:57.000Z</time>
      </trkpt>
      <trkpt lat="45.78959" lon="1.8829">
        <ele>707.2</ele>
        <time>2026-07-08T12:46:58.000Z</time>
      </trkpt>
      <trkpt lat="45.78959" lon="1.8829">
        <ele>707.2</ele>
        <time>2026-07-08T12:46:59.000Z</time>
      </trkpt>
      <trkpt lat="45.78959" lon="1.8829">
        <ele>707.2</ele>
        <time>2026-07-08T12:47:00.000Z</time>
      </trkpt>
      <trkpt lat="45.78959" lon="1.8829">
        <ele>707.2</ele>
        <time>2026-07-08T12:47:01.000Z</time>
      </trkpt>
      <trkpt lat="45.78959" lon="1.8829">
        <ele>707.2</ele>
        <time>2026-07-08T12:47:02.000Z</time>
      </trkpt>
      <trkpt lat="45.78959" lon="1.8829">
        <ele>707.2</ele>
        <time>2026-07-08T12:47:03.000Z</time>
      </trkpt>
      <trkpt lat="45.78959" lon="1.8829">
        <ele>707.2</ele>
        <time>2026-07-08T12:47:04.000Z</time>
      </trkpt>
      <trkpt lat="45.78959" lon="1.8829">
        <ele>707.2</ele>
        <time>2026-07-08T12:47:05.000Z</time>
      </trkpt>
      <trkpt lat="45.78959" lon="1.8829">
        <ele>707.2</ele>
        <time>2026-07-08T12:47:06.000Z</time>
      </trkpt>
      <trkpt lat="45.78959" lon="1.8829">
        <ele>707.2</ele>
        <time>2026-07-08T12:47:07.000Z</time>
      </trkpt>
      <trkpt lat="45.78959" lon="1.8829">
        <ele>707.2</ele>
        <time>2026-07-08T12:47:08.000Z</time>
      </trkpt>
      <trkpt lat="45.78959" lon="1.8829">
        <ele>707.2</ele>
        <time>2026-07-08T12:47:09.000Z</time>
      </trkpt>
      <trkpt lat="45.78959" lon="1.8829">
        <ele>707.2</ele>
        <time>2026-07-08T12:47:10.000Z</time>
      </trkpt>
      <trkpt lat="45.78959" lon="1.8829">
        <ele>707.2</ele>
        <time>2026-07-08T12:47:11.000Z</time>
      </trkpt>
      <trkpt lat="45.78959" lon="1.8829">
        <ele>707.2</ele>
        <time>2026-07-08T12:47:12.000Z</time>
      </trkpt>
      <trkpt lat="45.78959" lon="1.8829">
        <ele>707.2</ele>
        <time>2026-07-08T12:47:13.000Z</time>
      </trkpt>
      <trkpt lat="45.78959" lon="1.8829">
        <ele>707.2</ele>
        <time>2026-07-08T12:47:14.000Z</time>
      </trkpt>
      <trkpt lat="45.78959" lon="1.8829">
        <ele>707.2</ele>
        <time>2026-07-08T12:47:15.000Z</time>
      </trkpt>
      <trkpt lat="45.78959" lon="1.8829">
        <ele>707.2</ele>
        <time>2026-07-08T12:47:16.000Z</time>
      </trkpt>
      <trkpt lat="45.78959" lon="1.8829">
        <ele>707.2</ele>
        <time>2026-07-08T12:47:17.000Z</time>
      </trkpt>
      <trkpt lat="45.78959" lon="1.8829">
        <ele>707.2</ele>
        <time>2026-07-08T12:47:18.000Z</time>
      </trkpt>
      <trkpt lat="45.78959" lon="1.8829">
        <ele>707.2</ele>
        <time>2026-07-08T12:47:19.000Z</time>
      </trkpt>
      <trkpt lat="45.78959" lon="1.8829">
        <ele>707.2</ele>
        <time>2026-07-08T12:47:20.000Z</time>
      </trkpt>
      <trkpt lat="45.78958" lon="1.8829">
        <ele>707.2</ele>
        <time>2026-07-08T12:47:21.000Z</time>
      </trkpt>
      <trkpt lat="45.78958" lon="1.8829">
        <ele>707.2</ele>
        <time>2026-07-08T12:47:22.000Z</time>
      </trkpt>
      <trkpt lat="45.78958" lon="1.8829">
        <ele>707.2</ele>
        <time>2026-07-08T12:47:23.000Z</time>
      </trkpt>
      <trkpt lat="45.78958" lon="1.8829">
        <ele>707.2</ele>
        <time>2026-07-08T12:47:24.000Z</time>
      </trkpt>
      <trkpt lat="45.78958" lon="1.8829">
        <ele>707.2</ele>
        <time>2026-07-08T12:47:25.000Z</time>
      </trkpt>
      <trkpt lat="45.78958" lon="1.8829">
        <ele>707.2</ele>
        <time>2026-07-08T12:47:26.000Z</time>
      </trkpt>
      <trkpt lat="45.78958" lon="1.8829">
        <ele>707.2</ele>
        <time>2026-07-08T12:47:27.000Z</time>
      </trkpt>
      <trkpt lat="45.78958" lon="1.8829">
        <ele>707.2</ele>
        <time>2026-07-08T12:47:28.000Z</time>
      </trkpt>
      <trkpt lat="45.78958" lon="1.8829">
        <ele>707.2</ele>
        <time>2026-07-08T12:47:29.000Z</time>
      </trkpt>
      <trkpt lat="45.78958" lon="1.8829">
        <ele>707.2</ele>
        <time>2026-07-08T12:47:30.000Z</time>
      </trkpt>
      <trkpt lat="45.78958" lon="1.8829">
        <ele>707.2</ele>
        <time>2026-07-08T12:47:31.000Z</time>
      </trkpt>
      <trkpt lat="45.78958" lon="1.8829">
        <ele>707.2</ele>
        <time>2026-07-08T12:47:32.000Z</time>
      </trkpt>
      <trkpt lat="45.78958" lon="1.8829">
        <ele>707.2</ele>
        <time>2026-07-08T12:47:33.000Z</time>
      </trkpt>
      <trkpt lat="45.78958" lon="1.8829">
        <ele>707.2</ele>
        <time>2026-07-08T12:47:34.000Z</time>
      </trkpt>
      <trkpt lat="45.78958" lon="1.8829">
        <ele>707.2</ele>
        <time>2026-07-08T12:47:35.000Z</time>
      </trkpt>
      <trkpt lat="45.78958" lon="1.8829">
        <ele>707.2</ele>
        <time>2026-07-08T12:47:36.000Z</time>
      </trkpt>
      <trkpt lat="45.78958" lon="1.8829">
        <ele>707.2</ele>
        <time>2026-07-08T12:47:37.000Z</time>
      </trkpt>
      <trkpt lat="45.78958" lon="1.8829">
        <ele>707.2</ele>
        <time>2026-07-08T12:47:38.000Z</time>
      </trkpt>
      <trkpt lat="45.78958" lon="1.8829">
        <ele>707.2</ele>
        <time>2026-07-08T12:47:39.000Z</time>
      </trkpt>
      <trkpt lat="45.78958" lon="1.8829">
        <ele>707.2</ele>
        <time>2026-07-08T12:47:40.000Z</time>
      </trkpt>
      <trkpt lat="45.78958" lon="1.8829">
        <ele>707.2</ele>
        <time>2026-07-08T12:47:41.000Z</time>
      </trkpt>
      <trkpt lat="45.78958" lon="1.8829">
        <ele>707.2</ele>
        <time>2026-07-08T12:47:42.000Z</time>
      </trkpt>
      <trkpt lat="45.78958" lon="1.8829">
        <ele>707.2</ele>
        <time>2026-07-08T12:47:43.000Z</time>
      </trkpt>
      <trkpt lat="45.78958" lon="1.8829">
        <ele>707.2</ele>
        <time>2026-07-08T12:47:44.000Z</time>
      </trkpt>
      <trkpt lat="45.78958" lon="1.8829">
        <ele>707.2</ele>
        <time>2026-07-08T12:47:45.000Z</time>
      </trkpt>
      <trkpt lat="45.78958" lon="1.8829">
        <ele>707.2</ele>
        <time>2026-07-08T12:47:46.000Z</time>
      </trkpt>
      <trkpt lat="45.78958" lon="1.8829">
        <ele>707.2</ele>
        <time>2026-07-08T12:47:47.000Z</time>
      </trkpt>
      <trkpt lat="45.78958" lon="1.8829">
        <ele>707.2</ele>
        <time>2026-07-08T12:47:48.000Z</time>
      </trkpt>
      <trkpt lat="45.78958" lon="1.8829">
        <ele>707.2</ele>
        <time>2026-07-08T12:47:49.000Z</time>
      </trkpt>
      <trkpt lat="45.78958" lon="1.8829">
        <ele>707.2</ele>
        <time>2026-07-08T12:47:50.000Z</time>
      </trkpt>
      <trkpt lat="45.78958" lon="1.8829">
        <ele>707.2</ele>
        <time>2026-07-08T12:47:51.000Z</time>
      </trkpt>
      <trkpt lat="45.78958" lon="1.8829">
        <ele>707.2</ele>
        <time>2026-07-08T12:47:52.000Z</time>
      </trkpt>
      <trkpt lat="45.78958" lon="1.8829">
        <ele>707.2</ele>
        <time>2026-07-08T12:47:53.000Z</time>
      </trkpt>
      <trkpt lat="45.78958" lon="1.8829">
        <ele>707.2</ele>
        <time>2026-07-08T12:47:54.000Z</time>
      </trkpt>
      <trkpt lat="45.78958" lon="1.8829">
        <ele>707.2</ele>
        <time>2026-07-08T12:47:55.000Z</time>
      </trkpt>
      <trkpt lat="45.78958" lon="1.8829">
        <ele>707.2</ele>
        <time>2026-07-08T12:47:56.000Z</time>
      </trkpt>
      <trkpt lat="45.78958" lon="1.8829">
        <ele>707.2</ele>
        <time>2026-07-08T12:47:57.000Z</time>
      </trkpt>
      <trkpt lat="45.78958" lon="1.8829">
        <ele>707.2</ele>
        <time>2026-07-08T12:47:58.000Z</time>
      </trkpt>
      <trkpt lat="45.78958" lon="1.8829">
        <ele>707.2</ele>
        <time>2026-07-08T12:47:59.000Z</time>
      </trkpt>
      <trkpt lat="45.78958" lon="1.8829">
        <ele>707.2</ele>
        <time>2026-07-08T12:48:00.000Z</time>
      </trkpt>
      <trkpt lat="45.78958" lon="1.8829">
        <ele>707.2</ele>
        <time>2026-07-08T12:48:01.000Z</time>
      </trkpt>
      <trkpt lat="45.78958" lon="1.8829">
        <ele>707.2</ele>
        <time>2026-07-08T12:48:02.000Z</time>
      </trkpt>
      <trkpt lat="45.78958" lon="1.8829">
        <ele>707.2</ele>
        <time>2026-07-08T12:48:03.000Z</time>
      </trkpt>
      <trkpt lat="45.78958" lon="1.8829">
        <ele>707.2</ele>
        <time>2026-07-08T12:48:04.000Z</time>
      </trkpt>
      <trkpt lat="45.78958" lon="1.8829">
        <ele>707.2</ele>
        <time>2026-07-08T12:48:05.000Z</time>
      </trkpt>
      <trkpt lat="45.78958" lon="1.8829">
        <ele>707.2</ele>
        <time>2026-07-08T12:48:06.000Z</time>
      </trkpt>
      <trkpt lat="45.78958" lon="1.8829">
        <ele>707.2</ele>
        <time>2026-07-08T12:48:07.000Z</time>
      </trkpt>
      <trkpt lat="45.78958" lon="1.8829">
        <ele>707.2</ele>
        <time>2026-07-08T12:48:08.000Z</time>
      </trkpt>
      <trkpt lat="45.78958" lon="1.8829">
        <ele>707.2</ele>
        <time>2026-07-08T12:48:09.000Z</time>
      </trkpt>
      <trkpt lat="45.78958" lon="1.8829">
        <ele>707.2</ele>
        <time>2026-07-08T12:48:10.000Z</time>
      </trkpt>
      <trkpt lat="45.78958" lon="1.8829">
        <ele>707.2</ele>
        <time>2026-07-08T12:48:11.000Z</time>
      </trkpt>
      <trkpt lat="45.78958" lon="1.8829">
        <ele>707.2</ele>
        <time>2026-07-08T12:48:12.000Z</time>
      </trkpt>
      <trkpt lat="45.78958" lon="1.8829">
        <ele>707.2</ele>
        <time>2026-07-08T12:48:13.000Z</time>
      </trkpt>
      <trkpt lat="45.78958" lon="1.8829">
        <ele>707.2</ele>
        <time>2026-07-08T12:48:14.000Z</time>
      </trkpt>
      <trkpt lat="45.78958" lon="1.8829">
        <ele>707.2</ele>
        <time>2026-07-08T12:48:15.000Z</time>
      </trkpt>
      <trkpt lat="45.78958" lon="1.8829">
        <ele>707.2</ele>
        <time>2026-07-08T12:48:16.000Z</time>
      </trkpt>
      <trkpt lat="45.78958" lon="1.8829">
        <ele>707.2</ele>
        <time>2026-07-08T12:48:17.000Z</time>
      </trkpt>
      <trkpt lat="45.78958" lon="1.8829">
        <ele>707.2</ele>
        <time>2026-07-08T12:48:18.000Z</time>
      </trkpt>
      <trkpt lat="45.78958" lon="1.8829">
        <ele>707.2</ele>
        <time>2026-07-08T12:48:19.000Z</time>
      </trkpt>
      <trkpt lat="45.78958" lon="1.8829">
        <ele>707.2</ele>
        <time>2026-07-08T12:48:20.000Z</time>
      </trkpt>
      <trkpt lat="45.78958" lon="1.8829">
        <ele>707.2</ele>
        <time>2026-07-08T12:48:21.000Z</time>
      </trkpt>
      <trkpt lat="45.78958" lon="1.88291">
        <ele>707.4</ele>
        <time>2026-07-08T12:48:22.000Z</time>
      </trkpt>
      <trkpt lat="45.78959" lon="1.88292">
        <ele>706.9</ele>
        <time>2026-07-08T12:48:23.000Z</time>
      </trkpt>
      <trkpt lat="45.78959" lon="1.88292">
        <ele>707.1</ele>
        <time>2026-07-08T12:48:24.000Z</time>
      </trkpt>
      <trkpt lat="45.78959" lon="1.88292">
        <ele>707</ele>
        <time>2026-07-08T12:48:25.000Z</time>
      </trkpt>
      <trkpt lat="45.78959" lon="1.88292">
        <ele>706.7</ele>
        <time>2026-07-08T12:48:26.000Z</time>
      </trkpt>
      <trkpt lat="45.78959" lon="1.88292">
        <ele>707.1</ele>
        <time>2026-07-08T12:48:27.000Z</time>
      </trkpt>
      <trkpt lat="45.78959" lon="1.88292">
        <ele>706.9</ele>
        <time>2026-07-08T12:48:28.000Z</time>
      </trkpt>
      <trkpt lat="45.78959" lon="1.88292">
        <ele>706.7</ele>
        <time>2026-07-08T12:48:29.000Z</time>
      </trkpt>
      <trkpt lat="45.78959" lon="1.88292">
        <ele>706.6</ele>
        <time>2026-07-08T12:48:30.000Z</time>
      </trkpt>
      <trkpt lat="45.78958" lon="1.88292">
        <ele>706.3</ele>
        <time>2026-07-08T12:48:31.000Z</time>
      </trkpt>
      <trkpt lat="45.78958" lon="1.88292">
        <ele>706.4</ele>
        <time>2026-07-08T12:48:32.000Z</time>
      </trkpt>
      <trkpt lat="45.78958" lon="1.88292">
        <ele>706.4</ele>
        <time>2026-07-08T12:48:33.000Z</time>
      </trkpt>
      <trkpt lat="45.78958" lon="1.88292">
        <ele>706.3</ele>
        <time>2026-07-08T12:48:34.000Z</time>
      </trkpt>
      <trkpt lat="45.78958" lon="1.88292">
        <ele>706.3</ele>
        <time>2026-07-08T12:48:35.000Z</time>
      </trkpt>
      <trkpt lat="45.78958" lon="1.88292">
        <ele>706.3</ele>
        <time>2026-07-08T12:48:36.000Z</time>
      </trkpt>
      <trkpt lat="45.78958" lon="1.88292">
        <ele>706.3</ele>
        <time>2026-07-08T12:48:37.000Z</time>
      </trkpt>
      <trkpt lat="45.78958" lon="1.88292">
        <ele>706.3</ele>
        <time>2026-07-08T12:48:38.000Z</time>
      </trkpt>
      <trkpt lat="45.78958" lon="1.88292">
        <ele>706.3</ele>
        <time>2026-07-08T12:48:39.000Z</time>
      </trkpt>
      <trkpt lat="45.78958" lon="1.88292">
        <ele>706.3</ele>
        <time>2026-07-08T12:48:40.000Z</time>
      </trkpt>
      <trkpt lat="45.78958" lon="1.88292">
        <ele>706.3</ele>
        <time>2026-07-08T12:48:41.000Z</time>
      </trkpt>
      <trkpt lat="45.78958" lon="1.88292">
        <ele>706.3</ele>
        <time>2026-07-08T12:48:42.000Z</time>
      </trkpt>
      <trkpt lat="45.78958" lon="1.88292">
        <ele>706.3</ele>
        <time>2026-07-08T12:48:43.000Z</time>
      </trkpt>
      <trkpt lat="45.78958" lon="1.88292">
        <ele>706.3</ele>
        <time>2026-07-08T12:48:44.000Z</time>
      </trkpt>
      <trkpt lat="45.78958" lon="1.88292">
        <ele>706.3</ele>
        <time>2026-07-08T12:48:45.000Z</time>
      </trkpt>
      <trkpt lat="45.78958" lon="1.88292">
        <ele>706.3</ele>
        <time>2026-07-08T12:48:46.000Z</time>
      </trkpt>
      <trkpt lat="45.78958" lon="1.88292">
        <ele>706.3</ele>
        <time>2026-07-08T12:48:47.000Z</time>
      </trkpt>
      <trkpt lat="45.78958" lon="1.88292">
        <ele>706.4</ele>
        <time>2026-07-08T12:48:48.000Z</time>
      </trkpt>
      <trkpt lat="45.78958" lon="1.88292">
        <ele>706.4</ele>
        <time>2026-07-08T12:48:49.000Z</time>
      </trkpt>
      <trkpt lat="45.78958" lon="1.88292">
        <ele>706.4</ele>
        <time>2026-07-08T12:48:50.000Z</time>
      </trkpt>
      <trkpt lat="45.78958" lon="1.88292">
        <ele>706.4</ele>
        <time>2026-07-08T12:48:51.000Z</time>
      </trkpt>
      <trkpt lat="45.78958" lon="1.88292">
        <ele>706.4</ele>
        <time>2026-07-08T12:48:52.000Z</time>
      </trkpt>
      <trkpt lat="45.78958" lon="1.88292">
        <ele>706.4</ele>
        <time>2026-07-08T12:48:53.000Z</time>
      </trkpt>
      <trkpt lat="45.78958" lon="1.88292">
        <ele>706.4</ele>
        <time>2026-07-08T12:48:54.000Z</time>
      </trkpt>
      <trkpt lat="45.78958" lon="1.88292">
        <ele>706.4</ele>
        <time>2026-07-08T12:48:55.000Z</time>
      </trkpt>
      <trkpt lat="45.78958" lon="1.88292">
        <ele>706.4</ele>
        <time>2026-07-08T12:48:56.000Z</time>
      </trkpt>
      <trkpt lat="45.78958" lon="1.88292">
        <ele>706.4</ele>
        <time>2026-07-08T12:48:57.000Z</time>
      </trkpt>
      <trkpt lat="45.78958" lon="1.88292">
        <ele>706.4</ele>
        <time>2026-07-08T12:48:58.000Z</time>
      </trkpt>
      <trkpt lat="45.78958" lon="1.88292">
        <ele>706.4</ele>
        <time>2026-07-08T12:48:59.000Z</time>
      </trkpt>
      <trkpt lat="45.78958" lon="1.88292">
        <ele>706.4</ele>
        <time>2026-07-08T12:49:00.000Z</time>
      </trkpt>
      <trkpt lat="45.78958" lon="1.88292">
        <ele>706.4</ele>
        <time>2026-07-08T12:49:01.000Z</time>
      </trkpt>
      <trkpt lat="45.78958" lon="1.88292">
        <ele>706.4</ele>
        <time>2026-07-08T12:49:02.000Z</time>
      </trkpt>
      <trkpt lat="45.78958" lon="1.88292">
        <ele>706.6</ele>
        <time>2026-07-08T12:49:03.000Z</time>
      </trkpt>
      <trkpt lat="45.78958" lon="1.88292">
        <ele>706.8</ele>
        <time>2026-07-08T12:49:04.000Z</time>
      </trkpt>
      <trkpt lat="45.78958" lon="1.88293">
        <ele>706.6</ele>
        <time>2026-07-08T12:49:05.000Z</time>
      </trkpt>
      <trkpt lat="45.78958" lon="1.88293">
        <ele>706</ele>
        <time>2026-07-08T12:49:06.000Z</time>
      </trkpt>
      <trkpt lat="45.78958" lon="1.88293">
        <ele>706.1</ele>
        <time>2026-07-08T12:49:07.000Z</time>
      </trkpt>
      <trkpt lat="45.78958" lon="1.88292">
        <ele>706.3</ele>
        <time>2026-07-08T12:49:08.000Z</time>
      </trkpt>
      <trkpt lat="45.78958" lon="1.88292">
        <ele>706.5</ele>
        <time>2026-07-08T12:49:09.000Z</time>
      </trkpt>
      <trkpt lat="45.78958" lon="1.88292">
        <ele>706.6</ele>
        <time>2026-07-08T12:49:10.000Z</time>
      </trkpt>
      <trkpt lat="45.78958" lon="1.88292">
        <ele>706.4</ele>
        <time>2026-07-08T12:49:11.000Z</time>
      </trkpt>
      <trkpt lat="45.78958" lon="1.88292">
        <ele>706.4</ele>
        <time>2026-07-08T12:49:12.000Z</time>
      </trkpt>
      <trkpt lat="45.78958" lon="1.88292">
        <ele>706.3</ele>
        <time>2026-07-08T12:49:13.000Z</time>
      </trkpt>
      <trkpt lat="45.78958" lon="1.88292">
        <ele>706.5</ele>
        <time>2026-07-08T12:49:14.000Z</time>
      </trkpt>
      <trkpt lat="45.78958" lon="1.88292">
        <ele>706.4</ele>
        <time>2026-07-08T12:49:15.000Z</time>
      </trkpt>
      <trkpt lat="45.78958" lon="1.88292">
        <ele>706.4</ele>
        <time>2026-07-08T12:49:16.000Z</time>
      </trkpt>
      <trkpt lat="45.78958" lon="1.88292">
        <ele>706.4</ele>
        <time>2026-07-08T12:49:17.000Z</time>
      </trkpt>
      <trkpt lat="45.78958" lon="1.88292">
        <ele>706.4</ele>
        <time>2026-07-08T12:49:18.000Z</time>
      </trkpt>
      <trkpt lat="45.78958" lon="1.88292">
        <ele>706.4</ele>
        <time>2026-07-08T12:49:19.000Z</time>
      </trkpt>
      <trkpt lat="45.78958" lon="1.88292">
        <ele>706.4</ele>
        <time>2026-07-08T12:49:20.000Z</time>
      </trkpt>
      <trkpt lat="45.78958" lon="1.88292">
        <ele>706.4</ele>
        <time>2026-07-08T12:49:21.000Z</time>
      </trkpt>
      <trkpt lat="45.78958" lon="1.88292">
        <ele>706.4</ele>
        <time>2026-07-08T12:49:22.000Z</time>
      </trkpt>
      <trkpt lat="45.78958" lon="1.88292">
        <ele>706.4</ele>
        <time>2026-07-08T12:49:23.000Z</time>
      </trkpt>
      <trkpt lat="45.78958" lon="1.88292">
        <ele>706.4</ele>
        <time>2026-07-08T12:49:24.000Z</time>
      </trkpt>
      <trkpt lat="45.78958" lon="1.88292">
        <ele>706.4</ele>
        <time>2026-07-08T12:49:25.000Z</time>
      </trkpt>
      <trkpt lat="45.78958" lon="1.88292">
        <ele>706.4</ele>
        <time>2026-07-08T12:49:26.000Z</time>
      </trkpt>
      <trkpt lat="45.78958" lon="1.88292">
        <ele>706.4</ele>
        <time>2026-07-08T12:49:27.000Z</time>
      </trkpt>
      <trkpt lat="45.78958" lon="1.88292">
        <ele>706.4</ele>
        <time>2026-07-08T12:49:28.000Z</time>
      </trkpt>
      <trkpt lat="45.78958" lon="1.88292">
        <ele>706.4</ele>
        <time>2026-07-08T12:49:29.000Z</time>
      </trkpt>
      <trkpt lat="45.78958" lon="1.88292">
        <ele>706.4</ele>
        <time>2026-07-08T12:49:30.000Z</time>
      </trkpt>
      <trkpt lat="45.78958" lon="1.88291">
        <ele>706.5</ele>
        <time>2026-07-08T12:49:31.000Z</time>
      </trkpt>
      <trkpt lat="45.78958" lon="1.88291">
        <ele>706.6</ele>
        <time>2026-07-08T12:49:32.000Z</time>
      </trkpt>
      <trkpt lat="45.78958" lon="1.88291">
        <ele>706.9</ele>
        <time>2026-07-08T12:49:33.000Z</time>
      </trkpt>
      <trkpt lat="45.78958" lon="1.88291">
        <ele>706.7</ele>
        <time>2026-07-08T12:49:34.000Z</time>
      </trkpt>
      <trkpt lat="45.78958" lon="1.88291">
        <ele>706.7</ele>
        <time>2026-07-08T12:49:35.000Z</time>
      </trkpt>
      <trkpt lat="45.78958" lon="1.88292">
        <ele>706.8</ele>
        <time>2026-07-08T12:49:36.000Z</time>
      </trkpt>
      <trkpt lat="45.78958" lon="1.88291">
        <ele>706.8</ele>
        <time>2026-07-08T12:49:37.000Z</time>
      </trkpt>
      <trkpt lat="45.7896" lon="1.8829">
        <ele>707.8</ele>
        <time>2026-07-08T12:49:38.000Z</time>
      </trkpt>
      <trkpt lat="45.78958" lon="1.8829">
        <ele>707</ele>
        <time>2026-07-08T12:49:39.000Z</time>
      </trkpt>
      <trkpt lat="45.78958" lon="1.88291">
        <ele>707</ele>
        <time>2026-07-08T12:49:40.000Z</time>
      </trkpt>
      <trkpt lat="45.78958" lon="1.88291">
        <ele>706.9</ele>
        <time>2026-07-08T12:49:41.000Z</time>
      </trkpt>
      <trkpt lat="45.78957" lon="1.88291">
        <ele>706.8</ele>
        <time>2026-07-08T12:49:42.000Z</time>
      </trkpt>
      <trkpt lat="45.78958" lon="1.88291">
        <ele>706.8</ele>
        <time>2026-07-08T12:49:43.000Z</time>
      </trkpt>
      <trkpt lat="45.78957" lon="1.88291">
        <ele>706.5</ele>
        <time>2026-07-08T12:49:44.000Z</time>
      </trkpt>
      <trkpt lat="45.78957" lon="1.88291">
        <ele>706.6</ele>
        <time>2026-07-08T12:49:45.000Z</time>
      </trkpt>
      <trkpt lat="45.78957" lon="1.88291">
        <ele>706.7</ele>
        <time>2026-07-08T12:49:46.000Z</time>
      </trkpt>
      <trkpt lat="45.78958" lon="1.88291">
        <ele>706.5</ele>
        <time>2026-07-08T12:49:47.000Z</time>
      </trkpt>
      <trkpt lat="45.78958" lon="1.8829">
        <ele>706.5</ele>
        <time>2026-07-08T12:49:48.000Z</time>
      </trkpt>
      <trkpt lat="45.78958" lon="1.8829">
        <ele>706.4</ele>
        <time>2026-07-08T12:49:49.000Z</time>
      </trkpt>
      <trkpt lat="45.78958" lon="1.8829">
        <ele>706.4</ele>
        <time>2026-07-08T12:49:50.000Z</time>
      </trkpt>
      <trkpt lat="45.78958" lon="1.8829">
        <ele>706.3</ele>
        <time>2026-07-08T12:49:51.000Z</time>
      </trkpt>
      <trkpt lat="45.78958" lon="1.8829">
        <ele>706.3</ele>
        <time>2026-07-08T12:49:52.000Z</time>
      </trkpt>
      <trkpt lat="45.78958" lon="1.8829">
        <ele>706.4</ele>
        <time>2026-07-08T12:49:53.000Z</time>
      </trkpt>
      <trkpt lat="45.78958" lon="1.8829">
        <ele>706.4</ele>
        <time>2026-07-08T12:49:54.000Z</time>
      </trkpt>
      <trkpt lat="45.78958" lon="1.8829">
        <ele>706.4</ele>
        <time>2026-07-08T12:49:55.000Z</time>
      </trkpt>
      <trkpt lat="45.78958" lon="1.8829">
        <ele>706.4</ele>
        <time>2026-07-08T12:49:56.000Z</time>
      </trkpt>
      <trkpt lat="45.78958" lon="1.8829">
        <ele>706.4</ele>
        <time>2026-07-08T12:49:57.000Z</time>
      </trkpt>
      <trkpt lat="45.78958" lon="1.8829">
        <ele>706.4</ele>
        <time>2026-07-08T12:49:58.000Z</time>
      </trkpt>
      <trkpt lat="45.78958" lon="1.8829">
        <ele>706.3</ele>
        <time>2026-07-08T12:49:59.000Z</time>
      </trkpt>
      <trkpt lat="45.78958" lon="1.8829">
        <ele>706.3</ele>
        <time>2026-07-08T12:50:00.000Z</time>
      </trkpt>
      <trkpt lat="45.78958" lon="1.8829">
        <ele>706.3</ele>
        <time>2026-07-08T12:50:01.000Z</time>
      </trkpt>
      <trkpt lat="45.78958" lon="1.8829">
        <ele>706.3</ele>
        <time>2026-07-08T12:50:02.000Z</time>
      </trkpt>
      <trkpt lat="45.78958" lon="1.8829">
        <ele>706.4</ele>
        <time>2026-07-08T12:50:03.000Z</time>
      </trkpt>
      <trkpt lat="45.78958" lon="1.8829">
        <ele>706.4</ele>
        <time>2026-07-08T12:50:04.000Z</time>
      </trkpt>
      <trkpt lat="45.78958" lon="1.8829">
        <ele>706.4</ele>
        <time>2026-07-08T12:50:05.000Z</time>
      </trkpt>
      <trkpt lat="45.78958" lon="1.8829">
        <ele>706.4</ele>
        <time>2026-07-08T12:50:06.000Z</time>
      </trkpt>
      <trkpt lat="45.78958" lon="1.8829">
        <ele>706.4</ele>
        <time>2026-07-08T12:50:07.000Z</time>
      </trkpt>
      <trkpt lat="45.78958" lon="1.8829">
        <ele>706.4</ele>
        <time>2026-07-08T12:50:08.000Z</time>
      </trkpt>
      <trkpt lat="45.78958" lon="1.8829">
        <ele>706.4</ele>
        <time>2026-07-08T12:50:09.000Z</time>
      </trkpt>
      <trkpt lat="45.78958" lon="1.8829">
        <ele>706.4</ele>
        <time>2026-07-08T12:50:10.000Z</time>
      </trkpt>
      <trkpt lat="45.78958" lon="1.8829">
        <ele>706.4</ele>
        <time>2026-07-08T12:50:11.000Z</time>
      </trkpt>
      <trkpt lat="45.78958" lon="1.8829">
        <ele>706.4</ele>
        <time>2026-07-08T12:50:12.000Z</time>
      </trkpt>
      <trkpt lat="45.78958" lon="1.8829">
        <ele>706.4</ele>
        <time>2026-07-08T12:50:13.000Z</time>
      </trkpt>
      <trkpt lat="45.78958" lon="1.8829">
        <ele>706.4</ele>
        <time>2026-07-08T12:50:14.000Z</time>
      </trkpt>
      <trkpt lat="45.78958" lon="1.8829">
        <ele>706.4</ele>
        <time>2026-07-08T12:50:15.000Z</time>
      </trkpt>
      <trkpt lat="45.78958" lon="1.8829">
        <ele>706.4</ele>
        <time>2026-07-08T12:50:16.000Z</time>
      </trkpt>
      <trkpt lat="45.78958" lon="1.8829">
        <ele>706.4</ele>
        <time>2026-07-08T12:50:17.000Z</time>
      </trkpt>
      <trkpt lat="45.78958" lon="1.8829">
        <ele>706.4</ele>
        <time>2026-07-08T12:50:18.000Z</time>
      </trkpt>
      <trkpt lat="45.78958" lon="1.8829">
        <ele>706.4</ele>
        <time>2026-07-08T12:50:19.000Z</time>
      </trkpt>
      <trkpt lat="45.78958" lon="1.8829">
        <ele>706.4</ele>
        <time>2026-07-08T12:50:20.000Z</time>
      </trkpt>
      <trkpt lat="45.78958" lon="1.8829">
        <ele>706.4</ele>
        <time>2026-07-08T12:50:21.000Z</time>
      </trkpt>
      <trkpt lat="45.78958" lon="1.8829">
        <ele>706.4</ele>
        <time>2026-07-08T12:50:22.000Z</time>
      </trkpt>
      <trkpt lat="45.78958" lon="1.8829">
        <ele>706.4</ele>
        <time>2026-07-08T12:50:23.000Z</time>
      </trkpt>
      <trkpt lat="45.78958" lon="1.8829">
        <ele>706.4</ele>
        <time>2026-07-08T12:50:24.000Z</time>
      </trkpt>
      <trkpt lat="45.78958" lon="1.8829">
        <ele>706.4</ele>
        <time>2026-07-08T12:50:25.000Z</time>
      </trkpt>
      <trkpt lat="45.78958" lon="1.8829">
        <ele>706.4</ele>
        <time>2026-07-08T12:50:26.000Z</time>
      </trkpt>
      <trkpt lat="45.78958" lon="1.8829">
        <ele>706.4</ele>
        <time>2026-07-08T12:50:27.000Z</time>
      </trkpt>
      <trkpt lat="45.78958" lon="1.8829">
        <ele>706.4</ele>
        <time>2026-07-08T12:50:28.000Z</time>
      </trkpt>
      <trkpt lat="45.78958" lon="1.8829">
        <ele>706.4</ele>
        <time>2026-07-08T12:50:29.000Z</time>
      </trkpt>
      <trkpt lat="45.78958" lon="1.8829">
        <ele>706.4</ele>
        <time>2026-07-08T12:50:30.000Z</time>
      </trkpt>
      <trkpt lat="45.78958" lon="1.8829">
        <ele>706.4</ele>
        <time>2026-07-08T12:50:31.000Z</time>
      </trkpt>
      <trkpt lat="45.78958" lon="1.8829">
        <ele>706.4</ele>
        <time>2026-07-08T12:50:32.000Z</time>
      </trkpt>
      <trkpt lat="45.78958" lon="1.8829">
        <ele>706.4</ele>
        <time>2026-07-08T12:50:33.000Z</time>
      </trkpt>
      <trkpt lat="45.78958" lon="1.8829">
        <ele>706.4</ele>
        <time>2026-07-08T12:50:34.000Z</time>
      </trkpt>
      <trkpt lat="45.78958" lon="1.8829">
        <ele>706.4</ele>
        <time>2026-07-08T12:50:35.000Z</time>
      </trkpt>
      <trkpt lat="45.78958" lon="1.8829">
        <ele>706.4</ele>
        <time>2026-07-08T12:50:36.000Z</time>
      </trkpt>
      <trkpt lat="45.78958" lon="1.8829">
        <ele>706.4</ele>
        <time>2026-07-08T12:50:37.000Z</time>
      </trkpt>
      <trkpt lat="45.78958" lon="1.8829">
        <ele>706.4</ele>
        <time>2026-07-08T12:50:38.000Z</time>
      </trkpt>
      <trkpt lat="45.78958" lon="1.8829">
        <ele>706.4</ele>
        <time>2026-07-08T12:50:39.000Z</time>
      </trkpt>
      <trkpt lat="45.78958" lon="1.8829">
        <ele>706.4</ele>
        <time>2026-07-08T12:50:40.000Z</time>
      </trkpt>
      <trkpt lat="45.78958" lon="1.8829">
        <ele>706.4</ele>
        <time>2026-07-08T12:50:41.000Z</time>
      </trkpt>
      <trkpt lat="45.78958" lon="1.8829">
        <ele>706.4</ele>
        <time>2026-07-08T12:50:42.000Z</time>
      </trkpt>
      <trkpt lat="45.78958" lon="1.8829">
        <ele>706.4</ele>
        <time>2026-07-08T12:50:43.000Z</time>
      </trkpt>
      <trkpt lat="45.78958" lon="1.8829">
        <ele>706.4</ele>
        <time>2026-07-08T12:50:44.000Z</time>
      </trkpt>
      <trkpt lat="45.78958" lon="1.8829">
        <ele>706.4</ele>
        <time>2026-07-08T12:50:45.000Z</time>
      </trkpt>
      <trkpt lat="45.78958" lon="1.8829">
        <ele>706.4</ele>
        <time>2026-07-08T12:50:46.000Z</time>
      </trkpt>
      <trkpt lat="45.78958" lon="1.8829">
        <ele>706.4</ele>
        <time>2026-07-08T12:50:47.000Z</time>
      </trkpt>
      <trkpt lat="45.78958" lon="1.8829">
        <ele>706.4</ele>
        <time>2026-07-08T12:50:48.000Z</time>
      </trkpt>
      <trkpt lat="45.78958" lon="1.8829">
        <ele>706.4</ele>
        <time>2026-07-08T12:50:49.000Z</time>
      </trkpt>
      <trkpt lat="45.78958" lon="1.8829">
        <ele>706.4</ele>
        <time>2026-07-08T12:50:50.000Z</time>
      </trkpt>
      <trkpt lat="45.78958" lon="1.8829">
        <ele>706.4</ele>
        <time>2026-07-08T12:50:51.000Z</time>
      </trkpt>
      <trkpt lat="45.78958" lon="1.8829">
        <ele>706.4</ele>
        <time>2026-07-08T12:50:52.000Z</time>
      </trkpt>
      <trkpt lat="45.78958" lon="1.8829">
        <ele>706.4</ele>
        <time>2026-07-08T12:50:53.000Z</time>
      </trkpt>
      <trkpt lat="45.78958" lon="1.8829">
        <ele>706.4</ele>
        <time>2026-07-08T12:50:54.000Z</time>
      </trkpt>
      <trkpt lat="45.78958" lon="1.8829">
        <ele>706.4</ele>
        <time>2026-07-08T12:50:55.000Z</time>
      </trkpt>
      <trkpt lat="45.78958" lon="1.8829">
        <ele>706.4</ele>
        <time>2026-07-08T12:50:56.000Z</time>
      </trkpt>
      <trkpt lat="45.78958" lon="1.8829">
        <ele>706.4</ele>
        <time>2026-07-08T12:50:57.000Z</time>
      </trkpt>
      <trkpt lat="45.78958" lon="1.8829">
        <ele>706.4</ele>
        <time>2026-07-08T12:50:58.000Z</time>
      </trkpt>
      <trkpt lat="45.78958" lon="1.8829">
        <ele>706.4</ele>
        <time>2026-07-08T12:50:59.000Z</time>
      </trkpt>
      <trkpt lat="45.78958" lon="1.8829">
        <ele>706.4</ele>
        <time>2026-07-08T12:51:00.000Z</time>
      </trkpt>
      <trkpt lat="45.78958" lon="1.8829">
        <ele>706.4</ele>
        <time>2026-07-08T12:51:01.000Z</time>
      </trkpt>
      <trkpt lat="45.78958" lon="1.8829">
        <ele>706.4</ele>
        <time>2026-07-08T12:51:02.000Z</time>
      </trkpt>
      <trkpt lat="45.78958" lon="1.8829">
        <ele>706.4</ele>
        <time>2026-07-08T12:51:03.000Z</time>
      </trkpt>
      <trkpt lat="45.78958" lon="1.8829">
        <ele>706.4</ele>
        <time>2026-07-08T12:51:04.000Z</time>
      </trkpt>
      <trkpt lat="45.78958" lon="1.8829">
        <ele>706.4</ele>
        <time>2026-07-08T12:51:05.000Z</time>
      </trkpt>
      <trkpt lat="45.78958" lon="1.8829">
        <ele>706.4</ele>
        <time>2026-07-08T12:51:06.000Z</time>
      </trkpt>
      <trkpt lat="45.78958" lon="1.8829">
        <ele>706.4</ele>
        <time>2026-07-08T12:51:07.000Z</time>
      </trkpt>
      <trkpt lat="45.78958" lon="1.8829">
        <ele>706.4</ele>
        <time>2026-07-08T12:51:08.000Z</time>
      </trkpt>
      <trkpt lat="45.78958" lon="1.8829">
        <ele>706.4</ele>
        <time>2026-07-08T12:51:09.000Z</time>
      </trkpt>
      <trkpt lat="45.78958" lon="1.8829">
        <ele>706.4</ele>
        <time>2026-07-08T12:51:10.000Z</time>
      </trkpt>
      <trkpt lat="45.78958" lon="1.8829">
        <ele>706.4</ele>
        <time>2026-07-08T12:51:11.000Z</time>
      </trkpt>
      <trkpt lat="45.78958" lon="1.8829">
        <ele>706.4</ele>
        <time>2026-07-08T12:51:12.000Z</time>
      </trkpt>
      <trkpt lat="45.78958" lon="1.8829">
        <ele>706.4</ele>
        <time>2026-07-08T12:51:13.000Z</time>
      </trkpt>
      <trkpt lat="45.78958" lon="1.8829">
        <ele>706.4</ele>
        <time>2026-07-08T12:51:14.000Z</time>
      </trkpt>
      <trkpt lat="45.78958" lon="1.8829">
        <ele>706.4</ele>
        <time>2026-07-08T12:51:15.000Z</time>
      </trkpt>
      <trkpt lat="45.78958" lon="1.8829">
        <ele>706.4</ele>
        <time>2026-07-08T12:51:16.000Z</time>
      </trkpt>
      <trkpt lat="45.78958" lon="1.8829">
        <ele>706.4</ele>
        <time>2026-07-08T12:51:17.000Z</time>
      </trkpt>
      <trkpt lat="45.78958" lon="1.8829">
        <ele>706.4</ele>
        <time>2026-07-08T12:51:18.000Z</time>
      </trkpt>
      <trkpt lat="45.78958" lon="1.8829">
        <ele>706.4</ele>
        <time>2026-07-08T12:51:19.000Z</time>
      </trkpt>
      <trkpt lat="45.78958" lon="1.8829">
        <ele>706.4</ele>
        <time>2026-07-08T12:51:20.000Z</time>
      </trkpt>
      <trkpt lat="45.78958" lon="1.8829">
        <ele>706.4</ele>
        <time>2026-07-08T12:51:21.000Z</time>
      </trkpt>
      <trkpt lat="45.78958" lon="1.8829">
        <ele>706.4</ele>
        <time>2026-07-08T12:51:22.000Z</time>
      </trkpt>
      <trkpt lat="45.78958" lon="1.8829">
        <ele>706.4</ele>
        <time>2026-07-08T12:51:23.000Z</time>
      </trkpt>
      <trkpt lat="45.78958" lon="1.8829">
        <ele>706.4</ele>
        <time>2026-07-08T12:51:24.000Z</time>
      </trkpt>
      <trkpt lat="45.78958" lon="1.8829">
        <ele>706.4</ele>
        <time>2026-07-08T12:51:25.000Z</time>
      </trkpt>
      <trkpt lat="45.78958" lon="1.8829">
        <ele>706.4</ele>
        <time>2026-07-08T12:51:26.000Z</time>
      </trkpt>
      <trkpt lat="45.78958" lon="1.8829">
        <ele>706.4</ele>
        <time>2026-07-08T12:51:27.000Z</time>
      </trkpt>
      <trkpt lat="45.78958" lon="1.8829">
        <ele>706.4</ele>
        <time>2026-07-08T12:51:28.000Z</time>
      </trkpt>
      <trkpt lat="45.78958" lon="1.8829">
        <ele>706.4</ele>
        <time>2026-07-08T12:51:29.000Z</time>
      </trkpt>
      <trkpt lat="45.78958" lon="1.8829">
        <ele>706.4</ele>
        <time>2026-07-08T12:51:30.000Z</time>
      </trkpt>
      <trkpt lat="45.78958" lon="1.8829">
        <ele>706.4</ele>
        <time>2026-07-08T12:51:31.000Z</time>
      </trkpt>
      <trkpt lat="45.78958" lon="1.8829">
        <ele>706.4</ele>
        <time>2026-07-08T12:51:32.000Z</time>
      </trkpt>
      <trkpt lat="45.78958" lon="1.8829">
        <ele>706.5</ele>
        <time>2026-07-08T12:51:33.000Z</time>
      </trkpt>
      <trkpt lat="45.78958" lon="1.8829">
        <ele>706.5</ele>
        <time>2026-07-08T12:51:34.000Z</time>
      </trkpt>
      <trkpt lat="45.78958" lon="1.8829">
        <ele>706.5</ele>
        <time>2026-07-08T12:51:35.000Z</time>
      </trkpt>
      <trkpt lat="45.78958" lon="1.8829">
        <ele>706.5</ele>
        <time>2026-07-08T12:51:36.000Z</time>
      </trkpt>
      <trkpt lat="45.78958" lon="1.8829">
        <ele>706.5</ele>
        <time>2026-07-08T12:51:37.000Z</time>
      </trkpt>
      <trkpt lat="45.78958" lon="1.8829">
        <ele>706.5</ele>
        <time>2026-07-08T12:51:38.000Z</time>
      </trkpt>
      <trkpt lat="45.78958" lon="1.8829">
        <ele>706.5</ele>
        <time>2026-07-08T12:51:39.000Z</time>
      </trkpt>
      <trkpt lat="45.78958" lon="1.8829">
        <ele>706.5</ele>
        <time>2026-07-08T12:51:40.000Z</time>
      </trkpt>
      <trkpt lat="45.78958" lon="1.8829">
        <ele>706.5</ele>
        <time>2026-07-08T12:51:41.000Z</time>
      </trkpt>
      <trkpt lat="45.78958" lon="1.8829">
        <ele>706.5</ele>
        <time>2026-07-08T12:51:42.000Z</time>
      </trkpt>
      <trkpt lat="45.78958" lon="1.8829">
        <ele>706.5</ele>
        <time>2026-07-08T12:51:43.000Z</time>
      </trkpt>
      <trkpt lat="45.78958" lon="1.8829">
        <ele>706.5</ele>
        <time>2026-07-08T12:51:44.000Z</time>
      </trkpt>
      <trkpt lat="45.78958" lon="1.8829">
        <ele>706.5</ele>
        <time>2026-07-08T12:51:45.000Z</time>
      </trkpt>
      <trkpt lat="45.78958" lon="1.8829">
        <ele>706.5</ele>
        <time>2026-07-08T12:51:46.000Z</time>
      </trkpt>
      <trkpt lat="45.78958" lon="1.8829">
        <ele>706.5</ele>
        <time>2026-07-08T12:51:47.000Z</time>
      </trkpt>
      <trkpt lat="45.78958" lon="1.8829">
        <ele>706.5</ele>
        <time>2026-07-08T12:51:48.000Z</time>
      </trkpt>
      <trkpt lat="45.78958" lon="1.8829">
        <ele>706.5</ele>
        <time>2026-07-08T12:51:49.000Z</time>
      </trkpt>
      <trkpt lat="45.78958" lon="1.8829">
        <ele>706.5</ele>
        <time>2026-07-08T12:51:50.000Z</time>
      </trkpt>
      <trkpt lat="45.78958" lon="1.8829">
        <ele>706.5</ele>
        <time>2026-07-08T12:51:51.000Z</time>
      </trkpt>
      <trkpt lat="45.78958" lon="1.8829">
        <ele>706.5</ele>
        <time>2026-07-08T12:51:52.000Z</time>
      </trkpt>
      <trkpt lat="45.78958" lon="1.8829">
        <ele>706.5</ele>
        <time>2026-07-08T12:51:53.000Z</time>
      </trkpt>
      <trkpt lat="45.78958" lon="1.8829">
        <ele>706.5</ele>
        <time>2026-07-08T12:51:54.000Z</time>
      </trkpt>
      <trkpt lat="45.78958" lon="1.8829">
        <ele>706.5</ele>
        <time>2026-07-08T12:51:55.000Z</time>
      </trkpt>
      <trkpt lat="45.78958" lon="1.8829">
        <ele>706.5</ele>
        <time>2026-07-08T12:51:56.000Z</time>
      </trkpt>
      <trkpt lat="45.78958" lon="1.8829">
        <ele>706.5</ele>
        <time>2026-07-08T12:51:57.000Z</time>
      </trkpt>
      <trkpt lat="45.78958" lon="1.8829">
        <ele>706.5</ele>
        <time>2026-07-08T12:51:58.000Z</time>
      </trkpt>
      <trkpt lat="45.78958" lon="1.8829">
        <ele>706.5</ele>
        <time>2026-07-08T12:51:59.000Z</time>
      </trkpt>
      <trkpt lat="45.78958" lon="1.8829">
        <ele>706.5</ele>
        <time>2026-07-08T12:52:00.000Z</time>
      </trkpt>
      <trkpt lat="45.78958" lon="1.8829">
        <ele>706.5</ele>
        <time>2026-07-08T12:52:01.000Z</time>
      </trkpt>
      <trkpt lat="45.78958" lon="1.8829">
        <ele>706.5</ele>
        <time>2026-07-08T12:52:02.000Z</time>
      </trkpt>
      <trkpt lat="45.78958" lon="1.8829">
        <ele>706.5</ele>
        <time>2026-07-08T12:52:03.000Z</time>
      </trkpt>
      <trkpt lat="45.78958" lon="1.8829">
        <ele>706.5</ele>
        <time>2026-07-08T12:52:04.000Z</time>
      </trkpt>
      <trkpt lat="45.78958" lon="1.8829">
        <ele>706.5</ele>
        <time>2026-07-08T12:52:05.000Z</time>
      </trkpt>
      <trkpt lat="45.78958" lon="1.8829">
        <ele>706.5</ele>
        <time>2026-07-08T12:52:06.000Z</time>
      </trkpt>
      <trkpt lat="45.78958" lon="1.8829">
        <ele>706.5</ele>
        <time>2026-07-08T12:52:07.000Z</time>
      </trkpt>
      <trkpt lat="45.78958" lon="1.8829">
        <ele>706.5</ele>
        <time>2026-07-08T12:52:08.000Z</time>
      </trkpt>
      <trkpt lat="45.78958" lon="1.8829">
        <ele>706.5</ele>
        <time>2026-07-08T12:52:09.000Z</time>
      </trkpt>
      <trkpt lat="45.78958" lon="1.8829">
        <ele>706.5</ele>
        <time>2026-07-08T12:52:10.000Z</time>
      </trkpt>
      <trkpt lat="45.78958" lon="1.8829">
        <ele>706.5</ele>
        <time>2026-07-08T12:52:11.000Z</time>
      </trkpt>
      <trkpt lat="45.78958" lon="1.8829">
        <ele>706.5</ele>
        <time>2026-07-08T12:52:12.000Z</time>
      </trkpt>
      <trkpt lat="45.78958" lon="1.8829">
        <ele>706.4</ele>
        <time>2026-07-08T12:52:13.000Z</time>
      </trkpt>
      <trkpt lat="45.78958" lon="1.8829">
        <ele>706.4</ele>
        <time>2026-07-08T12:52:14.000Z</time>
      </trkpt>
      <trkpt lat="45.78958" lon="1.8829">
        <ele>706.4</ele>
        <time>2026-07-08T12:52:15.000Z</time>
      </trkpt>
      <trkpt lat="45.78958" lon="1.8829">
        <ele>706.5</ele>
        <time>2026-07-08T12:52:16.000Z</time>
      </trkpt>
      <trkpt lat="45.78958" lon="1.8829">
        <ele>706.5</ele>
        <time>2026-07-08T12:52:17.000Z</time>
      </trkpt>
      <trkpt lat="45.78958" lon="1.8829">
        <ele>706.5</ele>
        <time>2026-07-08T12:52:18.000Z</time>
      </trkpt>
      <trkpt lat="45.78958" lon="1.8829">
        <ele>706.5</ele>
        <time>2026-07-08T12:52:19.000Z</time>
      </trkpt>
      <trkpt lat="45.78958" lon="1.8829">
        <ele>706.5</ele>
        <time>2026-07-08T12:52:20.000Z</time>
      </trkpt>
      <trkpt lat="45.78958" lon="1.8829">
        <ele>706.5</ele>
        <time>2026-07-08T12:52:21.000Z</time>
      </trkpt>
      <trkpt lat="45.78958" lon="1.8829">
        <ele>706.5</ele>
        <time>2026-07-08T12:52:22.000Z</time>
      </trkpt>
      <trkpt lat="45.78958" lon="1.8829">
        <ele>706.5</ele>
        <time>2026-07-08T12:52:23.000Z</time>
      </trkpt>
      <trkpt lat="45.78958" lon="1.8829">
        <ele>706.5</ele>
        <time>2026-07-08T12:52:24.000Z</time>
      </trkpt>
      <trkpt lat="45.78958" lon="1.8829">
        <ele>706.5</ele>
        <time>2026-07-08T12:52:25.000Z</time>
      </trkpt>
      <trkpt lat="45.78958" lon="1.8829">
        <ele>706.5</ele>
        <time>2026-07-08T12:52:26.000Z</time>
      </trkpt>
      <trkpt lat="45.78958" lon="1.8829">
        <ele>706.5</ele>
        <time>2026-07-08T12:52:27.000Z</time>
      </trkpt>
      <trkpt lat="45.78958" lon="1.8829">
        <ele>706.5</ele>
        <time>2026-07-08T12:52:28.000Z</time>
      </trkpt>
      <trkpt lat="45.78958" lon="1.8829">
        <ele>706.5</ele>
        <time>2026-07-08T12:52:29.000Z</time>
      </trkpt>
      <trkpt lat="45.78958" lon="1.8829">
        <ele>706.5</ele>
        <time>2026-07-08T12:52:30.000Z</time>
      </trkpt>
      <trkpt lat="45.78958" lon="1.8829">
        <ele>706.5</ele>
        <time>2026-07-08T12:52:31.000Z</time>
      </trkpt>
      <trkpt lat="45.78958" lon="1.8829">
        <ele>706.5</ele>
        <time>2026-07-08T12:52:32.000Z</time>
      </trkpt>
      <trkpt lat="45.78958" lon="1.8829">
        <ele>706.5</ele>
        <time>2026-07-08T12:52:33.000Z</time>
      </trkpt>
      <trkpt lat="45.78958" lon="1.8829">
        <ele>706.5</ele>
        <time>2026-07-08T12:52:34.000Z</time>
      </trkpt>
      <trkpt lat="45.78958" lon="1.8829">
        <ele>706.5</ele>
        <time>2026-07-08T12:52:35.000Z</time>
      </trkpt>
      <trkpt lat="45.78958" lon="1.8829">
        <ele>706.5</ele>
        <time>2026-07-08T12:52:36.000Z</time>
      </trkpt>
      <trkpt lat="45.78958" lon="1.8829">
        <ele>706.5</ele>
        <time>2026-07-08T12:52:37.000Z</time>
      </trkpt>
      <trkpt lat="45.78958" lon="1.8829">
        <ele>706.5</ele>
        <time>2026-07-08T12:52:38.000Z</time>
      </trkpt>
      <trkpt lat="45.78958" lon="1.8829">
        <ele>706.5</ele>
        <time>2026-07-08T12:52:39.000Z</time>
      </trkpt>
      <trkpt lat="45.78958" lon="1.8829">
        <ele>706.5</ele>
        <time>2026-07-08T12:52:40.000Z</time>
      </trkpt>
      <trkpt lat="45.78958" lon="1.8829">
        <ele>706.5</ele>
        <time>2026-07-08T12:52:41.000Z</time>
      </trkpt>
      <trkpt lat="45.78958" lon="1.8829">
        <ele>706.5</ele>
        <time>2026-07-08T12:52:42.000Z</time>
      </trkpt>
      <trkpt lat="45.78958" lon="1.8829">
        <ele>706.5</ele>
        <time>2026-07-08T12:52:43.000Z</time>
      </trkpt>
      <trkpt lat="45.78958" lon="1.8829">
        <ele>706.4</ele>
        <time>2026-07-08T12:52:44.000Z</time>
      </trkpt>
      <trkpt lat="45.78958" lon="1.8829">
        <ele>706.4</ele>
        <time>2026-07-08T12:52:45.000Z</time>
      </trkpt>
      <trkpt lat="45.78958" lon="1.8829">
        <ele>706.4</ele>
        <time>2026-07-08T12:52:46.000Z</time>
      </trkpt>
      <trkpt lat="45.78958" lon="1.8829">
        <ele>706.4</ele>
        <time>2026-07-08T12:52:47.000Z</time>
      </trkpt>
      <trkpt lat="45.78958" lon="1.8829">
        <ele>706.4</ele>
        <time>2026-07-08T12:52:48.000Z</time>
      </trkpt>
      <trkpt lat="45.78958" lon="1.88291">
        <ele>705.9</ele>
        <time>2026-07-08T12:52:49.000Z</time>
      </trkpt>
      <trkpt lat="45.78958" lon="1.88291">
        <ele>705.3</ele>
        <time>2026-07-08T12:52:50.000Z</time>
      </trkpt>
      <trkpt lat="45.78958" lon="1.88291">
        <ele>704.7</ele>
        <time>2026-07-08T12:52:51.000Z</time>
      </trkpt>
      <trkpt lat="45.78958" lon="1.88291">
        <ele>704.8</ele>
        <time>2026-07-08T12:52:52.000Z</time>
      </trkpt>
      <trkpt lat="45.78958" lon="1.88291">
        <ele>704.5</ele>
        <time>2026-07-08T12:52:53.000Z</time>
      </trkpt>
      <trkpt lat="45.78958" lon="1.88291">
        <ele>704.6</ele>
        <time>2026-07-08T12:52:54.000Z</time>
      </trkpt>
      <trkpt lat="45.78958" lon="1.88291">
        <ele>705.3</ele>
        <time>2026-07-08T12:52:55.000Z</time>
      </trkpt>
      <trkpt lat="45.78958" lon="1.88291">
        <ele>705.5</ele>
        <time>2026-07-08T12:52:56.000Z</time>
      </trkpt>
      <trkpt lat="45.78959" lon="1.88291">
        <ele>705.8</ele>
        <time>2026-07-08T12:52:57.000Z</time>
      </trkpt>
      <trkpt lat="45.78959" lon="1.88292">
        <ele>705.8</ele>
        <time>2026-07-08T12:52:58.000Z</time>
      </trkpt>
      <trkpt lat="45.78959" lon="1.88291">
        <ele>705.8</ele>
        <time>2026-07-08T12:52:59.000Z</time>
      </trkpt>
      <trkpt lat="45.78959" lon="1.88291">
        <ele>705.8</ele>
        <time>2026-07-08T12:53:00.000Z</time>
      </trkpt>
      <trkpt lat="45.78959" lon="1.88291">
        <ele>705.6</ele>
        <time>2026-07-08T12:53:01.000Z</time>
      </trkpt>
      <trkpt lat="45.78959" lon="1.88291">
        <ele>705.7</ele>
        <time>2026-07-08T12:53:02.000Z</time>
      </trkpt>
      <trkpt lat="45.78959" lon="1.88291">
        <ele>705.7</ele>
        <time>2026-07-08T12:53:03.000Z</time>
      </trkpt>
      <trkpt lat="45.78959" lon="1.88291">
        <ele>705.7</ele>
        <time>2026-07-08T12:53:04.000Z</time>
      </trkpt>
      <trkpt lat="45.78959" lon="1.88291">
        <ele>705.7</ele>
        <time>2026-07-08T12:53:05.000Z</time>
      </trkpt>
      <trkpt lat="45.78959" lon="1.88291">
        <ele>705.7</ele>
        <time>2026-07-08T12:53:06.000Z</time>
      </trkpt>
      <trkpt lat="45.78959" lon="1.88291">
        <ele>705.7</ele>
        <time>2026-07-08T12:53:07.000Z</time>
      </trkpt>
      <trkpt lat="45.78959" lon="1.88291">
        <ele>705.7</ele>
        <time>2026-07-08T12:53:08.000Z</time>
      </trkpt>
      <trkpt lat="45.78959" lon="1.88291">
        <ele>705.7</ele>
        <time>2026-07-08T12:53:09.000Z</time>
      </trkpt>
      <trkpt lat="45.78959" lon="1.88291">
        <ele>705.7</ele>
        <time>2026-07-08T12:53:10.000Z</time>
      </trkpt>
      <trkpt lat="45.78959" lon="1.88291">
        <ele>705.7</ele>
        <time>2026-07-08T12:53:11.000Z</time>
      </trkpt>
      <trkpt lat="45.78959" lon="1.88291">
        <ele>705.7</ele>
        <time>2026-07-08T12:53:12.000Z</time>
      </trkpt>
      <trkpt lat="45.78959" lon="1.88291">
        <ele>705.7</ele>
        <time>2026-07-08T12:53:13.000Z</time>
      </trkpt>
      <trkpt lat="45.78959" lon="1.88291">
        <ele>706</ele>
        <time>2026-07-08T12:53:14.000Z</time>
      </trkpt>
      <trkpt lat="45.78959" lon="1.88291">
        <ele>706.6</ele>
        <time>2026-07-08T12:53:15.000Z</time>
      </trkpt>
      <trkpt lat="45.78959" lon="1.88291">
        <ele>707.1</ele>
        <time>2026-07-08T12:53:16.000Z</time>
      </trkpt>
      <trkpt lat="45.78959" lon="1.88291">
        <ele>708</ele>
        <time>2026-07-08T12:53:17.000Z</time>
      </trkpt>
      <trkpt lat="45.78959" lon="1.88291">
        <ele>708</ele>
        <time>2026-07-08T12:53:18.000Z</time>
      </trkpt>
      <trkpt lat="45.78959" lon="1.88291">
        <ele>707.7</ele>
        <time>2026-07-08T12:53:19.000Z</time>
      </trkpt>
      <trkpt lat="45.78958" lon="1.88291">
        <ele>707.5</ele>
        <time>2026-07-08T12:53:20.000Z</time>
      </trkpt>
      <trkpt lat="45.78958" lon="1.8829">
        <ele>707.8</ele>
        <time>2026-07-08T12:53:21.000Z</time>
      </trkpt>
      <trkpt lat="45.78958" lon="1.88291">
        <ele>707.9</ele>
        <time>2026-07-08T12:53:22.000Z</time>
      </trkpt>
      <trkpt lat="45.78958" lon="1.88291">
        <ele>707.8</ele>
        <time>2026-07-08T12:53:23.000Z</time>
      </trkpt>
      <trkpt lat="45.78958" lon="1.88291">
        <ele>707.6</ele>
        <time>2026-07-08T12:53:24.000Z</time>
      </trkpt>
      <trkpt lat="45.78958" lon="1.88291">
        <ele>707.4</ele>
        <time>2026-07-08T12:53:25.000Z</time>
      </trkpt>
      <trkpt lat="45.78958" lon="1.88291">
        <ele>707.4</ele>
        <time>2026-07-08T12:53:26.000Z</time>
      </trkpt>
      <trkpt lat="45.78958" lon="1.88291">
        <ele>707.4</ele>
        <time>2026-07-08T12:53:27.000Z</time>
      </trkpt>
      <trkpt lat="45.78958" lon="1.88291">
        <ele>707.4</ele>
        <time>2026-07-08T12:53:28.000Z</time>
      </trkpt>
      <trkpt lat="45.78958" lon="1.88291">
        <ele>707.4</ele>
        <time>2026-07-08T12:53:29.000Z</time>
      </trkpt>
      <trkpt lat="45.78958" lon="1.88291">
        <ele>707.4</ele>
        <time>2026-07-08T12:53:30.000Z</time>
      </trkpt>
      <trkpt lat="45.78958" lon="1.88291">
        <ele>707.4</ele>
        <time>2026-07-08T12:53:31.000Z</time>
      </trkpt>
      <trkpt lat="45.78958" lon="1.88291">
        <ele>707.4</ele>
        <time>2026-07-08T12:53:32.000Z</time>
      </trkpt>
      <trkpt lat="45.78958" lon="1.88291">
        <ele>707.4</ele>
        <time>2026-07-08T12:53:33.000Z</time>
      </trkpt>
      <trkpt lat="45.78958" lon="1.88291">
        <ele>707.4</ele>
        <time>2026-07-08T12:53:34.000Z</time>
      </trkpt>
      <trkpt lat="45.78958" lon="1.88291">
        <ele>707.4</ele>
        <time>2026-07-08T12:53:35.000Z</time>
      </trkpt>
      <trkpt lat="45.78958" lon="1.88291">
        <ele>707.4</ele>
        <time>2026-07-08T12:53:36.000Z</time>
      </trkpt>
      <trkpt lat="45.78958" lon="1.88291">
        <ele>707.4</ele>
        <time>2026-07-08T12:53:37.000Z</time>
      </trkpt>
      <trkpt lat="45.78958" lon="1.88291">
        <ele>707.4</ele>
        <time>2026-07-08T12:53:38.000Z</time>
      </trkpt>
      <trkpt lat="45.78958" lon="1.88291">
        <ele>707.4</ele>
        <time>2026-07-08T12:53:39.000Z</time>
      </trkpt>
      <trkpt lat="45.78958" lon="1.88291">
        <ele>707.4</ele>
        <time>2026-07-08T12:53:40.000Z</time>
      </trkpt>
      <trkpt lat="45.78958" lon="1.88291">
        <ele>707.4</ele>
        <time>2026-07-08T12:53:41.000Z</time>
      </trkpt>
      <trkpt lat="45.78958" lon="1.88291">
        <ele>707.4</ele>
        <time>2026-07-08T12:53:42.000Z</time>
      </trkpt>
      <trkpt lat="45.78958" lon="1.88291">
        <ele>707.4</ele>
        <time>2026-07-08T12:53:43.000Z</time>
      </trkpt>
      <trkpt lat="45.78958" lon="1.88291">
        <ele>707.4</ele>
        <time>2026-07-08T12:53:44.000Z</time>
      </trkpt>
      <trkpt lat="45.78958" lon="1.88291">
        <ele>707.4</ele>
        <time>2026-07-08T12:53:45.000Z</time>
      </trkpt>
      <trkpt lat="45.78958" lon="1.88291">
        <ele>707.4</ele>
        <time>2026-07-08T12:53:46.000Z</time>
      </trkpt>
      <trkpt lat="45.78958" lon="1.88291">
        <ele>707.4</ele>
        <time>2026-07-08T12:53:47.000Z</time>
      </trkpt>
      <trkpt lat="45.78958" lon="1.88291">
        <ele>707.4</ele>
        <time>2026-07-08T12:53:48.000Z</time>
      </trkpt>
      <trkpt lat="45.78958" lon="1.88291">
        <ele>707.4</ele>
        <time>2026-07-08T12:53:49.000Z</time>
      </trkpt>
      <trkpt lat="45.78958" lon="1.88291">
        <ele>707.4</ele>
        <time>2026-07-08T12:53:50.000Z</time>
      </trkpt>
      <trkpt lat="45.78958" lon="1.88291">
        <ele>707.4</ele>
        <time>2026-07-08T12:53:51.000Z</time>
      </trkpt>
      <trkpt lat="45.78958" lon="1.88291">
        <ele>707.4</ele>
        <time>2026-07-08T12:53:52.000Z</time>
      </trkpt>
      <trkpt lat="45.78958" lon="1.88291">
        <ele>707.4</ele>
        <time>2026-07-08T12:53:53.000Z</time>
      </trkpt>
      <trkpt lat="45.78958" lon="1.88291">
        <ele>707.4</ele>
        <time>2026-07-08T12:53:54.000Z</time>
      </trkpt>
      <trkpt lat="45.78958" lon="1.88291">
        <ele>707.4</ele>
        <time>2026-07-08T12:53:55.000Z</time>
      </trkpt>
      <trkpt lat="45.78958" lon="1.88291">
        <ele>707.4</ele>
        <time>2026-07-08T12:53:56.000Z</time>
      </trkpt>
      <trkpt lat="45.78958" lon="1.88291">
        <ele>707.4</ele>
        <time>2026-07-08T12:53:57.000Z</time>
      </trkpt>
      <trkpt lat="45.78958" lon="1.88291">
        <ele>707.4</ele>
        <time>2026-07-08T12:53:58.000Z</time>
      </trkpt>
      <trkpt lat="45.78958" lon="1.88291">
        <ele>707.4</ele>
        <time>2026-07-08T12:53:59.000Z</time>
      </trkpt>
      <trkpt lat="45.78958" lon="1.88291">
        <ele>707.4</ele>
        <time>2026-07-08T12:54:00.000Z</time>
      </trkpt>
      <trkpt lat="45.78958" lon="1.88291">
        <ele>707.4</ele>
        <time>2026-07-08T12:54:01.000Z</time>
      </trkpt>
      <trkpt lat="45.78958" lon="1.88291">
        <ele>707.4</ele>
        <time>2026-07-08T12:54:02.000Z</time>
      </trkpt>
      <trkpt lat="45.78958" lon="1.88291">
        <ele>707.4</ele>
        <time>2026-07-08T12:54:03.000Z</time>
      </trkpt>
      <trkpt lat="45.78958" lon="1.88291">
        <ele>707.4</ele>
        <time>2026-07-08T12:54:04.000Z</time>
      </trkpt>
      <trkpt lat="45.78958" lon="1.88291">
        <ele>707.4</ele>
        <time>2026-07-08T12:54:05.000Z</time>
      </trkpt>
      <trkpt lat="45.78958" lon="1.88291">
        <ele>707.4</ele>
        <time>2026-07-08T12:54:06.000Z</time>
      </trkpt>
      <trkpt lat="45.78958" lon="1.88291">
        <ele>707.4</ele>
        <time>2026-07-08T12:54:07.000Z</time>
      </trkpt>
      <trkpt lat="45.78958" lon="1.88291">
        <ele>707.3</ele>
        <time>2026-07-08T12:54:08.000Z</time>
      </trkpt>
      <trkpt lat="45.78958" lon="1.88291">
        <ele>707.3</ele>
        <time>2026-07-08T12:54:09.000Z</time>
      </trkpt>
      <trkpt lat="45.78958" lon="1.88291">
        <ele>707.3</ele>
        <time>2026-07-08T12:54:10.000Z</time>
      </trkpt>
      <trkpt lat="45.78958" lon="1.88291">
        <ele>707.3</ele>
        <time>2026-07-08T12:54:11.000Z</time>
      </trkpt>
      <trkpt lat="45.78958" lon="1.88291">
        <ele>707.3</ele>
        <time>2026-07-08T12:54:12.000Z</time>
      </trkpt>
      <trkpt lat="45.78958" lon="1.88291">
        <ele>707.3</ele>
        <time>2026-07-08T12:54:13.000Z</time>
      </trkpt>
      <trkpt lat="45.78958" lon="1.88291">
        <ele>707.3</ele>
        <time>2026-07-08T12:54:14.000Z</time>
      </trkpt>
      <trkpt lat="45.78958" lon="1.88291">
        <ele>707.3</ele>
        <time>2026-07-08T12:54:15.000Z</time>
      </trkpt>
      <trkpt lat="45.78958" lon="1.88291">
        <ele>707.3</ele>
        <time>2026-07-08T12:54:16.000Z</time>
      </trkpt>
      <trkpt lat="45.78958" lon="1.88291">
        <ele>707.3</ele>
        <time>2026-07-08T12:54:17.000Z</time>
      </trkpt>
      <trkpt lat="45.78958" lon="1.88291">
        <ele>707.3</ele>
        <time>2026-07-08T12:54:18.000Z</time>
      </trkpt>
      <trkpt lat="45.78958" lon="1.88291">
        <ele>707.3</ele>
        <time>2026-07-08T12:54:19.000Z</time>
      </trkpt>
      <trkpt lat="45.78958" lon="1.88291">
        <ele>707.3</ele>
        <time>2026-07-08T12:54:20.000Z</time>
      </trkpt>
      <trkpt lat="45.78958" lon="1.88291">
        <ele>707.3</ele>
        <time>2026-07-08T12:54:21.000Z</time>
      </trkpt>
      <trkpt lat="45.78958" lon="1.88291">
        <ele>707.3</ele>
        <time>2026-07-08T12:54:22.000Z</time>
      </trkpt>
      <trkpt lat="45.78958" lon="1.88291">
        <ele>707.3</ele>
        <time>2026-07-08T12:54:23.000Z</time>
      </trkpt>
      <trkpt lat="45.78958" lon="1.88291">
        <ele>707.3</ele>
        <time>2026-07-08T12:54:24.000Z</time>
      </trkpt>
      <trkpt lat="45.78958" lon="1.88291">
        <ele>707.3</ele>
        <time>2026-07-08T12:54:25.000Z</time>
      </trkpt>
      <trkpt lat="45.78958" lon="1.88291">
        <ele>707.3</ele>
        <time>2026-07-08T12:54:26.000Z</time>
      </trkpt>
      <trkpt lat="45.78958" lon="1.88291">
        <ele>707.3</ele>
        <time>2026-07-08T12:54:27.000Z</time>
      </trkpt>
      <trkpt lat="45.78958" lon="1.88291">
        <ele>707.3</ele>
        <time>2026-07-08T12:54:28.000Z</time>
      </trkpt>
      <trkpt lat="45.78958" lon="1.88291">
        <ele>707.3</ele>
        <time>2026-07-08T12:54:29.000Z</time>
      </trkpt>
      <trkpt lat="45.78958" lon="1.88291">
        <ele>707.3</ele>
        <time>2026-07-08T12:54:30.000Z</time>
      </trkpt>
      <trkpt lat="45.78958" lon="1.88291">
        <ele>707.3</ele>
        <time>2026-07-08T12:54:31.000Z</time>
      </trkpt>
      <trkpt lat="45.78958" lon="1.88291">
        <ele>707.3</ele>
        <time>2026-07-08T12:54:32.000Z</time>
      </trkpt>
      <trkpt lat="45.78958" lon="1.88291">
        <ele>707.3</ele>
        <time>2026-07-08T12:54:33.000Z</time>
      </trkpt>
      <trkpt lat="45.78958" lon="1.88291">
        <ele>707.3</ele>
        <time>2026-07-08T12:54:34.000Z</time>
      </trkpt>
      <trkpt lat="45.78958" lon="1.88291">
        <ele>707.3</ele>
        <time>2026-07-08T12:54:35.000Z</time>
      </trkpt>
      <trkpt lat="45.78958" lon="1.88291">
        <ele>707.3</ele>
        <time>2026-07-08T12:54:36.000Z</time>
      </trkpt>
      <trkpt lat="45.78958" lon="1.88291">
        <ele>707.3</ele>
        <time>2026-07-08T12:54:37.000Z</time>
      </trkpt>
      <trkpt lat="45.78958" lon="1.88291">
        <ele>707.3</ele>
        <time>2026-07-08T12:54:38.000Z</time>
      </trkpt>
      <trkpt lat="45.78958" lon="1.88291">
        <ele>707.3</ele>
        <time>2026-07-08T12:54:39.000Z</time>
      </trkpt>
      <trkpt lat="45.78958" lon="1.88291">
        <ele>707.3</ele>
        <time>2026-07-08T12:54:40.000Z</time>
      </trkpt>
      <trkpt lat="45.78958" lon="1.88291">
        <ele>707.3</ele>
        <time>2026-07-08T12:54:41.000Z</time>
      </trkpt>
      <trkpt lat="45.78958" lon="1.88291">
        <ele>707.3</ele>
        <time>2026-07-08T12:54:42.000Z</time>
      </trkpt>
      <trkpt lat="45.78958" lon="1.88291">
        <ele>707.3</ele>
        <time>2026-07-08T12:54:43.000Z</time>
      </trkpt>
      <trkpt lat="45.78958" lon="1.88291">
        <ele>707.3</ele>
        <time>2026-07-08T12:54:44.000Z</time>
      </trkpt>
      <trkpt lat="45.78958" lon="1.88291">
        <ele>707.3</ele>
        <time>2026-07-08T12:54:45.000Z</time>
      </trkpt>
      <trkpt lat="45.78958" lon="1.88291">
        <ele>707.3</ele>
        <time>2026-07-08T12:54:46.000Z</time>
      </trkpt>
      <trkpt lat="45.78958" lon="1.88291">
        <ele>707.3</ele>
        <time>2026-07-08T12:54:47.000Z</time>
      </trkpt>
      <trkpt lat="45.78958" lon="1.88291">
        <ele>707.3</ele>
        <time>2026-07-08T12:54:48.000Z</time>
      </trkpt>
      <trkpt lat="45.78958" lon="1.88291">
        <ele>707.3</ele>
        <time>2026-07-08T12:54:49.000Z</time>
      </trkpt>
      <trkpt lat="45.78958" lon="1.88291">
        <ele>707.3</ele>
        <time>2026-07-08T12:54:50.000Z</time>
      </trkpt>
      <trkpt lat="45.78958" lon="1.88291">
        <ele>707.3</ele>
        <time>2026-07-08T12:54:51.000Z</time>
      </trkpt>
      <trkpt lat="45.78958" lon="1.88291">
        <ele>707.3</ele>
        <time>2026-07-08T12:54:52.000Z</time>
      </trkpt>
      <trkpt lat="45.78958" lon="1.88291">
        <ele>707.3</ele>
        <time>2026-07-08T12:54:53.000Z</time>
      </trkpt>
      <trkpt lat="45.78958" lon="1.88291">
        <ele>707.3</ele>
        <time>2026-07-08T12:54:54.000Z</time>
      </trkpt>
      <trkpt lat="45.78958" lon="1.88291">
        <ele>707.3</ele>
        <time>2026-07-08T12:54:55.000Z</time>
      </trkpt>
      <trkpt lat="45.78958" lon="1.88291">
        <ele>707.3</ele>
        <time>2026-07-08T12:54:56.000Z</time>
      </trkpt>
      <trkpt lat="45.78958" lon="1.88291">
        <ele>707.3</ele>
        <time>2026-07-08T12:54:57.000Z</time>
      </trkpt>
      <trkpt lat="45.78958" lon="1.88291">
        <ele>707.3</ele>
        <time>2026-07-08T12:54:58.000Z</time>
      </trkpt>
      <trkpt lat="45.78958" lon="1.88291">
        <ele>707.3</ele>
        <time>2026-07-08T12:54:59.000Z</time>
      </trkpt>
      <trkpt lat="45.78958" lon="1.88291">
        <ele>707.3</ele>
        <time>2026-07-08T12:55:00.000Z</time>
      </trkpt>
      <trkpt lat="45.78958" lon="1.88291">
        <ele>707.3</ele>
        <time>2026-07-08T12:55:01.000Z</time>
      </trkpt>
      <trkpt lat="45.78958" lon="1.88291">
        <ele>707.3</ele>
        <time>2026-07-08T12:55:02.000Z</time>
      </trkpt>
      <trkpt lat="45.78958" lon="1.88291">
        <ele>707.3</ele>
        <time>2026-07-08T12:55:03.000Z</time>
      </trkpt>
      <trkpt lat="45.78958" lon="1.88291">
        <ele>707.3</ele>
        <time>2026-07-08T12:55:04.000Z</time>
      </trkpt>
      <trkpt lat="45.78958" lon="1.88291">
        <ele>707.3</ele>
        <time>2026-07-08T12:55:05.000Z</time>
      </trkpt>
      <trkpt lat="45.78958" lon="1.88291">
        <ele>707.3</ele>
        <time>2026-07-08T12:55:06.000Z</time>
      </trkpt>
      <trkpt lat="45.78958" lon="1.88291">
        <ele>707.3</ele>
        <time>2026-07-08T12:55:07.000Z</time>
      </trkpt>
      <trkpt lat="45.78958" lon="1.88291">
        <ele>707.3</ele>
        <time>2026-07-08T12:55:08.000Z</time>
      </trkpt>
      <trkpt lat="45.78958" lon="1.88291">
        <ele>707.3</ele>
        <time>2026-07-08T12:55:09.000Z</time>
      </trkpt>
      <trkpt lat="45.78958" lon="1.88291">
        <ele>707.3</ele>
        <time>2026-07-08T12:55:10.000Z</time>
      </trkpt>
      <trkpt lat="45.78958" lon="1.88291">
        <ele>707.3</ele>
        <time>2026-07-08T12:55:11.000Z</time>
      </trkpt>
      <trkpt lat="45.78958" lon="1.88291">
        <ele>707.3</ele>
        <time>2026-07-08T12:55:12.000Z</time>
      </trkpt>
      <trkpt lat="45.78958" lon="1.88291">
        <ele>707.3</ele>
        <time>2026-07-08T12:55:13.000Z</time>
      </trkpt>
      <trkpt lat="45.78958" lon="1.88291">
        <ele>707.3</ele>
        <time>2026-07-08T12:55:14.000Z</time>
      </trkpt>
      <trkpt lat="45.78958" lon="1.88291">
        <ele>707.3</ele>
        <time>2026-07-08T12:55:15.000Z</time>
      </trkpt>
      <trkpt lat="45.78958" lon="1.88291">
        <ele>707.3</ele>
        <time>2026-07-08T12:55:16.000Z</time>
      </trkpt>
      <trkpt lat="45.78958" lon="1.88291">
        <ele>707.3</ele>
        <time>2026-07-08T12:55:17.000Z</time>
      </trkpt>
      <trkpt lat="45.78958" lon="1.88291">
        <ele>707.3</ele>
        <time>2026-07-08T12:55:18.000Z</time>
      </trkpt>
      <trkpt lat="45.78958" lon="1.88291">
        <ele>707.3</ele>
        <time>2026-07-08T12:55:19.000Z</time>
      </trkpt>
      <trkpt lat="45.78958" lon="1.88291">
        <ele>707.3</ele>
        <time>2026-07-08T12:55:20.000Z</time>
      </trkpt>
      <trkpt lat="45.78958" lon="1.88291">
        <ele>707.3</ele>
        <time>2026-07-08T12:55:21.000Z</time>
      </trkpt>
      <trkpt lat="45.78958" lon="1.88291">
        <ele>707.3</ele>
        <time>2026-07-08T12:55:22.000Z</time>
      </trkpt>
      <trkpt lat="45.78958" lon="1.88291">
        <ele>707.3</ele>
        <time>2026-07-08T12:55:23.000Z</time>
      </trkpt>
      <trkpt lat="45.78958" lon="1.88291">
        <ele>707.3</ele>
        <time>2026-07-08T12:55:24.000Z</time>
      </trkpt>
      <trkpt lat="45.78958" lon="1.88291">
        <ele>707.3</ele>
        <time>2026-07-08T12:55:25.000Z</time>
      </trkpt>
      <trkpt lat="45.78958" lon="1.88291">
        <ele>707.3</ele>
        <time>2026-07-08T12:55:26.000Z</time>
      </trkpt>
      <trkpt lat="45.78958" lon="1.88291">
        <ele>707.4</ele>
        <time>2026-07-08T12:55:27.000Z</time>
      </trkpt>
      <trkpt lat="45.78958" lon="1.88291">
        <ele>707.4</ele>
        <time>2026-07-08T12:55:28.000Z</time>
      </trkpt>
      <trkpt lat="45.78958" lon="1.88291">
        <ele>707.4</ele>
        <time>2026-07-08T12:55:29.000Z</time>
      </trkpt>
      <trkpt lat="45.78958" lon="1.88291">
        <ele>707.4</ele>
        <time>2026-07-08T12:55:30.000Z</time>
      </trkpt>
      <trkpt lat="45.78958" lon="1.88291">
        <ele>707</ele>
        <time>2026-07-08T12:55:31.000Z</time>
      </trkpt>
      <trkpt lat="45.78958" lon="1.88291">
        <ele>707.8</ele>
        <time>2026-07-08T12:55:32.000Z</time>
      </trkpt>
      <trkpt lat="45.78958" lon="1.88291">
        <ele>707.5</ele>
        <time>2026-07-08T12:55:33.000Z</time>
      </trkpt>
      <trkpt lat="45.78958" lon="1.8829">
        <ele>707.8</ele>
        <time>2026-07-08T12:55:34.000Z</time>
      </trkpt>
      <trkpt lat="45.78959" lon="1.8829">
        <ele>708</ele>
        <time>2026-07-08T12:55:35.000Z</time>
      </trkpt>
      <trkpt lat="45.78959" lon="1.88291">
        <ele>708.5</ele>
        <time>2026-07-08T12:55:36.000Z</time>
      </trkpt>
      <trkpt lat="45.78959" lon="1.88291">
        <ele>708</ele>
        <time>2026-07-08T12:55:37.000Z</time>
      </trkpt>
      <trkpt lat="45.78959" lon="1.88291">
        <ele>708.2</ele>
        <time>2026-07-08T12:55:38.000Z</time>
      </trkpt>
      <trkpt lat="45.78959" lon="1.88291">
        <ele>708.1</ele>
        <time>2026-07-08T12:55:39.000Z</time>
      </trkpt>
      <trkpt lat="45.78959" lon="1.88291">
        <ele>708.1</ele>
        <time>2026-07-08T12:55:40.000Z</time>
      </trkpt>
      <trkpt lat="45.78959" lon="1.88291">
        <ele>707.6</ele>
        <time>2026-07-08T12:55:41.000Z</time>
      </trkpt>
      <trkpt lat="45.78959" lon="1.88291">
        <ele>707.1</ele>
        <time>2026-07-08T12:55:42.000Z</time>
      </trkpt>
      <trkpt lat="45.78959" lon="1.88291">
        <ele>707</ele>
        <time>2026-07-08T12:55:43.000Z</time>
      </trkpt>
      <trkpt lat="45.78959" lon="1.88291">
        <ele>707</ele>
        <time>2026-07-08T12:55:44.000Z</time>
      </trkpt>
      <trkpt lat="45.78959" lon="1.88291">
        <ele>707</ele>
        <time>2026-07-08T12:55:45.000Z</time>
      </trkpt>
      <trkpt lat="45.78959" lon="1.88291">
        <ele>707.1</ele>
        <time>2026-07-08T12:55:46.000Z</time>
      </trkpt>
      <trkpt lat="45.78959" lon="1.88291">
        <ele>707.1</ele>
        <time>2026-07-08T12:55:47.000Z</time>
      </trkpt>
      <trkpt lat="45.78959" lon="1.88291">
        <ele>707.1</ele>
        <time>2026-07-08T12:55:48.000Z</time>
      </trkpt>
      <trkpt lat="45.78959" lon="1.88291">
        <ele>707.2</ele>
        <time>2026-07-08T12:55:49.000Z</time>
      </trkpt>
      <trkpt lat="45.78959" lon="1.88291">
        <ele>707.2</ele>
        <time>2026-07-08T12:55:50.000Z</time>
      </trkpt>
      <trkpt lat="45.78959" lon="1.88291">
        <ele>707.2</ele>
        <time>2026-07-08T12:55:51.000Z</time>
      </trkpt>
      <trkpt lat="45.78959" lon="1.88291">
        <ele>707.2</ele>
        <time>2026-07-08T12:55:52.000Z</time>
      </trkpt>
      <trkpt lat="45.78959" lon="1.88291">
        <ele>707.2</ele>
        <time>2026-07-08T12:55:53.000Z</time>
      </trkpt>
      <trkpt lat="45.78959" lon="1.88291">
        <ele>707.2</ele>
        <time>2026-07-08T12:55:54.000Z</time>
      </trkpt>
      <trkpt lat="45.78959" lon="1.88291">
        <ele>707.2</ele>
        <time>2026-07-08T12:55:55.000Z</time>
      </trkpt>
      <trkpt lat="45.78959" lon="1.88291">
        <ele>707.2</ele>
        <time>2026-07-08T12:55:56.000Z</time>
      </trkpt>
      <trkpt lat="45.78959" lon="1.88291">
        <ele>707.2</ele>
        <time>2026-07-08T12:55:57.000Z</time>
      </trkpt>
      <trkpt lat="45.78959" lon="1.88291">
        <ele>707.2</ele>
        <time>2026-07-08T12:55:58.000Z</time>
      </trkpt>
      <trkpt lat="45.78959" lon="1.88291">
        <ele>707.2</ele>
        <time>2026-07-08T12:55:59.000Z</time>
      </trkpt>
      <trkpt lat="45.78959" lon="1.88291">
        <ele>707.2</ele>
        <time>2026-07-08T12:56:00.000Z</time>
      </trkpt>
      <trkpt lat="45.78959" lon="1.88291">
        <ele>707.2</ele>
        <time>2026-07-08T12:56:01.000Z</time>
      </trkpt>
      <trkpt lat="45.78959" lon="1.88291">
        <ele>707.2</ele>
        <time>2026-07-08T12:56:02.000Z</time>
      </trkpt>
      <trkpt lat="45.78959" lon="1.88291">
        <ele>707.2</ele>
        <time>2026-07-08T12:56:03.000Z</time>
      </trkpt>
      <trkpt lat="45.78959" lon="1.88291">
        <ele>707.2</ele>
        <time>2026-07-08T12:56:04.000Z</time>
      </trkpt>
      <trkpt lat="45.78959" lon="1.88291">
        <ele>707.2</ele>
        <time>2026-07-08T12:56:05.000Z</time>
      </trkpt>
      <trkpt lat="45.78959" lon="1.88291">
        <ele>707.2</ele>
        <time>2026-07-08T12:56:06.000Z</time>
      </trkpt>
      <trkpt lat="45.78959" lon="1.88291">
        <ele>707.2</ele>
        <time>2026-07-08T12:56:07.000Z</time>
      </trkpt>
      <trkpt lat="45.78959" lon="1.88291">
        <ele>707.2</ele>
        <time>2026-07-08T12:56:08.000Z</time>
      </trkpt>
      <trkpt lat="45.78959" lon="1.88291">
        <ele>707.2</ele>
        <time>2026-07-08T12:56:09.000Z</time>
      </trkpt>
      <trkpt lat="45.78959" lon="1.88291">
        <ele>707.2</ele>
        <time>2026-07-08T12:56:10.000Z</time>
      </trkpt>
      <trkpt lat="45.78959" lon="1.88291">
        <ele>707.2</ele>
        <time>2026-07-08T12:56:11.000Z</time>
      </trkpt>
      <trkpt lat="45.78959" lon="1.88291">
        <ele>707.2</ele>
        <time>2026-07-08T12:56:12.000Z</time>
      </trkpt>
      <trkpt lat="45.78959" lon="1.88291">
        <ele>707.2</ele>
        <time>2026-07-08T12:56:13.000Z</time>
      </trkpt>
      <trkpt lat="45.78959" lon="1.88291">
        <ele>707.2</ele>
        <time>2026-07-08T12:56:14.000Z</time>
      </trkpt>
      <trkpt lat="45.78959" lon="1.88291">
        <ele>707.2</ele>
        <time>2026-07-08T12:56:15.000Z</time>
      </trkpt>
      <trkpt lat="45.78959" lon="1.88291">
        <ele>707.2</ele>
        <time>2026-07-08T12:56:16.000Z</time>
      </trkpt>
      <trkpt lat="45.78959" lon="1.88291">
        <ele>707.2</ele>
        <time>2026-07-08T12:56:17.000Z</time>
      </trkpt>
      <trkpt lat="45.78959" lon="1.88291">
        <ele>707.2</ele>
        <time>2026-07-08T12:56:18.000Z</time>
      </trkpt>
      <trkpt lat="45.78959" lon="1.88291">
        <ele>707.1</ele>
        <time>2026-07-08T12:56:19.000Z</time>
      </trkpt>
      <trkpt lat="45.78959" lon="1.88291">
        <ele>707.1</ele>
        <time>2026-07-08T12:56:20.000Z</time>
      </trkpt>
      <trkpt lat="45.78959" lon="1.88291">
        <ele>707.1</ele>
        <time>2026-07-08T12:56:21.000Z</time>
      </trkpt>
      <trkpt lat="45.78959" lon="1.88291">
        <ele>706.7</ele>
        <time>2026-07-08T12:56:22.000Z</time>
      </trkpt>
      <trkpt lat="45.78959" lon="1.88292">
        <ele>707</ele>
        <time>2026-07-08T12:56:23.000Z</time>
      </trkpt>
      <trkpt lat="45.7896" lon="1.88292">
        <ele>707.2</ele>
        <time>2026-07-08T12:56:24.000Z</time>
      </trkpt>
      <trkpt lat="45.78959" lon="1.88292">
        <ele>706.8</ele>
        <time>2026-07-08T12:56:25.000Z</time>
      </trkpt>
      <trkpt lat="45.78959" lon="1.88293">
        <ele>707.2</ele>
        <time>2026-07-08T12:56:26.000Z</time>
      </trkpt>
      <trkpt lat="45.78959" lon="1.88293">
        <ele>707.6</ele>
        <time>2026-07-08T12:56:27.000Z</time>
      </trkpt>
      <trkpt lat="45.78958" lon="1.88293">
        <ele>707.5</ele>
        <time>2026-07-08T12:56:28.000Z</time>
      </trkpt>
      <trkpt lat="45.78958" lon="1.88294">
        <ele>708.9</ele>
        <time>2026-07-08T12:56:29.000Z</time>
      </trkpt>
      <trkpt lat="45.78958" lon="1.88294">
        <ele>708.9</ele>
        <time>2026-07-08T12:56:30.000Z</time>
      </trkpt>
      <trkpt lat="45.78957" lon="1.88294">
        <ele>709.3</ele>
        <time>2026-07-08T12:56:31.000Z</time>
      </trkpt>
      <trkpt lat="45.78957" lon="1.88294">
        <ele>710.1</ele>
        <time>2026-07-08T12:56:32.000Z</time>
      </trkpt>
      <trkpt lat="45.78956" lon="1.88294">
        <ele>710.4</ele>
        <time>2026-07-08T12:56:33.000Z</time>
      </trkpt>
      <trkpt lat="45.78955" lon="1.88294">
        <ele>710.6</ele>
        <time>2026-07-08T12:56:34.000Z</time>
      </trkpt>
      <trkpt lat="45.78954" lon="1.88293">
        <ele>709.8</ele>
        <time>2026-07-08T12:56:35.000Z</time>
      </trkpt>
      <trkpt lat="45.78954" lon="1.88293">
        <ele>708.7</ele>
        <time>2026-07-08T12:56:36.000Z</time>
      </trkpt>
      <trkpt lat="45.78954" lon="1.88292">
        <ele>708.5</ele>
        <time>2026-07-08T12:56:37.000Z</time>
      </trkpt>
      <trkpt lat="45.78953" lon="1.88292">
        <ele>708.1</ele>
        <time>2026-07-08T12:56:38.000Z</time>
      </trkpt>
      <trkpt lat="45.78953" lon="1.88291">
        <ele>708</ele>
        <time>2026-07-08T12:56:39.000Z</time>
      </trkpt>
      <trkpt lat="45.78953" lon="1.88291">
        <ele>708.1</ele>
        <time>2026-07-08T12:56:40.000Z</time>
      </trkpt>
      <trkpt lat="45.78953" lon="1.8829">
        <ele>707.8</ele>
        <time>2026-07-08T12:56:41.000Z</time>
      </trkpt>
      <trkpt lat="45.78953" lon="1.8829">
        <ele>707.3</ele>
        <time>2026-07-08T12:56:42.000Z</time>
      </trkpt>
      <trkpt lat="45.78953" lon="1.8829">
        <ele>706.9</ele>
        <time>2026-07-08T12:56:43.000Z</time>
      </trkpt>
      <trkpt lat="45.78953" lon="1.88289">
        <ele>706.7</ele>
        <time>2026-07-08T12:56:44.000Z</time>
      </trkpt>
      <trkpt lat="45.78952" lon="1.88289">
        <ele>706.6</ele>
        <time>2026-07-08T12:56:45.000Z</time>
      </trkpt>
      <trkpt lat="45.78952" lon="1.88289">
        <ele>706.1</ele>
        <time>2026-07-08T12:56:46.000Z</time>
      </trkpt>
      <trkpt lat="45.78952" lon="1.88289">
        <ele>705.8</ele>
        <time>2026-07-08T12:56:47.000Z</time>
      </trkpt>
      <trkpt lat="45.78952" lon="1.88288">
        <ele>705.8</ele>
        <time>2026-07-08T12:56:48.000Z</time>
      </trkpt>
      <trkpt lat="45.78952" lon="1.88288">
        <ele>706</ele>
        <time>2026-07-08T12:56:49.000Z</time>
      </trkpt>
      <trkpt lat="45.78952" lon="1.88288">
        <ele>706</ele>
        <time>2026-07-08T12:56:50.000Z</time>
      </trkpt>
      <trkpt lat="45.78952" lon="1.88288">
        <ele>706.1</ele>
        <time>2026-07-08T12:56:51.000Z</time>
      </trkpt>
      <trkpt lat="45.78952" lon="1.88288">
        <ele>706</ele>
        <time>2026-07-08T12:56:52.000Z</time>
      </trkpt>
      <trkpt lat="45.78952" lon="1.88288">
        <ele>706</ele>
        <time>2026-07-08T12:56:53.000Z</time>
      </trkpt>
      <trkpt lat="45.78952" lon="1.88288">
        <ele>706</ele>
        <time>2026-07-08T12:56:54.000Z</time>
      </trkpt>
      <trkpt lat="45.78952" lon="1.88288">
        <ele>706</ele>
        <time>2026-07-08T12:56:55.000Z</time>
      </trkpt>
      <trkpt lat="45.78952" lon="1.88288">
        <ele>706</ele>
        <time>2026-07-08T12:56:56.000Z</time>
      </trkpt>
      <trkpt lat="45.78952" lon="1.88288">
        <ele>706</ele>
        <time>2026-07-08T12:56:57.000Z</time>
      </trkpt>
      <trkpt lat="45.78952" lon="1.88288">
        <ele>706</ele>
        <time>2026-07-08T12:56:58.000Z</time>
      </trkpt>
      <trkpt lat="45.78952" lon="1.88288">
        <ele>706</ele>
        <time>2026-07-08T12:56:59.000Z</time>
      </trkpt>
      <trkpt lat="45.78952" lon="1.88288">
        <ele>706</ele>
        <time>2026-07-08T12:57:00.000Z</time>
      </trkpt>
      <trkpt lat="45.78952" lon="1.88288">
        <ele>706.1</ele>
        <time>2026-07-08T12:57:01.000Z</time>
      </trkpt>
      <trkpt lat="45.78952" lon="1.88288">
        <ele>706.1</ele>
        <time>2026-07-08T12:57:02.000Z</time>
      </trkpt>
      <trkpt lat="45.78952" lon="1.88288">
        <ele>705.8</ele>
        <time>2026-07-08T12:57:03.000Z</time>
      </trkpt>
      <trkpt lat="45.78952" lon="1.88288">
        <ele>705.2</ele>
        <time>2026-07-08T12:57:04.000Z</time>
      </trkpt>
      <trkpt lat="45.78951" lon="1.88288">
        <ele>705.5</ele>
        <time>2026-07-08T12:57:05.000Z</time>
      </trkpt>
      <trkpt lat="45.78951" lon="1.88287">
        <ele>705.7</ele>
        <time>2026-07-08T12:57:06.000Z</time>
      </trkpt>
      <trkpt lat="45.78951" lon="1.88288">
        <ele>705.5</ele>
        <time>2026-07-08T12:57:07.000Z</time>
      </trkpt>
      <trkpt lat="45.78951" lon="1.88288">
        <ele>705.6</ele>
        <time>2026-07-08T12:57:08.000Z</time>
      </trkpt>
      <trkpt lat="45.78951" lon="1.88288">
        <ele>705.8</ele>
        <time>2026-07-08T12:57:09.000Z</time>
      </trkpt>
      <trkpt lat="45.78951" lon="1.88288">
        <ele>705.9</ele>
        <time>2026-07-08T12:57:10.000Z</time>
      </trkpt>
      <trkpt lat="45.78951" lon="1.88288">
        <ele>705.7</ele>
        <time>2026-07-08T12:57:11.000Z</time>
      </trkpt>
      <trkpt lat="45.78951" lon="1.88288">
        <ele>705.3</ele>
        <time>2026-07-08T12:57:12.000Z</time>
      </trkpt>
      <trkpt lat="45.78951" lon="1.88288">
        <ele>705.4</ele>
        <time>2026-07-08T12:57:13.000Z</time>
      </trkpt>
      <trkpt lat="45.78951" lon="1.88287">
        <ele>705.5</ele>
        <time>2026-07-08T12:57:14.000Z</time>
      </trkpt>
      <trkpt lat="45.78951" lon="1.88288">
        <ele>705.7</ele>
        <time>2026-07-08T12:57:15.000Z</time>
      </trkpt>
      <trkpt lat="45.78951" lon="1.88288">
        <ele>705.5</ele>
        <time>2026-07-08T12:57:16.000Z</time>
      </trkpt>
      <trkpt lat="45.78951" lon="1.88288">
        <ele>705.6</ele>
        <time>2026-07-08T12:57:17.000Z</time>
      </trkpt>
      <trkpt lat="45.78951" lon="1.88288">
        <ele>705.7</ele>
        <time>2026-07-08T12:57:18.000Z</time>
      </trkpt>
      <trkpt lat="45.78951" lon="1.88288">
        <ele>705.8</ele>
        <time>2026-07-08T12:57:19.000Z</time>
      </trkpt>
      <trkpt lat="45.78951" lon="1.88288">
        <ele>705.6</ele>
        <time>2026-07-08T12:57:20.000Z</time>
      </trkpt>
      <trkpt lat="45.78951" lon="1.88288">
        <ele>705.7</ele>
        <time>2026-07-08T12:57:21.000Z</time>
      </trkpt>
      <trkpt lat="45.78951" lon="1.88288">
        <ele>705.6</ele>
        <time>2026-07-08T12:57:22.000Z</time>
      </trkpt>
      <trkpt lat="45.78951" lon="1.88288">
        <ele>705.5</ele>
        <time>2026-07-08T12:57:23.000Z</time>
      </trkpt>
      <trkpt lat="45.78951" lon="1.88288">
        <ele>705.4</ele>
        <time>2026-07-08T12:57:24.000Z</time>
      </trkpt>
      <trkpt lat="45.78951" lon="1.88287">
        <ele>705.4</ele>
        <time>2026-07-08T12:57:25.000Z</time>
      </trkpt>
      <trkpt lat="45.78951" lon="1.88287">
        <ele>705.6</ele>
        <time>2026-07-08T12:57:26.000Z</time>
      </trkpt>
      <trkpt lat="45.78951" lon="1.88287">
        <ele>705.4</ele>
        <time>2026-07-08T12:57:27.000Z</time>
      </trkpt>
      <trkpt lat="45.78951" lon="1.88286">
        <ele>705.5</ele>
        <time>2026-07-08T12:57:28.000Z</time>
      </trkpt>
      <trkpt lat="45.78951" lon="1.88286">
        <ele>705.5</ele>
        <time>2026-07-08T12:57:29.000Z</time>
      </trkpt>
      <trkpt lat="45.78951" lon="1.88287">
        <ele>705.8</ele>
        <time>2026-07-08T12:57:30.000Z</time>
      </trkpt>
      <trkpt lat="45.78951" lon="1.88286">
        <ele>705.7</ele>
        <time>2026-07-08T12:57:31.000Z</time>
      </trkpt>
      <trkpt lat="45.78951" lon="1.88286">
        <ele>705.7</ele>
        <time>2026-07-08T12:57:32.000Z</time>
      </trkpt>
      <trkpt lat="45.78951" lon="1.88286">
        <ele>705.7</ele>
        <time>2026-07-08T12:57:33.000Z</time>
      </trkpt>
      <trkpt lat="45.78951" lon="1.88286">
        <ele>705.7</ele>
        <time>2026-07-08T12:57:34.000Z</time>
      </trkpt>
      <trkpt lat="45.78951" lon="1.88286">
        <ele>705.7</ele>
        <time>2026-07-08T12:57:35.000Z</time>
      </trkpt>
      <trkpt lat="45.78951" lon="1.88286">
        <ele>705.7</ele>
        <time>2026-07-08T12:57:36.000Z</time>
      </trkpt>
      <trkpt lat="45.78951" lon="1.88286">
        <ele>705.7</ele>
        <time>2026-07-08T12:57:37.000Z</time>
      </trkpt>
      <trkpt lat="45.78951" lon="1.88286">
        <ele>705.7</ele>
        <time>2026-07-08T12:57:38.000Z</time>
      </trkpt>
      <trkpt lat="45.78951" lon="1.88286">
        <ele>705.8</ele>
        <time>2026-07-08T12:57:39.000Z</time>
      </trkpt>
      <trkpt lat="45.78951" lon="1.88286">
        <ele>705.8</ele>
        <time>2026-07-08T12:57:40.000Z</time>
      </trkpt>
      <trkpt lat="45.78951" lon="1.88286">
        <ele>705.8</ele>
        <time>2026-07-08T12:57:41.000Z</time>
      </trkpt>
      <trkpt lat="45.78951" lon="1.88286">
        <ele>705.8</ele>
        <time>2026-07-08T12:57:42.000Z</time>
      </trkpt>
      <trkpt lat="45.78951" lon="1.88286">
        <ele>705.8</ele>
        <time>2026-07-08T12:57:43.000Z</time>
      </trkpt>
      <trkpt lat="45.78951" lon="1.88286">
        <ele>705.8</ele>
        <time>2026-07-08T12:57:44.000Z</time>
      </trkpt>
      <trkpt lat="45.78951" lon="1.88286">
        <ele>705.8</ele>
        <time>2026-07-08T12:57:45.000Z</time>
      </trkpt>
      <trkpt lat="45.78951" lon="1.88286">
        <ele>705.8</ele>
        <time>2026-07-08T12:57:46.000Z</time>
      </trkpt>
      <trkpt lat="45.78951" lon="1.88286">
        <ele>705.8</ele>
        <time>2026-07-08T12:57:47.000Z</time>
      </trkpt>
      <trkpt lat="45.78951" lon="1.88286">
        <ele>705.8</ele>
        <time>2026-07-08T12:57:48.000Z</time>
      </trkpt>
      <trkpt lat="45.78951" lon="1.88286">
        <ele>705.8</ele>
        <time>2026-07-08T12:57:49.000Z</time>
      </trkpt>
      <trkpt lat="45.78951" lon="1.88286">
        <ele>705.8</ele>
        <time>2026-07-08T12:57:50.000Z</time>
      </trkpt>
      <trkpt lat="45.78951" lon="1.88286">
        <ele>705.8</ele>
        <time>2026-07-08T12:57:51.000Z</time>
      </trkpt>
      <trkpt lat="45.78951" lon="1.88286">
        <ele>705.8</ele>
        <time>2026-07-08T12:57:52.000Z</time>
      </trkpt>
      <trkpt lat="45.78951" lon="1.88286">
        <ele>705.8</ele>
        <time>2026-07-08T12:57:53.000Z</time>
      </trkpt>
      <trkpt lat="45.78951" lon="1.88286">
        <ele>705.8</ele>
        <time>2026-07-08T12:57:54.000Z</time>
      </trkpt>
      <trkpt lat="45.78951" lon="1.88286">
        <ele>705.8</ele>
        <time>2026-07-08T12:57:55.000Z</time>
      </trkpt>
      <trkpt lat="45.78951" lon="1.88286">
        <ele>705.8</ele>
        <time>2026-07-08T12:57:56.000Z</time>
      </trkpt>
      <trkpt lat="45.78951" lon="1.88286">
        <ele>705.8</ele>
        <time>2026-07-08T12:57:57.000Z</time>
      </trkpt>
      <trkpt lat="45.78951" lon="1.88286">
        <ele>705.8</ele>
        <time>2026-07-08T12:57:58.000Z</time>
      </trkpt>
      <trkpt lat="45.78951" lon="1.88286">
        <ele>705.8</ele>
        <time>2026-07-08T12:57:59.000Z</time>
      </trkpt>
      <trkpt lat="45.78951" lon="1.88286">
        <ele>705.8</ele>
        <time>2026-07-08T12:58:00.000Z</time>
      </trkpt>
      <trkpt lat="45.78951" lon="1.88286">
        <ele>705.8</ele>
        <time>2026-07-08T12:58:01.000Z</time>
      </trkpt>
      <trkpt lat="45.78951" lon="1.88286">
        <ele>705.8</ele>
        <time>2026-07-08T12:58:02.000Z</time>
      </trkpt>
      <trkpt lat="45.78951" lon="1.88286">
        <ele>705.8</ele>
        <time>2026-07-08T12:58:03.000Z</time>
      </trkpt>
      <trkpt lat="45.78951" lon="1.88286">
        <ele>705.8</ele>
        <time>2026-07-08T12:58:04.000Z</time>
      </trkpt>
      <trkpt lat="45.78951" lon="1.88286">
        <ele>705.8</ele>
        <time>2026-07-08T12:58:05.000Z</time>
      </trkpt>
      <trkpt lat="45.78951" lon="1.88286">
        <ele>705.8</ele>
        <time>2026-07-08T12:58:06.000Z</time>
      </trkpt>
      <trkpt lat="45.78951" lon="1.88286">
        <ele>705.8</ele>
        <time>2026-07-08T12:58:07.000Z</time>
      </trkpt>
      <trkpt lat="45.78951" lon="1.88286">
        <ele>705.8</ele>
        <time>2026-07-08T12:58:08.000Z</time>
      </trkpt>
      <trkpt lat="45.78951" lon="1.88286">
        <ele>705.8</ele>
        <time>2026-07-08T12:58:09.000Z</time>
      </trkpt>
      <trkpt lat="45.78951" lon="1.88286">
        <ele>705.8</ele>
        <time>2026-07-08T12:58:10.000Z</time>
      </trkpt>
      <trkpt lat="45.78951" lon="1.88286">
        <ele>705.8</ele>
        <time>2026-07-08T12:58:11.000Z</time>
      </trkpt>
      <trkpt lat="45.78951" lon="1.88286">
        <ele>705.8</ele>
        <time>2026-07-08T12:58:12.000Z</time>
      </trkpt>
      <trkpt lat="45.7895" lon="1.88286">
        <ele>705.6</ele>
        <time>2026-07-08T12:58:13.000Z</time>
      </trkpt>
      <trkpt lat="45.7895" lon="1.88285">
        <ele>705.7</ele>
        <time>2026-07-08T12:58:14.000Z</time>
      </trkpt>
      <trkpt lat="45.7895" lon="1.88285">
        <ele>705.8</ele>
        <time>2026-07-08T12:58:15.000Z</time>
      </trkpt>
      <trkpt lat="45.7895" lon="1.88285">
        <ele>706</ele>
        <time>2026-07-08T12:58:16.000Z</time>
      </trkpt>
      <trkpt lat="45.7895" lon="1.88285">
        <ele>705.8</ele>
        <time>2026-07-08T12:58:17.000Z</time>
      </trkpt>
      <trkpt lat="45.7895" lon="1.88285">
        <ele>705.5</ele>
        <time>2026-07-08T12:58:18.000Z</time>
      </trkpt>
      <trkpt lat="45.7895" lon="1.88285">
        <ele>705.2</ele>
        <time>2026-07-08T12:58:19.000Z</time>
      </trkpt>
      <trkpt lat="45.7895" lon="1.88285">
        <ele>704.9</ele>
        <time>2026-07-08T12:58:20.000Z</time>
      </trkpt>
      <trkpt lat="45.7895" lon="1.88285">
        <ele>704.7</ele>
        <time>2026-07-08T12:58:21.000Z</time>
      </trkpt>
      <trkpt lat="45.7895" lon="1.88285">
        <ele>705.2</ele>
        <time>2026-07-08T12:58:22.000Z</time>
      </trkpt>
      <trkpt lat="45.7895" lon="1.88284">
        <ele>705.4</ele>
        <time>2026-07-08T12:58:23.000Z</time>
      </trkpt>
      <trkpt lat="45.7895" lon="1.88284">
        <ele>705.8</ele>
        <time>2026-07-08T12:58:24.000Z</time>
      </trkpt>
      <trkpt lat="45.7895" lon="1.88284">
        <ele>705.5</ele>
        <time>2026-07-08T12:58:25.000Z</time>
      </trkpt>
      <trkpt lat="45.7895" lon="1.88284">
        <ele>705.5</ele>
        <time>2026-07-08T12:58:26.000Z</time>
      </trkpt>
      <trkpt lat="45.7895" lon="1.88284">
        <ele>705.7</ele>
        <time>2026-07-08T12:58:27.000Z</time>
      </trkpt>
      <trkpt lat="45.7895" lon="1.88284">
        <ele>705.7</ele>
        <time>2026-07-08T12:58:28.000Z</time>
      </trkpt>
      <trkpt lat="45.7895" lon="1.88284">
        <ele>705.8</ele>
        <time>2026-07-08T12:58:29.000Z</time>
      </trkpt>
      <trkpt lat="45.7895" lon="1.88284">
        <ele>705.7</ele>
        <time>2026-07-08T12:58:30.000Z</time>
      </trkpt>
      <trkpt lat="45.7895" lon="1.88284">
        <ele>705.5</ele>
        <time>2026-07-08T12:58:31.000Z</time>
      </trkpt>
      <trkpt lat="45.7895" lon="1.88284">
        <ele>705.6</ele>
        <time>2026-07-08T12:58:32.000Z</time>
      </trkpt>
      <trkpt lat="45.7895" lon="1.88284">
        <ele>705.6</ele>
        <time>2026-07-08T12:58:33.000Z</time>
      </trkpt>
      <trkpt lat="45.7895" lon="1.88284">
        <ele>705.6</ele>
        <time>2026-07-08T12:58:34.000Z</time>
      </trkpt>
      <trkpt lat="45.7895" lon="1.88284">
        <ele>705.5</ele>
        <time>2026-07-08T12:58:35.000Z</time>
      </trkpt>
      <trkpt lat="45.7895" lon="1.88284">
        <ele>705.5</ele>
        <time>2026-07-08T12:58:36.000Z</time>
      </trkpt>
      <trkpt lat="45.7895" lon="1.88284">
        <ele>705.5</ele>
        <time>2026-07-08T12:58:37.000Z</time>
      </trkpt>
      <trkpt lat="45.7895" lon="1.88284">
        <ele>705.5</ele>
        <time>2026-07-08T12:58:38.000Z</time>
      </trkpt>
      <trkpt lat="45.7895" lon="1.88284">
        <ele>705.5</ele>
        <time>2026-07-08T12:58:39.000Z</time>
      </trkpt>
      <trkpt lat="45.7895" lon="1.88284">
        <ele>705.5</ele>
        <time>2026-07-08T12:58:40.000Z</time>
      </trkpt>
      <trkpt lat="45.7895" lon="1.88284">
        <ele>705.5</ele>
        <time>2026-07-08T12:58:41.000Z</time>
      </trkpt>
      <trkpt lat="45.7895" lon="1.88284">
        <ele>705.5</ele>
        <time>2026-07-08T12:58:42.000Z</time>
      </trkpt>
      <trkpt lat="45.7895" lon="1.88284">
        <ele>705.5</ele>
        <time>2026-07-08T12:58:43.000Z</time>
      </trkpt>
      <trkpt lat="45.7895" lon="1.88284">
        <ele>705.5</ele>
        <time>2026-07-08T12:58:44.000Z</time>
      </trkpt>
      <trkpt lat="45.7895" lon="1.88284">
        <ele>705.5</ele>
        <time>2026-07-08T12:58:45.000Z</time>
      </trkpt>
      <trkpt lat="45.7895" lon="1.88284">
        <ele>705.5</ele>
        <time>2026-07-08T12:58:46.000Z</time>
      </trkpt>
      <trkpt lat="45.7895" lon="1.88284">
        <ele>705.5</ele>
        <time>2026-07-08T12:58:47.000Z</time>
      </trkpt>
      <trkpt lat="45.7895" lon="1.88284">
        <ele>705.5</ele>
        <time>2026-07-08T12:58:48.000Z</time>
      </trkpt>
      <trkpt lat="45.7895" lon="1.88284">
        <ele>705.5</ele>
        <time>2026-07-08T12:58:49.000Z</time>
      </trkpt>
      <trkpt lat="45.7895" lon="1.88284">
        <ele>705.5</ele>
        <time>2026-07-08T12:58:50.000Z</time>
      </trkpt>
      <trkpt lat="45.7895" lon="1.88284">
        <ele>705.5</ele>
        <time>2026-07-08T12:58:51.000Z</time>
      </trkpt>
      <trkpt lat="45.7895" lon="1.88284">
        <ele>705.5</ele>
        <time>2026-07-08T12:58:52.000Z</time>
      </trkpt>
      <trkpt lat="45.7895" lon="1.88284">
        <ele>705.5</ele>
        <time>2026-07-08T12:58:53.000Z</time>
      </trkpt>
      <trkpt lat="45.7895" lon="1.88284">
        <ele>705.5</ele>
        <time>2026-07-08T12:58:54.000Z</time>
      </trkpt>
      <trkpt lat="45.7895" lon="1.88284">
        <ele>705.5</ele>
        <time>2026-07-08T12:58:55.000Z</time>
      </trkpt>
      <trkpt lat="45.7895" lon="1.88284">
        <ele>705.5</ele>
        <time>2026-07-08T12:58:56.000Z</time>
      </trkpt>
      <trkpt lat="45.7895" lon="1.88283">
        <ele>705.7</ele>
        <time>2026-07-08T12:58:57.000Z</time>
      </trkpt>
      <trkpt lat="45.7895" lon="1.88282">
        <ele>705.8</ele>
        <time>2026-07-08T12:58:58.000Z</time>
      </trkpt>
      <trkpt lat="45.78949" lon="1.88282">
        <ele>705.6</ele>
        <time>2026-07-08T12:58:59.000Z</time>
      </trkpt>
      <trkpt lat="45.7895" lon="1.88282">
        <ele>705.3</ele>
        <time>2026-07-08T12:59:00.000Z</time>
      </trkpt>
      <trkpt lat="45.7895" lon="1.88281">
        <ele>705.7</ele>
        <time>2026-07-08T12:59:01.000Z</time>
      </trkpt>
      <trkpt lat="45.7895" lon="1.88281">
        <ele>704.9</ele>
        <time>2026-07-08T12:59:02.000Z</time>
      </trkpt>
      <trkpt lat="45.78949" lon="1.88281">
        <ele>704.8</ele>
        <time>2026-07-08T12:59:03.000Z</time>
      </trkpt>
      <trkpt lat="45.78949" lon="1.8828">
        <ele>705.5</ele>
        <time>2026-07-08T12:59:04.000Z</time>
      </trkpt>
      <trkpt lat="45.7895" lon="1.8828">
        <ele>706.1</ele>
        <time>2026-07-08T12:59:05.000Z</time>
      </trkpt>
      <trkpt lat="45.7895" lon="1.8828">
        <ele>706.2</ele>
        <time>2026-07-08T12:59:06.000Z</time>
      </trkpt>
      <trkpt lat="45.7895" lon="1.8828">
        <ele>706.7</ele>
        <time>2026-07-08T12:59:07.000Z</time>
      </trkpt>
      <trkpt lat="45.7895" lon="1.88281">
        <ele>706.6</ele>
        <time>2026-07-08T12:59:08.000Z</time>
      </trkpt>
      <trkpt lat="45.7895" lon="1.88281">
        <ele>706.4</ele>
        <time>2026-07-08T12:59:09.000Z</time>
      </trkpt>
      <trkpt lat="45.7895" lon="1.8828">
        <ele>706.5</ele>
        <time>2026-07-08T12:59:10.000Z</time>
      </trkpt>
      <trkpt lat="45.7895" lon="1.8828">
        <ele>706.4</ele>
        <time>2026-07-08T12:59:11.000Z</time>
      </trkpt>
      <trkpt lat="45.7895" lon="1.8828">
        <ele>706.4</ele>
        <time>2026-07-08T12:59:12.000Z</time>
      </trkpt>
      <trkpt lat="45.7895" lon="1.8828">
        <ele>706.4</ele>
        <time>2026-07-08T12:59:13.000Z</time>
      </trkpt>
      <trkpt lat="45.7895" lon="1.8828">
        <ele>706.4</ele>
        <time>2026-07-08T12:59:14.000Z</time>
      </trkpt>
      <trkpt lat="45.7895" lon="1.88279">
        <ele>706.6</ele>
        <time>2026-07-08T12:59:15.000Z</time>
      </trkpt>
      <trkpt lat="45.7895" lon="1.88279">
        <ele>706.6</ele>
        <time>2026-07-08T12:59:16.000Z</time>
      </trkpt>
      <trkpt lat="45.7895" lon="1.88279">
        <ele>706.6</ele>
        <time>2026-07-08T12:59:17.000Z</time>
      </trkpt>
      <trkpt lat="45.7895" lon="1.88279">
        <ele>706.6</ele>
        <time>2026-07-08T12:59:18.000Z</time>
      </trkpt>
      <trkpt lat="45.7895" lon="1.88279">
        <ele>706.6</ele>
        <time>2026-07-08T12:59:19.000Z</time>
      </trkpt>
      <trkpt lat="45.7895" lon="1.88279">
        <ele>706.6</ele>
        <time>2026-07-08T12:59:20.000Z</time>
      </trkpt>
      <trkpt lat="45.7895" lon="1.88279">
        <ele>706.6</ele>
        <time>2026-07-08T12:59:21.000Z</time>
      </trkpt>
      <trkpt lat="45.7895" lon="1.88279">
        <ele>706.6</ele>
        <time>2026-07-08T12:59:22.000Z</time>
      </trkpt>
      <trkpt lat="45.7895" lon="1.88279">
        <ele>706.6</ele>
        <time>2026-07-08T12:59:23.000Z</time>
      </trkpt>
      <trkpt lat="45.7895" lon="1.88279">
        <ele>706.6</ele>
        <time>2026-07-08T12:59:24.000Z</time>
      </trkpt>
      <trkpt lat="45.7895" lon="1.88279">
        <ele>706.6</ele>
        <time>2026-07-08T12:59:25.000Z</time>
      </trkpt>
      <trkpt lat="45.7895" lon="1.88279">
        <ele>706.6</ele>
        <time>2026-07-08T12:59:26.000Z</time>
      </trkpt>
      <trkpt lat="45.78949" lon="1.88279">
        <ele>706.6</ele>
        <time>2026-07-08T12:59:27.000Z</time>
      </trkpt>
      <trkpt lat="45.78948" lon="1.88278">
        <ele>706.5</ele>
        <time>2026-07-08T12:59:28.000Z</time>
      </trkpt>
      <trkpt lat="45.78947" lon="1.88278">
        <ele>707</ele>
        <time>2026-07-08T12:59:29.000Z</time>
      </trkpt>
      <trkpt lat="45.78947" lon="1.88278">
        <ele>707.4</ele>
        <time>2026-07-08T12:59:30.000Z</time>
      </trkpt>
      <trkpt lat="45.78946" lon="1.88278">
        <ele>707.5</ele>
        <time>2026-07-08T12:59:31.000Z</time>
      </trkpt>
      <trkpt lat="45.78945" lon="1.88277">
        <ele>707.1</ele>
        <time>2026-07-08T12:59:32.000Z</time>
      </trkpt>
      <trkpt lat="45.78944" lon="1.88277">
        <ele>706.8</ele>
        <time>2026-07-08T12:59:33.000Z</time>
      </trkpt>
      <trkpt lat="45.78944" lon="1.88277">
        <ele>705.7</ele>
        <time>2026-07-08T12:59:34.000Z</time>
      </trkpt>
      <trkpt lat="45.78944" lon="1.88278">
        <ele>704.9</ele>
        <time>2026-07-08T12:59:35.000Z</time>
      </trkpt>
      <trkpt lat="45.78945" lon="1.88277">
        <ele>704.8</ele>
        <time>2026-07-08T12:59:36.000Z</time>
      </trkpt>
      <trkpt lat="45.78945" lon="1.88277">
        <ele>704.2</ele>
        <time>2026-07-08T12:59:37.000Z</time>
      </trkpt>
      <trkpt lat="45.78944" lon="1.88276">
        <ele>704.3</ele>
        <time>2026-07-08T12:59:38.000Z</time>
      </trkpt>
      <trkpt lat="45.78943" lon="1.88275">
        <ele>704.4</ele>
        <time>2026-07-08T12:59:39.000Z</time>
      </trkpt>
      <trkpt lat="45.78942" lon="1.88275">
        <ele>704.5</ele>
        <time>2026-07-08T12:59:40.000Z</time>
      </trkpt>
      <trkpt lat="45.78941" lon="1.88274">
        <ele>704.6</ele>
        <time>2026-07-08T12:59:41.000Z</time>
      </trkpt>
      <trkpt lat="45.7894" lon="1.88272">
        <ele>704.5</ele>
        <time>2026-07-08T12:59:42.000Z</time>
      </trkpt>
      <trkpt lat="45.78938" lon="1.88272">
        <ele>704.1</ele>
        <time>2026-07-08T12:59:43.000Z</time>
      </trkpt>
      <trkpt lat="45.78937" lon="1.88271">
        <ele>704.2</ele>
        <time>2026-07-08T12:59:44.000Z</time>
      </trkpt>
      <trkpt lat="45.78936" lon="1.8827">
        <ele>704.2</ele>
        <time>2026-07-08T12:59:45.000Z</time>
      </trkpt>
      <trkpt lat="45.78935" lon="1.88269">
        <ele>704</ele>
        <time>2026-07-08T12:59:46.000Z</time>
      </trkpt>
      <trkpt lat="45.78933" lon="1.88269">
        <ele>704.2</ele>
        <time>2026-07-08T12:59:47.000Z</time>
      </trkpt>
      <trkpt lat="45.78932" lon="1.88268">
        <ele>704.3</ele>
        <time>2026-07-08T12:59:48.000Z</time>
      </trkpt>
      <trkpt lat="45.78931" lon="1.88267">
        <ele>704.3</ele>
        <time>2026-07-08T12:59:49.000Z</time>
      </trkpt>
      <trkpt lat="45.7893" lon="1.88266">
        <ele>704.7</ele>
        <time>2026-07-08T12:59:50.000Z</time>
      </trkpt>
      <trkpt lat="45.78928" lon="1.88266">
        <ele>704.6</ele>
        <time>2026-07-08T12:59:51.000Z</time>
      </trkpt>
      <trkpt lat="45.78927" lon="1.88265">
        <ele>704.7</ele>
        <time>2026-07-08T12:59:52.000Z</time>
      </trkpt>
      <trkpt lat="45.78926" lon="1.88265">
        <ele>705.5</ele>
        <time>2026-07-08T12:59:53.000Z</time>
      </trkpt>
      <trkpt lat="45.78925" lon="1.88265">
        <ele>704.9</ele>
        <time>2026-07-08T12:59:54.000Z</time>
      </trkpt>
      <trkpt lat="45.78925" lon="1.88266">
        <ele>704.9</ele>
        <time>2026-07-08T12:59:55.000Z</time>
      </trkpt>
      <trkpt lat="45.78925" lon="1.88266">
        <ele>704.9</ele>
        <time>2026-07-08T12:59:56.000Z</time>
      </trkpt>
      <trkpt lat="45.78925" lon="1.88266">
        <ele>704.9</ele>
        <time>2026-07-08T12:59:57.000Z</time>
      </trkpt>
      <trkpt lat="45.78925" lon="1.88266">
        <ele>704.9</ele>
        <time>2026-07-08T12:59:58.000Z</time>
      </trkpt>
      <trkpt lat="45.78925" lon="1.88266">
        <ele>704.6</ele>
        <time>2026-07-08T12:59:59.000Z</time>
      </trkpt>
      <trkpt lat="45.78926" lon="1.88267">
        <ele>704.2</ele>
        <time>2026-07-08T13:00:00.000Z</time>
      </trkpt>
      <trkpt lat="45.78927" lon="1.88266">
        <ele>703.9</ele>
        <time>2026-07-08T13:00:01.000Z</time>
      </trkpt>
      <trkpt lat="45.78927" lon="1.88264">
        <ele>703.7</ele>
        <time>2026-07-08T13:00:02.000Z</time>
      </trkpt>
      <trkpt lat="45.78927" lon="1.88264">
        <ele>703.8</ele>
        <time>2026-07-08T13:00:03.000Z</time>
      </trkpt>
      <trkpt lat="45.78928" lon="1.88263">
        <ele>703.6</ele>
        <time>2026-07-08T13:00:04.000Z</time>
      </trkpt>
      <trkpt lat="45.78929" lon="1.88262">
        <ele>703.4</ele>
        <time>2026-07-08T13:00:05.000Z</time>
      </trkpt>
      <trkpt lat="45.78929" lon="1.88262">
        <ele>704</ele>
        <time>2026-07-08T13:00:06.000Z</time>
      </trkpt>
      <trkpt lat="45.7893" lon="1.88262">
        <ele>704.1</ele>
        <time>2026-07-08T13:00:07.000Z</time>
      </trkpt>
      <trkpt lat="45.78929" lon="1.88262">
        <ele>704.1</ele>
        <time>2026-07-08T13:00:08.000Z</time>
      </trkpt>
      <trkpt lat="45.78929" lon="1.88262">
        <ele>704.1</ele>
        <time>2026-07-08T13:00:09.000Z</time>
      </trkpt>
      <trkpt lat="45.78929" lon="1.88262">
        <ele>704.1</ele>
        <time>2026-07-08T13:00:10.000Z</time>
      </trkpt>
      <trkpt lat="45.78929" lon="1.88262">
        <ele>704.1</ele>
        <time>2026-07-08T13:00:11.000Z</time>
      </trkpt>
      <trkpt lat="45.78929" lon="1.88262">
        <ele>704.1</ele>
        <time>2026-07-08T13:00:12.000Z</time>
      </trkpt>
      <trkpt lat="45.78929" lon="1.88262">
        <ele>704.1</ele>
        <time>2026-07-08T13:00:13.000Z</time>
      </trkpt>
      <trkpt lat="45.78929" lon="1.88262">
        <ele>704.1</ele>
        <time>2026-07-08T13:00:14.000Z</time>
      </trkpt>
      <trkpt lat="45.78929" lon="1.88262">
        <ele>704.1</ele>
        <time>2026-07-08T13:00:15.000Z</time>
      </trkpt>
      <trkpt lat="45.78929" lon="1.88262">
        <ele>704.1</ele>
        <time>2026-07-08T13:00:16.000Z</time>
      </trkpt>
      <trkpt lat="45.78929" lon="1.88262">
        <ele>704.1</ele>
        <time>2026-07-08T13:00:17.000Z</time>
      </trkpt>
      <trkpt lat="45.78929" lon="1.88262">
        <ele>704.1</ele>
        <time>2026-07-08T13:00:18.000Z</time>
      </trkpt>
      <trkpt lat="45.78929" lon="1.88262">
        <ele>704.1</ele>
        <time>2026-07-08T13:00:19.000Z</time>
      </trkpt>
      <trkpt lat="45.78929" lon="1.88262">
        <ele>704.1</ele>
        <time>2026-07-08T13:00:20.000Z</time>
      </trkpt>
      <trkpt lat="45.78929" lon="1.88262">
        <ele>704.3</ele>
        <time>2026-07-08T13:00:21.000Z</time>
      </trkpt>
      <trkpt lat="45.78929" lon="1.88262">
        <ele>704.3</ele>
        <time>2026-07-08T13:00:22.000Z</time>
      </trkpt>
      <trkpt lat="45.78929" lon="1.88262">
        <ele>704.1</ele>
        <time>2026-07-08T13:00:23.000Z</time>
      </trkpt>
      <trkpt lat="45.78928" lon="1.88262">
        <ele>703.9</ele>
        <time>2026-07-08T13:00:24.000Z</time>
      </trkpt>
      <trkpt lat="45.78927" lon="1.88262">
        <ele>703.8</ele>
        <time>2026-07-08T13:00:25.000Z</time>
      </trkpt>
      <trkpt lat="45.78926" lon="1.8826">
        <ele>704.6</ele>
        <time>2026-07-08T13:00:26.000Z</time>
      </trkpt>
      <trkpt lat="45.78925" lon="1.8826">
        <ele>705.4</ele>
        <time>2026-07-08T13:00:27.000Z</time>
      </trkpt>
      <trkpt lat="45.78924" lon="1.8826">
        <ele>704.1</ele>
        <time>2026-07-08T13:00:28.000Z</time>
      </trkpt>
      <trkpt lat="45.78923" lon="1.88261">
        <ele>702.6</ele>
        <time>2026-07-08T13:00:29.000Z</time>
      </trkpt>
      <trkpt lat="45.78923" lon="1.88261">
        <ele>703</ele>
        <time>2026-07-08T13:00:30.000Z</time>
      </trkpt>
      <trkpt lat="45.78923" lon="1.88261">
        <ele>702.9</ele>
        <time>2026-07-08T13:00:31.000Z</time>
      </trkpt>
      <trkpt lat="45.78923" lon="1.88261">
        <ele>703</ele>
        <time>2026-07-08T13:00:32.000Z</time>
      </trkpt>
      <trkpt lat="45.78923" lon="1.88261">
        <ele>702.7</ele>
        <time>2026-07-08T13:00:33.000Z</time>
      </trkpt>
      <trkpt lat="45.78924" lon="1.88261">
        <ele>702.4</ele>
        <time>2026-07-08T13:00:34.000Z</time>
      </trkpt>
      <trkpt lat="45.78925" lon="1.88261">
        <ele>702.4</ele>
        <time>2026-07-08T13:00:35.000Z</time>
      </trkpt>
      <trkpt lat="45.78926" lon="1.88258">
        <ele>702.3</ele>
        <time>2026-07-08T13:00:36.000Z</time>
      </trkpt>
      <trkpt lat="45.78928" lon="1.88259">
        <ele>703.8</ele>
        <time>2026-07-08T13:00:37.000Z</time>
      </trkpt>
      <trkpt lat="45.78929" lon="1.88259">
        <ele>704.3</ele>
        <time>2026-07-08T13:00:38.000Z</time>
      </trkpt>
      <trkpt lat="45.78929" lon="1.88259">
        <ele>704.5</ele>
        <time>2026-07-08T13:00:39.000Z</time>
      </trkpt>
      <trkpt lat="45.78929" lon="1.88259">
        <ele>704.6</ele>
        <time>2026-07-08T13:00:40.000Z</time>
      </trkpt>
      <trkpt lat="45.78929" lon="1.88259">
        <ele>704.6</ele>
        <time>2026-07-08T13:00:41.000Z</time>
      </trkpt>
      <trkpt lat="45.78929" lon="1.88259">
        <ele>704.6</ele>
        <time>2026-07-08T13:00:42.000Z</time>
      </trkpt>
      <trkpt lat="45.78929" lon="1.88259">
        <ele>704.6</ele>
        <time>2026-07-08T13:00:43.000Z</time>
      </trkpt>
      <trkpt lat="45.78929" lon="1.88259">
        <ele>704.6</ele>
        <time>2026-07-08T13:00:44.000Z</time>
      </trkpt>
      <trkpt lat="45.78929" lon="1.88259">
        <ele>704.6</ele>
        <time>2026-07-08T13:00:45.000Z</time>
      </trkpt>
      <trkpt lat="45.78929" lon="1.88259">
        <ele>704.3</ele>
        <time>2026-07-08T13:00:46.000Z</time>
      </trkpt>
      <trkpt lat="45.78929" lon="1.88259">
        <ele>704.3</ele>
        <time>2026-07-08T13:00:47.000Z</time>
      </trkpt>
      <trkpt lat="45.78929" lon="1.88259">
        <ele>704.3</ele>
        <time>2026-07-08T13:00:48.000Z</time>
      </trkpt>
      <trkpt lat="45.78929" lon="1.88259">
        <ele>704.3</ele>
        <time>2026-07-08T13:00:49.000Z</time>
      </trkpt>
      <trkpt lat="45.78929" lon="1.88259">
        <ele>704</ele>
        <time>2026-07-08T13:00:50.000Z</time>
      </trkpt>
      <trkpt lat="45.78929" lon="1.88259">
        <ele>704</ele>
        <time>2026-07-08T13:00:51.000Z</time>
      </trkpt>
      <trkpt lat="45.78929" lon="1.88259">
        <ele>704</ele>
        <time>2026-07-08T13:00:52.000Z</time>
      </trkpt>
      <trkpt lat="45.78929" lon="1.88259">
        <ele>704</ele>
        <time>2026-07-08T13:00:53.000Z</time>
      </trkpt>
      <trkpt lat="45.78929" lon="1.88259">
        <ele>704</ele>
        <time>2026-07-08T13:00:54.000Z</time>
      </trkpt>
      <trkpt lat="45.78929" lon="1.88259">
        <ele>704</ele>
        <time>2026-07-08T13:00:55.000Z</time>
      </trkpt>
      <trkpt lat="45.78929" lon="1.88259">
        <ele>704</ele>
        <time>2026-07-08T13:00:56.000Z</time>
      </trkpt>
      <trkpt lat="45.78929" lon="1.88259">
        <ele>703.7</ele>
        <time>2026-07-08T13:00:57.000Z</time>
      </trkpt>
      <trkpt lat="45.78929" lon="1.8826">
        <ele>703.6</ele>
        <time>2026-07-08T13:00:58.000Z</time>
      </trkpt>
      <trkpt lat="45.7893" lon="1.88261">
        <ele>703.5</ele>
        <time>2026-07-08T13:00:59.000Z</time>
      </trkpt>
      <trkpt lat="45.7893" lon="1.88261">
        <ele>703.2</ele>
        <time>2026-07-08T13:01:00.000Z</time>
      </trkpt>
      <trkpt lat="45.7893" lon="1.88261">
        <ele>703.2</ele>
        <time>2026-07-08T13:01:01.000Z</time>
      </trkpt>
      <trkpt lat="45.7893" lon="1.88261">
        <ele>703.4</ele>
        <time>2026-07-08T13:01:02.000Z</time>
      </trkpt>
      <trkpt lat="45.78929" lon="1.88262">
        <ele>703.5</ele>
        <time>2026-07-08T13:01:03.000Z</time>
      </trkpt>
      <trkpt lat="45.78929" lon="1.88263">
        <ele>703.5</ele>
        <time>2026-07-08T13:01:04.000Z</time>
      </trkpt>
      <trkpt lat="45.78929" lon="1.88263">
        <ele>703.3</ele>
        <time>2026-07-08T13:01:05.000Z</time>
      </trkpt>
      <trkpt lat="45.78929" lon="1.88263">
        <ele>703.3</ele>
        <time>2026-07-08T13:01:06.000Z</time>
      </trkpt>
      <trkpt lat="45.78929" lon="1.88262">
        <ele>703.2</ele>
        <time>2026-07-08T13:01:07.000Z</time>
      </trkpt>
      <trkpt lat="45.78929" lon="1.88262">
        <ele>703.2</ele>
        <time>2026-07-08T13:01:08.000Z</time>
      </trkpt>
      <trkpt lat="45.78929" lon="1.88262">
        <ele>703.2</ele>
        <time>2026-07-08T13:01:09.000Z</time>
      </trkpt>
      <trkpt lat="45.78929" lon="1.88262">
        <ele>703.2</ele>
        <time>2026-07-08T13:01:10.000Z</time>
      </trkpt>
      <trkpt lat="45.78929" lon="1.88262">
        <ele>703.2</ele>
        <time>2026-07-08T13:01:11.000Z</time>
      </trkpt>
      <trkpt lat="45.78929" lon="1.88262">
        <ele>703.2</ele>
        <time>2026-07-08T13:01:12.000Z</time>
      </trkpt>
      <trkpt lat="45.78929" lon="1.88262">
        <ele>703.2</ele>
        <time>2026-07-08T13:01:13.000Z</time>
      </trkpt>
      <trkpt lat="45.78929" lon="1.88262">
        <ele>703.2</ele>
        <time>2026-07-08T13:01:14.000Z</time>
      </trkpt>
      <trkpt lat="45.78929" lon="1.88262">
        <ele>703.2</ele>
        <time>2026-07-08T13:01:15.000Z</time>
      </trkpt>
      <trkpt lat="45.78929" lon="1.88262">
        <ele>703.1</ele>
        <time>2026-07-08T13:01:16.000Z</time>
      </trkpt>
      <trkpt lat="45.78929" lon="1.88262">
        <ele>703.1</ele>
        <time>2026-07-08T13:01:17.000Z</time>
      </trkpt>
      <trkpt lat="45.78929" lon="1.88262">
        <ele>703.1</ele>
        <time>2026-07-08T13:01:18.000Z</time>
      </trkpt>
      <trkpt lat="45.78929" lon="1.88262">
        <ele>703.1</ele>
        <time>2026-07-08T13:01:19.000Z</time>
      </trkpt>
      <trkpt lat="45.78929" lon="1.88262">
        <ele>703.1</ele>
        <time>2026-07-08T13:01:20.000Z</time>
      </trkpt>
      <trkpt lat="45.78929" lon="1.88262">
        <ele>703.1</ele>
        <time>2026-07-08T13:01:21.000Z</time>
      </trkpt>
      <trkpt lat="45.78929" lon="1.88262">
        <ele>703.1</ele>
        <time>2026-07-08T13:01:22.000Z</time>
      </trkpt>
      <trkpt lat="45.78929" lon="1.88262">
        <ele>703.1</ele>
        <time>2026-07-08T13:01:23.000Z</time>
      </trkpt>
      <trkpt lat="45.78929" lon="1.88262">
        <ele>703.1</ele>
        <time>2026-07-08T13:01:24.000Z</time>
      </trkpt>
      <trkpt lat="45.78929" lon="1.88262">
        <ele>703.3</ele>
        <time>2026-07-08T13:01:25.000Z</time>
      </trkpt>
      <trkpt lat="45.78929" lon="1.88262">
        <ele>703.1</ele>
        <time>2026-07-08T13:01:26.000Z</time>
      </trkpt>
      <trkpt lat="45.78929" lon="1.88262">
        <ele>703.2</ele>
        <time>2026-07-08T13:01:27.000Z</time>
      </trkpt>
      <trkpt lat="45.78929" lon="1.88262">
        <ele>703.2</ele>
        <time>2026-07-08T13:01:28.000Z</time>
      </trkpt>
      <trkpt lat="45.78929" lon="1.88262">
        <ele>703.2</ele>
        <time>2026-07-08T13:01:29.000Z</time>
      </trkpt>
      <trkpt lat="45.78929" lon="1.88262">
        <ele>703.2</ele>
        <time>2026-07-08T13:01:30.000Z</time>
      </trkpt>
      <trkpt lat="45.78929" lon="1.88262">
        <ele>703.2</ele>
        <time>2026-07-08T13:01:31.000Z</time>
      </trkpt>
      <trkpt lat="45.78929" lon="1.88262">
        <ele>703.2</ele>
        <time>2026-07-08T13:01:32.000Z</time>
      </trkpt>
      <trkpt lat="45.78929" lon="1.88262">
        <ele>703.2</ele>
        <time>2026-07-08T13:01:33.000Z</time>
      </trkpt>
      <trkpt lat="45.78928" lon="1.88262">
        <ele>703.5</ele>
        <time>2026-07-08T13:01:34.000Z</time>
      </trkpt>
      <trkpt lat="45.78928" lon="1.88262">
        <ele>703.1</ele>
        <time>2026-07-08T13:01:35.000Z</time>
      </trkpt>
      <trkpt lat="45.78928" lon="1.88262">
        <ele>702.7</ele>
        <time>2026-07-08T13:01:36.000Z</time>
      </trkpt>
      <trkpt lat="45.78927" lon="1.88262">
        <ele>702.6</ele>
        <time>2026-07-08T13:01:37.000Z</time>
      </trkpt>
      <trkpt lat="45.78927" lon="1.88261">
        <ele>702.5</ele>
        <time>2026-07-08T13:01:38.000Z</time>
      </trkpt>
      <trkpt lat="45.78927" lon="1.8826">
        <ele>703.1</ele>
        <time>2026-07-08T13:01:39.000Z</time>
      </trkpt>
      <trkpt lat="45.78927" lon="1.8826">
        <ele>703.4</ele>
        <time>2026-07-08T13:01:40.000Z</time>
      </trkpt>
      <trkpt lat="45.78929" lon="1.8826">
        <ele>704</ele>
        <time>2026-07-08T13:01:41.000Z</time>
      </trkpt>
      <trkpt lat="45.7893" lon="1.8826">
        <ele>704.8</ele>
        <time>2026-07-08T13:01:42.000Z</time>
      </trkpt>
      <trkpt lat="45.7893" lon="1.8826">
        <ele>704.8</ele>
        <time>2026-07-08T13:01:43.000Z</time>
      </trkpt>
      <trkpt lat="45.7893" lon="1.8826">
        <ele>704.8</ele>
        <time>2026-07-08T13:01:44.000Z</time>
      </trkpt>
      <trkpt lat="45.7893" lon="1.8826">
        <ele>704.8</ele>
        <time>2026-07-08T13:01:45.000Z</time>
      </trkpt>
      <trkpt lat="45.7893" lon="1.8826">
        <ele>704.8</ele>
        <time>2026-07-08T13:01:46.000Z</time>
      </trkpt>
      <trkpt lat="45.7893" lon="1.8826">
        <ele>704.6</ele>
        <time>2026-07-08T13:01:47.000Z</time>
      </trkpt>
      <trkpt lat="45.7893" lon="1.8826">
        <ele>704.6</ele>
        <time>2026-07-08T13:01:48.000Z</time>
      </trkpt>
      <trkpt lat="45.7893" lon="1.8826">
        <ele>704.6</ele>
        <time>2026-07-08T13:01:49.000Z</time>
      </trkpt>
      <trkpt lat="45.7893" lon="1.8826">
        <ele>704.6</ele>
        <time>2026-07-08T13:01:50.000Z</time>
      </trkpt>
      <trkpt lat="45.7893" lon="1.8826">
        <ele>704.6</ele>
        <time>2026-07-08T13:01:51.000Z</time>
      </trkpt>
      <trkpt lat="45.7893" lon="1.8826">
        <ele>704.6</ele>
        <time>2026-07-08T13:01:52.000Z</time>
      </trkpt>
      <trkpt lat="45.7893" lon="1.8826">
        <ele>704.6</ele>
        <time>2026-07-08T13:01:53.000Z</time>
      </trkpt>
      <trkpt lat="45.7893" lon="1.8826">
        <ele>704.6</ele>
        <time>2026-07-08T13:01:54.000Z</time>
      </trkpt>
      <trkpt lat="45.7893" lon="1.8826">
        <ele>704.6</ele>
        <time>2026-07-08T13:01:55.000Z</time>
      </trkpt>
      <trkpt lat="45.7893" lon="1.8826">
        <ele>704.6</ele>
        <time>2026-07-08T13:01:56.000Z</time>
      </trkpt>
      <trkpt lat="45.78931" lon="1.88261">
        <ele>704.7</ele>
        <time>2026-07-08T13:01:57.000Z</time>
      </trkpt>
      <trkpt lat="45.78931" lon="1.88261">
        <ele>704.6</ele>
        <time>2026-07-08T13:01:58.000Z</time>
      </trkpt>
      <trkpt lat="45.78931" lon="1.88261">
        <ele>704.6</ele>
        <time>2026-07-08T13:01:59.000Z</time>
      </trkpt>
      <trkpt lat="45.78931" lon="1.88261">
        <ele>704.6</ele>
        <time>2026-07-08T13:02:00.000Z</time>
      </trkpt>
      <trkpt lat="45.78931" lon="1.88261">
        <ele>704.6</ele>
        <time>2026-07-08T13:02:01.000Z</time>
      </trkpt>
      <trkpt lat="45.78931" lon="1.88261">
        <ele>704.6</ele>
        <time>2026-07-08T13:02:02.000Z</time>
      </trkpt>
      <trkpt lat="45.78931" lon="1.88261">
        <ele>704.6</ele>
        <time>2026-07-08T13:02:03.000Z</time>
      </trkpt>
      <trkpt lat="45.78931" lon="1.88261">
        <ele>704.6</ele>
        <time>2026-07-08T13:02:04.000Z</time>
      </trkpt>
      <trkpt lat="45.7893" lon="1.88261">
        <ele>704.7</ele>
        <time>2026-07-08T13:02:05.000Z</time>
      </trkpt>
      <trkpt lat="45.7893" lon="1.88261">
        <ele>704.7</ele>
        <time>2026-07-08T13:02:06.000Z</time>
      </trkpt>
      <trkpt lat="45.7893" lon="1.88261">
        <ele>704.7</ele>
        <time>2026-07-08T13:02:07.000Z</time>
      </trkpt>
      <trkpt lat="45.7893" lon="1.88261">
        <ele>704.5</ele>
        <time>2026-07-08T13:02:08.000Z</time>
      </trkpt>
      <trkpt lat="45.7893" lon="1.88261">
        <ele>704.5</ele>
        <time>2026-07-08T13:02:09.000Z</time>
      </trkpt>
      <trkpt lat="45.78931" lon="1.88261">
        <ele>704.5</ele>
        <time>2026-07-08T13:02:10.000Z</time>
      </trkpt>
      <trkpt lat="45.78931" lon="1.88261">
        <ele>704.5</ele>
        <time>2026-07-08T13:02:11.000Z</time>
      </trkpt>
      <trkpt lat="45.78931" lon="1.88261">
        <ele>704.5</ele>
        <time>2026-07-08T13:02:12.000Z</time>
      </trkpt>
      <trkpt lat="45.78931" lon="1.88261">
        <ele>704.5</ele>
        <time>2026-07-08T13:02:13.000Z</time>
      </trkpt>
      <trkpt lat="45.78931" lon="1.88261">
        <ele>704.5</ele>
        <time>2026-07-08T13:02:14.000Z</time>
      </trkpt>
      <trkpt lat="45.78931" lon="1.88261">
        <ele>704.5</ele>
        <time>2026-07-08T13:02:15.000Z</time>
      </trkpt>
      <trkpt lat="45.78931" lon="1.88261">
        <ele>704.5</ele>
        <time>2026-07-08T13:02:16.000Z</time>
      </trkpt>
      <trkpt lat="45.78931" lon="1.88261">
        <ele>704.5</ele>
        <time>2026-07-08T13:02:17.000Z</time>
      </trkpt>
      <trkpt lat="45.78931" lon="1.88261">
        <ele>704.5</ele>
        <time>2026-07-08T13:02:18.000Z</time>
      </trkpt>
      <trkpt lat="45.78931" lon="1.88261">
        <ele>704.5</ele>
        <time>2026-07-08T13:02:19.000Z</time>
      </trkpt>
      <trkpt lat="45.78931" lon="1.88261">
        <ele>704.5</ele>
        <time>2026-07-08T13:02:20.000Z</time>
      </trkpt>
      <trkpt lat="45.78931" lon="1.88261">
        <ele>704.5</ele>
        <time>2026-07-08T13:02:21.000Z</time>
      </trkpt>
      <trkpt lat="45.78931" lon="1.88261">
        <ele>704.4</ele>
        <time>2026-07-08T13:02:22.000Z</time>
      </trkpt>
      <trkpt lat="45.78931" lon="1.88261">
        <ele>704.4</ele>
        <time>2026-07-08T13:02:23.000Z</time>
      </trkpt>
      <trkpt lat="45.78931" lon="1.88261">
        <ele>704.7</ele>
        <time>2026-07-08T13:02:24.000Z</time>
      </trkpt>
      <trkpt lat="45.7893" lon="1.88261">
        <ele>704.8</ele>
        <time>2026-07-08T13:02:25.000Z</time>
      </trkpt>
      <trkpt lat="45.7893" lon="1.8826">
        <ele>704.8</ele>
        <time>2026-07-08T13:02:26.000Z</time>
      </trkpt>
      <trkpt lat="45.7893" lon="1.8826">
        <ele>704.8</ele>
        <time>2026-07-08T13:02:27.000Z</time>
      </trkpt>
      <trkpt lat="45.7893" lon="1.8826">
        <ele>704.8</ele>
        <time>2026-07-08T13:02:28.000Z</time>
      </trkpt>
      <trkpt lat="45.7893" lon="1.8826">
        <ele>704.8</ele>
        <time>2026-07-08T13:02:29.000Z</time>
      </trkpt>
      <trkpt lat="45.7893" lon="1.8826">
        <ele>704.8</ele>
        <time>2026-07-08T13:02:30.000Z</time>
      </trkpt>
      <trkpt lat="45.7893" lon="1.8826">
        <ele>704.9</ele>
        <time>2026-07-08T13:02:31.000Z</time>
      </trkpt>
      <trkpt lat="45.7893" lon="1.8826">
        <ele>704.9</ele>
        <time>2026-07-08T13:02:32.000Z</time>
      </trkpt>
      <trkpt lat="45.7893" lon="1.8826">
        <ele>704.9</ele>
        <time>2026-07-08T13:02:33.000Z</time>
      </trkpt>
      <trkpt lat="45.7893" lon="1.8826">
        <ele>704.9</ele>
        <time>2026-07-08T13:02:34.000Z</time>
      </trkpt>
      <trkpt lat="45.7893" lon="1.8826">
        <ele>704.9</ele>
        <time>2026-07-08T13:02:35.000Z</time>
      </trkpt>
      <trkpt lat="45.7893" lon="1.8826">
        <ele>704.9</ele>
        <time>2026-07-08T13:02:36.000Z</time>
      </trkpt>
      <trkpt lat="45.7893" lon="1.8826">
        <ele>704.9</ele>
        <time>2026-07-08T13:02:37.000Z</time>
      </trkpt>
      <trkpt lat="45.7893" lon="1.8826">
        <ele>704.9</ele>
        <time>2026-07-08T13:02:38.000Z</time>
      </trkpt>
      <trkpt lat="45.7893" lon="1.8826">
        <ele>704.8</ele>
        <time>2026-07-08T13:02:39.000Z</time>
      </trkpt>
      <trkpt lat="45.7893" lon="1.8826">
        <ele>704.8</ele>
        <time>2026-07-08T13:02:40.000Z</time>
      </trkpt>
      <trkpt lat="45.7893" lon="1.8826">
        <ele>704.8</ele>
        <time>2026-07-08T13:02:41.000Z</time>
      </trkpt>
      <trkpt lat="45.7893" lon="1.8826">
        <ele>704.8</ele>
        <time>2026-07-08T13:02:42.000Z</time>
      </trkpt>
      <trkpt lat="45.7893" lon="1.8826">
        <ele>704.8</ele>
        <time>2026-07-08T13:02:43.000Z</time>
      </trkpt>
      <trkpt lat="45.7893" lon="1.8826">
        <ele>704.8</ele>
        <time>2026-07-08T13:02:44.000Z</time>
      </trkpt>
      <trkpt lat="45.7893" lon="1.8826">
        <ele>704.8</ele>
        <time>2026-07-08T13:02:45.000Z</time>
      </trkpt>
      <trkpt lat="45.7893" lon="1.8826">
        <ele>704.8</ele>
        <time>2026-07-08T13:02:46.000Z</time>
      </trkpt>
      <trkpt lat="45.7893" lon="1.8826">
        <ele>704.8</ele>
        <time>2026-07-08T13:02:47.000Z</time>
      </trkpt>
      <trkpt lat="45.7893" lon="1.8826">
        <ele>704.8</ele>
        <time>2026-07-08T13:02:48.000Z</time>
      </trkpt>
      <trkpt lat="45.7893" lon="1.8826">
        <ele>704.8</ele>
        <time>2026-07-08T13:02:49.000Z</time>
      </trkpt>
      <trkpt lat="45.7893" lon="1.8826">
        <ele>704.8</ele>
        <time>2026-07-08T13:02:50.000Z</time>
      </trkpt>
      <trkpt lat="45.7893" lon="1.8826">
        <ele>704.8</ele>
        <time>2026-07-08T13:02:51.000Z</time>
      </trkpt>
      <trkpt lat="45.7893" lon="1.8826">
        <ele>704.8</ele>
        <time>2026-07-08T13:02:52.000Z</time>
      </trkpt>
      <trkpt lat="45.7893" lon="1.8826">
        <ele>704.8</ele>
        <time>2026-07-08T13:02:53.000Z</time>
      </trkpt>
      <trkpt lat="45.7893" lon="1.8826">
        <ele>704.8</ele>
        <time>2026-07-08T13:02:54.000Z</time>
      </trkpt>
      <trkpt lat="45.7893" lon="1.8826">
        <ele>704.8</ele>
        <time>2026-07-08T13:02:55.000Z</time>
      </trkpt>
      <trkpt lat="45.7893" lon="1.8826">
        <ele>704.8</ele>
        <time>2026-07-08T13:02:56.000Z</time>
      </trkpt>
      <trkpt lat="45.7893" lon="1.8826">
        <ele>704.8</ele>
        <time>2026-07-08T13:02:57.000Z</time>
      </trkpt>
      <trkpt lat="45.7893" lon="1.8826">
        <ele>704.8</ele>
        <time>2026-07-08T13:02:58.000Z</time>
      </trkpt>
      <trkpt lat="45.7893" lon="1.8826">
        <ele>704.8</ele>
        <time>2026-07-08T13:02:59.000Z</time>
      </trkpt>
      <trkpt lat="45.7893" lon="1.8826">
        <ele>704.8</ele>
        <time>2026-07-08T13:03:00.000Z</time>
      </trkpt>
      <trkpt lat="45.7893" lon="1.8826">
        <ele>704.8</ele>
        <time>2026-07-08T13:03:01.000Z</time>
      </trkpt>
      <trkpt lat="45.7893" lon="1.8826">
        <ele>704.8</ele>
        <time>2026-07-08T13:03:02.000Z</time>
      </trkpt>
      <trkpt lat="45.7893" lon="1.8826">
        <ele>704.8</ele>
        <time>2026-07-08T13:03:03.000Z</time>
      </trkpt>
      <trkpt lat="45.7893" lon="1.8826">
        <ele>704.8</ele>
        <time>2026-07-08T13:03:04.000Z</time>
      </trkpt>
      <trkpt lat="45.7893" lon="1.8826">
        <ele>704.8</ele>
        <time>2026-07-08T13:03:05.000Z</time>
      </trkpt>
      <trkpt lat="45.7893" lon="1.8826">
        <ele>704.8</ele>
        <time>2026-07-08T13:03:06.000Z</time>
      </trkpt>
      <trkpt lat="45.7893" lon="1.8826">
        <ele>704.8</ele>
        <time>2026-07-08T13:03:07.000Z</time>
      </trkpt>
      <trkpt lat="45.7893" lon="1.8826">
        <ele>704.4</ele>
        <time>2026-07-08T13:03:08.000Z</time>
      </trkpt>
      <trkpt lat="45.78929" lon="1.8826">
        <ele>704.4</ele>
        <time>2026-07-08T13:03:09.000Z</time>
      </trkpt>
      <trkpt lat="45.78929" lon="1.8826">
        <ele>704.4</ele>
        <time>2026-07-08T13:03:10.000Z</time>
      </trkpt>
      <trkpt lat="45.78929" lon="1.8826">
        <ele>704.4</ele>
        <time>2026-07-08T13:03:11.000Z</time>
      </trkpt>
      <trkpt lat="45.78929" lon="1.8826">
        <ele>704.4</ele>
        <time>2026-07-08T13:03:12.000Z</time>
      </trkpt>
      <trkpt lat="45.78929" lon="1.8826">
        <ele>704.4</ele>
        <time>2026-07-08T13:03:13.000Z</time>
      </trkpt>
      <trkpt lat="45.78929" lon="1.8826">
        <ele>704.4</ele>
        <time>2026-07-08T13:03:14.000Z</time>
      </trkpt>
      <trkpt lat="45.78929" lon="1.8826">
        <ele>704.4</ele>
        <time>2026-07-08T13:03:15.000Z</time>
      </trkpt>
      <trkpt lat="45.78929" lon="1.8826">
        <ele>704.4</ele>
        <time>2026-07-08T13:03:16.000Z</time>
      </trkpt>
      <trkpt lat="45.78929" lon="1.8826">
        <ele>704.4</ele>
        <time>2026-07-08T13:03:17.000Z</time>
      </trkpt>
      <trkpt lat="45.78929" lon="1.8826">
        <ele>704.4</ele>
        <time>2026-07-08T13:03:18.000Z</time>
      </trkpt>
      <trkpt lat="45.78929" lon="1.8826">
        <ele>704.4</ele>
        <time>2026-07-08T13:03:19.000Z</time>
      </trkpt>
      <trkpt lat="45.78929" lon="1.8826">
        <ele>704.4</ele>
        <time>2026-07-08T13:03:20.000Z</time>
      </trkpt>
      <trkpt lat="45.78929" lon="1.8826">
        <ele>704.4</ele>
        <time>2026-07-08T13:03:21.000Z</time>
      </trkpt>
      <trkpt lat="45.78929" lon="1.8826">
        <ele>704.4</ele>
        <time>2026-07-08T13:03:22.000Z</time>
      </trkpt>
      <trkpt lat="45.78929" lon="1.8826">
        <ele>704.4</ele>
        <time>2026-07-08T13:03:23.000Z</time>
      </trkpt>
      <trkpt lat="45.78929" lon="1.8826">
        <ele>704.2</ele>
        <time>2026-07-08T13:03:24.000Z</time>
      </trkpt>
      <trkpt lat="45.78929" lon="1.8826">
        <ele>704.2</ele>
        <time>2026-07-08T13:03:25.000Z</time>
      </trkpt>
      <trkpt lat="45.78929" lon="1.8826">
        <ele>704.2</ele>
        <time>2026-07-08T13:03:26.000Z</time>
      </trkpt>
      <trkpt lat="45.78929" lon="1.8826">
        <ele>704.2</ele>
        <time>2026-07-08T13:03:27.000Z</time>
      </trkpt>
      <trkpt lat="45.78928" lon="1.88258">
        <ele>703.8</ele>
        <time>2026-07-08T13:03:28.000Z</time>
      </trkpt>
      <trkpt lat="45.78928" lon="1.88256">
        <ele>703.8</ele>
        <time>2026-07-08T13:03:29.000Z</time>
      </trkpt>
      <trkpt lat="45.78928" lon="1.88256">
        <ele>703.8</ele>
        <time>2026-07-08T13:03:30.000Z</time>
      </trkpt>
      <trkpt lat="45.78928" lon="1.88255">
        <ele>703.8</ele>
        <time>2026-07-08T13:03:31.000Z</time>
      </trkpt>
      <trkpt lat="45.78928" lon="1.88255">
        <ele>703.8</ele>
        <time>2026-07-08T13:03:32.000Z</time>
      </trkpt>
      <trkpt lat="45.78928" lon="1.88254">
        <ele>703.8</ele>
        <time>2026-07-08T13:03:33.000Z</time>
      </trkpt>
      <trkpt lat="45.78928" lon="1.88254">
        <ele>703.8</ele>
        <time>2026-07-08T13:03:34.000Z</time>
      </trkpt>
      <trkpt lat="45.78928" lon="1.88254">
        <ele>703.8</ele>
        <time>2026-07-08T13:03:35.000Z</time>
      </trkpt>
      <trkpt lat="45.78928" lon="1.88254">
        <ele>703.8</ele>
        <time>2026-07-08T13:03:36.000Z</time>
      </trkpt>
      <trkpt lat="45.78928" lon="1.88254">
        <ele>703.8</ele>
        <time>2026-07-08T13:03:37.000Z</time>
      </trkpt>
      <trkpt lat="45.78928" lon="1.88253">
        <ele>703.8</ele>
        <time>2026-07-08T13:03:38.000Z</time>
      </trkpt>
      <trkpt lat="45.78928" lon="1.88253">
        <ele>703.7</ele>
        <time>2026-07-08T13:03:39.000Z</time>
      </trkpt>
      <trkpt lat="45.78928" lon="1.88253">
        <ele>703.7</ele>
        <time>2026-07-08T13:03:40.000Z</time>
      </trkpt>
      <trkpt lat="45.78928" lon="1.88253">
        <ele>703.7</ele>
        <time>2026-07-08T13:03:41.000Z</time>
      </trkpt>
      <trkpt lat="45.78928" lon="1.88253">
        <ele>703.7</ele>
        <time>2026-07-08T13:03:42.000Z</time>
      </trkpt>
      <trkpt lat="45.78928" lon="1.88253">
        <ele>703.7</ele>
        <time>2026-07-08T13:03:43.000Z</time>
      </trkpt>
      <trkpt lat="45.78928" lon="1.88253">
        <ele>703.7</ele>
        <time>2026-07-08T13:03:44.000Z</time>
      </trkpt>
      <trkpt lat="45.78928" lon="1.88253">
        <ele>703.7</ele>
        <time>2026-07-08T13:03:45.000Z</time>
      </trkpt>
      <trkpt lat="45.78928" lon="1.88252">
        <ele>703.7</ele>
        <time>2026-07-08T13:03:46.000Z</time>
      </trkpt>
      <trkpt lat="45.78927" lon="1.88252">
        <ele>703.8</ele>
        <time>2026-07-08T13:03:47.000Z</time>
      </trkpt>
      <trkpt lat="45.78926" lon="1.88251">
        <ele>703.3</ele>
        <time>2026-07-08T13:03:48.000Z</time>
      </trkpt>
      <trkpt lat="45.78926" lon="1.8825">
        <ele>703.3</ele>
        <time>2026-07-08T13:03:49.000Z</time>
      </trkpt>
      <trkpt lat="45.78925" lon="1.8825">
        <ele>703.2</ele>
        <time>2026-07-08T13:03:50.000Z</time>
      </trkpt>
      <trkpt lat="45.78925" lon="1.8825">
        <ele>703.2</ele>
        <time>2026-07-08T13:03:51.000Z</time>
      </trkpt>
      <trkpt lat="45.78925" lon="1.8825">
        <ele>703</ele>
        <time>2026-07-08T13:03:52.000Z</time>
      </trkpt>
      <trkpt lat="45.78925" lon="1.88251">
        <ele>703</ele>
        <time>2026-07-08T13:03:53.000Z</time>
      </trkpt>
      <trkpt lat="45.78925" lon="1.88251">
        <ele>703</ele>
        <time>2026-07-08T13:03:54.000Z</time>
      </trkpt>
      <trkpt lat="45.78925" lon="1.88251">
        <ele>703</ele>
        <time>2026-07-08T13:03:55.000Z</time>
      </trkpt>
      <trkpt lat="45.78925" lon="1.88251">
        <ele>703</ele>
        <time>2026-07-08T13:03:56.000Z</time>
      </trkpt>
      <trkpt lat="45.78925" lon="1.88251">
        <ele>703</ele>
        <time>2026-07-08T13:03:57.000Z</time>
      </trkpt>
      <trkpt lat="45.78925" lon="1.88251">
        <ele>703</ele>
        <time>2026-07-08T13:03:58.000Z</time>
      </trkpt>
      <trkpt lat="45.78925" lon="1.88251">
        <ele>703</ele>
        <time>2026-07-08T13:03:59.000Z</time>
      </trkpt>
      <trkpt lat="45.78925" lon="1.88251">
        <ele>703</ele>
        <time>2026-07-08T13:04:00.000Z</time>
      </trkpt>
      <trkpt lat="45.78925" lon="1.88251">
        <ele>703</ele>
        <time>2026-07-08T13:04:01.000Z</time>
      </trkpt>
      <trkpt lat="45.78925" lon="1.88251">
        <ele>703</ele>
        <time>2026-07-08T13:04:02.000Z</time>
      </trkpt>
      <trkpt lat="45.78925" lon="1.88251">
        <ele>703</ele>
        <time>2026-07-08T13:04:03.000Z</time>
      </trkpt>
      <trkpt lat="45.78925" lon="1.88251">
        <ele>703</ele>
        <time>2026-07-08T13:04:04.000Z</time>
      </trkpt>
      <trkpt lat="45.78925" lon="1.88251">
        <ele>703</ele>
        <time>2026-07-08T13:04:05.000Z</time>
      </trkpt>
      <trkpt lat="45.78924" lon="1.88251">
        <ele>703.1</ele>
        <time>2026-07-08T13:04:06.000Z</time>
      </trkpt>
      <trkpt lat="45.78925" lon="1.88252">
        <ele>703.3</ele>
        <time>2026-07-08T13:04:07.000Z</time>
      </trkpt>
      <trkpt lat="45.78925" lon="1.88253">
        <ele>703.4</ele>
        <time>2026-07-08T13:04:08.000Z</time>
      </trkpt>
      <trkpt lat="45.78926" lon="1.88254">
        <ele>703.7</ele>
        <time>2026-07-08T13:04:09.000Z</time>
      </trkpt>
      <trkpt lat="45.78926" lon="1.88255">
        <ele>703.7</ele>
        <time>2026-07-08T13:04:10.000Z</time>
      </trkpt>
      <trkpt lat="45.78927" lon="1.88256">
        <ele>704.2</ele>
        <time>2026-07-08T13:04:11.000Z</time>
      </trkpt>
      <trkpt lat="45.78927" lon="1.88256">
        <ele>704.2</ele>
        <time>2026-07-08T13:04:12.000Z</time>
      </trkpt>
      <trkpt lat="45.78927" lon="1.88257">
        <ele>704.2</ele>
        <time>2026-07-08T13:04:13.000Z</time>
      </trkpt>
      <trkpt lat="45.78927" lon="1.88257">
        <ele>704.2</ele>
        <time>2026-07-08T13:04:14.000Z</time>
      </trkpt>
      <trkpt lat="45.78927" lon="1.88257">
        <ele>704.2</ele>
        <time>2026-07-08T13:04:15.000Z</time>
      </trkpt>
      <trkpt lat="45.78927" lon="1.88257">
        <ele>704.2</ele>
        <time>2026-07-08T13:04:16.000Z</time>
      </trkpt>
      <trkpt lat="45.78927" lon="1.88257">
        <ele>704.2</ele>
        <time>2026-07-08T13:04:17.000Z</time>
      </trkpt>
      <trkpt lat="45.78927" lon="1.88257">
        <ele>704.2</ele>
        <time>2026-07-08T13:04:18.000Z</time>
      </trkpt>
      <trkpt lat="45.78927" lon="1.88257">
        <ele>704.2</ele>
        <time>2026-07-08T13:04:19.000Z</time>
      </trkpt>
      <trkpt lat="45.78927" lon="1.88257">
        <ele>704.1</ele>
        <time>2026-07-08T13:04:20.000Z</time>
      </trkpt>
      <trkpt lat="45.78927" lon="1.88257">
        <ele>704.1</ele>
        <time>2026-07-08T13:04:21.000Z</time>
      </trkpt>
      <trkpt lat="45.78927" lon="1.88257">
        <ele>704.1</ele>
        <time>2026-07-08T13:04:22.000Z</time>
      </trkpt>
      <trkpt lat="45.78926" lon="1.88256">
        <ele>704</ele>
        <time>2026-07-08T13:04:23.000Z</time>
      </trkpt>
      <trkpt lat="45.78926" lon="1.88255">
        <ele>703.9</ele>
        <time>2026-07-08T13:04:24.000Z</time>
      </trkpt>
      <trkpt lat="45.78925" lon="1.88254">
        <ele>703.4</ele>
        <time>2026-07-08T13:04:25.000Z</time>
      </trkpt>
      <trkpt lat="45.78925" lon="1.88254">
        <ele>703.3</ele>
        <time>2026-07-08T13:04:26.000Z</time>
      </trkpt>
      <trkpt lat="45.78925" lon="1.88254">
        <ele>703.3</ele>
        <time>2026-07-08T13:04:27.000Z</time>
      </trkpt>
      <trkpt lat="45.78925" lon="1.88254">
        <ele>703.3</ele>
        <time>2026-07-08T13:04:28.000Z</time>
      </trkpt>
      <trkpt lat="45.78925" lon="1.88254">
        <ele>703.3</ele>
        <time>2026-07-08T13:04:29.000Z</time>
      </trkpt>
      <trkpt lat="45.78925" lon="1.88254">
        <ele>703.3</ele>
        <time>2026-07-08T13:04:30.000Z</time>
      </trkpt>
      <trkpt lat="45.78925" lon="1.88254">
        <ele>703.3</ele>
        <time>2026-07-08T13:04:31.000Z</time>
      </trkpt>
      <trkpt lat="45.78925" lon="1.88254">
        <ele>703.3</ele>
        <time>2026-07-08T13:04:32.000Z</time>
      </trkpt>
      <trkpt lat="45.78925" lon="1.88254">
        <ele>703.3</ele>
        <time>2026-07-08T13:04:33.000Z</time>
      </trkpt>
      <trkpt lat="45.78925" lon="1.88254">
        <ele>703.3</ele>
        <time>2026-07-08T13:04:34.000Z</time>
      </trkpt>
      <trkpt lat="45.78925" lon="1.88254">
        <ele>703.5</ele>
        <time>2026-07-08T13:04:35.000Z</time>
      </trkpt>
      <trkpt lat="45.78925" lon="1.88254">
        <ele>703.7</ele>
        <time>2026-07-08T13:04:36.000Z</time>
      </trkpt>
      <trkpt lat="45.78925" lon="1.88254">
        <ele>703.7</ele>
        <time>2026-07-08T13:04:37.000Z</time>
      </trkpt>
      <trkpt lat="45.78925" lon="1.88254">
        <ele>703.7</ele>
        <time>2026-07-08T13:04:38.000Z</time>
      </trkpt>
      <trkpt lat="45.78925" lon="1.88254">
        <ele>703.7</ele>
        <time>2026-07-08T13:04:39.000Z</time>
      </trkpt>
      <trkpt lat="45.78925" lon="1.88254">
        <ele>703.7</ele>
        <time>2026-07-08T13:04:40.000Z</time>
      </trkpt>
      <trkpt lat="45.78925" lon="1.88254">
        <ele>703.7</ele>
        <time>2026-07-08T13:04:41.000Z</time>
      </trkpt>
      <trkpt lat="45.78925" lon="1.88254">
        <ele>703.7</ele>
        <time>2026-07-08T13:04:42.000Z</time>
      </trkpt>
      <trkpt lat="45.78925" lon="1.88254">
        <ele>703.7</ele>
        <time>2026-07-08T13:04:43.000Z</time>
      </trkpt>
      <trkpt lat="45.78925" lon="1.88254">
        <ele>703.7</ele>
        <time>2026-07-08T13:04:44.000Z</time>
      </trkpt>
      <trkpt lat="45.78925" lon="1.88254">
        <ele>703.7</ele>
        <time>2026-07-08T13:04:45.000Z</time>
      </trkpt>
      <trkpt lat="45.78925" lon="1.88254">
        <ele>703.7</ele>
        <time>2026-07-08T13:04:46.000Z</time>
      </trkpt>
      <trkpt lat="45.78925" lon="1.88254">
        <ele>703.7</ele>
        <time>2026-07-08T13:04:47.000Z</time>
      </trkpt>
      <trkpt lat="45.78925" lon="1.88254">
        <ele>703.6</ele>
        <time>2026-07-08T13:04:48.000Z</time>
      </trkpt>
      <trkpt lat="45.78925" lon="1.88254">
        <ele>703.6</ele>
        <time>2026-07-08T13:04:49.000Z</time>
      </trkpt>
      <trkpt lat="45.78925" lon="1.88254">
        <ele>703.6</ele>
        <time>2026-07-08T13:04:50.000Z</time>
      </trkpt>
      <trkpt lat="45.78926" lon="1.88254">
        <ele>703.4</ele>
        <time>2026-07-08T13:04:51.000Z</time>
      </trkpt>
      <trkpt lat="45.78925" lon="1.88254">
        <ele>703.4</ele>
        <time>2026-07-08T13:04:52.000Z</time>
      </trkpt>
      <trkpt lat="45.78925" lon="1.88254">
        <ele>703.4</ele>
        <time>2026-07-08T13:04:53.000Z</time>
      </trkpt>
      <trkpt lat="45.78925" lon="1.88254">
        <ele>703.4</ele>
        <time>2026-07-08T13:04:54.000Z</time>
      </trkpt>
      <trkpt lat="45.78925" lon="1.88254">
        <ele>703.4</ele>
        <time>2026-07-08T13:04:55.000Z</time>
      </trkpt>
      <trkpt lat="45.78925" lon="1.88254">
        <ele>703.4</ele>
        <time>2026-07-08T13:04:56.000Z</time>
      </trkpt>
      <trkpt lat="45.78925" lon="1.88254">
        <ele>703.4</ele>
        <time>2026-07-08T13:04:57.000Z</time>
      </trkpt>
      <trkpt lat="45.78925" lon="1.88254">
        <ele>703.4</ele>
        <time>2026-07-08T13:04:58.000Z</time>
      </trkpt>
      <trkpt lat="45.78925" lon="1.88254">
        <ele>703.4</ele>
        <time>2026-07-08T13:04:59.000Z</time>
      </trkpt>
      <trkpt lat="45.78925" lon="1.88254">
        <ele>703.4</ele>
        <time>2026-07-08T13:05:00.000Z</time>
      </trkpt>
      <trkpt lat="45.78925" lon="1.88254">
        <ele>703.4</ele>
        <time>2026-07-08T13:05:01.000Z</time>
      </trkpt>
      <trkpt lat="45.78925" lon="1.88254">
        <ele>703.4</ele>
        <time>2026-07-08T13:05:02.000Z</time>
      </trkpt>
      <trkpt lat="45.78925" lon="1.88254">
        <ele>703.4</ele>
        <time>2026-07-08T13:05:03.000Z</time>
      </trkpt>
      <trkpt lat="45.78925" lon="1.88255">
        <ele>703.2</ele>
        <time>2026-07-08T13:05:04.000Z</time>
      </trkpt>
      <trkpt lat="45.78925" lon="1.88255">
        <ele>703.2</ele>
        <time>2026-07-08T13:05:05.000Z</time>
      </trkpt>
      <trkpt lat="45.78925" lon="1.88255">
        <ele>703.2</ele>
        <time>2026-07-08T13:05:06.000Z</time>
      </trkpt>
      <trkpt lat="45.78925" lon="1.88255">
        <ele>703.2</ele>
        <time>2026-07-08T13:05:07.000Z</time>
      </trkpt>
      <trkpt lat="45.78925" lon="1.88255">
        <ele>703.2</ele>
        <time>2026-07-08T13:05:08.000Z</time>
      </trkpt>
      <trkpt lat="45.78925" lon="1.88255">
        <ele>703.2</ele>
        <time>2026-07-08T13:05:09.000Z</time>
      </trkpt>
      <trkpt lat="45.78925" lon="1.88255">
        <ele>703.2</ele>
        <time>2026-07-08T13:05:10.000Z</time>
      </trkpt>
      <trkpt lat="45.78925" lon="1.88255">
        <ele>703.2</ele>
        <time>2026-07-08T13:05:11.000Z</time>
      </trkpt>
      <trkpt lat="45.78925" lon="1.88255">
        <ele>703.2</ele>
        <time>2026-07-08T13:05:12.000Z</time>
      </trkpt>
      <trkpt lat="45.78925" lon="1.88255">
        <ele>703.2</ele>
        <time>2026-07-08T13:05:13.000Z</time>
      </trkpt>
      <trkpt lat="45.78925" lon="1.88255">
        <ele>703.2</ele>
        <time>2026-07-08T13:05:14.000Z</time>
      </trkpt>
      <trkpt lat="45.78925" lon="1.88255">
        <ele>703.2</ele>
        <time>2026-07-08T13:05:15.000Z</time>
      </trkpt>
      <trkpt lat="45.78925" lon="1.88255">
        <ele>703.2</ele>
        <time>2026-07-08T13:05:16.000Z</time>
      </trkpt>
      <trkpt lat="45.78925" lon="1.88255">
        <ele>703.2</ele>
        <time>2026-07-08T13:05:17.000Z</time>
      </trkpt>
      <trkpt lat="45.78926" lon="1.88256">
        <ele>703.2</ele>
        <time>2026-07-08T13:05:18.000Z</time>
      </trkpt>
      <trkpt lat="45.78926" lon="1.88256">
        <ele>703.2</ele>
        <time>2026-07-08T13:05:19.000Z</time>
      </trkpt>
      <trkpt lat="45.78926" lon="1.88256">
        <ele>703.2</ele>
        <time>2026-07-08T13:05:20.000Z</time>
      </trkpt>
      <trkpt lat="45.78926" lon="1.88256">
        <ele>703.2</ele>
        <time>2026-07-08T13:05:21.000Z</time>
      </trkpt>
      <trkpt lat="45.78926" lon="1.88256">
        <ele>703.2</ele>
        <time>2026-07-08T13:05:22.000Z</time>
      </trkpt>
      <trkpt lat="45.78926" lon="1.88256">
        <ele>703.2</ele>
        <time>2026-07-08T13:05:23.000Z</time>
      </trkpt>
      <trkpt lat="45.78926" lon="1.88256">
        <ele>703.2</ele>
        <time>2026-07-08T13:05:24.000Z</time>
      </trkpt>
      <trkpt lat="45.78926" lon="1.88256">
        <ele>703.1</ele>
        <time>2026-07-08T13:05:25.000Z</time>
      </trkpt>
      <trkpt lat="45.78926" lon="1.88256">
        <ele>703.1</ele>
        <time>2026-07-08T13:05:26.000Z</time>
      </trkpt>
      <trkpt lat="45.78926" lon="1.88257">
        <ele>703.3</ele>
        <time>2026-07-08T13:05:27.000Z</time>
      </trkpt>
      <trkpt lat="45.78927" lon="1.88257">
        <ele>703.5</ele>
        <time>2026-07-08T13:05:28.000Z</time>
      </trkpt>
      <trkpt lat="45.78927" lon="1.88257">
        <ele>703.4</ele>
        <time>2026-07-08T13:05:29.000Z</time>
      </trkpt>
      <trkpt lat="45.78927" lon="1.88257">
        <ele>703.4</ele>
        <time>2026-07-08T13:05:30.000Z</time>
      </trkpt>
      <trkpt lat="45.78927" lon="1.88257">
        <ele>703.4</ele>
        <time>2026-07-08T13:05:31.000Z</time>
      </trkpt>
      <trkpt lat="45.78927" lon="1.88257">
        <ele>703.4</ele>
        <time>2026-07-08T13:05:32.000Z</time>
      </trkpt>
      <trkpt lat="45.78927" lon="1.88257">
        <ele>703.4</ele>
        <time>2026-07-08T13:05:33.000Z</time>
      </trkpt>
      <trkpt lat="45.78927" lon="1.88257">
        <ele>703.4</ele>
        <time>2026-07-08T13:05:34.000Z</time>
      </trkpt>
      <trkpt lat="45.78927" lon="1.88257">
        <ele>703.5</ele>
        <time>2026-07-08T13:05:35.000Z</time>
      </trkpt>
      <trkpt lat="45.78926" lon="1.88258">
        <ele>703.4</ele>
        <time>2026-07-08T13:05:36.000Z</time>
      </trkpt>
      <trkpt lat="45.78926" lon="1.88258">
        <ele>704.3</ele>
        <time>2026-07-08T13:05:37.000Z</time>
      </trkpt>
      <trkpt lat="45.78926" lon="1.88258">
        <ele>704.3</ele>
        <time>2026-07-08T13:05:38.000Z</time>
      </trkpt>
      <trkpt lat="45.78927" lon="1.8826">
        <ele>704.7</ele>
        <time>2026-07-08T13:05:39.000Z</time>
      </trkpt>
      <trkpt lat="45.78927" lon="1.8826">
        <ele>705</ele>
        <time>2026-07-08T13:05:40.000Z</time>
      </trkpt>
      <trkpt lat="45.78927" lon="1.8826">
        <ele>705</ele>
        <time>2026-07-08T13:05:41.000Z</time>
      </trkpt>
      <trkpt lat="45.78927" lon="1.8826">
        <ele>705.3</ele>
        <time>2026-07-08T13:05:42.000Z</time>
      </trkpt>
      <trkpt lat="45.78927" lon="1.88261">
        <ele>705.2</ele>
        <time>2026-07-08T13:05:43.000Z</time>
      </trkpt>
      <trkpt lat="45.78926" lon="1.88261">
        <ele>705.6</ele>
        <time>2026-07-08T13:05:44.000Z</time>
      </trkpt>
      <trkpt lat="45.78926" lon="1.88262">
        <ele>705.8</ele>
        <time>2026-07-08T13:05:45.000Z</time>
      </trkpt>
      <trkpt lat="45.78926" lon="1.88261">
        <ele>706.2</ele>
        <time>2026-07-08T13:05:46.000Z</time>
      </trkpt>
      <trkpt lat="45.78926" lon="1.88261">
        <ele>706.5</ele>
        <time>2026-07-08T13:05:47.000Z</time>
      </trkpt>
      <trkpt lat="45.78926" lon="1.88261">
        <ele>706.5</ele>
        <time>2026-07-08T13:05:48.000Z</time>
      </trkpt>
      <trkpt lat="45.78926" lon="1.88261">
        <ele>706.5</ele>
        <time>2026-07-08T13:05:49.000Z</time>
      </trkpt>
      <trkpt lat="45.78926" lon="1.88261">
        <ele>706.5</ele>
        <time>2026-07-08T13:05:50.000Z</time>
      </trkpt>
      <trkpt lat="45.78926" lon="1.88262">
        <ele>706.8</ele>
        <time>2026-07-08T13:05:51.000Z</time>
      </trkpt>
      <trkpt lat="45.78926" lon="1.88261">
        <ele>706.3</ele>
        <time>2026-07-08T13:05:52.000Z</time>
      </trkpt>
      <trkpt lat="45.78926" lon="1.88261">
        <ele>706.3</ele>
        <time>2026-07-08T13:05:53.000Z</time>
      </trkpt>
      <trkpt lat="45.78926" lon="1.88261">
        <ele>706.3</ele>
        <time>2026-07-08T13:05:54.000Z</time>
      </trkpt>
      <trkpt lat="45.78926" lon="1.88261">
        <ele>706.3</ele>
        <time>2026-07-08T13:05:55.000Z</time>
      </trkpt>
      <trkpt lat="45.78926" lon="1.88261">
        <ele>706.3</ele>
        <time>2026-07-08T13:05:56.000Z</time>
      </trkpt>
      <trkpt lat="45.78926" lon="1.88261">
        <ele>706.3</ele>
        <time>2026-07-08T13:05:57.000Z</time>
      </trkpt>
      <trkpt lat="45.78926" lon="1.88261">
        <ele>706.3</ele>
        <time>2026-07-08T13:05:58.000Z</time>
      </trkpt>
      <trkpt lat="45.78926" lon="1.88261">
        <ele>706.3</ele>
        <time>2026-07-08T13:05:59.000Z</time>
      </trkpt>
      <trkpt lat="45.78926" lon="1.88261">
        <ele>706.3</ele>
        <time>2026-07-08T13:06:00.000Z</time>
      </trkpt>
      <trkpt lat="45.78926" lon="1.88261">
        <ele>706.3</ele>
        <time>2026-07-08T13:06:01.000Z</time>
      </trkpt>
      <trkpt lat="45.78926" lon="1.88261">
        <ele>706.3</ele>
        <time>2026-07-08T13:06:02.000Z</time>
      </trkpt>
      <trkpt lat="45.78926" lon="1.88261">
        <ele>706.3</ele>
        <time>2026-07-08T13:06:03.000Z</time>
      </trkpt>
      <trkpt lat="45.78926" lon="1.88261">
        <ele>706.3</ele>
        <time>2026-07-08T13:06:04.000Z</time>
      </trkpt>
      <trkpt lat="45.78926" lon="1.88261">
        <ele>706.3</ele>
        <time>2026-07-08T13:06:05.000Z</time>
      </trkpt>
      <trkpt lat="45.78926" lon="1.88261">
        <ele>706.3</ele>
        <time>2026-07-08T13:06:06.000Z</time>
      </trkpt>
      <trkpt lat="45.78926" lon="1.88261">
        <ele>706.3</ele>
        <time>2026-07-08T13:06:07.000Z</time>
      </trkpt>
      <trkpt lat="45.78926" lon="1.88261">
        <ele>706.3</ele>
        <time>2026-07-08T13:06:08.000Z</time>
      </trkpt>
      <trkpt lat="45.78926" lon="1.88261">
        <ele>706.3</ele>
        <time>2026-07-08T13:06:09.000Z</time>
      </trkpt>
      <trkpt lat="45.78926" lon="1.88261">
        <ele>706.3</ele>
        <time>2026-07-08T13:06:10.000Z</time>
      </trkpt>
      <trkpt lat="45.78926" lon="1.88261">
        <ele>706.3</ele>
        <time>2026-07-08T13:06:11.000Z</time>
      </trkpt>
      <trkpt lat="45.78926" lon="1.88261">
        <ele>706</ele>
        <time>2026-07-08T13:06:12.000Z</time>
      </trkpt>
      <trkpt lat="45.78925" lon="1.88262">
        <ele>705.7</ele>
        <time>2026-07-08T13:06:13.000Z</time>
      </trkpt>
      <trkpt lat="45.78925" lon="1.88263">
        <ele>706.1</ele>
        <time>2026-07-08T13:06:14.000Z</time>
      </trkpt>
      <trkpt lat="45.78925" lon="1.88264">
        <ele>706</ele>
        <time>2026-07-08T13:06:15.000Z</time>
      </trkpt>
      <trkpt lat="45.78926" lon="1.88265">
        <ele>706</ele>
        <time>2026-07-08T13:06:16.000Z</time>
      </trkpt>
      <trkpt lat="45.78926" lon="1.88265">
        <ele>705.7</ele>
        <time>2026-07-08T13:06:17.000Z</time>
      </trkpt>
      <trkpt lat="45.78926" lon="1.88265">
        <ele>705.8</ele>
        <time>2026-07-08T13:06:18.000Z</time>
      </trkpt>
      <trkpt lat="45.78926" lon="1.88265">
        <ele>705.8</ele>
        <time>2026-07-08T13:06:19.000Z</time>
      </trkpt>
      <trkpt lat="45.78927" lon="1.88264">
        <ele>705.2</ele>
        <time>2026-07-08T13:06:20.000Z</time>
      </trkpt>
      <trkpt lat="45.78928" lon="1.88263">
        <ele>705</ele>
        <time>2026-07-08T13:06:21.000Z</time>
      </trkpt>
      <trkpt lat="45.78928" lon="1.88262">
        <ele>704.8</ele>
        <time>2026-07-08T13:06:22.000Z</time>
      </trkpt>
      <trkpt lat="45.78929" lon="1.88262">
        <ele>704.5</ele>
        <time>2026-07-08T13:06:23.000Z</time>
      </trkpt>
      <trkpt lat="45.78929" lon="1.88262">
        <ele>704.4</ele>
        <time>2026-07-08T13:06:24.000Z</time>
      </trkpt>
      <trkpt lat="45.78929" lon="1.88262">
        <ele>704.4</ele>
        <time>2026-07-08T13:06:25.000Z</time>
      </trkpt>
      <trkpt lat="45.78929" lon="1.88262">
        <ele>704.4</ele>
        <time>2026-07-08T13:06:26.000Z</time>
      </trkpt>
      <trkpt lat="45.78929" lon="1.88262">
        <ele>704.4</ele>
        <time>2026-07-08T13:06:27.000Z</time>
      </trkpt>
      <trkpt lat="45.78929" lon="1.88262">
        <ele>704.4</ele>
        <time>2026-07-08T13:06:28.000Z</time>
      </trkpt>
      <trkpt lat="45.78929" lon="1.88262">
        <ele>704.4</ele>
        <time>2026-07-08T13:06:29.000Z</time>
      </trkpt>
      <trkpt lat="45.78929" lon="1.88262">
        <ele>704.4</ele>
        <time>2026-07-08T13:06:30.000Z</time>
      </trkpt>
      <trkpt lat="45.78929" lon="1.88262">
        <ele>704.4</ele>
        <time>2026-07-08T13:06:31.000Z</time>
      </trkpt>
      <trkpt lat="45.78929" lon="1.88262">
        <ele>704.1</ele>
        <time>2026-07-08T13:06:32.000Z</time>
      </trkpt>
      <trkpt lat="45.7893" lon="1.88261">
        <ele>704</ele>
        <time>2026-07-08T13:06:33.000Z</time>
      </trkpt>
      <trkpt lat="45.7893" lon="1.8826">
        <ele>704.2</ele>
        <time>2026-07-08T13:06:34.000Z</time>
      </trkpt>
      <trkpt lat="45.7893" lon="1.8826">
        <ele>704.1</ele>
        <time>2026-07-08T13:06:35.000Z</time>
      </trkpt>
      <trkpt lat="45.7893" lon="1.88261">
        <ele>704</ele>
        <time>2026-07-08T13:06:36.000Z</time>
      </trkpt>
      <trkpt lat="45.7893" lon="1.88261">
        <ele>704.2</ele>
        <time>2026-07-08T13:06:37.000Z</time>
      </trkpt>
      <trkpt lat="45.7893" lon="1.88261">
        <ele>704.2</ele>
        <time>2026-07-08T13:06:38.000Z</time>
      </trkpt>
      <trkpt lat="45.7893" lon="1.88262">
        <ele>704.5</ele>
        <time>2026-07-08T13:06:39.000Z</time>
      </trkpt>
      <trkpt lat="45.78931" lon="1.88262">
        <ele>704.5</ele>
        <time>2026-07-08T13:06:40.000Z</time>
      </trkpt>
      <trkpt lat="45.78931" lon="1.88262">
        <ele>704.5</ele>
        <time>2026-07-08T13:06:41.000Z</time>
      </trkpt>
      <trkpt lat="45.78931" lon="1.88262">
        <ele>704.5</ele>
        <time>2026-07-08T13:06:42.000Z</time>
      </trkpt>
      <trkpt lat="45.78931" lon="1.88262">
        <ele>704.5</ele>
        <time>2026-07-08T13:06:43.000Z</time>
      </trkpt>
      <trkpt lat="45.78931" lon="1.88262">
        <ele>704.5</ele>
        <time>2026-07-08T13:06:44.000Z</time>
      </trkpt>
      <trkpt lat="45.78931" lon="1.88262">
        <ele>704.5</ele>
        <time>2026-07-08T13:06:45.000Z</time>
      </trkpt>
      <trkpt lat="45.78931" lon="1.88262">
        <ele>704.5</ele>
        <time>2026-07-08T13:06:46.000Z</time>
      </trkpt>
      <trkpt lat="45.78931" lon="1.88262">
        <ele>704.5</ele>
        <time>2026-07-08T13:06:47.000Z</time>
      </trkpt>
      <trkpt lat="45.78931" lon="1.88262">
        <ele>704.5</ele>
        <time>2026-07-08T13:06:48.000Z</time>
      </trkpt>
      <trkpt lat="45.78931" lon="1.88262">
        <ele>704.5</ele>
        <time>2026-07-08T13:06:49.000Z</time>
      </trkpt>
      <trkpt lat="45.78931" lon="1.88262">
        <ele>704.5</ele>
        <time>2026-07-08T13:06:50.000Z</time>
      </trkpt>
      <trkpt lat="45.78931" lon="1.88262">
        <ele>704.5</ele>
        <time>2026-07-08T13:06:51.000Z</time>
      </trkpt>
      <trkpt lat="45.78931" lon="1.88262">
        <ele>704.5</ele>
        <time>2026-07-08T13:06:52.000Z</time>
      </trkpt>
      <trkpt lat="45.78931" lon="1.88262">
        <ele>704.5</ele>
        <time>2026-07-08T13:06:53.000Z</time>
      </trkpt>
      <trkpt lat="45.78931" lon="1.88262">
        <ele>704.5</ele>
        <time>2026-07-08T13:06:54.000Z</time>
      </trkpt>
      <trkpt lat="45.78931" lon="1.88262">
        <ele>704.5</ele>
        <time>2026-07-08T13:06:55.000Z</time>
      </trkpt>
      <trkpt lat="45.78931" lon="1.88262">
        <ele>704.5</ele>
        <time>2026-07-08T13:06:56.000Z</time>
      </trkpt>
      <trkpt lat="45.78931" lon="1.88262">
        <ele>704.5</ele>
        <time>2026-07-08T13:06:57.000Z</time>
      </trkpt>
      <trkpt lat="45.78931" lon="1.88262">
        <ele>704.5</ele>
        <time>2026-07-08T13:06:58.000Z</time>
      </trkpt>
      <trkpt lat="45.78931" lon="1.88262">
        <ele>704.5</ele>
        <time>2026-07-08T13:06:59.000Z</time>
      </trkpt>
      <trkpt lat="45.78931" lon="1.88262">
        <ele>704.5</ele>
        <time>2026-07-08T13:07:00.000Z</time>
      </trkpt>
      <trkpt lat="45.78931" lon="1.88262">
        <ele>704.5</ele>
        <time>2026-07-08T13:07:01.000Z</time>
      </trkpt>
      <trkpt lat="45.78931" lon="1.88262">
        <ele>704.5</ele>
        <time>2026-07-08T13:07:02.000Z</time>
      </trkpt>
      <trkpt lat="45.78931" lon="1.88262">
        <ele>704.5</ele>
        <time>2026-07-08T13:07:03.000Z</time>
      </trkpt>
      <trkpt lat="45.78931" lon="1.88262">
        <ele>704.5</ele>
        <time>2026-07-08T13:07:04.000Z</time>
      </trkpt>
      <trkpt lat="45.78931" lon="1.88262">
        <ele>704.5</ele>
        <time>2026-07-08T13:07:05.000Z</time>
      </trkpt>
      <trkpt lat="45.78931" lon="1.88262">
        <ele>704.5</ele>
        <time>2026-07-08T13:07:06.000Z</time>
      </trkpt>
      <trkpt lat="45.7893" lon="1.88261">
        <ele>704.2</ele>
        <time>2026-07-08T13:07:07.000Z</time>
      </trkpt>
      <trkpt lat="45.7893" lon="1.88262">
        <ele>705.2</ele>
        <time>2026-07-08T13:07:08.000Z</time>
      </trkpt>
      <trkpt lat="45.78929" lon="1.88262">
        <ele>705.1</ele>
        <time>2026-07-08T13:07:09.000Z</time>
      </trkpt>
      <trkpt lat="45.78929" lon="1.88262">
        <ele>705.1</ele>
        <time>2026-07-08T13:07:10.000Z</time>
      </trkpt>
      <trkpt lat="45.78929" lon="1.88263">
        <ele>705.2</ele>
        <time>2026-07-08T13:07:11.000Z</time>
      </trkpt>
      <trkpt lat="45.78929" lon="1.88264">
        <ele>705</ele>
        <time>2026-07-08T13:07:12.000Z</time>
      </trkpt>
      <trkpt lat="45.78929" lon="1.88264">
        <ele>706.2</ele>
        <time>2026-07-08T13:07:13.000Z</time>
      </trkpt>
      <trkpt lat="45.78928" lon="1.88264">
        <ele>706.1</ele>
        <time>2026-07-08T13:07:14.000Z</time>
      </trkpt>
      <trkpt lat="45.78928" lon="1.88265">
        <ele>706.7</ele>
        <time>2026-07-08T13:07:15.000Z</time>
      </trkpt>
      <trkpt lat="45.78928" lon="1.88265">
        <ele>706.9</ele>
        <time>2026-07-08T13:07:16.000Z</time>
      </trkpt>
      <trkpt lat="45.78928" lon="1.88265">
        <ele>706.8</ele>
        <time>2026-07-08T13:07:17.000Z</time>
      </trkpt>
      <trkpt lat="45.78928" lon="1.88265">
        <ele>706.8</ele>
        <time>2026-07-08T13:07:18.000Z</time>
      </trkpt>
      <trkpt lat="45.78928" lon="1.88265">
        <ele>706.8</ele>
        <time>2026-07-08T13:07:19.000Z</time>
      </trkpt>
      <trkpt lat="45.78928" lon="1.88265">
        <ele>706.8</ele>
        <time>2026-07-08T13:07:20.000Z</time>
      </trkpt>
      <trkpt lat="45.78928" lon="1.88265">
        <ele>706.8</ele>
        <time>2026-07-08T13:07:21.000Z</time>
      </trkpt>
      <trkpt lat="45.78928" lon="1.88264">
        <ele>706.8</ele>
        <time>2026-07-08T13:07:22.000Z</time>
      </trkpt>
      <trkpt lat="45.78928" lon="1.88264">
        <ele>706.8</ele>
        <time>2026-07-08T13:07:23.000Z</time>
      </trkpt>
      <trkpt lat="45.78928" lon="1.88264">
        <ele>706.8</ele>
        <time>2026-07-08T13:07:24.000Z</time>
      </trkpt>
      <trkpt lat="45.78928" lon="1.88264">
        <ele>706.8</ele>
        <time>2026-07-08T13:07:25.000Z</time>
      </trkpt>
      <trkpt lat="45.78928" lon="1.88264">
        <ele>706.6</ele>
        <time>2026-07-08T13:07:26.000Z</time>
      </trkpt>
      <trkpt lat="45.78928" lon="1.88264">
        <ele>706.3</ele>
        <time>2026-07-08T13:07:27.000Z</time>
      </trkpt>
      <trkpt lat="45.78928" lon="1.88264">
        <ele>706.3</ele>
        <time>2026-07-08T13:07:28.000Z</time>
      </trkpt>
      <trkpt lat="45.78928" lon="1.88264">
        <ele>706.3</ele>
        <time>2026-07-08T13:07:29.000Z</time>
      </trkpt>
      <trkpt lat="45.78928" lon="1.88264">
        <ele>706.3</ele>
        <time>2026-07-08T13:07:30.000Z</time>
      </trkpt>
      <trkpt lat="45.78928" lon="1.88264">
        <ele>706.2</ele>
        <time>2026-07-08T13:07:31.000Z</time>
      </trkpt>
      <trkpt lat="45.78928" lon="1.88265">
        <ele>706.2</ele>
        <time>2026-07-08T13:07:32.000Z</time>
      </trkpt>
      <trkpt lat="45.78928" lon="1.88265">
        <ele>706.1</ele>
        <time>2026-07-08T13:07:33.000Z</time>
      </trkpt>
      <trkpt lat="45.78928" lon="1.88265">
        <ele>706.1</ele>
        <time>2026-07-08T13:07:34.000Z</time>
      </trkpt>
      <trkpt lat="45.78929" lon="1.88265">
        <ele>706.1</ele>
        <time>2026-07-08T13:07:35.000Z</time>
      </trkpt>
      <trkpt lat="45.78929" lon="1.88265">
        <ele>706</ele>
        <time>2026-07-08T13:07:36.000Z</time>
      </trkpt>
      <trkpt lat="45.78928" lon="1.88265">
        <ele>705.9</ele>
        <time>2026-07-08T13:07:37.000Z</time>
      </trkpt>
      <trkpt lat="45.78928" lon="1.88265">
        <ele>705.8</ele>
        <time>2026-07-08T13:07:38.000Z</time>
      </trkpt>
      <trkpt lat="45.78928" lon="1.88264">
        <ele>704.9</ele>
        <time>2026-07-08T13:07:39.000Z</time>
      </trkpt>
      <trkpt lat="45.78928" lon="1.88263">
        <ele>705.2</ele>
        <time>2026-07-08T13:07:40.000Z</time>
      </trkpt>
      <trkpt lat="45.78928" lon="1.88263">
        <ele>705.2</ele>
        <time>2026-07-08T13:07:41.000Z</time>
      </trkpt>
      <trkpt lat="45.78928" lon="1.88263">
        <ele>705.2</ele>
        <time>2026-07-08T13:07:42.000Z</time>
      </trkpt>
      <trkpt lat="45.78928" lon="1.88263">
        <ele>705.2</ele>
        <time>2026-07-08T13:07:43.000Z</time>
      </trkpt>
      <trkpt lat="45.78928" lon="1.88263">
        <ele>705.2</ele>
        <time>2026-07-08T13:07:44.000Z</time>
      </trkpt>
      <trkpt lat="45.78928" lon="1.88263">
        <ele>705.2</ele>
        <time>2026-07-08T13:07:45.000Z</time>
      </trkpt>
      <trkpt lat="45.78928" lon="1.88263">
        <ele>705.2</ele>
        <time>2026-07-08T13:07:46.000Z</time>
      </trkpt>
      <trkpt lat="45.78928" lon="1.88263">
        <ele>705.2</ele>
        <time>2026-07-08T13:07:47.000Z</time>
      </trkpt>
      <trkpt lat="45.78928" lon="1.88263">
        <ele>705.2</ele>
        <time>2026-07-08T13:07:48.000Z</time>
      </trkpt>
      <trkpt lat="45.78928" lon="1.88263">
        <ele>705.2</ele>
        <time>2026-07-08T13:07:49.000Z</time>
      </trkpt>
      <trkpt lat="45.78928" lon="1.88263">
        <ele>705.2</ele>
        <time>2026-07-08T13:07:50.000Z</time>
      </trkpt>
      <trkpt lat="45.78928" lon="1.88263">
        <ele>705.2</ele>
        <time>2026-07-08T13:07:51.000Z</time>
      </trkpt>
      <trkpt lat="45.78928" lon="1.88263">
        <ele>705.2</ele>
        <time>2026-07-08T13:07:52.000Z</time>
      </trkpt>
      <trkpt lat="45.78928" lon="1.88263">
        <ele>705.2</ele>
        <time>2026-07-08T13:07:53.000Z</time>
      </trkpt>
      <trkpt lat="45.78928" lon="1.88263">
        <ele>705.2</ele>
        <time>2026-07-08T13:07:54.000Z</time>
      </trkpt>
      <trkpt lat="45.78928" lon="1.88263">
        <ele>705.2</ele>
        <time>2026-07-08T13:07:55.000Z</time>
      </trkpt>
      <trkpt lat="45.78928" lon="1.88263">
        <ele>705.3</ele>
        <time>2026-07-08T13:07:56.000Z</time>
      </trkpt>
      <trkpt lat="45.78928" lon="1.88262">
        <ele>705.1</ele>
        <time>2026-07-08T13:07:57.000Z</time>
      </trkpt>
      <trkpt lat="45.78928" lon="1.88262">
        <ele>704.9</ele>
        <time>2026-07-08T13:07:58.000Z</time>
      </trkpt>
      <trkpt lat="45.78928" lon="1.88261">
        <ele>705</ele>
        <time>2026-07-08T13:07:59.000Z</time>
      </trkpt>
      <trkpt lat="45.78927" lon="1.88262">
        <ele>705.1</ele>
        <time>2026-07-08T13:08:00.000Z</time>
      </trkpt>
      <trkpt lat="45.78927" lon="1.88263">
        <ele>705.6</ele>
        <time>2026-07-08T13:08:01.000Z</time>
      </trkpt>
      <trkpt lat="45.78927" lon="1.88264">
        <ele>705.7</ele>
        <time>2026-07-08T13:08:02.000Z</time>
      </trkpt>
      <trkpt lat="45.78928" lon="1.88264">
        <ele>705.5</ele>
        <time>2026-07-08T13:08:03.000Z</time>
      </trkpt>
      <trkpt lat="45.78928" lon="1.88263">
        <ele>705.5</ele>
        <time>2026-07-08T13:08:04.000Z</time>
      </trkpt>
      <trkpt lat="45.78928" lon="1.88263">
        <ele>705.5</ele>
        <time>2026-07-08T13:08:05.000Z</time>
      </trkpt>
      <trkpt lat="45.78928" lon="1.88263">
        <ele>705.5</ele>
        <time>2026-07-08T13:08:06.000Z</time>
      </trkpt>
      <trkpt lat="45.78928" lon="1.88263">
        <ele>705.5</ele>
        <time>2026-07-08T13:08:07.000Z</time>
      </trkpt>
      <trkpt lat="45.78928" lon="1.88263">
        <ele>705.5</ele>
        <time>2026-07-08T13:08:08.000Z</time>
      </trkpt>
      <trkpt lat="45.78928" lon="1.88263">
        <ele>705.5</ele>
        <time>2026-07-08T13:08:09.000Z</time>
      </trkpt>
      <trkpt lat="45.78928" lon="1.88263">
        <ele>705.5</ele>
        <time>2026-07-08T13:08:10.000Z</time>
      </trkpt>
      <trkpt lat="45.78928" lon="1.88263">
        <ele>705.5</ele>
        <time>2026-07-08T13:08:11.000Z</time>
      </trkpt>
      <trkpt lat="45.78928" lon="1.88263">
        <ele>705.5</ele>
        <time>2026-07-08T13:08:12.000Z</time>
      </trkpt>
      <trkpt lat="45.78928" lon="1.88263">
        <ele>705.5</ele>
        <time>2026-07-08T13:08:13.000Z</time>
      </trkpt>
      <trkpt lat="45.78928" lon="1.88263">
        <ele>705.5</ele>
        <time>2026-07-08T13:08:14.000Z</time>
      </trkpt>
      <trkpt lat="45.78928" lon="1.88263">
        <ele>705.4</ele>
        <time>2026-07-08T13:08:15.000Z</time>
      </trkpt>
      <trkpt lat="45.78928" lon="1.88262">
        <ele>705.4</ele>
        <time>2026-07-08T13:08:16.000Z</time>
      </trkpt>
      <trkpt lat="45.78928" lon="1.88262">
        <ele>705.4</ele>
        <time>2026-07-08T13:08:17.000Z</time>
      </trkpt>
      <trkpt lat="45.78928" lon="1.88262">
        <ele>705.4</ele>
        <time>2026-07-08T13:08:18.000Z</time>
      </trkpt>
      <trkpt lat="45.78928" lon="1.88262">
        <ele>705.4</ele>
        <time>2026-07-08T13:08:19.000Z</time>
      </trkpt>
      <trkpt lat="45.78928" lon="1.88262">
        <ele>705.7</ele>
        <time>2026-07-08T13:08:20.000Z</time>
      </trkpt>
      <trkpt lat="45.78928" lon="1.88262">
        <ele>705.7</ele>
        <time>2026-07-08T13:08:21.000Z</time>
      </trkpt>
      <trkpt lat="45.78928" lon="1.88263">
        <ele>705.9</ele>
        <time>2026-07-08T13:08:22.000Z</time>
      </trkpt>
      <trkpt lat="45.78928" lon="1.88263">
        <ele>705.9</ele>
        <time>2026-07-08T13:08:23.000Z</time>
      </trkpt>
      <trkpt lat="45.78928" lon="1.88263">
        <ele>705.9</ele>
        <time>2026-07-08T13:08:24.000Z</time>
      </trkpt>
      <trkpt lat="45.78928" lon="1.88263">
        <ele>705.9</ele>
        <time>2026-07-08T13:08:25.000Z</time>
      </trkpt>
      <trkpt lat="45.78928" lon="1.88263">
        <ele>705.9</ele>
        <time>2026-07-08T13:08:26.000Z</time>
      </trkpt>
      <trkpt lat="45.78928" lon="1.88263">
        <ele>705.9</ele>
        <time>2026-07-08T13:08:27.000Z</time>
      </trkpt>
      <trkpt lat="45.78928" lon="1.88263">
        <ele>705.9</ele>
        <time>2026-07-08T13:08:28.000Z</time>
      </trkpt>
      <trkpt lat="45.78928" lon="1.88263">
        <ele>705.9</ele>
        <time>2026-07-08T13:08:29.000Z</time>
      </trkpt>
      <trkpt lat="45.78928" lon="1.88263">
        <ele>705.9</ele>
        <time>2026-07-08T13:08:30.000Z</time>
      </trkpt>
      <trkpt lat="45.78928" lon="1.88263">
        <ele>706.3</ele>
        <time>2026-07-08T13:08:31.000Z</time>
      </trkpt>
      <trkpt lat="45.78928" lon="1.88263">
        <ele>706.5</ele>
        <time>2026-07-08T13:08:32.000Z</time>
      </trkpt>
      <trkpt lat="45.78929" lon="1.88263">
        <ele>706.6</ele>
        <time>2026-07-08T13:08:33.000Z</time>
      </trkpt>
      <trkpt lat="45.78929" lon="1.88262">
        <ele>706.5</ele>
        <time>2026-07-08T13:08:34.000Z</time>
      </trkpt>
      <trkpt lat="45.78928" lon="1.88262">
        <ele>706.5</ele>
        <time>2026-07-08T13:08:35.000Z</time>
      </trkpt>
      <trkpt lat="45.78928" lon="1.88262">
        <ele>706.5</ele>
        <time>2026-07-08T13:08:36.000Z</time>
      </trkpt>
      <trkpt lat="45.78928" lon="1.88262">
        <ele>706.5</ele>
        <time>2026-07-08T13:08:37.000Z</time>
      </trkpt>
      <trkpt lat="45.78928" lon="1.88262">
        <ele>706.5</ele>
        <time>2026-07-08T13:08:38.000Z</time>
      </trkpt>
      <trkpt lat="45.78928" lon="1.88262">
        <ele>706.5</ele>
        <time>2026-07-08T13:08:39.000Z</time>
      </trkpt>
      <trkpt lat="45.78928" lon="1.88262">
        <ele>706.5</ele>
        <time>2026-07-08T13:08:40.000Z</time>
      </trkpt>
      <trkpt lat="45.78928" lon="1.88262">
        <ele>706.5</ele>
        <time>2026-07-08T13:08:41.000Z</time>
      </trkpt>
      <trkpt lat="45.78928" lon="1.88262">
        <ele>706.5</ele>
        <time>2026-07-08T13:08:42.000Z</time>
      </trkpt>
      <trkpt lat="45.78929" lon="1.88262">
        <ele>706.4</ele>
        <time>2026-07-08T13:08:43.000Z</time>
      </trkpt>
      <trkpt lat="45.78929" lon="1.88262">
        <ele>706.2</ele>
        <time>2026-07-08T13:08:44.000Z</time>
      </trkpt>
      <trkpt lat="45.78929" lon="1.88262">
        <ele>706.1</ele>
        <time>2026-07-08T13:08:45.000Z</time>
      </trkpt>
      <trkpt lat="45.78929" lon="1.88262">
        <ele>706.1</ele>
        <time>2026-07-08T13:08:46.000Z</time>
      </trkpt>
      <trkpt lat="45.78929" lon="1.88262">
        <ele>706</ele>
        <time>2026-07-08T13:08:47.000Z</time>
      </trkpt>
      <trkpt lat="45.78929" lon="1.88262">
        <ele>706</ele>
        <time>2026-07-08T13:08:48.000Z</time>
      </trkpt>
      <trkpt lat="45.78929" lon="1.88263">
        <ele>705.8</ele>
        <time>2026-07-08T13:08:49.000Z</time>
      </trkpt>
      <trkpt lat="45.78929" lon="1.88263">
        <ele>705.8</ele>
        <time>2026-07-08T13:08:50.000Z</time>
      </trkpt>
      <trkpt lat="45.7893" lon="1.88262">
        <ele>705.4</ele>
        <time>2026-07-08T13:08:51.000Z</time>
      </trkpt>
      <trkpt lat="45.7893" lon="1.88261">
        <ele>705.3</ele>
        <time>2026-07-08T13:08:52.000Z</time>
      </trkpt>
      <trkpt lat="45.7893" lon="1.88261">
        <ele>705.7</ele>
        <time>2026-07-08T13:08:53.000Z</time>
      </trkpt>
      <trkpt lat="45.7893" lon="1.8826">
        <ele>706</ele>
        <time>2026-07-08T13:08:54.000Z</time>
      </trkpt>
      <trkpt lat="45.7893" lon="1.8826">
        <ele>706.2</ele>
        <time>2026-07-08T13:08:55.000Z</time>
      </trkpt>
      <trkpt lat="45.7893" lon="1.8826">
        <ele>706.3</ele>
        <time>2026-07-08T13:08:56.000Z</time>
      </trkpt>
      <trkpt lat="45.7893" lon="1.88259">
        <ele>706.2</ele>
        <time>2026-07-08T13:08:57.000Z</time>
      </trkpt>
      <trkpt lat="45.7893" lon="1.88259">
        <ele>706.1</ele>
        <time>2026-07-08T13:08:58.000Z</time>
      </trkpt>
      <trkpt lat="45.7893" lon="1.88259">
        <ele>706.1</ele>
        <time>2026-07-08T13:08:59.000Z</time>
      </trkpt>
      <trkpt lat="45.7893" lon="1.88259">
        <ele>706.1</ele>
        <time>2026-07-08T13:09:00.000Z</time>
      </trkpt>
      <trkpt lat="45.7893" lon="1.88259">
        <ele>706.1</ele>
        <time>2026-07-08T13:09:01.000Z</time>
      </trkpt>
      <trkpt lat="45.7893" lon="1.88259">
        <ele>706.1</ele>
        <time>2026-07-08T13:09:02.000Z</time>
      </trkpt>
      <trkpt lat="45.7893" lon="1.88259">
        <ele>706.1</ele>
        <time>2026-07-08T13:09:03.000Z</time>
      </trkpt>
      <trkpt lat="45.7893" lon="1.88259">
        <ele>706.1</ele>
        <time>2026-07-08T13:09:04.000Z</time>
      </trkpt>
      <trkpt lat="45.7893" lon="1.88259">
        <ele>706.1</ele>
        <time>2026-07-08T13:09:05.000Z</time>
      </trkpt>
      <trkpt lat="45.7893" lon="1.88259">
        <ele>706.1</ele>
        <time>2026-07-08T13:09:06.000Z</time>
      </trkpt>
      <trkpt lat="45.7893" lon="1.88259">
        <ele>706.1</ele>
        <time>2026-07-08T13:09:07.000Z</time>
      </trkpt>
      <trkpt lat="45.7893" lon="1.88259">
        <ele>706.1</ele>
        <time>2026-07-08T13:09:08.000Z</time>
      </trkpt>
      <trkpt lat="45.7893" lon="1.88259">
        <ele>706.1</ele>
        <time>2026-07-08T13:09:09.000Z</time>
      </trkpt>
      <trkpt lat="45.7893" lon="1.88259">
        <ele>706.1</ele>
        <time>2026-07-08T13:09:10.000Z</time>
      </trkpt>
      <trkpt lat="45.7893" lon="1.88259">
        <ele>706.1</ele>
        <time>2026-07-08T13:09:11.000Z</time>
      </trkpt>
      <trkpt lat="45.7893" lon="1.88259">
        <ele>706.1</ele>
        <time>2026-07-08T13:09:12.000Z</time>
      </trkpt>
      <trkpt lat="45.78929" lon="1.88259">
        <ele>706</ele>
        <time>2026-07-08T13:09:13.000Z</time>
      </trkpt>
      <trkpt lat="45.78929" lon="1.88259">
        <ele>705.8</ele>
        <time>2026-07-08T13:09:14.000Z</time>
      </trkpt>
      <trkpt lat="45.78928" lon="1.88259">
        <ele>706.1</ele>
        <time>2026-07-08T13:09:15.000Z</time>
      </trkpt>
      <trkpt lat="45.78928" lon="1.88259">
        <ele>706.3</ele>
        <time>2026-07-08T13:09:16.000Z</time>
      </trkpt>
      <trkpt lat="45.78928" lon="1.88259">
        <ele>706.2</ele>
        <time>2026-07-08T13:09:17.000Z</time>
      </trkpt>
      <trkpt lat="45.78928" lon="1.88259">
        <ele>706</ele>
        <time>2026-07-08T13:09:18.000Z</time>
      </trkpt>
      <trkpt lat="45.78928" lon="1.88259">
        <ele>705.9</ele>
        <time>2026-07-08T13:09:19.000Z</time>
      </trkpt>
      <trkpt lat="45.78928" lon="1.88259">
        <ele>705.9</ele>
        <time>2026-07-08T13:09:20.000Z</time>
      </trkpt>
      <trkpt lat="45.78928" lon="1.88259">
        <ele>705.9</ele>
        <time>2026-07-08T13:09:21.000Z</time>
      </trkpt>
      <trkpt lat="45.78928" lon="1.88259">
        <ele>705.9</ele>
        <time>2026-07-08T13:09:22.000Z</time>
      </trkpt>
      <trkpt lat="45.78927" lon="1.88259">
        <ele>706.1</ele>
        <time>2026-07-08T13:09:23.000Z</time>
      </trkpt>
      <trkpt lat="45.78927" lon="1.88259">
        <ele>706.1</ele>
        <time>2026-07-08T13:09:24.000Z</time>
      </trkpt>
      <trkpt lat="45.78927" lon="1.88259">
        <ele>706.1</ele>
        <time>2026-07-08T13:09:25.000Z</time>
      </trkpt>
      <trkpt lat="45.78927" lon="1.88259">
        <ele>706.1</ele>
        <time>2026-07-08T13:09:26.000Z</time>
      </trkpt>
      <trkpt lat="45.78927" lon="1.88259">
        <ele>706.1</ele>
        <time>2026-07-08T13:09:27.000Z</time>
      </trkpt>
      <trkpt lat="45.78927" lon="1.88259">
        <ele>706.1</ele>
        <time>2026-07-08T13:09:28.000Z</time>
      </trkpt>
      <trkpt lat="45.78927" lon="1.88259">
        <ele>706.1</ele>
        <time>2026-07-08T13:09:29.000Z</time>
      </trkpt>
      <trkpt lat="45.78927" lon="1.88259">
        <ele>706.1</ele>
        <time>2026-07-08T13:09:30.000Z</time>
      </trkpt>
      <trkpt lat="45.78927" lon="1.88259">
        <ele>706.1</ele>
        <time>2026-07-08T13:09:31.000Z</time>
      </trkpt>
      <trkpt lat="45.78927" lon="1.88259">
        <ele>706.1</ele>
        <time>2026-07-08T13:09:32.000Z</time>
      </trkpt>
      <trkpt lat="45.78927" lon="1.88259">
        <ele>706.1</ele>
        <time>2026-07-08T13:09:33.000Z</time>
      </trkpt>
      <trkpt lat="45.78927" lon="1.88259">
        <ele>706.1</ele>
        <time>2026-07-08T13:09:34.000Z</time>
      </trkpt>
      <trkpt lat="45.78927" lon="1.88259">
        <ele>706.1</ele>
        <time>2026-07-08T13:09:35.000Z</time>
      </trkpt>
      <trkpt lat="45.78927" lon="1.88259">
        <ele>706.1</ele>
        <time>2026-07-08T13:09:36.000Z</time>
      </trkpt>
      <trkpt lat="45.78927" lon="1.88259">
        <ele>706.1</ele>
        <time>2026-07-08T13:09:37.000Z</time>
      </trkpt>
      <trkpt lat="45.78927" lon="1.88259">
        <ele>706.1</ele>
        <time>2026-07-08T13:09:38.000Z</time>
      </trkpt>
      <trkpt lat="45.78927" lon="1.88258">
        <ele>705.8</ele>
        <time>2026-07-08T13:09:39.000Z</time>
      </trkpt>
      <trkpt lat="45.78927" lon="1.88257">
        <ele>705.7</ele>
        <time>2026-07-08T13:09:40.000Z</time>
      </trkpt>
      <trkpt lat="45.78926" lon="1.88256">
        <ele>705.9</ele>
        <time>2026-07-08T13:09:41.000Z</time>
      </trkpt>
      <trkpt lat="45.78926" lon="1.88255">
        <ele>705.8</ele>
        <time>2026-07-08T13:09:42.000Z</time>
      </trkpt>
      <trkpt lat="45.78925" lon="1.88254">
        <ele>705.6</ele>
        <time>2026-07-08T13:09:43.000Z</time>
      </trkpt>
      <trkpt lat="45.78925" lon="1.88253">
        <ele>705.7</ele>
        <time>2026-07-08T13:09:44.000Z</time>
      </trkpt>
      <trkpt lat="45.78924" lon="1.88252">
        <ele>705</ele>
        <time>2026-07-08T13:09:45.000Z</time>
      </trkpt>
      <trkpt lat="45.78924" lon="1.88252">
        <ele>705</ele>
        <time>2026-07-08T13:09:46.000Z</time>
      </trkpt>
      <trkpt lat="45.78924" lon="1.88252">
        <ele>705</ele>
        <time>2026-07-08T13:09:47.000Z</time>
      </trkpt>
      <trkpt lat="45.78924" lon="1.88252">
        <ele>704.9</ele>
        <time>2026-07-08T13:09:48.000Z</time>
      </trkpt>
      <trkpt lat="45.78923" lon="1.88252">
        <ele>704.3</ele>
        <time>2026-07-08T13:09:49.000Z</time>
      </trkpt>
      <trkpt lat="45.78923" lon="1.88252">
        <ele>704.2</ele>
        <time>2026-07-08T13:09:50.000Z</time>
      </trkpt>
      <trkpt lat="45.78921" lon="1.88253">
        <ele>702.7</ele>
        <time>2026-07-08T13:09:51.000Z</time>
      </trkpt>
      <trkpt lat="45.78921" lon="1.88253">
        <ele>702.7</ele>
        <time>2026-07-08T13:09:52.000Z</time>
      </trkpt>
      <trkpt lat="45.7892" lon="1.88253">
        <ele>701.1</ele>
        <time>2026-07-08T13:09:53.000Z</time>
      </trkpt>
      <trkpt lat="45.78919" lon="1.88253">
        <ele>701.1</ele>
        <time>2026-07-08T13:09:54.000Z</time>
      </trkpt>
      <trkpt lat="45.78918" lon="1.88252">
        <ele>701</ele>
        <time>2026-07-08T13:09:55.000Z</time>
      </trkpt>
      <trkpt lat="45.78919" lon="1.88252">
        <ele>701.3</ele>
        <time>2026-07-08T13:09:56.000Z</time>
      </trkpt>
      <trkpt lat="45.7892" lon="1.88254">
        <ele>701.9</ele>
        <time>2026-07-08T13:09:57.000Z</time>
      </trkpt>
      <trkpt lat="45.78921" lon="1.88254">
        <ele>702.7</ele>
        <time>2026-07-08T13:09:58.000Z</time>
      </trkpt>
      <trkpt lat="45.78921" lon="1.88255">
        <ele>703.5</ele>
        <time>2026-07-08T13:09:59.000Z</time>
      </trkpt>
      <trkpt lat="45.78922" lon="1.88256">
        <ele>703.3</ele>
        <time>2026-07-08T13:10:00.000Z</time>
      </trkpt>
      <trkpt lat="45.78923" lon="1.88257">
        <ele>703</ele>
        <time>2026-07-08T13:10:01.000Z</time>
      </trkpt>
      <trkpt lat="45.78924" lon="1.88257">
        <ele>703</ele>
        <time>2026-07-08T13:10:02.000Z</time>
      </trkpt>
      <trkpt lat="45.78924" lon="1.88257">
        <ele>703</ele>
        <time>2026-07-08T13:10:03.000Z</time>
      </trkpt>
      <trkpt lat="45.78924" lon="1.88257">
        <ele>703</ele>
        <time>2026-07-08T13:10:04.000Z</time>
      </trkpt>
      <trkpt lat="45.78924" lon="1.88257">
        <ele>703</ele>
        <time>2026-07-08T13:10:05.000Z</time>
      </trkpt>
      <trkpt lat="45.78924" lon="1.88258">
        <ele>703</ele>
        <time>2026-07-08T13:10:06.000Z</time>
      </trkpt>
      <trkpt lat="45.78925" lon="1.88258">
        <ele>702.7</ele>
        <time>2026-07-08T13:10:07.000Z</time>
      </trkpt>
      <trkpt lat="45.78925" lon="1.88257">
        <ele>703.1</ele>
        <time>2026-07-08T13:10:08.000Z</time>
      </trkpt>
      <trkpt lat="45.78925" lon="1.88256">
        <ele>703.1</ele>
        <time>2026-07-08T13:10:09.000Z</time>
      </trkpt>
      <trkpt lat="45.78925" lon="1.88256">
        <ele>703.2</ele>
        <time>2026-07-08T13:10:10.000Z</time>
      </trkpt>
      <trkpt lat="45.78925" lon="1.88256">
        <ele>703.4</ele>
        <time>2026-07-08T13:10:11.000Z</time>
      </trkpt>
      <trkpt lat="45.78925" lon="1.88257">
        <ele>704</ele>
        <time>2026-07-08T13:10:12.000Z</time>
      </trkpt>
      <trkpt lat="45.78925" lon="1.88257">
        <ele>704.2</ele>
        <time>2026-07-08T13:10:13.000Z</time>
      </trkpt>
      <trkpt lat="45.78925" lon="1.88257">
        <ele>704.1</ele>
        <time>2026-07-08T13:10:14.000Z</time>
      </trkpt>
      <trkpt lat="45.78925" lon="1.88258">
        <ele>703.6</ele>
        <time>2026-07-08T13:10:15.000Z</time>
      </trkpt>
      <trkpt lat="45.78926" lon="1.88257">
        <ele>703.9</ele>
        <time>2026-07-08T13:10:16.000Z</time>
      </trkpt>
      <trkpt lat="45.78926" lon="1.88257">
        <ele>704</ele>
        <time>2026-07-08T13:10:17.000Z</time>
      </trkpt>
      <trkpt lat="45.78926" lon="1.88257">
        <ele>704</ele>
        <time>2026-07-08T13:10:18.000Z</time>
      </trkpt>
      <trkpt lat="45.78926" lon="1.88257">
        <ele>704</ele>
        <time>2026-07-08T13:10:19.000Z</time>
      </trkpt>
      <trkpt lat="45.78926" lon="1.88257">
        <ele>704</ele>
        <time>2026-07-08T13:10:20.000Z</time>
      </trkpt>
      <trkpt lat="45.78926" lon="1.88257">
        <ele>704</ele>
        <time>2026-07-08T13:10:21.000Z</time>
      </trkpt>
      <trkpt lat="45.78926" lon="1.88257">
        <ele>704</ele>
        <time>2026-07-08T13:10:22.000Z</time>
      </trkpt>
      <trkpt lat="45.78926" lon="1.88257">
        <ele>704</ele>
        <time>2026-07-08T13:10:23.000Z</time>
      </trkpt>
      <trkpt lat="45.78926" lon="1.88257">
        <ele>704</ele>
        <time>2026-07-08T13:10:24.000Z</time>
      </trkpt>
      <trkpt lat="45.78926" lon="1.88257">
        <ele>704</ele>
        <time>2026-07-08T13:10:25.000Z</time>
      </trkpt>
      <trkpt lat="45.78926" lon="1.88257">
        <ele>704</ele>
        <time>2026-07-08T13:10:26.000Z</time>
      </trkpt>
      <trkpt lat="45.78926" lon="1.88257">
        <ele>703.8</ele>
        <time>2026-07-08T13:10:27.000Z</time>
      </trkpt>
      <trkpt lat="45.78926" lon="1.88257">
        <ele>703.8</ele>
        <time>2026-07-08T13:10:28.000Z</time>
      </trkpt>
      <trkpt lat="45.78926" lon="1.88257">
        <ele>704.2</ele>
        <time>2026-07-08T13:10:29.000Z</time>
      </trkpt>
      <trkpt lat="45.78926" lon="1.88257">
        <ele>704.1</ele>
        <time>2026-07-08T13:10:30.000Z</time>
      </trkpt>
      <trkpt lat="45.78926" lon="1.88257">
        <ele>703.9</ele>
        <time>2026-07-08T13:10:31.000Z</time>
      </trkpt>
      <trkpt lat="45.78926" lon="1.88257">
        <ele>704.1</ele>
        <time>2026-07-08T13:10:32.000Z</time>
      </trkpt>
      <trkpt lat="45.78926" lon="1.88256">
        <ele>704.1</ele>
        <time>2026-07-08T13:10:33.000Z</time>
      </trkpt>
      <trkpt lat="45.78927" lon="1.88255">
        <ele>705</ele>
        <time>2026-07-08T13:10:34.000Z</time>
      </trkpt>
      <trkpt lat="45.78927" lon="1.88253">
        <ele>706.2</ele>
        <time>2026-07-08T13:10:35.000Z</time>
      </trkpt>
      <trkpt lat="45.78925" lon="1.88252">
        <ele>706.4</ele>
        <time>2026-07-08T13:10:36.000Z</time>
      </trkpt>
      <trkpt lat="45.78923" lon="1.88254">
        <ele>706.2</ele>
        <time>2026-07-08T13:10:37.000Z</time>
      </trkpt>
      <trkpt lat="45.78924" lon="1.88257">
        <ele>706.6</ele>
        <time>2026-07-08T13:10:38.000Z</time>
      </trkpt>
      <trkpt lat="45.78925" lon="1.88259">
        <ele>706.7</ele>
        <time>2026-07-08T13:10:39.000Z</time>
      </trkpt>
      <trkpt lat="45.78925" lon="1.88259">
        <ele>706.7</ele>
        <time>2026-07-08T13:10:40.000Z</time>
      </trkpt>
      <trkpt lat="45.78925" lon="1.8826">
        <ele>706.5</ele>
        <time>2026-07-08T13:10:41.000Z</time>
      </trkpt>
      <trkpt lat="45.78926" lon="1.88261">
        <ele>707</ele>
        <time>2026-07-08T13:10:42.000Z</time>
      </trkpt>
      <trkpt lat="45.78926" lon="1.88263">
        <ele>706.8</ele>
        <time>2026-07-08T13:10:43.000Z</time>
      </trkpt>
      <trkpt lat="45.78926" lon="1.88264">
        <ele>707.5</ele>
        <time>2026-07-08T13:10:44.000Z</time>
      </trkpt>
      <trkpt lat="45.78926" lon="1.88264">
        <ele>707.8</ele>
        <time>2026-07-08T13:10:45.000Z</time>
      </trkpt>
      <trkpt lat="45.78926" lon="1.88264">
        <ele>707.8</ele>
        <time>2026-07-08T13:10:46.000Z</time>
      </trkpt>
      <trkpt lat="45.78926" lon="1.88264">
        <ele>707.8</ele>
        <time>2026-07-08T13:10:47.000Z</time>
      </trkpt>
      <trkpt lat="45.78926" lon="1.88264">
        <ele>707.8</ele>
        <time>2026-07-08T13:10:48.000Z</time>
      </trkpt>
      <trkpt lat="45.78926" lon="1.88264">
        <ele>707.8</ele>
        <time>2026-07-08T13:10:49.000Z</time>
      </trkpt>
      <trkpt lat="45.78926" lon="1.88265">
        <ele>707.8</ele>
        <time>2026-07-08T13:10:50.000Z</time>
      </trkpt>
      <trkpt lat="45.78926" lon="1.88265">
        <ele>707.7</ele>
        <time>2026-07-08T13:10:51.000Z</time>
      </trkpt>
      <trkpt lat="45.78926" lon="1.88266">
        <ele>707.7</ele>
        <time>2026-07-08T13:10:52.000Z</time>
      </trkpt>
      <trkpt lat="45.78927" lon="1.88266">
        <ele>708</ele>
        <time>2026-07-08T13:10:53.000Z</time>
      </trkpt>
      <trkpt lat="45.78927" lon="1.88267">
        <ele>708.1</ele>
        <time>2026-07-08T13:10:54.000Z</time>
      </trkpt>
      <trkpt lat="45.78927" lon="1.88267">
        <ele>707.9</ele>
        <time>2026-07-08T13:10:55.000Z</time>
      </trkpt>
      <trkpt lat="45.78927" lon="1.88268">
        <ele>708</ele>
        <time>2026-07-08T13:10:56.000Z</time>
      </trkpt>
      <trkpt lat="45.78927" lon="1.88268">
        <ele>708.1</ele>
        <time>2026-07-08T13:10:57.000Z</time>
      </trkpt>
      <trkpt lat="45.78928" lon="1.88269">
        <ele>708.1</ele>
        <time>2026-07-08T13:10:58.000Z</time>
      </trkpt>
      <trkpt lat="45.78929" lon="1.8827">
        <ele>708.1</ele>
        <time>2026-07-08T13:10:59.000Z</time>
      </trkpt>
      <trkpt lat="45.7893" lon="1.88272">
        <ele>707.9</ele>
        <time>2026-07-08T13:11:00.000Z</time>
      </trkpt>
      <trkpt lat="45.78932" lon="1.88273">
        <ele>708.2</ele>
        <time>2026-07-08T13:11:01.000Z</time>
      </trkpt>
      <trkpt lat="45.78933" lon="1.88274">
        <ele>708</ele>
        <time>2026-07-08T13:11:02.000Z</time>
      </trkpt>
      <trkpt lat="45.78934" lon="1.88274">
        <ele>707.4</ele>
        <time>2026-07-08T13:11:03.000Z</time>
      </trkpt>
      <trkpt lat="45.78936" lon="1.88274">
        <ele>707.4</ele>
        <time>2026-07-08T13:11:04.000Z</time>
      </trkpt>
      <trkpt lat="45.78937" lon="1.88274">
        <ele>707.6</ele>
        <time>2026-07-08T13:11:05.000Z</time>
      </trkpt>
      <trkpt lat="45.78939" lon="1.88275">
        <ele>707.9</ele>
        <time>2026-07-08T13:11:06.000Z</time>
      </trkpt>
      <trkpt lat="45.7894" lon="1.88275">
        <ele>708.1</ele>
        <time>2026-07-08T13:11:07.000Z</time>
      </trkpt>
      <trkpt lat="45.78942" lon="1.88276">
        <ele>708.1</ele>
        <time>2026-07-08T13:11:08.000Z</time>
      </trkpt>
      <trkpt lat="45.78943" lon="1.88277">
        <ele>708.3</ele>
        <time>2026-07-08T13:11:09.000Z</time>
      </trkpt>
      <trkpt lat="45.78944" lon="1.88278">
        <ele>708.3</ele>
        <time>2026-07-08T13:11:10.000Z</time>
      </trkpt>
      <trkpt lat="45.78945" lon="1.88279">
        <ele>708.2</ele>
        <time>2026-07-08T13:11:11.000Z</time>
      </trkpt>
      <trkpt lat="45.78947" lon="1.8828">
        <ele>708.5</ele>
        <time>2026-07-08T13:11:12.000Z</time>
      </trkpt>
      <trkpt lat="45.78948" lon="1.8828">
        <ele>709.1</ele>
        <time>2026-07-08T13:11:13.000Z</time>
      </trkpt>
      <trkpt lat="45.78949" lon="1.88281">
        <ele>709.1</ele>
        <time>2026-07-08T13:11:14.000Z</time>
      </trkpt>
      <trkpt lat="45.7895" lon="1.88282">
        <ele>708.6</ele>
        <time>2026-07-08T13:11:15.000Z</time>
      </trkpt>
      <trkpt lat="45.78952" lon="1.88282">
        <ele>708.2</ele>
        <time>2026-07-08T13:11:16.000Z</time>
      </trkpt>
      <trkpt lat="45.78953" lon="1.88283">
        <ele>707.9</ele>
        <time>2026-07-08T13:11:17.000Z</time>
      </trkpt>
      <trkpt lat="45.78955" lon="1.88283">
        <ele>707.6</ele>
        <time>2026-07-08T13:11:18.000Z</time>
      </trkpt>
      <trkpt lat="45.78956" lon="1.88284">
        <ele>707.3</ele>
        <time>2026-07-08T13:11:19.000Z</time>
      </trkpt>
      <trkpt lat="45.78958" lon="1.88285">
        <ele>707</ele>
        <time>2026-07-08T13:11:20.000Z</time>
      </trkpt>
      <trkpt lat="45.78959" lon="1.88285">
        <ele>706.6</ele>
        <time>2026-07-08T13:11:21.000Z</time>
      </trkpt>
      <trkpt lat="45.78961" lon="1.88286">
        <ele>706.3</ele>
        <time>2026-07-08T13:11:22.000Z</time>
      </trkpt>
      <trkpt lat="45.78962" lon="1.88288">
        <ele>705.9</ele>
        <time>2026-07-08T13:11:23.000Z</time>
      </trkpt>
      <trkpt lat="45.78963" lon="1.88289">
        <ele>705.6</ele>
        <time>2026-07-08T13:11:24.000Z</time>
      </trkpt>
      <trkpt lat="45.78964" lon="1.88291">
        <ele>705.5</ele>
        <time>2026-07-08T13:11:25.000Z</time>
      </trkpt>
      <trkpt lat="45.78965" lon="1.88293">
        <ele>705.4</ele>
        <time>2026-07-08T13:11:26.000Z</time>
      </trkpt>
      <trkpt lat="45.78966" lon="1.88295">
        <ele>705.1</ele>
        <time>2026-07-08T13:11:27.000Z</time>
      </trkpt>
      <trkpt lat="45.78967" lon="1.88297">
        <ele>704.9</ele>
        <time>2026-07-08T13:11:28.000Z</time>
      </trkpt>
      <trkpt lat="45.78967" lon="1.88299">
        <ele>704.9</ele>
        <time>2026-07-08T13:11:29.000Z</time>
      </trkpt>
      <trkpt lat="45.78968" lon="1.883">
        <ele>704.9</ele>
        <time>2026-07-08T13:11:30.000Z</time>
      </trkpt>
      <trkpt lat="45.78969" lon="1.88301">
        <ele>704.8</ele>
        <time>2026-07-08T13:11:31.000Z</time>
      </trkpt>
      <trkpt lat="45.7897" lon="1.88302">
        <ele>704.6</ele>
        <time>2026-07-08T13:11:32.000Z</time>
      </trkpt>
      <trkpt lat="45.78971" lon="1.88304">
        <ele>704.8</ele>
        <time>2026-07-08T13:11:33.000Z</time>
      </trkpt>
      <trkpt lat="45.78972" lon="1.88305">
        <ele>704.7</ele>
        <time>2026-07-08T13:11:34.000Z</time>
      </trkpt>
      <trkpt lat="45.78973" lon="1.88307">
        <ele>704.6</ele>
        <time>2026-07-08T13:11:35.000Z</time>
      </trkpt>
      <trkpt lat="45.78974" lon="1.88309">
        <ele>704.7</ele>
        <time>2026-07-08T13:11:36.000Z</time>
      </trkpt>
      <trkpt lat="45.78975" lon="1.8831">
        <ele>704.6</ele>
        <time>2026-07-08T13:11:37.000Z</time>
      </trkpt>
      <trkpt lat="45.78976" lon="1.88311">
        <ele>704.7</ele>
        <time>2026-07-08T13:11:38.000Z</time>
      </trkpt>
      <trkpt lat="45.78978" lon="1.88311">
        <ele>704.5</ele>
        <time>2026-07-08T13:11:39.000Z</time>
      </trkpt>
      <trkpt lat="45.78979" lon="1.88311">
        <ele>704.5</ele>
        <time>2026-07-08T13:11:40.000Z</time>
      </trkpt>
      <trkpt lat="45.78981" lon="1.8831">
        <ele>704.4</ele>
        <time>2026-07-08T13:11:41.000Z</time>
      </trkpt>
      <trkpt lat="45.78982" lon="1.8831">
        <ele>704.4</ele>
        <time>2026-07-08T13:11:42.000Z</time>
      </trkpt>
      <trkpt lat="45.78984" lon="1.88309">
        <ele>704.3</ele>
        <time>2026-07-08T13:11:43.000Z</time>
      </trkpt>
      <trkpt lat="45.78985" lon="1.88308">
        <ele>704.1</ele>
        <time>2026-07-08T13:11:44.000Z</time>
      </trkpt>
      <trkpt lat="45.78986" lon="1.88307">
        <ele>704.3</ele>
        <time>2026-07-08T13:11:45.000Z</time>
      </trkpt>
      <trkpt lat="45.78987" lon="1.88307">
        <ele>704.3</ele>
        <time>2026-07-08T13:11:46.000Z</time>
      </trkpt>
      <trkpt lat="45.78987" lon="1.88307">
        <ele>704.2</ele>
        <time>2026-07-08T13:11:47.000Z</time>
      </trkpt>
      <trkpt lat="45.78987" lon="1.88307">
        <ele>704.2</ele>
        <time>2026-07-08T13:11:48.000Z</time>
      </trkpt>
      <trkpt lat="45.78987" lon="1.88307">
        <ele>704.2</ele>
        <time>2026-07-08T13:11:49.000Z</time>
      </trkpt>
      <trkpt lat="45.78987" lon="1.88307">
        <ele>704.3</ele>
        <time>2026-07-08T13:11:50.000Z</time>
      </trkpt>
      <trkpt lat="45.78987" lon="1.88307">
        <ele>704.1</ele>
        <time>2026-07-08T13:11:51.000Z</time>
      </trkpt>
      <trkpt lat="45.78987" lon="1.88307">
        <ele>704</ele>
        <time>2026-07-08T13:11:52.000Z</time>
      </trkpt>
      <trkpt lat="45.78988" lon="1.88306">
        <ele>703.3</ele>
        <time>2026-07-08T13:11:53.000Z</time>
      </trkpt>
      <trkpt lat="45.78988" lon="1.88305">
        <ele>702.1</ele>
        <time>2026-07-08T13:11:54.000Z</time>
      </trkpt>
      <trkpt lat="45.78987" lon="1.88305">
        <ele>702.4</ele>
        <time>2026-07-08T13:11:55.000Z</time>
      </trkpt>
      <trkpt lat="45.78987" lon="1.88306">
        <ele>702.4</ele>
        <time>2026-07-08T13:11:56.000Z</time>
      </trkpt>
      <trkpt lat="45.78987" lon="1.88306">
        <ele>702.4</ele>
        <time>2026-07-08T13:11:57.000Z</time>
      </trkpt>
      <trkpt lat="45.78987" lon="1.88306">
        <ele>702.4</ele>
        <time>2026-07-08T13:11:58.000Z</time>
      </trkpt>
      <trkpt lat="45.78986" lon="1.88306">
        <ele>702.6</ele>
        <time>2026-07-08T13:11:59.000Z</time>
      </trkpt>
      <trkpt lat="45.78986" lon="1.88306">
        <ele>702.6</ele>
        <time>2026-07-08T13:12:00.000Z</time>
      </trkpt>
      <trkpt lat="45.78985" lon="1.88306">
        <ele>702.6</ele>
        <time>2026-07-08T13:12:01.000Z</time>
      </trkpt>
      <trkpt lat="45.78985" lon="1.88307">
        <ele>702.7</ele>
        <time>2026-07-08T13:12:02.000Z</time>
      </trkpt>
      <trkpt lat="45.78985" lon="1.88306">
        <ele>702.8</ele>
        <time>2026-07-08T13:12:03.000Z</time>
      </trkpt>
      <trkpt lat="45.78985" lon="1.88305">
        <ele>702.8</ele>
        <time>2026-07-08T13:12:04.000Z</time>
      </trkpt>
      <trkpt lat="45.78985" lon="1.88304">
        <ele>702.8</ele>
        <time>2026-07-08T13:12:05.000Z</time>
      </trkpt>
      <trkpt lat="45.78985" lon="1.88303">
        <ele>703.1</ele>
        <time>2026-07-08T13:12:06.000Z</time>
      </trkpt>
      <trkpt lat="45.78985" lon="1.88303">
        <ele>703.2</ele>
        <time>2026-07-08T13:12:07.000Z</time>
      </trkpt>
      <trkpt lat="45.78986" lon="1.88303">
        <ele>703.1</ele>
        <time>2026-07-08T13:12:08.000Z</time>
      </trkpt>
      <trkpt lat="45.78987" lon="1.88303">
        <ele>703.3</ele>
        <time>2026-07-08T13:12:09.000Z</time>
      </trkpt>
      <trkpt lat="45.78988" lon="1.88303">
        <ele>702.9</ele>
        <time>2026-07-08T13:12:10.000Z</time>
      </trkpt>
      <trkpt lat="45.78989" lon="1.88303">
        <ele>702.5</ele>
        <time>2026-07-08T13:12:11.000Z</time>
      </trkpt>
      <trkpt lat="45.7899" lon="1.88304">
        <ele>702.1</ele>
        <time>2026-07-08T13:12:12.000Z</time>
      </trkpt>
      <trkpt lat="45.78991" lon="1.88304">
        <ele>701.9</ele>
        <time>2026-07-08T13:12:13.000Z</time>
      </trkpt>
      <trkpt lat="45.78993" lon="1.88305">
        <ele>701.8</ele>
        <time>2026-07-08T13:12:14.000Z</time>
      </trkpt>
      <trkpt lat="45.78994" lon="1.88305">
        <ele>701.7</ele>
        <time>2026-07-08T13:12:15.000Z</time>
      </trkpt>
      <trkpt lat="45.78995" lon="1.88305">
        <ele>701.4</ele>
        <time>2026-07-08T13:12:16.000Z</time>
      </trkpt>
      <trkpt lat="45.78995" lon="1.88305">
        <ele>701.4</ele>
        <time>2026-07-08T13:12:17.000Z</time>
      </trkpt>
      <trkpt lat="45.78995" lon="1.88305">
        <ele>701.4</ele>
        <time>2026-07-08T13:12:18.000Z</time>
      </trkpt>
      <trkpt lat="45.78995" lon="1.88305">
        <ele>701.4</ele>
        <time>2026-07-08T13:12:19.000Z</time>
      </trkpt>
      <trkpt lat="45.78995" lon="1.88305">
        <ele>701.4</ele>
        <time>2026-07-08T13:12:20.000Z</time>
      </trkpt>
      <trkpt lat="45.78995" lon="1.88305">
        <ele>701.4</ele>
        <time>2026-07-08T13:12:21.000Z</time>
      </trkpt>
      <trkpt lat="45.78995" lon="1.88305">
        <ele>701.4</ele>
        <time>2026-07-08T13:12:22.000Z</time>
      </trkpt>
      <trkpt lat="45.78996" lon="1.88304">
        <ele>701.2</ele>
        <time>2026-07-08T13:12:23.000Z</time>
      </trkpt>
      <trkpt lat="45.78996" lon="1.88304">
        <ele>700.9</ele>
        <time>2026-07-08T13:12:24.000Z</time>
      </trkpt>
      <trkpt lat="45.78996" lon="1.88304">
        <ele>700.9</ele>
        <time>2026-07-08T13:12:25.000Z</time>
      </trkpt>
      <trkpt lat="45.78996" lon="1.88304">
        <ele>700.9</ele>
        <time>2026-07-08T13:12:26.000Z</time>
      </trkpt>
      <trkpt lat="45.78996" lon="1.88304">
        <ele>700.9</ele>
        <time>2026-07-08T13:12:27.000Z</time>
      </trkpt>
      <trkpt lat="45.78996" lon="1.88304">
        <ele>700.9</ele>
        <time>2026-07-08T13:12:28.000Z</time>
      </trkpt>
      <trkpt lat="45.78996" lon="1.88304">
        <ele>700.9</ele>
        <time>2026-07-08T13:12:29.000Z</time>
      </trkpt>
      <trkpt lat="45.78996" lon="1.88304">
        <ele>700.9</ele>
        <time>2026-07-08T13:12:30.000Z</time>
      </trkpt>
      <trkpt lat="45.78996" lon="1.88304">
        <ele>700.9</ele>
        <time>2026-07-08T13:12:31.000Z</time>
      </trkpt>
      <trkpt lat="45.78996" lon="1.88304">
        <ele>700.9</ele>
        <time>2026-07-08T13:12:32.000Z</time>
      </trkpt>
      <trkpt lat="45.78996" lon="1.88304">
        <ele>700.9</ele>
        <time>2026-07-08T13:12:33.000Z</time>
      </trkpt>
      <trkpt lat="45.78997" lon="1.88304">
        <ele>700.7</ele>
        <time>2026-07-08T13:12:34.000Z</time>
      </trkpt>
      <trkpt lat="45.78997" lon="1.88305">
        <ele>700.4</ele>
        <time>2026-07-08T13:12:35.000Z</time>
      </trkpt>
      <trkpt lat="45.78997" lon="1.88306">
        <ele>700.2</ele>
        <time>2026-07-08T13:12:36.000Z</time>
      </trkpt>
      <trkpt lat="45.78997" lon="1.88308">
        <ele>700.2</ele>
        <time>2026-07-08T13:12:37.000Z</time>
      </trkpt>
      <trkpt lat="45.78997" lon="1.88309">
        <ele>700.3</ele>
        <time>2026-07-08T13:12:38.000Z</time>
      </trkpt>
      <trkpt lat="45.78998" lon="1.88309">
        <ele>700.5</ele>
        <time>2026-07-08T13:12:39.000Z</time>
      </trkpt>
      <trkpt lat="45.78998" lon="1.88309">
        <ele>700.4</ele>
        <time>2026-07-08T13:12:40.000Z</time>
      </trkpt>
      <trkpt lat="45.78998" lon="1.88309">
        <ele>700.4</ele>
        <time>2026-07-08T13:12:41.000Z</time>
      </trkpt>
      <trkpt lat="45.78998" lon="1.88309">
        <ele>700.4</ele>
        <time>2026-07-08T13:12:42.000Z</time>
      </trkpt>
      <trkpt lat="45.78998" lon="1.88309">
        <ele>700.4</ele>
        <time>2026-07-08T13:12:43.000Z</time>
      </trkpt>
      <trkpt lat="45.78998" lon="1.88309">
        <ele>700.5</ele>
        <time>2026-07-08T13:12:44.000Z</time>
      </trkpt>
      <trkpt lat="45.78998" lon="1.88309">
        <ele>700.5</ele>
        <time>2026-07-08T13:12:45.000Z</time>
      </trkpt>
      <trkpt lat="45.78998" lon="1.88309">
        <ele>700.6</ele>
        <time>2026-07-08T13:12:46.000Z</time>
      </trkpt>
      <trkpt lat="45.78998" lon="1.88309">
        <ele>700.5</ele>
        <time>2026-07-08T13:12:47.000Z</time>
      </trkpt>
      <trkpt lat="45.78998" lon="1.88309">
        <ele>700.4</ele>
        <time>2026-07-08T13:12:48.000Z</time>
      </trkpt>
      <trkpt lat="45.78998" lon="1.88309">
        <ele>700.4</ele>
        <time>2026-07-08T13:12:49.000Z</time>
      </trkpt>
      <trkpt lat="45.78998" lon="1.88309">
        <ele>700.4</ele>
        <time>2026-07-08T13:12:50.000Z</time>
      </trkpt>
      <trkpt lat="45.78998" lon="1.88309">
        <ele>700.4</ele>
        <time>2026-07-08T13:12:51.000Z</time>
      </trkpt>
      <trkpt lat="45.78998" lon="1.88309">
        <ele>700.4</ele>
        <time>2026-07-08T13:12:52.000Z</time>
      </trkpt>
      <trkpt lat="45.78998" lon="1.88309">
        <ele>700.5</ele>
        <time>2026-07-08T13:12:53.000Z</time>
      </trkpt>
      <trkpt lat="45.78998" lon="1.88309">
        <ele>700.6</ele>
        <time>2026-07-08T13:12:54.000Z</time>
      </trkpt>
      <trkpt lat="45.78998" lon="1.88309">
        <ele>700.6</ele>
        <time>2026-07-08T13:12:55.000Z</time>
      </trkpt>
      <trkpt lat="45.78998" lon="1.88309">
        <ele>700.6</ele>
        <time>2026-07-08T13:12:56.000Z</time>
      </trkpt>
      <trkpt lat="45.78998" lon="1.88309">
        <ele>700.6</ele>
        <time>2026-07-08T13:12:57.000Z</time>
      </trkpt>
      <trkpt lat="45.78998" lon="1.88309">
        <ele>700.5</ele>
        <time>2026-07-08T13:12:58.000Z</time>
      </trkpt>
      <trkpt lat="45.78998" lon="1.88309">
        <ele>700.5</ele>
        <time>2026-07-08T13:12:59.000Z</time>
      </trkpt>
      <trkpt lat="45.78998" lon="1.88309">
        <ele>700.5</ele>
        <time>2026-07-08T13:13:00.000Z</time>
      </trkpt>
      <trkpt lat="45.78998" lon="1.88309">
        <ele>700.5</ele>
        <time>2026-07-08T13:13:01.000Z</time>
      </trkpt>
      <trkpt lat="45.78998" lon="1.88309">
        <ele>700.5</ele>
        <time>2026-07-08T13:13:02.000Z</time>
      </trkpt>
      <trkpt lat="45.78998" lon="1.88309">
        <ele>700.5</ele>
        <time>2026-07-08T13:13:03.000Z</time>
      </trkpt>
      <trkpt lat="45.78998" lon="1.88309">
        <ele>700.5</ele>
        <time>2026-07-08T13:13:04.000Z</time>
      </trkpt>
      <trkpt lat="45.78998" lon="1.88309">
        <ele>700.5</ele>
        <time>2026-07-08T13:13:05.000Z</time>
      </trkpt>
      <trkpt lat="45.78998" lon="1.88309">
        <ele>700.5</ele>
        <time>2026-07-08T13:13:06.000Z</time>
      </trkpt>
      <trkpt lat="45.78998" lon="1.88309">
        <ele>700.5</ele>
        <time>2026-07-08T13:13:07.000Z</time>
      </trkpt>
      <trkpt lat="45.78999" lon="1.88309">
        <ele>700.7</ele>
        <time>2026-07-08T13:13:08.000Z</time>
      </trkpt>
      <trkpt lat="45.78999" lon="1.88308">
        <ele>700.3</ele>
        <time>2026-07-08T13:13:09.000Z</time>
      </trkpt>
      <trkpt lat="45.78999" lon="1.88307">
        <ele>700.5</ele>
        <time>2026-07-08T13:13:10.000Z</time>
      </trkpt>
      <trkpt lat="45.78998" lon="1.88307">
        <ele>700.7</ele>
        <time>2026-07-08T13:13:11.000Z</time>
      </trkpt>
      <trkpt lat="45.78997" lon="1.88307">
        <ele>700.9</ele>
        <time>2026-07-08T13:13:12.000Z</time>
      </trkpt>
      <trkpt lat="45.78997" lon="1.88307">
        <ele>701</ele>
        <time>2026-07-08T13:13:13.000Z</time>
      </trkpt>
      <trkpt lat="45.78996" lon="1.88307">
        <ele>701.2</ele>
        <time>2026-07-08T13:13:14.000Z</time>
      </trkpt>
      <trkpt lat="45.78996" lon="1.88307">
        <ele>701.2</ele>
        <time>2026-07-08T13:13:15.000Z</time>
      </trkpt>
      <trkpt lat="45.78996" lon="1.88307">
        <ele>701.2</ele>
        <time>2026-07-08T13:13:16.000Z</time>
      </trkpt>
      <trkpt lat="45.78996" lon="1.88307">
        <ele>701.2</ele>
        <time>2026-07-08T13:13:17.000Z</time>
      </trkpt>
      <trkpt lat="45.78996" lon="1.88307">
        <ele>701.5</ele>
        <time>2026-07-08T13:13:18.000Z</time>
      </trkpt>
      <trkpt lat="45.78995" lon="1.88307">
        <ele>701.8</ele>
        <time>2026-07-08T13:13:19.000Z</time>
      </trkpt>
      <trkpt lat="45.78993" lon="1.88307">
        <ele>702</ele>
        <time>2026-07-08T13:13:20.000Z</time>
      </trkpt>
      <trkpt lat="45.78992" lon="1.88307">
        <ele>702.2</ele>
        <time>2026-07-08T13:13:21.000Z</time>
      </trkpt>
      <trkpt lat="45.7899" lon="1.88309">
        <ele>702.9</ele>
        <time>2026-07-08T13:13:22.000Z</time>
      </trkpt>
      <trkpt lat="45.78988" lon="1.8831">
        <ele>703.7</ele>
        <time>2026-07-08T13:13:23.000Z</time>
      </trkpt>
      <trkpt lat="45.78987" lon="1.88311">
        <ele>703.8</ele>
        <time>2026-07-08T13:13:24.000Z</time>
      </trkpt>
      <trkpt lat="45.78986" lon="1.88312">
        <ele>703.8</ele>
        <time>2026-07-08T13:13:25.000Z</time>
      </trkpt>
      <trkpt lat="45.78984" lon="1.88312">
        <ele>703.3</ele>
        <time>2026-07-08T13:13:26.000Z</time>
      </trkpt>
      <trkpt lat="45.78983" lon="1.88313">
        <ele>703.3</ele>
        <time>2026-07-08T13:13:27.000Z</time>
      </trkpt>
      <trkpt lat="45.78982" lon="1.88314">
        <ele>703.3</ele>
        <time>2026-07-08T13:13:28.000Z</time>
      </trkpt>
      <trkpt lat="45.78981" lon="1.88315">
        <ele>703.4</ele>
        <time>2026-07-08T13:13:29.000Z</time>
      </trkpt>
      <trkpt lat="45.7898" lon="1.88317">
        <ele>703.3</ele>
        <time>2026-07-08T13:13:30.000Z</time>
      </trkpt>
      <trkpt lat="45.7898" lon="1.8832">
        <ele>703.7</ele>
        <time>2026-07-08T13:13:31.000Z</time>
      </trkpt>
      <trkpt lat="45.7898" lon="1.88322">
        <ele>703.5</ele>
        <time>2026-07-08T13:13:32.000Z</time>
      </trkpt>
      <trkpt lat="45.7898" lon="1.88325">
        <ele>703.3</ele>
        <time>2026-07-08T13:13:33.000Z</time>
      </trkpt>
      <trkpt lat="45.7898" lon="1.88327">
        <ele>703</ele>
        <time>2026-07-08T13:13:34.000Z</time>
      </trkpt>
      <trkpt lat="45.7898" lon="1.88329">
        <ele>703.2</ele>
        <time>2026-07-08T13:13:35.000Z</time>
      </trkpt>
      <trkpt lat="45.7898" lon="1.88332">
        <ele>703.4</ele>
        <time>2026-07-08T13:13:36.000Z</time>
      </trkpt>
      <trkpt lat="45.7898" lon="1.88334">
        <ele>703.5</ele>
        <time>2026-07-08T13:13:37.000Z</time>
      </trkpt>
      <trkpt lat="45.78981" lon="1.88336">
        <ele>703.5</ele>
        <time>2026-07-08T13:13:38.000Z</time>
      </trkpt>
      <trkpt lat="45.78981" lon="1.88339">
        <ele>703.5</ele>
        <time>2026-07-08T13:13:39.000Z</time>
      </trkpt>
      <trkpt lat="45.78982" lon="1.88342">
        <ele>703.6</ele>
        <time>2026-07-08T13:13:40.000Z</time>
      </trkpt>
      <trkpt lat="45.78982" lon="1.88345">
        <ele>704.7</ele>
        <time>2026-07-08T13:13:41.000Z</time>
      </trkpt>
      <trkpt lat="45.78982" lon="1.88348">
        <ele>704.8</ele>
        <time>2026-07-08T13:13:42.000Z</time>
      </trkpt>
      <trkpt lat="45.78982" lon="1.8835">
        <ele>704.7</ele>
        <time>2026-07-08T13:13:43.000Z</time>
      </trkpt>
      <trkpt lat="45.78983" lon="1.88352">
        <ele>704.8</ele>
        <time>2026-07-08T13:13:44.000Z</time>
      </trkpt>
      <trkpt lat="45.78983" lon="1.88355">
        <ele>704.7</ele>
        <time>2026-07-08T13:13:45.000Z</time>
      </trkpt>
      <trkpt lat="45.78983" lon="1.88357">
        <ele>704.8</ele>
        <time>2026-07-08T13:13:46.000Z</time>
      </trkpt>
      <trkpt lat="45.78983" lon="1.88359">
        <ele>704.3</ele>
        <time>2026-07-08T13:13:47.000Z</time>
      </trkpt>
      <trkpt lat="45.78983" lon="1.88361">
        <ele>704.1</ele>
        <time>2026-07-08T13:13:48.000Z</time>
      </trkpt>
      <trkpt lat="45.78983" lon="1.88363">
        <ele>704.3</ele>
        <time>2026-07-08T13:13:49.000Z</time>
      </trkpt>
      <trkpt lat="45.78983" lon="1.88365">
        <ele>704.5</ele>
        <time>2026-07-08T13:13:50.000Z</time>
      </trkpt>
      <trkpt lat="45.78982" lon="1.88367">
        <ele>704.5</ele>
        <time>2026-07-08T13:13:51.000Z</time>
      </trkpt>
      <trkpt lat="45.78981" lon="1.88368">
        <ele>704.7</ele>
        <time>2026-07-08T13:13:52.000Z</time>
      </trkpt>
      <trkpt lat="45.78981" lon="1.8837">
        <ele>704.8</ele>
        <time>2026-07-08T13:13:53.000Z</time>
      </trkpt>
      <trkpt lat="45.7898" lon="1.88372">
        <ele>705.1</ele>
        <time>2026-07-08T13:13:54.000Z</time>
      </trkpt>
      <trkpt lat="45.78979" lon="1.88374">
        <ele>705.4</ele>
        <time>2026-07-08T13:13:55.000Z</time>
      </trkpt>
      <trkpt lat="45.78979" lon="1.88377">
        <ele>705.6</ele>
        <time>2026-07-08T13:13:56.000Z</time>
      </trkpt>
      <trkpt lat="45.78979" lon="1.88379">
        <ele>705.5</ele>
        <time>2026-07-08T13:13:57.000Z</time>
      </trkpt>
      <trkpt lat="45.78978" lon="1.88381">
        <ele>705.6</ele>
        <time>2026-07-08T13:13:58.000Z</time>
      </trkpt>
      <trkpt lat="45.78978" lon="1.88383">
        <ele>705.9</ele>
        <time>2026-07-08T13:13:59.000Z</time>
      </trkpt>
      <trkpt lat="45.78978" lon="1.88385">
        <ele>706.2</ele>
        <time>2026-07-08T13:14:00.000Z</time>
      </trkpt>
      <trkpt lat="45.78977" lon="1.88387">
        <ele>705.9</ele>
        <time>2026-07-08T13:14:01.000Z</time>
      </trkpt>
      <trkpt lat="45.78977" lon="1.88389">
        <ele>705.8</ele>
        <time>2026-07-08T13:14:02.000Z</time>
      </trkpt>
      <trkpt lat="45.78977" lon="1.88392">
        <ele>705.9</ele>
        <time>2026-07-08T13:14:03.000Z</time>
      </trkpt>
      <trkpt lat="45.78976" lon="1.88394">
        <ele>705.7</ele>
        <time>2026-07-08T13:14:04.000Z</time>
      </trkpt>
      <trkpt lat="45.78975" lon="1.88396">
        <ele>706.2</ele>
        <time>2026-07-08T13:14:05.000Z</time>
      </trkpt>
      <trkpt lat="45.78975" lon="1.88398">
        <ele>706.8</ele>
        <time>2026-07-08T13:14:06.000Z</time>
      </trkpt>
      <trkpt lat="45.78975" lon="1.88401">
        <ele>706.9</ele>
        <time>2026-07-08T13:14:07.000Z</time>
      </trkpt>
      <trkpt lat="45.78974" lon="1.88403">
        <ele>706.8</ele>
        <time>2026-07-08T13:14:08.000Z</time>
      </trkpt>
      <trkpt lat="45.78974" lon="1.88405">
        <ele>706.7</ele>
        <time>2026-07-08T13:14:09.000Z</time>
      </trkpt>
      <trkpt lat="45.78974" lon="1.88407">
        <ele>706.4</ele>
        <time>2026-07-08T13:14:10.000Z</time>
      </trkpt>
      <trkpt lat="45.78974" lon="1.8841">
        <ele>706.4</ele>
        <time>2026-07-08T13:14:11.000Z</time>
      </trkpt>
      <trkpt lat="45.78973" lon="1.88412">
        <ele>706.2</ele>
        <time>2026-07-08T13:14:12.000Z</time>
      </trkpt>
      <trkpt lat="45.78973" lon="1.88415">
        <ele>706</ele>
        <time>2026-07-08T13:14:13.000Z</time>
      </trkpt>
      <trkpt lat="45.78972" lon="1.88417">
        <ele>706.1</ele>
        <time>2026-07-08T13:14:14.000Z</time>
      </trkpt>
      <trkpt lat="45.78972" lon="1.8842">
        <ele>706.2</ele>
        <time>2026-07-08T13:14:15.000Z</time>
      </trkpt>
      <trkpt lat="45.78972" lon="1.88422">
        <ele>706.6</ele>
        <time>2026-07-08T13:14:16.000Z</time>
      </trkpt>
      <trkpt lat="45.78971" lon="1.88424">
        <ele>706.4</ele>
        <time>2026-07-08T13:14:17.000Z</time>
      </trkpt>
      <trkpt lat="45.78971" lon="1.88427">
        <ele>706.1</ele>
        <time>2026-07-08T13:14:18.000Z</time>
      </trkpt>
      <trkpt lat="45.7897" lon="1.88429">
        <ele>705.9</ele>
        <time>2026-07-08T13:14:19.000Z</time>
      </trkpt>
      <trkpt lat="45.78969" lon="1.88432">
        <ele>706.4</ele>
        <time>2026-07-08T13:14:20.000Z</time>
      </trkpt>
      <trkpt lat="45.78969" lon="1.88435">
        <ele>707.4</ele>
        <time>2026-07-08T13:14:21.000Z</time>
      </trkpt>
      <trkpt lat="45.78968" lon="1.88438">
        <ele>707.7</ele>
        <time>2026-07-08T13:14:22.000Z</time>
      </trkpt>
      <trkpt lat="45.78968" lon="1.8844">
        <ele>707.7</ele>
        <time>2026-07-08T13:14:23.000Z</time>
      </trkpt>
      <trkpt lat="45.78968" lon="1.88442">
        <ele>708.2</ele>
        <time>2026-07-08T13:14:24.000Z</time>
      </trkpt>
      <trkpt lat="45.78967" lon="1.88445">
        <ele>708.5</ele>
        <time>2026-07-08T13:14:25.000Z</time>
      </trkpt>
      <trkpt lat="45.78967" lon="1.88449">
        <ele>709.1</ele>
        <time>2026-07-08T13:14:26.000Z</time>
      </trkpt>
      <trkpt lat="45.78967" lon="1.88452">
        <ele>709</ele>
        <time>2026-07-08T13:14:27.000Z</time>
      </trkpt>
      <trkpt lat="45.78966" lon="1.88454">
        <ele>709.2</ele>
        <time>2026-07-08T13:14:28.000Z</time>
      </trkpt>
      <trkpt lat="45.78966" lon="1.88456">
        <ele>708.7</ele>
        <time>2026-07-08T13:14:29.000Z</time>
      </trkpt>
      <trkpt lat="45.78966" lon="1.88458">
        <ele>708.9</ele>
        <time>2026-07-08T13:14:30.000Z</time>
      </trkpt>
      <trkpt lat="45.78966" lon="1.8846">
        <ele>708.3</ele>
        <time>2026-07-08T13:14:31.000Z</time>
      </trkpt>
      <trkpt lat="45.78966" lon="1.88462">
        <ele>707.4</ele>
        <time>2026-07-08T13:14:32.000Z</time>
      </trkpt>
      <trkpt lat="45.78966" lon="1.88464">
        <ele>707.2</ele>
        <time>2026-07-08T13:14:33.000Z</time>
      </trkpt>
      <trkpt lat="45.78966" lon="1.88466">
        <ele>706.7</ele>
        <time>2026-07-08T13:14:34.000Z</time>
      </trkpt>
      <trkpt lat="45.78966" lon="1.88468">
        <ele>706.5</ele>
        <time>2026-07-08T13:14:35.000Z</time>
      </trkpt>
      <trkpt lat="45.78965" lon="1.88471">
        <ele>706.5</ele>
        <time>2026-07-08T13:14:36.000Z</time>
      </trkpt>
      <trkpt lat="45.78965" lon="1.88473">
        <ele>705.9</ele>
        <time>2026-07-08T13:14:37.000Z</time>
      </trkpt>
      <trkpt lat="45.78964" lon="1.88475">
        <ele>706.8</ele>
        <time>2026-07-08T13:14:38.000Z</time>
      </trkpt>
      <trkpt lat="45.78964" lon="1.88478">
        <ele>706.9</ele>
        <time>2026-07-08T13:14:39.000Z</time>
      </trkpt>
      <trkpt lat="45.78963" lon="1.8848">
        <ele>706.5</ele>
        <time>2026-07-08T13:14:40.000Z</time>
      </trkpt>
      <trkpt lat="45.78963" lon="1.88482">
        <ele>706.4</ele>
        <time>2026-07-08T13:14:41.000Z</time>
      </trkpt>
      <trkpt lat="45.78963" lon="1.88485">
        <ele>706.6</ele>
        <time>2026-07-08T13:14:42.000Z</time>
      </trkpt>
      <trkpt lat="45.78963" lon="1.88487">
        <ele>706.1</ele>
        <time>2026-07-08T13:14:43.000Z</time>
      </trkpt>
      <trkpt lat="45.78962" lon="1.88489">
        <ele>705.8</ele>
        <time>2026-07-08T13:14:44.000Z</time>
      </trkpt>
      <trkpt lat="45.78962" lon="1.88492">
        <ele>705.2</ele>
        <time>2026-07-08T13:14:45.000Z</time>
      </trkpt>
      <trkpt lat="45.78961" lon="1.88495">
        <ele>705</ele>
        <time>2026-07-08T13:14:46.000Z</time>
      </trkpt>
      <trkpt lat="45.78961" lon="1.88497">
        <ele>705</ele>
        <time>2026-07-08T13:14:47.000Z</time>
      </trkpt>
      <trkpt lat="45.78961" lon="1.885">
        <ele>705.3</ele>
        <time>2026-07-08T13:14:48.000Z</time>
      </trkpt>
      <trkpt lat="45.7896" lon="1.88502">
        <ele>705.2</ele>
        <time>2026-07-08T13:14:49.000Z</time>
      </trkpt>
      <trkpt lat="45.7896" lon="1.88505">
        <ele>705.1</ele>
        <time>2026-07-08T13:14:50.000Z</time>
      </trkpt>
      <trkpt lat="45.7896" lon="1.88507">
        <ele>705</ele>
        <time>2026-07-08T13:14:51.000Z</time>
      </trkpt>
      <trkpt lat="45.78959" lon="1.8851">
        <ele>705.1</ele>
        <time>2026-07-08T13:14:52.000Z</time>
      </trkpt>
      <trkpt lat="45.78959" lon="1.88512">
        <ele>704.6</ele>
        <time>2026-07-08T13:14:53.000Z</time>
      </trkpt>
      <trkpt lat="45.78959" lon="1.88514">
        <ele>704.6</ele>
        <time>2026-07-08T13:14:54.000Z</time>
      </trkpt>
      <trkpt lat="45.78958" lon="1.88517">
        <ele>705.4</ele>
        <time>2026-07-08T13:14:55.000Z</time>
      </trkpt>
      <trkpt lat="45.78958" lon="1.88519">
        <ele>706.1</ele>
        <time>2026-07-08T13:14:56.000Z</time>
      </trkpt>
      <trkpt lat="45.78958" lon="1.88522">
        <ele>707.2</ele>
        <time>2026-07-08T13:14:57.000Z</time>
      </trkpt>
      <trkpt lat="45.78958" lon="1.88524">
        <ele>706.8</ele>
        <time>2026-07-08T13:14:58.000Z</time>
      </trkpt>
      <trkpt lat="45.78958" lon="1.88526">
        <ele>706.8</ele>
        <time>2026-07-08T13:14:59.000Z</time>
      </trkpt>
      <trkpt lat="45.78957" lon="1.88528">
        <ele>706.4</ele>
        <time>2026-07-08T13:15:00.000Z</time>
      </trkpt>
      <trkpt lat="45.78957" lon="1.8853">
        <ele>705.4</ele>
        <time>2026-07-08T13:15:01.000Z</time>
      </trkpt>
      <trkpt lat="45.78956" lon="1.88532">
        <ele>705.3</ele>
        <time>2026-07-08T13:15:02.000Z</time>
      </trkpt>
      <trkpt lat="45.78956" lon="1.88535">
        <ele>705</ele>
        <time>2026-07-08T13:15:03.000Z</time>
      </trkpt>
      <trkpt lat="45.78956" lon="1.88537">
        <ele>704.8</ele>
        <time>2026-07-08T13:15:04.000Z</time>
      </trkpt>
      <trkpt lat="45.78957" lon="1.88539">
        <ele>704.6</ele>
        <time>2026-07-08T13:15:05.000Z</time>
      </trkpt>
      <trkpt lat="45.78957" lon="1.88542">
        <ele>704.7</ele>
        <time>2026-07-08T13:15:06.000Z</time>
      </trkpt>
      <trkpt lat="45.78957" lon="1.88544">
        <ele>704.4</ele>
        <time>2026-07-08T13:15:07.000Z</time>
      </trkpt>
      <trkpt lat="45.78957" lon="1.88546">
        <ele>703.9</ele>
        <time>2026-07-08T13:15:08.000Z</time>
      </trkpt>
      <trkpt lat="45.78956" lon="1.88548">
        <ele>704.1</ele>
        <time>2026-07-08T13:15:09.000Z</time>
      </trkpt>
      <trkpt lat="45.78956" lon="1.8855">
        <ele>703.6</ele>
        <time>2026-07-08T13:15:10.000Z</time>
      </trkpt>
      <trkpt lat="45.78956" lon="1.88552">
        <ele>703.7</ele>
        <time>2026-07-08T13:15:11.000Z</time>
      </trkpt>
      <trkpt lat="45.78955" lon="1.88554">
        <ele>703.6</ele>
        <time>2026-07-08T13:15:12.000Z</time>
      </trkpt>
      <trkpt lat="45.78955" lon="1.88556">
        <ele>703.3</ele>
        <time>2026-07-08T13:15:13.000Z</time>
      </trkpt>
      <trkpt lat="45.78955" lon="1.88558">
        <ele>703.6</ele>
        <time>2026-07-08T13:15:14.000Z</time>
      </trkpt>
      <trkpt lat="45.78955" lon="1.8856">
        <ele>703.7</ele>
        <time>2026-07-08T13:15:15.000Z</time>
      </trkpt>
      <trkpt lat="45.78955" lon="1.88562">
        <ele>704.5</ele>
        <time>2026-07-08T13:15:16.000Z</time>
      </trkpt>
      <trkpt lat="45.78954" lon="1.88564">
        <ele>703.9</ele>
        <time>2026-07-08T13:15:17.000Z</time>
      </trkpt>
      <trkpt lat="45.78954" lon="1.88566">
        <ele>703.7</ele>
        <time>2026-07-08T13:15:18.000Z</time>
      </trkpt>
      <trkpt lat="45.78954" lon="1.88568">
        <ele>705.1</ele>
        <time>2026-07-08T13:15:19.000Z</time>
      </trkpt>
      <trkpt lat="45.78954" lon="1.88569">
        <ele>706.3</ele>
        <time>2026-07-08T13:15:20.000Z</time>
      </trkpt>
      <trkpt lat="45.78953" lon="1.88572">
        <ele>706</ele>
        <time>2026-07-08T13:15:21.000Z</time>
      </trkpt>
      <trkpt lat="45.78952" lon="1.88576">
        <ele>706.6</ele>
        <time>2026-07-08T13:15:22.000Z</time>
      </trkpt>
      <trkpt lat="45.78952" lon="1.88579">
        <ele>707.2</ele>
        <time>2026-07-08T13:15:23.000Z</time>
      </trkpt>
      <trkpt lat="45.78951" lon="1.88582">
        <ele>708.9</ele>
        <time>2026-07-08T13:15:24.000Z</time>
      </trkpt>
      <trkpt lat="45.78951" lon="1.88585">
        <ele>708.8</ele>
        <time>2026-07-08T13:15:25.000Z</time>
      </trkpt>
      <trkpt lat="45.7895" lon="1.88588">
        <ele>708.6</ele>
        <time>2026-07-08T13:15:26.000Z</time>
      </trkpt>
      <trkpt lat="45.7895" lon="1.8859">
        <ele>708.7</ele>
        <time>2026-07-08T13:15:27.000Z</time>
      </trkpt>
      <trkpt lat="45.7895" lon="1.88592">
        <ele>709.3</ele>
        <time>2026-07-08T13:15:28.000Z</time>
      </trkpt>
      <trkpt lat="45.78949" lon="1.88594">
        <ele>708.1</ele>
        <time>2026-07-08T13:15:29.000Z</time>
      </trkpt>
      <trkpt lat="45.78949" lon="1.88596">
        <ele>707.2</ele>
        <time>2026-07-08T13:15:30.000Z</time>
      </trkpt>
      <trkpt lat="45.78948" lon="1.88598">
        <ele>707.3</ele>
        <time>2026-07-08T13:15:31.000Z</time>
      </trkpt>
      <trkpt lat="45.78947" lon="1.88601">
        <ele>707.8</ele>
        <time>2026-07-08T13:15:32.000Z</time>
      </trkpt>
      <trkpt lat="45.78947" lon="1.88603">
        <ele>708.3</ele>
        <time>2026-07-08T13:15:33.000Z</time>
      </trkpt>
      <trkpt lat="45.78946" lon="1.88605">
        <ele>708.1</ele>
        <time>2026-07-08T13:15:34.000Z</time>
      </trkpt>
      <trkpt lat="45.78946" lon="1.88607">
        <ele>708.2</ele>
        <time>2026-07-08T13:15:35.000Z</time>
      </trkpt>
      <trkpt lat="45.78945" lon="1.88609">
        <ele>707.9</ele>
        <time>2026-07-08T13:15:36.000Z</time>
      </trkpt>
      <trkpt lat="45.78945" lon="1.8861">
        <ele>709.2</ele>
        <time>2026-07-08T13:15:37.000Z</time>
      </trkpt>
      <trkpt lat="45.78945" lon="1.88611">
        <ele>708.6</ele>
        <time>2026-07-08T13:15:38.000Z</time>
      </trkpt>
      <trkpt lat="45.78945" lon="1.88613">
        <ele>708.3</ele>
        <time>2026-07-08T13:15:39.000Z</time>
      </trkpt>
      <trkpt lat="45.78945" lon="1.88615">
        <ele>707.5</ele>
        <time>2026-07-08T13:15:40.000Z</time>
      </trkpt>
      <trkpt lat="45.78945" lon="1.88617">
        <ele>707.3</ele>
        <time>2026-07-08T13:15:41.000Z</time>
      </trkpt>
      <trkpt lat="45.78945" lon="1.88619">
        <ele>706.8</ele>
        <time>2026-07-08T13:15:42.000Z</time>
      </trkpt>
      <trkpt lat="45.78944" lon="1.88622">
        <ele>706.8</ele>
        <time>2026-07-08T13:15:43.000Z</time>
      </trkpt>
      <trkpt lat="45.78944" lon="1.88625">
        <ele>706.6</ele>
        <time>2026-07-08T13:15:44.000Z</time>
      </trkpt>
      <trkpt lat="45.78944" lon="1.88627">
        <ele>706</ele>
        <time>2026-07-08T13:15:45.000Z</time>
      </trkpt>
      <trkpt lat="45.78944" lon="1.88629">
        <ele>705.8</ele>
        <time>2026-07-08T13:15:46.000Z</time>
      </trkpt>
      <trkpt lat="45.78943" lon="1.88632">
        <ele>705.7</ele>
        <time>2026-07-08T13:15:47.000Z</time>
      </trkpt>
      <trkpt lat="45.78943" lon="1.88634">
        <ele>706.2</ele>
        <time>2026-07-08T13:15:48.000Z</time>
      </trkpt>
      <trkpt lat="45.78943" lon="1.88636">
        <ele>706.3</ele>
        <time>2026-07-08T13:15:49.000Z</time>
      </trkpt>
      <trkpt lat="45.78943" lon="1.88638">
        <ele>706.6</ele>
        <time>2026-07-08T13:15:50.000Z</time>
      </trkpt>
      <trkpt lat="45.78943" lon="1.8864">
        <ele>706.5</ele>
        <time>2026-07-08T13:15:51.000Z</time>
      </trkpt>
      <trkpt lat="45.78943" lon="1.88642">
        <ele>706.4</ele>
        <time>2026-07-08T13:15:52.000Z</time>
      </trkpt>
      <trkpt lat="45.78943" lon="1.88644">
        <ele>705.9</ele>
        <time>2026-07-08T13:15:53.000Z</time>
      </trkpt>
      <trkpt lat="45.78943" lon="1.88647">
        <ele>705.6</ele>
        <time>2026-07-08T13:15:54.000Z</time>
      </trkpt>
      <trkpt lat="45.78943" lon="1.8865">
        <ele>705.2</ele>
        <time>2026-07-08T13:15:55.000Z</time>
      </trkpt>
      <trkpt lat="45.78943" lon="1.88653">
        <ele>705.6</ele>
        <time>2026-07-08T13:15:56.000Z</time>
      </trkpt>
      <trkpt lat="45.78943" lon="1.88657">
        <ele>706.1</ele>
        <time>2026-07-08T13:15:57.000Z</time>
      </trkpt>
      <trkpt lat="45.78943" lon="1.8866">
        <ele>705.9</ele>
        <time>2026-07-08T13:15:58.000Z</time>
      </trkpt>
      <trkpt lat="45.78943" lon="1.88663">
        <ele>705.6</ele>
        <time>2026-07-08T13:15:59.000Z</time>
      </trkpt>
      <trkpt lat="45.78943" lon="1.88665">
        <ele>705.8</ele>
        <time>2026-07-08T13:16:00.000Z</time>
      </trkpt>
      <trkpt lat="45.78942" lon="1.88667">
        <ele>705.9</ele>
        <time>2026-07-08T13:16:01.000Z</time>
      </trkpt>
      <trkpt lat="45.78942" lon="1.88669">
        <ele>705.8</ele>
        <time>2026-07-08T13:16:02.000Z</time>
      </trkpt>
      <trkpt lat="45.78942" lon="1.88671">
        <ele>705.6</ele>
        <time>2026-07-08T13:16:03.000Z</time>
      </trkpt>
      <trkpt lat="45.78942" lon="1.88673">
        <ele>705.8</ele>
        <time>2026-07-08T13:16:04.000Z</time>
      </trkpt>
      <trkpt lat="45.78943" lon="1.88675">
        <ele>705.5</ele>
        <time>2026-07-08T13:16:05.000Z</time>
      </trkpt>
      <trkpt lat="45.78943" lon="1.88677">
        <ele>705.7</ele>
        <time>2026-07-08T13:16:06.000Z</time>
      </trkpt>
      <trkpt lat="45.78942" lon="1.88679">
        <ele>705.3</ele>
        <time>2026-07-08T13:16:07.000Z</time>
      </trkpt>
      <trkpt lat="45.78942" lon="1.88679">
        <ele>704</ele>
        <time>2026-07-08T13:16:08.000Z</time>
      </trkpt>
      <trkpt lat="45.78942" lon="1.88679">
        <ele>702.9</ele>
        <time>2026-07-08T13:16:09.000Z</time>
      </trkpt>
      <trkpt lat="45.78941" lon="1.88679">
        <ele>703</ele>
        <time>2026-07-08T13:16:10.000Z</time>
      </trkpt>
      <trkpt lat="45.7894" lon="1.8868">
        <ele>703.5</ele>
        <time>2026-07-08T13:16:11.000Z</time>
      </trkpt>
      <trkpt lat="45.78939" lon="1.88681">
        <ele>703.9</ele>
        <time>2026-07-08T13:16:12.000Z</time>
      </trkpt>
      <trkpt lat="45.78938" lon="1.88683">
        <ele>703.9</ele>
        <time>2026-07-08T13:16:13.000Z</time>
      </trkpt>
      <trkpt lat="45.78938" lon="1.88684">
        <ele>704.2</ele>
        <time>2026-07-08T13:16:14.000Z</time>
      </trkpt>
      <trkpt lat="45.78937" lon="1.88686">
        <ele>703.2</ele>
        <time>2026-07-08T13:16:15.000Z</time>
      </trkpt>
      <trkpt lat="45.78937" lon="1.88689">
        <ele>703.1</ele>
        <time>2026-07-08T13:16:16.000Z</time>
      </trkpt>
      <trkpt lat="45.78937" lon="1.88691">
        <ele>703.2</ele>
        <time>2026-07-08T13:16:17.000Z</time>
      </trkpt>
      <trkpt lat="45.78937" lon="1.88693">
        <ele>702.9</ele>
        <time>2026-07-08T13:16:18.000Z</time>
      </trkpt>
      <trkpt lat="45.78936" lon="1.88696">
        <ele>702.4</ele>
        <time>2026-07-08T13:16:19.000Z</time>
      </trkpt>
      <trkpt lat="45.78936" lon="1.88698">
        <ele>702.2</ele>
        <time>2026-07-08T13:16:20.000Z</time>
      </trkpt>
      <trkpt lat="45.78936" lon="1.88701">
        <ele>701.9</ele>
        <time>2026-07-08T13:16:21.000Z</time>
      </trkpt>
      <trkpt lat="45.78935" lon="1.88702">
        <ele>702.4</ele>
        <time>2026-07-08T13:16:22.000Z</time>
      </trkpt>
      <trkpt lat="45.78935" lon="1.88705">
        <ele>702.2</ele>
        <time>2026-07-08T13:16:23.000Z</time>
      </trkpt>
      <trkpt lat="45.78934" lon="1.88707">
        <ele>702.2</ele>
        <time>2026-07-08T13:16:24.000Z</time>
      </trkpt>
      <trkpt lat="45.78934" lon="1.8871">
        <ele>702.4</ele>
        <time>2026-07-08T13:16:25.000Z</time>
      </trkpt>
      <trkpt lat="45.78933" lon="1.88712">
        <ele>702.5</ele>
        <time>2026-07-08T13:16:26.000Z</time>
      </trkpt>
      <trkpt lat="45.78933" lon="1.88715">
        <ele>702.4</ele>
        <time>2026-07-08T13:16:27.000Z</time>
      </trkpt>
      <trkpt lat="45.78932" lon="1.88717">
        <ele>702.7</ele>
        <time>2026-07-08T13:16:28.000Z</time>
      </trkpt>
      <trkpt lat="45.78932" lon="1.88721">
        <ele>703.1</ele>
        <time>2026-07-08T13:16:29.000Z</time>
      </trkpt>
      <trkpt lat="45.78931" lon="1.88725">
        <ele>703.4</ele>
        <time>2026-07-08T13:16:30.000Z</time>
      </trkpt>
      <trkpt lat="45.78931" lon="1.88728">
        <ele>703.3</ele>
        <time>2026-07-08T13:16:31.000Z</time>
      </trkpt>
      <trkpt lat="45.78931" lon="1.88732">
        <ele>703.9</ele>
        <time>2026-07-08T13:16:32.000Z</time>
      </trkpt>
      <trkpt lat="45.78931" lon="1.88734">
        <ele>704</ele>
        <time>2026-07-08T13:16:33.000Z</time>
      </trkpt>
      <trkpt lat="45.78932" lon="1.88736">
        <ele>704.5</ele>
        <time>2026-07-08T13:16:34.000Z</time>
      </trkpt>
      <trkpt lat="45.78932" lon="1.88738">
        <ele>704.8</ele>
        <time>2026-07-08T13:16:35.000Z</time>
      </trkpt>
      <trkpt lat="45.78933" lon="1.8874">
        <ele>704.8</ele>
        <time>2026-07-08T13:16:36.000Z</time>
      </trkpt>
      <trkpt lat="45.78934" lon="1.88742">
        <ele>704.7</ele>
        <time>2026-07-08T13:16:37.000Z</time>
      </trkpt>
      <trkpt lat="45.78934" lon="1.88744">
        <ele>704.8</ele>
        <time>2026-07-08T13:16:38.000Z</time>
      </trkpt>
      <trkpt lat="45.78935" lon="1.88746">
        <ele>704.6</ele>
        <time>2026-07-08T13:16:39.000Z</time>
      </trkpt>
      <trkpt lat="45.78936" lon="1.88747">
        <ele>704.4</ele>
        <time>2026-07-08T13:16:40.000Z</time>
      </trkpt>
      <trkpt lat="45.78937" lon="1.88748">
        <ele>703.4</ele>
        <time>2026-07-08T13:16:41.000Z</time>
      </trkpt>
      <trkpt lat="45.78939" lon="1.8875">
        <ele>702.8</ele>
        <time>2026-07-08T13:16:42.000Z</time>
      </trkpt>
      <trkpt lat="45.7894" lon="1.88751">
        <ele>702.5</ele>
        <time>2026-07-08T13:16:43.000Z</time>
      </trkpt>
      <trkpt lat="45.78941" lon="1.88753">
        <ele>702.2</ele>
        <time>2026-07-08T13:16:44.000Z</time>
      </trkpt>
      <trkpt lat="45.78943" lon="1.88754">
        <ele>701.9</ele>
        <time>2026-07-08T13:16:45.000Z</time>
      </trkpt>
      <trkpt lat="45.78944" lon="1.88755">
        <ele>701.8</ele>
        <time>2026-07-08T13:16:46.000Z</time>
      </trkpt>
      <trkpt lat="45.78946" lon="1.88757">
        <ele>701.4</ele>
        <time>2026-07-08T13:16:47.000Z</time>
      </trkpt>
      <trkpt lat="45.78947" lon="1.88758">
        <ele>701.4</ele>
        <time>2026-07-08T13:16:48.000Z</time>
      </trkpt>
      <trkpt lat="45.78949" lon="1.88759">
        <ele>700.9</ele>
        <time>2026-07-08T13:16:49.000Z</time>
      </trkpt>
      <trkpt lat="45.78951" lon="1.88762">
        <ele>701.5</ele>
        <time>2026-07-08T13:16:50.000Z</time>
      </trkpt>
      <trkpt lat="45.78953" lon="1.88764">
        <ele>701.5</ele>
        <time>2026-07-08T13:16:51.000Z</time>
      </trkpt>
      <trkpt lat="45.78954" lon="1.88766">
        <ele>701.6</ele>
        <time>2026-07-08T13:16:52.000Z</time>
      </trkpt>
      <trkpt lat="45.78956" lon="1.88768">
        <ele>701.1</ele>
        <time>2026-07-08T13:16:53.000Z</time>
      </trkpt>
      <trkpt lat="45.78957" lon="1.88769">
        <ele>701.5</ele>
        <time>2026-07-08T13:16:54.000Z</time>
      </trkpt>
      <trkpt lat="45.78959" lon="1.8877">
        <ele>701.8</ele>
        <time>2026-07-08T13:16:55.000Z</time>
      </trkpt>
      <trkpt lat="45.7896" lon="1.88772">
        <ele>702.3</ele>
        <time>2026-07-08T13:16:56.000Z</time>
      </trkpt>
      <trkpt lat="45.7896" lon="1.88774">
        <ele>702.2</ele>
        <time>2026-07-08T13:16:57.000Z</time>
      </trkpt>
      <trkpt lat="45.78961" lon="1.88776">
        <ele>702.5</ele>
        <time>2026-07-08T13:16:58.000Z</time>
      </trkpt>
      <trkpt lat="45.78962" lon="1.88777">
        <ele>701.9</ele>
        <time>2026-07-08T13:16:59.000Z</time>
      </trkpt>
      <trkpt lat="45.78964" lon="1.88779">
        <ele>701.9</ele>
        <time>2026-07-08T13:17:00.000Z</time>
      </trkpt>
      <trkpt lat="45.78965" lon="1.8878">
        <ele>702</ele>
        <time>2026-07-08T13:17:01.000Z</time>
      </trkpt>
      <trkpt lat="45.78965" lon="1.88782">
        <ele>702.3</ele>
        <time>2026-07-08T13:17:02.000Z</time>
      </trkpt>
      <trkpt lat="45.78966" lon="1.88784">
        <ele>701.6</ele>
        <time>2026-07-08T13:17:03.000Z</time>
      </trkpt>
      <trkpt lat="45.78966" lon="1.88786">
        <ele>701.6</ele>
        <time>2026-07-08T13:17:04.000Z</time>
      </trkpt>
      <trkpt lat="45.78968" lon="1.88789">
        <ele>701.8</ele>
        <time>2026-07-08T13:17:05.000Z</time>
      </trkpt>
      <trkpt lat="45.7897" lon="1.8879">
        <ele>701.8</ele>
        <time>2026-07-08T13:17:06.000Z</time>
      </trkpt>
      <trkpt lat="45.78971" lon="1.88793">
        <ele>702</ele>
        <time>2026-07-08T13:17:07.000Z</time>
      </trkpt>
      <trkpt lat="45.78972" lon="1.88796">
        <ele>703.5</ele>
        <time>2026-07-08T13:17:08.000Z</time>
      </trkpt>
      <trkpt lat="45.78971" lon="1.88799">
        <ele>704.4</ele>
        <time>2026-07-08T13:17:09.000Z</time>
      </trkpt>
      <trkpt lat="45.78971" lon="1.88801">
        <ele>704.5</ele>
        <time>2026-07-08T13:17:10.000Z</time>
      </trkpt>
      <trkpt lat="45.7897" lon="1.88802">
        <ele>704.1</ele>
        <time>2026-07-08T13:17:11.000Z</time>
      </trkpt>
      <trkpt lat="45.78969" lon="1.88803">
        <ele>703.2</ele>
        <time>2026-07-08T13:17:12.000Z</time>
      </trkpt>
      <trkpt lat="45.78968" lon="1.88805">
        <ele>703.3</ele>
        <time>2026-07-08T13:17:13.000Z</time>
      </trkpt>
      <trkpt lat="45.78968" lon="1.88806">
        <ele>702.6</ele>
        <time>2026-07-08T13:17:14.000Z</time>
      </trkpt>
      <trkpt lat="45.78968" lon="1.88809">
        <ele>702.7</ele>
        <time>2026-07-08T13:17:15.000Z</time>
      </trkpt>
      <trkpt lat="45.78969" lon="1.88813">
        <ele>704.3</ele>
        <time>2026-07-08T13:17:16.000Z</time>
      </trkpt>
      <trkpt lat="45.78969" lon="1.88818">
        <ele>706.1</ele>
        <time>2026-07-08T13:17:17.000Z</time>
      </trkpt>
      <trkpt lat="45.7897" lon="1.88822">
        <ele>707.4</ele>
        <time>2026-07-08T13:17:18.000Z</time>
      </trkpt>
      <trkpt lat="45.78968" lon="1.88825">
        <ele>708.4</ele>
        <time>2026-07-08T13:17:19.000Z</time>
      </trkpt>
      <trkpt lat="45.78968" lon="1.88825">
        <ele>708.6</ele>
        <time>2026-07-08T13:17:20.000Z</time>
      </trkpt>
      <trkpt lat="45.78968" lon="1.88825">
        <ele>708.6</ele>
        <time>2026-07-08T13:17:21.000Z</time>
      </trkpt>
      <trkpt lat="45.78968" lon="1.88826">
        <ele>708.3</ele>
        <time>2026-07-08T13:17:22.000Z</time>
      </trkpt>
      <trkpt lat="45.7897" lon="1.88828">
        <ele>708.9</ele>
        <time>2026-07-08T13:17:23.000Z</time>
      </trkpt>
      <trkpt lat="45.78969" lon="1.88832">
        <ele>708.4</ele>
        <time>2026-07-08T13:17:24.000Z</time>
      </trkpt>
      <trkpt lat="45.78967" lon="1.88834">
        <ele>709.7</ele>
        <time>2026-07-08T13:17:25.000Z</time>
      </trkpt>
      <trkpt lat="45.78966" lon="1.88836">
        <ele>709.6</ele>
        <time>2026-07-08T13:17:26.000Z</time>
      </trkpt>
      <trkpt lat="45.78966" lon="1.88838">
        <ele>709.9</ele>
        <time>2026-07-08T13:17:27.000Z</time>
      </trkpt>
      <trkpt lat="45.78966" lon="1.8884">
        <ele>709.3</ele>
        <time>2026-07-08T13:17:28.000Z</time>
      </trkpt>
      <trkpt lat="45.78965" lon="1.88842">
        <ele>709.6</ele>
        <time>2026-07-08T13:17:29.000Z</time>
      </trkpt>
      <trkpt lat="45.78964" lon="1.88844">
        <ele>709.6</ele>
        <time>2026-07-08T13:17:30.000Z</time>
      </trkpt>
      <trkpt lat="45.78964" lon="1.88846">
        <ele>708.8</ele>
        <time>2026-07-08T13:17:31.000Z</time>
      </trkpt>
      <trkpt lat="45.78963" lon="1.88848">
        <ele>707.3</ele>
        <time>2026-07-08T13:17:32.000Z</time>
      </trkpt>
      <trkpt lat="45.78963" lon="1.8885">
        <ele>706.7</ele>
        <time>2026-07-08T13:17:33.000Z</time>
      </trkpt>
      <trkpt lat="45.78963" lon="1.88852">
        <ele>707.2</ele>
        <time>2026-07-08T13:17:34.000Z</time>
      </trkpt>
      <trkpt lat="45.78962" lon="1.88854">
        <ele>707.9</ele>
        <time>2026-07-08T13:17:35.000Z</time>
      </trkpt>
      <trkpt lat="45.78962" lon="1.88855">
        <ele>707.7</ele>
        <time>2026-07-08T13:17:36.000Z</time>
      </trkpt>
      <trkpt lat="45.78962" lon="1.88857">
        <ele>708.7</ele>
        <time>2026-07-08T13:17:37.000Z</time>
      </trkpt>
      <trkpt lat="45.78961" lon="1.88859">
        <ele>708.6</ele>
        <time>2026-07-08T13:17:38.000Z</time>
      </trkpt>
      <trkpt lat="45.78961" lon="1.88861">
        <ele>708.2</ele>
        <time>2026-07-08T13:17:39.000Z</time>
      </trkpt>
      <trkpt lat="45.7896" lon="1.88862">
        <ele>709.1</ele>
        <time>2026-07-08T13:17:40.000Z</time>
      </trkpt>
      <trkpt lat="45.78959" lon="1.88863">
        <ele>708.7</ele>
        <time>2026-07-08T13:17:41.000Z</time>
      </trkpt>
      <trkpt lat="45.78958" lon="1.88864">
        <ele>708.4</ele>
        <time>2026-07-08T13:17:42.000Z</time>
      </trkpt>
      <trkpt lat="45.78957" lon="1.88866">
        <ele>707.6</ele>
        <time>2026-07-08T13:17:43.000Z</time>
      </trkpt>
      <trkpt lat="45.78956" lon="1.88866">
        <ele>707.1</ele>
        <time>2026-07-08T13:17:44.000Z</time>
      </trkpt>
      <trkpt lat="45.78954" lon="1.88866">
        <ele>707.1</ele>
        <time>2026-07-08T13:17:45.000Z</time>
      </trkpt>
      <trkpt lat="45.78953" lon="1.88866">
        <ele>707.1</ele>
        <time>2026-07-08T13:17:46.000Z</time>
      </trkpt>
      <trkpt lat="45.78952" lon="1.88867">
        <ele>706.7</ele>
        <time>2026-07-08T13:17:47.000Z</time>
      </trkpt>
      <trkpt lat="45.7895" lon="1.88868">
        <ele>707</ele>
        <time>2026-07-08T13:17:48.000Z</time>
      </trkpt>
      <trkpt lat="45.78949" lon="1.88869">
        <ele>706.7</ele>
        <time>2026-07-08T13:17:49.000Z</time>
      </trkpt>
      <trkpt lat="45.78948" lon="1.88869">
        <ele>706</ele>
        <time>2026-07-08T13:17:50.000Z</time>
      </trkpt>
      <trkpt lat="45.78946" lon="1.8887">
        <ele>705.9</ele>
        <time>2026-07-08T13:17:51.000Z</time>
      </trkpt>
      <trkpt lat="45.78945" lon="1.8887">
        <ele>707.1</ele>
        <time>2026-07-08T13:17:52.000Z</time>
      </trkpt>
      <trkpt lat="45.78943" lon="1.8887">
        <ele>706.6</ele>
        <time>2026-07-08T13:17:53.000Z</time>
      </trkpt>
      <trkpt lat="45.78941" lon="1.88871">
        <ele>706</ele>
        <time>2026-07-08T13:17:54.000Z</time>
      </trkpt>
      <trkpt lat="45.78939" lon="1.88871">
        <ele>705.9</ele>
        <time>2026-07-08T13:17:55.000Z</time>
      </trkpt>
      <trkpt lat="45.78936" lon="1.88872">
        <ele>706.9</ele>
        <time>2026-07-08T13:17:56.000Z</time>
      </trkpt>
      <trkpt lat="45.78934" lon="1.88873">
        <ele>706.3</ele>
        <time>2026-07-08T13:17:57.000Z</time>
      </trkpt>
      <trkpt lat="45.78932" lon="1.88874">
        <ele>706.5</ele>
        <time>2026-07-08T13:17:58.000Z</time>
      </trkpt>
      <trkpt lat="45.78931" lon="1.88876">
        <ele>706.3</ele>
        <time>2026-07-08T13:17:59.000Z</time>
      </trkpt>
      <trkpt lat="45.7893" lon="1.88878">
        <ele>705</ele>
        <time>2026-07-08T13:18:00.000Z</time>
      </trkpt>
      <trkpt lat="45.78929" lon="1.8888">
        <ele>705.8</ele>
        <time>2026-07-08T13:18:01.000Z</time>
      </trkpt>
      <trkpt lat="45.78928" lon="1.88883">
        <ele>706</ele>
        <time>2026-07-08T13:18:02.000Z</time>
      </trkpt>
      <trkpt lat="45.78927" lon="1.88886">
        <ele>705.5</ele>
        <time>2026-07-08T13:18:03.000Z</time>
      </trkpt>
      <trkpt lat="45.78926" lon="1.88887">
        <ele>706.8</ele>
        <time>2026-07-08T13:18:04.000Z</time>
      </trkpt>
      <trkpt lat="45.78925" lon="1.88889">
        <ele>706.4</ele>
        <time>2026-07-08T13:18:05.000Z</time>
      </trkpt>
      <trkpt lat="45.78924" lon="1.88891">
        <ele>706.6</ele>
        <time>2026-07-08T13:18:06.000Z</time>
      </trkpt>
      <trkpt lat="45.78923" lon="1.88892">
        <ele>707.5</ele>
        <time>2026-07-08T13:18:07.000Z</time>
      </trkpt>
      <trkpt lat="45.78922" lon="1.88894">
        <ele>707.5</ele>
        <time>2026-07-08T13:18:08.000Z</time>
      </trkpt>
      <trkpt lat="45.78921" lon="1.88896">
        <ele>707.9</ele>
        <time>2026-07-08T13:18:09.000Z</time>
      </trkpt>
      <trkpt lat="45.7892" lon="1.88899">
        <ele>707.8</ele>
        <time>2026-07-08T13:18:10.000Z</time>
      </trkpt>
      <trkpt lat="45.78919" lon="1.88901">
        <ele>708.5</ele>
        <time>2026-07-08T13:18:11.000Z</time>
      </trkpt>
      <trkpt lat="45.78919" lon="1.88903">
        <ele>707.8</ele>
        <time>2026-07-08T13:18:12.000Z</time>
      </trkpt>
      <trkpt lat="45.78918" lon="1.88905">
        <ele>707.7</ele>
        <time>2026-07-08T13:18:13.000Z</time>
      </trkpt>
      <trkpt lat="45.78917" lon="1.88907">
        <ele>708.4</ele>
        <time>2026-07-08T13:18:14.000Z</time>
      </trkpt>
      <trkpt lat="45.78916" lon="1.88909">
        <ele>708</ele>
        <time>2026-07-08T13:18:15.000Z</time>
      </trkpt>
      <trkpt lat="45.78915" lon="1.88911">
        <ele>707.5</ele>
        <time>2026-07-08T13:18:16.000Z</time>
      </trkpt>
      <trkpt lat="45.78915" lon="1.88913">
        <ele>707.5</ele>
        <time>2026-07-08T13:18:17.000Z</time>
      </trkpt>
      <trkpt lat="45.78914" lon="1.88915">
        <ele>707</ele>
        <time>2026-07-08T13:18:18.000Z</time>
      </trkpt>
      <trkpt lat="45.78913" lon="1.88916">
        <ele>707.6</ele>
        <time>2026-07-08T13:18:19.000Z</time>
      </trkpt>
      <trkpt lat="45.78913" lon="1.88918">
        <ele>708.2</ele>
        <time>2026-07-08T13:18:20.000Z</time>
      </trkpt>
      <trkpt lat="45.78912" lon="1.8892">
        <ele>708.9</ele>
        <time>2026-07-08T13:18:21.000Z</time>
      </trkpt>
      <trkpt lat="45.78912" lon="1.88921">
        <ele>708.8</ele>
        <time>2026-07-08T13:18:22.000Z</time>
      </trkpt>
      <trkpt lat="45.78911" lon="1.88923">
        <ele>708.9</ele>
        <time>2026-07-08T13:18:23.000Z</time>
      </trkpt>
      <trkpt lat="45.7891" lon="1.88925">
        <ele>709</ele>
        <time>2026-07-08T13:18:24.000Z</time>
      </trkpt>
      <trkpt lat="45.7891" lon="1.88928">
        <ele>708.7</ele>
        <time>2026-07-08T13:18:25.000Z</time>
      </trkpt>
      <trkpt lat="45.78909" lon="1.88931">
        <ele>708.3</ele>
        <time>2026-07-08T13:18:26.000Z</time>
      </trkpt>
      <trkpt lat="45.78909" lon="1.88933">
        <ele>709.3</ele>
        <time>2026-07-08T13:18:27.000Z</time>
      </trkpt>
      <trkpt lat="45.7891" lon="1.88936">
        <ele>709.9</ele>
        <time>2026-07-08T13:18:28.000Z</time>
      </trkpt>
      <trkpt lat="45.7891" lon="1.88938">
        <ele>710</ele>
        <time>2026-07-08T13:18:29.000Z</time>
      </trkpt>
      <trkpt lat="45.78911" lon="1.88941">
        <ele>709.6</ele>
        <time>2026-07-08T13:18:30.000Z</time>
      </trkpt>
      <trkpt lat="45.78911" lon="1.88943">
        <ele>708.9</ele>
        <time>2026-07-08T13:18:31.000Z</time>
      </trkpt>
      <trkpt lat="45.78911" lon="1.88946">
        <ele>708.3</ele>
        <time>2026-07-08T13:18:32.000Z</time>
      </trkpt>
      <trkpt lat="45.7891" lon="1.88949">
        <ele>708.8</ele>
        <time>2026-07-08T13:18:33.000Z</time>
      </trkpt>
      <trkpt lat="45.7891" lon="1.88952">
        <ele>709.2</ele>
        <time>2026-07-08T13:18:34.000Z</time>
      </trkpt>
      <trkpt lat="45.78911" lon="1.88955">
        <ele>708.9</ele>
        <time>2026-07-08T13:18:35.000Z</time>
      </trkpt>
      <trkpt lat="45.78912" lon="1.88958">
        <ele>708.9</ele>
        <time>2026-07-08T13:18:36.000Z</time>
      </trkpt>
      <trkpt lat="45.78913" lon="1.88962">
        <ele>709.6</ele>
        <time>2026-07-08T13:18:37.000Z</time>
      </trkpt>
      <trkpt lat="45.78914" lon="1.88963">
        <ele>710.1</ele>
        <time>2026-07-08T13:18:38.000Z</time>
      </trkpt>
      <trkpt lat="45.78916" lon="1.88963">
        <ele>710.8</ele>
        <time>2026-07-08T13:18:39.000Z</time>
      </trkpt>
      <trkpt lat="45.78918" lon="1.88963">
        <ele>709.7</ele>
        <time>2026-07-08T13:18:40.000Z</time>
      </trkpt>
      <trkpt lat="45.78921" lon="1.88963">
        <ele>709.9</ele>
        <time>2026-07-08T13:18:41.000Z</time>
      </trkpt>
      <trkpt lat="45.78923" lon="1.88961">
        <ele>707.2</ele>
        <time>2026-07-08T13:18:42.000Z</time>
      </trkpt>
      <trkpt lat="45.78925" lon="1.88962">
        <ele>706.1</ele>
        <time>2026-07-08T13:18:43.000Z</time>
      </trkpt>
      <trkpt lat="45.78927" lon="1.88962">
        <ele>706</ele>
        <time>2026-07-08T13:18:44.000Z</time>
      </trkpt>
      <trkpt lat="45.78929" lon="1.88962">
        <ele>704.9</ele>
        <time>2026-07-08T13:18:45.000Z</time>
      </trkpt>
      <trkpt lat="45.7893" lon="1.88962">
        <ele>704.3</ele>
        <time>2026-07-08T13:18:46.000Z</time>
      </trkpt>
      <trkpt lat="45.78933" lon="1.88962">
        <ele>704.4</ele>
        <time>2026-07-08T13:18:47.000Z</time>
      </trkpt>
      <trkpt lat="45.78934" lon="1.88962">
        <ele>705</ele>
        <time>2026-07-08T13:18:48.000Z</time>
      </trkpt>
      <trkpt lat="45.78935" lon="1.88961">
        <ele>705.4</ele>
        <time>2026-07-08T13:18:49.000Z</time>
      </trkpt>
      <trkpt lat="45.78937" lon="1.88961">
        <ele>704.9</ele>
        <time>2026-07-08T13:18:50.000Z</time>
      </trkpt>
      <trkpt lat="45.78938" lon="1.8896">
        <ele>704.1</ele>
        <time>2026-07-08T13:18:51.000Z</time>
      </trkpt>
      <trkpt lat="45.7894" lon="1.88959">
        <ele>703.9</ele>
        <time>2026-07-08T13:18:52.000Z</time>
      </trkpt>
      <trkpt lat="45.78942" lon="1.88959">
        <ele>704</ele>
        <time>2026-07-08T13:18:53.000Z</time>
      </trkpt>
      <trkpt lat="45.78944" lon="1.88958">
        <ele>703.9</ele>
        <time>2026-07-08T13:18:54.000Z</time>
      </trkpt>
      <trkpt lat="45.78945" lon="1.88958">
        <ele>703.9</ele>
        <time>2026-07-08T13:18:55.000Z</time>
      </trkpt>
      <trkpt lat="45.78947" lon="1.88958">
        <ele>703.3</ele>
        <time>2026-07-08T13:18:56.000Z</time>
      </trkpt>
      <trkpt lat="45.78949" lon="1.88959">
        <ele>704</ele>
        <time>2026-07-08T13:18:57.000Z</time>
      </trkpt>
      <trkpt lat="45.78951" lon="1.88958">
        <ele>703.1</ele>
        <time>2026-07-08T13:18:58.000Z</time>
      </trkpt>
      <trkpt lat="45.78953" lon="1.88958">
        <ele>703.3</ele>
        <time>2026-07-08T13:18:59.000Z</time>
      </trkpt>
      <trkpt lat="45.78955" lon="1.88957">
        <ele>703.5</ele>
        <time>2026-07-08T13:19:00.000Z</time>
      </trkpt>
      <trkpt lat="45.78957" lon="1.88957">
        <ele>702.3</ele>
        <time>2026-07-08T13:19:01.000Z</time>
      </trkpt>
      <trkpt lat="45.78959" lon="1.88956">
        <ele>703.3</ele>
        <time>2026-07-08T13:19:02.000Z</time>
      </trkpt>
      <trkpt lat="45.78961" lon="1.88956">
        <ele>703.2</ele>
        <time>2026-07-08T13:19:03.000Z</time>
      </trkpt>
      <trkpt lat="45.78963" lon="1.88956">
        <ele>703.1</ele>
        <time>2026-07-08T13:19:04.000Z</time>
      </trkpt>
      <trkpt lat="45.78966" lon="1.88956">
        <ele>704.2</ele>
        <time>2026-07-08T13:19:05.000Z</time>
      </trkpt>
      <trkpt lat="45.78968" lon="1.88955">
        <ele>705.7</ele>
        <time>2026-07-08T13:19:06.000Z</time>
      </trkpt>
      <trkpt lat="45.7897" lon="1.88954">
        <ele>706.3</ele>
        <time>2026-07-08T13:19:07.000Z</time>
      </trkpt>
      <trkpt lat="45.78971" lon="1.88954">
        <ele>706</ele>
        <time>2026-07-08T13:19:08.000Z</time>
      </trkpt>
      <trkpt lat="45.78972" lon="1.88953">
        <ele>707.8</ele>
        <time>2026-07-08T13:19:09.000Z</time>
      </trkpt>
      <trkpt lat="45.78974" lon="1.88953">
        <ele>707</ele>
        <time>2026-07-08T13:19:10.000Z</time>
      </trkpt>
      <trkpt lat="45.78976" lon="1.88953">
        <ele>706.8</ele>
        <time>2026-07-08T13:19:11.000Z</time>
      </trkpt>
      <trkpt lat="45.78978" lon="1.88953">
        <ele>706.3</ele>
        <time>2026-07-08T13:19:12.000Z</time>
      </trkpt>
      <trkpt lat="45.78979" lon="1.88952">
        <ele>706.3</ele>
        <time>2026-07-08T13:19:13.000Z</time>
      </trkpt>
      <trkpt lat="45.78981" lon="1.88952">
        <ele>706.3</ele>
        <time>2026-07-08T13:19:14.000Z</time>
      </trkpt>
      <trkpt lat="45.78982" lon="1.88951">
        <ele>706.2</ele>
        <time>2026-07-08T13:19:15.000Z</time>
      </trkpt>
      <trkpt lat="45.78984" lon="1.88951">
        <ele>706.1</ele>
        <time>2026-07-08T13:19:16.000Z</time>
      </trkpt>
      <trkpt lat="45.78986" lon="1.8895">
        <ele>706.8</ele>
        <time>2026-07-08T13:19:17.000Z</time>
      </trkpt>
      <trkpt lat="45.78987" lon="1.8895">
        <ele>707.8</ele>
        <time>2026-07-08T13:19:18.000Z</time>
      </trkpt>
      <trkpt lat="45.78989" lon="1.8895">
        <ele>708.6</ele>
        <time>2026-07-08T13:19:19.000Z</time>
      </trkpt>
      <trkpt lat="45.78991" lon="1.88949">
        <ele>708.7</ele>
        <time>2026-07-08T13:19:20.000Z</time>
      </trkpt>
      <trkpt lat="45.78992" lon="1.88949">
        <ele>708.9</ele>
        <time>2026-07-08T13:19:21.000Z</time>
      </trkpt>
      <trkpt lat="45.78993" lon="1.88948">
        <ele>708.6</ele>
        <time>2026-07-08T13:19:22.000Z</time>
      </trkpt>
      <trkpt lat="45.78995" lon="1.88947">
        <ele>707.7</ele>
        <time>2026-07-08T13:19:23.000Z</time>
      </trkpt>
      <trkpt lat="45.78996" lon="1.88946">
        <ele>707.6</ele>
        <time>2026-07-08T13:19:24.000Z</time>
      </trkpt>
      <trkpt lat="45.78997" lon="1.88945">
        <ele>708.2</ele>
        <time>2026-07-08T13:19:25.000Z</time>
      </trkpt>
      <trkpt lat="45.79" lon="1.88945">
        <ele>709.9</ele>
        <time>2026-07-08T13:19:26.000Z</time>
      </trkpt>
      <trkpt lat="45.79001" lon="1.88941">
        <ele>710.1</ele>
        <time>2026-07-08T13:19:27.000Z</time>
      </trkpt>
      <trkpt lat="45.79003" lon="1.88939">
        <ele>710</ele>
        <time>2026-07-08T13:19:28.000Z</time>
      </trkpt>
      <trkpt lat="45.79005" lon="1.88937">
        <ele>711.1</ele>
        <time>2026-07-08T13:19:29.000Z</time>
      </trkpt>
      <trkpt lat="45.79008" lon="1.88936">
        <ele>711.6</ele>
        <time>2026-07-08T13:19:30.000Z</time>
      </trkpt>
      <trkpt lat="45.79009" lon="1.88936">
        <ele>711.6</ele>
        <time>2026-07-08T13:19:31.000Z</time>
      </trkpt>
      <trkpt lat="45.79012" lon="1.88936">
        <ele>710.1</ele>
        <time>2026-07-08T13:19:32.000Z</time>
      </trkpt>
      <trkpt lat="45.79014" lon="1.88936">
        <ele>710.9</ele>
        <time>2026-07-08T13:19:33.000Z</time>
      </trkpt>
      <trkpt lat="45.79016" lon="1.88936">
        <ele>711.4</ele>
        <time>2026-07-08T13:19:34.000Z</time>
      </trkpt>
      <trkpt lat="45.79018" lon="1.88935">
        <ele>711.6</ele>
        <time>2026-07-08T13:19:35.000Z</time>
      </trkpt>
      <trkpt lat="45.7902" lon="1.88934">
        <ele>711.6</ele>
        <time>2026-07-08T13:19:36.000Z</time>
      </trkpt>
      <trkpt lat="45.79021" lon="1.88933">
        <ele>711</ele>
        <time>2026-07-08T13:19:37.000Z</time>
      </trkpt>
      <trkpt lat="45.79023" lon="1.88932">
        <ele>709.4</ele>
        <time>2026-07-08T13:19:38.000Z</time>
      </trkpt>
      <trkpt lat="45.79026" lon="1.88932">
        <ele>709</ele>
        <time>2026-07-08T13:19:39.000Z</time>
      </trkpt>
      <trkpt lat="45.79028" lon="1.88931">
        <ele>708.9</ele>
        <time>2026-07-08T13:19:40.000Z</time>
      </trkpt>
      <trkpt lat="45.7903" lon="1.88931">
        <ele>708.7</ele>
        <time>2026-07-08T13:19:41.000Z</time>
      </trkpt>
      <trkpt lat="45.79033" lon="1.88931">
        <ele>709.2</ele>
        <time>2026-07-08T13:19:42.000Z</time>
      </trkpt>
      <trkpt lat="45.79035" lon="1.88931">
        <ele>710</ele>
        <time>2026-07-08T13:19:43.000Z</time>
      </trkpt>
      <trkpt lat="45.79037" lon="1.8893">
        <ele>710.9</ele>
        <time>2026-07-08T13:19:44.000Z</time>
      </trkpt>
      <trkpt lat="45.79039" lon="1.88929">
        <ele>711</ele>
        <time>2026-07-08T13:19:45.000Z</time>
      </trkpt>
      <trkpt lat="45.79041" lon="1.88929">
        <ele>711.6</ele>
        <time>2026-07-08T13:19:46.000Z</time>
      </trkpt>
      <trkpt lat="45.79042" lon="1.88929">
        <ele>712.3</ele>
        <time>2026-07-08T13:19:47.000Z</time>
      </trkpt>
      <trkpt lat="45.79044" lon="1.88929">
        <ele>712.8</ele>
        <time>2026-07-08T13:19:48.000Z</time>
      </trkpt>
      <trkpt lat="45.79046" lon="1.8893">
        <ele>713.2</ele>
        <time>2026-07-08T13:19:49.000Z</time>
      </trkpt>
      <trkpt lat="45.79048" lon="1.88929">
        <ele>713.6</ele>
        <time>2026-07-08T13:19:50.000Z</time>
      </trkpt>
      <trkpt lat="45.7905" lon="1.88929">
        <ele>713.6</ele>
        <time>2026-07-08T13:19:51.000Z</time>
      </trkpt>
      <trkpt lat="45.79051" lon="1.88929">
        <ele>713.8</ele>
        <time>2026-07-08T13:19:52.000Z</time>
      </trkpt>
      <trkpt lat="45.79053" lon="1.88929">
        <ele>714.3</ele>
        <time>2026-07-08T13:19:53.000Z</time>
      </trkpt>
      <trkpt lat="45.79055" lon="1.88928">
        <ele>714.9</ele>
        <time>2026-07-08T13:19:54.000Z</time>
      </trkpt>
      <trkpt lat="45.79057" lon="1.88928">
        <ele>713.9</ele>
        <time>2026-07-08T13:19:55.000Z</time>
      </trkpt>
      <trkpt lat="45.79059" lon="1.88929">
        <ele>713.9</ele>
        <time>2026-07-08T13:19:56.000Z</time>
      </trkpt>
      <trkpt lat="45.7906" lon="1.8893">
        <ele>714</ele>
        <time>2026-07-08T13:19:57.000Z</time>
      </trkpt>
      <trkpt lat="45.79062" lon="1.8893">
        <ele>714.7</ele>
        <time>2026-07-08T13:19:58.000Z</time>
      </trkpt>
      <trkpt lat="45.79064" lon="1.8893">
        <ele>714.6</ele>
        <time>2026-07-08T13:19:59.000Z</time>
      </trkpt>
      <trkpt lat="45.79066" lon="1.8893">
        <ele>714.6</ele>
        <time>2026-07-08T13:20:00.000Z</time>
      </trkpt>
      <trkpt lat="45.79067" lon="1.8893">
        <ele>714</ele>
        <time>2026-07-08T13:20:01.000Z</time>
      </trkpt>
      <trkpt lat="45.79069" lon="1.8893">
        <ele>714.5</ele>
        <time>2026-07-08T13:20:02.000Z</time>
      </trkpt>
      <trkpt lat="45.79071" lon="1.8893">
        <ele>713.7</ele>
        <time>2026-07-08T13:20:03.000Z</time>
      </trkpt>
      <trkpt lat="45.79073" lon="1.88931">
        <ele>712.8</ele>
        <time>2026-07-08T13:20:04.000Z</time>
      </trkpt>
      <trkpt lat="45.79074" lon="1.88931">
        <ele>712.2</ele>
        <time>2026-07-08T13:20:05.000Z</time>
      </trkpt>
      <trkpt lat="45.79076" lon="1.88932">
        <ele>711.7</ele>
        <time>2026-07-08T13:20:06.000Z</time>
      </trkpt>
      <trkpt lat="45.79078" lon="1.88933">
        <ele>711.4</ele>
        <time>2026-07-08T13:20:07.000Z</time>
      </trkpt>
      <trkpt lat="45.79079" lon="1.88933">
        <ele>711.3</ele>
        <time>2026-07-08T13:20:08.000Z</time>
      </trkpt>
      <trkpt lat="45.79081" lon="1.88934">
        <ele>710.9</ele>
        <time>2026-07-08T13:20:09.000Z</time>
      </trkpt>
      <trkpt lat="45.79082" lon="1.88933">
        <ele>711.3</ele>
        <time>2026-07-08T13:20:10.000Z</time>
      </trkpt>
      <trkpt lat="45.79083" lon="1.88933">
        <ele>711.5</ele>
        <time>2026-07-08T13:20:11.000Z</time>
      </trkpt>
      <trkpt lat="45.79084" lon="1.88934">
        <ele>711.3</ele>
        <time>2026-07-08T13:20:12.000Z</time>
      </trkpt>
      <trkpt lat="45.79085" lon="1.88936">
        <ele>711.2</ele>
        <time>2026-07-08T13:20:13.000Z</time>
      </trkpt>
      <trkpt lat="45.79086" lon="1.88937">
        <ele>710.9</ele>
        <time>2026-07-08T13:20:14.000Z</time>
      </trkpt>
      <trkpt lat="45.79087" lon="1.88939">
        <ele>711.3</ele>
        <time>2026-07-08T13:20:15.000Z</time>
      </trkpt>
      <trkpt lat="45.79088" lon="1.8894">
        <ele>710.4</ele>
        <time>2026-07-08T13:20:16.000Z</time>
      </trkpt>
      <trkpt lat="45.7909" lon="1.88941">
        <ele>709.6</ele>
        <time>2026-07-08T13:20:17.000Z</time>
      </trkpt>
      <trkpt lat="45.79092" lon="1.88943">
        <ele>709.4</ele>
        <time>2026-07-08T13:20:18.000Z</time>
      </trkpt>
      <trkpt lat="45.79093" lon="1.88944">
        <ele>709.6</ele>
        <time>2026-07-08T13:20:19.000Z</time>
      </trkpt>
      <trkpt lat="45.79095" lon="1.88946">
        <ele>709.6</ele>
        <time>2026-07-08T13:20:20.000Z</time>
      </trkpt>
      <trkpt lat="45.79096" lon="1.88947">
        <ele>708.8</ele>
        <time>2026-07-08T13:20:21.000Z</time>
      </trkpt>
      <trkpt lat="45.79098" lon="1.88949">
        <ele>708.7</ele>
        <time>2026-07-08T13:20:22.000Z</time>
      </trkpt>
      <trkpt lat="45.791" lon="1.88951">
        <ele>708.2</ele>
        <time>2026-07-08T13:20:23.000Z</time>
      </trkpt>
      <trkpt lat="45.79102" lon="1.88953">
        <ele>708.2</ele>
        <time>2026-07-08T13:20:24.000Z</time>
      </trkpt>
      <trkpt lat="45.79102" lon="1.88955">
        <ele>708</ele>
        <time>2026-07-08T13:20:25.000Z</time>
      </trkpt>
      <trkpt lat="45.79104" lon="1.88957">
        <ele>708.4</ele>
        <time>2026-07-08T13:20:26.000Z</time>
      </trkpt>
      <trkpt lat="45.79105" lon="1.88959">
        <ele>708.5</ele>
        <time>2026-07-08T13:20:27.000Z</time>
      </trkpt>
      <trkpt lat="45.79106" lon="1.88961">
        <ele>708</ele>
        <time>2026-07-08T13:20:28.000Z</time>
      </trkpt>
      <trkpt lat="45.79107" lon="1.88963">
        <ele>707.4</ele>
        <time>2026-07-08T13:20:29.000Z</time>
      </trkpt>
      <trkpt lat="45.79108" lon="1.88964">
        <ele>707</ele>
        <time>2026-07-08T13:20:30.000Z</time>
      </trkpt>
      <trkpt lat="45.79109" lon="1.88966">
        <ele>706.7</ele>
        <time>2026-07-08T13:20:31.000Z</time>
      </trkpt>
      <trkpt lat="45.7911" lon="1.88968">
        <ele>706.1</ele>
        <time>2026-07-08T13:20:32.000Z</time>
      </trkpt>
      <trkpt lat="45.79111" lon="1.8897">
        <ele>705.1</ele>
        <time>2026-07-08T13:20:33.000Z</time>
      </trkpt>
      <trkpt lat="45.79111" lon="1.88972">
        <ele>705.2</ele>
        <time>2026-07-08T13:20:34.000Z</time>
      </trkpt>
      <trkpt lat="45.79112" lon="1.88975">
        <ele>704.6</ele>
        <time>2026-07-08T13:20:35.000Z</time>
      </trkpt>
      <trkpt lat="45.79113" lon="1.88977">
        <ele>704.4</ele>
        <time>2026-07-08T13:20:36.000Z</time>
      </trkpt>
      <trkpt lat="45.79114" lon="1.88979">
        <ele>704.8</ele>
        <time>2026-07-08T13:20:37.000Z</time>
      </trkpt>
      <trkpt lat="45.79115" lon="1.88981">
        <ele>704</ele>
        <time>2026-07-08T13:20:38.000Z</time>
      </trkpt>
      <trkpt lat="45.79116" lon="1.88984">
        <ele>704.1</ele>
        <time>2026-07-08T13:20:39.000Z</time>
      </trkpt>
      <trkpt lat="45.79117" lon="1.88986">
        <ele>704.1</ele>
        <time>2026-07-08T13:20:40.000Z</time>
      </trkpt>
      <trkpt lat="45.79118" lon="1.88987">
        <ele>703.8</ele>
        <time>2026-07-08T13:20:41.000Z</time>
      </trkpt>
      <trkpt lat="45.79119" lon="1.88989">
        <ele>704.1</ele>
        <time>2026-07-08T13:20:42.000Z</time>
      </trkpt>
      <trkpt lat="45.79119" lon="1.88991">
        <ele>704.5</ele>
        <time>2026-07-08T13:20:43.000Z</time>
      </trkpt>
      <trkpt lat="45.7912" lon="1.88993">
        <ele>704.7</ele>
        <time>2026-07-08T13:20:44.000Z</time>
      </trkpt>
      <trkpt lat="45.79121" lon="1.88995">
        <ele>704.9</ele>
        <time>2026-07-08T13:20:45.000Z</time>
      </trkpt>
      <trkpt lat="45.79122" lon="1.88996">
        <ele>703.9</ele>
        <time>2026-07-08T13:20:46.000Z</time>
      </trkpt>
      <trkpt lat="45.79123" lon="1.88998">
        <ele>703.4</ele>
        <time>2026-07-08T13:20:47.000Z</time>
      </trkpt>
      <trkpt lat="45.79124" lon="1.88999">
        <ele>702.8</ele>
        <time>2026-07-08T13:20:48.000Z</time>
      </trkpt>
      <trkpt lat="45.79125" lon="1.89">
        <ele>702.6</ele>
        <time>2026-07-08T13:20:49.000Z</time>
      </trkpt>
      <trkpt lat="45.79126" lon="1.89002">
        <ele>702</ele>
        <time>2026-07-08T13:20:50.000Z</time>
      </trkpt>
      <trkpt lat="45.79127" lon="1.89004">
        <ele>701.4</ele>
        <time>2026-07-08T13:20:51.000Z</time>
      </trkpt>
      <trkpt lat="45.79128" lon="1.89006">
        <ele>701.4</ele>
        <time>2026-07-08T13:20:52.000Z</time>
      </trkpt>
      <trkpt lat="45.79129" lon="1.89007">
        <ele>700.9</ele>
        <time>2026-07-08T13:20:53.000Z</time>
      </trkpt>
      <trkpt lat="45.7913" lon="1.89009">
        <ele>701</ele>
        <time>2026-07-08T13:20:54.000Z</time>
      </trkpt>
      <trkpt lat="45.79131" lon="1.89011">
        <ele>700</ele>
        <time>2026-07-08T13:20:55.000Z</time>
      </trkpt>
      <trkpt lat="45.79132" lon="1.89013">
        <ele>699.6</ele>
        <time>2026-07-08T13:20:56.000Z</time>
      </trkpt>
      <trkpt lat="45.79134" lon="1.89016">
        <ele>699.5</ele>
        <time>2026-07-08T13:20:57.000Z</time>
      </trkpt>
      <trkpt lat="45.79135" lon="1.89019">
        <ele>698.7</ele>
        <time>2026-07-08T13:20:58.000Z</time>
      </trkpt>
      <trkpt lat="45.79136" lon="1.89021">
        <ele>697.8</ele>
        <time>2026-07-08T13:20:59.000Z</time>
      </trkpt>
      <trkpt lat="45.79138" lon="1.89023">
        <ele>697.1</ele>
        <time>2026-07-08T13:21:00.000Z</time>
      </trkpt>
      <trkpt lat="45.79139" lon="1.89026">
        <ele>696.3</ele>
        <time>2026-07-08T13:21:01.000Z</time>
      </trkpt>
      <trkpt lat="45.7914" lon="1.89028">
        <ele>696</ele>
        <time>2026-07-08T13:21:02.000Z</time>
      </trkpt>
      <trkpt lat="45.79141" lon="1.89029">
        <ele>695.9</ele>
        <time>2026-07-08T13:21:03.000Z</time>
      </trkpt>
      <trkpt lat="45.79142" lon="1.8903">
        <ele>695.8</ele>
        <time>2026-07-08T13:21:04.000Z</time>
      </trkpt>
      <trkpt lat="45.79143" lon="1.89032">
        <ele>695.9</ele>
        <time>2026-07-08T13:21:05.000Z</time>
      </trkpt>
      <trkpt lat="45.79144" lon="1.89034">
        <ele>696.1</ele>
        <time>2026-07-08T13:21:06.000Z</time>
      </trkpt>
      <trkpt lat="45.79145" lon="1.89035">
        <ele>694.9</ele>
        <time>2026-07-08T13:21:07.000Z</time>
      </trkpt>
      <trkpt lat="45.79147" lon="1.89038">
        <ele>694.9</ele>
        <time>2026-07-08T13:21:08.000Z</time>
      </trkpt>
      <trkpt lat="45.79148" lon="1.8904">
        <ele>693.7</ele>
        <time>2026-07-08T13:21:09.000Z</time>
      </trkpt>
      <trkpt lat="45.7915" lon="1.89042">
        <ele>694.2</ele>
        <time>2026-07-08T13:21:10.000Z</time>
      </trkpt>
      <trkpt lat="45.7915" lon="1.89044">
        <ele>695.2</ele>
        <time>2026-07-08T13:21:11.000Z</time>
      </trkpt>
      <trkpt lat="45.79151" lon="1.89045">
        <ele>697.2</ele>
        <time>2026-07-08T13:21:12.000Z</time>
      </trkpt>
      <trkpt lat="45.79151" lon="1.89046">
        <ele>697.3</ele>
        <time>2026-07-08T13:21:13.000Z</time>
      </trkpt>
      <trkpt lat="45.79152" lon="1.89048">
        <ele>696.8</ele>
        <time>2026-07-08T13:21:14.000Z</time>
      </trkpt>
      <trkpt lat="45.79152" lon="1.8905">
        <ele>696.6</ele>
        <time>2026-07-08T13:21:15.000Z</time>
      </trkpt>
      <trkpt lat="45.79153" lon="1.89053">
        <ele>696.1</ele>
        <time>2026-07-08T13:21:16.000Z</time>
      </trkpt>
      <trkpt lat="45.79154" lon="1.89055">
        <ele>697.3</ele>
        <time>2026-07-08T13:21:17.000Z</time>
      </trkpt>
      <trkpt lat="45.79155" lon="1.89058">
        <ele>696</ele>
        <time>2026-07-08T13:21:18.000Z</time>
      </trkpt>
      <trkpt lat="45.79155" lon="1.8906">
        <ele>696.5</ele>
        <time>2026-07-08T13:21:19.000Z</time>
      </trkpt>
      <trkpt lat="45.79156" lon="1.89063">
        <ele>696.5</ele>
        <time>2026-07-08T13:21:20.000Z</time>
      </trkpt>
      <trkpt lat="45.79156" lon="1.89066">
        <ele>697.8</ele>
        <time>2026-07-08T13:21:21.000Z</time>
      </trkpt>
      <trkpt lat="45.79158" lon="1.89069">
        <ele>698.1</ele>
        <time>2026-07-08T13:21:22.000Z</time>
      </trkpt>
      <trkpt lat="45.79158" lon="1.89072">
        <ele>698.9</ele>
        <time>2026-07-08T13:21:23.000Z</time>
      </trkpt>
      <trkpt lat="45.79159" lon="1.89074">
        <ele>701.3</ele>
        <time>2026-07-08T13:21:24.000Z</time>
      </trkpt>
      <trkpt lat="45.79159" lon="1.89077">
        <ele>702.2</ele>
        <time>2026-07-08T13:21:25.000Z</time>
      </trkpt>
      <trkpt lat="45.7916" lon="1.89079">
        <ele>702.3</ele>
        <time>2026-07-08T13:21:26.000Z</time>
      </trkpt>
      <trkpt lat="45.7916" lon="1.89082">
        <ele>701.3</ele>
        <time>2026-07-08T13:21:27.000Z</time>
      </trkpt>
      <trkpt lat="45.7916" lon="1.89085">
        <ele>702.2</ele>
        <time>2026-07-08T13:21:28.000Z</time>
      </trkpt>
      <trkpt lat="45.7916" lon="1.89088">
        <ele>702.4</ele>
        <time>2026-07-08T13:21:29.000Z</time>
      </trkpt>
      <trkpt lat="45.7916" lon="1.8909">
        <ele>703.3</ele>
        <time>2026-07-08T13:21:30.000Z</time>
      </trkpt>
      <trkpt lat="45.7916" lon="1.89093">
        <ele>703.4</ele>
        <time>2026-07-08T13:21:31.000Z</time>
      </trkpt>
      <trkpt lat="45.7916" lon="1.89096">
        <ele>703.4</ele>
        <time>2026-07-08T13:21:32.000Z</time>
      </trkpt>
      <trkpt lat="45.79161" lon="1.89098">
        <ele>702.8</ele>
        <time>2026-07-08T13:21:33.000Z</time>
      </trkpt>
      <trkpt lat="45.79161" lon="1.89101">
        <ele>703.5</ele>
        <time>2026-07-08T13:21:34.000Z</time>
      </trkpt>
      <trkpt lat="45.79161" lon="1.89104">
        <ele>704.3</ele>
        <time>2026-07-08T13:21:35.000Z</time>
      </trkpt>
      <trkpt lat="45.79162" lon="1.89107">
        <ele>703.5</ele>
        <time>2026-07-08T13:21:36.000Z</time>
      </trkpt>
      <trkpt lat="45.79162" lon="1.89109">
        <ele>704.4</ele>
        <time>2026-07-08T13:21:37.000Z</time>
      </trkpt>
      <trkpt lat="45.79162" lon="1.89112">
        <ele>704.6</ele>
        <time>2026-07-08T13:21:38.000Z</time>
      </trkpt>
      <trkpt lat="45.79161" lon="1.89115">
        <ele>705.1</ele>
        <time>2026-07-08T13:21:39.000Z</time>
      </trkpt>
      <trkpt lat="45.79161" lon="1.89118">
        <ele>704.6</ele>
        <time>2026-07-08T13:21:40.000Z</time>
      </trkpt>
      <trkpt lat="45.79162" lon="1.89121">
        <ele>704</ele>
        <time>2026-07-08T13:21:41.000Z</time>
      </trkpt>
      <trkpt lat="45.79162" lon="1.89124">
        <ele>703.1</ele>
        <time>2026-07-08T13:21:42.000Z</time>
      </trkpt>
      <trkpt lat="45.79162" lon="1.89126">
        <ele>702.8</ele>
        <time>2026-07-08T13:21:43.000Z</time>
      </trkpt>
      <trkpt lat="45.79162" lon="1.89128">
        <ele>702.2</ele>
        <time>2026-07-08T13:21:44.000Z</time>
      </trkpt>
      <trkpt lat="45.79162" lon="1.8913">
        <ele>701.5</ele>
        <time>2026-07-08T13:21:45.000Z</time>
      </trkpt>
      <trkpt lat="45.79163" lon="1.89132">
        <ele>700.6</ele>
        <time>2026-07-08T13:21:46.000Z</time>
      </trkpt>
      <trkpt lat="45.79162" lon="1.89135">
        <ele>701.4</ele>
        <time>2026-07-08T13:21:47.000Z</time>
      </trkpt>
      <trkpt lat="45.79162" lon="1.89138">
        <ele>702.3</ele>
        <time>2026-07-08T13:21:48.000Z</time>
      </trkpt>
      <trkpt lat="45.79162" lon="1.89141">
        <ele>703.9</ele>
        <time>2026-07-08T13:21:49.000Z</time>
      </trkpt>
      <trkpt lat="45.79161" lon="1.89144">
        <ele>704.6</ele>
        <time>2026-07-08T13:21:50.000Z</time>
      </trkpt>
      <trkpt lat="45.7916" lon="1.89146">
        <ele>704.8</ele>
        <time>2026-07-08T13:21:51.000Z</time>
      </trkpt>
      <trkpt lat="45.7916" lon="1.89148">
        <ele>706.9</ele>
        <time>2026-07-08T13:21:52.000Z</time>
      </trkpt>
      <trkpt lat="45.79159" lon="1.89151">
        <ele>711.4</ele>
        <time>2026-07-08T13:21:53.000Z</time>
      </trkpt>
      <trkpt lat="45.79159" lon="1.89154">
        <ele>712.8</ele>
        <time>2026-07-08T13:21:54.000Z</time>
      </trkpt>
      <trkpt lat="45.79158" lon="1.89156">
        <ele>713.8</ele>
        <time>2026-07-08T13:21:55.000Z</time>
      </trkpt>
      <trkpt lat="45.79157" lon="1.89159">
        <ele>714.7</ele>
        <time>2026-07-08T13:21:56.000Z</time>
      </trkpt>
      <trkpt lat="45.79157" lon="1.89161">
        <ele>714.2</ele>
        <time>2026-07-08T13:21:57.000Z</time>
      </trkpt>
      <trkpt lat="45.79157" lon="1.89163">
        <ele>714.3</ele>
        <time>2026-07-08T13:21:58.000Z</time>
      </trkpt>
      <trkpt lat="45.79156" lon="1.89166">
        <ele>715.9</ele>
        <time>2026-07-08T13:21:59.000Z</time>
      </trkpt>
      <trkpt lat="45.79155" lon="1.89169">
        <ele>717.1</ele>
        <time>2026-07-08T13:22:00.000Z</time>
      </trkpt>
      <trkpt lat="45.79154" lon="1.89171">
        <ele>717.1</ele>
        <time>2026-07-08T13:22:01.000Z</time>
      </trkpt>
      <trkpt lat="45.79154" lon="1.89173">
        <ele>716.8</ele>
        <time>2026-07-08T13:22:02.000Z</time>
      </trkpt>
      <trkpt lat="45.79153" lon="1.89175">
        <ele>716.4</ele>
        <time>2026-07-08T13:22:03.000Z</time>
      </trkpt>
      <trkpt lat="45.79153" lon="1.89177">
        <ele>716</ele>
        <time>2026-07-08T13:22:04.000Z</time>
      </trkpt>
      <trkpt lat="45.79152" lon="1.8918">
        <ele>716.9</ele>
        <time>2026-07-08T13:22:05.000Z</time>
      </trkpt>
      <trkpt lat="45.79152" lon="1.89182">
        <ele>717.2</ele>
        <time>2026-07-08T13:22:06.000Z</time>
      </trkpt>
      <trkpt lat="45.79151" lon="1.89185">
        <ele>716.4</ele>
        <time>2026-07-08T13:22:07.000Z</time>
      </trkpt>
      <trkpt lat="45.79151" lon="1.89187">
        <ele>715.8</ele>
        <time>2026-07-08T13:22:08.000Z</time>
      </trkpt>
      <trkpt lat="45.7915" lon="1.89189">
        <ele>715.2</ele>
        <time>2026-07-08T13:22:09.000Z</time>
      </trkpt>
      <trkpt lat="45.79149" lon="1.89192">
        <ele>714.8</ele>
        <time>2026-07-08T13:22:10.000Z</time>
      </trkpt>
      <trkpt lat="45.79148" lon="1.89195">
        <ele>714.8</ele>
        <time>2026-07-08T13:22:11.000Z</time>
      </trkpt>
      <trkpt lat="45.79147" lon="1.89198">
        <ele>714.6</ele>
        <time>2026-07-08T13:22:12.000Z</time>
      </trkpt>
      <trkpt lat="45.79146" lon="1.89202">
        <ele>714.8</ele>
        <time>2026-07-08T13:22:13.000Z</time>
      </trkpt>
      <trkpt lat="45.79146" lon="1.89203">
        <ele>714.3</ele>
        <time>2026-07-08T13:22:14.000Z</time>
      </trkpt>
      <trkpt lat="45.79144" lon="1.89204">
        <ele>714.7</ele>
        <time>2026-07-08T13:22:15.000Z</time>
      </trkpt>
      <trkpt lat="45.79142" lon="1.89205">
        <ele>715.1</ele>
        <time>2026-07-08T13:22:16.000Z</time>
      </trkpt>
      <trkpt lat="45.7914" lon="1.89206">
        <ele>715.1</ele>
        <time>2026-07-08T13:22:17.000Z</time>
      </trkpt>
      <trkpt lat="45.79139" lon="1.89207">
        <ele>715.4</ele>
        <time>2026-07-08T13:22:18.000Z</time>
      </trkpt>
      <trkpt lat="45.79138" lon="1.89209">
        <ele>716.1</ele>
        <time>2026-07-08T13:22:19.000Z</time>
      </trkpt>
      <trkpt lat="45.79136" lon="1.89211">
        <ele>715.4</ele>
        <time>2026-07-08T13:22:20.000Z</time>
      </trkpt>
      <trkpt lat="45.79135" lon="1.89212">
        <ele>714.6</ele>
        <time>2026-07-08T13:22:21.000Z</time>
      </trkpt>
      <trkpt lat="45.79134" lon="1.89214">
        <ele>715.1</ele>
        <time>2026-07-08T13:22:22.000Z</time>
      </trkpt>
      <trkpt lat="45.79132" lon="1.89215">
        <ele>714.5</ele>
        <time>2026-07-08T13:22:23.000Z</time>
      </trkpt>
      <trkpt lat="45.79131" lon="1.89217">
        <ele>714.9</ele>
        <time>2026-07-08T13:22:24.000Z</time>
      </trkpt>
      <trkpt lat="45.7913" lon="1.89218">
        <ele>713.7</ele>
        <time>2026-07-08T13:22:25.000Z</time>
      </trkpt>
      <trkpt lat="45.79129" lon="1.89218">
        <ele>713.3</ele>
        <time>2026-07-08T13:22:26.000Z</time>
      </trkpt>
      <trkpt lat="45.79129" lon="1.89219">
        <ele>712.7</ele>
        <time>2026-07-08T13:22:27.000Z</time>
      </trkpt>
      <trkpt lat="45.79128" lon="1.89219">
        <ele>712.8</ele>
        <time>2026-07-08T13:22:28.000Z</time>
      </trkpt>
      <trkpt lat="45.79126" lon="1.89219">
        <ele>712.8</ele>
        <time>2026-07-08T13:22:29.000Z</time>
      </trkpt>
      <trkpt lat="45.79125" lon="1.8922">
        <ele>713.1</ele>
        <time>2026-07-08T13:22:30.000Z</time>
      </trkpt>
      <trkpt lat="45.79123" lon="1.89221">
        <ele>712.6</ele>
        <time>2026-07-08T13:22:31.000Z</time>
      </trkpt>
      <trkpt lat="45.79122" lon="1.89222">
        <ele>712.5</ele>
        <time>2026-07-08T13:22:32.000Z</time>
      </trkpt>
      <trkpt lat="45.79121" lon="1.89223">
        <ele>712.8</ele>
        <time>2026-07-08T13:22:33.000Z</time>
      </trkpt>
      <trkpt lat="45.79119" lon="1.89223">
        <ele>713.5</ele>
        <time>2026-07-08T13:22:34.000Z</time>
      </trkpt>
      <trkpt lat="45.79117" lon="1.89224">
        <ele>713.7</ele>
        <time>2026-07-08T13:22:35.000Z</time>
      </trkpt>
      <trkpt lat="45.79115" lon="1.89225">
        <ele>713.4</ele>
        <time>2026-07-08T13:22:36.000Z</time>
      </trkpt>
      <trkpt lat="45.79113" lon="1.89225">
        <ele>713.4</ele>
        <time>2026-07-08T13:22:37.000Z</time>
      </trkpt>
      <trkpt lat="45.79114" lon="1.89224">
        <ele>712.9</ele>
        <time>2026-07-08T13:22:38.000Z</time>
      </trkpt>
      <trkpt lat="45.79114" lon="1.89224">
        <ele>712.9</ele>
        <time>2026-07-08T13:22:39.000Z</time>
      </trkpt>
      <trkpt lat="45.79114" lon="1.89224">
        <ele>712.9</ele>
        <time>2026-07-08T13:22:40.000Z</time>
      </trkpt>
      <trkpt lat="45.79114" lon="1.89224">
        <ele>712.9</ele>
        <time>2026-07-08T13:22:41.000Z</time>
      </trkpt>
      <trkpt lat="45.79114" lon="1.89224">
        <ele>712.9</ele>
        <time>2026-07-08T13:22:42.000Z</time>
      </trkpt>
      <trkpt lat="45.79114" lon="1.89224">
        <ele>712.9</ele>
        <time>2026-07-08T13:22:43.000Z</time>
      </trkpt>
      <trkpt lat="45.79114" lon="1.89224">
        <ele>713</ele>
        <time>2026-07-08T13:22:44.000Z</time>
      </trkpt>
      <trkpt lat="45.79113" lon="1.89225">
        <ele>712.6</ele>
        <time>2026-07-08T13:22:45.000Z</time>
      </trkpt>
      <trkpt lat="45.79112" lon="1.89226">
        <ele>711.8</ele>
        <time>2026-07-08T13:22:46.000Z</time>
      </trkpt>
      <trkpt lat="45.7911" lon="1.89227">
        <ele>711.5</ele>
        <time>2026-07-08T13:22:47.000Z</time>
      </trkpt>
      <trkpt lat="45.79109" lon="1.89229">
        <ele>710.5</ele>
        <time>2026-07-08T13:22:48.000Z</time>
      </trkpt>
      <trkpt lat="45.79108" lon="1.89231">
        <ele>710.2</ele>
        <time>2026-07-08T13:22:49.000Z</time>
      </trkpt>
      <trkpt lat="45.79108" lon="1.89234">
        <ele>709.9</ele>
        <time>2026-07-08T13:22:50.000Z</time>
      </trkpt>
      <trkpt lat="45.79108" lon="1.89236">
        <ele>709.5</ele>
        <time>2026-07-08T13:22:51.000Z</time>
      </trkpt>
      <trkpt lat="45.79108" lon="1.89238">
        <ele>707.6</ele>
        <time>2026-07-08T13:22:52.000Z</time>
      </trkpt>
      <trkpt lat="45.79107" lon="1.8924">
        <ele>706.3</ele>
        <time>2026-07-08T13:22:53.000Z</time>
      </trkpt>
      <trkpt lat="45.79107" lon="1.89244">
        <ele>706.7</ele>
        <time>2026-07-08T13:22:54.000Z</time>
      </trkpt>
      <trkpt lat="45.79107" lon="1.89247">
        <ele>706.8</ele>
        <time>2026-07-08T13:22:55.000Z</time>
      </trkpt>
      <trkpt lat="45.79107" lon="1.89249">
        <ele>706.8</ele>
        <time>2026-07-08T13:22:56.000Z</time>
      </trkpt>
      <trkpt lat="45.79107" lon="1.89252">
        <ele>707.2</ele>
        <time>2026-07-08T13:22:57.000Z</time>
      </trkpt>
      <trkpt lat="45.79106" lon="1.89255">
        <ele>706</ele>
        <time>2026-07-08T13:22:58.000Z</time>
      </trkpt>
      <trkpt lat="45.79105" lon="1.89256">
        <ele>706</ele>
        <time>2026-07-08T13:22:59.000Z</time>
      </trkpt>
      <trkpt lat="45.79104" lon="1.89258">
        <ele>706.2</ele>
        <time>2026-07-08T13:23:00.000Z</time>
      </trkpt>
      <trkpt lat="45.79104" lon="1.8926">
        <ele>706.8</ele>
        <time>2026-07-08T13:23:01.000Z</time>
      </trkpt>
      <trkpt lat="45.79104" lon="1.89263">
        <ele>706.6</ele>
        <time>2026-07-08T13:23:02.000Z</time>
      </trkpt>
      <trkpt lat="45.79103" lon="1.89266">
        <ele>705.7</ele>
        <time>2026-07-08T13:23:03.000Z</time>
      </trkpt>
      <trkpt lat="45.79102" lon="1.89269">
        <ele>705.4</ele>
        <time>2026-07-08T13:23:04.000Z</time>
      </trkpt>
      <trkpt lat="45.79102" lon="1.89272">
        <ele>705.8</ele>
        <time>2026-07-08T13:23:05.000Z</time>
      </trkpt>
      <trkpt lat="45.79102" lon="1.89275">
        <ele>705.1</ele>
        <time>2026-07-08T13:23:06.000Z</time>
      </trkpt>
      <trkpt lat="45.79102" lon="1.89277">
        <ele>704.6</ele>
        <time>2026-07-08T13:23:07.000Z</time>
      </trkpt>
      <trkpt lat="45.79102" lon="1.8928">
        <ele>704.4</ele>
        <time>2026-07-08T13:23:08.000Z</time>
      </trkpt>
      <trkpt lat="45.79102" lon="1.89283">
        <ele>704</ele>
        <time>2026-07-08T13:23:09.000Z</time>
      </trkpt>
      <trkpt lat="45.79102" lon="1.89285">
        <ele>703.5</ele>
        <time>2026-07-08T13:23:10.000Z</time>
      </trkpt>
      <trkpt lat="45.79103" lon="1.89287">
        <ele>702.5</ele>
        <time>2026-07-08T13:23:11.000Z</time>
      </trkpt>
      <trkpt lat="45.79103" lon="1.89289">
        <ele>701.3</ele>
        <time>2026-07-08T13:23:12.000Z</time>
      </trkpt>
      <trkpt lat="45.79103" lon="1.89292">
        <ele>701.3</ele>
        <time>2026-07-08T13:23:13.000Z</time>
      </trkpt>
      <trkpt lat="45.79104" lon="1.89294">
        <ele>701.2</ele>
        <time>2026-07-08T13:23:14.000Z</time>
      </trkpt>
      <trkpt lat="45.79104" lon="1.89297">
        <ele>701.1</ele>
        <time>2026-07-08T13:23:15.000Z</time>
      </trkpt>
      <trkpt lat="45.79105" lon="1.89299">
        <ele>700.8</ele>
        <time>2026-07-08T13:23:16.000Z</time>
      </trkpt>
      <trkpt lat="45.79106" lon="1.89301">
        <ele>699.8</ele>
        <time>2026-07-08T13:23:17.000Z</time>
      </trkpt>
      <trkpt lat="45.79106" lon="1.89304">
        <ele>700.3</ele>
        <time>2026-07-08T13:23:18.000Z</time>
      </trkpt>
      <trkpt lat="45.79107" lon="1.89306">
        <ele>700.5</ele>
        <time>2026-07-08T13:23:19.000Z</time>
      </trkpt>
      <trkpt lat="45.79107" lon="1.89308">
        <ele>700.4</ele>
        <time>2026-07-08T13:23:20.000Z</time>
      </trkpt>
      <trkpt lat="45.79108" lon="1.89311">
        <ele>701</ele>
        <time>2026-07-08T13:23:21.000Z</time>
      </trkpt>
      <trkpt lat="45.79108" lon="1.89313">
        <ele>701.3</ele>
        <time>2026-07-08T13:23:22.000Z</time>
      </trkpt>
      <trkpt lat="45.79108" lon="1.89315">
        <ele>701.5</ele>
        <time>2026-07-08T13:23:23.000Z</time>
      </trkpt>
      <trkpt lat="45.79107" lon="1.89319">
        <ele>702.6</ele>
        <time>2026-07-08T13:23:24.000Z</time>
      </trkpt>
      <trkpt lat="45.79106" lon="1.89321">
        <ele>704.7</ele>
        <time>2026-07-08T13:23:25.000Z</time>
      </trkpt>
      <trkpt lat="45.79106" lon="1.89323">
        <ele>705.9</ele>
        <time>2026-07-08T13:23:26.000Z</time>
      </trkpt>
      <trkpt lat="45.79105" lon="1.89325">
        <ele>706.2</ele>
        <time>2026-07-08T13:23:27.000Z</time>
      </trkpt>
      <trkpt lat="45.79105" lon="1.89327">
        <ele>706.4</ele>
        <time>2026-07-08T13:23:28.000Z</time>
      </trkpt>
      <trkpt lat="45.79103" lon="1.89329">
        <ele>706.9</ele>
        <time>2026-07-08T13:23:29.000Z</time>
      </trkpt>
      <trkpt lat="45.79103" lon="1.89331">
        <ele>707.3</ele>
        <time>2026-07-08T13:23:30.000Z</time>
      </trkpt>
      <trkpt lat="45.79103" lon="1.89332">
        <ele>707.4</ele>
        <time>2026-07-08T13:23:31.000Z</time>
      </trkpt>
      <trkpt lat="45.79102" lon="1.89334">
        <ele>707.7</ele>
        <time>2026-07-08T13:23:32.000Z</time>
      </trkpt>
      <trkpt lat="45.79101" lon="1.89336">
        <ele>706.9</ele>
        <time>2026-07-08T13:23:33.000Z</time>
      </trkpt>
      <trkpt lat="45.79101" lon="1.89338">
        <ele>706</ele>
        <time>2026-07-08T13:23:34.000Z</time>
      </trkpt>
      <trkpt lat="45.79101" lon="1.8934">
        <ele>705.2</ele>
        <time>2026-07-08T13:23:35.000Z</time>
      </trkpt>
      <trkpt lat="45.79101" lon="1.89342">
        <ele>704.7</ele>
        <time>2026-07-08T13:23:36.000Z</time>
      </trkpt>
      <trkpt lat="45.79101" lon="1.89345">
        <ele>705.1</ele>
        <time>2026-07-08T13:23:37.000Z</time>
      </trkpt>
      <trkpt lat="45.79102" lon="1.89347">
        <ele>705.7</ele>
        <time>2026-07-08T13:23:38.000Z</time>
      </trkpt>
      <trkpt lat="45.79101" lon="1.89348">
        <ele>705.9</ele>
        <time>2026-07-08T13:23:39.000Z</time>
      </trkpt>
      <trkpt lat="45.79101" lon="1.8935">
        <ele>706.4</ele>
        <time>2026-07-08T13:23:40.000Z</time>
      </trkpt>
      <trkpt lat="45.79101" lon="1.89352">
        <ele>706.6</ele>
        <time>2026-07-08T13:23:41.000Z</time>
      </trkpt>
      <trkpt lat="45.79101" lon="1.89354">
        <ele>706.7</ele>
        <time>2026-07-08T13:23:42.000Z</time>
      </trkpt>
      <trkpt lat="45.79101" lon="1.89356">
        <ele>706.4</ele>
        <time>2026-07-08T13:23:43.000Z</time>
      </trkpt>
      <trkpt lat="45.79101" lon="1.89358">
        <ele>705.9</ele>
        <time>2026-07-08T13:23:44.000Z</time>
      </trkpt>
      <trkpt lat="45.79101" lon="1.89361">
        <ele>705.9</ele>
        <time>2026-07-08T13:23:45.000Z</time>
      </trkpt>
      <trkpt lat="45.79101" lon="1.89363">
        <ele>705.5</ele>
        <time>2026-07-08T13:23:46.000Z</time>
      </trkpt>
      <trkpt lat="45.79101" lon="1.89365">
        <ele>705.3</ele>
        <time>2026-07-08T13:23:47.000Z</time>
      </trkpt>
      <trkpt lat="45.791" lon="1.89368">
        <ele>705.2</ele>
        <time>2026-07-08T13:23:48.000Z</time>
      </trkpt>
      <trkpt lat="45.79103" lon="1.8937">
        <ele>705.5</ele>
        <time>2026-07-08T13:23:49.000Z</time>
      </trkpt>
      <trkpt lat="45.79103" lon="1.89373">
        <ele>705.2</ele>
        <time>2026-07-08T13:23:50.000Z</time>
      </trkpt>
      <trkpt lat="45.79101" lon="1.89375">
        <ele>704.3</ele>
        <time>2026-07-08T13:23:51.000Z</time>
      </trkpt>
      <trkpt lat="45.79101" lon="1.89377">
        <ele>703.9</ele>
        <time>2026-07-08T13:23:52.000Z</time>
      </trkpt>
      <trkpt lat="45.791" lon="1.8938">
        <ele>703.9</ele>
        <time>2026-07-08T13:23:53.000Z</time>
      </trkpt>
      <trkpt lat="45.791" lon="1.89382">
        <ele>703.7</ele>
        <time>2026-07-08T13:23:54.000Z</time>
      </trkpt>
      <trkpt lat="45.79099" lon="1.89384">
        <ele>703.3</ele>
        <time>2026-07-08T13:23:55.000Z</time>
      </trkpt>
      <trkpt lat="45.79099" lon="1.89387">
        <ele>703.1</ele>
        <time>2026-07-08T13:23:56.000Z</time>
      </trkpt>
      <trkpt lat="45.79099" lon="1.89389">
        <ele>703.1</ele>
        <time>2026-07-08T13:23:57.000Z</time>
      </trkpt>
      <trkpt lat="45.79099" lon="1.89392">
        <ele>703.2</ele>
        <time>2026-07-08T13:23:58.000Z</time>
      </trkpt>
      <trkpt lat="45.79099" lon="1.89394">
        <ele>703.6</ele>
        <time>2026-07-08T13:23:59.000Z</time>
      </trkpt>
      <trkpt lat="45.79099" lon="1.89396">
        <ele>703.5</ele>
        <time>2026-07-08T13:24:00.000Z</time>
      </trkpt>
      <trkpt lat="45.79098" lon="1.89398">
        <ele>703.3</ele>
        <time>2026-07-08T13:24:01.000Z</time>
      </trkpt>
      <trkpt lat="45.79098" lon="1.894">
        <ele>703.9</ele>
        <time>2026-07-08T13:24:02.000Z</time>
      </trkpt>
      <trkpt lat="45.79098" lon="1.89402">
        <ele>703.9</ele>
        <time>2026-07-08T13:24:03.000Z</time>
      </trkpt>
      <trkpt lat="45.79098" lon="1.89405">
        <ele>703.6</ele>
        <time>2026-07-08T13:24:04.000Z</time>
      </trkpt>
      <trkpt lat="45.79097" lon="1.89407">
        <ele>703.2</ele>
        <time>2026-07-08T13:24:05.000Z</time>
      </trkpt>
      <trkpt lat="45.79097" lon="1.89409">
        <ele>703.1</ele>
        <time>2026-07-08T13:24:06.000Z</time>
      </trkpt>
      <trkpt lat="45.79097" lon="1.89412">
        <ele>703.2</ele>
        <time>2026-07-08T13:24:07.000Z</time>
      </trkpt>
      <trkpt lat="45.79097" lon="1.89415">
        <ele>703.3</ele>
        <time>2026-07-08T13:24:08.000Z</time>
      </trkpt>
      <trkpt lat="45.79097" lon="1.89418">
        <ele>703.8</ele>
        <time>2026-07-08T13:24:09.000Z</time>
      </trkpt>
      <trkpt lat="45.79097" lon="1.89421">
        <ele>703.8</ele>
        <time>2026-07-08T13:24:10.000Z</time>
      </trkpt>
      <trkpt lat="45.79098" lon="1.89424">
        <ele>704</ele>
        <time>2026-07-08T13:24:11.000Z</time>
      </trkpt>
      <trkpt lat="45.79099" lon="1.89426">
        <ele>703.9</ele>
        <time>2026-07-08T13:24:12.000Z</time>
      </trkpt>
      <trkpt lat="45.791" lon="1.89427">
        <ele>703.4</ele>
        <time>2026-07-08T13:24:13.000Z</time>
      </trkpt>
      <trkpt lat="45.79101" lon="1.89427">
        <ele>702.8</ele>
        <time>2026-07-08T13:24:14.000Z</time>
      </trkpt>
      <trkpt lat="45.79101" lon="1.89429">
        <ele>702.9</ele>
        <time>2026-07-08T13:24:15.000Z</time>
      </trkpt>
      <trkpt lat="45.79102" lon="1.89431">
        <ele>703.1</ele>
        <time>2026-07-08T13:24:16.000Z</time>
      </trkpt>
      <trkpt lat="45.79103" lon="1.89432">
        <ele>702.5</ele>
        <time>2026-07-08T13:24:17.000Z</time>
      </trkpt>
      <trkpt lat="45.79104" lon="1.89433">
        <ele>702.7</ele>
        <time>2026-07-08T13:24:18.000Z</time>
      </trkpt>
      <trkpt lat="45.79105" lon="1.89434">
        <ele>702.9</ele>
        <time>2026-07-08T13:24:19.000Z</time>
      </trkpt>
      <trkpt lat="45.79105" lon="1.89433">
        <ele>702.4</ele>
        <time>2026-07-08T13:24:20.000Z</time>
      </trkpt>
      <trkpt lat="45.79105" lon="1.89433">
        <ele>702.3</ele>
        <time>2026-07-08T13:24:21.000Z</time>
      </trkpt>
      <trkpt lat="45.79105" lon="1.89433">
        <ele>702.3</ele>
        <time>2026-07-08T13:24:22.000Z</time>
      </trkpt>
      <trkpt lat="45.79105" lon="1.89433">
        <ele>702.2</ele>
        <time>2026-07-08T13:24:23.000Z</time>
      </trkpt>
      <trkpt lat="45.79106" lon="1.89433">
        <ele>702.1</ele>
        <time>2026-07-08T13:24:24.000Z</time>
      </trkpt>
      <trkpt lat="45.79106" lon="1.89434">
        <ele>701.9</ele>
        <time>2026-07-08T13:24:25.000Z</time>
      </trkpt>
      <trkpt lat="45.79107" lon="1.89435">
        <ele>701.8</ele>
        <time>2026-07-08T13:24:26.000Z</time>
      </trkpt>
      <trkpt lat="45.79107" lon="1.89436">
        <ele>701.4</ele>
        <time>2026-07-08T13:24:27.000Z</time>
      </trkpt>
      <trkpt lat="45.79109" lon="1.89436">
        <ele>701.7</ele>
        <time>2026-07-08T13:24:28.000Z</time>
      </trkpt>
      <trkpt lat="45.79109" lon="1.89436">
        <ele>701.6</ele>
        <time>2026-07-08T13:24:29.000Z</time>
      </trkpt>
      <trkpt lat="45.79109" lon="1.89436">
        <ele>701.6</ele>
        <time>2026-07-08T13:24:30.000Z</time>
      </trkpt>
      <trkpt lat="45.79109" lon="1.89436">
        <ele>701.6</ele>
        <time>2026-07-08T13:24:31.000Z</time>
      </trkpt>
      <trkpt lat="45.79109" lon="1.89436">
        <ele>701.6</ele>
        <time>2026-07-08T13:24:32.000Z</time>
      </trkpt>
      <trkpt lat="45.79109" lon="1.89436">
        <ele>701.6</ele>
        <time>2026-07-08T13:24:33.000Z</time>
      </trkpt>
      <trkpt lat="45.79109" lon="1.89436">
        <ele>701.6</ele>
        <time>2026-07-08T13:24:34.000Z</time>
      </trkpt>
      <trkpt lat="45.79109" lon="1.89436">
        <ele>701.6</ele>
        <time>2026-07-08T13:24:35.000Z</time>
      </trkpt>
      <trkpt lat="45.79109" lon="1.89436">
        <ele>701.6</ele>
        <time>2026-07-08T13:24:36.000Z</time>
      </trkpt>
      <trkpt lat="45.79109" lon="1.89436">
        <ele>701.6</ele>
        <time>2026-07-08T13:24:37.000Z</time>
      </trkpt>
      <trkpt lat="45.79109" lon="1.89436">
        <ele>701.6</ele>
        <time>2026-07-08T13:24:38.000Z</time>
      </trkpt>
      <trkpt lat="45.79109" lon="1.89436">
        <ele>701.6</ele>
        <time>2026-07-08T13:24:39.000Z</time>
      </trkpt>
      <trkpt lat="45.79109" lon="1.89436">
        <ele>701.6</ele>
        <time>2026-07-08T13:24:40.000Z</time>
      </trkpt>
      <trkpt lat="45.79109" lon="1.89436">
        <ele>701.6</ele>
        <time>2026-07-08T13:24:41.000Z</time>
      </trkpt>
      <trkpt lat="45.79109" lon="1.89436">
        <ele>701.6</ele>
        <time>2026-07-08T13:24:42.000Z</time>
      </trkpt>
      <trkpt lat="45.79109" lon="1.89436">
        <ele>701.6</ele>
        <time>2026-07-08T13:24:43.000Z</time>
      </trkpt>
      <trkpt lat="45.79109" lon="1.89436">
        <ele>701.6</ele>
        <time>2026-07-08T13:24:44.000Z</time>
      </trkpt>
      <trkpt lat="45.79109" lon="1.89436">
        <ele>701.6</ele>
        <time>2026-07-08T13:24:45.000Z</time>
      </trkpt>
      <trkpt lat="45.79109" lon="1.89436">
        <ele>701.6</ele>
        <time>2026-07-08T13:24:46.000Z</time>
      </trkpt>
      <trkpt lat="45.79109" lon="1.89436">
        <ele>701.6</ele>
        <time>2026-07-08T13:24:47.000Z</time>
      </trkpt>
      <trkpt lat="45.79109" lon="1.89436">
        <ele>701.6</ele>
        <time>2026-07-08T13:24:48.000Z</time>
      </trkpt>
      <trkpt lat="45.79109" lon="1.89436">
        <ele>701.6</ele>
        <time>2026-07-08T13:24:49.000Z</time>
      </trkpt>
      <trkpt lat="45.79109" lon="1.89436">
        <ele>701.8</ele>
        <time>2026-07-08T13:24:50.000Z</time>
      </trkpt>
      <trkpt lat="45.79109" lon="1.89436">
        <ele>701.8</ele>
        <time>2026-07-08T13:24:51.000Z</time>
      </trkpt>
      <trkpt lat="45.79109" lon="1.89435">
        <ele>701.9</ele>
        <time>2026-07-08T13:24:52.000Z</time>
      </trkpt>
      <trkpt lat="45.79108" lon="1.89435">
        <ele>702</ele>
        <time>2026-07-08T13:24:53.000Z</time>
      </trkpt>
      <trkpt lat="45.79108" lon="1.89435">
        <ele>702</ele>
        <time>2026-07-08T13:24:54.000Z</time>
      </trkpt>
      <trkpt lat="45.79108" lon="1.89435">
        <ele>702</ele>
        <time>2026-07-08T13:24:55.000Z</time>
      </trkpt>
      <trkpt lat="45.79108" lon="1.89435">
        <ele>702</ele>
        <time>2026-07-08T13:24:56.000Z</time>
      </trkpt>
      <trkpt lat="45.79108" lon="1.89435">
        <ele>702</ele>
        <time>2026-07-08T13:24:57.000Z</time>
      </trkpt>
      <trkpt lat="45.79108" lon="1.89435">
        <ele>702</ele>
        <time>2026-07-08T13:24:58.000Z</time>
      </trkpt>
      <trkpt lat="45.79108" lon="1.89435">
        <ele>702</ele>
        <time>2026-07-08T13:24:59.000Z</time>
      </trkpt>
      <trkpt lat="45.79108" lon="1.89435">
        <ele>701.8</ele>
        <time>2026-07-08T13:25:00.000Z</time>
      </trkpt>
      <trkpt lat="45.79107" lon="1.89435">
        <ele>702</ele>
        <time>2026-07-08T13:25:01.000Z</time>
      </trkpt>
      <trkpt lat="45.79107" lon="1.89435">
        <ele>702.1</ele>
        <time>2026-07-08T13:25:02.000Z</time>
      </trkpt>
      <trkpt lat="45.79105" lon="1.89434">
        <ele>702.2</ele>
        <time>2026-07-08T13:25:03.000Z</time>
      </trkpt>
      <trkpt lat="45.79105" lon="1.89434">
        <ele>702.2</ele>
        <time>2026-07-08T13:25:04.000Z</time>
      </trkpt>
      <trkpt lat="45.79104" lon="1.89434">
        <ele>702.2</ele>
        <time>2026-07-08T13:25:05.000Z</time>
      </trkpt>
      <trkpt lat="45.79104" lon="1.89434">
        <ele>702.2</ele>
        <time>2026-07-08T13:25:06.000Z</time>
      </trkpt>
      <trkpt lat="45.79104" lon="1.89434">
        <ele>702.2</ele>
        <time>2026-07-08T13:25:07.000Z</time>
      </trkpt>
      <trkpt lat="45.79104" lon="1.89434">
        <ele>702.2</ele>
        <time>2026-07-08T13:25:08.000Z</time>
      </trkpt>
      <trkpt lat="45.79104" lon="1.89434">
        <ele>702.2</ele>
        <time>2026-07-08T13:25:09.000Z</time>
      </trkpt>
      <trkpt lat="45.79104" lon="1.89434">
        <ele>702.2</ele>
        <time>2026-07-08T13:25:10.000Z</time>
      </trkpt>
      <trkpt lat="45.79104" lon="1.89434">
        <ele>702.2</ele>
        <time>2026-07-08T13:25:11.000Z</time>
      </trkpt>
      <trkpt lat="45.79104" lon="1.89434">
        <ele>702.2</ele>
        <time>2026-07-08T13:25:12.000Z</time>
      </trkpt>
      <trkpt lat="45.79104" lon="1.89434">
        <ele>702.2</ele>
        <time>2026-07-08T13:25:13.000Z</time>
      </trkpt>
      <trkpt lat="45.79104" lon="1.89434">
        <ele>702.2</ele>
        <time>2026-07-08T13:25:14.000Z</time>
      </trkpt>
      <trkpt lat="45.79104" lon="1.89434">
        <ele>702.2</ele>
        <time>2026-07-08T13:25:15.000Z</time>
      </trkpt>
      <trkpt lat="45.79103" lon="1.89434">
        <ele>702</ele>
        <time>2026-07-08T13:25:16.000Z</time>
      </trkpt>
      <trkpt lat="45.79101" lon="1.89433">
        <ele>701.2</ele>
        <time>2026-07-08T13:25:17.000Z</time>
      </trkpt>
      <trkpt lat="45.79102" lon="1.89428">
        <ele>699.6</ele>
        <time>2026-07-08T13:25:18.000Z</time>
      </trkpt>
      <trkpt lat="45.79102" lon="1.89426">
        <ele>698.3</ele>
        <time>2026-07-08T13:25:19.000Z</time>
      </trkpt>
      <trkpt lat="45.79104" lon="1.89427">
        <ele>696.9</ele>
        <time>2026-07-08T13:25:20.000Z</time>
      </trkpt>
      <trkpt lat="45.79105" lon="1.89429">
        <ele>696.9</ele>
        <time>2026-07-08T13:25:21.000Z</time>
      </trkpt>
      <trkpt lat="45.79107" lon="1.8943">
        <ele>697.3</ele>
        <time>2026-07-08T13:25:22.000Z</time>
      </trkpt>
      <trkpt lat="45.79107" lon="1.89432">
        <ele>697.6</ele>
        <time>2026-07-08T13:25:23.000Z</time>
      </trkpt>
      <trkpt lat="45.79108" lon="1.89433">
        <ele>697.9</ele>
        <time>2026-07-08T13:25:24.000Z</time>
      </trkpt>
      <trkpt lat="45.79108" lon="1.89433">
        <ele>697.9</ele>
        <time>2026-07-08T13:25:25.000Z</time>
      </trkpt>
      <trkpt lat="45.79108" lon="1.89434">
        <ele>697.9</ele>
        <time>2026-07-08T13:25:26.000Z</time>
      </trkpt>
      <trkpt lat="45.79108" lon="1.89434">
        <ele>697.9</ele>
        <time>2026-07-08T13:25:27.000Z</time>
      </trkpt>
      <trkpt lat="45.79108" lon="1.89434">
        <ele>697.9</ele>
        <time>2026-07-08T13:25:28.000Z</time>
      </trkpt>
      <trkpt lat="45.79109" lon="1.89434">
        <ele>697.9</ele>
        <time>2026-07-08T13:25:29.000Z</time>
      </trkpt>
      <trkpt lat="45.79109" lon="1.89434">
        <ele>697.8</ele>
        <time>2026-07-08T13:25:30.000Z</time>
      </trkpt>
      <trkpt lat="45.79109" lon="1.89434">
        <ele>697.8</ele>
        <time>2026-07-08T13:25:31.000Z</time>
      </trkpt>
      <trkpt lat="45.79109" lon="1.89435">
        <ele>697.8</ele>
        <time>2026-07-08T13:25:32.000Z</time>
      </trkpt>
      <trkpt lat="45.79109" lon="1.89435">
        <ele>697.8</ele>
        <time>2026-07-08T13:25:33.000Z</time>
      </trkpt>
      <trkpt lat="45.79109" lon="1.89435">
        <ele>697.8</ele>
        <time>2026-07-08T13:25:34.000Z</time>
      </trkpt>
      <trkpt lat="45.79109" lon="1.89435">
        <ele>697.8</ele>
        <time>2026-07-08T13:25:35.000Z</time>
      </trkpt>
      <trkpt lat="45.79109" lon="1.89435">
        <ele>698</ele>
        <time>2026-07-08T13:25:36.000Z</time>
      </trkpt>
      <trkpt lat="45.79109" lon="1.89435">
        <ele>698.3</ele>
        <time>2026-07-08T13:25:37.000Z</time>
      </trkpt>
      <trkpt lat="45.79109" lon="1.89435">
        <ele>698.4</ele>
        <time>2026-07-08T13:25:38.000Z</time>
      </trkpt>
      <trkpt lat="45.7911" lon="1.89435">
        <ele>698.4</ele>
        <time>2026-07-08T13:25:39.000Z</time>
      </trkpt>
      <trkpt lat="45.79111" lon="1.89435">
        <ele>698.6</ele>
        <time>2026-07-08T13:25:40.000Z</time>
      </trkpt>
      <trkpt lat="45.79111" lon="1.89434">
        <ele>698.7</ele>
        <time>2026-07-08T13:25:41.000Z</time>
      </trkpt>
      <trkpt lat="45.79112" lon="1.89433">
        <ele>698.6</ele>
        <time>2026-07-08T13:25:42.000Z</time>
      </trkpt>
      <trkpt lat="45.79111" lon="1.89432">
        <ele>699.5</ele>
        <time>2026-07-08T13:25:43.000Z</time>
      </trkpt>
      <trkpt lat="45.7911" lon="1.89431">
        <ele>699.4</ele>
        <time>2026-07-08T13:25:44.000Z</time>
      </trkpt>
      <trkpt lat="45.79109" lon="1.89431">
        <ele>699.6</ele>
        <time>2026-07-08T13:25:45.000Z</time>
      </trkpt>
      <trkpt lat="45.79107" lon="1.89431">
        <ele>699.9</ele>
        <time>2026-07-08T13:25:46.000Z</time>
      </trkpt>
      <trkpt lat="45.79106" lon="1.89431">
        <ele>699.8</ele>
        <time>2026-07-08T13:25:47.000Z</time>
      </trkpt>
      <trkpt lat="45.79105" lon="1.89432">
        <ele>699.9</ele>
        <time>2026-07-08T13:25:48.000Z</time>
      </trkpt>
      <trkpt lat="45.79104" lon="1.89433">
        <ele>699.9</ele>
        <time>2026-07-08T13:25:49.000Z</time>
      </trkpt>
      <trkpt lat="45.79104" lon="1.89434">
        <ele>699.9</ele>
        <time>2026-07-08T13:25:50.000Z</time>
      </trkpt>
      <trkpt lat="45.79104" lon="1.89434">
        <ele>700</ele>
        <time>2026-07-08T13:25:51.000Z</time>
      </trkpt>
      <trkpt lat="45.79104" lon="1.89434">
        <ele>700</ele>
        <time>2026-07-08T13:25:52.000Z</time>
      </trkpt>
      <trkpt lat="45.79103" lon="1.89434">
        <ele>700.2</ele>
        <time>2026-07-08T13:25:53.000Z</time>
      </trkpt>
      <trkpt lat="45.79102" lon="1.89435">
        <ele>700.6</ele>
        <time>2026-07-08T13:25:54.000Z</time>
      </trkpt>
      <trkpt lat="45.79101" lon="1.89436">
        <ele>700.6</ele>
        <time>2026-07-08T13:25:55.000Z</time>
      </trkpt>
      <trkpt lat="45.791" lon="1.89437">
        <ele>700.8</ele>
        <time>2026-07-08T13:25:56.000Z</time>
      </trkpt>
      <trkpt lat="45.79098" lon="1.89439">
        <ele>700.9</ele>
        <time>2026-07-08T13:25:57.000Z</time>
      </trkpt>
      <trkpt lat="45.79097" lon="1.8944">
        <ele>701.5</ele>
        <time>2026-07-08T13:25:58.000Z</time>
      </trkpt>
      <trkpt lat="45.79096" lon="1.89441">
        <ele>700.3</ele>
        <time>2026-07-08T13:25:59.000Z</time>
      </trkpt>
      <trkpt lat="45.79096" lon="1.89444">
        <ele>701.4</ele>
        <time>2026-07-08T13:26:00.000Z</time>
      </trkpt>
      <trkpt lat="45.79097" lon="1.89446">
        <ele>701.5</ele>
        <time>2026-07-08T13:26:01.000Z</time>
      </trkpt>
      <trkpt lat="45.79097" lon="1.89448">
        <ele>701.1</ele>
        <time>2026-07-08T13:26:02.000Z</time>
      </trkpt>
      <trkpt lat="45.79097" lon="1.8945">
        <ele>701.1</ele>
        <time>2026-07-08T13:26:03.000Z</time>
      </trkpt>
      <trkpt lat="45.79097" lon="1.89452">
        <ele>701.1</ele>
        <time>2026-07-08T13:26:04.000Z</time>
      </trkpt>
      <trkpt lat="45.79097" lon="1.89454">
        <ele>700.7</ele>
        <time>2026-07-08T13:26:05.000Z</time>
      </trkpt>
      <trkpt lat="45.79097" lon="1.89456">
        <ele>700.7</ele>
        <time>2026-07-08T13:26:06.000Z</time>
      </trkpt>
      <trkpt lat="45.79097" lon="1.89458">
        <ele>700.6</ele>
        <time>2026-07-08T13:26:07.000Z</time>
      </trkpt>
      <trkpt lat="45.79097" lon="1.8946">
        <ele>700.2</ele>
        <time>2026-07-08T13:26:08.000Z</time>
      </trkpt>
      <trkpt lat="45.79097" lon="1.89462">
        <ele>699.9</ele>
        <time>2026-07-08T13:26:09.000Z</time>
      </trkpt>
      <trkpt lat="45.79097" lon="1.89464">
        <ele>699.6</ele>
        <time>2026-07-08T13:26:10.000Z</time>
      </trkpt>
      <trkpt lat="45.79098" lon="1.89467">
        <ele>700.1</ele>
        <time>2026-07-08T13:26:11.000Z</time>
      </trkpt>
      <trkpt lat="45.79098" lon="1.89469">
        <ele>699.7</ele>
        <time>2026-07-08T13:26:12.000Z</time>
      </trkpt>
      <trkpt lat="45.79098" lon="1.89471">
        <ele>699.8</ele>
        <time>2026-07-08T13:26:13.000Z</time>
      </trkpt>
      <trkpt lat="45.79098" lon="1.89473">
        <ele>699.7</ele>
        <time>2026-07-08T13:26:14.000Z</time>
      </trkpt>
      <trkpt lat="45.79098" lon="1.89476">
        <ele>699.8</ele>
        <time>2026-07-08T13:26:15.000Z</time>
      </trkpt>
      <trkpt lat="45.79097" lon="1.89478">
        <ele>700</ele>
        <time>2026-07-08T13:26:16.000Z</time>
      </trkpt>
      <trkpt lat="45.79097" lon="1.8948">
        <ele>700.3</ele>
        <time>2026-07-08T13:26:17.000Z</time>
      </trkpt>
      <trkpt lat="45.79097" lon="1.89483">
        <ele>700.6</ele>
        <time>2026-07-08T13:26:18.000Z</time>
      </trkpt>
      <trkpt lat="45.79097" lon="1.89485">
        <ele>700.6</ele>
        <time>2026-07-08T13:26:19.000Z</time>
      </trkpt>
      <trkpt lat="45.79096" lon="1.89487">
        <ele>700.9</ele>
        <time>2026-07-08T13:26:20.000Z</time>
      </trkpt>
      <trkpt lat="45.79095" lon="1.89489">
        <ele>701.1</ele>
        <time>2026-07-08T13:26:21.000Z</time>
      </trkpt>
      <trkpt lat="45.79094" lon="1.89491">
        <ele>700.4</ele>
        <time>2026-07-08T13:26:22.000Z</time>
      </trkpt>
      <trkpt lat="45.79093" lon="1.89494">
        <ele>700.4</ele>
        <time>2026-07-08T13:26:23.000Z</time>
      </trkpt>
      <trkpt lat="45.79092" lon="1.89496">
        <ele>700.5</ele>
        <time>2026-07-08T13:26:24.000Z</time>
      </trkpt>
      <trkpt lat="45.79092" lon="1.89499">
        <ele>701</ele>
        <time>2026-07-08T13:26:25.000Z</time>
      </trkpt>
      <trkpt lat="45.7909" lon="1.89501">
        <ele>701.4</ele>
        <time>2026-07-08T13:26:26.000Z</time>
      </trkpt>
      <trkpt lat="45.79089" lon="1.89503">
        <ele>701</ele>
        <time>2026-07-08T13:26:27.000Z</time>
      </trkpt>
      <trkpt lat="45.79088" lon="1.89505">
        <ele>700.9</ele>
        <time>2026-07-08T13:26:28.000Z</time>
      </trkpt>
      <trkpt lat="45.79086" lon="1.89508">
        <ele>701.3</ele>
        <time>2026-07-08T13:26:29.000Z</time>
      </trkpt>
      <trkpt lat="45.79085" lon="1.89511">
        <ele>701.6</ele>
        <time>2026-07-08T13:26:30.000Z</time>
      </trkpt>
      <trkpt lat="45.79084" lon="1.89513">
        <ele>701.6</ele>
        <time>2026-07-08T13:26:31.000Z</time>
      </trkpt>
      <trkpt lat="45.79083" lon="1.89515">
        <ele>701.5</ele>
        <time>2026-07-08T13:26:32.000Z</time>
      </trkpt>
      <trkpt lat="45.79082" lon="1.89517">
        <ele>701.3</ele>
        <time>2026-07-08T13:26:33.000Z</time>
      </trkpt>
      <trkpt lat="45.79081" lon="1.89519">
        <ele>701.5</ele>
        <time>2026-07-08T13:26:34.000Z</time>
      </trkpt>
      <trkpt lat="45.7908" lon="1.89521">
        <ele>701.6</ele>
        <time>2026-07-08T13:26:35.000Z</time>
      </trkpt>
      <trkpt lat="45.79079" lon="1.89524">
        <ele>701.7</ele>
        <time>2026-07-08T13:26:36.000Z</time>
      </trkpt>
      <trkpt lat="45.79078" lon="1.89526">
        <ele>701.8</ele>
        <time>2026-07-08T13:26:37.000Z</time>
      </trkpt>
      <trkpt lat="45.79077" lon="1.89528">
        <ele>701.9</ele>
        <time>2026-07-08T13:26:38.000Z</time>
      </trkpt>
      <trkpt lat="45.79076" lon="1.89529">
        <ele>702.1</ele>
        <time>2026-07-08T13:26:39.000Z</time>
      </trkpt>
      <trkpt lat="45.79075" lon="1.89531">
        <ele>702.2</ele>
        <time>2026-07-08T13:26:40.000Z</time>
      </trkpt>
      <trkpt lat="45.79074" lon="1.89533">
        <ele>702.1</ele>
        <time>2026-07-08T13:26:41.000Z</time>
      </trkpt>
      <trkpt lat="45.79073" lon="1.89535">
        <ele>702.1</ele>
        <time>2026-07-08T13:26:42.000Z</time>
      </trkpt>
      <trkpt lat="45.79072" lon="1.89537">
        <ele>702.1</ele>
        <time>2026-07-08T13:26:43.000Z</time>
      </trkpt>
      <trkpt lat="45.79072" lon="1.89538">
        <ele>702.2</ele>
        <time>2026-07-08T13:26:44.000Z</time>
      </trkpt>
      <trkpt lat="45.79071" lon="1.8954">
        <ele>702</ele>
        <time>2026-07-08T13:26:45.000Z</time>
      </trkpt>
      <trkpt lat="45.7907" lon="1.89542">
        <ele>701.9</ele>
        <time>2026-07-08T13:26:46.000Z</time>
      </trkpt>
      <trkpt lat="45.79069" lon="1.89544">
        <ele>702</ele>
        <time>2026-07-08T13:26:47.000Z</time>
      </trkpt>
      <trkpt lat="45.79068" lon="1.89546">
        <ele>702.4</ele>
        <time>2026-07-08T13:26:48.000Z</time>
      </trkpt>
      <trkpt lat="45.79067" lon="1.89548">
        <ele>702.5</ele>
        <time>2026-07-08T13:26:49.000Z</time>
      </trkpt>
      <trkpt lat="45.79066" lon="1.8955">
        <ele>702.8</ele>
        <time>2026-07-08T13:26:50.000Z</time>
      </trkpt>
      <trkpt lat="45.79065" lon="1.89552">
        <ele>702.7</ele>
        <time>2026-07-08T13:26:51.000Z</time>
      </trkpt>
      <trkpt lat="45.79064" lon="1.89554">
        <ele>702.8</ele>
        <time>2026-07-08T13:26:52.000Z</time>
      </trkpt>
      <trkpt lat="45.79063" lon="1.89556">
        <ele>702.6</ele>
        <time>2026-07-08T13:26:53.000Z</time>
      </trkpt>
      <trkpt lat="45.79062" lon="1.89558">
        <ele>702.9</ele>
        <time>2026-07-08T13:26:54.000Z</time>
      </trkpt>
      <trkpt lat="45.79061" lon="1.8956">
        <ele>703.2</ele>
        <time>2026-07-08T13:26:55.000Z</time>
      </trkpt>
      <trkpt lat="45.7906" lon="1.89561">
        <ele>703.4</ele>
        <time>2026-07-08T13:26:56.000Z</time>
      </trkpt>
      <trkpt lat="45.79059" lon="1.89563">
        <ele>703.6</ele>
        <time>2026-07-08T13:26:57.000Z</time>
      </trkpt>
      <trkpt lat="45.79057" lon="1.89565">
        <ele>703.6</ele>
        <time>2026-07-08T13:26:58.000Z</time>
      </trkpt>
      <trkpt lat="45.79056" lon="1.89567">
        <ele>703.9</ele>
        <time>2026-07-08T13:26:59.000Z</time>
      </trkpt>
      <trkpt lat="45.79055" lon="1.89568">
        <ele>704</ele>
        <time>2026-07-08T13:27:00.000Z</time>
      </trkpt>
      <trkpt lat="45.79054" lon="1.8957">
        <ele>703.9</ele>
        <time>2026-07-08T13:27:01.000Z</time>
      </trkpt>
      <trkpt lat="45.79052" lon="1.89572">
        <ele>704.2</ele>
        <time>2026-07-08T13:27:02.000Z</time>
      </trkpt>
      <trkpt lat="45.79051" lon="1.89574">
        <ele>704.2</ele>
        <time>2026-07-08T13:27:03.000Z</time>
      </trkpt>
      <trkpt lat="45.7905" lon="1.89576">
        <ele>704.3</ele>
        <time>2026-07-08T13:27:04.000Z</time>
      </trkpt>
      <trkpt lat="45.79048" lon="1.89577">
        <ele>704.6</ele>
        <time>2026-07-08T13:27:05.000Z</time>
      </trkpt>
      <trkpt lat="45.79047" lon="1.89579">
        <ele>705.1</ele>
        <time>2026-07-08T13:27:06.000Z</time>
      </trkpt>
      <trkpt lat="45.79046" lon="1.89581">
        <ele>705.1</ele>
        <time>2026-07-08T13:27:07.000Z</time>
      </trkpt>
      <trkpt lat="45.79044" lon="1.89581">
        <ele>705.2</ele>
        <time>2026-07-08T13:27:08.000Z</time>
      </trkpt>
      <trkpt lat="45.79042" lon="1.89582">
        <ele>705</ele>
        <time>2026-07-08T13:27:09.000Z</time>
      </trkpt>
      <trkpt lat="45.79041" lon="1.89583">
        <ele>705.3</ele>
        <time>2026-07-08T13:27:10.000Z</time>
      </trkpt>
      <trkpt lat="45.79039" lon="1.89584">
        <ele>705.1</ele>
        <time>2026-07-08T13:27:11.000Z</time>
      </trkpt>
      <trkpt lat="45.79038" lon="1.89586">
        <ele>705.3</ele>
        <time>2026-07-08T13:27:12.000Z</time>
      </trkpt>
      <trkpt lat="45.79037" lon="1.89587">
        <ele>705.4</ele>
        <time>2026-07-08T13:27:13.000Z</time>
      </trkpt>
      <trkpt lat="45.79036" lon="1.89589">
        <ele>705.5</ele>
        <time>2026-07-08T13:27:14.000Z</time>
      </trkpt>
      <trkpt lat="45.79035" lon="1.89591">
        <ele>705.3</ele>
        <time>2026-07-08T13:27:15.000Z</time>
      </trkpt>
      <trkpt lat="45.79033" lon="1.89593">
        <ele>705.2</ele>
        <time>2026-07-08T13:27:16.000Z</time>
      </trkpt>
      <trkpt lat="45.79032" lon="1.89595">
        <ele>705.3</ele>
        <time>2026-07-08T13:27:17.000Z</time>
      </trkpt>
      <trkpt lat="45.79031" lon="1.89597">
        <ele>705.3</ele>
        <time>2026-07-08T13:27:18.000Z</time>
      </trkpt>
      <trkpt lat="45.7903" lon="1.89599">
        <ele>705.2</ele>
        <time>2026-07-08T13:27:19.000Z</time>
      </trkpt>
      <trkpt lat="45.79029" lon="1.89602">
        <ele>705.1</ele>
        <time>2026-07-08T13:27:20.000Z</time>
      </trkpt>
      <trkpt lat="45.79029" lon="1.89604">
        <ele>705.3</ele>
        <time>2026-07-08T13:27:21.000Z</time>
      </trkpt>
      <trkpt lat="45.79028" lon="1.89607">
        <ele>705.2</ele>
        <time>2026-07-08T13:27:22.000Z</time>
      </trkpt>
      <trkpt lat="45.79027" lon="1.89609">
        <ele>705.1</ele>
        <time>2026-07-08T13:27:23.000Z</time>
      </trkpt>
      <trkpt lat="45.79026" lon="1.89612">
        <ele>705.1</ele>
        <time>2026-07-08T13:27:24.000Z</time>
      </trkpt>
      <trkpt lat="45.79025" lon="1.89615">
        <ele>705.1</ele>
        <time>2026-07-08T13:27:25.000Z</time>
      </trkpt>
      <trkpt lat="45.79024" lon="1.89617">
        <ele>705.1</ele>
        <time>2026-07-08T13:27:26.000Z</time>
      </trkpt>
      <trkpt lat="45.79023" lon="1.89619">
        <ele>705.4</ele>
        <time>2026-07-08T13:27:27.000Z</time>
      </trkpt>
      <trkpt lat="45.79022" lon="1.89621">
        <ele>705.6</ele>
        <time>2026-07-08T13:27:28.000Z</time>
      </trkpt>
      <trkpt lat="45.79021" lon="1.89622">
        <ele>705.3</ele>
        <time>2026-07-08T13:27:29.000Z</time>
      </trkpt>
      <trkpt lat="45.7902" lon="1.89624">
        <ele>705.1</ele>
        <time>2026-07-08T13:27:30.000Z</time>
      </trkpt>
      <trkpt lat="45.79018" lon="1.89626">
        <ele>705.2</ele>
        <time>2026-07-08T13:27:31.000Z</time>
      </trkpt>
      <trkpt lat="45.79017" lon="1.89627">
        <ele>705.3</ele>
        <time>2026-07-08T13:27:32.000Z</time>
      </trkpt>
      <trkpt lat="45.79016" lon="1.89629">
        <ele>705.5</ele>
        <time>2026-07-08T13:27:33.000Z</time>
      </trkpt>
      <trkpt lat="45.79014" lon="1.89631">
        <ele>705.4</ele>
        <time>2026-07-08T13:27:34.000Z</time>
      </trkpt>
      <trkpt lat="45.79013" lon="1.89633">
        <ele>705.4</ele>
        <time>2026-07-08T13:27:35.000Z</time>
      </trkpt>
      <trkpt lat="45.79012" lon="1.89636">
        <ele>705.8</ele>
        <time>2026-07-08T13:27:36.000Z</time>
      </trkpt>
      <trkpt lat="45.79011" lon="1.89638">
        <ele>706.1</ele>
        <time>2026-07-08T13:27:37.000Z</time>
      </trkpt>
      <trkpt lat="45.7901" lon="1.8964">
        <ele>706.4</ele>
        <time>2026-07-08T13:27:38.000Z</time>
      </trkpt>
      <trkpt lat="45.7901" lon="1.89642">
        <ele>706.4</ele>
        <time>2026-07-08T13:27:39.000Z</time>
      </trkpt>
      <trkpt lat="45.79009" lon="1.89645">
        <ele>706.6</ele>
        <time>2026-07-08T13:27:40.000Z</time>
      </trkpt>
      <trkpt lat="45.7901" lon="1.89648">
        <ele>705.6</ele>
        <time>2026-07-08T13:27:41.000Z</time>
      </trkpt>
      <trkpt lat="45.7901" lon="1.8965">
        <ele>705.7</ele>
        <time>2026-07-08T13:27:42.000Z</time>
      </trkpt>
      <trkpt lat="45.79009" lon="1.89652">
        <ele>705.7</ele>
        <time>2026-07-08T13:27:43.000Z</time>
      </trkpt>
      <trkpt lat="45.79008" lon="1.89654">
        <ele>705.8</ele>
        <time>2026-07-08T13:27:44.000Z</time>
      </trkpt>
      <trkpt lat="45.79008" lon="1.89657">
        <ele>705.6</ele>
        <time>2026-07-08T13:27:45.000Z</time>
      </trkpt>
      <trkpt lat="45.79007" lon="1.89659">
        <ele>705.6</ele>
        <time>2026-07-08T13:27:46.000Z</time>
      </trkpt>
      <trkpt lat="45.79007" lon="1.89661">
        <ele>705.4</ele>
        <time>2026-07-08T13:27:47.000Z</time>
      </trkpt>
      <trkpt lat="45.79007" lon="1.89664">
        <ele>705.2</ele>
        <time>2026-07-08T13:27:48.000Z</time>
      </trkpt>
      <trkpt lat="45.79007" lon="1.89666">
        <ele>705</ele>
        <time>2026-07-08T13:27:49.000Z</time>
      </trkpt>
      <trkpt lat="45.79008" lon="1.89668">
        <ele>704.9</ele>
        <time>2026-07-08T13:27:50.000Z</time>
      </trkpt>
      <trkpt lat="45.79008" lon="1.89671">
        <ele>704.9</ele>
        <time>2026-07-08T13:27:51.000Z</time>
      </trkpt>
      <trkpt lat="45.79009" lon="1.89673">
        <ele>705</ele>
        <time>2026-07-08T13:27:52.000Z</time>
      </trkpt>
      <trkpt lat="45.79009" lon="1.89676">
        <ele>704.6</ele>
        <time>2026-07-08T13:27:53.000Z</time>
      </trkpt>
      <trkpt lat="45.7901" lon="1.89678">
        <ele>704.3</ele>
        <time>2026-07-08T13:27:54.000Z</time>
      </trkpt>
      <trkpt lat="45.7901" lon="1.89681">
        <ele>704.6</ele>
        <time>2026-07-08T13:27:55.000Z</time>
      </trkpt>
      <trkpt lat="45.79009" lon="1.89683">
        <ele>704.5</ele>
        <time>2026-07-08T13:27:56.000Z</time>
      </trkpt>
      <trkpt lat="45.79009" lon="1.89686">
        <ele>704.6</ele>
        <time>2026-07-08T13:27:57.000Z</time>
      </trkpt>
      <trkpt lat="45.79008" lon="1.89688">
        <ele>704.4</ele>
        <time>2026-07-08T13:27:58.000Z</time>
      </trkpt>
      <trkpt lat="45.79008" lon="1.8969">
        <ele>704.1</ele>
        <time>2026-07-08T13:27:59.000Z</time>
      </trkpt>
      <trkpt lat="45.79008" lon="1.89692">
        <ele>704</ele>
        <time>2026-07-08T13:28:00.000Z</time>
      </trkpt>
      <trkpt lat="45.79008" lon="1.89694">
        <ele>703.3</ele>
        <time>2026-07-08T13:28:01.000Z</time>
      </trkpt>
      <trkpt lat="45.79009" lon="1.89695">
        <ele>703</ele>
        <time>2026-07-08T13:28:02.000Z</time>
      </trkpt>
      <trkpt lat="45.79009" lon="1.89697">
        <ele>704.3</ele>
        <time>2026-07-08T13:28:03.000Z</time>
      </trkpt>
      <trkpt lat="45.7901" lon="1.89699">
        <ele>704.6</ele>
        <time>2026-07-08T13:28:04.000Z</time>
      </trkpt>
      <trkpt lat="45.79011" lon="1.89701">
        <ele>704.9</ele>
        <time>2026-07-08T13:28:05.000Z</time>
      </trkpt>
      <trkpt lat="45.79012" lon="1.89704">
        <ele>704.6</ele>
        <time>2026-07-08T13:28:06.000Z</time>
      </trkpt>
      <trkpt lat="45.79012" lon="1.89706">
        <ele>704.9</ele>
        <time>2026-07-08T13:28:07.000Z</time>
      </trkpt>
      <trkpt lat="45.79013" lon="1.89709">
        <ele>705</ele>
        <time>2026-07-08T13:28:08.000Z</time>
      </trkpt>
      <trkpt lat="45.79013" lon="1.89711">
        <ele>704.2</ele>
        <time>2026-07-08T13:28:09.000Z</time>
      </trkpt>
      <trkpt lat="45.79013" lon="1.89713">
        <ele>704.2</ele>
        <time>2026-07-08T13:28:10.000Z</time>
      </trkpt>
      <trkpt lat="45.79014" lon="1.89715">
        <ele>704.4</ele>
        <time>2026-07-08T13:28:11.000Z</time>
      </trkpt>
      <trkpt lat="45.79014" lon="1.89717">
        <ele>703.5</ele>
        <time>2026-07-08T13:28:12.000Z</time>
      </trkpt>
      <trkpt lat="45.79015" lon="1.89719">
        <ele>703.8</ele>
        <time>2026-07-08T13:28:13.000Z</time>
      </trkpt>
      <trkpt lat="45.79015" lon="1.89722">
        <ele>703.7</ele>
        <time>2026-07-08T13:28:14.000Z</time>
      </trkpt>
      <trkpt lat="45.79016" lon="1.89724">
        <ele>704.6</ele>
        <time>2026-07-08T13:28:15.000Z</time>
      </trkpt>
      <trkpt lat="45.79016" lon="1.89725">
        <ele>704.3</ele>
        <time>2026-07-08T13:28:16.000Z</time>
      </trkpt>
      <trkpt lat="45.79017" lon="1.89728">
        <ele>704.1</ele>
        <time>2026-07-08T13:28:17.000Z</time>
      </trkpt>
      <trkpt lat="45.79018" lon="1.8973">
        <ele>704.1</ele>
        <time>2026-07-08T13:28:18.000Z</time>
      </trkpt>
      <trkpt lat="45.79018" lon="1.89732">
        <ele>703.8</ele>
        <time>2026-07-08T13:28:19.000Z</time>
      </trkpt>
      <trkpt lat="45.79019" lon="1.89734">
        <ele>704.2</ele>
        <time>2026-07-08T13:28:20.000Z</time>
      </trkpt>
      <trkpt lat="45.79019" lon="1.89737">
        <ele>704.6</ele>
        <time>2026-07-08T13:28:21.000Z</time>
      </trkpt>
      <trkpt lat="45.79019" lon="1.89738">
        <ele>704.7</ele>
        <time>2026-07-08T13:28:22.000Z</time>
      </trkpt>
      <trkpt lat="45.7902" lon="1.8974">
        <ele>704.1</ele>
        <time>2026-07-08T13:28:23.000Z</time>
      </trkpt>
      <trkpt lat="45.7902" lon="1.89743">
        <ele>704.1</ele>
        <time>2026-07-08T13:28:24.000Z</time>
      </trkpt>
      <trkpt lat="45.7902" lon="1.89745">
        <ele>704.2</ele>
        <time>2026-07-08T13:28:25.000Z</time>
      </trkpt>
      <trkpt lat="45.7902" lon="1.89747">
        <ele>704.4</ele>
        <time>2026-07-08T13:28:26.000Z</time>
      </trkpt>
      <trkpt lat="45.7902" lon="1.8975">
        <ele>704.4</ele>
        <time>2026-07-08T13:28:27.000Z</time>
      </trkpt>
      <trkpt lat="45.79019" lon="1.89752">
        <ele>704.7</ele>
        <time>2026-07-08T13:28:28.000Z</time>
      </trkpt>
      <trkpt lat="45.79018" lon="1.89754">
        <ele>704.3</ele>
        <time>2026-07-08T13:28:29.000Z</time>
      </trkpt>
      <trkpt lat="45.79018" lon="1.89756">
        <ele>704.5</ele>
        <time>2026-07-08T13:28:30.000Z</time>
      </trkpt>
      <trkpt lat="45.79018" lon="1.89756">
        <ele>704.9</ele>
        <time>2026-07-08T13:28:31.000Z</time>
      </trkpt>
      <trkpt lat="45.79018" lon="1.89756">
        <ele>704.9</ele>
        <time>2026-07-08T13:28:32.000Z</time>
      </trkpt>
      <trkpt lat="45.79018" lon="1.89756">
        <ele>704.8</ele>
        <time>2026-07-08T13:28:33.000Z</time>
      </trkpt>
      <trkpt lat="45.79018" lon="1.89756">
        <ele>704.8</ele>
        <time>2026-07-08T13:28:34.000Z</time>
      </trkpt>
      <trkpt lat="45.79018" lon="1.89756">
        <ele>704.8</ele>
        <time>2026-07-08T13:28:35.000Z</time>
      </trkpt>
      <trkpt lat="45.79018" lon="1.89756">
        <ele>704.8</ele>
        <time>2026-07-08T13:28:36.000Z</time>
      </trkpt>
      <trkpt lat="45.79018" lon="1.89756">
        <ele>704.8</ele>
        <time>2026-07-08T13:28:37.000Z</time>
      </trkpt>
      <trkpt lat="45.79018" lon="1.89756">
        <ele>704.8</ele>
        <time>2026-07-08T13:28:38.000Z</time>
      </trkpt>
      <trkpt lat="45.79018" lon="1.89756">
        <ele>704.8</ele>
        <time>2026-07-08T13:28:39.000Z</time>
      </trkpt>
      <trkpt lat="45.79018" lon="1.89757">
        <ele>705.2</ele>
        <time>2026-07-08T13:28:40.000Z</time>
      </trkpt>
      <trkpt lat="45.79017" lon="1.89758">
        <ele>706</ele>
        <time>2026-07-08T13:28:41.000Z</time>
      </trkpt>
      <trkpt lat="45.79017" lon="1.8976">
        <ele>705.7</ele>
        <time>2026-07-08T13:28:42.000Z</time>
      </trkpt>
      <trkpt lat="45.79016" lon="1.89763">
        <ele>705.5</ele>
        <time>2026-07-08T13:28:43.000Z</time>
      </trkpt>
      <trkpt lat="45.79015" lon="1.89765">
        <ele>705.6</ele>
        <time>2026-07-08T13:28:44.000Z</time>
      </trkpt>
      <trkpt lat="45.79015" lon="1.89767">
        <ele>705.8</ele>
        <time>2026-07-08T13:28:45.000Z</time>
      </trkpt>
      <trkpt lat="45.79015" lon="1.8977">
        <ele>705.8</ele>
        <time>2026-07-08T13:28:46.000Z</time>
      </trkpt>
      <trkpt lat="45.79014" lon="1.89772">
        <ele>705.7</ele>
        <time>2026-07-08T13:28:47.000Z</time>
      </trkpt>
      <trkpt lat="45.79014" lon="1.89774">
        <ele>705.7</ele>
        <time>2026-07-08T13:28:48.000Z</time>
      </trkpt>
      <trkpt lat="45.79014" lon="1.89777">
        <ele>705.5</ele>
        <time>2026-07-08T13:28:49.000Z</time>
      </trkpt>
      <trkpt lat="45.79013" lon="1.89779">
        <ele>705.4</ele>
        <time>2026-07-08T13:28:50.000Z</time>
      </trkpt>
      <trkpt lat="45.79013" lon="1.89781">
        <ele>705.1</ele>
        <time>2026-07-08T13:28:51.000Z</time>
      </trkpt>
      <trkpt lat="45.79013" lon="1.89784">
        <ele>705</ele>
        <time>2026-07-08T13:28:52.000Z</time>
      </trkpt>
      <trkpt lat="45.79014" lon="1.89786">
        <ele>704.8</ele>
        <time>2026-07-08T13:28:53.000Z</time>
      </trkpt>
      <trkpt lat="45.79014" lon="1.89788">
        <ele>704.9</ele>
        <time>2026-07-08T13:28:54.000Z</time>
      </trkpt>
      <trkpt lat="45.79015" lon="1.8979">
        <ele>704.7</ele>
        <time>2026-07-08T13:28:55.000Z</time>
      </trkpt>
      <trkpt lat="45.79016" lon="1.89792">
        <ele>704.5</ele>
        <time>2026-07-08T13:28:56.000Z</time>
      </trkpt>
      <trkpt lat="45.79018" lon="1.89793">
        <ele>704.2</ele>
        <time>2026-07-08T13:28:57.000Z</time>
      </trkpt>
      <trkpt lat="45.79019" lon="1.89794">
        <ele>704.3</ele>
        <time>2026-07-08T13:28:58.000Z</time>
      </trkpt>
      <trkpt lat="45.79021" lon="1.89795">
        <ele>704.3</ele>
        <time>2026-07-08T13:28:59.000Z</time>
      </trkpt>
      <trkpt lat="45.79023" lon="1.89796">
        <ele>704.4</ele>
        <time>2026-07-08T13:29:00.000Z</time>
      </trkpt>
      <trkpt lat="45.79024" lon="1.89797">
        <ele>704.4</ele>
        <time>2026-07-08T13:29:01.000Z</time>
      </trkpt>
      <trkpt lat="45.79025" lon="1.89798">
        <ele>704.4</ele>
        <time>2026-07-08T13:29:02.000Z</time>
      </trkpt>
      <trkpt lat="45.79027" lon="1.898">
        <ele>704.4</ele>
        <time>2026-07-08T13:29:03.000Z</time>
      </trkpt>
      <trkpt lat="45.79028" lon="1.89802">
        <ele>704.3</ele>
        <time>2026-07-08T13:29:04.000Z</time>
      </trkpt>
      <trkpt lat="45.79028" lon="1.89804">
        <ele>704</ele>
        <time>2026-07-08T13:29:05.000Z</time>
      </trkpt>
      <trkpt lat="45.79029" lon="1.89806">
        <ele>703.8</ele>
        <time>2026-07-08T13:29:06.000Z</time>
      </trkpt>
      <trkpt lat="45.79029" lon="1.89809">
        <ele>704.3</ele>
        <time>2026-07-08T13:29:07.000Z</time>
      </trkpt>
      <trkpt lat="45.79029" lon="1.89811">
        <ele>704.5</ele>
        <time>2026-07-08T13:29:08.000Z</time>
      </trkpt>
      <trkpt lat="45.79029" lon="1.89813">
        <ele>704.6</ele>
        <time>2026-07-08T13:29:09.000Z</time>
      </trkpt>
      <trkpt lat="45.79029" lon="1.89816">
        <ele>704.8</ele>
        <time>2026-07-08T13:29:10.000Z</time>
      </trkpt>
      <trkpt lat="45.79029" lon="1.89818">
        <ele>704.9</ele>
        <time>2026-07-08T13:29:11.000Z</time>
      </trkpt>
      <trkpt lat="45.79028" lon="1.89821">
        <ele>704.8</ele>
        <time>2026-07-08T13:29:12.000Z</time>
      </trkpt>
      <trkpt lat="45.79028" lon="1.89823">
        <ele>704.6</ele>
        <time>2026-07-08T13:29:13.000Z</time>
      </trkpt>
      <trkpt lat="45.79028" lon="1.89826">
        <ele>704.9</ele>
        <time>2026-07-08T13:29:14.000Z</time>
      </trkpt>
      <trkpt lat="45.79027" lon="1.89828">
        <ele>704.8</ele>
        <time>2026-07-08T13:29:15.000Z</time>
      </trkpt>
      <trkpt lat="45.79027" lon="1.89831">
        <ele>704.7</ele>
        <time>2026-07-08T13:29:16.000Z</time>
      </trkpt>
      <trkpt lat="45.79027" lon="1.89833">
        <ele>704.5</ele>
        <time>2026-07-08T13:29:17.000Z</time>
      </trkpt>
      <trkpt lat="45.79027" lon="1.89835">
        <ele>704.4</ele>
        <time>2026-07-08T13:29:18.000Z</time>
      </trkpt>
      <trkpt lat="45.79027" lon="1.89837">
        <ele>704.5</ele>
        <time>2026-07-08T13:29:19.000Z</time>
      </trkpt>
      <trkpt lat="45.79028" lon="1.89839">
        <ele>704.6</ele>
        <time>2026-07-08T13:29:20.000Z</time>
      </trkpt>
      <trkpt lat="45.79028" lon="1.89841">
        <ele>704.6</ele>
        <time>2026-07-08T13:29:21.000Z</time>
      </trkpt>
      <trkpt lat="45.79028" lon="1.89843">
        <ele>704.5</ele>
        <time>2026-07-08T13:29:22.000Z</time>
      </trkpt>
      <trkpt lat="45.79028" lon="1.89846">
        <ele>704.1</ele>
        <time>2026-07-08T13:29:23.000Z</time>
      </trkpt>
      <trkpt lat="45.79028" lon="1.89848">
        <ele>704.4</ele>
        <time>2026-07-08T13:29:24.000Z</time>
      </trkpt>
      <trkpt lat="45.79029" lon="1.8985">
        <ele>704.2</ele>
        <time>2026-07-08T13:29:25.000Z</time>
      </trkpt>
      <trkpt lat="45.79029" lon="1.89852">
        <ele>703.7</ele>
        <time>2026-07-08T13:29:26.000Z</time>
      </trkpt>
      <trkpt lat="45.7903" lon="1.89854">
        <ele>703.7</ele>
        <time>2026-07-08T13:29:27.000Z</time>
      </trkpt>
      <trkpt lat="45.7903" lon="1.89857">
        <ele>703.5</ele>
        <time>2026-07-08T13:29:28.000Z</time>
      </trkpt>
      <trkpt lat="45.7903" lon="1.89859">
        <ele>703.6</ele>
        <time>2026-07-08T13:29:29.000Z</time>
      </trkpt>
      <trkpt lat="45.7903" lon="1.89861">
        <ele>703.7</ele>
        <time>2026-07-08T13:29:30.000Z</time>
      </trkpt>
      <trkpt lat="45.7903" lon="1.89863">
        <ele>703.4</ele>
        <time>2026-07-08T13:29:31.000Z</time>
      </trkpt>
      <trkpt lat="45.79029" lon="1.89865">
        <ele>703.7</ele>
        <time>2026-07-08T13:29:32.000Z</time>
      </trkpt>
      <trkpt lat="45.79029" lon="1.89868">
        <ele>703.5</ele>
        <time>2026-07-08T13:29:33.000Z</time>
      </trkpt>
      <trkpt lat="45.7903" lon="1.8987">
        <ele>703.4</ele>
        <time>2026-07-08T13:29:34.000Z</time>
      </trkpt>
      <trkpt lat="45.7903" lon="1.89872">
        <ele>703.3</ele>
        <time>2026-07-08T13:29:35.000Z</time>
      </trkpt>
      <trkpt lat="45.7903" lon="1.89874">
        <ele>703.2</ele>
        <time>2026-07-08T13:29:36.000Z</time>
      </trkpt>
      <trkpt lat="45.7903" lon="1.89877">
        <ele>703.3</ele>
        <time>2026-07-08T13:29:37.000Z</time>
      </trkpt>
      <trkpt lat="45.7903" lon="1.89879">
        <ele>703.2</ele>
        <time>2026-07-08T13:29:38.000Z</time>
      </trkpt>
      <trkpt lat="45.79029" lon="1.89882">
        <ele>703</ele>
        <time>2026-07-08T13:29:39.000Z</time>
      </trkpt>
      <trkpt lat="45.79029" lon="1.89884">
        <ele>702.9</ele>
        <time>2026-07-08T13:29:40.000Z</time>
      </trkpt>
      <trkpt lat="45.79029" lon="1.89887">
        <ele>702.8</ele>
        <time>2026-07-08T13:29:41.000Z</time>
      </trkpt>
      <trkpt lat="45.79029" lon="1.89889">
        <ele>703</ele>
        <time>2026-07-08T13:29:42.000Z</time>
      </trkpt>
      <trkpt lat="45.79028" lon="1.89891">
        <ele>702.9</ele>
        <time>2026-07-08T13:29:43.000Z</time>
      </trkpt>
      <trkpt lat="45.79028" lon="1.89893">
        <ele>702.9</ele>
        <time>2026-07-08T13:29:44.000Z</time>
      </trkpt>
      <trkpt lat="45.79027" lon="1.89895">
        <ele>702.8</ele>
        <time>2026-07-08T13:29:45.000Z</time>
      </trkpt>
      <trkpt lat="45.79027" lon="1.89897">
        <ele>702.9</ele>
        <time>2026-07-08T13:29:46.000Z</time>
      </trkpt>
      <trkpt lat="45.79026" lon="1.89899">
        <ele>702.7</ele>
        <time>2026-07-08T13:29:47.000Z</time>
      </trkpt>
      <trkpt lat="45.79025" lon="1.899">
        <ele>702.7</ele>
        <time>2026-07-08T13:29:48.000Z</time>
      </trkpt>
      <trkpt lat="45.79023" lon="1.899">
        <ele>702.5</ele>
        <time>2026-07-08T13:29:49.000Z</time>
      </trkpt>
      <trkpt lat="45.79022" lon="1.899">
        <ele>702.5</ele>
        <time>2026-07-08T13:29:50.000Z</time>
      </trkpt>
      <trkpt lat="45.7902" lon="1.899">
        <ele>702</ele>
        <time>2026-07-08T13:29:51.000Z</time>
      </trkpt>
      <trkpt lat="45.79019" lon="1.899">
        <ele>701.7</ele>
        <time>2026-07-08T13:29:52.000Z</time>
      </trkpt>
      <trkpt lat="45.79018" lon="1.89901">
        <ele>701.3</ele>
        <time>2026-07-08T13:29:53.000Z</time>
      </trkpt>
      <trkpt lat="45.79017" lon="1.89902">
        <ele>700.9</ele>
        <time>2026-07-08T13:29:54.000Z</time>
      </trkpt>
      <trkpt lat="45.79015" lon="1.89902">
        <ele>700.8</ele>
        <time>2026-07-08T13:29:55.000Z</time>
      </trkpt>
      <trkpt lat="45.79014" lon="1.89902">
        <ele>700.7</ele>
        <time>2026-07-08T13:29:56.000Z</time>
      </trkpt>
      <trkpt lat="45.79012" lon="1.89901">
        <ele>700.8</ele>
        <time>2026-07-08T13:29:57.000Z</time>
      </trkpt>
      <trkpt lat="45.79011" lon="1.899">
        <ele>700.5</ele>
        <time>2026-07-08T13:29:58.000Z</time>
      </trkpt>
      <trkpt lat="45.7901" lon="1.89899">
        <ele>701.2</ele>
        <time>2026-07-08T13:29:59.000Z</time>
      </trkpt>
      <trkpt lat="45.79008" lon="1.89898">
        <ele>701.3</ele>
        <time>2026-07-08T13:30:00.000Z</time>
      </trkpt>
      <trkpt lat="45.79007" lon="1.89897">
        <ele>701.3</ele>
        <time>2026-07-08T13:30:01.000Z</time>
      </trkpt>
      <trkpt lat="45.79006" lon="1.89896">
        <ele>701.8</ele>
        <time>2026-07-08T13:30:02.000Z</time>
      </trkpt>
      <trkpt lat="45.79004" lon="1.89895">
        <ele>701.6</ele>
        <time>2026-07-08T13:30:03.000Z</time>
      </trkpt>
      <trkpt lat="45.79003" lon="1.89894">
        <ele>702</ele>
        <time>2026-07-08T13:30:04.000Z</time>
      </trkpt>
      <trkpt lat="45.79002" lon="1.89892">
        <ele>702.2</ele>
        <time>2026-07-08T13:30:05.000Z</time>
      </trkpt>
      <trkpt lat="45.79001" lon="1.8989">
        <ele>702.1</ele>
        <time>2026-07-08T13:30:06.000Z</time>
      </trkpt>
      <trkpt lat="45.79" lon="1.89889">
        <ele>701.5</ele>
        <time>2026-07-08T13:30:07.000Z</time>
      </trkpt>
      <trkpt lat="45.78999" lon="1.89889">
        <ele>701.2</ele>
        <time>2026-07-08T13:30:08.000Z</time>
      </trkpt>
      <trkpt lat="45.78997" lon="1.89889">
        <ele>701.1</ele>
        <time>2026-07-08T13:30:09.000Z</time>
      </trkpt>
      <trkpt lat="45.78996" lon="1.89888">
        <ele>701</ele>
        <time>2026-07-08T13:30:10.000Z</time>
      </trkpt>
      <trkpt lat="45.78994" lon="1.89888">
        <ele>701.2</ele>
        <time>2026-07-08T13:30:11.000Z</time>
      </trkpt>
      <trkpt lat="45.78993" lon="1.89887">
        <ele>701.6</ele>
        <time>2026-07-08T13:30:12.000Z</time>
      </trkpt>
      <trkpt lat="45.78991" lon="1.89887">
        <ele>701.9</ele>
        <time>2026-07-08T13:30:13.000Z</time>
      </trkpt>
      <trkpt lat="45.7899" lon="1.89886">
        <ele>702.2</ele>
        <time>2026-07-08T13:30:14.000Z</time>
      </trkpt>
      <trkpt lat="45.78988" lon="1.89886">
        <ele>702.3</ele>
        <time>2026-07-08T13:30:15.000Z</time>
      </trkpt>
      <trkpt lat="45.78987" lon="1.89884">
        <ele>702.3</ele>
        <time>2026-07-08T13:30:16.000Z</time>
      </trkpt>
      <trkpt lat="45.78986" lon="1.89883">
        <ele>702.3</ele>
        <time>2026-07-08T13:30:17.000Z</time>
      </trkpt>
      <trkpt lat="45.78984" lon="1.89882">
        <ele>702.3</ele>
        <time>2026-07-08T13:30:18.000Z</time>
      </trkpt>
      <trkpt lat="45.78983" lon="1.89882">
        <ele>702.5</ele>
        <time>2026-07-08T13:30:19.000Z</time>
      </trkpt>
      <trkpt lat="45.78981" lon="1.89881">
        <ele>702.5</ele>
        <time>2026-07-08T13:30:20.000Z</time>
      </trkpt>
      <trkpt lat="45.78979" lon="1.89881">
        <ele>702.3</ele>
        <time>2026-07-08T13:30:21.000Z</time>
      </trkpt>
      <trkpt lat="45.78977" lon="1.8988">
        <ele>702.3</ele>
        <time>2026-07-08T13:30:22.000Z</time>
      </trkpt>
      <trkpt lat="45.78976" lon="1.8988">
        <ele>702.2</ele>
        <time>2026-07-08T13:30:23.000Z</time>
      </trkpt>
      <trkpt lat="45.78974" lon="1.89879">
        <ele>702.4</ele>
        <time>2026-07-08T13:30:24.000Z</time>
      </trkpt>
      <trkpt lat="45.78973" lon="1.89879">
        <ele>702.2</ele>
        <time>2026-07-08T13:30:25.000Z</time>
      </trkpt>
      <trkpt lat="45.78971" lon="1.89879">
        <ele>702.2</ele>
        <time>2026-07-08T13:30:26.000Z</time>
      </trkpt>
      <trkpt lat="45.78969" lon="1.89878">
        <ele>702.1</ele>
        <time>2026-07-08T13:30:27.000Z</time>
      </trkpt>
      <trkpt lat="45.78968" lon="1.89878">
        <ele>701.9</ele>
        <time>2026-07-08T13:30:28.000Z</time>
      </trkpt>
      <trkpt lat="45.78966" lon="1.89877">
        <ele>701.9</ele>
        <time>2026-07-08T13:30:29.000Z</time>
      </trkpt>
      <trkpt lat="45.78965" lon="1.89877">
        <ele>702</ele>
        <time>2026-07-08T13:30:30.000Z</time>
      </trkpt>
      <trkpt lat="45.78963" lon="1.89877">
        <ele>702.5</ele>
        <time>2026-07-08T13:30:31.000Z</time>
      </trkpt>
      <trkpt lat="45.78961" lon="1.89877">
        <ele>702.7</ele>
        <time>2026-07-08T13:30:32.000Z</time>
      </trkpt>
      <trkpt lat="45.7896" lon="1.89877">
        <ele>702.9</ele>
        <time>2026-07-08T13:30:33.000Z</time>
      </trkpt>
      <trkpt lat="45.78958" lon="1.89877">
        <ele>703.1</ele>
        <time>2026-07-08T13:30:34.000Z</time>
      </trkpt>
      <trkpt lat="45.78956" lon="1.89878">
        <ele>703.3</ele>
        <time>2026-07-08T13:30:35.000Z</time>
      </trkpt>
      <trkpt lat="45.78955" lon="1.89878">
        <ele>703.5</ele>
        <time>2026-07-08T13:30:36.000Z</time>
      </trkpt>
      <trkpt lat="45.78953" lon="1.89879">
        <ele>703.4</ele>
        <time>2026-07-08T13:30:37.000Z</time>
      </trkpt>
      <trkpt lat="45.78951" lon="1.89879">
        <ele>703.6</ele>
        <time>2026-07-08T13:30:38.000Z</time>
      </trkpt>
      <trkpt lat="45.7895" lon="1.8988">
        <ele>703.8</ele>
        <time>2026-07-08T13:30:39.000Z</time>
      </trkpt>
      <trkpt lat="45.78948" lon="1.89881">
        <ele>703.8</ele>
        <time>2026-07-08T13:30:40.000Z</time>
      </trkpt>
      <trkpt lat="45.78947" lon="1.89883">
        <ele>704</ele>
        <time>2026-07-08T13:30:41.000Z</time>
      </trkpt>
      <trkpt lat="45.78945" lon="1.89885">
        <ele>704</ele>
        <time>2026-07-08T13:30:42.000Z</time>
      </trkpt>
      <trkpt lat="45.78944" lon="1.89886">
        <ele>704.1</ele>
        <time>2026-07-08T13:30:43.000Z</time>
      </trkpt>
      <trkpt lat="45.78942" lon="1.89887">
        <ele>704.3</ele>
        <time>2026-07-08T13:30:44.000Z</time>
      </trkpt>
      <trkpt lat="45.78941" lon="1.89888">
        <ele>704.2</ele>
        <time>2026-07-08T13:30:45.000Z</time>
      </trkpt>
      <trkpt lat="45.7894" lon="1.89889">
        <ele>704</ele>
        <time>2026-07-08T13:30:46.000Z</time>
      </trkpt>
      <trkpt lat="45.78938" lon="1.8989">
        <ele>704.1</ele>
        <time>2026-07-08T13:30:47.000Z</time>
      </trkpt>
      <trkpt lat="45.78937" lon="1.89892">
        <ele>704.5</ele>
        <time>2026-07-08T13:30:48.000Z</time>
      </trkpt>
      <trkpt lat="45.78935" lon="1.89893">
        <ele>704.2</ele>
        <time>2026-07-08T13:30:49.000Z</time>
      </trkpt>
      <trkpt lat="45.78934" lon="1.89894">
        <ele>703.6</ele>
        <time>2026-07-08T13:30:50.000Z</time>
      </trkpt>
      <trkpt lat="45.78932" lon="1.89896">
        <ele>703.6</ele>
        <time>2026-07-08T13:30:51.000Z</time>
      </trkpt>
      <trkpt lat="45.78931" lon="1.89897">
        <ele>703.7</ele>
        <time>2026-07-08T13:30:52.000Z</time>
      </trkpt>
      <trkpt lat="45.7893" lon="1.89898">
        <ele>704</ele>
        <time>2026-07-08T13:30:53.000Z</time>
      </trkpt>
      <trkpt lat="45.78928" lon="1.899">
        <ele>704.1</ele>
        <time>2026-07-08T13:30:54.000Z</time>
      </trkpt>
      <trkpt lat="45.78927" lon="1.89901">
        <ele>704</ele>
        <time>2026-07-08T13:30:55.000Z</time>
      </trkpt>
      <trkpt lat="45.78926" lon="1.89902">
        <ele>704</ele>
        <time>2026-07-08T13:30:56.000Z</time>
      </trkpt>
      <trkpt lat="45.78924" lon="1.89903">
        <ele>704</ele>
        <time>2026-07-08T13:30:57.000Z</time>
      </trkpt>
      <trkpt lat="45.78923" lon="1.89905">
        <ele>703.9</ele>
        <time>2026-07-08T13:30:58.000Z</time>
      </trkpt>
      <trkpt lat="45.78922" lon="1.89907">
        <ele>704.3</ele>
        <time>2026-07-08T13:30:59.000Z</time>
      </trkpt>
      <trkpt lat="45.78921" lon="1.89909">
        <ele>704.3</ele>
        <time>2026-07-08T13:31:00.000Z</time>
      </trkpt>
      <trkpt lat="45.78919" lon="1.8991">
        <ele>704.4</ele>
        <time>2026-07-08T13:31:01.000Z</time>
      </trkpt>
      <trkpt lat="45.78918" lon="1.89911">
        <ele>704.2</ele>
        <time>2026-07-08T13:31:02.000Z</time>
      </trkpt>
      <trkpt lat="45.78917" lon="1.89913">
        <ele>704.3</ele>
        <time>2026-07-08T13:31:03.000Z</time>
      </trkpt>
      <trkpt lat="45.78916" lon="1.89915">
        <ele>704.3</ele>
        <time>2026-07-08T13:31:04.000Z</time>
      </trkpt>
      <trkpt lat="45.78914" lon="1.89916">
        <ele>704.3</ele>
        <time>2026-07-08T13:31:05.000Z</time>
      </trkpt>
      <trkpt lat="45.78913" lon="1.89918">
        <ele>704.5</ele>
        <time>2026-07-08T13:31:06.000Z</time>
      </trkpt>
      <trkpt lat="45.78912" lon="1.89919">
        <ele>704.4</ele>
        <time>2026-07-08T13:31:07.000Z</time>
      </trkpt>
      <trkpt lat="45.78911" lon="1.89921">
        <ele>704.5</ele>
        <time>2026-07-08T13:31:08.000Z</time>
      </trkpt>
      <trkpt lat="45.7891" lon="1.89922">
        <ele>704.3</ele>
        <time>2026-07-08T13:31:09.000Z</time>
      </trkpt>
      <trkpt lat="45.78908" lon="1.89923">
        <ele>704.5</ele>
        <time>2026-07-08T13:31:10.000Z</time>
      </trkpt>
      <trkpt lat="45.78907" lon="1.89925">
        <ele>704.6</ele>
        <time>2026-07-08T13:31:11.000Z</time>
      </trkpt>
      <trkpt lat="45.78906" lon="1.89926">
        <ele>704.8</ele>
        <time>2026-07-08T13:31:12.000Z</time>
      </trkpt>
      <trkpt lat="45.78905" lon="1.89928">
        <ele>705.1</ele>
        <time>2026-07-08T13:31:13.000Z</time>
      </trkpt>
      <trkpt lat="45.78903" lon="1.89929">
        <ele>705.6</ele>
        <time>2026-07-08T13:31:14.000Z</time>
      </trkpt>
      <trkpt lat="45.78902" lon="1.89931">
        <ele>705.7</ele>
        <time>2026-07-08T13:31:15.000Z</time>
      </trkpt>
      <trkpt lat="45.789" lon="1.89932">
        <ele>706.2</ele>
        <time>2026-07-08T13:31:16.000Z</time>
      </trkpt>
      <trkpt lat="45.78898" lon="1.89933">
        <ele>706.1</ele>
        <time>2026-07-08T13:31:17.000Z</time>
      </trkpt>
      <trkpt lat="45.78897" lon="1.89935">
        <ele>706</ele>
        <time>2026-07-08T13:31:18.000Z</time>
      </trkpt>
      <trkpt lat="45.78896" lon="1.89936">
        <ele>706</ele>
        <time>2026-07-08T13:31:19.000Z</time>
      </trkpt>
      <trkpt lat="45.78894" lon="1.89937">
        <ele>705.4</ele>
        <time>2026-07-08T13:31:20.000Z</time>
      </trkpt>
      <trkpt lat="45.78893" lon="1.89939">
        <ele>705.5</ele>
        <time>2026-07-08T13:31:21.000Z</time>
      </trkpt>
      <trkpt lat="45.78892" lon="1.8994">
        <ele>705.8</ele>
        <time>2026-07-08T13:31:22.000Z</time>
      </trkpt>
      <trkpt lat="45.7889" lon="1.89941">
        <ele>706.2</ele>
        <time>2026-07-08T13:31:23.000Z</time>
      </trkpt>
      <trkpt lat="45.78889" lon="1.89943">
        <ele>706.3</ele>
        <time>2026-07-08T13:31:24.000Z</time>
      </trkpt>
      <trkpt lat="45.78888" lon="1.89944">
        <ele>706.2</ele>
        <time>2026-07-08T13:31:25.000Z</time>
      </trkpt>
      <trkpt lat="45.78887" lon="1.89945">
        <ele>706.3</ele>
        <time>2026-07-08T13:31:26.000Z</time>
      </trkpt>
      <trkpt lat="45.78885" lon="1.89947">
        <ele>706.3</ele>
        <time>2026-07-08T13:31:27.000Z</time>
      </trkpt>
      <trkpt lat="45.78884" lon="1.89948">
        <ele>706.1</ele>
        <time>2026-07-08T13:31:28.000Z</time>
      </trkpt>
      <trkpt lat="45.78882" lon="1.89949">
        <ele>705.7</ele>
        <time>2026-07-08T13:31:29.000Z</time>
      </trkpt>
      <trkpt lat="45.78881" lon="1.8995">
        <ele>705.8</ele>
        <time>2026-07-08T13:31:30.000Z</time>
      </trkpt>
      <trkpt lat="45.7888" lon="1.89951">
        <ele>705.7</ele>
        <time>2026-07-08T13:31:31.000Z</time>
      </trkpt>
      <trkpt lat="45.78878" lon="1.89952">
        <ele>705.5</ele>
        <time>2026-07-08T13:31:32.000Z</time>
      </trkpt>
      <trkpt lat="45.78877" lon="1.89953">
        <ele>705.3</ele>
        <time>2026-07-08T13:31:33.000Z</time>
      </trkpt>
      <trkpt lat="45.78876" lon="1.89954">
        <ele>705.3</ele>
        <time>2026-07-08T13:31:34.000Z</time>
      </trkpt>
      <trkpt lat="45.78875" lon="1.89954">
        <ele>705.2</ele>
        <time>2026-07-08T13:31:35.000Z</time>
      </trkpt>
      <trkpt lat="45.78873" lon="1.89956">
        <ele>705.4</ele>
        <time>2026-07-08T13:31:36.000Z</time>
      </trkpt>
      <trkpt lat="45.7887" lon="1.89958">
        <ele>705.6</ele>
        <time>2026-07-08T13:31:37.000Z</time>
      </trkpt>
      <trkpt lat="45.78867" lon="1.89959">
        <ele>705.8</ele>
        <time>2026-07-08T13:31:38.000Z</time>
      </trkpt>
      <trkpt lat="45.78864" lon="1.8996">
        <ele>706.2</ele>
        <time>2026-07-08T13:31:39.000Z</time>
      </trkpt>
      <trkpt lat="45.78862" lon="1.89961">
        <ele>707.5</ele>
        <time>2026-07-08T13:31:40.000Z</time>
      </trkpt>
      <trkpt lat="45.7886" lon="1.89962">
        <ele>706.8</ele>
        <time>2026-07-08T13:31:41.000Z</time>
      </trkpt>
      <trkpt lat="45.78859" lon="1.89963">
        <ele>707.1</ele>
        <time>2026-07-08T13:31:42.000Z</time>
      </trkpt>
      <trkpt lat="45.78858" lon="1.89964">
        <ele>706.8</ele>
        <time>2026-07-08T13:31:43.000Z</time>
      </trkpt>
      <trkpt lat="45.78857" lon="1.89965">
        <ele>706.8</ele>
        <time>2026-07-08T13:31:44.000Z</time>
      </trkpt>
      <trkpt lat="45.78856" lon="1.89966">
        <ele>706.7</ele>
        <time>2026-07-08T13:31:45.000Z</time>
      </trkpt>
      <trkpt lat="45.78855" lon="1.89967">
        <ele>705.3</ele>
        <time>2026-07-08T13:31:46.000Z</time>
      </trkpt>
      <trkpt lat="45.78854" lon="1.89968">
        <ele>704.8</ele>
        <time>2026-07-08T13:31:47.000Z</time>
      </trkpt>
      <trkpt lat="45.78852" lon="1.89968">
        <ele>702.8</ele>
        <time>2026-07-08T13:31:48.000Z</time>
      </trkpt>
      <trkpt lat="45.78851" lon="1.8997">
        <ele>703.6</ele>
        <time>2026-07-08T13:31:49.000Z</time>
      </trkpt>
      <trkpt lat="45.78849" lon="1.89972">
        <ele>704.3</ele>
        <time>2026-07-08T13:31:50.000Z</time>
      </trkpt>
      <trkpt lat="45.78848" lon="1.89974">
        <ele>704.8</ele>
        <time>2026-07-08T13:31:51.000Z</time>
      </trkpt>
      <trkpt lat="45.78846" lon="1.89976">
        <ele>705</ele>
        <time>2026-07-08T13:31:52.000Z</time>
      </trkpt>
      <trkpt lat="45.78845" lon="1.89977">
        <ele>704.7</ele>
        <time>2026-07-08T13:31:53.000Z</time>
      </trkpt>
      <trkpt lat="45.78844" lon="1.89979">
        <ele>704.6</ele>
        <time>2026-07-08T13:31:54.000Z</time>
      </trkpt>
      <trkpt lat="45.78842" lon="1.8998">
        <ele>704.4</ele>
        <time>2026-07-08T13:31:55.000Z</time>
      </trkpt>
      <trkpt lat="45.78841" lon="1.89982">
        <ele>704.8</ele>
        <time>2026-07-08T13:31:56.000Z</time>
      </trkpt>
      <trkpt lat="45.7884" lon="1.89983">
        <ele>705.3</ele>
        <time>2026-07-08T13:31:57.000Z</time>
      </trkpt>
      <trkpt lat="45.7884" lon="1.89984">
        <ele>704.7</ele>
        <time>2026-07-08T13:31:58.000Z</time>
      </trkpt>
      <trkpt lat="45.78839" lon="1.89987">
        <ele>704.9</ele>
        <time>2026-07-08T13:31:59.000Z</time>
      </trkpt>
      <trkpt lat="45.78839" lon="1.89988">
        <ele>703.9</ele>
        <time>2026-07-08T13:32:00.000Z</time>
      </trkpt>
      <trkpt lat="45.78838" lon="1.89989">
        <ele>703.9</ele>
        <time>2026-07-08T13:32:01.000Z</time>
      </trkpt>
      <trkpt lat="45.78837" lon="1.89991">
        <ele>703.7</ele>
        <time>2026-07-08T13:32:02.000Z</time>
      </trkpt>
      <trkpt lat="45.78836" lon="1.89994">
        <ele>703</ele>
        <time>2026-07-08T13:32:03.000Z</time>
      </trkpt>
      <trkpt lat="45.78835" lon="1.89995">
        <ele>703.2</ele>
        <time>2026-07-08T13:32:04.000Z</time>
      </trkpt>
      <trkpt lat="45.78834" lon="1.89997">
        <ele>703.6</ele>
        <time>2026-07-08T13:32:05.000Z</time>
      </trkpt>
      <trkpt lat="45.78833" lon="1.89999">
        <ele>703.1</ele>
        <time>2026-07-08T13:32:06.000Z</time>
      </trkpt>
      <trkpt lat="45.78832" lon="1.90002">
        <ele>704</ele>
        <time>2026-07-08T13:32:07.000Z</time>
      </trkpt>
      <trkpt lat="45.78832" lon="1.90005">
        <ele>703.7</ele>
        <time>2026-07-08T13:32:08.000Z</time>
      </trkpt>
      <trkpt lat="45.78831" lon="1.90009">
        <ele>703.6</ele>
        <time>2026-07-08T13:32:09.000Z</time>
      </trkpt>
      <trkpt lat="45.7883" lon="1.90013">
        <ele>702.9</ele>
        <time>2026-07-08T13:32:10.000Z</time>
      </trkpt>
      <trkpt lat="45.78829" lon="1.90018">
        <ele>702.6</ele>
        <time>2026-07-08T13:32:11.000Z</time>
      </trkpt>
      <trkpt lat="45.78828" lon="1.90023">
        <ele>702.5</ele>
        <time>2026-07-08T13:32:12.000Z</time>
      </trkpt>
      <trkpt lat="45.78828" lon="1.90027">
        <ele>703.6</ele>
        <time>2026-07-08T13:32:13.000Z</time>
      </trkpt>
      <trkpt lat="45.78827" lon="1.90029">
        <ele>704.4</ele>
        <time>2026-07-08T13:32:14.000Z</time>
      </trkpt>
      <trkpt lat="45.78827" lon="1.90031">
        <ele>705.2</ele>
        <time>2026-07-08T13:32:15.000Z</time>
      </trkpt>
      <trkpt lat="45.78827" lon="1.90033">
        <ele>703.7</ele>
        <time>2026-07-08T13:32:16.000Z</time>
      </trkpt>
      <trkpt lat="45.78827" lon="1.90034">
        <ele>703.3</ele>
        <time>2026-07-08T13:32:17.000Z</time>
      </trkpt>
      <trkpt lat="45.78826" lon="1.90036">
        <ele>703.4</ele>
        <time>2026-07-08T13:32:18.000Z</time>
      </trkpt>
      <trkpt lat="45.78825" lon="1.90037">
        <ele>702.9</ele>
        <time>2026-07-08T13:32:19.000Z</time>
      </trkpt>
      <trkpt lat="45.78825" lon="1.90038">
        <ele>702.6</ele>
        <time>2026-07-08T13:32:20.000Z</time>
      </trkpt>
      <trkpt lat="45.78825" lon="1.9004">
        <ele>702.6</ele>
        <time>2026-07-08T13:32:21.000Z</time>
      </trkpt>
      <trkpt lat="45.78824" lon="1.90042">
        <ele>703.6</ele>
        <time>2026-07-08T13:32:22.000Z</time>
      </trkpt>
      <trkpt lat="45.78823" lon="1.90044">
        <ele>704.1</ele>
        <time>2026-07-08T13:32:23.000Z</time>
      </trkpt>
      <trkpt lat="45.78822" lon="1.90046">
        <ele>704.1</ele>
        <time>2026-07-08T13:32:24.000Z</time>
      </trkpt>
      <trkpt lat="45.78821" lon="1.90047">
        <ele>703.6</ele>
        <time>2026-07-08T13:32:25.000Z</time>
      </trkpt>
      <trkpt lat="45.78821" lon="1.90049">
        <ele>703.7</ele>
        <time>2026-07-08T13:32:26.000Z</time>
      </trkpt>
      <trkpt lat="45.7882" lon="1.90051">
        <ele>703.4</ele>
        <time>2026-07-08T13:32:27.000Z</time>
      </trkpt>
      <trkpt lat="45.78819" lon="1.90052">
        <ele>703.4</ele>
        <time>2026-07-08T13:32:28.000Z</time>
      </trkpt>
      <trkpt lat="45.78818" lon="1.90054">
        <ele>703.4</ele>
        <time>2026-07-08T13:32:29.000Z</time>
      </trkpt>
      <trkpt lat="45.78818" lon="1.90056">
        <ele>703.9</ele>
        <time>2026-07-08T13:32:30.000Z</time>
      </trkpt>
      <trkpt lat="45.78817" lon="1.90058">
        <ele>703.6</ele>
        <time>2026-07-08T13:32:31.000Z</time>
      </trkpt>
      <trkpt lat="45.78816" lon="1.9006">
        <ele>703.6</ele>
        <time>2026-07-08T13:32:32.000Z</time>
      </trkpt>
      <trkpt lat="45.78815" lon="1.90062">
        <ele>704.3</ele>
        <time>2026-07-08T13:32:33.000Z</time>
      </trkpt>
      <trkpt lat="45.78814" lon="1.90064">
        <ele>705</ele>
        <time>2026-07-08T13:32:34.000Z</time>
      </trkpt>
      <trkpt lat="45.78813" lon="1.90065">
        <ele>705.2</ele>
        <time>2026-07-08T13:32:35.000Z</time>
      </trkpt>
      <trkpt lat="45.78812" lon="1.90067">
        <ele>706.4</ele>
        <time>2026-07-08T13:32:36.000Z</time>
      </trkpt>
      <trkpt lat="45.78811" lon="1.90069">
        <ele>706.4</ele>
        <time>2026-07-08T13:32:37.000Z</time>
      </trkpt>
      <trkpt lat="45.7881" lon="1.9007">
        <ele>705.9</ele>
        <time>2026-07-08T13:32:38.000Z</time>
      </trkpt>
      <trkpt lat="45.78809" lon="1.90072">
        <ele>705.8</ele>
        <time>2026-07-08T13:32:39.000Z</time>
      </trkpt>
      <trkpt lat="45.78808" lon="1.90074">
        <ele>706.1</ele>
        <time>2026-07-08T13:32:40.000Z</time>
      </trkpt>
      <trkpt lat="45.78807" lon="1.90075">
        <ele>705.4</ele>
        <time>2026-07-08T13:32:41.000Z</time>
      </trkpt>
      <trkpt lat="45.78805" lon="1.90077">
        <ele>704.9</ele>
        <time>2026-07-08T13:32:42.000Z</time>
      </trkpt>
      <trkpt lat="45.78804" lon="1.90078">
        <ele>704.3</ele>
        <time>2026-07-08T13:32:43.000Z</time>
      </trkpt>
      <trkpt lat="45.78802" lon="1.90079">
        <ele>704.2</ele>
        <time>2026-07-08T13:32:44.000Z</time>
      </trkpt>
      <trkpt lat="45.78801" lon="1.90081">
        <ele>703.4</ele>
        <time>2026-07-08T13:32:45.000Z</time>
      </trkpt>
      <trkpt lat="45.788" lon="1.90082">
        <ele>703.3</ele>
        <time>2026-07-08T13:32:46.000Z</time>
      </trkpt>
      <trkpt lat="45.78798" lon="1.90084">
        <ele>703.6</ele>
        <time>2026-07-08T13:32:47.000Z</time>
      </trkpt>
      <trkpt lat="45.78797" lon="1.90085">
        <ele>704.1</ele>
        <time>2026-07-08T13:32:48.000Z</time>
      </trkpt>
      <trkpt lat="45.78796" lon="1.90086">
        <ele>703.7</ele>
        <time>2026-07-08T13:32:49.000Z</time>
      </trkpt>
      <trkpt lat="45.78794" lon="1.90088">
        <ele>703.2</ele>
        <time>2026-07-08T13:32:50.000Z</time>
      </trkpt>
      <trkpt lat="45.78792" lon="1.90089">
        <ele>703.3</ele>
        <time>2026-07-08T13:32:51.000Z</time>
      </trkpt>
      <trkpt lat="45.7879" lon="1.90089">
        <ele>703.8</ele>
        <time>2026-07-08T13:32:52.000Z</time>
      </trkpt>
      <trkpt lat="45.78789" lon="1.9009">
        <ele>704.2</ele>
        <time>2026-07-08T13:32:53.000Z</time>
      </trkpt>
      <trkpt lat="45.78787" lon="1.90091">
        <ele>703.9</ele>
        <time>2026-07-08T13:32:54.000Z</time>
      </trkpt>
      <trkpt lat="45.78785" lon="1.90093">
        <ele>704</ele>
        <time>2026-07-08T13:32:55.000Z</time>
      </trkpt>
      <trkpt lat="45.78783" lon="1.90094">
        <ele>703.9</ele>
        <time>2026-07-08T13:32:56.000Z</time>
      </trkpt>
      <trkpt lat="45.78781" lon="1.90095">
        <ele>703.3</ele>
        <time>2026-07-08T13:32:57.000Z</time>
      </trkpt>
      <trkpt lat="45.7878" lon="1.90096">
        <ele>703.9</ele>
        <time>2026-07-08T13:32:58.000Z</time>
      </trkpt>
      <trkpt lat="45.78779" lon="1.90098">
        <ele>703.6</ele>
        <time>2026-07-08T13:32:59.000Z</time>
      </trkpt>
      <trkpt lat="45.78778" lon="1.901">
        <ele>703</ele>
        <time>2026-07-08T13:33:00.000Z</time>
      </trkpt>
      <trkpt lat="45.78777" lon="1.90101">
        <ele>702.5</ele>
        <time>2026-07-08T13:33:01.000Z</time>
      </trkpt>
      <trkpt lat="45.78776" lon="1.90102">
        <ele>702.5</ele>
        <time>2026-07-08T13:33:02.000Z</time>
      </trkpt>
      <trkpt lat="45.78775" lon="1.90104">
        <ele>702.8</ele>
        <time>2026-07-08T13:33:03.000Z</time>
      </trkpt>
      <trkpt lat="45.78774" lon="1.90106">
        <ele>701.8</ele>
        <time>2026-07-08T13:33:04.000Z</time>
      </trkpt>
      <trkpt lat="45.78773" lon="1.90107">
        <ele>700.8</ele>
        <time>2026-07-08T13:33:05.000Z</time>
      </trkpt>
      <trkpt lat="45.78772" lon="1.90108">
        <ele>701.1</ele>
        <time>2026-07-08T13:33:06.000Z</time>
      </trkpt>
      <trkpt lat="45.78771" lon="1.90109">
        <ele>700.7</ele>
        <time>2026-07-08T13:33:07.000Z</time>
      </trkpt>
      <trkpt lat="45.7877" lon="1.90111">
        <ele>700.6</ele>
        <time>2026-07-08T13:33:08.000Z</time>
      </trkpt>
      <trkpt lat="45.78769" lon="1.90113">
        <ele>699.7</ele>
        <time>2026-07-08T13:33:09.000Z</time>
      </trkpt>
      <trkpt lat="45.78767" lon="1.90114">
        <ele>700.8</ele>
        <time>2026-07-08T13:33:10.000Z</time>
      </trkpt>
      <trkpt lat="45.78766" lon="1.90115">
        <ele>702.2</ele>
        <time>2026-07-08T13:33:11.000Z</time>
      </trkpt>
      <trkpt lat="45.78765" lon="1.90117">
        <ele>702.4</ele>
        <time>2026-07-08T13:33:12.000Z</time>
      </trkpt>
      <trkpt lat="45.78764" lon="1.90119">
        <ele>702.6</ele>
        <time>2026-07-08T13:33:13.000Z</time>
      </trkpt>
      <trkpt lat="45.78763" lon="1.9012">
        <ele>703</ele>
        <time>2026-07-08T13:33:14.000Z</time>
      </trkpt>
      <trkpt lat="45.78762" lon="1.90122">
        <ele>702.8</ele>
        <time>2026-07-08T13:33:15.000Z</time>
      </trkpt>
      <trkpt lat="45.78761" lon="1.90124">
        <ele>703.1</ele>
        <time>2026-07-08T13:33:16.000Z</time>
      </trkpt>
      <trkpt lat="45.7876" lon="1.90126">
        <ele>703</ele>
        <time>2026-07-08T13:33:17.000Z</time>
      </trkpt>
      <trkpt lat="45.78759" lon="1.90128">
        <ele>702.5</ele>
        <time>2026-07-08T13:33:18.000Z</time>
      </trkpt>
      <trkpt lat="45.78758" lon="1.90129">
        <ele>702.3</ele>
        <time>2026-07-08T13:33:19.000Z</time>
      </trkpt>
      <trkpt lat="45.78757" lon="1.90131">
        <ele>702.5</ele>
        <time>2026-07-08T13:33:20.000Z</time>
      </trkpt>
      <trkpt lat="45.78756" lon="1.90133">
        <ele>701.9</ele>
        <time>2026-07-08T13:33:21.000Z</time>
      </trkpt>
      <trkpt lat="45.78755" lon="1.90135">
        <ele>701.5</ele>
        <time>2026-07-08T13:33:22.000Z</time>
      </trkpt>
      <trkpt lat="45.78754" lon="1.90137">
        <ele>701.1</ele>
        <time>2026-07-08T13:33:23.000Z</time>
      </trkpt>
      <trkpt lat="45.78753" lon="1.90139">
        <ele>700.7</ele>
        <time>2026-07-08T13:33:24.000Z</time>
      </trkpt>
      <trkpt lat="45.78752" lon="1.90141">
        <ele>700.7</ele>
        <time>2026-07-08T13:33:25.000Z</time>
      </trkpt>
      <trkpt lat="45.78751" lon="1.90143">
        <ele>700.8</ele>
        <time>2026-07-08T13:33:26.000Z</time>
      </trkpt>
      <trkpt lat="45.78751" lon="1.90145">
        <ele>701.1</ele>
        <time>2026-07-08T13:33:27.000Z</time>
      </trkpt>
      <trkpt lat="45.7875" lon="1.90147">
        <ele>701.2</ele>
        <time>2026-07-08T13:33:28.000Z</time>
      </trkpt>
      <trkpt lat="45.78749" lon="1.90149">
        <ele>701.5</ele>
        <time>2026-07-08T13:33:29.000Z</time>
      </trkpt>
      <trkpt lat="45.78748" lon="1.90151">
        <ele>702.8</ele>
        <time>2026-07-08T13:33:30.000Z</time>
      </trkpt>
      <trkpt lat="45.78747" lon="1.90154">
        <ele>703</ele>
        <time>2026-07-08T13:33:31.000Z</time>
      </trkpt>
      <trkpt lat="45.78746" lon="1.90156">
        <ele>703.8</ele>
        <time>2026-07-08T13:33:32.000Z</time>
      </trkpt>
      <trkpt lat="45.78745" lon="1.90158">
        <ele>703.5</ele>
        <time>2026-07-08T13:33:33.000Z</time>
      </trkpt>
      <trkpt lat="45.78744" lon="1.90161">
        <ele>703.6</ele>
        <time>2026-07-08T13:33:34.000Z</time>
      </trkpt>
      <trkpt lat="45.78744" lon="1.90163">
        <ele>703.6</ele>
        <time>2026-07-08T13:33:35.000Z</time>
      </trkpt>
      <trkpt lat="45.78743" lon="1.90165">
        <ele>703.4</ele>
        <time>2026-07-08T13:33:36.000Z</time>
      </trkpt>
      <trkpt lat="45.78742" lon="1.90167">
        <ele>703.5</ele>
        <time>2026-07-08T13:33:37.000Z</time>
      </trkpt>
      <trkpt lat="45.78741" lon="1.9017">
        <ele>703.7</ele>
        <time>2026-07-08T13:33:38.000Z</time>
      </trkpt>
      <trkpt lat="45.78741" lon="1.90172">
        <ele>703.5</ele>
        <time>2026-07-08T13:33:39.000Z</time>
      </trkpt>
      <trkpt lat="45.7874" lon="1.90175">
        <ele>704</ele>
        <time>2026-07-08T13:33:40.000Z</time>
      </trkpt>
      <trkpt lat="45.7874" lon="1.90178">
        <ele>703.1</ele>
        <time>2026-07-08T13:33:41.000Z</time>
      </trkpt>
      <trkpt lat="45.78739" lon="1.9018">
        <ele>704</ele>
        <time>2026-07-08T13:33:42.000Z</time>
      </trkpt>
      <trkpt lat="45.78738" lon="1.90183">
        <ele>704.6</ele>
        <time>2026-07-08T13:33:43.000Z</time>
      </trkpt>
      <trkpt lat="45.78737" lon="1.90185">
        <ele>704.5</ele>
        <time>2026-07-08T13:33:44.000Z</time>
      </trkpt>
      <trkpt lat="45.78736" lon="1.90187">
        <ele>704.6</ele>
        <time>2026-07-08T13:33:45.000Z</time>
      </trkpt>
      <trkpt lat="45.78735" lon="1.90189">
        <ele>705.1</ele>
        <time>2026-07-08T13:33:46.000Z</time>
      </trkpt>
      <trkpt lat="45.78734" lon="1.90191">
        <ele>705</ele>
        <time>2026-07-08T13:33:47.000Z</time>
      </trkpt>
      <trkpt lat="45.78733" lon="1.90193">
        <ele>705.3</ele>
        <time>2026-07-08T13:33:48.000Z</time>
      </trkpt>
      <trkpt lat="45.78732" lon="1.90196">
        <ele>705.6</ele>
        <time>2026-07-08T13:33:49.000Z</time>
      </trkpt>
      <trkpt lat="45.78731" lon="1.90197">
        <ele>705.6</ele>
        <time>2026-07-08T13:33:50.000Z</time>
      </trkpt>
      <trkpt lat="45.78728" lon="1.90198">
        <ele>706.4</ele>
        <time>2026-07-08T13:33:51.000Z</time>
      </trkpt>
      <trkpt lat="45.78726" lon="1.90199">
        <ele>705.6</ele>
        <time>2026-07-08T13:33:52.000Z</time>
      </trkpt>
      <trkpt lat="45.78725" lon="1.90202">
        <ele>705.3</ele>
        <time>2026-07-08T13:33:53.000Z</time>
      </trkpt>
      <trkpt lat="45.78723" lon="1.90205">
        <ele>704.8</ele>
        <time>2026-07-08T13:33:54.000Z</time>
      </trkpt>
      <trkpt lat="45.78722" lon="1.90207">
        <ele>704.2</ele>
        <time>2026-07-08T13:33:55.000Z</time>
      </trkpt>
      <trkpt lat="45.78721" lon="1.90209">
        <ele>704.4</ele>
        <time>2026-07-08T13:33:56.000Z</time>
      </trkpt>
      <trkpt lat="45.78721" lon="1.9021">
        <ele>703.5</ele>
        <time>2026-07-08T13:33:57.000Z</time>
      </trkpt>
      <trkpt lat="45.7872" lon="1.90212">
        <ele>704.4</ele>
        <time>2026-07-08T13:33:58.000Z</time>
      </trkpt>
      <trkpt lat="45.78719" lon="1.90214">
        <ele>704.5</ele>
        <time>2026-07-08T13:33:59.000Z</time>
      </trkpt>
      <trkpt lat="45.78718" lon="1.90216">
        <ele>703.8</ele>
        <time>2026-07-08T13:34:00.000Z</time>
      </trkpt>
      <trkpt lat="45.78716" lon="1.90219">
        <ele>704.7</ele>
        <time>2026-07-08T13:34:01.000Z</time>
      </trkpt>
      <trkpt lat="45.78715" lon="1.90221">
        <ele>706</ele>
        <time>2026-07-08T13:34:02.000Z</time>
      </trkpt>
      <trkpt lat="45.78714" lon="1.90223">
        <ele>706.5</ele>
        <time>2026-07-08T13:34:03.000Z</time>
      </trkpt>
      <trkpt lat="45.78713" lon="1.90226">
        <ele>706.7</ele>
        <time>2026-07-08T13:34:04.000Z</time>
      </trkpt>
      <trkpt lat="45.78712" lon="1.90228">
        <ele>706.9</ele>
        <time>2026-07-08T13:34:05.000Z</time>
      </trkpt>
      <trkpt lat="45.78711" lon="1.9023">
        <ele>706.1</ele>
        <time>2026-07-08T13:34:06.000Z</time>
      </trkpt>
      <trkpt lat="45.7871" lon="1.90233">
        <ele>706.1</ele>
        <time>2026-07-08T13:34:07.000Z</time>
      </trkpt>
      <trkpt lat="45.7871" lon="1.90235">
        <ele>705.2</ele>
        <time>2026-07-08T13:34:08.000Z</time>
      </trkpt>
      <trkpt lat="45.78709" lon="1.90237">
        <ele>706.5</ele>
        <time>2026-07-08T13:34:09.000Z</time>
      </trkpt>
      <trkpt lat="45.78708" lon="1.90239">
        <ele>706.5</ele>
        <time>2026-07-08T13:34:10.000Z</time>
      </trkpt>
      <trkpt lat="45.78708" lon="1.9024">
        <ele>706.3</ele>
        <time>2026-07-08T13:34:11.000Z</time>
      </trkpt>
      <trkpt lat="45.78707" lon="1.90242">
        <ele>706.1</ele>
        <time>2026-07-08T13:34:12.000Z</time>
      </trkpt>
      <trkpt lat="45.78706" lon="1.90245">
        <ele>705.8</ele>
        <time>2026-07-08T13:34:13.000Z</time>
      </trkpt>
      <trkpt lat="45.78706" lon="1.90247">
        <ele>705.3</ele>
        <time>2026-07-08T13:34:14.000Z</time>
      </trkpt>
      <trkpt lat="45.78706" lon="1.9025">
        <ele>704.4</ele>
        <time>2026-07-08T13:34:15.000Z</time>
      </trkpt>
      <trkpt lat="45.78706" lon="1.90252">
        <ele>704.7</ele>
        <time>2026-07-08T13:34:16.000Z</time>
      </trkpt>
      <trkpt lat="45.78706" lon="1.90255">
        <ele>704.2</ele>
        <time>2026-07-08T13:34:17.000Z</time>
      </trkpt>
      <trkpt lat="45.78705" lon="1.90257">
        <ele>704.5</ele>
        <time>2026-07-08T13:34:18.000Z</time>
      </trkpt>
      <trkpt lat="45.78705" lon="1.9026">
        <ele>704.1</ele>
        <time>2026-07-08T13:34:19.000Z</time>
      </trkpt>
      <trkpt lat="45.78705" lon="1.90262">
        <ele>704.3</ele>
        <time>2026-07-08T13:34:20.000Z</time>
      </trkpt>
      <trkpt lat="45.78705" lon="1.90265">
        <ele>704.7</ele>
        <time>2026-07-08T13:34:21.000Z</time>
      </trkpt>
      <trkpt lat="45.78705" lon="1.90268">
        <ele>705</ele>
        <time>2026-07-08T13:34:22.000Z</time>
      </trkpt>
      <trkpt lat="45.78705" lon="1.90271">
        <ele>705.3</ele>
        <time>2026-07-08T13:34:23.000Z</time>
      </trkpt>
      <trkpt lat="45.78705" lon="1.90274">
        <ele>705.5</ele>
        <time>2026-07-08T13:34:24.000Z</time>
      </trkpt>
      <trkpt lat="45.78705" lon="1.90275">
        <ele>704.8</ele>
        <time>2026-07-08T13:34:25.000Z</time>
      </trkpt>
      <trkpt lat="45.78705" lon="1.90277">
        <ele>704.9</ele>
        <time>2026-07-08T13:34:26.000Z</time>
      </trkpt>
      <trkpt lat="45.78705" lon="1.9028">
        <ele>704.9</ele>
        <time>2026-07-08T13:34:27.000Z</time>
      </trkpt>
      <trkpt lat="45.78705" lon="1.90282">
        <ele>704.6</ele>
        <time>2026-07-08T13:34:28.000Z</time>
      </trkpt>
      <trkpt lat="45.78705" lon="1.90285">
        <ele>704.8</ele>
        <time>2026-07-08T13:34:29.000Z</time>
      </trkpt>
      <trkpt lat="45.78705" lon="1.90287">
        <ele>704.7</ele>
        <time>2026-07-08T13:34:30.000Z</time>
      </trkpt>
      <trkpt lat="45.78704" lon="1.90289">
        <ele>704.6</ele>
        <time>2026-07-08T13:34:31.000Z</time>
      </trkpt>
      <trkpt lat="45.78704" lon="1.90292">
        <ele>705.1</ele>
        <time>2026-07-08T13:34:32.000Z</time>
      </trkpt>
      <trkpt lat="45.78704" lon="1.90294">
        <ele>705.1</ele>
        <time>2026-07-08T13:34:33.000Z</time>
      </trkpt>
      <trkpt lat="45.78703" lon="1.90297">
        <ele>705.1</ele>
        <time>2026-07-08T13:34:34.000Z</time>
      </trkpt>
      <trkpt lat="45.78703" lon="1.90299">
        <ele>705.1</ele>
        <time>2026-07-08T13:34:35.000Z</time>
      </trkpt>
      <trkpt lat="45.78702" lon="1.90301">
        <ele>704.9</ele>
        <time>2026-07-08T13:34:36.000Z</time>
      </trkpt>
      <trkpt lat="45.78702" lon="1.90303">
        <ele>705.1</ele>
        <time>2026-07-08T13:34:37.000Z</time>
      </trkpt>
      <trkpt lat="45.78701" lon="1.90306">
        <ele>705.4</ele>
        <time>2026-07-08T13:34:38.000Z</time>
      </trkpt>
      <trkpt lat="45.78701" lon="1.90308">
        <ele>705.3</ele>
        <time>2026-07-08T13:34:39.000Z</time>
      </trkpt>
      <trkpt lat="45.78701" lon="1.90311">
        <ele>705.6</ele>
        <time>2026-07-08T13:34:40.000Z</time>
      </trkpt>
      <trkpt lat="45.787" lon="1.90313">
        <ele>705.5</ele>
        <time>2026-07-08T13:34:41.000Z</time>
      </trkpt>
      <trkpt lat="45.787" lon="1.90315">
        <ele>705.1</ele>
        <time>2026-07-08T13:34:42.000Z</time>
      </trkpt>
      <trkpt lat="45.78699" lon="1.90317">
        <ele>705</ele>
        <time>2026-07-08T13:34:43.000Z</time>
      </trkpt>
      <trkpt lat="45.78698" lon="1.90319">
        <ele>704.9</ele>
        <time>2026-07-08T13:34:44.000Z</time>
      </trkpt>
      <trkpt lat="45.78698" lon="1.90321">
        <ele>704.7</ele>
        <time>2026-07-08T13:34:45.000Z</time>
      </trkpt>
      <trkpt lat="45.78697" lon="1.90323">
        <ele>704.4</ele>
        <time>2026-07-08T13:34:46.000Z</time>
      </trkpt>
      <trkpt lat="45.78697" lon="1.90325">
        <ele>704.5</ele>
        <time>2026-07-08T13:34:47.000Z</time>
      </trkpt>
      <trkpt lat="45.78696" lon="1.90327">
        <ele>704.2</ele>
        <time>2026-07-08T13:34:48.000Z</time>
      </trkpt>
      <trkpt lat="45.78696" lon="1.90329">
        <ele>703.8</ele>
        <time>2026-07-08T13:34:49.000Z</time>
      </trkpt>
      <trkpt lat="45.78695" lon="1.90331">
        <ele>703.2</ele>
        <time>2026-07-08T13:34:50.000Z</time>
      </trkpt>
      <trkpt lat="45.78695" lon="1.90333">
        <ele>702.7</ele>
        <time>2026-07-08T13:34:51.000Z</time>
      </trkpt>
      <trkpt lat="45.78694" lon="1.90335">
        <ele>702.3</ele>
        <time>2026-07-08T13:34:52.000Z</time>
      </trkpt>
      <trkpt lat="45.78693" lon="1.90337">
        <ele>701.7</ele>
        <time>2026-07-08T13:34:53.000Z</time>
      </trkpt>
      <trkpt lat="45.78692" lon="1.90339">
        <ele>701.8</ele>
        <time>2026-07-08T13:34:54.000Z</time>
      </trkpt>
      <trkpt lat="45.78692" lon="1.90341">
        <ele>702.5</ele>
        <time>2026-07-08T13:34:55.000Z</time>
      </trkpt>
      <trkpt lat="45.78691" lon="1.90343">
        <ele>702.5</ele>
        <time>2026-07-08T13:34:56.000Z</time>
      </trkpt>
      <trkpt lat="45.7869" lon="1.90345">
        <ele>703.5</ele>
        <time>2026-07-08T13:34:57.000Z</time>
      </trkpt>
      <trkpt lat="45.78688" lon="1.90347">
        <ele>703.2</ele>
        <time>2026-07-08T13:34:58.000Z</time>
      </trkpt>
      <trkpt lat="45.78687" lon="1.90348">
        <ele>703.1</ele>
        <time>2026-07-08T13:34:59.000Z</time>
      </trkpt>
      <trkpt lat="45.78686" lon="1.90349">
        <ele>702.9</ele>
        <time>2026-07-08T13:35:00.000Z</time>
      </trkpt>
      <trkpt lat="45.78685" lon="1.90351">
        <ele>702.8</ele>
        <time>2026-07-08T13:35:01.000Z</time>
      </trkpt>
      <trkpt lat="45.78684" lon="1.90353">
        <ele>702.6</ele>
        <time>2026-07-08T13:35:02.000Z</time>
      </trkpt>
      <trkpt lat="45.78682" lon="1.90355">
        <ele>702.9</ele>
        <time>2026-07-08T13:35:03.000Z</time>
      </trkpt>
      <trkpt lat="45.78681" lon="1.90356">
        <ele>702.4</ele>
        <time>2026-07-08T13:35:04.000Z</time>
      </trkpt>
      <trkpt lat="45.78679" lon="1.90357">
        <ele>702.5</ele>
        <time>2026-07-08T13:35:05.000Z</time>
      </trkpt>
      <trkpt lat="45.78677" lon="1.90358">
        <ele>702.2</ele>
        <time>2026-07-08T13:35:06.000Z</time>
      </trkpt>
      <trkpt lat="45.78675" lon="1.9036">
        <ele>701.3</ele>
        <time>2026-07-08T13:35:07.000Z</time>
      </trkpt>
      <trkpt lat="45.78673" lon="1.90361">
        <ele>701.3</ele>
        <time>2026-07-08T13:35:08.000Z</time>
      </trkpt>
      <trkpt lat="45.78672" lon="1.90363">
        <ele>701.7</ele>
        <time>2026-07-08T13:35:09.000Z</time>
      </trkpt>
      <trkpt lat="45.78671" lon="1.90364">
        <ele>701.7</ele>
        <time>2026-07-08T13:35:10.000Z</time>
      </trkpt>
      <trkpt lat="45.78669" lon="1.90366">
        <ele>703</ele>
        <time>2026-07-08T13:35:11.000Z</time>
      </trkpt>
      <trkpt lat="45.78669" lon="1.90369">
        <ele>703.4</ele>
        <time>2026-07-08T13:35:12.000Z</time>
      </trkpt>
      <trkpt lat="45.78667" lon="1.90371">
        <ele>704.2</ele>
        <time>2026-07-08T13:35:13.000Z</time>
      </trkpt>
      <trkpt lat="45.78668" lon="1.90377">
        <ele>705.6</ele>
        <time>2026-07-08T13:35:14.000Z</time>
      </trkpt>
      <trkpt lat="45.78669" lon="1.9038">
        <ele>705.7</ele>
        <time>2026-07-08T13:35:15.000Z</time>
      </trkpt>
      <trkpt lat="45.7867" lon="1.90384">
        <ele>705.3</ele>
        <time>2026-07-08T13:35:16.000Z</time>
      </trkpt>
      <trkpt lat="45.78671" lon="1.90387">
        <ele>706.1</ele>
        <time>2026-07-08T13:35:17.000Z</time>
      </trkpt>
      <trkpt lat="45.78673" lon="1.90389">
        <ele>706.9</ele>
        <time>2026-07-08T13:35:18.000Z</time>
      </trkpt>
      <trkpt lat="45.78674" lon="1.90392">
        <ele>707.7</ele>
        <time>2026-07-08T13:35:19.000Z</time>
      </trkpt>
      <trkpt lat="45.78675" lon="1.90395">
        <ele>708.7</ele>
        <time>2026-07-08T13:35:20.000Z</time>
      </trkpt>
      <trkpt lat="45.78676" lon="1.90397">
        <ele>708.4</ele>
        <time>2026-07-08T13:35:21.000Z</time>
      </trkpt>
      <trkpt lat="45.78678" lon="1.90399">
        <ele>708.6</ele>
        <time>2026-07-08T13:35:22.000Z</time>
      </trkpt>
      <trkpt lat="45.78679" lon="1.90401">
        <ele>708.9</ele>
        <time>2026-07-08T13:35:23.000Z</time>
      </trkpt>
      <trkpt lat="45.7868" lon="1.90403">
        <ele>707.9</ele>
        <time>2026-07-08T13:35:24.000Z</time>
      </trkpt>
      <trkpt lat="45.78681" lon="1.90406">
        <ele>707.4</ele>
        <time>2026-07-08T13:35:25.000Z</time>
      </trkpt>
      <trkpt lat="45.78682" lon="1.90407">
        <ele>708.1</ele>
        <time>2026-07-08T13:35:26.000Z</time>
      </trkpt>
      <trkpt lat="45.78684" lon="1.90409">
        <ele>706.7</ele>
        <time>2026-07-08T13:35:27.000Z</time>
      </trkpt>
      <trkpt lat="45.78685" lon="1.90411">
        <ele>708.5</ele>
        <time>2026-07-08T13:35:28.000Z</time>
      </trkpt>
      <trkpt lat="45.78686" lon="1.90412">
        <ele>707.5</ele>
        <time>2026-07-08T13:35:29.000Z</time>
      </trkpt>
      <trkpt lat="45.78687" lon="1.90413">
        <ele>705.5</ele>
        <time>2026-07-08T13:35:30.000Z</time>
      </trkpt>
      <trkpt lat="45.78689" lon="1.90416">
        <ele>705.1</ele>
        <time>2026-07-08T13:35:31.000Z</time>
      </trkpt>
      <trkpt lat="45.78691" lon="1.90418">
        <ele>705.4</ele>
        <time>2026-07-08T13:35:32.000Z</time>
      </trkpt>
      <trkpt lat="45.78692" lon="1.90419">
        <ele>706.6</ele>
        <time>2026-07-08T13:35:33.000Z</time>
      </trkpt>
      <trkpt lat="45.78694" lon="1.9042">
        <ele>707.3</ele>
        <time>2026-07-08T13:35:34.000Z</time>
      </trkpt>
      <trkpt lat="45.78696" lon="1.90421">
        <ele>708.3</ele>
        <time>2026-07-08T13:35:35.000Z</time>
      </trkpt>
      <trkpt lat="45.78697" lon="1.90422">
        <ele>709.5</ele>
        <time>2026-07-08T13:35:36.000Z</time>
      </trkpt>
      <trkpt lat="45.78699" lon="1.90423">
        <ele>710.6</ele>
        <time>2026-07-08T13:35:37.000Z</time>
      </trkpt>
      <trkpt lat="45.787" lon="1.90423">
        <ele>710.8</ele>
        <time>2026-07-08T13:35:38.000Z</time>
      </trkpt>
      <trkpt lat="45.78701" lon="1.90423">
        <ele>710</ele>
        <time>2026-07-08T13:35:39.000Z</time>
      </trkpt>
      <trkpt lat="45.78703" lon="1.90423">
        <ele>710.2</ele>
        <time>2026-07-08T13:35:40.000Z</time>
      </trkpt>
      <trkpt lat="45.78704" lon="1.90423">
        <ele>711.4</ele>
        <time>2026-07-08T13:35:41.000Z</time>
      </trkpt>
      <trkpt lat="45.78705" lon="1.90423">
        <ele>712.4</ele>
        <time>2026-07-08T13:35:42.000Z</time>
      </trkpt>
      <trkpt lat="45.78706" lon="1.90423">
        <ele>712.5</ele>
        <time>2026-07-08T13:35:43.000Z</time>
      </trkpt>
      <trkpt lat="45.78707" lon="1.90423">
        <ele>712.9</ele>
        <time>2026-07-08T13:35:44.000Z</time>
      </trkpt>
      <trkpt lat="45.78706" lon="1.90423">
        <ele>712.4</ele>
        <time>2026-07-08T13:35:45.000Z</time>
      </trkpt>
      <trkpt lat="45.78706" lon="1.90423">
        <ele>712.4</ele>
        <time>2026-07-08T13:35:46.000Z</time>
      </trkpt>
      <trkpt lat="45.78707" lon="1.90423">
        <ele>712.3</ele>
        <time>2026-07-08T13:35:47.000Z</time>
      </trkpt>
      <trkpt lat="45.78708" lon="1.90424">
        <ele>711.8</ele>
        <time>2026-07-08T13:35:48.000Z</time>
      </trkpt>
      <trkpt lat="45.7871" lon="1.90424">
        <ele>711</ele>
        <time>2026-07-08T13:35:49.000Z</time>
      </trkpt>
      <trkpt lat="45.7871" lon="1.90424">
        <ele>711</ele>
        <time>2026-07-08T13:35:50.000Z</time>
      </trkpt>
      <trkpt lat="45.78711" lon="1.90423">
        <ele>710.3</ele>
        <time>2026-07-08T13:35:51.000Z</time>
      </trkpt>
      <trkpt lat="45.78712" lon="1.90424">
        <ele>709.4</ele>
        <time>2026-07-08T13:35:52.000Z</time>
      </trkpt>
      <trkpt lat="45.78713" lon="1.90423">
        <ele>709.4</ele>
        <time>2026-07-08T13:35:53.000Z</time>
      </trkpt>
      <trkpt lat="45.78712" lon="1.90422">
        <ele>709.3</ele>
        <time>2026-07-08T13:35:54.000Z</time>
      </trkpt>
      <trkpt lat="45.78713" lon="1.90422">
        <ele>709.4</ele>
        <time>2026-07-08T13:35:55.000Z</time>
      </trkpt>
      <trkpt lat="45.78714" lon="1.90421">
        <ele>708.8</ele>
        <time>2026-07-08T13:35:56.000Z</time>
      </trkpt>
      <trkpt lat="45.78715" lon="1.90419">
        <ele>708.6</ele>
        <time>2026-07-08T13:35:57.000Z</time>
      </trkpt>
      <trkpt lat="45.78717" lon="1.90419">
        <ele>708.6</ele>
        <time>2026-07-08T13:35:58.000Z</time>
      </trkpt>
      <trkpt lat="45.78718" lon="1.90418">
        <ele>707.7</ele>
        <time>2026-07-08T13:35:59.000Z</time>
      </trkpt>
      <trkpt lat="45.7872" lon="1.90417">
        <ele>707.8</ele>
        <time>2026-07-08T13:36:00.000Z</time>
      </trkpt>
      <trkpt lat="45.78721" lon="1.90416">
        <ele>707.4</ele>
        <time>2026-07-08T13:36:01.000Z</time>
      </trkpt>
      <trkpt lat="45.78723" lon="1.90414">
        <ele>707</ele>
        <time>2026-07-08T13:36:02.000Z</time>
      </trkpt>
      <trkpt lat="45.78724" lon="1.90412">
        <ele>706.6</ele>
        <time>2026-07-08T13:36:03.000Z</time>
      </trkpt>
      <trkpt lat="45.78725" lon="1.9041">
        <ele>706.1</ele>
        <time>2026-07-08T13:36:04.000Z</time>
      </trkpt>
      <trkpt lat="45.78725" lon="1.90408">
        <ele>705.8</ele>
        <time>2026-07-08T13:36:05.000Z</time>
      </trkpt>
      <trkpt lat="45.78725" lon="1.90406">
        <ele>705.5</ele>
        <time>2026-07-08T13:36:06.000Z</time>
      </trkpt>
      <trkpt lat="45.78726" lon="1.90405">
        <ele>705.6</ele>
        <time>2026-07-08T13:36:07.000Z</time>
      </trkpt>
      <trkpt lat="45.78726" lon="1.90404">
        <ele>705.6</ele>
        <time>2026-07-08T13:36:08.000Z</time>
      </trkpt>
      <trkpt lat="45.78727" lon="1.90403">
        <ele>706</ele>
        <time>2026-07-08T13:36:09.000Z</time>
      </trkpt>
      <trkpt lat="45.78727" lon="1.90404">
        <ele>705.9</ele>
        <time>2026-07-08T13:36:10.000Z</time>
      </trkpt>
      <trkpt lat="45.78727" lon="1.90404">
        <ele>706</ele>
        <time>2026-07-08T13:36:11.000Z</time>
      </trkpt>
      <trkpt lat="45.78727" lon="1.90404">
        <ele>706</ele>
        <time>2026-07-08T13:36:12.000Z</time>
      </trkpt>
      <trkpt lat="45.78727" lon="1.90404">
        <ele>706.1</ele>
        <time>2026-07-08T13:36:13.000Z</time>
      </trkpt>
      <trkpt lat="45.78727" lon="1.90404">
        <ele>706.2</ele>
        <time>2026-07-08T13:36:14.000Z</time>
      </trkpt>
      <trkpt lat="45.78727" lon="1.90404">
        <ele>706.2</ele>
        <time>2026-07-08T13:36:15.000Z</time>
      </trkpt>
      <trkpt lat="45.78727" lon="1.90404">
        <ele>706.3</ele>
        <time>2026-07-08T13:36:16.000Z</time>
      </trkpt>
      <trkpt lat="45.78727" lon="1.90403">
        <ele>706.6</ele>
        <time>2026-07-08T13:36:17.000Z</time>
      </trkpt>
      <trkpt lat="45.78727" lon="1.90403">
        <ele>706.5</ele>
        <time>2026-07-08T13:36:18.000Z</time>
      </trkpt>
      <trkpt lat="45.78727" lon="1.90403">
        <ele>706.7</ele>
        <time>2026-07-08T13:36:19.000Z</time>
      </trkpt>
      <trkpt lat="45.78727" lon="1.90403">
        <ele>706.5</ele>
        <time>2026-07-08T13:36:20.000Z</time>
      </trkpt>
      <trkpt lat="45.78727" lon="1.90403">
        <ele>706.4</ele>
        <time>2026-07-08T13:36:21.000Z</time>
      </trkpt>
      <trkpt lat="45.78727" lon="1.90403">
        <ele>706.4</ele>
        <time>2026-07-08T13:36:22.000Z</time>
      </trkpt>
      <trkpt lat="45.78728" lon="1.90403">
        <ele>706.2</ele>
        <time>2026-07-08T13:36:23.000Z</time>
      </trkpt>
      <trkpt lat="45.78727" lon="1.90403">
        <ele>706.1</ele>
        <time>2026-07-08T13:36:25.000Z</time>
      </trkpt>
      <trkpt lat="45.78727" lon="1.90403">
        <ele>705.8</ele>
        <time>2026-07-08T13:36:26.000Z</time>
      </trkpt>
      <trkpt lat="45.78728" lon="1.90403">
        <ele>706.1</ele>
        <time>2026-07-08T13:36:27.000Z</time>
      </trkpt>
      <trkpt lat="45.78727" lon="1.90403">
        <ele>706</ele>
        <time>2026-07-08T13:36:28.000Z</time>
      </trkpt>
      <trkpt lat="45.78727" lon="1.90403">
        <ele>706.2</ele>
        <time>2026-07-08T13:36:29.000Z</time>
      </trkpt>
      <trkpt lat="45.78727" lon="1.90403">
        <ele>705.8</ele>
        <time>2026-07-08T13:36:30.000Z</time>
      </trkpt>
      <trkpt lat="45.78728" lon="1.90403">
        <ele>705.9</ele>
        <time>2026-07-08T13:36:31.000Z</time>
      </trkpt>
      <trkpt lat="45.78728" lon="1.90403">
        <ele>705.9</ele>
        <time>2026-07-08T13:36:32.000Z</time>
      </trkpt>
      <trkpt lat="45.78728" lon="1.90403">
        <ele>705.7</ele>
        <time>2026-07-08T13:36:33.000Z</time>
      </trkpt>
      <trkpt lat="45.78728" lon="1.90403">
        <ele>705.7</ele>
        <time>2026-07-08T13:36:34.000Z</time>
      </trkpt>
      <trkpt lat="45.78729" lon="1.90402">
        <ele>705.9</ele>
        <time>2026-07-08T13:36:35.000Z</time>
      </trkpt>
      <trkpt lat="45.7873" lon="1.90401">
        <ele>705.1</ele>
        <time>2026-07-08T13:36:36.000Z</time>
      </trkpt>
      <trkpt lat="45.78731" lon="1.90402">
        <ele>705.4</ele>
        <time>2026-07-08T13:36:37.000Z</time>
      </trkpt>
      <trkpt lat="45.78731" lon="1.90402">
        <ele>705.8</ele>
        <time>2026-07-08T13:36:38.000Z</time>
      </trkpt>
      <trkpt lat="45.78732" lon="1.90401">
        <ele>705.6</ele>
        <time>2026-07-08T13:36:39.000Z</time>
      </trkpt>
      <trkpt lat="45.78733" lon="1.904">
        <ele>706.2</ele>
        <time>2026-07-08T13:36:40.000Z</time>
      </trkpt>
      <trkpt lat="45.78736" lon="1.904">
        <ele>705.6</ele>
        <time>2026-07-08T13:36:41.000Z</time>
      </trkpt>
      <trkpt lat="45.78738" lon="1.90399">
        <ele>705.4</ele>
        <time>2026-07-08T13:36:42.000Z</time>
      </trkpt>
      <trkpt lat="45.7874" lon="1.90399">
        <ele>705.9</ele>
        <time>2026-07-08T13:36:43.000Z</time>
      </trkpt>
      <trkpt lat="45.78742" lon="1.90399">
        <ele>705.9</ele>
        <time>2026-07-08T13:36:44.000Z</time>
      </trkpt>
      <trkpt lat="45.78744" lon="1.90399">
        <ele>705.6</ele>
        <time>2026-07-08T13:36:45.000Z</time>
      </trkpt>
      <trkpt lat="45.78746" lon="1.90399">
        <ele>705.6</ele>
        <time>2026-07-08T13:36:46.000Z</time>
      </trkpt>
      <trkpt lat="45.78748" lon="1.90399">
        <ele>706.7</ele>
        <time>2026-07-08T13:36:47.000Z</time>
      </trkpt>
      <trkpt lat="45.78751" lon="1.90399">
        <ele>707</ele>
        <time>2026-07-08T13:36:48.000Z</time>
      </trkpt>
      <trkpt lat="45.78753" lon="1.904">
        <ele>707.3</ele>
        <time>2026-07-08T13:36:49.000Z</time>
      </trkpt>
      <trkpt lat="45.78755" lon="1.90399">
        <ele>707.8</ele>
        <time>2026-07-08T13:36:50.000Z</time>
      </trkpt>
      <trkpt lat="45.78757" lon="1.90399">
        <ele>707.6</ele>
        <time>2026-07-08T13:36:51.000Z</time>
      </trkpt>
      <trkpt lat="45.78758" lon="1.90399">
        <ele>707.4</ele>
        <time>2026-07-08T13:36:52.000Z</time>
      </trkpt>
      <trkpt lat="45.7876" lon="1.904">
        <ele>707.4</ele>
        <time>2026-07-08T13:36:53.000Z</time>
      </trkpt>
      <trkpt lat="45.78762" lon="1.90399">
        <ele>707.4</ele>
        <time>2026-07-08T13:36:54.000Z</time>
      </trkpt>
      <trkpt lat="45.78763" lon="1.90399">
        <ele>707.3</ele>
        <time>2026-07-08T13:36:55.000Z</time>
      </trkpt>
      <trkpt lat="45.78765" lon="1.90399">
        <ele>707.9</ele>
        <time>2026-07-08T13:36:56.000Z</time>
      </trkpt>
      <trkpt lat="45.78767" lon="1.90399">
        <ele>707.3</ele>
        <time>2026-07-08T13:36:57.000Z</time>
      </trkpt>
      <trkpt lat="45.78769" lon="1.904">
        <ele>707</ele>
        <time>2026-07-08T13:36:58.000Z</time>
      </trkpt>
      <trkpt lat="45.7877" lon="1.90401">
        <ele>706.5</ele>
        <time>2026-07-08T13:36:59.000Z</time>
      </trkpt>
      <trkpt lat="45.78772" lon="1.90402">
        <ele>706.6</ele>
        <time>2026-07-08T13:37:00.000Z</time>
      </trkpt>
      <trkpt lat="45.78774" lon="1.90402">
        <ele>706.1</ele>
        <time>2026-07-08T13:37:01.000Z</time>
      </trkpt>
      <trkpt lat="45.78776" lon="1.90403">
        <ele>705.5</ele>
        <time>2026-07-08T13:37:02.000Z</time>
      </trkpt>
      <trkpt lat="45.78777" lon="1.90403">
        <ele>705.3</ele>
        <time>2026-07-08T13:37:03.000Z</time>
      </trkpt>
      <trkpt lat="45.78778" lon="1.90404">
        <ele>705.9</ele>
        <time>2026-07-08T13:37:04.000Z</time>
      </trkpt>
      <trkpt lat="45.7878" lon="1.90404">
        <ele>706.2</ele>
        <time>2026-07-08T13:37:05.000Z</time>
      </trkpt>
      <trkpt lat="45.78781" lon="1.90405">
        <ele>706.3</ele>
        <time>2026-07-08T13:37:06.000Z</time>
      </trkpt>
      <trkpt lat="45.78782" lon="1.90406">
        <ele>707</ele>
        <time>2026-07-08T13:37:07.000Z</time>
      </trkpt>
      <trkpt lat="45.78784" lon="1.90406">
        <ele>707.1</ele>
        <time>2026-07-08T13:37:08.000Z</time>
      </trkpt>
      <trkpt lat="45.78786" lon="1.90406">
        <ele>706.2</ele>
        <time>2026-07-08T13:37:09.000Z</time>
      </trkpt>
      <trkpt lat="45.78787" lon="1.90406">
        <ele>706.7</ele>
        <time>2026-07-08T13:37:10.000Z</time>
      </trkpt>
      <trkpt lat="45.78789" lon="1.90406">
        <ele>706.6</ele>
        <time>2026-07-08T13:37:11.000Z</time>
      </trkpt>
      <trkpt lat="45.78791" lon="1.90406">
        <ele>707</ele>
        <time>2026-07-08T13:37:12.000Z</time>
      </trkpt>
      <trkpt lat="45.78793" lon="1.90407">
        <ele>707</ele>
        <time>2026-07-08T13:37:13.000Z</time>
      </trkpt>
      <trkpt lat="45.78794" lon="1.90408">
        <ele>706.8</ele>
        <time>2026-07-08T13:37:14.000Z</time>
      </trkpt>
      <trkpt lat="45.78796" lon="1.9041">
        <ele>706.5</ele>
        <time>2026-07-08T13:37:15.000Z</time>
      </trkpt>
      <trkpt lat="45.78797" lon="1.90411">
        <ele>705.9</ele>
        <time>2026-07-08T13:37:16.000Z</time>
      </trkpt>
      <trkpt lat="45.78798" lon="1.90412">
        <ele>706.5</ele>
        <time>2026-07-08T13:37:17.000Z</time>
      </trkpt>
      <trkpt lat="45.788" lon="1.90414">
        <ele>706.3</ele>
        <time>2026-07-08T13:37:18.000Z</time>
      </trkpt>
      <trkpt lat="45.78801" lon="1.90415">
        <ele>706.3</ele>
        <time>2026-07-08T13:37:19.000Z</time>
      </trkpt>
      <trkpt lat="45.78802" lon="1.90416">
        <ele>705.8</ele>
        <time>2026-07-08T13:37:20.000Z</time>
      </trkpt>
      <trkpt lat="45.78803" lon="1.90418">
        <ele>705.7</ele>
        <time>2026-07-08T13:37:21.000Z</time>
      </trkpt>
      <trkpt lat="45.78804" lon="1.90419">
        <ele>706</ele>
        <time>2026-07-08T13:37:22.000Z</time>
      </trkpt>
      <trkpt lat="45.78805" lon="1.9042">
        <ele>706.1</ele>
        <time>2026-07-08T13:37:23.000Z</time>
      </trkpt>
      <trkpt lat="45.78807" lon="1.90422">
        <ele>706.1</ele>
        <time>2026-07-08T13:37:24.000Z</time>
      </trkpt>
      <trkpt lat="45.78808" lon="1.90423">
        <ele>706.1</ele>
        <time>2026-07-08T13:37:25.000Z</time>
      </trkpt>
      <trkpt lat="45.78809" lon="1.90425">
        <ele>705.7</ele>
        <time>2026-07-08T13:37:26.000Z</time>
      </trkpt>
      <trkpt lat="45.7881" lon="1.90426">
        <ele>705.5</ele>
        <time>2026-07-08T13:37:27.000Z</time>
      </trkpt>
      <trkpt lat="45.78811" lon="1.90428">
        <ele>705.3</ele>
        <time>2026-07-08T13:37:28.000Z</time>
      </trkpt>
      <trkpt lat="45.78812" lon="1.9043">
        <ele>705.4</ele>
        <time>2026-07-08T13:37:29.000Z</time>
      </trkpt>
      <trkpt lat="45.78812" lon="1.90431">
        <ele>704.7</ele>
        <time>2026-07-08T13:37:30.000Z</time>
      </trkpt>
      <trkpt lat="45.78813" lon="1.90434">
        <ele>704.3</ele>
        <time>2026-07-08T13:37:31.000Z</time>
      </trkpt>
      <trkpt lat="45.78814" lon="1.90435">
        <ele>704.7</ele>
        <time>2026-07-08T13:37:32.000Z</time>
      </trkpt>
      <trkpt lat="45.78815" lon="1.90437">
        <ele>705.5</ele>
        <time>2026-07-08T13:37:33.000Z</time>
      </trkpt>
      <trkpt lat="45.78816" lon="1.90439">
        <ele>704.9</ele>
        <time>2026-07-08T13:37:34.000Z</time>
      </trkpt>
      <trkpt lat="45.78817" lon="1.90441">
        <ele>704.1</ele>
        <time>2026-07-08T13:37:35.000Z</time>
      </trkpt>
      <trkpt lat="45.78817" lon="1.90443">
        <ele>704.1</ele>
        <time>2026-07-08T13:37:36.000Z</time>
      </trkpt>
      <trkpt lat="45.78818" lon="1.90445">
        <ele>704.2</ele>
        <time>2026-07-08T13:37:37.000Z</time>
      </trkpt>
      <trkpt lat="45.78819" lon="1.90447">
        <ele>703.4</ele>
        <time>2026-07-08T13:37:38.000Z</time>
      </trkpt>
      <trkpt lat="45.78819" lon="1.90449">
        <ele>702.8</ele>
        <time>2026-07-08T13:37:39.000Z</time>
      </trkpt>
      <trkpt lat="45.78819" lon="1.90452">
        <ele>702.5</ele>
        <time>2026-07-08T13:37:40.000Z</time>
      </trkpt>
      <trkpt lat="45.7882" lon="1.90453">
        <ele>702.5</ele>
        <time>2026-07-08T13:37:41.000Z</time>
      </trkpt>
      <trkpt lat="45.7882" lon="1.90455">
        <ele>702.3</ele>
        <time>2026-07-08T13:37:42.000Z</time>
      </trkpt>
      <trkpt lat="45.78821" lon="1.90458">
        <ele>702.6</ele>
        <time>2026-07-08T13:37:43.000Z</time>
      </trkpt>
      <trkpt lat="45.78822" lon="1.90459">
        <ele>702.3</ele>
        <time>2026-07-08T13:37:44.000Z</time>
      </trkpt>
      <trkpt lat="45.78823" lon="1.90461">
        <ele>701.6</ele>
        <time>2026-07-08T13:37:45.000Z</time>
      </trkpt>
      <trkpt lat="45.78824" lon="1.90463">
        <ele>701.7</ele>
        <time>2026-07-08T13:37:46.000Z</time>
      </trkpt>
      <trkpt lat="45.78825" lon="1.90465">
        <ele>702.4</ele>
        <time>2026-07-08T13:37:47.000Z</time>
      </trkpt>
      <trkpt lat="45.78826" lon="1.90467">
        <ele>701.8</ele>
        <time>2026-07-08T13:37:48.000Z</time>
      </trkpt>
      <trkpt lat="45.78827" lon="1.90469">
        <ele>701.3</ele>
        <time>2026-07-08T13:37:49.000Z</time>
      </trkpt>
      <trkpt lat="45.78828" lon="1.9047">
        <ele>701.3</ele>
        <time>2026-07-08T13:37:50.000Z</time>
      </trkpt>
      <trkpt lat="45.78829" lon="1.90472">
        <ele>700.5</ele>
        <time>2026-07-08T13:37:51.000Z</time>
      </trkpt>
      <trkpt lat="45.7883" lon="1.90474">
        <ele>700.7</ele>
        <time>2026-07-08T13:37:52.000Z</time>
      </trkpt>
      <trkpt lat="45.78832" lon="1.90475">
        <ele>700</ele>
        <time>2026-07-08T13:37:53.000Z</time>
      </trkpt>
      <trkpt lat="45.78833" lon="1.90476">
        <ele>700.3</ele>
        <time>2026-07-08T13:37:54.000Z</time>
      </trkpt>
      <trkpt lat="45.78835" lon="1.90477">
        <ele>700.5</ele>
        <time>2026-07-08T13:37:55.000Z</time>
      </trkpt>
      <trkpt lat="45.78836" lon="1.90479">
        <ele>699.5</ele>
        <time>2026-07-08T13:37:56.000Z</time>
      </trkpt>
      <trkpt lat="45.78838" lon="1.9048">
        <ele>700</ele>
        <time>2026-07-08T13:37:57.000Z</time>
      </trkpt>
      <trkpt lat="45.78839" lon="1.90482">
        <ele>700.8</ele>
        <time>2026-07-08T13:37:58.000Z</time>
      </trkpt>
      <trkpt lat="45.7884" lon="1.90484">
        <ele>701.3</ele>
        <time>2026-07-08T13:37:59.000Z</time>
      </trkpt>
      <trkpt lat="45.78841" lon="1.90485">
        <ele>700.8</ele>
        <time>2026-07-08T13:38:00.000Z</time>
      </trkpt>
      <trkpt lat="45.78842" lon="1.90487">
        <ele>700.8</ele>
        <time>2026-07-08T13:38:01.000Z</time>
      </trkpt>
      <trkpt lat="45.78844" lon="1.90488">
        <ele>702.7</ele>
        <time>2026-07-08T13:38:02.000Z</time>
      </trkpt>
      <trkpt lat="45.78845" lon="1.9049">
        <ele>704.6</ele>
        <time>2026-07-08T13:38:03.000Z</time>
      </trkpt>
      <trkpt lat="45.78846" lon="1.90491">
        <ele>704.8</ele>
        <time>2026-07-08T13:38:04.000Z</time>
      </trkpt>
      <trkpt lat="45.78848" lon="1.90492">
        <ele>705.1</ele>
        <time>2026-07-08T13:38:05.000Z</time>
      </trkpt>
      <trkpt lat="45.78849" lon="1.90494">
        <ele>705.6</ele>
        <time>2026-07-08T13:38:06.000Z</time>
      </trkpt>
      <trkpt lat="45.7885" lon="1.90496">
        <ele>706</ele>
        <time>2026-07-08T13:38:07.000Z</time>
      </trkpt>
      <trkpt lat="45.78851" lon="1.90497">
        <ele>705.6</ele>
        <time>2026-07-08T13:38:08.000Z</time>
      </trkpt>
      <trkpt lat="45.78852" lon="1.90499">
        <ele>705.1</ele>
        <time>2026-07-08T13:38:09.000Z</time>
      </trkpt>
      <trkpt lat="45.78852" lon="1.90501">
        <ele>705.1</ele>
        <time>2026-07-08T13:38:10.000Z</time>
      </trkpt>
      <trkpt lat="45.78853" lon="1.90503">
        <ele>705.2</ele>
        <time>2026-07-08T13:38:11.000Z</time>
      </trkpt>
      <trkpt lat="45.78854" lon="1.90504">
        <ele>705.7</ele>
        <time>2026-07-08T13:38:12.000Z</time>
      </trkpt>
      <trkpt lat="45.78855" lon="1.90506">
        <ele>705.8</ele>
        <time>2026-07-08T13:38:13.000Z</time>
      </trkpt>
      <trkpt lat="45.78857" lon="1.90507">
        <ele>705.9</ele>
        <time>2026-07-08T13:38:14.000Z</time>
      </trkpt>
      <trkpt lat="45.78858" lon="1.90509">
        <ele>707</ele>
        <time>2026-07-08T13:38:15.000Z</time>
      </trkpt>
      <trkpt lat="45.78859" lon="1.90511">
        <ele>706.9</ele>
        <time>2026-07-08T13:38:16.000Z</time>
      </trkpt>
      <trkpt lat="45.7886" lon="1.90513">
        <ele>706.1</ele>
        <time>2026-07-08T13:38:17.000Z</time>
      </trkpt>
      <trkpt lat="45.78861" lon="1.90515">
        <ele>706.8</ele>
        <time>2026-07-08T13:38:18.000Z</time>
      </trkpt>
      <trkpt lat="45.78862" lon="1.90518">
        <ele>706.7</ele>
        <time>2026-07-08T13:38:19.000Z</time>
      </trkpt>
      <trkpt lat="45.78863" lon="1.9052">
        <ele>708.1</ele>
        <time>2026-07-08T13:38:20.000Z</time>
      </trkpt>
      <trkpt lat="45.78864" lon="1.90523">
        <ele>708.5</ele>
        <time>2026-07-08T13:38:21.000Z</time>
      </trkpt>
      <trkpt lat="45.78865" lon="1.90524">
        <ele>708.6</ele>
        <time>2026-07-08T13:38:22.000Z</time>
      </trkpt>
      <trkpt lat="45.78867" lon="1.90526">
        <ele>708</ele>
        <time>2026-07-08T13:38:23.000Z</time>
      </trkpt>
      <trkpt lat="45.78868" lon="1.90528">
        <ele>707.9</ele>
        <time>2026-07-08T13:38:24.000Z</time>
      </trkpt>
      <trkpt lat="45.78869" lon="1.9053">
        <ele>707.4</ele>
        <time>2026-07-08T13:38:25.000Z</time>
      </trkpt>
      <trkpt lat="45.7887" lon="1.90531">
        <ele>707.2</ele>
        <time>2026-07-08T13:38:26.000Z</time>
      </trkpt>
      <trkpt lat="45.78871" lon="1.90533">
        <ele>707.1</ele>
        <time>2026-07-08T13:38:27.000Z</time>
      </trkpt>
      <trkpt lat="45.78872" lon="1.90535">
        <ele>706.7</ele>
        <time>2026-07-08T13:38:28.000Z</time>
      </trkpt>
      <trkpt lat="45.78873" lon="1.90537">
        <ele>706.9</ele>
        <time>2026-07-08T13:38:29.000Z</time>
      </trkpt>
      <trkpt lat="45.78874" lon="1.90539">
        <ele>707.2</ele>
        <time>2026-07-08T13:38:30.000Z</time>
      </trkpt>
      <trkpt lat="45.78875" lon="1.90541">
        <ele>707.3</ele>
        <time>2026-07-08T13:38:31.000Z</time>
      </trkpt>
      <trkpt lat="45.78877" lon="1.90543">
        <ele>707.5</ele>
        <time>2026-07-08T13:38:32.000Z</time>
      </trkpt>
      <trkpt lat="45.78879" lon="1.90545">
        <ele>707.2</ele>
        <time>2026-07-08T13:38:33.000Z</time>
      </trkpt>
      <trkpt lat="45.78881" lon="1.90547">
        <ele>707.7</ele>
        <time>2026-07-08T13:38:34.000Z</time>
      </trkpt>
      <trkpt lat="45.78883" lon="1.90549">
        <ele>708.4</ele>
        <time>2026-07-08T13:38:35.000Z</time>
      </trkpt>
      <trkpt lat="45.78884" lon="1.90551">
        <ele>707.6</ele>
        <time>2026-07-08T13:38:36.000Z</time>
      </trkpt>
      <trkpt lat="45.78886" lon="1.90554">
        <ele>708.7</ele>
        <time>2026-07-08T13:38:37.000Z</time>
      </trkpt>
      <trkpt lat="45.78887" lon="1.90555">
        <ele>708.7</ele>
        <time>2026-07-08T13:38:38.000Z</time>
      </trkpt>
      <trkpt lat="45.78889" lon="1.90557">
        <ele>709.2</ele>
        <time>2026-07-08T13:38:39.000Z</time>
      </trkpt>
      <trkpt lat="45.78891" lon="1.90559">
        <ele>708.8</ele>
        <time>2026-07-08T13:38:40.000Z</time>
      </trkpt>
      <trkpt lat="45.78892" lon="1.90561">
        <ele>708.2</ele>
        <time>2026-07-08T13:38:41.000Z</time>
      </trkpt>
      <trkpt lat="45.78894" lon="1.90562">
        <ele>708.8</ele>
        <time>2026-07-08T13:38:42.000Z</time>
      </trkpt>
      <trkpt lat="45.78895" lon="1.90564">
        <ele>709.1</ele>
        <time>2026-07-08T13:38:43.000Z</time>
      </trkpt>
      <trkpt lat="45.78897" lon="1.90566">
        <ele>709.3</ele>
        <time>2026-07-08T13:38:44.000Z</time>
      </trkpt>
      <trkpt lat="45.78898" lon="1.90568">
        <ele>709.4</ele>
        <time>2026-07-08T13:38:45.000Z</time>
      </trkpt>
      <trkpt lat="45.78899" lon="1.90569">
        <ele>708.7</ele>
        <time>2026-07-08T13:38:46.000Z</time>
      </trkpt>
      <trkpt lat="45.789" lon="1.9057">
        <ele>709.6</ele>
        <time>2026-07-08T13:38:47.000Z</time>
      </trkpt>
      <trkpt lat="45.78901" lon="1.90572">
        <ele>710.5</ele>
        <time>2026-07-08T13:38:48.000Z</time>
      </trkpt>
      <trkpt lat="45.78902" lon="1.90573">
        <ele>710.6</ele>
        <time>2026-07-08T13:38:49.000Z</time>
      </trkpt>
      <trkpt lat="45.78903" lon="1.90575">
        <ele>710.9</ele>
        <time>2026-07-08T13:38:50.000Z</time>
      </trkpt>
      <trkpt lat="45.78904" lon="1.90577">
        <ele>710.8</ele>
        <time>2026-07-08T13:38:51.000Z</time>
      </trkpt>
      <trkpt lat="45.78906" lon="1.90579">
        <ele>710.7</ele>
        <time>2026-07-08T13:38:52.000Z</time>
      </trkpt>
      <trkpt lat="45.78908" lon="1.9058">
        <ele>710.1</ele>
        <time>2026-07-08T13:38:53.000Z</time>
      </trkpt>
      <trkpt lat="45.78909" lon="1.90582">
        <ele>709.3</ele>
        <time>2026-07-08T13:38:54.000Z</time>
      </trkpt>
      <trkpt lat="45.78911" lon="1.90584">
        <ele>709.2</ele>
        <time>2026-07-08T13:38:55.000Z</time>
      </trkpt>
      <trkpt lat="45.78912" lon="1.90586">
        <ele>710</ele>
        <time>2026-07-08T13:38:56.000Z</time>
      </trkpt>
      <trkpt lat="45.78914" lon="1.90587">
        <ele>709.9</ele>
        <time>2026-07-08T13:38:57.000Z</time>
      </trkpt>
      <trkpt lat="45.78915" lon="1.90589">
        <ele>709.7</ele>
        <time>2026-07-08T13:38:58.000Z</time>
      </trkpt>
      <trkpt lat="45.78917" lon="1.90592">
        <ele>711.8</ele>
        <time>2026-07-08T13:38:59.000Z</time>
      </trkpt>
      <trkpt lat="45.78918" lon="1.90593">
        <ele>711.9</ele>
        <time>2026-07-08T13:39:00.000Z</time>
      </trkpt>
      <trkpt lat="45.78919" lon="1.90595">
        <ele>712.3</ele>
        <time>2026-07-08T13:39:01.000Z</time>
      </trkpt>
      <trkpt lat="45.78921" lon="1.90597">
        <ele>711.6</ele>
        <time>2026-07-08T13:39:02.000Z</time>
      </trkpt>
      <trkpt lat="45.78922" lon="1.90599">
        <ele>711.2</ele>
        <time>2026-07-08T13:39:03.000Z</time>
      </trkpt>
      <trkpt lat="45.78924" lon="1.90601">
        <ele>711.6</ele>
        <time>2026-07-08T13:39:04.000Z</time>
      </trkpt>
      <trkpt lat="45.78925" lon="1.90603">
        <ele>711.5</ele>
        <time>2026-07-08T13:39:05.000Z</time>
      </trkpt>
      <trkpt lat="45.78926" lon="1.90605">
        <ele>711.4</ele>
        <time>2026-07-08T13:39:06.000Z</time>
      </trkpt>
      <trkpt lat="45.78928" lon="1.90607">
        <ele>711.4</ele>
        <time>2026-07-08T13:39:07.000Z</time>
      </trkpt>
      <trkpt lat="45.78929" lon="1.90608">
        <ele>711.5</ele>
        <time>2026-07-08T13:39:08.000Z</time>
      </trkpt>
      <trkpt lat="45.78931" lon="1.9061">
        <ele>711.9</ele>
        <time>2026-07-08T13:39:09.000Z</time>
      </trkpt>
      <trkpt lat="45.78932" lon="1.90612">
        <ele>711.9</ele>
        <time>2026-07-08T13:39:10.000Z</time>
      </trkpt>
      <trkpt lat="45.78934" lon="1.90614">
        <ele>711.7</ele>
        <time>2026-07-08T13:39:11.000Z</time>
      </trkpt>
      <trkpt lat="45.78935" lon="1.90616">
        <ele>711.6</ele>
        <time>2026-07-08T13:39:12.000Z</time>
      </trkpt>
      <trkpt lat="45.78937" lon="1.90618">
        <ele>711.1</ele>
        <time>2026-07-08T13:39:13.000Z</time>
      </trkpt>
      <trkpt lat="45.78939" lon="1.90619">
        <ele>711.1</ele>
        <time>2026-07-08T13:39:14.000Z</time>
      </trkpt>
      <trkpt lat="45.7894" lon="1.90621">
        <ele>710.9</ele>
        <time>2026-07-08T13:39:15.000Z</time>
      </trkpt>
      <trkpt lat="45.78942" lon="1.90622">
        <ele>711</ele>
        <time>2026-07-08T13:39:16.000Z</time>
      </trkpt>
      <trkpt lat="45.78944" lon="1.90624">
        <ele>711.4</ele>
        <time>2026-07-08T13:39:17.000Z</time>
      </trkpt>
      <trkpt lat="45.78946" lon="1.90625">
        <ele>711.6</ele>
        <time>2026-07-08T13:39:18.000Z</time>
      </trkpt>
      <trkpt lat="45.78947" lon="1.90627">
        <ele>711.8</ele>
        <time>2026-07-08T13:39:19.000Z</time>
      </trkpt>
      <trkpt lat="45.78949" lon="1.90629">
        <ele>712.9</ele>
        <time>2026-07-08T13:39:20.000Z</time>
      </trkpt>
      <trkpt lat="45.7895" lon="1.90631">
        <ele>713.2</ele>
        <time>2026-07-08T13:39:21.000Z</time>
      </trkpt>
      <trkpt lat="45.78951" lon="1.90632">
        <ele>713.4</ele>
        <time>2026-07-08T13:39:22.000Z</time>
      </trkpt>
      <trkpt lat="45.78953" lon="1.90634">
        <ele>713.7</ele>
        <time>2026-07-08T13:39:23.000Z</time>
      </trkpt>
      <trkpt lat="45.78955" lon="1.90636">
        <ele>714</ele>
        <time>2026-07-08T13:39:24.000Z</time>
      </trkpt>
      <trkpt lat="45.78956" lon="1.90637">
        <ele>716</ele>
        <time>2026-07-08T13:39:25.000Z</time>
      </trkpt>
      <trkpt lat="45.78957" lon="1.90638">
        <ele>715.8</ele>
        <time>2026-07-08T13:39:26.000Z</time>
      </trkpt>
      <trkpt lat="45.78959" lon="1.9064">
        <ele>716.4</ele>
        <time>2026-07-08T13:39:27.000Z</time>
      </trkpt>
      <trkpt lat="45.7896" lon="1.90641">
        <ele>715.9</ele>
        <time>2026-07-08T13:39:28.000Z</time>
      </trkpt>
      <trkpt lat="45.78961" lon="1.90642">
        <ele>714.5</ele>
        <time>2026-07-08T13:39:29.000Z</time>
      </trkpt>
      <trkpt lat="45.78962" lon="1.90644">
        <ele>714.3</ele>
        <time>2026-07-08T13:39:30.000Z</time>
      </trkpt>
      <trkpt lat="45.78963" lon="1.90645">
        <ele>713.1</ele>
        <time>2026-07-08T13:39:31.000Z</time>
      </trkpt>
      <trkpt lat="45.78964" lon="1.90646">
        <ele>712.8</ele>
        <time>2026-07-08T13:39:32.000Z</time>
      </trkpt>
      <trkpt lat="45.78965" lon="1.90648">
        <ele>712.5</ele>
        <time>2026-07-08T13:39:33.000Z</time>
      </trkpt>
      <trkpt lat="45.78966" lon="1.90649">
        <ele>712.1</ele>
        <time>2026-07-08T13:39:34.000Z</time>
      </trkpt>
      <trkpt lat="45.78967" lon="1.90651">
        <ele>710.6</ele>
        <time>2026-07-08T13:39:35.000Z</time>
      </trkpt>
      <trkpt lat="45.78968" lon="1.90652">
        <ele>709.9</ele>
        <time>2026-07-08T13:39:36.000Z</time>
      </trkpt>
      <trkpt lat="45.78969" lon="1.90654">
        <ele>710.9</ele>
        <time>2026-07-08T13:39:37.000Z</time>
      </trkpt>
      <trkpt lat="45.7897" lon="1.90655">
        <ele>710.1</ele>
        <time>2026-07-08T13:39:38.000Z</time>
      </trkpt>
      <trkpt lat="45.78971" lon="1.90657">
        <ele>709.8</ele>
        <time>2026-07-08T13:39:39.000Z</time>
      </trkpt>
      <trkpt lat="45.78973" lon="1.90658">
        <ele>711.6</ele>
        <time>2026-07-08T13:39:40.000Z</time>
      </trkpt>
      <trkpt lat="45.78975" lon="1.90659">
        <ele>711.6</ele>
        <time>2026-07-08T13:39:41.000Z</time>
      </trkpt>
      <trkpt lat="45.78977" lon="1.90661">
        <ele>711.1</ele>
        <time>2026-07-08T13:39:42.000Z</time>
      </trkpt>
      <trkpt lat="45.78979" lon="1.90663">
        <ele>710.7</ele>
        <time>2026-07-08T13:39:43.000Z</time>
      </trkpt>
      <trkpt lat="45.7898" lon="1.90665">
        <ele>710.4</ele>
        <time>2026-07-08T13:39:44.000Z</time>
      </trkpt>
      <trkpt lat="45.78981" lon="1.90667">
        <ele>710.2</ele>
        <time>2026-07-08T13:39:45.000Z</time>
      </trkpt>
      <trkpt lat="45.78981" lon="1.90669">
        <ele>708.8</ele>
        <time>2026-07-08T13:39:46.000Z</time>
      </trkpt>
      <trkpt lat="45.78981" lon="1.90671">
        <ele>707.6</ele>
        <time>2026-07-08T13:39:47.000Z</time>
      </trkpt>
      <trkpt lat="45.78981" lon="1.90674">
        <ele>705.9</ele>
        <time>2026-07-08T13:39:48.000Z</time>
      </trkpt>
      <trkpt lat="45.78981" lon="1.90676">
        <ele>705.4</ele>
        <time>2026-07-08T13:39:49.000Z</time>
      </trkpt>
      <trkpt lat="45.78981" lon="1.90678">
        <ele>704.9</ele>
        <time>2026-07-08T13:39:50.000Z</time>
      </trkpt>
      <trkpt lat="45.78981" lon="1.9068">
        <ele>704.5</ele>
        <time>2026-07-08T13:39:51.000Z</time>
      </trkpt>
      <trkpt lat="45.78981" lon="1.90681">
        <ele>703.2</ele>
        <time>2026-07-08T13:39:52.000Z</time>
      </trkpt>
      <trkpt lat="45.78981" lon="1.90684">
        <ele>702.7</ele>
        <time>2026-07-08T13:39:53.000Z</time>
      </trkpt>
      <trkpt lat="45.78981" lon="1.90686">
        <ele>702.1</ele>
        <time>2026-07-08T13:39:54.000Z</time>
      </trkpt>
      <trkpt lat="45.78981" lon="1.90688">
        <ele>701.3</ele>
        <time>2026-07-08T13:39:55.000Z</time>
      </trkpt>
      <trkpt lat="45.78981" lon="1.9069">
        <ele>700.9</ele>
        <time>2026-07-08T13:39:56.000Z</time>
      </trkpt>
      <trkpt lat="45.78982" lon="1.90692">
        <ele>700.4</ele>
        <time>2026-07-08T13:39:57.000Z</time>
      </trkpt>
      <trkpt lat="45.78982" lon="1.90694">
        <ele>699</ele>
        <time>2026-07-08T13:39:58.000Z</time>
      </trkpt>
      <trkpt lat="45.78983" lon="1.90696">
        <ele>698.2</ele>
        <time>2026-07-08T13:39:59.000Z</time>
      </trkpt>
      <trkpt lat="45.78984" lon="1.90698">
        <ele>697.2</ele>
        <time>2026-07-08T13:40:00.000Z</time>
      </trkpt>
      <trkpt lat="45.78984" lon="1.907">
        <ele>697.4</ele>
        <time>2026-07-08T13:40:01.000Z</time>
      </trkpt>
      <trkpt lat="45.78985" lon="1.90702">
        <ele>696.8</ele>
        <time>2026-07-08T13:40:02.000Z</time>
      </trkpt>
      <trkpt lat="45.78986" lon="1.90704">
        <ele>696.9</ele>
        <time>2026-07-08T13:40:03.000Z</time>
      </trkpt>
      <trkpt lat="45.78987" lon="1.90706">
        <ele>696.5</ele>
        <time>2026-07-08T13:40:04.000Z</time>
      </trkpt>
      <trkpt lat="45.78988" lon="1.90709">
        <ele>696.6</ele>
        <time>2026-07-08T13:40:05.000Z</time>
      </trkpt>
      <trkpt lat="45.78988" lon="1.90712">
        <ele>697.3</ele>
        <time>2026-07-08T13:40:06.000Z</time>
      </trkpt>
      <trkpt lat="45.7899" lon="1.90714">
        <ele>697.8</ele>
        <time>2026-07-08T13:40:07.000Z</time>
      </trkpt>
      <trkpt lat="45.78991" lon="1.90716">
        <ele>697.5</ele>
        <time>2026-07-08T13:40:08.000Z</time>
      </trkpt>
      <trkpt lat="45.78992" lon="1.90718">
        <ele>698.3</ele>
        <time>2026-07-08T13:40:09.000Z</time>
      </trkpt>
      <trkpt lat="45.78993" lon="1.9072">
        <ele>698.2</ele>
        <time>2026-07-08T13:40:10.000Z</time>
      </trkpt>
      <trkpt lat="45.78994" lon="1.90722">
        <ele>698.4</ele>
        <time>2026-07-08T13:40:11.000Z</time>
      </trkpt>
      <trkpt lat="45.78995" lon="1.90724">
        <ele>697.7</ele>
        <time>2026-07-08T13:40:12.000Z</time>
      </trkpt>
      <trkpt lat="45.78997" lon="1.90726">
        <ele>699.1</ele>
        <time>2026-07-08T13:40:13.000Z</time>
      </trkpt>
      <trkpt lat="45.78998" lon="1.90728">
        <ele>699.2</ele>
        <time>2026-07-08T13:40:14.000Z</time>
      </trkpt>
      <trkpt lat="45.78999" lon="1.9073">
        <ele>699.1</ele>
        <time>2026-07-08T13:40:15.000Z</time>
      </trkpt>
      <trkpt lat="45.79001" lon="1.90733">
        <ele>699.7</ele>
        <time>2026-07-08T13:40:16.000Z</time>
      </trkpt>
      <trkpt lat="45.79002" lon="1.90735">
        <ele>700.9</ele>
        <time>2026-07-08T13:40:17.000Z</time>
      </trkpt>
      <trkpt lat="45.79003" lon="1.90737">
        <ele>702.8</ele>
        <time>2026-07-08T13:40:18.000Z</time>
      </trkpt>
      <trkpt lat="45.79004" lon="1.90738">
        <ele>701.8</ele>
        <time>2026-07-08T13:40:19.000Z</time>
      </trkpt>
      <trkpt lat="45.79006" lon="1.90741">
        <ele>705.1</ele>
        <time>2026-07-08T13:40:20.000Z</time>
      </trkpt>
      <trkpt lat="45.79007" lon="1.90744">
        <ele>706.6</ele>
        <time>2026-07-08T13:40:21.000Z</time>
      </trkpt>
      <trkpt lat="45.79009" lon="1.90746">
        <ele>706.4</ele>
        <time>2026-07-08T13:40:22.000Z</time>
      </trkpt>
      <trkpt lat="45.7901" lon="1.90748">
        <ele>706.7</ele>
        <time>2026-07-08T13:40:23.000Z</time>
      </trkpt>
      <trkpt lat="45.79012" lon="1.90749">
        <ele>707.3</ele>
        <time>2026-07-08T13:40:24.000Z</time>
      </trkpt>
      <trkpt lat="45.79014" lon="1.90751">
        <ele>708.1</ele>
        <time>2026-07-08T13:40:25.000Z</time>
      </trkpt>
      <trkpt lat="45.79016" lon="1.90752">
        <ele>708.3</ele>
        <time>2026-07-08T13:40:26.000Z</time>
      </trkpt>
      <trkpt lat="45.79019" lon="1.90751">
        <ele>709</ele>
        <time>2026-07-08T13:40:27.000Z</time>
      </trkpt>
      <trkpt lat="45.79013" lon="1.90748">
        <ele>702.9</ele>
        <time>2026-07-08T13:40:28.000Z</time>
      </trkpt>
      <trkpt lat="45.79011" lon="1.90747">
        <ele>702.9</ele>
        <time>2026-07-08T13:40:29.000Z</time>
      </trkpt>
      <trkpt lat="45.79011" lon="1.90747">
        <ele>702.5</ele>
        <time>2026-07-08T13:40:30.000Z</time>
      </trkpt>
      <trkpt lat="45.79013" lon="1.90746">
        <ele>702.6</ele>
        <time>2026-07-08T13:40:31.000Z</time>
      </trkpt>
      <trkpt lat="45.79014" lon="1.90745">
        <ele>702.5</ele>
        <time>2026-07-08T13:40:32.000Z</time>
      </trkpt>
      <trkpt lat="45.79015" lon="1.90744">
        <ele>702.8</ele>
        <time>2026-07-08T13:40:33.000Z</time>
      </trkpt>
      <trkpt lat="45.79016" lon="1.90741">
        <ele>702.7</ele>
        <time>2026-07-08T13:40:34.000Z</time>
      </trkpt>
      <trkpt lat="45.79017" lon="1.90739">
        <ele>702.4</ele>
        <time>2026-07-08T13:40:35.000Z</time>
      </trkpt>
      <trkpt lat="45.79018" lon="1.90738">
        <ele>702.5</ele>
        <time>2026-07-08T13:40:36.000Z</time>
      </trkpt>
      <trkpt lat="45.79019" lon="1.90737">
        <ele>702.7</ele>
        <time>2026-07-08T13:40:37.000Z</time>
      </trkpt>
      <trkpt lat="45.79019" lon="1.90736">
        <ele>702.9</ele>
        <time>2026-07-08T13:40:38.000Z</time>
      </trkpt>
      <trkpt lat="45.79019" lon="1.90736">
        <ele>702.8</ele>
        <time>2026-07-08T13:40:39.000Z</time>
      </trkpt>
      <trkpt lat="45.79021" lon="1.90736">
        <ele>702.9</ele>
        <time>2026-07-08T13:40:40.000Z</time>
      </trkpt>
      <trkpt lat="45.79023" lon="1.90735">
        <ele>703.2</ele>
        <time>2026-07-08T13:40:41.000Z</time>
      </trkpt>
      <trkpt lat="45.79024" lon="1.90733">
        <ele>703.3</ele>
        <time>2026-07-08T13:40:42.000Z</time>
      </trkpt>
      <trkpt lat="45.79025" lon="1.90732">
        <ele>703.6</ele>
        <time>2026-07-08T13:40:43.000Z</time>
      </trkpt>
      <trkpt lat="45.79026" lon="1.9073">
        <ele>703.6</ele>
        <time>2026-07-08T13:40:44.000Z</time>
      </trkpt>
      <trkpt lat="45.79026" lon="1.9073">
        <ele>701.8</ele>
        <time>2026-07-08T13:40:45.000Z</time>
      </trkpt>
      <trkpt lat="45.79022" lon="1.90732">
        <ele>697.7</ele>
        <time>2026-07-08T13:40:46.000Z</time>
      </trkpt>
      <trkpt lat="45.79023" lon="1.9073">
        <ele>699.2</ele>
        <time>2026-07-08T13:40:47.000Z</time>
      </trkpt>
      <trkpt lat="45.79023" lon="1.90727">
        <ele>699</ele>
        <time>2026-07-08T13:40:48.000Z</time>
      </trkpt>
      <trkpt lat="45.79021" lon="1.90727">
        <ele>699.5</ele>
        <time>2026-07-08T13:40:49.000Z</time>
      </trkpt>
      <trkpt lat="45.79021" lon="1.90726">
        <ele>699.8</ele>
        <time>2026-07-08T13:40:50.000Z</time>
      </trkpt>
      <trkpt lat="45.7902" lon="1.90727">
        <ele>699.9</ele>
        <time>2026-07-08T13:40:51.000Z</time>
      </trkpt>
      <trkpt lat="45.79018" lon="1.90722">
        <ele>700.8</ele>
        <time>2026-07-08T13:40:52.000Z</time>
      </trkpt>
      <trkpt lat="45.79015" lon="1.90717">
        <ele>702.5</ele>
        <time>2026-07-08T13:40:53.000Z</time>
      </trkpt>
      <trkpt lat="45.79011" lon="1.90719">
        <ele>703.7</ele>
        <time>2026-07-08T13:40:54.000Z</time>
      </trkpt>
      <trkpt lat="45.79012" lon="1.90721">
        <ele>704</ele>
        <time>2026-07-08T13:40:55.000Z</time>
      </trkpt>
      <trkpt lat="45.79011" lon="1.90722">
        <ele>704.3</ele>
        <time>2026-07-08T13:40:56.000Z</time>
      </trkpt>
      <trkpt lat="45.79011" lon="1.90723">
        <ele>704.1</ele>
        <time>2026-07-08T13:40:57.000Z</time>
      </trkpt>
      <trkpt lat="45.7901" lon="1.90722">
        <ele>707</ele>
        <time>2026-07-08T13:40:58.000Z</time>
      </trkpt>
      <trkpt lat="45.79008" lon="1.90722">
        <ele>708.1</ele>
        <time>2026-07-08T13:40:59.000Z</time>
      </trkpt>
      <trkpt lat="45.79007" lon="1.90723">
        <ele>708.6</ele>
        <time>2026-07-08T13:41:00.000Z</time>
      </trkpt>
      <trkpt lat="45.79006" lon="1.90724">
        <ele>709.2</ele>
        <time>2026-07-08T13:41:01.000Z</time>
      </trkpt>
      <trkpt lat="45.79005" lon="1.90726">
        <ele>708.8</ele>
        <time>2026-07-08T13:41:02.000Z</time>
      </trkpt>
      <trkpt lat="45.79004" lon="1.90729">
        <ele>708.6</ele>
        <time>2026-07-08T13:41:03.000Z</time>
      </trkpt>
      <trkpt lat="45.79004" lon="1.90732">
        <ele>708</ele>
        <time>2026-07-08T13:41:04.000Z</time>
      </trkpt>
      <trkpt lat="45.79004" lon="1.90736">
        <ele>707.6</ele>
        <time>2026-07-08T13:41:05.000Z</time>
      </trkpt>
      <trkpt lat="45.79004" lon="1.90739">
        <ele>707.1</ele>
        <time>2026-07-08T13:41:06.000Z</time>
      </trkpt>
      <trkpt lat="45.79004" lon="1.90742">
        <ele>708.5</ele>
        <time>2026-07-08T13:41:07.000Z</time>
      </trkpt>
      <trkpt lat="45.79004" lon="1.90744">
        <ele>707.5</ele>
        <time>2026-07-08T13:41:08.000Z</time>
      </trkpt>
      <trkpt lat="45.79004" lon="1.90744">
        <ele>707.5</ele>
        <time>2026-07-08T13:41:09.000Z</time>
      </trkpt>
      <trkpt lat="45.79004" lon="1.90746">
        <ele>707.4</ele>
        <time>2026-07-08T13:41:10.000Z</time>
      </trkpt>
      <trkpt lat="45.79003" lon="1.90746">
        <ele>705.9</ele>
        <time>2026-07-08T13:41:11.000Z</time>
      </trkpt>
      <trkpt lat="45.79003" lon="1.90745">
        <ele>704.4</ele>
        <time>2026-07-08T13:41:12.000Z</time>
      </trkpt>
      <trkpt lat="45.79002" lon="1.90743">
        <ele>704.3</ele>
        <time>2026-07-08T13:41:13.000Z</time>
      </trkpt>
      <trkpt lat="45.79001" lon="1.90742">
        <ele>703</ele>
        <time>2026-07-08T13:41:14.000Z</time>
      </trkpt>
      <trkpt lat="45.79001" lon="1.90741">
        <ele>702.6</ele>
        <time>2026-07-08T13:41:15.000Z</time>
      </trkpt>
      <trkpt lat="45.79001" lon="1.9074">
        <ele>702.2</ele>
        <time>2026-07-08T13:41:16.000Z</time>
      </trkpt>
      <trkpt lat="45.79" lon="1.90739">
        <ele>702.6</ele>
        <time>2026-07-08T13:41:17.000Z</time>
      </trkpt>
      <trkpt lat="45.79" lon="1.90738">
        <ele>702.1</ele>
        <time>2026-07-08T13:41:18.000Z</time>
      </trkpt>
      <trkpt lat="45.78999" lon="1.90737">
        <ele>702.3</ele>
        <time>2026-07-08T13:41:19.000Z</time>
      </trkpt>
      <trkpt lat="45.78998" lon="1.90737">
        <ele>702.5</ele>
        <time>2026-07-08T13:41:20.000Z</time>
      </trkpt>
      <trkpt lat="45.78997" lon="1.90738">
        <ele>701.4</ele>
        <time>2026-07-08T13:41:21.000Z</time>
      </trkpt>
      <trkpt lat="45.78997" lon="1.90739">
        <ele>701.3</ele>
        <time>2026-07-08T13:41:22.000Z</time>
      </trkpt>
      <trkpt lat="45.78997" lon="1.90741">
        <ele>700.8</ele>
        <time>2026-07-08T13:41:23.000Z</time>
      </trkpt>
      <trkpt lat="45.78997" lon="1.90742">
        <ele>700.3</ele>
        <time>2026-07-08T13:41:24.000Z</time>
      </trkpt>
      <trkpt lat="45.78997" lon="1.90744">
        <ele>701.4</ele>
        <time>2026-07-08T13:41:25.000Z</time>
      </trkpt>
      <trkpt lat="45.78997" lon="1.90746">
        <ele>700.6</ele>
        <time>2026-07-08T13:41:26.000Z</time>
      </trkpt>
      <trkpt lat="45.78997" lon="1.90748">
        <ele>700.6</ele>
        <time>2026-07-08T13:41:27.000Z</time>
      </trkpt>
      <trkpt lat="45.78998" lon="1.9075">
        <ele>699.9</ele>
        <time>2026-07-08T13:41:28.000Z</time>
      </trkpt>
      <trkpt lat="45.78999" lon="1.90751">
        <ele>700.1</ele>
        <time>2026-07-08T13:41:29.000Z</time>
      </trkpt>
      <trkpt lat="45.78999" lon="1.90753">
        <ele>700.1</ele>
        <time>2026-07-08T13:41:30.000Z</time>
      </trkpt>
      <trkpt lat="45.78999" lon="1.90754">
        <ele>699.6</ele>
        <time>2026-07-08T13:41:31.000Z</time>
      </trkpt>
      <trkpt lat="45.79" lon="1.90756">
        <ele>699.5</ele>
        <time>2026-07-08T13:41:32.000Z</time>
      </trkpt>
      <trkpt lat="45.79" lon="1.90757">
        <ele>699.7</ele>
        <time>2026-07-08T13:41:33.000Z</time>
      </trkpt>
      <trkpt lat="45.79" lon="1.90759">
        <ele>700</ele>
        <time>2026-07-08T13:41:34.000Z</time>
      </trkpt>
      <trkpt lat="45.79" lon="1.9076">
        <ele>700.3</ele>
        <time>2026-07-08T13:41:35.000Z</time>
      </trkpt>
      <trkpt lat="45.79" lon="1.9076">
        <ele>700.3</ele>
        <time>2026-07-08T13:41:36.000Z</time>
      </trkpt>
      <trkpt lat="45.79" lon="1.90762">
        <ele>700.8</ele>
        <time>2026-07-08T13:41:37.000Z</time>
      </trkpt>
      <trkpt lat="45.79" lon="1.90764">
        <ele>701.8</ele>
        <time>2026-07-08T13:41:38.000Z</time>
      </trkpt>
      <trkpt lat="45.79001" lon="1.90766">
        <ele>703</ele>
        <time>2026-07-08T13:41:39.000Z</time>
      </trkpt>
      <trkpt lat="45.79003" lon="1.90767">
        <ele>703.9</ele>
        <time>2026-07-08T13:41:40.000Z</time>
      </trkpt>
      <trkpt lat="45.79003" lon="1.90769">
        <ele>703.5</ele>
        <time>2026-07-08T13:41:41.000Z</time>
      </trkpt>
      <trkpt lat="45.79004" lon="1.9077">
        <ele>703.4</ele>
        <time>2026-07-08T13:41:42.000Z</time>
      </trkpt>
      <trkpt lat="45.79005" lon="1.90771">
        <ele>703.4</ele>
        <time>2026-07-08T13:41:43.000Z</time>
      </trkpt>
      <trkpt lat="45.79006" lon="1.90771">
        <ele>702.4</ele>
        <time>2026-07-08T13:41:44.000Z</time>
      </trkpt>
      <trkpt lat="45.79007" lon="1.90772">
        <ele>702.8</ele>
        <time>2026-07-08T13:41:45.000Z</time>
      </trkpt>
      <trkpt lat="45.79007" lon="1.90772">
        <ele>702.8</ele>
        <time>2026-07-08T13:41:46.000Z</time>
      </trkpt>
      <trkpt lat="45.79005" lon="1.90772">
        <ele>702.5</ele>
        <time>2026-07-08T13:41:47.000Z</time>
      </trkpt>
      <trkpt lat="45.79004" lon="1.90771">
        <ele>702.1</ele>
        <time>2026-07-08T13:41:48.000Z</time>
      </trkpt>
      <trkpt lat="45.79003" lon="1.90772">
        <ele>702.1</ele>
        <time>2026-07-08T13:41:49.000Z</time>
      </trkpt>
      <trkpt lat="45.79004" lon="1.90773">
        <ele>704.1</ele>
        <time>2026-07-08T13:41:50.000Z</time>
      </trkpt>
      <trkpt lat="45.79005" lon="1.90774">
        <ele>703.8</ele>
        <time>2026-07-08T13:41:51.000Z</time>
      </trkpt>
      <trkpt lat="45.79006" lon="1.90775">
        <ele>702.4</ele>
        <time>2026-07-08T13:41:52.000Z</time>
      </trkpt>
      <trkpt lat="45.79007" lon="1.90776">
        <ele>702.5</ele>
        <time>2026-07-08T13:41:53.000Z</time>
      </trkpt>
      <trkpt lat="45.79008" lon="1.90776">
        <ele>701.6</ele>
        <time>2026-07-08T13:41:54.000Z</time>
      </trkpt>
      <trkpt lat="45.79009" lon="1.90776">
        <ele>702.5</ele>
        <time>2026-07-08T13:41:55.000Z</time>
      </trkpt>
      <trkpt lat="45.7901" lon="1.90776">
        <ele>702.1</ele>
        <time>2026-07-08T13:41:56.000Z</time>
      </trkpt>
      <trkpt lat="45.7901" lon="1.90776">
        <ele>702.1</ele>
        <time>2026-07-08T13:41:57.000Z</time>
      </trkpt>
      <trkpt lat="45.7901" lon="1.90776">
        <ele>701.8</ele>
        <time>2026-07-08T13:41:58.000Z</time>
      </trkpt>
      <trkpt lat="45.79011" lon="1.90776">
        <ele>703.2</ele>
        <time>2026-07-08T13:41:59.000Z</time>
      </trkpt>
      <trkpt lat="45.79011" lon="1.90775">
        <ele>705.7</ele>
        <time>2026-07-08T13:42:00.000Z</time>
      </trkpt>
      <trkpt lat="45.79012" lon="1.90774">
        <ele>705.8</ele>
        <time>2026-07-08T13:42:01.000Z</time>
      </trkpt>
      <trkpt lat="45.79012" lon="1.90774">
        <ele>705.8</ele>
        <time>2026-07-08T13:42:02.000Z</time>
      </trkpt>
      <trkpt lat="45.79012" lon="1.90774">
        <ele>705.8</ele>
        <time>2026-07-08T13:42:03.000Z</time>
      </trkpt>
      <trkpt lat="45.79012" lon="1.90774">
        <ele>705.8</ele>
        <time>2026-07-08T13:42:04.000Z</time>
      </trkpt>
      <trkpt lat="45.79012" lon="1.90774">
        <ele>705.6</ele>
        <time>2026-07-08T13:42:05.000Z</time>
      </trkpt>
      <trkpt lat="45.79012" lon="1.90774">
        <ele>705.6</ele>
        <time>2026-07-08T13:42:06.000Z</time>
      </trkpt>
      <trkpt lat="45.79012" lon="1.90774">
        <ele>705.7</ele>
        <time>2026-07-08T13:42:07.000Z</time>
      </trkpt>
      <trkpt lat="45.79012" lon="1.90773">
        <ele>705.9</ele>
        <time>2026-07-08T13:42:08.000Z</time>
      </trkpt>
      <trkpt lat="45.79012" lon="1.90773">
        <ele>705.9</ele>
        <time>2026-07-08T13:42:09.000Z</time>
      </trkpt>
      <trkpt lat="45.79012" lon="1.90773">
        <ele>705.9</ele>
        <time>2026-07-08T13:42:10.000Z</time>
      </trkpt>
      <trkpt lat="45.79012" lon="1.90773">
        <ele>705.9</ele>
        <time>2026-07-08T13:42:11.000Z</time>
      </trkpt>
      <trkpt lat="45.79012" lon="1.90773">
        <ele>705.9</ele>
        <time>2026-07-08T13:42:12.000Z</time>
      </trkpt>
      <trkpt lat="45.79012" lon="1.90773">
        <ele>705.9</ele>
        <time>2026-07-08T13:42:13.000Z</time>
      </trkpt>
      <trkpt lat="45.79012" lon="1.90773">
        <ele>705.9</ele>
        <time>2026-07-08T13:42:14.000Z</time>
      </trkpt>
      <trkpt lat="45.79012" lon="1.90773">
        <ele>705.9</ele>
        <time>2026-07-08T13:42:15.000Z</time>
      </trkpt>
      <trkpt lat="45.79012" lon="1.90773">
        <ele>705.9</ele>
        <time>2026-07-08T13:42:16.000Z</time>
      </trkpt>
      <trkpt lat="45.79012" lon="1.90773">
        <ele>705.9</ele>
        <time>2026-07-08T13:42:17.000Z</time>
      </trkpt>
      <trkpt lat="45.79012" lon="1.90773">
        <ele>705.9</ele>
        <time>2026-07-08T13:42:18.000Z</time>
      </trkpt>
      <trkpt lat="45.79012" lon="1.90773">
        <ele>705.9</ele>
        <time>2026-07-08T13:42:19.000Z</time>
      </trkpt>
      <trkpt lat="45.79012" lon="1.90773">
        <ele>705.9</ele>
        <time>2026-07-08T13:42:20.000Z</time>
      </trkpt>
      <trkpt lat="45.79012" lon="1.90774">
        <ele>705.9</ele>
        <time>2026-07-08T13:42:21.000Z</time>
      </trkpt>
      <trkpt lat="45.79012" lon="1.90774">
        <ele>705.9</ele>
        <time>2026-07-08T13:42:22.000Z</time>
      </trkpt>
      <trkpt lat="45.79012" lon="1.90774">
        <ele>705.9</ele>
        <time>2026-07-08T13:42:23.000Z</time>
      </trkpt>
      <trkpt lat="45.79012" lon="1.90774">
        <ele>705.9</ele>
        <time>2026-07-08T13:42:24.000Z</time>
      </trkpt>
      <trkpt lat="45.79012" lon="1.90774">
        <ele>705.9</ele>
        <time>2026-07-08T13:42:25.000Z</time>
      </trkpt>
      <trkpt lat="45.79012" lon="1.90774">
        <ele>705.8</ele>
        <time>2026-07-08T13:42:26.000Z</time>
      </trkpt>
      <trkpt lat="45.79012" lon="1.90774">
        <ele>705.8</ele>
        <time>2026-07-08T13:42:27.000Z</time>
      </trkpt>
      <trkpt lat="45.79012" lon="1.90774">
        <ele>705.9</ele>
        <time>2026-07-08T13:42:28.000Z</time>
      </trkpt>
      <trkpt lat="45.79012" lon="1.90774">
        <ele>705.8</ele>
        <time>2026-07-08T13:42:29.000Z</time>
      </trkpt>
      <trkpt lat="45.79012" lon="1.90774">
        <ele>705.9</ele>
        <time>2026-07-08T13:42:30.000Z</time>
      </trkpt>
      <trkpt lat="45.79012" lon="1.90774">
        <ele>705.9</ele>
        <time>2026-07-08T13:42:31.000Z</time>
      </trkpt>
      <trkpt lat="45.79012" lon="1.90774">
        <ele>705.9</ele>
        <time>2026-07-08T13:42:32.000Z</time>
      </trkpt>
      <trkpt lat="45.79012" lon="1.90774">
        <ele>705.9</ele>
        <time>2026-07-08T13:42:33.000Z</time>
      </trkpt>
      <trkpt lat="45.79012" lon="1.90774">
        <ele>705.9</ele>
        <time>2026-07-08T13:42:34.000Z</time>
      </trkpt>
      <trkpt lat="45.79012" lon="1.90774">
        <ele>706.1</ele>
        <time>2026-07-08T13:42:35.000Z</time>
      </trkpt>
      <trkpt lat="45.79012" lon="1.90774">
        <ele>706.1</ele>
        <time>2026-07-08T13:42:36.000Z</time>
      </trkpt>
      <trkpt lat="45.79012" lon="1.90774">
        <ele>706.1</ele>
        <time>2026-07-08T13:42:37.000Z</time>
      </trkpt>
      <trkpt lat="45.79012" lon="1.90774">
        <ele>706.1</ele>
        <time>2026-07-08T13:42:38.000Z</time>
      </trkpt>
      <trkpt lat="45.79012" lon="1.90774">
        <ele>706.1</ele>
        <time>2026-07-08T13:42:39.000Z</time>
      </trkpt>
      <trkpt lat="45.79012" lon="1.90774">
        <ele>706.1</ele>
        <time>2026-07-08T13:42:40.000Z</time>
      </trkpt>
      <trkpt lat="45.79012" lon="1.90774">
        <ele>706.1</ele>
        <time>2026-07-08T13:42:41.000Z</time>
      </trkpt>
      <trkpt lat="45.79012" lon="1.90774">
        <ele>706.1</ele>
        <time>2026-07-08T13:42:42.000Z</time>
      </trkpt>
      <trkpt lat="45.79012" lon="1.90774">
        <ele>706.1</ele>
        <time>2026-07-08T13:42:43.000Z</time>
      </trkpt>
      <trkpt lat="45.79012" lon="1.90774">
        <ele>706.1</ele>
        <time>2026-07-08T13:42:44.000Z</time>
      </trkpt>
      <trkpt lat="45.79012" lon="1.90774">
        <ele>706.1</ele>
        <time>2026-07-08T13:42:45.000Z</time>
      </trkpt>
      <trkpt lat="45.79012" lon="1.90774">
        <ele>706.1</ele>
        <time>2026-07-08T13:42:46.000Z</time>
      </trkpt>
      <trkpt lat="45.79012" lon="1.90774">
        <ele>706.1</ele>
        <time>2026-07-08T13:42:47.000Z</time>
      </trkpt>
      <trkpt lat="45.79013" lon="1.90775">
        <ele>705.9</ele>
        <time>2026-07-08T13:42:48.000Z</time>
      </trkpt>
      <trkpt lat="45.79013" lon="1.90775">
        <ele>705.8</ele>
        <time>2026-07-08T13:42:49.000Z</time>
      </trkpt>
      <trkpt lat="45.79015" lon="1.90776">
        <ele>705.1</ele>
        <time>2026-07-08T13:42:50.000Z</time>
      </trkpt>
      <trkpt lat="45.79016" lon="1.90776">
        <ele>704.7</ele>
        <time>2026-07-08T13:42:51.000Z</time>
      </trkpt>
      <trkpt lat="45.79017" lon="1.90777">
        <ele>706.4</ele>
        <time>2026-07-08T13:42:52.000Z</time>
      </trkpt>
      <trkpt lat="45.79017" lon="1.90777">
        <ele>705.2</ele>
        <time>2026-07-08T13:42:53.000Z</time>
      </trkpt>
      <trkpt lat="45.79018" lon="1.90778">
        <ele>705.5</ele>
        <time>2026-07-08T13:42:54.000Z</time>
      </trkpt>
      <trkpt lat="45.79019" lon="1.90779">
        <ele>705.9</ele>
        <time>2026-07-08T13:42:55.000Z</time>
      </trkpt>
      <trkpt lat="45.79021" lon="1.90779">
        <ele>705</ele>
        <time>2026-07-08T13:42:56.000Z</time>
      </trkpt>
      <trkpt lat="45.79022" lon="1.9078">
        <ele>704.1</ele>
        <time>2026-07-08T13:42:57.000Z</time>
      </trkpt>
      <trkpt lat="45.79023" lon="1.90781">
        <ele>704.3</ele>
        <time>2026-07-08T13:42:58.000Z</time>
      </trkpt>
      <trkpt lat="45.79024" lon="1.90782">
        <ele>704.1</ele>
        <time>2026-07-08T13:42:59.000Z</time>
      </trkpt>
      <trkpt lat="45.79026" lon="1.90782">
        <ele>703.6</ele>
        <time>2026-07-08T13:43:00.000Z</time>
      </trkpt>
      <trkpt lat="45.79028" lon="1.90782">
        <ele>703.3</ele>
        <time>2026-07-08T13:43:01.000Z</time>
      </trkpt>
      <trkpt lat="45.79028" lon="1.90781">
        <ele>703.2</ele>
        <time>2026-07-08T13:43:02.000Z</time>
      </trkpt>
      <trkpt lat="45.79028" lon="1.9078">
        <ele>703.8</ele>
        <time>2026-07-08T13:43:03.000Z</time>
      </trkpt>
      <trkpt lat="45.79027" lon="1.90779">
        <ele>703.8</ele>
        <time>2026-07-08T13:43:04.000Z</time>
      </trkpt>
      <trkpt lat="45.79027" lon="1.90779">
        <ele>703.8</ele>
        <time>2026-07-08T13:43:05.000Z</time>
      </trkpt>
      <trkpt lat="45.79027" lon="1.90779">
        <ele>703.8</ele>
        <time>2026-07-08T13:43:06.000Z</time>
      </trkpt>
      <trkpt lat="45.79027" lon="1.90779">
        <ele>703.8</ele>
        <time>2026-07-08T13:43:07.000Z</time>
      </trkpt>
      <trkpt lat="45.79028" lon="1.90779">
        <ele>703.7</ele>
        <time>2026-07-08T13:43:08.000Z</time>
      </trkpt>
      <trkpt lat="45.79028" lon="1.90779">
        <ele>703.9</ele>
        <time>2026-07-08T13:43:09.000Z</time>
      </trkpt>
      <trkpt lat="45.79029" lon="1.9078">
        <ele>704.1</ele>
        <time>2026-07-08T13:43:10.000Z</time>
      </trkpt>
      <trkpt lat="45.7903" lon="1.90781">
        <ele>704.5</ele>
        <time>2026-07-08T13:43:11.000Z</time>
      </trkpt>
      <trkpt lat="45.79032" lon="1.90782">
        <ele>704.6</ele>
        <time>2026-07-08T13:43:12.000Z</time>
      </trkpt>
      <trkpt lat="45.79033" lon="1.90784">
        <ele>704.3</ele>
        <time>2026-07-08T13:43:13.000Z</time>
      </trkpt>
      <trkpt lat="45.79035" lon="1.90785">
        <ele>704.5</ele>
        <time>2026-07-08T13:43:14.000Z</time>
      </trkpt>
      <trkpt lat="45.79036" lon="1.90786">
        <ele>703.6</ele>
        <time>2026-07-08T13:43:15.000Z</time>
      </trkpt>
      <trkpt lat="45.79037" lon="1.90788">
        <ele>703.8</ele>
        <time>2026-07-08T13:43:16.000Z</time>
      </trkpt>
      <trkpt lat="45.79039" lon="1.90789">
        <ele>704.1</ele>
        <time>2026-07-08T13:43:17.000Z</time>
      </trkpt>
      <trkpt lat="45.7904" lon="1.9079">
        <ele>704.6</ele>
        <time>2026-07-08T13:43:18.000Z</time>
      </trkpt>
      <trkpt lat="45.79042" lon="1.90791">
        <ele>705.1</ele>
        <time>2026-07-08T13:43:19.000Z</time>
      </trkpt>
      <trkpt lat="45.79044" lon="1.90792">
        <ele>705.7</ele>
        <time>2026-07-08T13:43:20.000Z</time>
      </trkpt>
      <trkpt lat="45.79045" lon="1.90793">
        <ele>705.9</ele>
        <time>2026-07-08T13:43:21.000Z</time>
      </trkpt>
      <trkpt lat="45.79046" lon="1.90794">
        <ele>705.6</ele>
        <time>2026-07-08T13:43:22.000Z</time>
      </trkpt>
      <trkpt lat="45.79048" lon="1.90796">
        <ele>706</ele>
        <time>2026-07-08T13:43:23.000Z</time>
      </trkpt>
      <trkpt lat="45.79049" lon="1.90797">
        <ele>706.2</ele>
        <time>2026-07-08T13:43:24.000Z</time>
      </trkpt>
      <trkpt lat="45.7905" lon="1.90799">
        <ele>706.6</ele>
        <time>2026-07-08T13:43:25.000Z</time>
      </trkpt>
      <trkpt lat="45.79052" lon="1.908">
        <ele>706.9</ele>
        <time>2026-07-08T13:43:26.000Z</time>
      </trkpt>
      <trkpt lat="45.79053" lon="1.90802">
        <ele>706.8</ele>
        <time>2026-07-08T13:43:27.000Z</time>
      </trkpt>
      <trkpt lat="45.79054" lon="1.90804">
        <ele>707.1</ele>
        <time>2026-07-08T13:43:28.000Z</time>
      </trkpt>
      <trkpt lat="45.79055" lon="1.90805">
        <ele>707.3</ele>
        <time>2026-07-08T13:43:29.000Z</time>
      </trkpt>
      <trkpt lat="45.79057" lon="1.90807">
        <ele>707.2</ele>
        <time>2026-07-08T13:43:30.000Z</time>
      </trkpt>
      <trkpt lat="45.79058" lon="1.90809">
        <ele>707.4</ele>
        <time>2026-07-08T13:43:31.000Z</time>
      </trkpt>
      <trkpt lat="45.79059" lon="1.90811">
        <ele>707.8</ele>
        <time>2026-07-08T13:43:32.000Z</time>
      </trkpt>
      <trkpt lat="45.79061" lon="1.90813">
        <ele>708</ele>
        <time>2026-07-08T13:43:33.000Z</time>
      </trkpt>
      <trkpt lat="45.79062" lon="1.90814">
        <ele>708</ele>
        <time>2026-07-08T13:43:34.000Z</time>
      </trkpt>
      <trkpt lat="45.79063" lon="1.90816">
        <ele>708.2</ele>
        <time>2026-07-08T13:43:35.000Z</time>
      </trkpt>
      <trkpt lat="45.79064" lon="1.90817">
        <ele>708.4</ele>
        <time>2026-07-08T13:43:36.000Z</time>
      </trkpt>
      <trkpt lat="45.79066" lon="1.90819">
        <ele>708.4</ele>
        <time>2026-07-08T13:43:37.000Z</time>
      </trkpt>
      <trkpt lat="45.79067" lon="1.90821">
        <ele>708.7</ele>
        <time>2026-07-08T13:43:38.000Z</time>
      </trkpt>
      <trkpt lat="45.79068" lon="1.90823">
        <ele>708.9</ele>
        <time>2026-07-08T13:43:39.000Z</time>
      </trkpt>
      <trkpt lat="45.79069" lon="1.90825">
        <ele>708.8</ele>
        <time>2026-07-08T13:43:40.000Z</time>
      </trkpt>
      <trkpt lat="45.7907" lon="1.90827">
        <ele>708.5</ele>
        <time>2026-07-08T13:43:41.000Z</time>
      </trkpt>
      <trkpt lat="45.79072" lon="1.90828">
        <ele>708.8</ele>
        <time>2026-07-08T13:43:42.000Z</time>
      </trkpt>
      <trkpt lat="45.79073" lon="1.9083">
        <ele>708.8</ele>
        <time>2026-07-08T13:43:43.000Z</time>
      </trkpt>
      <trkpt lat="45.79074" lon="1.90832">
        <ele>709</ele>
        <time>2026-07-08T13:43:44.000Z</time>
      </trkpt>
      <trkpt lat="45.79076" lon="1.90833">
        <ele>709.6</ele>
        <time>2026-07-08T13:43:45.000Z</time>
      </trkpt>
      <trkpt lat="45.79077" lon="1.90835">
        <ele>709.3</ele>
        <time>2026-07-08T13:43:46.000Z</time>
      </trkpt>
      <trkpt lat="45.79079" lon="1.90836">
        <ele>709.6</ele>
        <time>2026-07-08T13:43:47.000Z</time>
      </trkpt>
      <trkpt lat="45.7908" lon="1.90837">
        <ele>710</ele>
        <time>2026-07-08T13:43:48.000Z</time>
      </trkpt>
      <trkpt lat="45.79082" lon="1.90838">
        <ele>710.1</ele>
        <time>2026-07-08T13:43:49.000Z</time>
      </trkpt>
      <trkpt lat="45.79083" lon="1.90838">
        <ele>709.9</ele>
        <time>2026-07-08T13:43:50.000Z</time>
      </trkpt>
      <trkpt lat="45.79085" lon="1.90839">
        <ele>710</ele>
        <time>2026-07-08T13:43:51.000Z</time>
      </trkpt>
      <trkpt lat="45.79087" lon="1.90839">
        <ele>709.6</ele>
        <time>2026-07-08T13:43:52.000Z</time>
      </trkpt>
      <trkpt lat="45.79089" lon="1.90839">
        <ele>709.5</ele>
        <time>2026-07-08T13:43:53.000Z</time>
      </trkpt>
      <trkpt lat="45.79091" lon="1.90838">
        <ele>709.4</ele>
        <time>2026-07-08T13:43:54.000Z</time>
      </trkpt>
      <trkpt lat="45.79092" lon="1.90838">
        <ele>709.3</ele>
        <time>2026-07-08T13:43:55.000Z</time>
      </trkpt>
      <trkpt lat="45.79094" lon="1.90837">
        <ele>709.1</ele>
        <time>2026-07-08T13:43:56.000Z</time>
      </trkpt>
      <trkpt lat="45.79096" lon="1.90836">
        <ele>709.1</ele>
        <time>2026-07-08T13:43:57.000Z</time>
      </trkpt>
      <trkpt lat="45.79097" lon="1.90835">
        <ele>709.3</ele>
        <time>2026-07-08T13:43:58.000Z</time>
      </trkpt>
      <trkpt lat="45.79099" lon="1.90835">
        <ele>709.1</ele>
        <time>2026-07-08T13:43:59.000Z</time>
      </trkpt>
      <trkpt lat="45.79101" lon="1.90835">
        <ele>708.9</ele>
        <time>2026-07-08T13:44:00.000Z</time>
      </trkpt>
      <trkpt lat="45.79103" lon="1.90834">
        <ele>708.9</ele>
        <time>2026-07-08T13:44:01.000Z</time>
      </trkpt>
      <trkpt lat="45.79105" lon="1.90834">
        <ele>708.9</ele>
        <time>2026-07-08T13:44:02.000Z</time>
      </trkpt>
      <trkpt lat="45.79107" lon="1.90833">
        <ele>708.6</ele>
        <time>2026-07-08T13:44:03.000Z</time>
      </trkpt>
      <trkpt lat="45.79108" lon="1.90831">
        <ele>708.5</ele>
        <time>2026-07-08T13:44:04.000Z</time>
      </trkpt>
      <trkpt lat="45.7911" lon="1.9083">
        <ele>707.9</ele>
        <time>2026-07-08T13:44:05.000Z</time>
      </trkpt>
      <trkpt lat="45.79111" lon="1.90828">
        <ele>707.4</ele>
        <time>2026-07-08T13:44:06.000Z</time>
      </trkpt>
      <trkpt lat="45.79114" lon="1.90827">
        <ele>707.7</ele>
        <time>2026-07-08T13:44:07.000Z</time>
      </trkpt>
      <trkpt lat="45.79115" lon="1.90824">
        <ele>708.9</ele>
        <time>2026-07-08T13:44:08.000Z</time>
      </trkpt>
      <trkpt lat="45.79115" lon="1.9082">
        <ele>709.3</ele>
        <time>2026-07-08T13:44:09.000Z</time>
      </trkpt>
      <trkpt lat="45.79115" lon="1.90817">
        <ele>709.4</ele>
        <time>2026-07-08T13:44:10.000Z</time>
      </trkpt>
      <trkpt lat="45.79116" lon="1.90814">
        <ele>709</ele>
        <time>2026-07-08T13:44:11.000Z</time>
      </trkpt>
      <trkpt lat="45.79117" lon="1.90812">
        <ele>708.9</ele>
        <time>2026-07-08T13:44:12.000Z</time>
      </trkpt>
      <trkpt lat="45.79118" lon="1.9081">
        <ele>709.1</ele>
        <time>2026-07-08T13:44:13.000Z</time>
      </trkpt>
      <trkpt lat="45.7912" lon="1.90809">
        <ele>709.4</ele>
        <time>2026-07-08T13:44:14.000Z</time>
      </trkpt>
      <trkpt lat="45.79121" lon="1.90808">
        <ele>708.9</ele>
        <time>2026-07-08T13:44:15.000Z</time>
      </trkpt>
      <trkpt lat="45.79123" lon="1.90807">
        <ele>708.9</ele>
        <time>2026-07-08T13:44:16.000Z</time>
      </trkpt>
      <trkpt lat="45.79124" lon="1.90806">
        <ele>708.9</ele>
        <time>2026-07-08T13:44:17.000Z</time>
      </trkpt>
      <trkpt lat="45.79125" lon="1.90806">
        <ele>707.9</ele>
        <time>2026-07-08T13:44:18.000Z</time>
      </trkpt>
      <trkpt lat="45.79127" lon="1.90805">
        <ele>707.5</ele>
        <time>2026-07-08T13:44:19.000Z</time>
      </trkpt>
      <trkpt lat="45.79129" lon="1.90806">
        <ele>707.1</ele>
        <time>2026-07-08T13:44:20.000Z</time>
      </trkpt>
      <trkpt lat="45.79132" lon="1.90807">
        <ele>707</ele>
        <time>2026-07-08T13:44:21.000Z</time>
      </trkpt>
      <trkpt lat="45.79134" lon="1.90807">
        <ele>705.8</ele>
        <time>2026-07-08T13:44:22.000Z</time>
      </trkpt>
      <trkpt lat="45.79137" lon="1.90807">
        <ele>704.5</ele>
        <time>2026-07-08T13:44:23.000Z</time>
      </trkpt>
      <trkpt lat="45.7914" lon="1.90807">
        <ele>704.3</ele>
        <time>2026-07-08T13:44:24.000Z</time>
      </trkpt>
      <trkpt lat="45.79143" lon="1.90806">
        <ele>703.7</ele>
        <time>2026-07-08T13:44:25.000Z</time>
      </trkpt>
      <trkpt lat="45.79146" lon="1.90805">
        <ele>702.8</ele>
        <time>2026-07-08T13:44:26.000Z</time>
      </trkpt>
      <trkpt lat="45.79148" lon="1.90805">
        <ele>702.2</ele>
        <time>2026-07-08T13:44:27.000Z</time>
      </trkpt>
      <trkpt lat="45.79152" lon="1.90805">
        <ele>702.3</ele>
        <time>2026-07-08T13:44:28.000Z</time>
      </trkpt>
      <trkpt lat="45.79155" lon="1.90805">
        <ele>701.6</ele>
        <time>2026-07-08T13:44:29.000Z</time>
      </trkpt>
      <trkpt lat="45.79158" lon="1.90807">
        <ele>700.9</ele>
        <time>2026-07-08T13:44:30.000Z</time>
      </trkpt>
      <trkpt lat="45.79161" lon="1.90808">
        <ele>700.8</ele>
        <time>2026-07-08T13:44:31.000Z</time>
      </trkpt>
      <trkpt lat="45.79164" lon="1.90809">
        <ele>701.1</ele>
        <time>2026-07-08T13:44:32.000Z</time>
      </trkpt>
      <trkpt lat="45.79167" lon="1.9081">
        <ele>701.4</ele>
        <time>2026-07-08T13:44:33.000Z</time>
      </trkpt>
      <trkpt lat="45.7917" lon="1.90809">
        <ele>702.2</ele>
        <time>2026-07-08T13:44:34.000Z</time>
      </trkpt>
      <trkpt lat="45.79172" lon="1.90807">
        <ele>701.7</ele>
        <time>2026-07-08T13:44:35.000Z</time>
      </trkpt>
      <trkpt lat="45.79175" lon="1.90805">
        <ele>701.9</ele>
        <time>2026-07-08T13:44:36.000Z</time>
      </trkpt>
      <trkpt lat="45.79177" lon="1.90801">
        <ele>701.9</ele>
        <time>2026-07-08T13:44:37.000Z</time>
      </trkpt>
      <trkpt lat="45.7918" lon="1.90797">
        <ele>702.7</ele>
        <time>2026-07-08T13:44:38.000Z</time>
      </trkpt>
      <trkpt lat="45.79183" lon="1.90792">
        <ele>703.3</ele>
        <time>2026-07-08T13:44:39.000Z</time>
      </trkpt>
      <trkpt lat="45.79185" lon="1.90787">
        <ele>703.2</ele>
        <time>2026-07-08T13:44:40.000Z</time>
      </trkpt>
      <trkpt lat="45.79186" lon="1.90783">
        <ele>703.8</ele>
        <time>2026-07-08T13:44:41.000Z</time>
      </trkpt>
      <trkpt lat="45.79187" lon="1.90779">
        <ele>703.3</ele>
        <time>2026-07-08T13:44:42.000Z</time>
      </trkpt>
      <trkpt lat="45.79188" lon="1.90774">
        <ele>703.6</ele>
        <time>2026-07-08T13:44:43.000Z</time>
      </trkpt>
      <trkpt lat="45.79188" lon="1.9077">
        <ele>703</ele>
        <time>2026-07-08T13:44:44.000Z</time>
      </trkpt>
      <trkpt lat="45.79189" lon="1.90765">
        <ele>703.8</ele>
        <time>2026-07-08T13:44:45.000Z</time>
      </trkpt>
      <trkpt lat="45.7919" lon="1.9076">
        <ele>703.9</ele>
        <time>2026-07-08T13:44:46.000Z</time>
      </trkpt>
      <trkpt lat="45.79192" lon="1.90757">
        <ele>704.9</ele>
        <time>2026-07-08T13:44:47.000Z</time>
      </trkpt>
      <trkpt lat="45.79194" lon="1.90754">
        <ele>705.5</ele>
        <time>2026-07-08T13:44:48.000Z</time>
      </trkpt>
      <trkpt lat="45.79197" lon="1.90752">
        <ele>705.6</ele>
        <time>2026-07-08T13:44:49.000Z</time>
      </trkpt>
      <trkpt lat="45.792" lon="1.90751">
        <ele>706.5</ele>
        <time>2026-07-08T13:44:50.000Z</time>
      </trkpt>
      <trkpt lat="45.79205" lon="1.9075">
        <ele>705.3</ele>
        <time>2026-07-08T13:44:51.000Z</time>
      </trkpt>
      <trkpt lat="45.79209" lon="1.90749">
        <ele>704.8</ele>
        <time>2026-07-08T13:44:52.000Z</time>
      </trkpt>
      <trkpt lat="45.79214" lon="1.90748">
        <ele>705.3</ele>
        <time>2026-07-08T13:44:53.000Z</time>
      </trkpt>
      <trkpt lat="45.79219" lon="1.90748">
        <ele>703.1</ele>
        <time>2026-07-08T13:44:54.000Z</time>
      </trkpt>
      <trkpt lat="45.79225" lon="1.90747">
        <ele>703.7</ele>
        <time>2026-07-08T13:44:55.000Z</time>
      </trkpt>
      <trkpt lat="45.79229" lon="1.90746">
        <ele>704.6</ele>
        <time>2026-07-08T13:44:56.000Z</time>
      </trkpt>
      <trkpt lat="45.79234" lon="1.90744">
        <ele>704.9</ele>
        <time>2026-07-08T13:44:57.000Z</time>
      </trkpt>
      <trkpt lat="45.79238" lon="1.90744">
        <ele>706.2</ele>
        <time>2026-07-08T13:44:58.000Z</time>
      </trkpt>
      <trkpt lat="45.79244" lon="1.90744">
        <ele>707.7</ele>
        <time>2026-07-08T13:44:59.000Z</time>
      </trkpt>
      <trkpt lat="45.79249" lon="1.90745">
        <ele>707.3</ele>
        <time>2026-07-08T13:45:00.000Z</time>
      </trkpt>
      <trkpt lat="45.79254" lon="1.90745">
        <ele>707.3</ele>
        <time>2026-07-08T13:45:01.000Z</time>
      </trkpt>
      <trkpt lat="45.79259" lon="1.90746">
        <ele>707.2</ele>
        <time>2026-07-08T13:45:02.000Z</time>
      </trkpt>
      <trkpt lat="45.79265" lon="1.90747">
        <ele>706</ele>
        <time>2026-07-08T13:45:03.000Z</time>
      </trkpt>
      <trkpt lat="45.7927" lon="1.90747">
        <ele>706.1</ele>
        <time>2026-07-08T13:45:04.000Z</time>
      </trkpt>
      <trkpt lat="45.79275" lon="1.90749">
        <ele>707</ele>
        <time>2026-07-08T13:45:05.000Z</time>
      </trkpt>
      <trkpt lat="45.79279" lon="1.9075">
        <ele>707.4</ele>
        <time>2026-07-08T13:45:06.000Z</time>
      </trkpt>
      <trkpt lat="45.79282" lon="1.90751">
        <ele>707.7</ele>
        <time>2026-07-08T13:45:07.000Z</time>
      </trkpt>
      <trkpt lat="45.79285" lon="1.90753">
        <ele>707.8</ele>
        <time>2026-07-08T13:45:08.000Z</time>
      </trkpt>
      <trkpt lat="45.79288" lon="1.90754">
        <ele>707.7</ele>
        <time>2026-07-08T13:45:09.000Z</time>
      </trkpt>
      <trkpt lat="45.79292" lon="1.90755">
        <ele>708</ele>
        <time>2026-07-08T13:45:10.000Z</time>
      </trkpt>
      <trkpt lat="45.79297" lon="1.90757">
        <ele>708.4</ele>
        <time>2026-07-08T13:45:11.000Z</time>
      </trkpt>
      <trkpt lat="45.79299" lon="1.90757">
        <ele>708</ele>
        <time>2026-07-08T13:45:12.000Z</time>
      </trkpt>
      <trkpt lat="45.79303" lon="1.90757">
        <ele>707.5</ele>
        <time>2026-07-08T13:45:13.000Z</time>
      </trkpt>
      <trkpt lat="45.79304" lon="1.90757">
        <ele>705.7</ele>
        <time>2026-07-08T13:45:14.000Z</time>
      </trkpt>
      <trkpt lat="45.79307" lon="1.90758">
        <ele>706.1</ele>
        <time>2026-07-08T13:45:15.000Z</time>
      </trkpt>
      <trkpt lat="45.79309" lon="1.90757">
        <ele>706.4</ele>
        <time>2026-07-08T13:45:16.000Z</time>
      </trkpt>
      <trkpt lat="45.79311" lon="1.90755">
        <ele>706.2</ele>
        <time>2026-07-08T13:45:17.000Z</time>
      </trkpt>
      <trkpt lat="45.79311" lon="1.90753">
        <ele>707.4</ele>
        <time>2026-07-08T13:45:18.000Z</time>
      </trkpt>
      <trkpt lat="45.79311" lon="1.90752">
        <ele>708.4</ele>
        <time>2026-07-08T13:45:19.000Z</time>
      </trkpt>
      <trkpt lat="45.79311" lon="1.9075">
        <ele>708.7</ele>
        <time>2026-07-08T13:45:20.000Z</time>
      </trkpt>
      <trkpt lat="45.7931" lon="1.90748">
        <ele>708.8</ele>
        <time>2026-07-08T13:45:21.000Z</time>
      </trkpt>
      <trkpt lat="45.7931" lon="1.90745">
        <ele>708.9</ele>
        <time>2026-07-08T13:45:22.000Z</time>
      </trkpt>
      <trkpt lat="45.7931" lon="1.90743">
        <ele>708.9</ele>
        <time>2026-07-08T13:45:23.000Z</time>
      </trkpt>
      <trkpt lat="45.79311" lon="1.9074">
        <ele>709</ele>
        <time>2026-07-08T13:45:24.000Z</time>
      </trkpt>
      <trkpt lat="45.79311" lon="1.90738">
        <ele>709.4</ele>
        <time>2026-07-08T13:45:25.000Z</time>
      </trkpt>
      <trkpt lat="45.79312" lon="1.90736">
        <ele>708.6</ele>
        <time>2026-07-08T13:45:26.000Z</time>
      </trkpt>
      <trkpt lat="45.79312" lon="1.90734">
        <ele>708</ele>
        <time>2026-07-08T13:45:27.000Z</time>
      </trkpt>
      <trkpt lat="45.79312" lon="1.90731">
        <ele>708</ele>
        <time>2026-07-08T13:45:28.000Z</time>
      </trkpt>
      <trkpt lat="45.79312" lon="1.90731">
        <ele>708</ele>
        <time>2026-07-08T13:45:29.000Z</time>
      </trkpt>
      <trkpt lat="45.79312" lon="1.90732">
        <ele>708</ele>
        <time>2026-07-08T13:45:30.000Z</time>
      </trkpt>
      <trkpt lat="45.79312" lon="1.90732">
        <ele>708</ele>
        <time>2026-07-08T13:45:31.000Z</time>
      </trkpt>
      <trkpt lat="45.79312" lon="1.90732">
        <ele>708</ele>
        <time>2026-07-08T13:45:32.000Z</time>
      </trkpt>
      <trkpt lat="45.79312" lon="1.90732">
        <ele>707.8</ele>
        <time>2026-07-08T13:45:33.000Z</time>
      </trkpt>
      <trkpt lat="45.79312" lon="1.90732">
        <ele>707.8</ele>
        <time>2026-07-08T13:45:34.000Z</time>
      </trkpt>
      <trkpt lat="45.79312" lon="1.90732">
        <ele>707.8</ele>
        <time>2026-07-08T13:45:35.000Z</time>
      </trkpt>
      <trkpt lat="45.79313" lon="1.90732">
        <ele>707.8</ele>
        <time>2026-07-08T13:45:36.000Z</time>
      </trkpt>
      <trkpt lat="45.79313" lon="1.90732">
        <ele>707.8</ele>
        <time>2026-07-08T13:45:37.000Z</time>
      </trkpt>
      <trkpt lat="45.79313" lon="1.90734">
        <ele>707.5</ele>
        <time>2026-07-08T13:45:38.000Z</time>
      </trkpt>
      <trkpt lat="45.79313" lon="1.90735">
        <ele>707.3</ele>
        <time>2026-07-08T13:45:39.000Z</time>
      </trkpt>
      <trkpt lat="45.79312" lon="1.90735">
        <ele>707</ele>
        <time>2026-07-08T13:45:40.000Z</time>
      </trkpt>
      <trkpt lat="45.79312" lon="1.90735">
        <ele>707.3</ele>
        <time>2026-07-08T13:45:41.000Z</time>
      </trkpt>
      <trkpt lat="45.79312" lon="1.90735">
        <ele>707.8</ele>
        <time>2026-07-08T13:45:42.000Z</time>
      </trkpt>
      <trkpt lat="45.79312" lon="1.90737">
        <ele>707.8</ele>
        <time>2026-07-08T13:45:43.000Z</time>
      </trkpt>
      <trkpt lat="45.79312" lon="1.90739">
        <ele>708</ele>
        <time>2026-07-08T13:45:44.000Z</time>
      </trkpt>
      <trkpt lat="45.79312" lon="1.90742">
        <ele>708</ele>
        <time>2026-07-08T13:45:45.000Z</time>
      </trkpt>
      <trkpt lat="45.79312" lon="1.90744">
        <ele>708.1</ele>
        <time>2026-07-08T13:45:46.000Z</time>
      </trkpt>
      <trkpt lat="45.79312" lon="1.90747">
        <ele>708.2</ele>
        <time>2026-07-08T13:45:47.000Z</time>
      </trkpt>
      <trkpt lat="45.79312" lon="1.9075">
        <ele>707.8</ele>
        <time>2026-07-08T13:45:48.000Z</time>
      </trkpt>
      <trkpt lat="45.79313" lon="1.90753">
        <ele>707.5</ele>
        <time>2026-07-08T13:45:49.000Z</time>
      </trkpt>
      <trkpt lat="45.79314" lon="1.90756">
        <ele>707.3</ele>
        <time>2026-07-08T13:45:50.000Z</time>
      </trkpt>
      <trkpt lat="45.79315" lon="1.90758">
        <ele>707.1</ele>
        <time>2026-07-08T13:45:51.000Z</time>
      </trkpt>
      <trkpt lat="45.79316" lon="1.9076">
        <ele>707.3</ele>
        <time>2026-07-08T13:45:52.000Z</time>
      </trkpt>
      <trkpt lat="45.79317" lon="1.90762">
        <ele>707.4</ele>
        <time>2026-07-08T13:45:53.000Z</time>
      </trkpt>
      <trkpt lat="45.79318" lon="1.90764">
        <ele>707.4</ele>
        <time>2026-07-08T13:45:54.000Z</time>
      </trkpt>
      <trkpt lat="45.79319" lon="1.90766">
        <ele>707.5</ele>
        <time>2026-07-08T13:45:55.000Z</time>
      </trkpt>
      <trkpt lat="45.7932" lon="1.90767">
        <ele>708.2</ele>
        <time>2026-07-08T13:45:56.000Z</time>
      </trkpt>
      <trkpt lat="45.79321" lon="1.90768">
        <ele>708.1</ele>
        <time>2026-07-08T13:45:57.000Z</time>
      </trkpt>
      <trkpt lat="45.79322" lon="1.90769">
        <ele>708.1</ele>
        <time>2026-07-08T13:45:58.000Z</time>
      </trkpt>
      <trkpt lat="45.79323" lon="1.90771">
        <ele>708.1</ele>
        <time>2026-07-08T13:45:59.000Z</time>
      </trkpt>
      <trkpt lat="45.79323" lon="1.90774">
        <ele>708.6</ele>
        <time>2026-07-08T13:46:00.000Z</time>
      </trkpt>
      <trkpt lat="45.79324" lon="1.90776">
        <ele>708.2</ele>
        <time>2026-07-08T13:46:01.000Z</time>
      </trkpt>
      <trkpt lat="45.79324" lon="1.90779">
        <ele>708.3</ele>
        <time>2026-07-08T13:46:02.000Z</time>
      </trkpt>
      <trkpt lat="45.79324" lon="1.90781">
        <ele>708.3</ele>
        <time>2026-07-08T13:46:03.000Z</time>
      </trkpt>
      <trkpt lat="45.79324" lon="1.90783">
        <ele>708.9</ele>
        <time>2026-07-08T13:46:04.000Z</time>
      </trkpt>
      <trkpt lat="45.79322" lon="1.90786">
        <ele>710.2</ele>
        <time>2026-07-08T13:46:05.000Z</time>
      </trkpt>
      <trkpt lat="45.79321" lon="1.90788">
        <ele>709.7</ele>
        <time>2026-07-08T13:46:06.000Z</time>
      </trkpt>
      <trkpt lat="45.79321" lon="1.9079">
        <ele>709.7</ele>
        <time>2026-07-08T13:46:07.000Z</time>
      </trkpt>
      <trkpt lat="45.79321" lon="1.90793">
        <ele>710.1</ele>
        <time>2026-07-08T13:46:08.000Z</time>
      </trkpt>
      <trkpt lat="45.79322" lon="1.90795">
        <ele>710.1</ele>
        <time>2026-07-08T13:46:09.000Z</time>
      </trkpt>
      <trkpt lat="45.79322" lon="1.90797">
        <ele>709.9</ele>
        <time>2026-07-08T13:46:10.000Z</time>
      </trkpt>
      <trkpt lat="45.79324" lon="1.90799">
        <ele>709.5</ele>
        <time>2026-07-08T13:46:11.000Z</time>
      </trkpt>
      <trkpt lat="45.79325" lon="1.90801">
        <ele>709.1</ele>
        <time>2026-07-08T13:46:12.000Z</time>
      </trkpt>
      <trkpt lat="45.79325" lon="1.90803">
        <ele>709.1</ele>
        <time>2026-07-08T13:46:13.000Z</time>
      </trkpt>
      <trkpt lat="45.79323" lon="1.90805">
        <ele>709.7</ele>
        <time>2026-07-08T13:46:14.000Z</time>
      </trkpt>
      <trkpt lat="45.79323" lon="1.90808">
        <ele>709.7</ele>
        <time>2026-07-08T13:46:15.000Z</time>
      </trkpt>
      <trkpt lat="45.79323" lon="1.90811">
        <ele>709.4</ele>
        <time>2026-07-08T13:46:16.000Z</time>
      </trkpt>
      <trkpt lat="45.79323" lon="1.90813">
        <ele>709.3</ele>
        <time>2026-07-08T13:46:17.000Z</time>
      </trkpt>
      <trkpt lat="45.79323" lon="1.90816">
        <ele>709.2</ele>
        <time>2026-07-08T13:46:18.000Z</time>
      </trkpt>
      <trkpt lat="45.79323" lon="1.90818">
        <ele>709.3</ele>
        <time>2026-07-08T13:46:19.000Z</time>
      </trkpt>
      <trkpt lat="45.79323" lon="1.90821">
        <ele>709.5</ele>
        <time>2026-07-08T13:46:20.000Z</time>
      </trkpt>
      <trkpt lat="45.79323" lon="1.90823">
        <ele>709.7</ele>
        <time>2026-07-08T13:46:21.000Z</time>
      </trkpt>
      <trkpt lat="45.79322" lon="1.90825">
        <ele>709.5</ele>
        <time>2026-07-08T13:46:22.000Z</time>
      </trkpt>
      <trkpt lat="45.79322" lon="1.90827">
        <ele>709.7</ele>
        <time>2026-07-08T13:46:23.000Z</time>
      </trkpt>
      <trkpt lat="45.79322" lon="1.90829">
        <ele>709.3</ele>
        <time>2026-07-08T13:46:24.000Z</time>
      </trkpt>
      <trkpt lat="45.79321" lon="1.90833">
        <ele>710.7</ele>
        <time>2026-07-08T13:46:25.000Z</time>
      </trkpt>
      <trkpt lat="45.7932" lon="1.90836">
        <ele>711.2</ele>
        <time>2026-07-08T13:46:26.000Z</time>
      </trkpt>
      <trkpt lat="45.79319" lon="1.90839">
        <ele>712.2</ele>
        <time>2026-07-08T13:46:27.000Z</time>
      </trkpt>
      <trkpt lat="45.79319" lon="1.90841">
        <ele>711.8</ele>
        <time>2026-07-08T13:46:28.000Z</time>
      </trkpt>
      <trkpt lat="45.79319" lon="1.90843">
        <ele>711.8</ele>
        <time>2026-07-08T13:46:29.000Z</time>
      </trkpt>
      <trkpt lat="45.79319" lon="1.90845">
        <ele>711.7</ele>
        <time>2026-07-08T13:46:30.000Z</time>
      </trkpt>
      <trkpt lat="45.79319" lon="1.90847">
        <ele>711.7</ele>
        <time>2026-07-08T13:46:31.000Z</time>
      </trkpt>
      <trkpt lat="45.79319" lon="1.9085">
        <ele>711.9</ele>
        <time>2026-07-08T13:46:32.000Z</time>
      </trkpt>
      <trkpt lat="45.79318" lon="1.90852">
        <ele>711.7</ele>
        <time>2026-07-08T13:46:33.000Z</time>
      </trkpt>
      <trkpt lat="45.79318" lon="1.90854">
        <ele>711.7</ele>
        <time>2026-07-08T13:46:34.000Z</time>
      </trkpt>
      <trkpt lat="45.79318" lon="1.90856">
        <ele>711.5</ele>
        <time>2026-07-08T13:46:35.000Z</time>
      </trkpt>
      <trkpt lat="45.79317" lon="1.90857">
        <ele>711.1</ele>
        <time>2026-07-08T13:46:36.000Z</time>
      </trkpt>
      <trkpt lat="45.79316" lon="1.90858">
        <ele>710.7</ele>
        <time>2026-07-08T13:46:37.000Z</time>
      </trkpt>
      <trkpt lat="45.79315" lon="1.90857">
        <ele>710.8</ele>
        <time>2026-07-08T13:46:38.000Z</time>
      </trkpt>
      <trkpt lat="45.79314" lon="1.90857">
        <ele>710.5</ele>
        <time>2026-07-08T13:46:39.000Z</time>
      </trkpt>
      <trkpt lat="45.79315" lon="1.9086">
        <ele>710.6</ele>
        <time>2026-07-08T13:46:40.000Z</time>
      </trkpt>
      <trkpt lat="45.79315" lon="1.9086">
        <ele>710.3</ele>
        <time>2026-07-08T13:46:41.000Z</time>
      </trkpt>
      <trkpt lat="45.79316" lon="1.90862">
        <ele>710.7</ele>
        <time>2026-07-08T13:46:42.000Z</time>
      </trkpt>
      <trkpt lat="45.79317" lon="1.90862">
        <ele>710.5</ele>
        <time>2026-07-08T13:46:43.000Z</time>
      </trkpt>
      <trkpt lat="45.79317" lon="1.90862">
        <ele>710.5</ele>
        <time>2026-07-08T13:46:44.000Z</time>
      </trkpt>
      <trkpt lat="45.79317" lon="1.90862">
        <ele>710.7</ele>
        <time>2026-07-08T13:46:45.000Z</time>
      </trkpt>
      <trkpt lat="45.79317" lon="1.90861">
        <ele>710.6</ele>
        <time>2026-07-08T13:46:46.000Z</time>
      </trkpt>
      <trkpt lat="45.79317" lon="1.90861">
        <ele>710.6</ele>
        <time>2026-07-08T13:46:47.000Z</time>
      </trkpt>
      <trkpt lat="45.79317" lon="1.90861">
        <ele>710.6</ele>
        <time>2026-07-08T13:46:48.000Z</time>
      </trkpt>
      <trkpt lat="45.79317" lon="1.90861">
        <ele>710.6</ele>
        <time>2026-07-08T13:46:49.000Z</time>
      </trkpt>
      <trkpt lat="45.79317" lon="1.90861">
        <ele>710.6</ele>
        <time>2026-07-08T13:46:50.000Z</time>
      </trkpt>
      <trkpt lat="45.79317" lon="1.90861">
        <ele>710.6</ele>
        <time>2026-07-08T13:46:51.000Z</time>
      </trkpt>
      <trkpt lat="45.79317" lon="1.90861">
        <ele>710.6</ele>
        <time>2026-07-08T13:46:52.000Z</time>
      </trkpt>
      <trkpt lat="45.79317" lon="1.90861">
        <ele>710.6</ele>
        <time>2026-07-08T13:46:53.000Z</time>
      </trkpt>
      <trkpt lat="45.79317" lon="1.90861">
        <ele>710.6</ele>
        <time>2026-07-08T13:46:54.000Z</time>
      </trkpt>
      <trkpt lat="45.79317" lon="1.90861">
        <ele>711.1</ele>
        <time>2026-07-08T13:46:55.000Z</time>
      </trkpt>
      <trkpt lat="45.79317" lon="1.90862">
        <ele>711.2</ele>
        <time>2026-07-08T13:46:56.000Z</time>
      </trkpt>
      <trkpt lat="45.79317" lon="1.90862">
        <ele>711.4</ele>
        <time>2026-07-08T13:46:57.000Z</time>
      </trkpt>
      <trkpt lat="45.79317" lon="1.90861">
        <ele>711.4</ele>
        <time>2026-07-08T13:46:58.000Z</time>
      </trkpt>
      <trkpt lat="45.79317" lon="1.90861">
        <ele>711.3</ele>
        <time>2026-07-08T13:46:59.000Z</time>
      </trkpt>
      <trkpt lat="45.79317" lon="1.90861">
        <ele>711.3</ele>
        <time>2026-07-08T13:47:00.000Z</time>
      </trkpt>
      <trkpt lat="45.79317" lon="1.90861">
        <ele>711.3</ele>
        <time>2026-07-08T13:47:01.000Z</time>
      </trkpt>
      <trkpt lat="45.79317" lon="1.90862">
        <ele>711.3</ele>
        <time>2026-07-08T13:47:02.000Z</time>
      </trkpt>
      <trkpt lat="45.79317" lon="1.90861">
        <ele>711.7</ele>
        <time>2026-07-08T13:47:03.000Z</time>
      </trkpt>
      <trkpt lat="45.79317" lon="1.90862">
        <ele>711.8</ele>
        <time>2026-07-08T13:47:04.000Z</time>
      </trkpt>
      <trkpt lat="45.79318" lon="1.90863">
        <ele>711.9</ele>
        <time>2026-07-08T13:47:05.000Z</time>
      </trkpt>
      <trkpt lat="45.79318" lon="1.90865">
        <ele>712.1</ele>
        <time>2026-07-08T13:47:06.000Z</time>
      </trkpt>
      <trkpt lat="45.79318" lon="1.90867">
        <ele>712.3</ele>
        <time>2026-07-08T13:47:07.000Z</time>
      </trkpt>
      <trkpt lat="45.79318" lon="1.90869">
        <ele>712.1</ele>
        <time>2026-07-08T13:47:08.000Z</time>
      </trkpt>
      <trkpt lat="45.79318" lon="1.90872">
        <ele>712.3</ele>
        <time>2026-07-08T13:47:09.000Z</time>
      </trkpt>
      <trkpt lat="45.79318" lon="1.90874">
        <ele>712.4</ele>
        <time>2026-07-08T13:47:10.000Z</time>
      </trkpt>
      <trkpt lat="45.79318" lon="1.90876">
        <ele>712.7</ele>
        <time>2026-07-08T13:47:11.000Z</time>
      </trkpt>
      <trkpt lat="45.79317" lon="1.90878">
        <ele>712.6</ele>
        <time>2026-07-08T13:47:12.000Z</time>
      </trkpt>
      <trkpt lat="45.79317" lon="1.9088">
        <ele>712.7</ele>
        <time>2026-07-08T13:47:13.000Z</time>
      </trkpt>
      <trkpt lat="45.79316" lon="1.90882">
        <ele>712.7</ele>
        <time>2026-07-08T13:47:14.000Z</time>
      </trkpt>
      <trkpt lat="45.79316" lon="1.90884">
        <ele>712.8</ele>
        <time>2026-07-08T13:47:15.000Z</time>
      </trkpt>
      <trkpt lat="45.79315" lon="1.90885">
        <ele>712.9</ele>
        <time>2026-07-08T13:47:16.000Z</time>
      </trkpt>
      <trkpt lat="45.79314" lon="1.90887">
        <ele>713</ele>
        <time>2026-07-08T13:47:17.000Z</time>
      </trkpt>
      <trkpt lat="45.79314" lon="1.90889">
        <ele>712.9</ele>
        <time>2026-07-08T13:47:18.000Z</time>
      </trkpt>
      <trkpt lat="45.79313" lon="1.90891">
        <ele>713</ele>
        <time>2026-07-08T13:47:19.000Z</time>
      </trkpt>
      <trkpt lat="45.79313" lon="1.90894">
        <ele>712.9</ele>
        <time>2026-07-08T13:47:20.000Z</time>
      </trkpt>
      <trkpt lat="45.79312" lon="1.90896">
        <ele>712.6</ele>
        <time>2026-07-08T13:47:21.000Z</time>
      </trkpt>
      <trkpt lat="45.79311" lon="1.90898">
        <ele>712.6</ele>
        <time>2026-07-08T13:47:22.000Z</time>
      </trkpt>
      <trkpt lat="45.79311" lon="1.909">
        <ele>712.7</ele>
        <time>2026-07-08T13:47:23.000Z</time>
      </trkpt>
      <trkpt lat="45.7931" lon="1.90902">
        <ele>712.4</ele>
        <time>2026-07-08T13:47:24.000Z</time>
      </trkpt>
      <trkpt lat="45.79312" lon="1.90904">
        <ele>712.2</ele>
        <time>2026-07-08T13:47:25.000Z</time>
      </trkpt>
      <trkpt lat="45.79312" lon="1.90906">
        <ele>711.9</ele>
        <time>2026-07-08T13:47:26.000Z</time>
      </trkpt>
      <trkpt lat="45.7931" lon="1.90908">
        <ele>711.9</ele>
        <time>2026-07-08T13:47:27.000Z</time>
      </trkpt>
      <trkpt lat="45.79309" lon="1.9091">
        <ele>711.9</ele>
        <time>2026-07-08T13:47:28.000Z</time>
      </trkpt>
      <trkpt lat="45.79308" lon="1.90912">
        <ele>711.7</ele>
        <time>2026-07-08T13:47:29.000Z</time>
      </trkpt>
      <trkpt lat="45.79307" lon="1.90914">
        <ele>711.8</ele>
        <time>2026-07-08T13:47:30.000Z</time>
      </trkpt>
      <trkpt lat="45.79306" lon="1.90916">
        <ele>711.6</ele>
        <time>2026-07-08T13:47:31.000Z</time>
      </trkpt>
      <trkpt lat="45.79306" lon="1.90918">
        <ele>711.3</ele>
        <time>2026-07-08T13:47:32.000Z</time>
      </trkpt>
      <trkpt lat="45.79306" lon="1.90921">
        <ele>711.4</ele>
        <time>2026-07-08T13:47:33.000Z</time>
      </trkpt>
      <trkpt lat="45.79305" lon="1.90923">
        <ele>711.2</ele>
        <time>2026-07-08T13:47:34.000Z</time>
      </trkpt>
      <trkpt lat="45.79305" lon="1.90925">
        <ele>711.1</ele>
        <time>2026-07-08T13:47:35.000Z</time>
      </trkpt>
      <trkpt lat="45.79304" lon="1.90927">
        <ele>711.1</ele>
        <time>2026-07-08T13:47:36.000Z</time>
      </trkpt>
      <trkpt lat="45.79304" lon="1.90929">
        <ele>711.4</ele>
        <time>2026-07-08T13:47:37.000Z</time>
      </trkpt>
      <trkpt lat="45.79303" lon="1.90932">
        <ele>711.6</ele>
        <time>2026-07-08T13:47:38.000Z</time>
      </trkpt>
      <trkpt lat="45.79303" lon="1.90934">
        <ele>711.7</ele>
        <time>2026-07-08T13:47:39.000Z</time>
      </trkpt>
      <trkpt lat="45.79302" lon="1.90936">
        <ele>711.7</ele>
        <time>2026-07-08T13:47:40.000Z</time>
      </trkpt>
      <trkpt lat="45.79302" lon="1.90938">
        <ele>711.9</ele>
        <time>2026-07-08T13:47:41.000Z</time>
      </trkpt>
      <trkpt lat="45.79301" lon="1.9094">
        <ele>711.7</ele>
        <time>2026-07-08T13:47:42.000Z</time>
      </trkpt>
      <trkpt lat="45.793" lon="1.90943">
        <ele>711.7</ele>
        <time>2026-07-08T13:47:43.000Z</time>
      </trkpt>
      <trkpt lat="45.793" lon="1.90945">
        <ele>711.8</ele>
        <time>2026-07-08T13:47:44.000Z</time>
      </trkpt>
      <trkpt lat="45.793" lon="1.90947">
        <ele>712</ele>
        <time>2026-07-08T13:47:45.000Z</time>
      </trkpt>
      <trkpt lat="45.79299" lon="1.90949">
        <ele>712</ele>
        <time>2026-07-08T13:47:46.000Z</time>
      </trkpt>
      <trkpt lat="45.79299" lon="1.90951">
        <ele>712</ele>
        <time>2026-07-08T13:47:47.000Z</time>
      </trkpt>
      <trkpt lat="45.79298" lon="1.90953">
        <ele>711.8</ele>
        <time>2026-07-08T13:47:48.000Z</time>
      </trkpt>
      <trkpt lat="45.79298" lon="1.90955">
        <ele>711.9</ele>
        <time>2026-07-08T13:47:49.000Z</time>
      </trkpt>
      <trkpt lat="45.79297" lon="1.90957">
        <ele>711.9</ele>
        <time>2026-07-08T13:47:50.000Z</time>
      </trkpt>
      <trkpt lat="45.79296" lon="1.90958">
        <ele>712.2</ele>
        <time>2026-07-08T13:47:51.000Z</time>
      </trkpt>
      <trkpt lat="45.79295" lon="1.9096">
        <ele>712</ele>
        <time>2026-07-08T13:47:52.000Z</time>
      </trkpt>
      <trkpt lat="45.79295" lon="1.90962">
        <ele>712.1</ele>
        <time>2026-07-08T13:47:53.000Z</time>
      </trkpt>
      <trkpt lat="45.79295" lon="1.90965">
        <ele>712</ele>
        <time>2026-07-08T13:47:54.000Z</time>
      </trkpt>
      <trkpt lat="45.79294" lon="1.90967">
        <ele>711.9</ele>
        <time>2026-07-08T13:47:55.000Z</time>
      </trkpt>
      <trkpt lat="45.79294" lon="1.90969">
        <ele>711.6</ele>
        <time>2026-07-08T13:47:56.000Z</time>
      </trkpt>
      <trkpt lat="45.79294" lon="1.90971">
        <ele>712.4</ele>
        <time>2026-07-08T13:47:57.000Z</time>
      </trkpt>
      <trkpt lat="45.79293" lon="1.90973">
        <ele>712.2</ele>
        <time>2026-07-08T13:47:58.000Z</time>
      </trkpt>
      <trkpt lat="45.79293" lon="1.90975">
        <ele>712.6</ele>
        <time>2026-07-08T13:47:59.000Z</time>
      </trkpt>
      <trkpt lat="45.79293" lon="1.90978">
        <ele>712.6</ele>
        <time>2026-07-08T13:48:00.000Z</time>
      </trkpt>
      <trkpt lat="45.79292" lon="1.9098">
        <ele>712.5</ele>
        <time>2026-07-08T13:48:01.000Z</time>
      </trkpt>
      <trkpt lat="45.79292" lon="1.90982">
        <ele>712.5</ele>
        <time>2026-07-08T13:48:02.000Z</time>
      </trkpt>
      <trkpt lat="45.79292" lon="1.90984">
        <ele>712.3</ele>
        <time>2026-07-08T13:48:03.000Z</time>
      </trkpt>
      <trkpt lat="45.79291" lon="1.90986">
        <ele>712.2</ele>
        <time>2026-07-08T13:48:04.000Z</time>
      </trkpt>
      <trkpt lat="45.79291" lon="1.90988">
        <ele>712.6</ele>
        <time>2026-07-08T13:48:05.000Z</time>
      </trkpt>
      <trkpt lat="45.79292" lon="1.90992">
        <ele>712</ele>
        <time>2026-07-08T13:48:06.000Z</time>
      </trkpt>
      <trkpt lat="45.79292" lon="1.90994">
        <ele>711.9</ele>
        <time>2026-07-08T13:48:07.000Z</time>
      </trkpt>
      <trkpt lat="45.79292" lon="1.90997">
        <ele>711</ele>
        <time>2026-07-08T13:48:08.000Z</time>
      </trkpt>
      <trkpt lat="45.79291" lon="1.90999">
        <ele>711.4</ele>
        <time>2026-07-08T13:48:09.000Z</time>
      </trkpt>
      <trkpt lat="45.79291" lon="1.91001">
        <ele>711</ele>
        <time>2026-07-08T13:48:10.000Z</time>
      </trkpt>
      <trkpt lat="45.79288" lon="1.91002">
        <ele>713.8</ele>
        <time>2026-07-08T13:48:11.000Z</time>
      </trkpt>
      <trkpt lat="45.79287" lon="1.91005">
        <ele>714.9</ele>
        <time>2026-07-08T13:48:12.000Z</time>
      </trkpt>
      <trkpt lat="45.79286" lon="1.91007">
        <ele>715.7</ele>
        <time>2026-07-08T13:48:13.000Z</time>
      </trkpt>
      <trkpt lat="45.79286" lon="1.91009">
        <ele>715.2</ele>
        <time>2026-07-08T13:48:14.000Z</time>
      </trkpt>
      <trkpt lat="45.79285" lon="1.91011">
        <ele>715</ele>
        <time>2026-07-08T13:48:15.000Z</time>
      </trkpt>
      <trkpt lat="45.79284" lon="1.91014">
        <ele>714.6</ele>
        <time>2026-07-08T13:48:16.000Z</time>
      </trkpt>
      <trkpt lat="45.79284" lon="1.91016">
        <ele>714.5</ele>
        <time>2026-07-08T13:48:17.000Z</time>
      </trkpt>
      <trkpt lat="45.79283" lon="1.91018">
        <ele>714</ele>
        <time>2026-07-08T13:48:18.000Z</time>
      </trkpt>
      <trkpt lat="45.79283" lon="1.9102">
        <ele>712.8</ele>
        <time>2026-07-08T13:48:19.000Z</time>
      </trkpt>
      <trkpt lat="45.79283" lon="1.91022">
        <ele>711.7</ele>
        <time>2026-07-08T13:48:20.000Z</time>
      </trkpt>
      <trkpt lat="45.79283" lon="1.91023">
        <ele>710.2</ele>
        <time>2026-07-08T13:48:21.000Z</time>
      </trkpt>
      <trkpt lat="45.79283" lon="1.91025">
        <ele>710.1</ele>
        <time>2026-07-08T13:48:22.000Z</time>
      </trkpt>
      <trkpt lat="45.79283" lon="1.91028">
        <ele>710.4</ele>
        <time>2026-07-08T13:48:23.000Z</time>
      </trkpt>
      <trkpt lat="45.79283" lon="1.9103">
        <ele>710.4</ele>
        <time>2026-07-08T13:48:24.000Z</time>
      </trkpt>
      <trkpt lat="45.79283" lon="1.91033">
        <ele>710.6</ele>
        <time>2026-07-08T13:48:25.000Z</time>
      </trkpt>
      <trkpt lat="45.79283" lon="1.91035">
        <ele>710.1</ele>
        <time>2026-07-08T13:48:26.000Z</time>
      </trkpt>
      <trkpt lat="45.79283" lon="1.91037">
        <ele>710</ele>
        <time>2026-07-08T13:48:27.000Z</time>
      </trkpt>
      <trkpt lat="45.79284" lon="1.9104">
        <ele>710</ele>
        <time>2026-07-08T13:48:28.000Z</time>
      </trkpt>
      <trkpt lat="45.79285" lon="1.91042">
        <ele>710.1</ele>
        <time>2026-07-08T13:48:29.000Z</time>
      </trkpt>
      <trkpt lat="45.79287" lon="1.91044">
        <ele>710</ele>
        <time>2026-07-08T13:48:30.000Z</time>
      </trkpt>
      <trkpt lat="45.79288" lon="1.91046">
        <ele>710.7</ele>
        <time>2026-07-08T13:48:31.000Z</time>
      </trkpt>
      <trkpt lat="45.7929" lon="1.91047">
        <ele>710.7</ele>
        <time>2026-07-08T13:48:32.000Z</time>
      </trkpt>
      <trkpt lat="45.79291" lon="1.91048">
        <ele>710.8</ele>
        <time>2026-07-08T13:48:33.000Z</time>
      </trkpt>
      <trkpt lat="45.79292" lon="1.91049">
        <ele>710.9</ele>
        <time>2026-07-08T13:48:34.000Z</time>
      </trkpt>
      <trkpt lat="45.79294" lon="1.9105">
        <ele>710.8</ele>
        <time>2026-07-08T13:48:35.000Z</time>
      </trkpt>
      <trkpt lat="45.79296" lon="1.91052">
        <ele>710.8</ele>
        <time>2026-07-08T13:48:36.000Z</time>
      </trkpt>
      <trkpt lat="45.79297" lon="1.91053">
        <ele>710.6</ele>
        <time>2026-07-08T13:48:37.000Z</time>
      </trkpt>
      <trkpt lat="45.79298" lon="1.91055">
        <ele>710.7</ele>
        <time>2026-07-08T13:48:38.000Z</time>
      </trkpt>
      <trkpt lat="45.793" lon="1.91056">
        <ele>711</ele>
        <time>2026-07-08T13:48:39.000Z</time>
      </trkpt>
      <trkpt lat="45.79301" lon="1.91058">
        <ele>710.8</ele>
        <time>2026-07-08T13:48:40.000Z</time>
      </trkpt>
      <trkpt lat="45.79302" lon="1.91059">
        <ele>711.2</ele>
        <time>2026-07-08T13:48:41.000Z</time>
      </trkpt>
      <trkpt lat="45.79304" lon="1.91061">
        <ele>711.3</ele>
        <time>2026-07-08T13:48:42.000Z</time>
      </trkpt>
      <trkpt lat="45.79305" lon="1.91063">
        <ele>711.2</ele>
        <time>2026-07-08T13:48:43.000Z</time>
      </trkpt>
      <trkpt lat="45.79306" lon="1.91065">
        <ele>711.6</ele>
        <time>2026-07-08T13:48:44.000Z</time>
      </trkpt>
      <trkpt lat="45.79306" lon="1.91068">
        <ele>711.7</ele>
        <time>2026-07-08T13:48:45.000Z</time>
      </trkpt>
      <trkpt lat="45.79306" lon="1.9107">
        <ele>711.6</ele>
        <time>2026-07-08T13:48:46.000Z</time>
      </trkpt>
      <trkpt lat="45.79306" lon="1.91073">
        <ele>711.7</ele>
        <time>2026-07-08T13:48:47.000Z</time>
      </trkpt>
      <trkpt lat="45.79305" lon="1.91075">
        <ele>711.8</ele>
        <time>2026-07-08T13:48:48.000Z</time>
      </trkpt>
      <trkpt lat="45.79304" lon="1.91077">
        <ele>712.3</ele>
        <time>2026-07-08T13:48:49.000Z</time>
      </trkpt>
      <trkpt lat="45.79304" lon="1.91078">
        <ele>712.1</ele>
        <time>2026-07-08T13:48:50.000Z</time>
      </trkpt>
      <trkpt lat="45.79304" lon="1.91079">
        <ele>711.9</ele>
        <time>2026-07-08T13:48:51.000Z</time>
      </trkpt>
      <trkpt lat="45.79304" lon="1.91079">
        <ele>711.9</ele>
        <time>2026-07-08T13:48:52.000Z</time>
      </trkpt>
      <trkpt lat="45.79304" lon="1.91079">
        <ele>712</ele>
        <time>2026-07-08T13:48:53.000Z</time>
      </trkpt>
      <trkpt lat="45.79305" lon="1.91079">
        <ele>712</ele>
        <time>2026-07-08T13:48:54.000Z</time>
      </trkpt>
      <trkpt lat="45.79305" lon="1.91079">
        <ele>712</ele>
        <time>2026-07-08T13:48:55.000Z</time>
      </trkpt>
      <trkpt lat="45.79305" lon="1.91078">
        <ele>712</ele>
        <time>2026-07-08T13:48:56.000Z</time>
      </trkpt>
      <trkpt lat="45.79305" lon="1.91078">
        <ele>711.9</ele>
        <time>2026-07-08T13:48:57.000Z</time>
      </trkpt>
      <trkpt lat="45.79305" lon="1.91078">
        <ele>711.9</ele>
        <time>2026-07-08T13:48:58.000Z</time>
      </trkpt>
      <trkpt lat="45.79305" lon="1.91078">
        <ele>711.9</ele>
        <time>2026-07-08T13:48:59.000Z</time>
      </trkpt>
      <trkpt lat="45.79305" lon="1.91078">
        <ele>711.9</ele>
        <time>2026-07-08T13:49:00.000Z</time>
      </trkpt>
      <trkpt lat="45.79305" lon="1.91078">
        <ele>711.9</ele>
        <time>2026-07-08T13:49:01.000Z</time>
      </trkpt>
      <trkpt lat="45.79304" lon="1.91078">
        <ele>712.2</ele>
        <time>2026-07-08T13:49:02.000Z</time>
      </trkpt>
      <trkpt lat="45.79304" lon="1.91077">
        <ele>712.3</ele>
        <time>2026-07-08T13:49:03.000Z</time>
      </trkpt>
      <trkpt lat="45.79304" lon="1.91078">
        <ele>712.3</ele>
        <time>2026-07-08T13:49:04.000Z</time>
      </trkpt>
      <trkpt lat="45.79304" lon="1.91078">
        <ele>712.5</ele>
        <time>2026-07-08T13:49:05.000Z</time>
      </trkpt>
      <trkpt lat="45.79304" lon="1.91078">
        <ele>712.3</ele>
        <time>2026-07-08T13:49:06.000Z</time>
      </trkpt>
      <trkpt lat="45.79304" lon="1.91078">
        <ele>712.3</ele>
        <time>2026-07-08T13:49:07.000Z</time>
      </trkpt>
      <trkpt lat="45.79304" lon="1.91078">
        <ele>712.2</ele>
        <time>2026-07-08T13:49:08.000Z</time>
      </trkpt>
      <trkpt lat="45.79305" lon="1.91078">
        <ele>712.2</ele>
        <time>2026-07-08T13:49:09.000Z</time>
      </trkpt>
      <trkpt lat="45.79305" lon="1.91078">
        <ele>712.2</ele>
        <time>2026-07-08T13:49:10.000Z</time>
      </trkpt>
      <trkpt lat="45.79305" lon="1.91078">
        <ele>712.2</ele>
        <time>2026-07-08T13:49:11.000Z</time>
      </trkpt>
      <trkpt lat="45.79305" lon="1.91077">
        <ele>712.1</ele>
        <time>2026-07-08T13:49:12.000Z</time>
      </trkpt>
      <trkpt lat="45.79305" lon="1.91077">
        <ele>712.1</ele>
        <time>2026-07-08T13:49:13.000Z</time>
      </trkpt>
      <trkpt lat="45.79305" lon="1.91077">
        <ele>712.1</ele>
        <time>2026-07-08T13:49:14.000Z</time>
      </trkpt>
      <trkpt lat="45.79305" lon="1.91077">
        <ele>712.1</ele>
        <time>2026-07-08T13:49:15.000Z</time>
      </trkpt>
      <trkpt lat="45.79305" lon="1.91077">
        <ele>712.1</ele>
        <time>2026-07-08T13:49:16.000Z</time>
      </trkpt>
      <trkpt lat="45.79305" lon="1.91077">
        <ele>712.1</ele>
        <time>2026-07-08T13:49:17.000Z</time>
      </trkpt>
      <trkpt lat="45.79305" lon="1.91077">
        <ele>712.1</ele>
        <time>2026-07-08T13:49:18.000Z</time>
      </trkpt>
      <trkpt lat="45.79305" lon="1.91077">
        <ele>711.9</ele>
        <time>2026-07-08T13:49:19.000Z</time>
      </trkpt>
      <trkpt lat="45.79306" lon="1.91076">
        <ele>712</ele>
        <time>2026-07-08T13:49:20.000Z</time>
      </trkpt>
      <trkpt lat="45.79307" lon="1.91075">
        <ele>711.8</ele>
        <time>2026-07-08T13:49:21.000Z</time>
      </trkpt>
      <trkpt lat="45.79308" lon="1.91074">
        <ele>711.9</ele>
        <time>2026-07-08T13:49:22.000Z</time>
      </trkpt>
      <trkpt lat="45.79308" lon="1.91072">
        <ele>712</ele>
        <time>2026-07-08T13:49:23.000Z</time>
      </trkpt>
      <trkpt lat="45.79308" lon="1.9107">
        <ele>712.1</ele>
        <time>2026-07-08T13:49:24.000Z</time>
      </trkpt>
      <trkpt lat="45.79308" lon="1.91067">
        <ele>712.1</ele>
        <time>2026-07-08T13:49:25.000Z</time>
      </trkpt>
      <trkpt lat="45.79308" lon="1.91065">
        <ele>712</ele>
        <time>2026-07-08T13:49:26.000Z</time>
      </trkpt>
      <trkpt lat="45.79307" lon="1.91063">
        <ele>712.2</ele>
        <time>2026-07-08T13:49:27.000Z</time>
      </trkpt>
      <trkpt lat="45.79306" lon="1.91061">
        <ele>712.5</ele>
        <time>2026-07-08T13:49:28.000Z</time>
      </trkpt>
      <trkpt lat="45.79304" lon="1.9106">
        <ele>712.6</ele>
        <time>2026-07-08T13:49:29.000Z</time>
      </trkpt>
      <trkpt lat="45.79303" lon="1.91058">
        <ele>712.6</ele>
        <time>2026-07-08T13:49:30.000Z</time>
      </trkpt>
      <trkpt lat="45.79301" lon="1.91057">
        <ele>712.6</ele>
        <time>2026-07-08T13:49:31.000Z</time>
      </trkpt>
      <trkpt lat="45.793" lon="1.91056">
        <ele>712.7</ele>
        <time>2026-07-08T13:49:32.000Z</time>
      </trkpt>
      <trkpt lat="45.79298" lon="1.91055">
        <ele>712</ele>
        <time>2026-07-08T13:49:33.000Z</time>
      </trkpt>
      <trkpt lat="45.79297" lon="1.91054">
        <ele>712.3</ele>
        <time>2026-07-08T13:49:34.000Z</time>
      </trkpt>
      <trkpt lat="45.79295" lon="1.91053">
        <ele>712.8</ele>
        <time>2026-07-08T13:49:35.000Z</time>
      </trkpt>
      <trkpt lat="45.79294" lon="1.91052">
        <ele>712.9</ele>
        <time>2026-07-08T13:49:36.000Z</time>
      </trkpt>
      <trkpt lat="45.79293" lon="1.91051">
        <ele>713.3</ele>
        <time>2026-07-08T13:49:37.000Z</time>
      </trkpt>
      <trkpt lat="45.79292" lon="1.91049">
        <ele>713.2</ele>
        <time>2026-07-08T13:49:38.000Z</time>
      </trkpt>
      <trkpt lat="45.79291" lon="1.91048">
        <ele>713.2</ele>
        <time>2026-07-08T13:49:39.000Z</time>
      </trkpt>
      <trkpt lat="45.79289" lon="1.91046">
        <ele>713.3</ele>
        <time>2026-07-08T13:49:40.000Z</time>
      </trkpt>
      <trkpt lat="45.79288" lon="1.91045">
        <ele>713.5</ele>
        <time>2026-07-08T13:49:41.000Z</time>
      </trkpt>
      <trkpt lat="45.79287" lon="1.91044">
        <ele>713.3</ele>
        <time>2026-07-08T13:49:42.000Z</time>
      </trkpt>
      <trkpt lat="45.79286" lon="1.91042">
        <ele>713.6</ele>
        <time>2026-07-08T13:49:43.000Z</time>
      </trkpt>
      <trkpt lat="45.79285" lon="1.91042">
        <ele>713.4</ele>
        <time>2026-07-08T13:49:44.000Z</time>
      </trkpt>
      <trkpt lat="45.79284" lon="1.91042">
        <ele>713.5</ele>
        <time>2026-07-08T13:49:45.000Z</time>
      </trkpt>
      <trkpt lat="45.79283" lon="1.91042">
        <ele>713.3</ele>
        <time>2026-07-08T13:49:46.000Z</time>
      </trkpt>
      <trkpt lat="45.79283" lon="1.91042">
        <ele>713.3</ele>
        <time>2026-07-08T13:49:47.000Z</time>
      </trkpt>
      <trkpt lat="45.79283" lon="1.91042">
        <ele>713.2</ele>
        <time>2026-07-08T13:49:48.000Z</time>
      </trkpt>
      <trkpt lat="45.79284" lon="1.91042">
        <ele>713.2</ele>
        <time>2026-07-08T13:49:49.000Z</time>
      </trkpt>
      <trkpt lat="45.79284" lon="1.91042">
        <ele>713.2</ele>
        <time>2026-07-08T13:49:50.000Z</time>
      </trkpt>
      <trkpt lat="45.79284" lon="1.91042">
        <ele>713.2</ele>
        <time>2026-07-08T13:49:51.000Z</time>
      </trkpt>
      <trkpt lat="45.79284" lon="1.91042">
        <ele>713.1</ele>
        <time>2026-07-08T13:49:52.000Z</time>
      </trkpt>
      <trkpt lat="45.79284" lon="1.91042">
        <ele>713.1</ele>
        <time>2026-07-08T13:49:53.000Z</time>
      </trkpt>
      <trkpt lat="45.79284" lon="1.91042">
        <ele>713.4</ele>
        <time>2026-07-08T13:49:54.000Z</time>
      </trkpt>
      <trkpt lat="45.79284" lon="1.91042">
        <ele>713.7</ele>
        <time>2026-07-08T13:49:55.000Z</time>
      </trkpt>
      <trkpt lat="45.79284" lon="1.91042">
        <ele>713.7</ele>
        <time>2026-07-08T13:49:56.000Z</time>
      </trkpt>
      <trkpt lat="45.79284" lon="1.91042">
        <ele>713.7</ele>
        <time>2026-07-08T13:49:57.000Z</time>
      </trkpt>
      <trkpt lat="45.79284" lon="1.91042">
        <ele>713.7</ele>
        <time>2026-07-08T13:49:58.000Z</time>
      </trkpt>
      <trkpt lat="45.79284" lon="1.91042">
        <ele>713.7</ele>
        <time>2026-07-08T13:49:59.000Z</time>
      </trkpt>
      <trkpt lat="45.79284" lon="1.91042">
        <ele>713.7</ele>
        <time>2026-07-08T13:50:00.000Z</time>
      </trkpt>
      <trkpt lat="45.79284" lon="1.91042">
        <ele>713.7</ele>
        <time>2026-07-08T13:50:01.000Z</time>
      </trkpt>
      <trkpt lat="45.79284" lon="1.91042">
        <ele>713.7</ele>
        <time>2026-07-08T13:50:02.000Z</time>
      </trkpt>
      <trkpt lat="45.79284" lon="1.91042">
        <ele>713.7</ele>
        <time>2026-07-08T13:50:03.000Z</time>
      </trkpt>
      <trkpt lat="45.79283" lon="1.91042">
        <ele>713.7</ele>
        <time>2026-07-08T13:50:04.000Z</time>
      </trkpt>
      <trkpt lat="45.79282" lon="1.91043">
        <ele>713.9</ele>
        <time>2026-07-08T13:50:05.000Z</time>
      </trkpt>
      <trkpt lat="45.79281" lon="1.91044">
        <ele>713.8</ele>
        <time>2026-07-08T13:50:06.000Z</time>
      </trkpt>
      <trkpt lat="45.79279" lon="1.91045">
        <ele>713.9</ele>
        <time>2026-07-08T13:50:07.000Z</time>
      </trkpt>
      <trkpt lat="45.79278" lon="1.91045">
        <ele>713.9</ele>
        <time>2026-07-08T13:50:08.000Z</time>
      </trkpt>
      <trkpt lat="45.79276" lon="1.91046">
        <ele>713.9</ele>
        <time>2026-07-08T13:50:09.000Z</time>
      </trkpt>
      <trkpt lat="45.79275" lon="1.91046">
        <ele>714</ele>
        <time>2026-07-08T13:50:10.000Z</time>
      </trkpt>
      <trkpt lat="45.79273" lon="1.91047">
        <ele>714.1</ele>
        <time>2026-07-08T13:50:11.000Z</time>
      </trkpt>
      <trkpt lat="45.79272" lon="1.91048">
        <ele>714</ele>
        <time>2026-07-08T13:50:12.000Z</time>
      </trkpt>
      <trkpt lat="45.79271" lon="1.91048">
        <ele>714</ele>
        <time>2026-07-08T13:50:13.000Z</time>
      </trkpt>
      <trkpt lat="45.79271" lon="1.91048">
        <ele>713.7</ele>
        <time>2026-07-08T13:50:14.000Z</time>
      </trkpt>
      <trkpt lat="45.7927" lon="1.91048">
        <ele>713.6</ele>
        <time>2026-07-08T13:50:15.000Z</time>
      </trkpt>
      <trkpt lat="45.79269" lon="1.91049">
        <ele>713.8</ele>
        <time>2026-07-08T13:50:16.000Z</time>
      </trkpt>
      <trkpt lat="45.79267" lon="1.9105">
        <ele>713.8</ele>
        <time>2026-07-08T13:50:17.000Z</time>
      </trkpt>
      <trkpt lat="45.79266" lon="1.91051">
        <ele>713.9</ele>
        <time>2026-07-08T13:50:18.000Z</time>
      </trkpt>
      <trkpt lat="45.79265" lon="1.91052">
        <ele>714.2</ele>
        <time>2026-07-08T13:50:19.000Z</time>
      </trkpt>
      <trkpt lat="45.79263" lon="1.91053">
        <ele>714</ele>
        <time>2026-07-08T13:50:20.000Z</time>
      </trkpt>
      <trkpt lat="45.79262" lon="1.91054">
        <ele>714</ele>
        <time>2026-07-08T13:50:21.000Z</time>
      </trkpt>
      <trkpt lat="45.7926" lon="1.91054">
        <ele>713.7</ele>
        <time>2026-07-08T13:50:22.000Z</time>
      </trkpt>
      <trkpt lat="45.79259" lon="1.91056">
        <ele>713.8</ele>
        <time>2026-07-08T13:50:23.000Z</time>
      </trkpt>
      <trkpt lat="45.79258" lon="1.91057">
        <ele>713.9</ele>
        <time>2026-07-08T13:50:24.000Z</time>
      </trkpt>
      <trkpt lat="45.79257" lon="1.91059">
        <ele>713.8</ele>
        <time>2026-07-08T13:50:25.000Z</time>
      </trkpt>
      <trkpt lat="45.79255" lon="1.91059">
        <ele>713.6</ele>
        <time>2026-07-08T13:50:26.000Z</time>
      </trkpt>
      <trkpt lat="45.79254" lon="1.91061">
        <ele>713.7</ele>
        <time>2026-07-08T13:50:27.000Z</time>
      </trkpt>
      <trkpt lat="45.79253" lon="1.91063">
        <ele>713.9</ele>
        <time>2026-07-08T13:50:28.000Z</time>
      </trkpt>
      <trkpt lat="45.79252" lon="1.91065">
        <ele>714</ele>
        <time>2026-07-08T13:50:29.000Z</time>
      </trkpt>
      <trkpt lat="45.79251" lon="1.91066">
        <ele>714.2</ele>
        <time>2026-07-08T13:50:30.000Z</time>
      </trkpt>
      <trkpt lat="45.79249" lon="1.91068">
        <ele>714.5</ele>
        <time>2026-07-08T13:50:31.000Z</time>
      </trkpt>
      <trkpt lat="45.79248" lon="1.91069">
        <ele>714.6</ele>
        <time>2026-07-08T13:50:32.000Z</time>
      </trkpt>
      <trkpt lat="45.79247" lon="1.91071">
        <ele>714.4</ele>
        <time>2026-07-08T13:50:33.000Z</time>
      </trkpt>
      <trkpt lat="45.79246" lon="1.91072">
        <ele>714.3</ele>
        <time>2026-07-08T13:50:34.000Z</time>
      </trkpt>
      <trkpt lat="45.79244" lon="1.91073">
        <ele>714.5</ele>
        <time>2026-07-08T13:50:35.000Z</time>
      </trkpt>
      <trkpt lat="45.79243" lon="1.91075">
        <ele>714.6</ele>
        <time>2026-07-08T13:50:36.000Z</time>
      </trkpt>
      <trkpt lat="45.79242" lon="1.91076">
        <ele>714.6</ele>
        <time>2026-07-08T13:50:37.000Z</time>
      </trkpt>
      <trkpt lat="45.79241" lon="1.91078">
        <ele>714.5</ele>
        <time>2026-07-08T13:50:38.000Z</time>
      </trkpt>
      <trkpt lat="45.79239" lon="1.91079">
        <ele>714.5</ele>
        <time>2026-07-08T13:50:39.000Z</time>
      </trkpt>
      <trkpt lat="45.79238" lon="1.9108">
        <ele>714.6</ele>
        <time>2026-07-08T13:50:40.000Z</time>
      </trkpt>
      <trkpt lat="45.79237" lon="1.91081">
        <ele>714.7</ele>
        <time>2026-07-08T13:50:41.000Z</time>
      </trkpt>
      <trkpt lat="45.79236" lon="1.91083">
        <ele>714.7</ele>
        <time>2026-07-08T13:50:42.000Z</time>
      </trkpt>
      <trkpt lat="45.79235" lon="1.91084">
        <ele>714.6</ele>
        <time>2026-07-08T13:50:43.000Z</time>
      </trkpt>
      <trkpt lat="45.79234" lon="1.91086">
        <ele>714.6</ele>
        <time>2026-07-08T13:50:44.000Z</time>
      </trkpt>
      <trkpt lat="45.79233" lon="1.91087">
        <ele>714.9</ele>
        <time>2026-07-08T13:50:45.000Z</time>
      </trkpt>
      <trkpt lat="45.79231" lon="1.91087">
        <ele>714.6</ele>
        <time>2026-07-08T13:50:46.000Z</time>
      </trkpt>
      <trkpt lat="45.7923" lon="1.91088">
        <ele>714.3</ele>
        <time>2026-07-08T13:50:47.000Z</time>
      </trkpt>
      <trkpt lat="45.79228" lon="1.91088">
        <ele>714.3</ele>
        <time>2026-07-08T13:50:48.000Z</time>
      </trkpt>
      <trkpt lat="45.79226" lon="1.91087">
        <ele>714.3</ele>
        <time>2026-07-08T13:50:49.000Z</time>
      </trkpt>
      <trkpt lat="45.79226" lon="1.91087">
        <ele>714.1</ele>
        <time>2026-07-08T13:50:50.000Z</time>
      </trkpt>
      <trkpt lat="45.79225" lon="1.91087">
        <ele>714.1</ele>
        <time>2026-07-08T13:50:51.000Z</time>
      </trkpt>
      <trkpt lat="45.79223" lon="1.91088">
        <ele>714.8</ele>
        <time>2026-07-08T13:50:52.000Z</time>
      </trkpt>
      <trkpt lat="45.79222" lon="1.91089">
        <ele>715.2</ele>
        <time>2026-07-08T13:50:53.000Z</time>
      </trkpt>
      <trkpt lat="45.7922" lon="1.91091">
        <ele>715.6</ele>
        <time>2026-07-08T13:50:54.000Z</time>
      </trkpt>
      <trkpt lat="45.79219" lon="1.91093">
        <ele>716</ele>
        <time>2026-07-08T13:50:55.000Z</time>
      </trkpt>
      <trkpt lat="45.79218" lon="1.91094">
        <ele>716.5</ele>
        <time>2026-07-08T13:50:56.000Z</time>
      </trkpt>
      <trkpt lat="45.79217" lon="1.91095">
        <ele>716.3</ele>
        <time>2026-07-08T13:50:57.000Z</time>
      </trkpt>
      <trkpt lat="45.79216" lon="1.91096">
        <ele>716</ele>
        <time>2026-07-08T13:50:58.000Z</time>
      </trkpt>
      <trkpt lat="45.79215" lon="1.91097">
        <ele>715.7</ele>
        <time>2026-07-08T13:50:59.000Z</time>
      </trkpt>
      <trkpt lat="45.79213" lon="1.91098">
        <ele>715.9</ele>
        <time>2026-07-08T13:51:00.000Z</time>
      </trkpt>
      <trkpt lat="45.79212" lon="1.91099">
        <ele>716.1</ele>
        <time>2026-07-08T13:51:01.000Z</time>
      </trkpt>
      <trkpt lat="45.79211" lon="1.911">
        <ele>716.4</ele>
        <time>2026-07-08T13:51:02.000Z</time>
      </trkpt>
      <trkpt lat="45.79209" lon="1.91101">
        <ele>716.4</ele>
        <time>2026-07-08T13:51:03.000Z</time>
      </trkpt>
      <trkpt lat="45.79208" lon="1.91102">
        <ele>716.7</ele>
        <time>2026-07-08T13:51:04.000Z</time>
      </trkpt>
      <trkpt lat="45.79207" lon="1.91103">
        <ele>717</ele>
        <time>2026-07-08T13:51:05.000Z</time>
      </trkpt>
      <trkpt lat="45.79206" lon="1.91104">
        <ele>717.2</ele>
        <time>2026-07-08T13:51:06.000Z</time>
      </trkpt>
      <trkpt lat="45.79205" lon="1.91105">
        <ele>717.4</ele>
        <time>2026-07-08T13:51:07.000Z</time>
      </trkpt>
      <trkpt lat="45.79203" lon="1.91107">
        <ele>717.2</ele>
        <time>2026-07-08T13:51:08.000Z</time>
      </trkpt>
      <trkpt lat="45.79202" lon="1.91108">
        <ele>717.1</ele>
        <time>2026-07-08T13:51:09.000Z</time>
      </trkpt>
      <trkpt lat="45.79201" lon="1.9111">
        <ele>717.1</ele>
        <time>2026-07-08T13:51:10.000Z</time>
      </trkpt>
      <trkpt lat="45.792" lon="1.91111">
        <ele>717.1</ele>
        <time>2026-07-08T13:51:11.000Z</time>
      </trkpt>
      <trkpt lat="45.79198" lon="1.91112">
        <ele>716.9</ele>
        <time>2026-07-08T13:51:12.000Z</time>
      </trkpt>
      <trkpt lat="45.79197" lon="1.91113">
        <ele>717.1</ele>
        <time>2026-07-08T13:51:13.000Z</time>
      </trkpt>
      <trkpt lat="45.79196" lon="1.91114">
        <ele>717</ele>
        <time>2026-07-08T13:51:14.000Z</time>
      </trkpt>
      <trkpt lat="45.79195" lon="1.91116">
        <ele>716.9</ele>
        <time>2026-07-08T13:51:15.000Z</time>
      </trkpt>
      <trkpt lat="45.79193" lon="1.91117">
        <ele>717.1</ele>
        <time>2026-07-08T13:51:16.000Z</time>
      </trkpt>
      <trkpt lat="45.79192" lon="1.91118">
        <ele>717.1</ele>
        <time>2026-07-08T13:51:17.000Z</time>
      </trkpt>
      <trkpt lat="45.7919" lon="1.91119">
        <ele>717.3</ele>
        <time>2026-07-08T13:51:18.000Z</time>
      </trkpt>
      <trkpt lat="45.79189" lon="1.91121">
        <ele>717</ele>
        <time>2026-07-08T13:51:19.000Z</time>
      </trkpt>
      <trkpt lat="45.79188" lon="1.91122">
        <ele>716.8</ele>
        <time>2026-07-08T13:51:20.000Z</time>
      </trkpt>
      <trkpt lat="45.79187" lon="1.91124">
        <ele>716.6</ele>
        <time>2026-07-08T13:51:21.000Z</time>
      </trkpt>
      <trkpt lat="45.79187" lon="1.91128">
        <ele>716.7</ele>
        <time>2026-07-08T13:51:22.000Z</time>
      </trkpt>
      <trkpt lat="45.79185" lon="1.91127">
        <ele>716.1</ele>
        <time>2026-07-08T13:51:23.000Z</time>
      </trkpt>
      <trkpt lat="45.79184" lon="1.91128">
        <ele>716.3</ele>
        <time>2026-07-08T13:51:24.000Z</time>
      </trkpt>
      <trkpt lat="45.79183" lon="1.9113">
        <ele>716.3</ele>
        <time>2026-07-08T13:51:25.000Z</time>
      </trkpt>
      <trkpt lat="45.79181" lon="1.91132">
        <ele>716.3</ele>
        <time>2026-07-08T13:51:26.000Z</time>
      </trkpt>
      <trkpt lat="45.7918" lon="1.91133">
        <ele>716.3</ele>
        <time>2026-07-08T13:51:27.000Z</time>
      </trkpt>
      <trkpt lat="45.79179" lon="1.91134">
        <ele>716.3</ele>
        <time>2026-07-08T13:51:28.000Z</time>
      </trkpt>
      <trkpt lat="45.79178" lon="1.91136">
        <ele>716</ele>
        <time>2026-07-08T13:51:29.000Z</time>
      </trkpt>
      <trkpt lat="45.79176" lon="1.91138">
        <ele>716</ele>
        <time>2026-07-08T13:51:30.000Z</time>
      </trkpt>
      <trkpt lat="45.79175" lon="1.91139">
        <ele>716.5</ele>
        <time>2026-07-08T13:51:31.000Z</time>
      </trkpt>
      <trkpt lat="45.79174" lon="1.9114">
        <ele>716.4</ele>
        <time>2026-07-08T13:51:32.000Z</time>
      </trkpt>
      <trkpt lat="45.79174" lon="1.9114">
        <ele>716.2</ele>
        <time>2026-07-08T13:51:33.000Z</time>
      </trkpt>
      <trkpt lat="45.79174" lon="1.9114">
        <ele>716.7</ele>
        <time>2026-07-08T13:51:34.000Z</time>
      </trkpt>
      <trkpt lat="45.79174" lon="1.9114">
        <ele>716.7</ele>
        <time>2026-07-08T13:51:35.000Z</time>
      </trkpt>
      <trkpt lat="45.79174" lon="1.9114">
        <ele>716.7</ele>
        <time>2026-07-08T13:51:36.000Z</time>
      </trkpt>
      <trkpt lat="45.79174" lon="1.9114">
        <ele>716.2</ele>
        <time>2026-07-08T13:51:37.000Z</time>
      </trkpt>
      <trkpt lat="45.79173" lon="1.91141">
        <ele>716.3</ele>
        <time>2026-07-08T13:51:38.000Z</time>
      </trkpt>
      <trkpt lat="45.79172" lon="1.91142">
        <ele>716.2</ele>
        <time>2026-07-08T13:51:39.000Z</time>
      </trkpt>
      <trkpt lat="45.7917" lon="1.91143">
        <ele>716.4</ele>
        <time>2026-07-08T13:51:40.000Z</time>
      </trkpt>
      <trkpt lat="45.7917" lon="1.91143">
        <ele>716.6</ele>
        <time>2026-07-08T13:51:41.000Z</time>
      </trkpt>
      <trkpt lat="45.79169" lon="1.91143">
        <ele>716.8</ele>
        <time>2026-07-08T13:51:42.000Z</time>
      </trkpt>
      <trkpt lat="45.79169" lon="1.91143">
        <ele>717.4</ele>
        <time>2026-07-08T13:51:43.000Z</time>
      </trkpt>
      <trkpt lat="45.79168" lon="1.91144">
        <ele>717.4</ele>
        <time>2026-07-08T13:51:44.000Z</time>
      </trkpt>
      <trkpt lat="45.79167" lon="1.91146">
        <ele>717.6</ele>
        <time>2026-07-08T13:51:45.000Z</time>
      </trkpt>
      <trkpt lat="45.79166" lon="1.91147">
        <ele>717.4</ele>
        <time>2026-07-08T13:51:46.000Z</time>
      </trkpt>
      <trkpt lat="45.79164" lon="1.91149">
        <ele>717.8</ele>
        <time>2026-07-08T13:51:47.000Z</time>
      </trkpt>
      <trkpt lat="45.79163" lon="1.91151">
        <ele>717.6</ele>
        <time>2026-07-08T13:51:48.000Z</time>
      </trkpt>
      <trkpt lat="45.79163" lon="1.91153">
        <ele>717.6</ele>
        <time>2026-07-08T13:51:49.000Z</time>
      </trkpt>
      <trkpt lat="45.79163" lon="1.91154">
        <ele>717.3</ele>
        <time>2026-07-08T13:51:50.000Z</time>
      </trkpt>
      <trkpt lat="45.79162" lon="1.91156">
        <ele>717.4</ele>
        <time>2026-07-08T13:51:51.000Z</time>
      </trkpt>
      <trkpt lat="45.7916" lon="1.91158">
        <ele>717.7</ele>
        <time>2026-07-08T13:51:52.000Z</time>
      </trkpt>
      <trkpt lat="45.79159" lon="1.9116">
        <ele>717.7</ele>
        <time>2026-07-08T13:51:53.000Z</time>
      </trkpt>
      <trkpt lat="45.79158" lon="1.91161">
        <ele>717.6</ele>
        <time>2026-07-08T13:51:54.000Z</time>
      </trkpt>
      <trkpt lat="45.79157" lon="1.91163">
        <ele>717.5</ele>
        <time>2026-07-08T13:51:55.000Z</time>
      </trkpt>
      <trkpt lat="45.79156" lon="1.91165">
        <ele>717.4</ele>
        <time>2026-07-08T13:51:56.000Z</time>
      </trkpt>
      <trkpt lat="45.79155" lon="1.91167">
        <ele>717.4</ele>
        <time>2026-07-08T13:51:57.000Z</time>
      </trkpt>
      <trkpt lat="45.79154" lon="1.91168">
        <ele>717.3</ele>
        <time>2026-07-08T13:51:58.000Z</time>
      </trkpt>
      <trkpt lat="45.79153" lon="1.9117">
        <ele>717.2</ele>
        <time>2026-07-08T13:51:59.000Z</time>
      </trkpt>
      <trkpt lat="45.79152" lon="1.91172">
        <ele>717.2</ele>
        <time>2026-07-08T13:52:00.000Z</time>
      </trkpt>
      <trkpt lat="45.79151" lon="1.91173">
        <ele>717.7</ele>
        <time>2026-07-08T13:52:01.000Z</time>
      </trkpt>
      <trkpt lat="45.7915" lon="1.91175">
        <ele>717.7</ele>
        <time>2026-07-08T13:52:02.000Z</time>
      </trkpt>
      <trkpt lat="45.79149" lon="1.91176">
        <ele>717.9</ele>
        <time>2026-07-08T13:52:03.000Z</time>
      </trkpt>
      <trkpt lat="45.79147" lon="1.91177">
        <ele>718</ele>
        <time>2026-07-08T13:52:04.000Z</time>
      </trkpt>
      <trkpt lat="45.79146" lon="1.91179">
        <ele>718.3</ele>
        <time>2026-07-08T13:52:05.000Z</time>
      </trkpt>
      <trkpt lat="45.79145" lon="1.9118">
        <ele>718.6</ele>
        <time>2026-07-08T13:52:06.000Z</time>
      </trkpt>
      <trkpt lat="45.79144" lon="1.91182">
        <ele>718.3</ele>
        <time>2026-07-08T13:52:07.000Z</time>
      </trkpt>
      <trkpt lat="45.79143" lon="1.91184">
        <ele>718.2</ele>
        <time>2026-07-08T13:52:08.000Z</time>
      </trkpt>
      <trkpt lat="45.79142" lon="1.91186">
        <ele>718.5</ele>
        <time>2026-07-08T13:52:09.000Z</time>
      </trkpt>
      <trkpt lat="45.79141" lon="1.91188">
        <ele>718.9</ele>
        <time>2026-07-08T13:52:10.000Z</time>
      </trkpt>
      <trkpt lat="45.7914" lon="1.91189">
        <ele>719</ele>
        <time>2026-07-08T13:52:11.000Z</time>
      </trkpt>
      <trkpt lat="45.79138" lon="1.91191">
        <ele>719.3</ele>
        <time>2026-07-08T13:52:12.000Z</time>
      </trkpt>
      <trkpt lat="45.79137" lon="1.91193">
        <ele>719.7</ele>
        <time>2026-07-08T13:52:13.000Z</time>
      </trkpt>
      <trkpt lat="45.79136" lon="1.91194">
        <ele>720.2</ele>
        <time>2026-07-08T13:52:14.000Z</time>
      </trkpt>
      <trkpt lat="45.79135" lon="1.91196">
        <ele>719.8</ele>
        <time>2026-07-08T13:52:15.000Z</time>
      </trkpt>
      <trkpt lat="45.79134" lon="1.91197">
        <ele>719.8</ele>
        <time>2026-07-08T13:52:16.000Z</time>
      </trkpt>
      <trkpt lat="45.79132" lon="1.91199">
        <ele>720.1</ele>
        <time>2026-07-08T13:52:17.000Z</time>
      </trkpt>
      <trkpt lat="45.79131" lon="1.912">
        <ele>720.5</ele>
        <time>2026-07-08T13:52:18.000Z</time>
      </trkpt>
      <trkpt lat="45.7913" lon="1.91202">
        <ele>720.7</ele>
        <time>2026-07-08T13:52:19.000Z</time>
      </trkpt>
      <trkpt lat="45.79129" lon="1.91204">
        <ele>720.8</ele>
        <time>2026-07-08T13:52:20.000Z</time>
      </trkpt>
      <trkpt lat="45.79128" lon="1.91206">
        <ele>720.9</ele>
        <time>2026-07-08T13:52:21.000Z</time>
      </trkpt>
      <trkpt lat="45.79127" lon="1.91208">
        <ele>720.9</ele>
        <time>2026-07-08T13:52:22.000Z</time>
      </trkpt>
      <trkpt lat="45.79125" lon="1.91209">
        <ele>721.3</ele>
        <time>2026-07-08T13:52:23.000Z</time>
      </trkpt>
      <trkpt lat="45.79124" lon="1.91211">
        <ele>721.7</ele>
        <time>2026-07-08T13:52:24.000Z</time>
      </trkpt>
      <trkpt lat="45.79123" lon="1.91212">
        <ele>721.1</ele>
        <time>2026-07-08T13:52:25.000Z</time>
      </trkpt>
      <trkpt lat="45.79122" lon="1.91214">
        <ele>721</ele>
        <time>2026-07-08T13:52:26.000Z</time>
      </trkpt>
      <trkpt lat="45.79121" lon="1.91216">
        <ele>721.1</ele>
        <time>2026-07-08T13:52:27.000Z</time>
      </trkpt>
      <trkpt lat="45.7912" lon="1.91217">
        <ele>721.2</ele>
        <time>2026-07-08T13:52:28.000Z</time>
      </trkpt>
      <trkpt lat="45.79119" lon="1.91219">
        <ele>721.3</ele>
        <time>2026-07-08T13:52:29.000Z</time>
      </trkpt>
      <trkpt lat="45.79117" lon="1.9122">
        <ele>721.3</ele>
        <time>2026-07-08T13:52:30.000Z</time>
      </trkpt>
      <trkpt lat="45.79116" lon="1.91222">
        <ele>720.9</ele>
        <time>2026-07-08T13:52:31.000Z</time>
      </trkpt>
      <trkpt lat="45.79115" lon="1.91223">
        <ele>721</ele>
        <time>2026-07-08T13:52:32.000Z</time>
      </trkpt>
      <trkpt lat="45.79114" lon="1.91225">
        <ele>721</ele>
        <time>2026-07-08T13:52:33.000Z</time>
      </trkpt>
      <trkpt lat="45.79115" lon="1.91229">
        <ele>720.8</ele>
        <time>2026-07-08T13:52:34.000Z</time>
      </trkpt>
      <trkpt lat="45.79117" lon="1.91231">
        <ele>720.8</ele>
        <time>2026-07-08T13:52:35.000Z</time>
      </trkpt>
      <trkpt lat="45.79114" lon="1.91232">
        <ele>720.6</ele>
        <time>2026-07-08T13:52:36.000Z</time>
      </trkpt>
      <trkpt lat="45.79112" lon="1.91234">
        <ele>720.7</ele>
        <time>2026-07-08T13:52:37.000Z</time>
      </trkpt>
      <trkpt lat="45.79111" lon="1.91236">
        <ele>720.8</ele>
        <time>2026-07-08T13:52:38.000Z</time>
      </trkpt>
      <trkpt lat="45.7911" lon="1.91238">
        <ele>720.6</ele>
        <time>2026-07-08T13:52:39.000Z</time>
      </trkpt>
      <trkpt lat="45.79109" lon="1.9124">
        <ele>721.2</ele>
        <time>2026-07-08T13:52:40.000Z</time>
      </trkpt>
      <trkpt lat="45.79107" lon="1.91241">
        <ele>722.1</ele>
        <time>2026-07-08T13:52:41.000Z</time>
      </trkpt>
      <trkpt lat="45.79105" lon="1.91242">
        <ele>723</ele>
        <time>2026-07-08T13:52:42.000Z</time>
      </trkpt>
      <trkpt lat="45.79104" lon="1.91243">
        <ele>723.8</ele>
        <time>2026-07-08T13:52:43.000Z</time>
      </trkpt>
      <trkpt lat="45.79103" lon="1.91245">
        <ele>723.9</ele>
        <time>2026-07-08T13:52:44.000Z</time>
      </trkpt>
      <trkpt lat="45.79102" lon="1.91247">
        <ele>724.2</ele>
        <time>2026-07-08T13:52:45.000Z</time>
      </trkpt>
      <trkpt lat="45.79102" lon="1.91249">
        <ele>724.2</ele>
        <time>2026-07-08T13:52:46.000Z</time>
      </trkpt>
      <trkpt lat="45.79101" lon="1.91252">
        <ele>724.3</ele>
        <time>2026-07-08T13:52:47.000Z</time>
      </trkpt>
      <trkpt lat="45.79101" lon="1.91254">
        <ele>724.4</ele>
        <time>2026-07-08T13:52:48.000Z</time>
      </trkpt>
      <trkpt lat="45.79101" lon="1.91256">
        <ele>723.7</ele>
        <time>2026-07-08T13:52:49.000Z</time>
      </trkpt>
      <trkpt lat="45.791" lon="1.91258">
        <ele>723</ele>
        <time>2026-07-08T13:52:50.000Z</time>
      </trkpt>
      <trkpt lat="45.79099" lon="1.91259">
        <ele>722.1</ele>
        <time>2026-07-08T13:52:51.000Z</time>
      </trkpt>
      <trkpt lat="45.79098" lon="1.91261">
        <ele>722</ele>
        <time>2026-07-08T13:52:52.000Z</time>
      </trkpt>
      <trkpt lat="45.79098" lon="1.91263">
        <ele>722.2</ele>
        <time>2026-07-08T13:52:53.000Z</time>
      </trkpt>
      <trkpt lat="45.79097" lon="1.91265">
        <ele>722.1</ele>
        <time>2026-07-08T13:52:54.000Z</time>
      </trkpt>
      <trkpt lat="45.79097" lon="1.91267">
        <ele>722.1</ele>
        <time>2026-07-08T13:52:55.000Z</time>
      </trkpt>
      <trkpt lat="45.79097" lon="1.9127">
        <ele>722</ele>
        <time>2026-07-08T13:52:56.000Z</time>
      </trkpt>
      <trkpt lat="45.79097" lon="1.91273">
        <ele>724</ele>
        <time>2026-07-08T13:52:57.000Z</time>
      </trkpt>
      <trkpt lat="45.79097" lon="1.91275">
        <ele>725.3</ele>
        <time>2026-07-08T13:52:58.000Z</time>
      </trkpt>
      <trkpt lat="45.79097" lon="1.91278">
        <ele>726.2</ele>
        <time>2026-07-08T13:52:59.000Z</time>
      </trkpt>
      <trkpt lat="45.79097" lon="1.9128">
        <ele>726.3</ele>
        <time>2026-07-08T13:53:00.000Z</time>
      </trkpt>
      <trkpt lat="45.79096" lon="1.91283">
        <ele>725.9</ele>
        <time>2026-07-08T13:53:01.000Z</time>
      </trkpt>
      <trkpt lat="45.79096" lon="1.91285">
        <ele>725.9</ele>
        <time>2026-07-08T13:53:02.000Z</time>
      </trkpt>
      <trkpt lat="45.79096" lon="1.91288">
        <ele>726.8</ele>
        <time>2026-07-08T13:53:03.000Z</time>
      </trkpt>
      <trkpt lat="45.79097" lon="1.9129">
        <ele>726.5</ele>
        <time>2026-07-08T13:53:04.000Z</time>
      </trkpt>
      <trkpt lat="45.79097" lon="1.91292">
        <ele>726.5</ele>
        <time>2026-07-08T13:53:05.000Z</time>
      </trkpt>
      <trkpt lat="45.79096" lon="1.91294">
        <ele>727.3</ele>
        <time>2026-07-08T13:53:06.000Z</time>
      </trkpt>
      <trkpt lat="45.79096" lon="1.91297">
        <ele>727.3</ele>
        <time>2026-07-08T13:53:07.000Z</time>
      </trkpt>
      <trkpt lat="45.79096" lon="1.91299">
        <ele>727.2</ele>
        <time>2026-07-08T13:53:08.000Z</time>
      </trkpt>
      <trkpt lat="45.79097" lon="1.91301">
        <ele>726.2</ele>
        <time>2026-07-08T13:53:09.000Z</time>
      </trkpt>
      <trkpt lat="45.79097" lon="1.91303">
        <ele>726.3</ele>
        <time>2026-07-08T13:53:10.000Z</time>
      </trkpt>
      <trkpt lat="45.79097" lon="1.91306">
        <ele>726.6</ele>
        <time>2026-07-08T13:53:11.000Z</time>
      </trkpt>
      <trkpt lat="45.79097" lon="1.91308">
        <ele>726.5</ele>
        <time>2026-07-08T13:53:12.000Z</time>
      </trkpt>
      <trkpt lat="45.79098" lon="1.91311">
        <ele>726.7</ele>
        <time>2026-07-08T13:53:13.000Z</time>
      </trkpt>
      <trkpt lat="45.79097" lon="1.91313">
        <ele>726</ele>
        <time>2026-07-08T13:53:14.000Z</time>
      </trkpt>
      <trkpt lat="45.79095" lon="1.91316">
        <ele>725.2</ele>
        <time>2026-07-08T13:53:15.000Z</time>
      </trkpt>
      <trkpt lat="45.79094" lon="1.91319">
        <ele>726.2</ele>
        <time>2026-07-08T13:53:16.000Z</time>
      </trkpt>
      <trkpt lat="45.79094" lon="1.91321">
        <ele>724.9</ele>
        <time>2026-07-08T13:53:17.000Z</time>
      </trkpt>
      <trkpt lat="45.79095" lon="1.91323">
        <ele>725.7</ele>
        <time>2026-07-08T13:53:18.000Z</time>
      </trkpt>
      <trkpt lat="45.79096" lon="1.91326">
        <ele>726.3</ele>
        <time>2026-07-08T13:53:19.000Z</time>
      </trkpt>
      <trkpt lat="45.79096" lon="1.91328">
        <ele>726.2</ele>
        <time>2026-07-08T13:53:20.000Z</time>
      </trkpt>
      <trkpt lat="45.79097" lon="1.91331">
        <ele>726.5</ele>
        <time>2026-07-08T13:53:21.000Z</time>
      </trkpt>
      <trkpt lat="45.79098" lon="1.91333">
        <ele>726.7</ele>
        <time>2026-07-08T13:53:22.000Z</time>
      </trkpt>
      <trkpt lat="45.79099" lon="1.91335">
        <ele>727.4</ele>
        <time>2026-07-08T13:53:23.000Z</time>
      </trkpt>
      <trkpt lat="45.791" lon="1.91337">
        <ele>728</ele>
        <time>2026-07-08T13:53:24.000Z</time>
      </trkpt>
      <trkpt lat="45.79101" lon="1.9134">
        <ele>728.1</ele>
        <time>2026-07-08T13:53:25.000Z</time>
      </trkpt>
      <trkpt lat="45.79102" lon="1.91342">
        <ele>727.9</ele>
        <time>2026-07-08T13:53:26.000Z</time>
      </trkpt>
      <trkpt lat="45.79102" lon="1.91344">
        <ele>728</ele>
        <time>2026-07-08T13:53:27.000Z</time>
      </trkpt>
      <trkpt lat="45.791" lon="1.91347">
        <ele>728.6</ele>
        <time>2026-07-08T13:53:28.000Z</time>
      </trkpt>
      <trkpt lat="45.79101" lon="1.9135">
        <ele>729.4</ele>
        <time>2026-07-08T13:53:29.000Z</time>
      </trkpt>
      <trkpt lat="45.79099" lon="1.91353">
        <ele>730.3</ele>
        <time>2026-07-08T13:53:30.000Z</time>
      </trkpt>
      <trkpt lat="45.79099" lon="1.91355">
        <ele>730.8</ele>
        <time>2026-07-08T13:53:31.000Z</time>
      </trkpt>
      <trkpt lat="45.791" lon="1.91357">
        <ele>729.9</ele>
        <time>2026-07-08T13:53:32.000Z</time>
      </trkpt>
      <trkpt lat="45.79101" lon="1.91358">
        <ele>729.6</ele>
        <time>2026-07-08T13:53:33.000Z</time>
      </trkpt>
      <trkpt lat="45.79101" lon="1.91361">
        <ele>730.5</ele>
        <time>2026-07-08T13:53:34.000Z</time>
      </trkpt>
      <trkpt lat="45.791" lon="1.91364">
        <ele>730.7</ele>
        <time>2026-07-08T13:53:35.000Z</time>
      </trkpt>
      <trkpt lat="45.79101" lon="1.91367">
        <ele>731.8</ele>
        <time>2026-07-08T13:53:36.000Z</time>
      </trkpt>
      <trkpt lat="45.79102" lon="1.9137">
        <ele>731.9</ele>
        <time>2026-07-08T13:53:37.000Z</time>
      </trkpt>
      <trkpt lat="45.79102" lon="1.91372">
        <ele>732.3</ele>
        <time>2026-07-08T13:53:38.000Z</time>
      </trkpt>
      <trkpt lat="45.79103" lon="1.91374">
        <ele>732.2</ele>
        <time>2026-07-08T13:53:39.000Z</time>
      </trkpt>
      <trkpt lat="45.79104" lon="1.91376">
        <ele>731.9</ele>
        <time>2026-07-08T13:53:40.000Z</time>
      </trkpt>
      <trkpt lat="45.79106" lon="1.91378">
        <ele>732.3</ele>
        <time>2026-07-08T13:53:41.000Z</time>
      </trkpt>
      <trkpt lat="45.79107" lon="1.9138">
        <ele>732.2</ele>
        <time>2026-07-08T13:53:42.000Z</time>
      </trkpt>
      <trkpt lat="45.79108" lon="1.91382">
        <ele>732.3</ele>
        <time>2026-07-08T13:53:43.000Z</time>
      </trkpt>
      <trkpt lat="45.79109" lon="1.91385">
        <ele>732.5</ele>
        <time>2026-07-08T13:53:44.000Z</time>
      </trkpt>
      <trkpt lat="45.79111" lon="1.91387">
        <ele>732.3</ele>
        <time>2026-07-08T13:53:45.000Z</time>
      </trkpt>
      <trkpt lat="45.79112" lon="1.91389">
        <ele>732.3</ele>
        <time>2026-07-08T13:53:46.000Z</time>
      </trkpt>
      <trkpt lat="45.79113" lon="1.91391">
        <ele>732</ele>
        <time>2026-07-08T13:53:47.000Z</time>
      </trkpt>
      <trkpt lat="45.79115" lon="1.91393">
        <ele>732</ele>
        <time>2026-07-08T13:53:48.000Z</time>
      </trkpt>
      <trkpt lat="45.79116" lon="1.91396">
        <ele>732</ele>
        <time>2026-07-08T13:53:49.000Z</time>
      </trkpt>
      <trkpt lat="45.79117" lon="1.91398">
        <ele>732</ele>
        <time>2026-07-08T13:53:50.000Z</time>
      </trkpt>
      <trkpt lat="45.79119" lon="1.914">
        <ele>731.9</ele>
        <time>2026-07-08T13:53:51.000Z</time>
      </trkpt>
      <trkpt lat="45.7912" lon="1.91402">
        <ele>732</ele>
        <time>2026-07-08T13:53:52.000Z</time>
      </trkpt>
      <trkpt lat="45.79121" lon="1.91404">
        <ele>732.1</ele>
        <time>2026-07-08T13:53:53.000Z</time>
      </trkpt>
      <trkpt lat="45.79123" lon="1.91405">
        <ele>731.7</ele>
        <time>2026-07-08T13:53:54.000Z</time>
      </trkpt>
      <trkpt lat="45.79124" lon="1.91407">
        <ele>730.3</ele>
        <time>2026-07-08T13:53:55.000Z</time>
      </trkpt>
      <trkpt lat="45.79125" lon="1.91409">
        <ele>729.7</ele>
        <time>2026-07-08T13:53:56.000Z</time>
      </trkpt>
      <trkpt lat="45.79127" lon="1.9141">
        <ele>729.9</ele>
        <time>2026-07-08T13:53:57.000Z</time>
      </trkpt>
      <trkpt lat="45.79128" lon="1.91412">
        <ele>727.9</ele>
        <time>2026-07-08T13:53:58.000Z</time>
      </trkpt>
      <trkpt lat="45.79129" lon="1.91413">
        <ele>727.9</ele>
        <time>2026-07-08T13:53:59.000Z</time>
      </trkpt>
      <trkpt lat="45.7913" lon="1.91415">
        <ele>728.4</ele>
        <time>2026-07-08T13:54:00.000Z</time>
      </trkpt>
      <trkpt lat="45.79131" lon="1.91417">
        <ele>728.6</ele>
        <time>2026-07-08T13:54:01.000Z</time>
      </trkpt>
      <trkpt lat="45.79132" lon="1.91418">
        <ele>727.9</ele>
        <time>2026-07-08T13:54:02.000Z</time>
      </trkpt>
      <trkpt lat="45.79133" lon="1.9142">
        <ele>728</ele>
        <time>2026-07-08T13:54:03.000Z</time>
      </trkpt>
      <trkpt lat="45.79134" lon="1.91422">
        <ele>728.4</ele>
        <time>2026-07-08T13:54:04.000Z</time>
      </trkpt>
      <trkpt lat="45.79135" lon="1.91424">
        <ele>729.2</ele>
        <time>2026-07-08T13:54:05.000Z</time>
      </trkpt>
      <trkpt lat="45.79136" lon="1.91427">
        <ele>729.4</ele>
        <time>2026-07-08T13:54:06.000Z</time>
      </trkpt>
      <trkpt lat="45.79136" lon="1.91429">
        <ele>729.5</ele>
        <time>2026-07-08T13:54:07.000Z</time>
      </trkpt>
      <trkpt lat="45.79137" lon="1.91431">
        <ele>728.6</ele>
        <time>2026-07-08T13:54:08.000Z</time>
      </trkpt>
      <trkpt lat="45.79139" lon="1.91432">
        <ele>731.1</ele>
        <time>2026-07-08T13:54:09.000Z</time>
      </trkpt>
      <trkpt lat="45.79139" lon="1.9143">
        <ele>728.7</ele>
        <time>2026-07-08T13:54:10.000Z</time>
      </trkpt>
      <trkpt lat="45.79139" lon="1.91431">
        <ele>729.3</ele>
        <time>2026-07-08T13:54:11.000Z</time>
      </trkpt>
      <trkpt lat="45.7914" lon="1.91433">
        <ele>729.7</ele>
        <time>2026-07-08T13:54:12.000Z</time>
      </trkpt>
      <trkpt lat="45.7914" lon="1.91435">
        <ele>729</ele>
        <time>2026-07-08T13:54:13.000Z</time>
      </trkpt>
      <trkpt lat="45.79141" lon="1.91437">
        <ele>728.8</ele>
        <time>2026-07-08T13:54:14.000Z</time>
      </trkpt>
      <trkpt lat="45.79141" lon="1.91439">
        <ele>729.3</ele>
        <time>2026-07-08T13:54:15.000Z</time>
      </trkpt>
      <trkpt lat="45.79142" lon="1.91441">
        <ele>729.5</ele>
        <time>2026-07-08T13:54:16.000Z</time>
      </trkpt>
      <trkpt lat="45.79143" lon="1.91443">
        <ele>729.7</ele>
        <time>2026-07-08T13:54:17.000Z</time>
      </trkpt>
      <trkpt lat="45.79143" lon="1.91445">
        <ele>730</ele>
        <time>2026-07-08T13:54:18.000Z</time>
      </trkpt>
      <trkpt lat="45.79144" lon="1.91447">
        <ele>730.1</ele>
        <time>2026-07-08T13:54:19.000Z</time>
      </trkpt>
      <trkpt lat="45.79144" lon="1.91449">
        <ele>729.9</ele>
        <time>2026-07-08T13:54:20.000Z</time>
      </trkpt>
      <trkpt lat="45.79145" lon="1.91451">
        <ele>729.4</ele>
        <time>2026-07-08T13:54:21.000Z</time>
      </trkpt>
      <trkpt lat="45.79146" lon="1.91453">
        <ele>729.6</ele>
        <time>2026-07-08T13:54:22.000Z</time>
      </trkpt>
      <trkpt lat="45.79146" lon="1.91455">
        <ele>728.1</ele>
        <time>2026-07-08T13:54:23.000Z</time>
      </trkpt>
      <trkpt lat="45.79147" lon="1.91457">
        <ele>727.7</ele>
        <time>2026-07-08T13:54:24.000Z</time>
      </trkpt>
      <trkpt lat="45.79148" lon="1.91459">
        <ele>727.5</ele>
        <time>2026-07-08T13:54:25.000Z</time>
      </trkpt>
      <trkpt lat="45.79148" lon="1.91461">
        <ele>727.7</ele>
        <time>2026-07-08T13:54:26.000Z</time>
      </trkpt>
      <trkpt lat="45.79149" lon="1.91463">
        <ele>727.3</ele>
        <time>2026-07-08T13:54:27.000Z</time>
      </trkpt>
      <trkpt lat="45.79149" lon="1.91465">
        <ele>726.6</ele>
        <time>2026-07-08T13:54:28.000Z</time>
      </trkpt>
      <trkpt lat="45.7915" lon="1.91467">
        <ele>726.7</ele>
        <time>2026-07-08T13:54:29.000Z</time>
      </trkpt>
      <trkpt lat="45.7915" lon="1.91469">
        <ele>726.3</ele>
        <time>2026-07-08T13:54:30.000Z</time>
      </trkpt>
      <trkpt lat="45.7915" lon="1.91472">
        <ele>726.7</ele>
        <time>2026-07-08T13:54:31.000Z</time>
      </trkpt>
      <trkpt lat="45.79151" lon="1.91474">
        <ele>726.5</ele>
        <time>2026-07-08T13:54:32.000Z</time>
      </trkpt>
      <trkpt lat="45.79151" lon="1.91477">
        <ele>727.1</ele>
        <time>2026-07-08T13:54:33.000Z</time>
      </trkpt>
      <trkpt lat="45.79151" lon="1.91479">
        <ele>727.1</ele>
        <time>2026-07-08T13:54:34.000Z</time>
      </trkpt>
      <trkpt lat="45.79151" lon="1.91481">
        <ele>727.4</ele>
        <time>2026-07-08T13:54:35.000Z</time>
      </trkpt>
      <trkpt lat="45.79151" lon="1.91483">
        <ele>727</ele>
        <time>2026-07-08T13:54:36.000Z</time>
      </trkpt>
      <trkpt lat="45.79151" lon="1.91486">
        <ele>727</ele>
        <time>2026-07-08T13:54:37.000Z</time>
      </trkpt>
      <trkpt lat="45.79151" lon="1.91488">
        <ele>726.8</ele>
        <time>2026-07-08T13:54:38.000Z</time>
      </trkpt>
      <trkpt lat="45.79152" lon="1.9149">
        <ele>726.2</ele>
        <time>2026-07-08T13:54:39.000Z</time>
      </trkpt>
      <trkpt lat="45.79151" lon="1.91493">
        <ele>726.1</ele>
        <time>2026-07-08T13:54:40.000Z</time>
      </trkpt>
      <trkpt lat="45.79151" lon="1.91495">
        <ele>726</ele>
        <time>2026-07-08T13:54:41.000Z</time>
      </trkpt>
      <trkpt lat="45.7915" lon="1.91497">
        <ele>727.5</ele>
        <time>2026-07-08T13:54:42.000Z</time>
      </trkpt>
      <trkpt lat="45.79149" lon="1.91498">
        <ele>728.3</ele>
        <time>2026-07-08T13:54:43.000Z</time>
      </trkpt>
      <trkpt lat="45.79149" lon="1.915">
        <ele>728.7</ele>
        <time>2026-07-08T13:54:44.000Z</time>
      </trkpt>
      <trkpt lat="45.79148" lon="1.91502">
        <ele>728.9</ele>
        <time>2026-07-08T13:54:45.000Z</time>
      </trkpt>
      <trkpt lat="45.79148" lon="1.91505">
        <ele>728.8</ele>
        <time>2026-07-08T13:54:46.000Z</time>
      </trkpt>
      <trkpt lat="45.79147" lon="1.91507">
        <ele>729</ele>
        <time>2026-07-08T13:54:47.000Z</time>
      </trkpt>
      <trkpt lat="45.79147" lon="1.91509">
        <ele>729.1</ele>
        <time>2026-07-08T13:54:48.000Z</time>
      </trkpt>
      <trkpt lat="45.79146" lon="1.91512">
        <ele>730.1</ele>
        <time>2026-07-08T13:54:49.000Z</time>
      </trkpt>
      <trkpt lat="45.79146" lon="1.91514">
        <ele>730.3</ele>
        <time>2026-07-08T13:54:50.000Z</time>
      </trkpt>
      <trkpt lat="45.79146" lon="1.91517">
        <ele>730</ele>
        <time>2026-07-08T13:54:51.000Z</time>
      </trkpt>
      <trkpt lat="45.79146" lon="1.91519">
        <ele>729.4</ele>
        <time>2026-07-08T13:54:52.000Z</time>
      </trkpt>
      <trkpt lat="45.79146" lon="1.91521">
        <ele>729.5</ele>
        <time>2026-07-08T13:54:53.000Z</time>
      </trkpt>
      <trkpt lat="45.79146" lon="1.91523">
        <ele>729.8</ele>
        <time>2026-07-08T13:54:54.000Z</time>
      </trkpt>
      <trkpt lat="45.79145" lon="1.91525">
        <ele>730.2</ele>
        <time>2026-07-08T13:54:55.000Z</time>
      </trkpt>
      <trkpt lat="45.79145" lon="1.91527">
        <ele>729.9</ele>
        <time>2026-07-08T13:54:56.000Z</time>
      </trkpt>
      <trkpt lat="45.79144" lon="1.91529">
        <ele>729.1</ele>
        <time>2026-07-08T13:54:57.000Z</time>
      </trkpt>
      <trkpt lat="45.79144" lon="1.91531">
        <ele>728.4</ele>
        <time>2026-07-08T13:54:58.000Z</time>
      </trkpt>
      <trkpt lat="45.79143" lon="1.91533">
        <ele>728</ele>
        <time>2026-07-08T13:54:59.000Z</time>
      </trkpt>
      <trkpt lat="45.79143" lon="1.91535">
        <ele>727.8</ele>
        <time>2026-07-08T13:55:00.000Z</time>
      </trkpt>
      <trkpt lat="45.79143" lon="1.91537">
        <ele>727.3</ele>
        <time>2026-07-08T13:55:01.000Z</time>
      </trkpt>
      <trkpt lat="45.79142" lon="1.91539">
        <ele>727.1</ele>
        <time>2026-07-08T13:55:02.000Z</time>
      </trkpt>
      <trkpt lat="45.79142" lon="1.91541">
        <ele>726.8</ele>
        <time>2026-07-08T13:55:03.000Z</time>
      </trkpt>
      <trkpt lat="45.79142" lon="1.91544">
        <ele>726.9</ele>
        <time>2026-07-08T13:55:04.000Z</time>
      </trkpt>
      <trkpt lat="45.79141" lon="1.91546">
        <ele>727.1</ele>
        <time>2026-07-08T13:55:05.000Z</time>
      </trkpt>
      <trkpt lat="45.79141" lon="1.91548">
        <ele>726.4</ele>
        <time>2026-07-08T13:55:06.000Z</time>
      </trkpt>
      <trkpt lat="45.79141" lon="1.9155">
        <ele>727.1</ele>
        <time>2026-07-08T13:55:07.000Z</time>
      </trkpt>
      <trkpt lat="45.79141" lon="1.91552">
        <ele>727.4</ele>
        <time>2026-07-08T13:55:08.000Z</time>
      </trkpt>
      <trkpt lat="45.79141" lon="1.91555">
        <ele>726.3</ele>
        <time>2026-07-08T13:55:09.000Z</time>
      </trkpt>
      <trkpt lat="45.79141" lon="1.91557">
        <ele>725.8</ele>
        <time>2026-07-08T13:55:10.000Z</time>
      </trkpt>
      <trkpt lat="45.79141" lon="1.9156">
        <ele>725.7</ele>
        <time>2026-07-08T13:55:11.000Z</time>
      </trkpt>
      <trkpt lat="45.79142" lon="1.91562">
        <ele>726</ele>
        <time>2026-07-08T13:55:12.000Z</time>
      </trkpt>
      <trkpt lat="45.79142" lon="1.91565">
        <ele>726.2</ele>
        <time>2026-07-08T13:55:13.000Z</time>
      </trkpt>
      <trkpt lat="45.79142" lon="1.91567">
        <ele>726</ele>
        <time>2026-07-08T13:55:14.000Z</time>
      </trkpt>
      <trkpt lat="45.79142" lon="1.9157">
        <ele>726.4</ele>
        <time>2026-07-08T13:55:15.000Z</time>
      </trkpt>
      <trkpt lat="45.79141" lon="1.91572">
        <ele>726.7</ele>
        <time>2026-07-08T13:55:16.000Z</time>
      </trkpt>
      <trkpt lat="45.79141" lon="1.91575">
        <ele>727.1</ele>
        <time>2026-07-08T13:55:17.000Z</time>
      </trkpt>
      <trkpt lat="45.79141" lon="1.91577">
        <ele>727.3</ele>
        <time>2026-07-08T13:55:18.000Z</time>
      </trkpt>
      <trkpt lat="45.79141" lon="1.9158">
        <ele>727.6</ele>
        <time>2026-07-08T13:55:19.000Z</time>
      </trkpt>
      <trkpt lat="45.79142" lon="1.91582">
        <ele>727.6</ele>
        <time>2026-07-08T13:55:20.000Z</time>
      </trkpt>
      <trkpt lat="45.79142" lon="1.91584">
        <ele>727.9</ele>
        <time>2026-07-08T13:55:21.000Z</time>
      </trkpt>
      <trkpt lat="45.79142" lon="1.91587">
        <ele>727.7</ele>
        <time>2026-07-08T13:55:22.000Z</time>
      </trkpt>
      <trkpt lat="45.79143" lon="1.91589">
        <ele>727.6</ele>
        <time>2026-07-08T13:55:23.000Z</time>
      </trkpt>
      <trkpt lat="45.79143" lon="1.91591">
        <ele>727.5</ele>
        <time>2026-07-08T13:55:24.000Z</time>
      </trkpt>
      <trkpt lat="45.79144" lon="1.91593">
        <ele>727.6</ele>
        <time>2026-07-08T13:55:25.000Z</time>
      </trkpt>
      <trkpt lat="45.79144" lon="1.91596">
        <ele>727.7</ele>
        <time>2026-07-08T13:55:26.000Z</time>
      </trkpt>
      <trkpt lat="45.79145" lon="1.91598">
        <ele>727.5</ele>
        <time>2026-07-08T13:55:27.000Z</time>
      </trkpt>
      <trkpt lat="45.79145" lon="1.916">
        <ele>727.8</ele>
        <time>2026-07-08T13:55:28.000Z</time>
      </trkpt>
      <trkpt lat="45.79146" lon="1.91603">
        <ele>728.5</ele>
        <time>2026-07-08T13:55:29.000Z</time>
      </trkpt>
      <trkpt lat="45.79147" lon="1.91605">
        <ele>728.7</ele>
        <time>2026-07-08T13:55:30.000Z</time>
      </trkpt>
      <trkpt lat="45.79147" lon="1.91607">
        <ele>728.9</ele>
        <time>2026-07-08T13:55:31.000Z</time>
      </trkpt>
      <trkpt lat="45.79148" lon="1.9161">
        <ele>729</ele>
        <time>2026-07-08T13:55:32.000Z</time>
      </trkpt>
      <trkpt lat="45.79148" lon="1.91612">
        <ele>729</ele>
        <time>2026-07-08T13:55:33.000Z</time>
      </trkpt>
      <trkpt lat="45.79149" lon="1.91615">
        <ele>729.2</ele>
        <time>2026-07-08T13:55:34.000Z</time>
      </trkpt>
      <trkpt lat="45.79149" lon="1.91618">
        <ele>729.4</ele>
        <time>2026-07-08T13:55:35.000Z</time>
      </trkpt>
      <trkpt lat="45.79149" lon="1.9162">
        <ele>729.3</ele>
        <time>2026-07-08T13:55:36.000Z</time>
      </trkpt>
      <trkpt lat="45.7915" lon="1.91622">
        <ele>729</ele>
        <time>2026-07-08T13:55:37.000Z</time>
      </trkpt>
      <trkpt lat="45.79151" lon="1.91625">
        <ele>729</ele>
        <time>2026-07-08T13:55:38.000Z</time>
      </trkpt>
      <trkpt lat="45.79151" lon="1.91628">
        <ele>729.1</ele>
        <time>2026-07-08T13:55:39.000Z</time>
      </trkpt>
      <trkpt lat="45.79151" lon="1.91631">
        <ele>729.4</ele>
        <time>2026-07-08T13:55:40.000Z</time>
      </trkpt>
      <trkpt lat="45.79152" lon="1.91633">
        <ele>729.6</ele>
        <time>2026-07-08T13:55:41.000Z</time>
      </trkpt>
      <trkpt lat="45.79153" lon="1.91636">
        <ele>729.5</ele>
        <time>2026-07-08T13:55:42.000Z</time>
      </trkpt>
      <trkpt lat="45.79153" lon="1.91638">
        <ele>729.1</ele>
        <time>2026-07-08T13:55:43.000Z</time>
      </trkpt>
      <trkpt lat="45.79153" lon="1.9164">
        <ele>729</ele>
        <time>2026-07-08T13:55:44.000Z</time>
      </trkpt>
      <trkpt lat="45.79153" lon="1.91643">
        <ele>728.7</ele>
        <time>2026-07-08T13:55:45.000Z</time>
      </trkpt>
      <trkpt lat="45.79152" lon="1.91645">
        <ele>728.2</ele>
        <time>2026-07-08T13:55:46.000Z</time>
      </trkpt>
      <trkpt lat="45.79152" lon="1.91645">
        <ele>728.1</ele>
        <time>2026-07-08T13:55:47.000Z</time>
      </trkpt>
      <trkpt lat="45.79152" lon="1.91646">
        <ele>728.7</ele>
        <time>2026-07-08T13:55:48.000Z</time>
      </trkpt>
      <trkpt lat="45.79152" lon="1.91646">
        <ele>728.8</ele>
        <time>2026-07-08T13:55:49.000Z</time>
      </trkpt>
      <trkpt lat="45.79152" lon="1.91645">
        <ele>728.8</ele>
        <time>2026-07-08T13:55:50.000Z</time>
      </trkpt>
      <trkpt lat="45.79152" lon="1.91643">
        <ele>728.8</ele>
        <time>2026-07-08T13:55:51.000Z</time>
      </trkpt>
      <trkpt lat="45.79152" lon="1.91643">
        <ele>728.8</ele>
        <time>2026-07-08T13:55:52.000Z</time>
      </trkpt>
      <trkpt lat="45.79152" lon="1.91642">
        <ele>728.7</ele>
        <time>2026-07-08T13:55:53.000Z</time>
      </trkpt>
      <trkpt lat="45.79152" lon="1.91642">
        <ele>728.4</ele>
        <time>2026-07-08T13:55:54.000Z</time>
      </trkpt>
      <trkpt lat="45.79152" lon="1.91642">
        <ele>728.5</ele>
        <time>2026-07-08T13:55:55.000Z</time>
      </trkpt>
      <trkpt lat="45.79152" lon="1.9164">
        <ele>728.8</ele>
        <time>2026-07-08T13:55:56.000Z</time>
      </trkpt>
      <trkpt lat="45.79151" lon="1.91638">
        <ele>728.8</ele>
        <time>2026-07-08T13:55:57.000Z</time>
      </trkpt>
      <trkpt lat="45.79152" lon="1.91636">
        <ele>729.4</ele>
        <time>2026-07-08T13:55:58.000Z</time>
      </trkpt>
      <trkpt lat="45.79153" lon="1.91637">
        <ele>729.3</ele>
        <time>2026-07-08T13:55:59.000Z</time>
      </trkpt>
      <trkpt lat="45.79154" lon="1.91637">
        <ele>729.9</ele>
        <time>2026-07-08T13:56:00.000Z</time>
      </trkpt>
      <trkpt lat="45.79155" lon="1.9164">
        <ele>730</ele>
        <time>2026-07-08T13:56:01.000Z</time>
      </trkpt>
      <trkpt lat="45.79156" lon="1.91642">
        <ele>730.7</ele>
        <time>2026-07-08T13:56:02.000Z</time>
      </trkpt>
      <trkpt lat="45.79155" lon="1.91645">
        <ele>730.9</ele>
        <time>2026-07-08T13:56:03.000Z</time>
      </trkpt>
      <trkpt lat="45.79155" lon="1.91648">
        <ele>730.6</ele>
        <time>2026-07-08T13:56:04.000Z</time>
      </trkpt>
      <trkpt lat="45.79155" lon="1.91651">
        <ele>730.2</ele>
        <time>2026-07-08T13:56:05.000Z</time>
      </trkpt>
      <trkpt lat="45.79155" lon="1.91654">
        <ele>729.8</ele>
        <time>2026-07-08T13:56:06.000Z</time>
      </trkpt>
      <trkpt lat="45.79154" lon="1.91657">
        <ele>729.9</ele>
        <time>2026-07-08T13:56:07.000Z</time>
      </trkpt>
      <trkpt lat="45.79154" lon="1.91659">
        <ele>730.6</ele>
        <time>2026-07-08T13:56:08.000Z</time>
      </trkpt>
      <trkpt lat="45.79154" lon="1.91662">
        <ele>730.2</ele>
        <time>2026-07-08T13:56:09.000Z</time>
      </trkpt>
      <trkpt lat="45.79153" lon="1.91665">
        <ele>730.8</ele>
        <time>2026-07-08T13:56:10.000Z</time>
      </trkpt>
      <trkpt lat="45.79153" lon="1.91668">
        <ele>731.1</ele>
        <time>2026-07-08T13:56:11.000Z</time>
      </trkpt>
      <trkpt lat="45.79153" lon="1.91671">
        <ele>731.1</ele>
        <time>2026-07-08T13:56:12.000Z</time>
      </trkpt>
      <trkpt lat="45.79153" lon="1.91674">
        <ele>731.6</ele>
        <time>2026-07-08T13:56:13.000Z</time>
      </trkpt>
      <trkpt lat="45.79153" lon="1.91676">
        <ele>732.1</ele>
        <time>2026-07-08T13:56:14.000Z</time>
      </trkpt>
      <trkpt lat="45.79153" lon="1.91679">
        <ele>732.7</ele>
        <time>2026-07-08T13:56:15.000Z</time>
      </trkpt>
      <trkpt lat="45.79153" lon="1.91682">
        <ele>733.4</ele>
        <time>2026-07-08T13:56:16.000Z</time>
      </trkpt>
      <trkpt lat="45.79152" lon="1.91684">
        <ele>733.3</ele>
        <time>2026-07-08T13:56:17.000Z</time>
      </trkpt>
      <trkpt lat="45.79152" lon="1.91687">
        <ele>733.4</ele>
        <time>2026-07-08T13:56:18.000Z</time>
      </trkpt>
      <trkpt lat="45.79152" lon="1.91689">
        <ele>733.1</ele>
        <time>2026-07-08T13:56:19.000Z</time>
      </trkpt>
      <trkpt lat="45.79152" lon="1.91692">
        <ele>733.2</ele>
        <time>2026-07-08T13:56:20.000Z</time>
      </trkpt>
      <trkpt lat="45.79153" lon="1.91694">
        <ele>733.4</ele>
        <time>2026-07-08T13:56:21.000Z</time>
      </trkpt>
      <trkpt lat="45.79153" lon="1.91697">
        <ele>733.3</ele>
        <time>2026-07-08T13:56:22.000Z</time>
      </trkpt>
      <trkpt lat="45.79153" lon="1.91699">
        <ele>733</ele>
        <time>2026-07-08T13:56:23.000Z</time>
      </trkpt>
      <trkpt lat="45.79152" lon="1.91702">
        <ele>733.2</ele>
        <time>2026-07-08T13:56:24.000Z</time>
      </trkpt>
      <trkpt lat="45.79152" lon="1.91704">
        <ele>733.5</ele>
        <time>2026-07-08T13:56:25.000Z</time>
      </trkpt>
      <trkpt lat="45.79152" lon="1.91706">
        <ele>733.5</ele>
        <time>2026-07-08T13:56:26.000Z</time>
      </trkpt>
      <trkpt lat="45.79151" lon="1.91708">
        <ele>733.5</ele>
        <time>2026-07-08T13:56:27.000Z</time>
      </trkpt>
      <trkpt lat="45.79151" lon="1.9171">
        <ele>733</ele>
        <time>2026-07-08T13:56:28.000Z</time>
      </trkpt>
      <trkpt lat="45.79151" lon="1.91713">
        <ele>732.9</ele>
        <time>2026-07-08T13:56:29.000Z</time>
      </trkpt>
      <trkpt lat="45.79151" lon="1.91715">
        <ele>732.7</ele>
        <time>2026-07-08T13:56:30.000Z</time>
      </trkpt>
      <trkpt lat="45.79151" lon="1.91718">
        <ele>733</ele>
        <time>2026-07-08T13:56:31.000Z</time>
      </trkpt>
      <trkpt lat="45.7915" lon="1.9172">
        <ele>732.8</ele>
        <time>2026-07-08T13:56:32.000Z</time>
      </trkpt>
      <trkpt lat="45.7915" lon="1.91722">
        <ele>734.4</ele>
        <time>2026-07-08T13:56:33.000Z</time>
      </trkpt>
      <trkpt lat="45.7915" lon="1.91722">
        <ele>732.7</ele>
        <time>2026-07-08T13:56:34.000Z</time>
      </trkpt>
      <trkpt lat="45.7915" lon="1.9172">
        <ele>732.6</ele>
        <time>2026-07-08T13:56:35.000Z</time>
      </trkpt>
      <trkpt lat="45.7915" lon="1.91722">
        <ele>732.6</ele>
        <time>2026-07-08T13:56:36.000Z</time>
      </trkpt>
      <trkpt lat="45.7915" lon="1.91725">
        <ele>732.8</ele>
        <time>2026-07-08T13:56:37.000Z</time>
      </trkpt>
      <trkpt lat="45.79151" lon="1.91727">
        <ele>732.5</ele>
        <time>2026-07-08T13:56:38.000Z</time>
      </trkpt>
      <trkpt lat="45.79151" lon="1.91729">
        <ele>732.2</ele>
        <time>2026-07-08T13:56:39.000Z</time>
      </trkpt>
      <trkpt lat="45.79151" lon="1.91731">
        <ele>731.6</ele>
        <time>2026-07-08T13:56:40.000Z</time>
      </trkpt>
      <trkpt lat="45.79151" lon="1.91734">
        <ele>731.2</ele>
        <time>2026-07-08T13:56:41.000Z</time>
      </trkpt>
      <trkpt lat="45.79151" lon="1.91736">
        <ele>730.6</ele>
        <time>2026-07-08T13:56:42.000Z</time>
      </trkpt>
      <trkpt lat="45.79151" lon="1.91738">
        <ele>730.4</ele>
        <time>2026-07-08T13:56:43.000Z</time>
      </trkpt>
      <trkpt lat="45.79151" lon="1.9174">
        <ele>729.3</ele>
        <time>2026-07-08T13:56:44.000Z</time>
      </trkpt>
      <trkpt lat="45.7915" lon="1.91742">
        <ele>729</ele>
        <time>2026-07-08T13:56:45.000Z</time>
      </trkpt>
      <trkpt lat="45.79149" lon="1.91745">
        <ele>728.9</ele>
        <time>2026-07-08T13:56:46.000Z</time>
      </trkpt>
      <trkpt lat="45.79149" lon="1.91747">
        <ele>728.9</ele>
        <time>2026-07-08T13:56:47.000Z</time>
      </trkpt>
      <trkpt lat="45.79148" lon="1.91749">
        <ele>728.7</ele>
        <time>2026-07-08T13:56:48.000Z</time>
      </trkpt>
      <trkpt lat="45.79148" lon="1.91751">
        <ele>729.2</ele>
        <time>2026-07-08T13:56:49.000Z</time>
      </trkpt>
      <trkpt lat="45.79147" lon="1.91753">
        <ele>728.8</ele>
        <time>2026-07-08T13:56:50.000Z</time>
      </trkpt>
      <trkpt lat="45.79146" lon="1.91756">
        <ele>728.9</ele>
        <time>2026-07-08T13:56:51.000Z</time>
      </trkpt>
      <trkpt lat="45.79146" lon="1.91759">
        <ele>729.4</ele>
        <time>2026-07-08T13:56:52.000Z</time>
      </trkpt>
      <trkpt lat="45.79145" lon="1.91762">
        <ele>729.6</ele>
        <time>2026-07-08T13:56:53.000Z</time>
      </trkpt>
      <trkpt lat="45.79145" lon="1.91764">
        <ele>729</ele>
        <time>2026-07-08T13:56:54.000Z</time>
      </trkpt>
      <trkpt lat="45.79145" lon="1.91767">
        <ele>728.2</ele>
        <time>2026-07-08T13:56:55.000Z</time>
      </trkpt>
      <trkpt lat="45.79145" lon="1.91769">
        <ele>727.5</ele>
        <time>2026-07-08T13:56:56.000Z</time>
      </trkpt>
      <trkpt lat="45.79144" lon="1.91771">
        <ele>727.4</ele>
        <time>2026-07-08T13:56:57.000Z</time>
      </trkpt>
      <trkpt lat="45.79143" lon="1.91772">
        <ele>727.9</ele>
        <time>2026-07-08T13:56:58.000Z</time>
      </trkpt>
      <trkpt lat="45.79142" lon="1.91774">
        <ele>728.7</ele>
        <time>2026-07-08T13:56:59.000Z</time>
      </trkpt>
      <trkpt lat="45.79141" lon="1.91775">
        <ele>728.8</ele>
        <time>2026-07-08T13:57:00.000Z</time>
      </trkpt>
      <trkpt lat="45.7914" lon="1.91777">
        <ele>728.5</ele>
        <time>2026-07-08T13:57:01.000Z</time>
      </trkpt>
      <trkpt lat="45.7914" lon="1.91779">
        <ele>728</ele>
        <time>2026-07-08T13:57:02.000Z</time>
      </trkpt>
      <trkpt lat="45.79139" lon="1.91781">
        <ele>727.4</ele>
        <time>2026-07-08T13:57:03.000Z</time>
      </trkpt>
      <trkpt lat="45.79138" lon="1.91783">
        <ele>727.8</ele>
        <time>2026-07-08T13:57:04.000Z</time>
      </trkpt>
      <trkpt lat="45.79138" lon="1.91786">
        <ele>728.7</ele>
        <time>2026-07-08T13:57:05.000Z</time>
      </trkpt>
      <trkpt lat="45.79137" lon="1.91787">
        <ele>729.4</ele>
        <time>2026-07-08T13:57:06.000Z</time>
      </trkpt>
      <trkpt lat="45.79136" lon="1.91789">
        <ele>732.2</ele>
        <time>2026-07-08T13:57:07.000Z</time>
      </trkpt>
      <trkpt lat="45.79135" lon="1.91791">
        <ele>731.3</ele>
        <time>2026-07-08T13:57:08.000Z</time>
      </trkpt>
      <trkpt lat="45.79134" lon="1.91793">
        <ele>729.8</ele>
        <time>2026-07-08T13:57:09.000Z</time>
      </trkpt>
      <trkpt lat="45.79134" lon="1.91796">
        <ele>728.4</ele>
        <time>2026-07-08T13:57:10.000Z</time>
      </trkpt>
      <trkpt lat="45.79133" lon="1.91798">
        <ele>727.5</ele>
        <time>2026-07-08T13:57:11.000Z</time>
      </trkpt>
      <trkpt lat="45.79132" lon="1.91801">
        <ele>727.8</ele>
        <time>2026-07-08T13:57:12.000Z</time>
      </trkpt>
      <trkpt lat="45.79131" lon="1.91804">
        <ele>728</ele>
        <time>2026-07-08T13:57:13.000Z</time>
      </trkpt>
      <trkpt lat="45.79131" lon="1.91806">
        <ele>728.7</ele>
        <time>2026-07-08T13:57:14.000Z</time>
      </trkpt>
      <trkpt lat="45.7913" lon="1.91809">
        <ele>729.1</ele>
        <time>2026-07-08T13:57:15.000Z</time>
      </trkpt>
      <trkpt lat="45.79129" lon="1.9181">
        <ele>728.9</ele>
        <time>2026-07-08T13:57:16.000Z</time>
      </trkpt>
      <trkpt lat="45.79128" lon="1.91813">
        <ele>728.6</ele>
        <time>2026-07-08T13:57:17.000Z</time>
      </trkpt>
      <trkpt lat="45.79129" lon="1.91817">
        <ele>730.3</ele>
        <time>2026-07-08T13:57:18.000Z</time>
      </trkpt>
      <trkpt lat="45.7913" lon="1.91819">
        <ele>729.5</ele>
        <time>2026-07-08T13:57:19.000Z</time>
      </trkpt>
      <trkpt lat="45.79128" lon="1.9182">
        <ele>727</ele>
        <time>2026-07-08T13:57:20.000Z</time>
      </trkpt>
      <trkpt lat="45.79127" lon="1.91822">
        <ele>727.9</ele>
        <time>2026-07-08T13:57:21.000Z</time>
      </trkpt>
      <trkpt lat="45.79127" lon="1.91824">
        <ele>727.9</ele>
        <time>2026-07-08T13:57:22.000Z</time>
      </trkpt>
      <trkpt lat="45.79126" lon="1.91825">
        <ele>727.9</ele>
        <time>2026-07-08T13:57:23.000Z</time>
      </trkpt>
      <trkpt lat="45.79124" lon="1.91825">
        <ele>728.3</ele>
        <time>2026-07-08T13:57:24.000Z</time>
      </trkpt>
      <trkpt lat="45.79123" lon="1.91826">
        <ele>728.1</ele>
        <time>2026-07-08T13:57:25.000Z</time>
      </trkpt>
      <trkpt lat="45.79122" lon="1.91828">
        <ele>727.9</ele>
        <time>2026-07-08T13:57:26.000Z</time>
      </trkpt>
      <trkpt lat="45.79121" lon="1.91831">
        <ele>727.9</ele>
        <time>2026-07-08T13:57:27.000Z</time>
      </trkpt>
      <trkpt lat="45.7912" lon="1.91833">
        <ele>726.8</ele>
        <time>2026-07-08T13:57:28.000Z</time>
      </trkpt>
      <trkpt lat="45.79119" lon="1.91835">
        <ele>727.1</ele>
        <time>2026-07-08T13:57:29.000Z</time>
      </trkpt>
      <trkpt lat="45.79119" lon="1.91837">
        <ele>727.4</ele>
        <time>2026-07-08T13:57:30.000Z</time>
      </trkpt>
      <trkpt lat="45.79118" lon="1.91839">
        <ele>726.6</ele>
        <time>2026-07-08T13:57:31.000Z</time>
      </trkpt>
      <trkpt lat="45.79118" lon="1.91842">
        <ele>725.4</ele>
        <time>2026-07-08T13:57:32.000Z</time>
      </trkpt>
      <trkpt lat="45.79117" lon="1.91844">
        <ele>725.4</ele>
        <time>2026-07-08T13:57:33.000Z</time>
      </trkpt>
      <trkpt lat="45.79117" lon="1.91847">
        <ele>724.2</ele>
        <time>2026-07-08T13:57:34.000Z</time>
      </trkpt>
      <trkpt lat="45.79116" lon="1.91849">
        <ele>723.3</ele>
        <time>2026-07-08T13:57:35.000Z</time>
      </trkpt>
      <trkpt lat="45.79116" lon="1.91851">
        <ele>721.8</ele>
        <time>2026-07-08T13:57:36.000Z</time>
      </trkpt>
      <trkpt lat="45.79116" lon="1.91853">
        <ele>721.5</ele>
        <time>2026-07-08T13:57:37.000Z</time>
      </trkpt>
      <trkpt lat="45.79118" lon="1.91855">
        <ele>721.7</ele>
        <time>2026-07-08T13:57:38.000Z</time>
      </trkpt>
      <trkpt lat="45.79116" lon="1.91857">
        <ele>721.8</ele>
        <time>2026-07-08T13:57:39.000Z</time>
      </trkpt>
      <trkpt lat="45.79119" lon="1.91851">
        <ele>715.9</ele>
        <time>2026-07-08T13:57:40.000Z</time>
      </trkpt>
      <trkpt lat="45.7912" lon="1.9185">
        <ele>715.9</ele>
        <time>2026-07-08T13:57:41.000Z</time>
      </trkpt>
      <trkpt lat="45.7912" lon="1.91849">
        <ele>715.9</ele>
        <time>2026-07-08T13:57:42.000Z</time>
      </trkpt>
      <trkpt lat="45.7912" lon="1.9185">
        <ele>715.2</ele>
        <time>2026-07-08T13:57:43.000Z</time>
      </trkpt>
      <trkpt lat="45.79119" lon="1.91851">
        <ele>715.5</ele>
        <time>2026-07-08T13:57:44.000Z</time>
      </trkpt>
      <trkpt lat="45.79118" lon="1.91854">
        <ele>715.9</ele>
        <time>2026-07-08T13:57:45.000Z</time>
      </trkpt>
      <trkpt lat="45.79117" lon="1.91856">
        <ele>715.5</ele>
        <time>2026-07-08T13:57:46.000Z</time>
      </trkpt>
      <trkpt lat="45.79115" lon="1.91859">
        <ele>717.3</ele>
        <time>2026-07-08T13:57:47.000Z</time>
      </trkpt>
      <trkpt lat="45.79114" lon="1.91861">
        <ele>716.8</ele>
        <time>2026-07-08T13:57:48.000Z</time>
      </trkpt>
      <trkpt lat="45.79112" lon="1.91863">
        <ele>716.9</ele>
        <time>2026-07-08T13:57:49.000Z</time>
      </trkpt>
      <trkpt lat="45.79111" lon="1.91866">
        <ele>717.7</ele>
        <time>2026-07-08T13:57:50.000Z</time>
      </trkpt>
      <trkpt lat="45.7911" lon="1.91869">
        <ele>718</ele>
        <time>2026-07-08T13:57:51.000Z</time>
      </trkpt>
      <trkpt lat="45.79109" lon="1.91871">
        <ele>718.5</ele>
        <time>2026-07-08T13:57:52.000Z</time>
      </trkpt>
      <trkpt lat="45.79109" lon="1.91873">
        <ele>718.9</ele>
        <time>2026-07-08T13:57:53.000Z</time>
      </trkpt>
      <trkpt lat="45.79108" lon="1.91876">
        <ele>719.8</ele>
        <time>2026-07-08T13:57:54.000Z</time>
      </trkpt>
      <trkpt lat="45.79107" lon="1.91879">
        <ele>720.1</ele>
        <time>2026-07-08T13:57:55.000Z</time>
      </trkpt>
      <trkpt lat="45.79106" lon="1.91882">
        <ele>720.3</ele>
        <time>2026-07-08T13:57:56.000Z</time>
      </trkpt>
      <trkpt lat="45.79105" lon="1.91885">
        <ele>720.5</ele>
        <time>2026-07-08T13:57:57.000Z</time>
      </trkpt>
      <trkpt lat="45.79104" lon="1.91891">
        <ele>720.7</ele>
        <time>2026-07-08T13:57:58.000Z</time>
      </trkpt>
      <trkpt lat="45.79104" lon="1.91892">
        <ele>720.9</ele>
        <time>2026-07-08T13:57:59.000Z</time>
      </trkpt>
      <trkpt lat="45.79103" lon="1.91894">
        <ele>720.9</ele>
        <time>2026-07-08T13:58:00.000Z</time>
      </trkpt>
      <trkpt lat="45.79102" lon="1.91897">
        <ele>720.6</ele>
        <time>2026-07-08T13:58:01.000Z</time>
      </trkpt>
      <trkpt lat="45.79102" lon="1.919">
        <ele>721.5</ele>
        <time>2026-07-08T13:58:02.000Z</time>
      </trkpt>
      <trkpt lat="45.79101" lon="1.91903">
        <ele>721</ele>
        <time>2026-07-08T13:58:03.000Z</time>
      </trkpt>
      <trkpt lat="45.791" lon="1.91905">
        <ele>720.5</ele>
        <time>2026-07-08T13:58:04.000Z</time>
      </trkpt>
      <trkpt lat="45.79099" lon="1.91908">
        <ele>721</ele>
        <time>2026-07-08T13:58:05.000Z</time>
      </trkpt>
      <trkpt lat="45.79098" lon="1.9191">
        <ele>722.4</ele>
        <time>2026-07-08T13:58:06.000Z</time>
      </trkpt>
      <trkpt lat="45.79097" lon="1.91912">
        <ele>722.5</ele>
        <time>2026-07-08T13:58:07.000Z</time>
      </trkpt>
      <trkpt lat="45.79096" lon="1.91915">
        <ele>722</ele>
        <time>2026-07-08T13:58:08.000Z</time>
      </trkpt>
      <trkpt lat="45.79094" lon="1.91917">
        <ele>722.2</ele>
        <time>2026-07-08T13:58:09.000Z</time>
      </trkpt>
      <trkpt lat="45.79093" lon="1.91919">
        <ele>720.1</ele>
        <time>2026-07-08T13:58:10.000Z</time>
      </trkpt>
      <trkpt lat="45.79094" lon="1.91925">
        <ele>720.5</ele>
        <time>2026-07-08T13:58:11.000Z</time>
      </trkpt>
      <trkpt lat="45.79096" lon="1.91927">
        <ele>720.2</ele>
        <time>2026-07-08T13:58:12.000Z</time>
      </trkpt>
      <trkpt lat="45.79092" lon="1.9193">
        <ele>720.2</ele>
        <time>2026-07-08T13:58:13.000Z</time>
      </trkpt>
      <trkpt lat="45.79091" lon="1.9193">
        <ele>721.5</ele>
        <time>2026-07-08T13:58:14.000Z</time>
      </trkpt>
      <trkpt lat="45.79092" lon="1.91932">
        <ele>722.6</ele>
        <time>2026-07-08T13:58:15.000Z</time>
      </trkpt>
      <trkpt lat="45.79093" lon="1.91933">
        <ele>723.7</ele>
        <time>2026-07-08T13:58:16.000Z</time>
      </trkpt>
      <trkpt lat="45.79092" lon="1.91935">
        <ele>723.9</ele>
        <time>2026-07-08T13:58:17.000Z</time>
      </trkpt>
      <trkpt lat="45.79091" lon="1.91936">
        <ele>723.6</ele>
        <time>2026-07-08T13:58:18.000Z</time>
      </trkpt>
      <trkpt lat="45.7909" lon="1.91937">
        <ele>724.9</ele>
        <time>2026-07-08T13:58:19.000Z</time>
      </trkpt>
      <trkpt lat="45.7909" lon="1.91935">
        <ele>723.1</ele>
        <time>2026-07-08T13:58:20.000Z</time>
      </trkpt>
      <trkpt lat="45.79091" lon="1.91934">
        <ele>723.1</ele>
        <time>2026-07-08T13:58:21.000Z</time>
      </trkpt>
      <trkpt lat="45.79091" lon="1.91934">
        <ele>723.1</ele>
        <time>2026-07-08T13:58:22.000Z</time>
      </trkpt>
      <trkpt lat="45.79091" lon="1.91934">
        <ele>723.1</ele>
        <time>2026-07-08T13:58:23.000Z</time>
      </trkpt>
      <trkpt lat="45.7909" lon="1.91934">
        <ele>722.7</ele>
        <time>2026-07-08T13:58:24.000Z</time>
      </trkpt>
      <trkpt lat="45.7909" lon="1.91934">
        <ele>722.7</ele>
        <time>2026-07-08T13:58:25.000Z</time>
      </trkpt>
      <trkpt lat="45.7909" lon="1.91933">
        <ele>722.7</ele>
        <time>2026-07-08T13:58:26.000Z</time>
      </trkpt>
      <trkpt lat="45.7909" lon="1.91933">
        <ele>722.7</ele>
        <time>2026-07-08T13:58:27.000Z</time>
      </trkpt>
      <trkpt lat="45.7909" lon="1.91933">
        <ele>722.7</ele>
        <time>2026-07-08T13:58:28.000Z</time>
      </trkpt>
      <trkpt lat="45.79089" lon="1.91934">
        <ele>722.4</ele>
        <time>2026-07-08T13:58:29.000Z</time>
      </trkpt>
      <trkpt lat="45.79089" lon="1.91935">
        <ele>722.2</ele>
        <time>2026-07-08T13:58:30.000Z</time>
      </trkpt>
      <trkpt lat="45.79088" lon="1.91937">
        <ele>722.4</ele>
        <time>2026-07-08T13:58:31.000Z</time>
      </trkpt>
      <trkpt lat="45.79088" lon="1.91938">
        <ele>721.3</ele>
        <time>2026-07-08T13:58:32.000Z</time>
      </trkpt>
      <trkpt lat="45.79087" lon="1.91939">
        <ele>720.8</ele>
        <time>2026-07-08T13:58:33.000Z</time>
      </trkpt>
      <trkpt lat="45.79086" lon="1.91941">
        <ele>721.1</ele>
        <time>2026-07-08T13:58:34.000Z</time>
      </trkpt>
      <trkpt lat="45.79086" lon="1.91943">
        <ele>720.6</ele>
        <time>2026-07-08T13:58:35.000Z</time>
      </trkpt>
      <trkpt lat="45.79085" lon="1.91945">
        <ele>720.6</ele>
        <time>2026-07-08T13:58:36.000Z</time>
      </trkpt>
      <trkpt lat="45.79085" lon="1.91947">
        <ele>720</ele>
        <time>2026-07-08T13:58:37.000Z</time>
      </trkpt>
      <trkpt lat="45.79084" lon="1.91948">
        <ele>719.3</ele>
        <time>2026-07-08T13:58:38.000Z</time>
      </trkpt>
      <trkpt lat="45.79084" lon="1.9195">
        <ele>719</ele>
        <time>2026-07-08T13:58:39.000Z</time>
      </trkpt>
      <trkpt lat="45.79083" lon="1.91952">
        <ele>718.5</ele>
        <time>2026-07-08T13:58:40.000Z</time>
      </trkpt>
      <trkpt lat="45.79082" lon="1.91954">
        <ele>719.4</ele>
        <time>2026-07-08T13:58:41.000Z</time>
      </trkpt>
      <trkpt lat="45.79081" lon="1.91956">
        <ele>720.3</ele>
        <time>2026-07-08T13:58:42.000Z</time>
      </trkpt>
      <trkpt lat="45.79079" lon="1.91958">
        <ele>720.1</ele>
        <time>2026-07-08T13:58:43.000Z</time>
      </trkpt>
      <trkpt lat="45.79079" lon="1.91961">
        <ele>720.6</ele>
        <time>2026-07-08T13:58:44.000Z</time>
      </trkpt>
      <trkpt lat="45.79078" lon="1.91963">
        <ele>720.1</ele>
        <time>2026-07-08T13:58:45.000Z</time>
      </trkpt>
      <trkpt lat="45.79077" lon="1.91965">
        <ele>719.7</ele>
        <time>2026-07-08T13:58:46.000Z</time>
      </trkpt>
      <trkpt lat="45.79076" lon="1.91966">
        <ele>719.6</ele>
        <time>2026-07-08T13:58:47.000Z</time>
      </trkpt>
      <trkpt lat="45.79075" lon="1.91968">
        <ele>717.9</ele>
        <time>2026-07-08T13:58:48.000Z</time>
      </trkpt>
      <trkpt lat="45.79074" lon="1.9197">
        <ele>716.7</ele>
        <time>2026-07-08T13:58:49.000Z</time>
      </trkpt>
      <trkpt lat="45.79073" lon="1.91972">
        <ele>717.6</ele>
        <time>2026-07-08T13:58:50.000Z</time>
      </trkpt>
      <trkpt lat="45.79073" lon="1.91974">
        <ele>717.8</ele>
        <time>2026-07-08T13:58:51.000Z</time>
      </trkpt>
      <trkpt lat="45.79073" lon="1.91976">
        <ele>717.1</ele>
        <time>2026-07-08T13:58:52.000Z</time>
      </trkpt>
      <trkpt lat="45.79072" lon="1.91978">
        <ele>716.7</ele>
        <time>2026-07-08T13:58:53.000Z</time>
      </trkpt>
      <trkpt lat="45.79072" lon="1.91979">
        <ele>715.3</ele>
        <time>2026-07-08T13:58:54.000Z</time>
      </trkpt>
      <trkpt lat="45.79072" lon="1.91981">
        <ele>714.7</ele>
        <time>2026-07-08T13:58:55.000Z</time>
      </trkpt>
      <trkpt lat="45.79073" lon="1.91983">
        <ele>714.5</ele>
        <time>2026-07-08T13:58:56.000Z</time>
      </trkpt>
      <trkpt lat="45.79072" lon="1.91985">
        <ele>714.2</ele>
        <time>2026-07-08T13:58:57.000Z</time>
      </trkpt>
      <trkpt lat="45.79071" lon="1.91987">
        <ele>714.1</ele>
        <time>2026-07-08T13:58:58.000Z</time>
      </trkpt>
      <trkpt lat="45.7907" lon="1.91989">
        <ele>714.1</ele>
        <time>2026-07-08T13:58:59.000Z</time>
      </trkpt>
      <trkpt lat="45.79069" lon="1.91991">
        <ele>713.7</ele>
        <time>2026-07-08T13:59:00.000Z</time>
      </trkpt>
      <trkpt lat="45.79068" lon="1.91994">
        <ele>714</ele>
        <time>2026-07-08T13:59:01.000Z</time>
      </trkpt>
      <trkpt lat="45.79067" lon="1.91996">
        <ele>713.8</ele>
        <time>2026-07-08T13:59:02.000Z</time>
      </trkpt>
      <trkpt lat="45.79066" lon="1.91999">
        <ele>714.3</ele>
        <time>2026-07-08T13:59:03.000Z</time>
      </trkpt>
      <trkpt lat="45.79065" lon="1.92001">
        <ele>714.7</ele>
        <time>2026-07-08T13:59:04.000Z</time>
      </trkpt>
      <trkpt lat="45.79064" lon="1.92004">
        <ele>714.9</ele>
        <time>2026-07-08T13:59:05.000Z</time>
      </trkpt>
      <trkpt lat="45.79063" lon="1.92006">
        <ele>714.8</ele>
        <time>2026-07-08T13:59:06.000Z</time>
      </trkpt>
      <trkpt lat="45.79062" lon="1.92008">
        <ele>714.6</ele>
        <time>2026-07-08T13:59:07.000Z</time>
      </trkpt>
      <trkpt lat="45.79061" lon="1.9201">
        <ele>714.8</ele>
        <time>2026-07-08T13:59:08.000Z</time>
      </trkpt>
      <trkpt lat="45.7906" lon="1.92013">
        <ele>715.5</ele>
        <time>2026-07-08T13:59:09.000Z</time>
      </trkpt>
      <trkpt lat="45.79059" lon="1.92015">
        <ele>716.1</ele>
        <time>2026-07-08T13:59:10.000Z</time>
      </trkpt>
      <trkpt lat="45.79058" lon="1.92018">
        <ele>716.2</ele>
        <time>2026-07-08T13:59:11.000Z</time>
      </trkpt>
      <trkpt lat="45.79057" lon="1.9202">
        <ele>715.9</ele>
        <time>2026-07-08T13:59:12.000Z</time>
      </trkpt>
      <trkpt lat="45.79056" lon="1.92022">
        <ele>716.7</ele>
        <time>2026-07-08T13:59:13.000Z</time>
      </trkpt>
      <trkpt lat="45.79055" lon="1.92024">
        <ele>717.4</ele>
        <time>2026-07-08T13:59:14.000Z</time>
      </trkpt>
      <trkpt lat="45.79054" lon="1.92027">
        <ele>718</ele>
        <time>2026-07-08T13:59:15.000Z</time>
      </trkpt>
      <trkpt lat="45.79054" lon="1.92029">
        <ele>718.7</ele>
        <time>2026-07-08T13:59:16.000Z</time>
      </trkpt>
      <trkpt lat="45.79053" lon="1.92032">
        <ele>719.1</ele>
        <time>2026-07-08T13:59:17.000Z</time>
      </trkpt>
      <trkpt lat="45.79052" lon="1.92034">
        <ele>718.7</ele>
        <time>2026-07-08T13:59:18.000Z</time>
      </trkpt>
      <trkpt lat="45.79051" lon="1.92037">
        <ele>719</ele>
        <time>2026-07-08T13:59:19.000Z</time>
      </trkpt>
      <trkpt lat="45.7905" lon="1.92039">
        <ele>718.8</ele>
        <time>2026-07-08T13:59:20.000Z</time>
      </trkpt>
      <trkpt lat="45.79049" lon="1.92041">
        <ele>718.9</ele>
        <time>2026-07-08T13:59:21.000Z</time>
      </trkpt>
      <trkpt lat="45.79049" lon="1.92043">
        <ele>719.2</ele>
        <time>2026-07-08T13:59:22.000Z</time>
      </trkpt>
      <trkpt lat="45.79047" lon="1.92046">
        <ele>719.7</ele>
        <time>2026-07-08T13:59:23.000Z</time>
      </trkpt>
      <trkpt lat="45.79046" lon="1.92048">
        <ele>719.8</ele>
        <time>2026-07-08T13:59:24.000Z</time>
      </trkpt>
      <trkpt lat="45.79045" lon="1.9205">
        <ele>719.7</ele>
        <time>2026-07-08T13:59:25.000Z</time>
      </trkpt>
      <trkpt lat="45.79044" lon="1.92052">
        <ele>720.2</ele>
        <time>2026-07-08T13:59:26.000Z</time>
      </trkpt>
      <trkpt lat="45.79043" lon="1.92054">
        <ele>720.9</ele>
        <time>2026-07-08T13:59:27.000Z</time>
      </trkpt>
      <trkpt lat="45.79042" lon="1.92056">
        <ele>721.4</ele>
        <time>2026-07-08T13:59:28.000Z</time>
      </trkpt>
      <trkpt lat="45.79041" lon="1.92058">
        <ele>721.9</ele>
        <time>2026-07-08T13:59:29.000Z</time>
      </trkpt>
      <trkpt lat="45.79039" lon="1.9206">
        <ele>723.1</ele>
        <time>2026-07-08T13:59:30.000Z</time>
      </trkpt>
      <trkpt lat="45.79039" lon="1.92062">
        <ele>723.7</ele>
        <time>2026-07-08T13:59:31.000Z</time>
      </trkpt>
      <trkpt lat="45.79038" lon="1.92064">
        <ele>723.9</ele>
        <time>2026-07-08T13:59:32.000Z</time>
      </trkpt>
      <trkpt lat="45.79037" lon="1.92066">
        <ele>723.6</ele>
        <time>2026-07-08T13:59:33.000Z</time>
      </trkpt>
      <trkpt lat="45.79036" lon="1.92069">
        <ele>723.1</ele>
        <time>2026-07-08T13:59:34.000Z</time>
      </trkpt>
      <trkpt lat="45.79035" lon="1.92071">
        <ele>722.6</ele>
        <time>2026-07-08T13:59:35.000Z</time>
      </trkpt>
      <trkpt lat="45.79034" lon="1.92073">
        <ele>721.8</ele>
        <time>2026-07-08T13:59:36.000Z</time>
      </trkpt>
      <trkpt lat="45.79033" lon="1.92075">
        <ele>721.5</ele>
        <time>2026-07-08T13:59:37.000Z</time>
      </trkpt>
      <trkpt lat="45.79032" lon="1.92078">
        <ele>721.2</ele>
        <time>2026-07-08T13:59:38.000Z</time>
      </trkpt>
      <trkpt lat="45.79031" lon="1.9208">
        <ele>721.1</ele>
        <time>2026-07-08T13:59:39.000Z</time>
      </trkpt>
      <trkpt lat="45.79031" lon="1.92082">
        <ele>721.2</ele>
        <time>2026-07-08T13:59:40.000Z</time>
      </trkpt>
      <trkpt lat="45.7903" lon="1.92085">
        <ele>721.6</ele>
        <time>2026-07-08T13:59:41.000Z</time>
      </trkpt>
      <trkpt lat="45.79029" lon="1.92087">
        <ele>721.6</ele>
        <time>2026-07-08T13:59:42.000Z</time>
      </trkpt>
      <trkpt lat="45.79028" lon="1.9209">
        <ele>721.8</ele>
        <time>2026-07-08T13:59:43.000Z</time>
      </trkpt>
      <trkpt lat="45.79027" lon="1.92092">
        <ele>721.2</ele>
        <time>2026-07-08T13:59:44.000Z</time>
      </trkpt>
      <trkpt lat="45.79026" lon="1.92094">
        <ele>721.1</ele>
        <time>2026-07-08T13:59:45.000Z</time>
      </trkpt>
      <trkpt lat="45.79026" lon="1.92096">
        <ele>720.8</ele>
        <time>2026-07-08T13:59:46.000Z</time>
      </trkpt>
      <trkpt lat="45.79025" lon="1.92098">
        <ele>720.3</ele>
        <time>2026-07-08T13:59:47.000Z</time>
      </trkpt>
      <trkpt lat="45.79025" lon="1.921">
        <ele>720.1</ele>
        <time>2026-07-08T13:59:48.000Z</time>
      </trkpt>
      <trkpt lat="45.79024" lon="1.92102">
        <ele>720</ele>
        <time>2026-07-08T13:59:49.000Z</time>
      </trkpt>
      <trkpt lat="45.79022" lon="1.92104">
        <ele>719.6</ele>
        <time>2026-07-08T13:59:50.000Z</time>
      </trkpt>
      <trkpt lat="45.79021" lon="1.92106">
        <ele>719.3</ele>
        <time>2026-07-08T13:59:51.000Z</time>
      </trkpt>
      <trkpt lat="45.7902" lon="1.92108">
        <ele>719.1</ele>
        <time>2026-07-08T13:59:52.000Z</time>
      </trkpt>
      <trkpt lat="45.79019" lon="1.92109">
        <ele>718.7</ele>
        <time>2026-07-08T13:59:53.000Z</time>
      </trkpt>
      <trkpt lat="45.79017" lon="1.92111">
        <ele>718.2</ele>
        <time>2026-07-08T13:59:54.000Z</time>
      </trkpt>
      <trkpt lat="45.79016" lon="1.92113">
        <ele>717.7</ele>
        <time>2026-07-08T13:59:55.000Z</time>
      </trkpt>
      <trkpt lat="45.79015" lon="1.92115">
        <ele>720.2</ele>
        <time>2026-07-08T13:59:56.000Z</time>
      </trkpt>
      <trkpt lat="45.79014" lon="1.92118">
        <ele>719.8</ele>
        <time>2026-07-08T13:59:57.000Z</time>
      </trkpt>
      <trkpt lat="45.79012" lon="1.9212">
        <ele>720.6</ele>
        <time>2026-07-08T13:59:58.000Z</time>
      </trkpt>
      <trkpt lat="45.79011" lon="1.92122">
        <ele>720.3</ele>
        <time>2026-07-08T13:59:59.000Z</time>
      </trkpt>
      <trkpt lat="45.7901" lon="1.92124">
        <ele>720.1</ele>
        <time>2026-07-08T14:00:00.000Z</time>
      </trkpt>
      <trkpt lat="45.79009" lon="1.92127">
        <ele>719.9</ele>
        <time>2026-07-08T14:00:01.000Z</time>
      </trkpt>
      <trkpt lat="45.79008" lon="1.92129">
        <ele>719.8</ele>
        <time>2026-07-08T14:00:02.000Z</time>
      </trkpt>
      <trkpt lat="45.79007" lon="1.92131">
        <ele>719.7</ele>
        <time>2026-07-08T14:00:03.000Z</time>
      </trkpt>
      <trkpt lat="45.79007" lon="1.92134">
        <ele>719</ele>
        <time>2026-07-08T14:00:04.000Z</time>
      </trkpt>
      <trkpt lat="45.79006" lon="1.92136">
        <ele>718.8</ele>
        <time>2026-07-08T14:00:05.000Z</time>
      </trkpt>
      <trkpt lat="45.79005" lon="1.92138">
        <ele>718.1</ele>
        <time>2026-07-08T14:00:06.000Z</time>
      </trkpt>
      <trkpt lat="45.79004" lon="1.9214">
        <ele>717.7</ele>
        <time>2026-07-08T14:00:07.000Z</time>
      </trkpt>
      <trkpt lat="45.79003" lon="1.92142">
        <ele>717.5</ele>
        <time>2026-07-08T14:00:08.000Z</time>
      </trkpt>
      <trkpt lat="45.79002" lon="1.92144">
        <ele>717.3</ele>
        <time>2026-07-08T14:00:09.000Z</time>
      </trkpt>
      <trkpt lat="45.79002" lon="1.92146">
        <ele>717.4</ele>
        <time>2026-07-08T14:00:10.000Z</time>
      </trkpt>
      <trkpt lat="45.79001" lon="1.92148">
        <ele>717.3</ele>
        <time>2026-07-08T14:00:11.000Z</time>
      </trkpt>
      <trkpt lat="45.79" lon="1.9215">
        <ele>718</ele>
        <time>2026-07-08T14:00:12.000Z</time>
      </trkpt>
      <trkpt lat="45.78998" lon="1.92151">
        <ele>723.1</ele>
        <time>2026-07-08T14:00:13.000Z</time>
      </trkpt>
      <trkpt lat="45.78999" lon="1.9215">
        <ele>719.8</ele>
        <time>2026-07-08T14:00:14.000Z</time>
      </trkpt>
      <trkpt lat="45.78998" lon="1.92154">
        <ele>721.1</ele>
        <time>2026-07-08T14:00:15.000Z</time>
      </trkpt>
      <trkpt lat="45.78997" lon="1.92157">
        <ele>722.3</ele>
        <time>2026-07-08T14:00:16.000Z</time>
      </trkpt>
      <trkpt lat="45.78997" lon="1.92159">
        <ele>723.1</ele>
        <time>2026-07-08T14:00:17.000Z</time>
      </trkpt>
      <trkpt lat="45.78997" lon="1.92158">
        <ele>720.8</ele>
        <time>2026-07-08T14:00:18.000Z</time>
      </trkpt>
      <trkpt lat="45.78998" lon="1.92157">
        <ele>720.7</ele>
        <time>2026-07-08T14:00:19.000Z</time>
      </trkpt>
      <trkpt lat="45.78998" lon="1.92157">
        <ele>720.7</ele>
        <time>2026-07-08T14:00:20.000Z</time>
      </trkpt>
      <trkpt lat="45.78998" lon="1.92157">
        <ele>720.8</ele>
        <time>2026-07-08T14:00:21.000Z</time>
      </trkpt>
      <trkpt lat="45.78998" lon="1.92156">
        <ele>720.8</ele>
        <time>2026-07-08T14:00:22.000Z</time>
      </trkpt>
      <trkpt lat="45.78996" lon="1.92159">
        <ele>720.7</ele>
        <time>2026-07-08T14:00:23.000Z</time>
      </trkpt>
      <trkpt lat="45.78996" lon="1.92159">
        <ele>720.7</ele>
        <time>2026-07-08T14:00:24.000Z</time>
      </trkpt>
      <trkpt lat="45.78996" lon="1.92159">
        <ele>720.6</ele>
        <time>2026-07-08T14:00:25.000Z</time>
      </trkpt>
      <trkpt lat="45.78996" lon="1.92159">
        <ele>720.5</ele>
        <time>2026-07-08T14:00:26.000Z</time>
      </trkpt>
      <trkpt lat="45.78996" lon="1.92159">
        <ele>720.2</ele>
        <time>2026-07-08T14:00:27.000Z</time>
      </trkpt>
      <trkpt lat="45.78996" lon="1.92159">
        <ele>719.7</ele>
        <time>2026-07-08T14:00:28.000Z</time>
      </trkpt>
      <trkpt lat="45.78996" lon="1.9216">
        <ele>719.3</ele>
        <time>2026-07-08T14:00:29.000Z</time>
      </trkpt>
      <trkpt lat="45.78995" lon="1.92161">
        <ele>718.9</ele>
        <time>2026-07-08T14:00:30.000Z</time>
      </trkpt>
      <trkpt lat="45.78994" lon="1.92163">
        <ele>718.9</ele>
        <time>2026-07-08T14:00:31.000Z</time>
      </trkpt>
      <trkpt lat="45.78993" lon="1.92165">
        <ele>718.7</ele>
        <time>2026-07-08T14:00:32.000Z</time>
      </trkpt>
      <trkpt lat="45.78992" lon="1.92167">
        <ele>718.9</ele>
        <time>2026-07-08T14:00:33.000Z</time>
      </trkpt>
      <trkpt lat="45.78991" lon="1.92168">
        <ele>719.1</ele>
        <time>2026-07-08T14:00:34.000Z</time>
      </trkpt>
      <trkpt lat="45.7899" lon="1.92169">
        <ele>718.7</ele>
        <time>2026-07-08T14:00:35.000Z</time>
      </trkpt>
      <trkpt lat="45.78989" lon="1.9217">
        <ele>717.3</ele>
        <time>2026-07-08T14:00:36.000Z</time>
      </trkpt>
      <trkpt lat="45.78988" lon="1.92171">
        <ele>717.3</ele>
        <time>2026-07-08T14:00:37.000Z</time>
      </trkpt>
      <trkpt lat="45.78988" lon="1.92173">
        <ele>717.8</ele>
        <time>2026-07-08T14:00:38.000Z</time>
      </trkpt>
      <trkpt lat="45.78987" lon="1.92174">
        <ele>717.1</ele>
        <time>2026-07-08T14:00:39.000Z</time>
      </trkpt>
      <trkpt lat="45.78986" lon="1.92176">
        <ele>716.6</ele>
        <time>2026-07-08T14:00:40.000Z</time>
      </trkpt>
      <trkpt lat="45.78985" lon="1.92177">
        <ele>716.1</ele>
        <time>2026-07-08T14:00:41.000Z</time>
      </trkpt>
      <trkpt lat="45.78984" lon="1.92179">
        <ele>716.7</ele>
        <time>2026-07-08T14:00:42.000Z</time>
      </trkpt>
      <trkpt lat="45.78983" lon="1.9218">
        <ele>716.7</ele>
        <time>2026-07-08T14:00:43.000Z</time>
      </trkpt>
      <trkpt lat="45.78982" lon="1.92182">
        <ele>716</ele>
        <time>2026-07-08T14:00:44.000Z</time>
      </trkpt>
      <trkpt lat="45.78981" lon="1.92184">
        <ele>716.8</ele>
        <time>2026-07-08T14:00:45.000Z</time>
      </trkpt>
      <trkpt lat="45.7898" lon="1.92186">
        <ele>717</ele>
        <time>2026-07-08T14:00:46.000Z</time>
      </trkpt>
      <trkpt lat="45.78979" lon="1.92188">
        <ele>716.4</ele>
        <time>2026-07-08T14:00:47.000Z</time>
      </trkpt>
      <trkpt lat="45.78978" lon="1.92189">
        <ele>716.1</ele>
        <time>2026-07-08T14:00:48.000Z</time>
      </trkpt>
      <trkpt lat="45.78977" lon="1.92191">
        <ele>715.5</ele>
        <time>2026-07-08T14:00:49.000Z</time>
      </trkpt>
      <trkpt lat="45.78976" lon="1.92192">
        <ele>715.5</ele>
        <time>2026-07-08T14:00:50.000Z</time>
      </trkpt>
      <trkpt lat="45.78974" lon="1.92194">
        <ele>714.9</ele>
        <time>2026-07-08T14:00:51.000Z</time>
      </trkpt>
      <trkpt lat="45.78973" lon="1.92195">
        <ele>714.6</ele>
        <time>2026-07-08T14:00:52.000Z</time>
      </trkpt>
      <trkpt lat="45.78972" lon="1.92197">
        <ele>714.7</ele>
        <time>2026-07-08T14:00:53.000Z</time>
      </trkpt>
      <trkpt lat="45.7897" lon="1.92198">
        <ele>714.7</ele>
        <time>2026-07-08T14:00:54.000Z</time>
      </trkpt>
      <trkpt lat="45.78969" lon="1.922">
        <ele>714.7</ele>
        <time>2026-07-08T14:00:55.000Z</time>
      </trkpt>
      <trkpt lat="45.78968" lon="1.92202">
        <ele>714.7</ele>
        <time>2026-07-08T14:00:56.000Z</time>
      </trkpt>
      <trkpt lat="45.78967" lon="1.92203">
        <ele>714.3</ele>
        <time>2026-07-08T14:00:57.000Z</time>
      </trkpt>
      <trkpt lat="45.78965" lon="1.92205">
        <ele>714</ele>
        <time>2026-07-08T14:00:58.000Z</time>
      </trkpt>
      <trkpt lat="45.78963" lon="1.92207">
        <ele>714.1</ele>
        <time>2026-07-08T14:00:59.000Z</time>
      </trkpt>
      <trkpt lat="45.78961" lon="1.92208">
        <ele>715.3</ele>
        <time>2026-07-08T14:01:00.000Z</time>
      </trkpt>
      <trkpt lat="45.7896" lon="1.9221">
        <ele>715.2</ele>
        <time>2026-07-08T14:01:01.000Z</time>
      </trkpt>
      <trkpt lat="45.7896" lon="1.92212">
        <ele>714.8</ele>
        <time>2026-07-08T14:01:02.000Z</time>
      </trkpt>
      <trkpt lat="45.78959" lon="1.92214">
        <ele>714.8</ele>
        <time>2026-07-08T14:01:03.000Z</time>
      </trkpt>
      <trkpt lat="45.78959" lon="1.92217">
        <ele>714.5</ele>
        <time>2026-07-08T14:01:04.000Z</time>
      </trkpt>
      <trkpt lat="45.78959" lon="1.92219">
        <ele>714.5</ele>
        <time>2026-07-08T14:01:05.000Z</time>
      </trkpt>
      <trkpt lat="45.78959" lon="1.92222">
        <ele>714.2</ele>
        <time>2026-07-08T14:01:06.000Z</time>
      </trkpt>
      <trkpt lat="45.7896" lon="1.92223">
        <ele>714.1</ele>
        <time>2026-07-08T14:01:07.000Z</time>
      </trkpt>
      <trkpt lat="45.7896" lon="1.92225">
        <ele>714</ele>
        <time>2026-07-08T14:01:08.000Z</time>
      </trkpt>
      <trkpt lat="45.7896" lon="1.92227">
        <ele>715</ele>
        <time>2026-07-08T14:01:09.000Z</time>
      </trkpt>
      <trkpt lat="45.7896" lon="1.92227">
        <ele>714.5</ele>
        <time>2026-07-08T14:01:10.000Z</time>
      </trkpt>
      <trkpt lat="45.7896" lon="1.92227">
        <ele>714.6</ele>
        <time>2026-07-08T14:01:11.000Z</time>
      </trkpt>
      <trkpt lat="45.7896" lon="1.92228">
        <ele>714.8</ele>
        <time>2026-07-08T14:01:12.000Z</time>
      </trkpt>
      <trkpt lat="45.7896" lon="1.92229">
        <ele>714.7</ele>
        <time>2026-07-08T14:01:13.000Z</time>
      </trkpt>
      <trkpt lat="45.7896" lon="1.92231">
        <ele>714.4</ele>
        <time>2026-07-08T14:01:14.000Z</time>
      </trkpt>
      <trkpt lat="45.78961" lon="1.92233">
        <ele>714.5</ele>
        <time>2026-07-08T14:01:15.000Z</time>
      </trkpt>
      <trkpt lat="45.78962" lon="1.92235">
        <ele>714.3</ele>
        <time>2026-07-08T14:01:16.000Z</time>
      </trkpt>
      <trkpt lat="45.78963" lon="1.92237">
        <ele>714.2</ele>
        <time>2026-07-08T14:01:17.000Z</time>
      </trkpt>
      <trkpt lat="45.78965" lon="1.92239">
        <ele>714.1</ele>
        <time>2026-07-08T14:01:18.000Z</time>
      </trkpt>
      <trkpt lat="45.78966" lon="1.9224">
        <ele>714.1</ele>
        <time>2026-07-08T14:01:19.000Z</time>
      </trkpt>
      <trkpt lat="45.78968" lon="1.92241">
        <ele>714</ele>
        <time>2026-07-08T14:01:20.000Z</time>
      </trkpt>
      <trkpt lat="45.78969" lon="1.92242">
        <ele>714</ele>
        <time>2026-07-08T14:01:21.000Z</time>
      </trkpt>
      <trkpt lat="45.7897" lon="1.92242">
        <ele>714.4</ele>
        <time>2026-07-08T14:01:22.000Z</time>
      </trkpt>
      <trkpt lat="45.78972" lon="1.92243">
        <ele>713.9</ele>
        <time>2026-07-08T14:01:23.000Z</time>
      </trkpt>
      <trkpt lat="45.78973" lon="1.92243">
        <ele>714.2</ele>
        <time>2026-07-08T14:01:24.000Z</time>
      </trkpt>
      <trkpt lat="45.78975" lon="1.92243">
        <ele>713.1</ele>
        <time>2026-07-08T14:01:25.000Z</time>
      </trkpt>
      <trkpt lat="45.78977" lon="1.92242">
        <ele>712</ele>
        <time>2026-07-08T14:01:26.000Z</time>
      </trkpt>
      <trkpt lat="45.78978" lon="1.92242">
        <ele>710.9</ele>
        <time>2026-07-08T14:01:27.000Z</time>
      </trkpt>
      <trkpt lat="45.7898" lon="1.92241">
        <ele>711</ele>
        <time>2026-07-08T14:01:28.000Z</time>
      </trkpt>
      <trkpt lat="45.78981" lon="1.92241">
        <ele>710.7</ele>
        <time>2026-07-08T14:01:29.000Z</time>
      </trkpt>
      <trkpt lat="45.78983" lon="1.92241">
        <ele>710.9</ele>
        <time>2026-07-08T14:01:30.000Z</time>
      </trkpt>
      <trkpt lat="45.78985" lon="1.92241">
        <ele>711.3</ele>
        <time>2026-07-08T14:01:31.000Z</time>
      </trkpt>
      <trkpt lat="45.78986" lon="1.92241">
        <ele>711.6</ele>
        <time>2026-07-08T14:01:32.000Z</time>
      </trkpt>
      <trkpt lat="45.78988" lon="1.92241">
        <ele>711.4</ele>
        <time>2026-07-08T14:01:33.000Z</time>
      </trkpt>
      <trkpt lat="45.7899" lon="1.92241">
        <ele>711.2</ele>
        <time>2026-07-08T14:01:34.000Z</time>
      </trkpt>
      <trkpt lat="45.78992" lon="1.92241">
        <ele>711.7</ele>
        <time>2026-07-08T14:01:35.000Z</time>
      </trkpt>
      <trkpt lat="45.78994" lon="1.92241">
        <ele>711.3</ele>
        <time>2026-07-08T14:01:36.000Z</time>
      </trkpt>
      <trkpt lat="45.78995" lon="1.92241">
        <ele>711.6</ele>
        <time>2026-07-08T14:01:37.000Z</time>
      </trkpt>
      <trkpt lat="45.78997" lon="1.92241">
        <ele>711.8</ele>
        <time>2026-07-08T14:01:38.000Z</time>
      </trkpt>
      <trkpt lat="45.78999" lon="1.92241">
        <ele>711.5</ele>
        <time>2026-07-08T14:01:39.000Z</time>
      </trkpt>
      <trkpt lat="45.79001" lon="1.92241">
        <ele>710.8</ele>
        <time>2026-07-08T14:01:40.000Z</time>
      </trkpt>
      <trkpt lat="45.79003" lon="1.92241">
        <ele>710.5</ele>
        <time>2026-07-08T14:01:41.000Z</time>
      </trkpt>
      <trkpt lat="45.79005" lon="1.92241">
        <ele>711.7</ele>
        <time>2026-07-08T14:01:42.000Z</time>
      </trkpt>
      <trkpt lat="45.79008" lon="1.92241">
        <ele>711.8</ele>
        <time>2026-07-08T14:01:43.000Z</time>
      </trkpt>
      <trkpt lat="45.7901" lon="1.92241">
        <ele>711.3</ele>
        <time>2026-07-08T14:01:44.000Z</time>
      </trkpt>
      <trkpt lat="45.79012" lon="1.92241">
        <ele>711.1</ele>
        <time>2026-07-08T14:01:45.000Z</time>
      </trkpt>
      <trkpt lat="45.79013" lon="1.92241">
        <ele>710.7</ele>
        <time>2026-07-08T14:01:46.000Z</time>
      </trkpt>
      <trkpt lat="45.79015" lon="1.92241">
        <ele>710.4</ele>
        <time>2026-07-08T14:01:47.000Z</time>
      </trkpt>
      <trkpt lat="45.79016" lon="1.92241">
        <ele>710.7</ele>
        <time>2026-07-08T14:01:48.000Z</time>
      </trkpt>
      <trkpt lat="45.79018" lon="1.92241">
        <ele>710.1</ele>
        <time>2026-07-08T14:01:49.000Z</time>
      </trkpt>
      <trkpt lat="45.79019" lon="1.92241">
        <ele>710.1</ele>
        <time>2026-07-08T14:01:50.000Z</time>
      </trkpt>
      <trkpt lat="45.79021" lon="1.92241">
        <ele>709.9</ele>
        <time>2026-07-08T14:01:51.000Z</time>
      </trkpt>
      <trkpt lat="45.79023" lon="1.92241">
        <ele>709.9</ele>
        <time>2026-07-08T14:01:52.000Z</time>
      </trkpt>
      <trkpt lat="45.79024" lon="1.9224">
        <ele>709.6</ele>
        <time>2026-07-08T14:01:53.000Z</time>
      </trkpt>
      <trkpt lat="45.79026" lon="1.9224">
        <ele>709.5</ele>
        <time>2026-07-08T14:01:54.000Z</time>
      </trkpt>
      <trkpt lat="45.79027" lon="1.9224">
        <ele>709.2</ele>
        <time>2026-07-08T14:01:55.000Z</time>
      </trkpt>
      <trkpt lat="45.79029" lon="1.92239">
        <ele>709.1</ele>
        <time>2026-07-08T14:01:56.000Z</time>
      </trkpt>
      <trkpt lat="45.79031" lon="1.92239">
        <ele>708.7</ele>
        <time>2026-07-08T14:01:57.000Z</time>
      </trkpt>
      <trkpt lat="45.79032" lon="1.92238">
        <ele>709</ele>
        <time>2026-07-08T14:01:58.000Z</time>
      </trkpt>
      <trkpt lat="45.79034" lon="1.92237">
        <ele>709.1</ele>
        <time>2026-07-08T14:01:59.000Z</time>
      </trkpt>
      <trkpt lat="45.79036" lon="1.92237">
        <ele>708.8</ele>
        <time>2026-07-08T14:02:00.000Z</time>
      </trkpt>
      <trkpt lat="45.79037" lon="1.92236">
        <ele>708.5</ele>
        <time>2026-07-08T14:02:01.000Z</time>
      </trkpt>
      <trkpt lat="45.79039" lon="1.92235">
        <ele>708.5</ele>
        <time>2026-07-08T14:02:02.000Z</time>
      </trkpt>
      <trkpt lat="45.79041" lon="1.92234">
        <ele>708.3</ele>
        <time>2026-07-08T14:02:03.000Z</time>
      </trkpt>
      <trkpt lat="45.79042" lon="1.92233">
        <ele>708.1</ele>
        <time>2026-07-08T14:02:04.000Z</time>
      </trkpt>
      <trkpt lat="45.79044" lon="1.92232">
        <ele>708</ele>
        <time>2026-07-08T14:02:05.000Z</time>
      </trkpt>
      <trkpt lat="45.79045" lon="1.92231">
        <ele>708.3</ele>
        <time>2026-07-08T14:02:06.000Z</time>
      </trkpt>
      <trkpt lat="45.79047" lon="1.9223">
        <ele>708.3</ele>
        <time>2026-07-08T14:02:07.000Z</time>
      </trkpt>
      <trkpt lat="45.79048" lon="1.92228">
        <ele>707.9</ele>
        <time>2026-07-08T14:02:08.000Z</time>
      </trkpt>
      <trkpt lat="45.7905" lon="1.92227">
        <ele>707.8</ele>
        <time>2026-07-08T14:02:09.000Z</time>
      </trkpt>
      <trkpt lat="45.79051" lon="1.92225">
        <ele>707.5</ele>
        <time>2026-07-08T14:02:10.000Z</time>
      </trkpt>
      <trkpt lat="45.79052" lon="1.92224">
        <ele>707.5</ele>
        <time>2026-07-08T14:02:11.000Z</time>
      </trkpt>
      <trkpt lat="45.79053" lon="1.92222">
        <ele>707.3</ele>
        <time>2026-07-08T14:02:12.000Z</time>
      </trkpt>
      <trkpt lat="45.79054" lon="1.9222">
        <ele>707.1</ele>
        <time>2026-07-08T14:02:13.000Z</time>
      </trkpt>
      <trkpt lat="45.79055" lon="1.92218">
        <ele>707.1</ele>
        <time>2026-07-08T14:02:14.000Z</time>
      </trkpt>
      <trkpt lat="45.79057" lon="1.92217">
        <ele>707.3</ele>
        <time>2026-07-08T14:02:15.000Z</time>
      </trkpt>
      <trkpt lat="45.79058" lon="1.92215">
        <ele>707.3</ele>
        <time>2026-07-08T14:02:16.000Z</time>
      </trkpt>
      <trkpt lat="45.7906" lon="1.92213">
        <ele>706.9</ele>
        <time>2026-07-08T14:02:17.000Z</time>
      </trkpt>
      <trkpt lat="45.79061" lon="1.92211">
        <ele>706.7</ele>
        <time>2026-07-08T14:02:18.000Z</time>
      </trkpt>
      <trkpt lat="45.79062" lon="1.92209">
        <ele>706.7</ele>
        <time>2026-07-08T14:02:19.000Z</time>
      </trkpt>
      <trkpt lat="45.79063" lon="1.92207">
        <ele>706.7</ele>
        <time>2026-07-08T14:02:20.000Z</time>
      </trkpt>
      <trkpt lat="45.79064" lon="1.92206">
        <ele>706.5</ele>
        <time>2026-07-08T14:02:21.000Z</time>
      </trkpt>
      <trkpt lat="45.79066" lon="1.92205">
        <ele>707.3</ele>
        <time>2026-07-08T14:02:22.000Z</time>
      </trkpt>
      <trkpt lat="45.79068" lon="1.92204">
        <ele>708.1</ele>
        <time>2026-07-08T14:02:23.000Z</time>
      </trkpt>
      <trkpt lat="45.79068" lon="1.92204">
        <ele>708.1</ele>
        <time>2026-07-08T14:02:24.000Z</time>
      </trkpt>
      <trkpt lat="45.79069" lon="1.92203">
        <ele>708.1</ele>
        <time>2026-07-08T14:02:25.000Z</time>
      </trkpt>
      <trkpt lat="45.79071" lon="1.92203">
        <ele>708.4</ele>
        <time>2026-07-08T14:02:26.000Z</time>
      </trkpt>
      <trkpt lat="45.79071" lon="1.92203">
        <ele>708.5</ele>
        <time>2026-07-08T14:02:27.000Z</time>
      </trkpt>
      <trkpt lat="45.79073" lon="1.92203">
        <ele>709.4</ele>
        <time>2026-07-08T14:02:28.000Z</time>
      </trkpt>
      <trkpt lat="45.79074" lon="1.92203">
        <ele>708.9</ele>
        <time>2026-07-08T14:02:29.000Z</time>
      </trkpt>
      <trkpt lat="45.79074" lon="1.92203">
        <ele>708.8</ele>
        <time>2026-07-08T14:02:30.000Z</time>
      </trkpt>
      <trkpt lat="45.79074" lon="1.92203">
        <ele>708.8</ele>
        <time>2026-07-08T14:02:31.000Z</time>
      </trkpt>
      <trkpt lat="45.79074" lon="1.92203">
        <ele>708.8</ele>
        <time>2026-07-08T14:02:32.000Z</time>
      </trkpt>
      <trkpt lat="45.79075" lon="1.92202">
        <ele>708.9</ele>
        <time>2026-07-08T14:02:33.000Z</time>
      </trkpt>
      <trkpt lat="45.79075" lon="1.92202">
        <ele>708.9</ele>
        <time>2026-07-08T14:02:34.000Z</time>
      </trkpt>
      <trkpt lat="45.79075" lon="1.92202">
        <ele>709</ele>
        <time>2026-07-08T14:02:35.000Z</time>
      </trkpt>
      <trkpt lat="45.79075" lon="1.92202">
        <ele>709</ele>
        <time>2026-07-08T14:02:36.000Z</time>
      </trkpt>
      <trkpt lat="45.79075" lon="1.92202">
        <ele>709</ele>
        <time>2026-07-08T14:02:37.000Z</time>
      </trkpt>
      <trkpt lat="45.79075" lon="1.92202">
        <ele>709</ele>
        <time>2026-07-08T14:02:38.000Z</time>
      </trkpt>
      <trkpt lat="45.79075" lon="1.92201">
        <ele>709</ele>
        <time>2026-07-08T14:02:39.000Z</time>
      </trkpt>
      <trkpt lat="45.79075" lon="1.92201">
        <ele>709.1</ele>
        <time>2026-07-08T14:02:40.000Z</time>
      </trkpt>
      <trkpt lat="45.79076" lon="1.922">
        <ele>709.1</ele>
        <time>2026-07-08T14:02:41.000Z</time>
      </trkpt>
      <trkpt lat="45.79076" lon="1.92198">
        <ele>708.8</ele>
        <time>2026-07-08T14:02:42.000Z</time>
      </trkpt>
      <trkpt lat="45.79077" lon="1.92197">
        <ele>708.5</ele>
        <time>2026-07-08T14:02:43.000Z</time>
      </trkpt>
      <trkpt lat="45.79078" lon="1.92195">
        <ele>708.4</ele>
        <time>2026-07-08T14:02:44.000Z</time>
      </trkpt>
      <trkpt lat="45.79079" lon="1.92193">
        <ele>708.3</ele>
        <time>2026-07-08T14:02:45.000Z</time>
      </trkpt>
      <trkpt lat="45.79079" lon="1.9219">
        <ele>707.8</ele>
        <time>2026-07-08T14:02:46.000Z</time>
      </trkpt>
      <trkpt lat="45.7908" lon="1.92188">
        <ele>707.5</ele>
        <time>2026-07-08T14:02:47.000Z</time>
      </trkpt>
      <trkpt lat="45.7908" lon="1.92186">
        <ele>707.1</ele>
        <time>2026-07-08T14:02:48.000Z</time>
      </trkpt>
      <trkpt lat="45.79081" lon="1.92184">
        <ele>707.2</ele>
        <time>2026-07-08T14:02:49.000Z</time>
      </trkpt>
      <trkpt lat="45.79081" lon="1.92182">
        <ele>707.2</ele>
        <time>2026-07-08T14:02:50.000Z</time>
      </trkpt>
      <trkpt lat="45.79082" lon="1.92179">
        <ele>707</ele>
        <time>2026-07-08T14:02:51.000Z</time>
      </trkpt>
      <trkpt lat="45.79083" lon="1.92177">
        <ele>707.1</ele>
        <time>2026-07-08T14:02:52.000Z</time>
      </trkpt>
      <trkpt lat="45.79083" lon="1.92175">
        <ele>707.1</ele>
        <time>2026-07-08T14:02:53.000Z</time>
      </trkpt>
      <trkpt lat="45.79084" lon="1.92173">
        <ele>707.1</ele>
        <time>2026-07-08T14:02:54.000Z</time>
      </trkpt>
      <trkpt lat="45.79085" lon="1.92171">
        <ele>706.9</ele>
        <time>2026-07-08T14:02:55.000Z</time>
      </trkpt>
      <trkpt lat="45.79085" lon="1.92169">
        <ele>705.8</ele>
        <time>2026-07-08T14:02:56.000Z</time>
      </trkpt>
      <trkpt lat="45.79086" lon="1.92167">
        <ele>705.9</ele>
        <time>2026-07-08T14:02:57.000Z</time>
      </trkpt>
      <trkpt lat="45.79087" lon="1.92166">
        <ele>705.9</ele>
        <time>2026-07-08T14:02:58.000Z</time>
      </trkpt>
      <trkpt lat="45.79088" lon="1.92165">
        <ele>705.6</ele>
        <time>2026-07-08T14:02:59.000Z</time>
      </trkpt>
      <trkpt lat="45.79089" lon="1.92163">
        <ele>705.3</ele>
        <time>2026-07-08T14:03:00.000Z</time>
      </trkpt>
      <trkpt lat="45.7909" lon="1.92162">
        <ele>705</ele>
        <time>2026-07-08T14:03:01.000Z</time>
      </trkpt>
      <trkpt lat="45.79091" lon="1.9216">
        <ele>705.3</ele>
        <time>2026-07-08T14:03:02.000Z</time>
      </trkpt>
      <trkpt lat="45.79091" lon="1.9216">
        <ele>705.5</ele>
        <time>2026-07-08T14:03:03.000Z</time>
      </trkpt>
      <trkpt lat="45.79091" lon="1.9216">
        <ele>705.9</ele>
        <time>2026-07-08T14:03:04.000Z</time>
      </trkpt>
      <trkpt lat="45.79092" lon="1.9216">
        <ele>706.5</ele>
        <time>2026-07-08T14:03:05.000Z</time>
      </trkpt>
      <trkpt lat="45.79093" lon="1.92161">
        <ele>706.4</ele>
        <time>2026-07-08T14:03:06.000Z</time>
      </trkpt>
      <trkpt lat="45.79093" lon="1.9216">
        <ele>706.3</ele>
        <time>2026-07-08T14:03:07.000Z</time>
      </trkpt>
      <trkpt lat="45.79095" lon="1.92158">
        <ele>706.4</ele>
        <time>2026-07-08T14:03:08.000Z</time>
      </trkpt>
      <trkpt lat="45.79096" lon="1.92157">
        <ele>706.5</ele>
        <time>2026-07-08T14:03:09.000Z</time>
      </trkpt>
      <trkpt lat="45.79098" lon="1.92156">
        <ele>706.2</ele>
        <time>2026-07-08T14:03:10.000Z</time>
      </trkpt>
      <trkpt lat="45.79099" lon="1.92155">
        <ele>706.4</ele>
        <time>2026-07-08T14:03:11.000Z</time>
      </trkpt>
      <trkpt lat="45.79101" lon="1.92154">
        <ele>706.6</ele>
        <time>2026-07-08T14:03:12.000Z</time>
      </trkpt>
      <trkpt lat="45.79102" lon="1.92153">
        <ele>706.8</ele>
        <time>2026-07-08T14:03:13.000Z</time>
      </trkpt>
      <trkpt lat="45.79104" lon="1.92153">
        <ele>706.8</ele>
        <time>2026-07-08T14:03:14.000Z</time>
      </trkpt>
      <trkpt lat="45.79106" lon="1.92152">
        <ele>706.9</ele>
        <time>2026-07-08T14:03:15.000Z</time>
      </trkpt>
      <trkpt lat="45.79108" lon="1.92152">
        <ele>707.1</ele>
        <time>2026-07-08T14:03:16.000Z</time>
      </trkpt>
      <trkpt lat="45.79109" lon="1.92151">
        <ele>707.2</ele>
        <time>2026-07-08T14:03:17.000Z</time>
      </trkpt>
      <trkpt lat="45.79111" lon="1.92151">
        <ele>707.4</ele>
        <time>2026-07-08T14:03:18.000Z</time>
      </trkpt>
      <trkpt lat="45.79113" lon="1.9215">
        <ele>707.4</ele>
        <time>2026-07-08T14:03:19.000Z</time>
      </trkpt>
      <trkpt lat="45.79115" lon="1.9215">
        <ele>707.3</ele>
        <time>2026-07-08T14:03:20.000Z</time>
      </trkpt>
      <trkpt lat="45.79116" lon="1.9215">
        <ele>707.1</ele>
        <time>2026-07-08T14:03:21.000Z</time>
      </trkpt>
      <trkpt lat="45.79118" lon="1.92149">
        <ele>707.2</ele>
        <time>2026-07-08T14:03:22.000Z</time>
      </trkpt>
      <trkpt lat="45.7912" lon="1.92149">
        <ele>707.1</ele>
        <time>2026-07-08T14:03:23.000Z</time>
      </trkpt>
      <trkpt lat="45.79122" lon="1.92149">
        <ele>707.1</ele>
        <time>2026-07-08T14:03:24.000Z</time>
      </trkpt>
      <trkpt lat="45.79123" lon="1.92149">
        <ele>706.6</ele>
        <time>2026-07-08T14:03:25.000Z</time>
      </trkpt>
      <trkpt lat="45.79125" lon="1.92149">
        <ele>706.7</ele>
        <time>2026-07-08T14:03:26.000Z</time>
      </trkpt>
      <trkpt lat="45.79127" lon="1.92149">
        <ele>706.9</ele>
        <time>2026-07-08T14:03:27.000Z</time>
      </trkpt>
      <trkpt lat="45.79129" lon="1.92149">
        <ele>707.1</ele>
        <time>2026-07-08T14:03:28.000Z</time>
      </trkpt>
      <trkpt lat="45.7913" lon="1.92149">
        <ele>707.1</ele>
        <time>2026-07-08T14:03:29.000Z</time>
      </trkpt>
      <trkpt lat="45.79131" lon="1.92149">
        <ele>707.3</ele>
        <time>2026-07-08T14:03:30.000Z</time>
      </trkpt>
      <trkpt lat="45.79132" lon="1.9215">
        <ele>707.4</ele>
        <time>2026-07-08T14:03:31.000Z</time>
      </trkpt>
      <trkpt lat="45.79132" lon="1.9215">
        <ele>707.3</ele>
        <time>2026-07-08T14:03:32.000Z</time>
      </trkpt>
      <trkpt lat="45.79132" lon="1.9215">
        <ele>707.3</ele>
        <time>2026-07-08T14:03:33.000Z</time>
      </trkpt>
      <trkpt lat="45.79132" lon="1.9215">
        <ele>707.3</ele>
        <time>2026-07-08T14:03:34.000Z</time>
      </trkpt>
      <trkpt lat="45.79133" lon="1.9215">
        <ele>707.4</ele>
        <time>2026-07-08T14:03:35.000Z</time>
      </trkpt>
      <trkpt lat="45.79134" lon="1.92152">
        <ele>707.1</ele>
        <time>2026-07-08T14:03:36.000Z</time>
      </trkpt>
      <trkpt lat="45.79136" lon="1.92153">
        <ele>706.8</ele>
        <time>2026-07-08T14:03:37.000Z</time>
      </trkpt>
      <trkpt lat="45.79137" lon="1.92153">
        <ele>706.9</ele>
        <time>2026-07-08T14:03:38.000Z</time>
      </trkpt>
      <trkpt lat="45.79139" lon="1.92154">
        <ele>707.1</ele>
        <time>2026-07-08T14:03:39.000Z</time>
      </trkpt>
      <trkpt lat="45.7914" lon="1.92153">
        <ele>707.3</ele>
        <time>2026-07-08T14:03:40.000Z</time>
      </trkpt>
      <trkpt lat="45.79142" lon="1.92152">
        <ele>707.3</ele>
        <time>2026-07-08T14:03:41.000Z</time>
      </trkpt>
      <trkpt lat="45.79143" lon="1.92152">
        <ele>707.3</ele>
        <time>2026-07-08T14:03:42.000Z</time>
      </trkpt>
      <trkpt lat="45.79145" lon="1.92152">
        <ele>707.2</ele>
        <time>2026-07-08T14:03:43.000Z</time>
      </trkpt>
      <trkpt lat="45.79146" lon="1.92151">
        <ele>707</ele>
        <time>2026-07-08T14:03:44.000Z</time>
      </trkpt>
      <trkpt lat="45.79146" lon="1.92148">
        <ele>707.7</ele>
        <time>2026-07-08T14:03:45.000Z</time>
      </trkpt>
      <trkpt lat="45.79148" lon="1.92148">
        <ele>707.6</ele>
        <time>2026-07-08T14:03:46.000Z</time>
      </trkpt>
      <trkpt lat="45.79149" lon="1.92147">
        <ele>707.6</ele>
        <time>2026-07-08T14:03:47.000Z</time>
      </trkpt>
      <trkpt lat="45.79151" lon="1.92146">
        <ele>707.6</ele>
        <time>2026-07-08T14:03:48.000Z</time>
      </trkpt>
      <trkpt lat="45.79153" lon="1.92146">
        <ele>707.8</ele>
        <time>2026-07-08T14:03:49.000Z</time>
      </trkpt>
      <trkpt lat="45.79155" lon="1.92146">
        <ele>707.9</ele>
        <time>2026-07-08T14:03:50.000Z</time>
      </trkpt>
      <trkpt lat="45.79157" lon="1.92146">
        <ele>708</ele>
        <time>2026-07-08T14:03:51.000Z</time>
      </trkpt>
      <trkpt lat="45.79159" lon="1.92146">
        <ele>708.2</ele>
        <time>2026-07-08T14:03:52.000Z</time>
      </trkpt>
      <trkpt lat="45.79161" lon="1.92146">
        <ele>708.2</ele>
        <time>2026-07-08T14:03:53.000Z</time>
      </trkpt>
      <trkpt lat="45.79162" lon="1.92146">
        <ele>708.3</ele>
        <time>2026-07-08T14:03:54.000Z</time>
      </trkpt>
      <trkpt lat="45.79164" lon="1.92147">
        <ele>708.3</ele>
        <time>2026-07-08T14:03:55.000Z</time>
      </trkpt>
      <trkpt lat="45.79166" lon="1.92148">
        <ele>708.4</ele>
        <time>2026-07-08T14:03:56.000Z</time>
      </trkpt>
      <trkpt lat="45.79167" lon="1.92149">
        <ele>708.6</ele>
        <time>2026-07-08T14:03:57.000Z</time>
      </trkpt>
      <trkpt lat="45.79169" lon="1.92151">
        <ele>708.7</ele>
        <time>2026-07-08T14:03:58.000Z</time>
      </trkpt>
      <trkpt lat="45.7917" lon="1.92153">
        <ele>708.7</ele>
        <time>2026-07-08T14:03:59.000Z</time>
      </trkpt>
      <trkpt lat="45.79171" lon="1.92155">
        <ele>708.6</ele>
        <time>2026-07-08T14:04:00.000Z</time>
      </trkpt>
      <trkpt lat="45.79172" lon="1.92157">
        <ele>708.4</ele>
        <time>2026-07-08T14:04:01.000Z</time>
      </trkpt>
      <trkpt lat="45.79174" lon="1.92157">
        <ele>708.4</ele>
        <time>2026-07-08T14:04:02.000Z</time>
      </trkpt>
      <trkpt lat="45.79175" lon="1.92157">
        <ele>708</ele>
        <time>2026-07-08T14:04:03.000Z</time>
      </trkpt>
      <trkpt lat="45.79175" lon="1.92152">
        <ele>708.8</ele>
        <time>2026-07-08T14:04:04.000Z</time>
      </trkpt>
      <trkpt lat="45.79176" lon="1.9215">
        <ele>709.5</ele>
        <time>2026-07-08T14:04:05.000Z</time>
      </trkpt>
      <trkpt lat="45.79176" lon="1.92147">
        <ele>709.8</ele>
        <time>2026-07-08T14:04:06.000Z</time>
      </trkpt>
      <trkpt lat="45.79176" lon="1.92145">
        <ele>712.5</ele>
        <time>2026-07-08T14:04:07.000Z</time>
      </trkpt>
      <trkpt lat="45.79177" lon="1.92144">
        <ele>713.7</ele>
        <time>2026-07-08T14:04:08.000Z</time>
      </trkpt>
      <trkpt lat="45.79177" lon="1.92145">
        <ele>713.2</ele>
        <time>2026-07-08T14:04:09.000Z</time>
      </trkpt>
      <trkpt lat="45.79176" lon="1.92144">
        <ele>713.1</ele>
        <time>2026-07-08T14:04:10.000Z</time>
      </trkpt>
      <trkpt lat="45.79175" lon="1.92143">
        <ele>713.2</ele>
        <time>2026-07-08T14:04:11.000Z</time>
      </trkpt>
      <trkpt lat="45.79175" lon="1.92144">
        <ele>712.8</ele>
        <time>2026-07-08T14:04:12.000Z</time>
      </trkpt>
      <trkpt lat="45.79175" lon="1.92144">
        <ele>712.9</ele>
        <time>2026-07-08T14:04:13.000Z</time>
      </trkpt>
      <trkpt lat="45.79175" lon="1.92144">
        <ele>712.6</ele>
        <time>2026-07-08T14:04:14.000Z</time>
      </trkpt>
      <trkpt lat="45.79175" lon="1.92145">
        <ele>712.6</ele>
        <time>2026-07-08T14:04:15.000Z</time>
      </trkpt>
      <trkpt lat="45.79175" lon="1.92145">
        <ele>712.6</ele>
        <time>2026-07-08T14:04:16.000Z</time>
      </trkpt>
      <trkpt lat="45.79176" lon="1.92145">
        <ele>712.6</ele>
        <time>2026-07-08T14:04:17.000Z</time>
      </trkpt>
      <trkpt lat="45.79176" lon="1.92145">
        <ele>712.2</ele>
        <time>2026-07-08T14:04:18.000Z</time>
      </trkpt>
      <trkpt lat="45.79177" lon="1.92145">
        <ele>711.2</ele>
        <time>2026-07-08T14:04:19.000Z</time>
      </trkpt>
      <trkpt lat="45.79177" lon="1.92146">
        <ele>710.4</ele>
        <time>2026-07-08T14:04:20.000Z</time>
      </trkpt>
      <trkpt lat="45.79179" lon="1.92144">
        <ele>710.3</ele>
        <time>2026-07-08T14:04:21.000Z</time>
      </trkpt>
      <trkpt lat="45.79179" lon="1.92144">
        <ele>710.3</ele>
        <time>2026-07-08T14:04:22.000Z</time>
      </trkpt>
      <trkpt lat="45.79179" lon="1.92145">
        <ele>710.3</ele>
        <time>2026-07-08T14:04:23.000Z</time>
      </trkpt>
      <trkpt lat="45.79179" lon="1.92145">
        <ele>710.3</ele>
        <time>2026-07-08T14:04:24.000Z</time>
      </trkpt>
      <trkpt lat="45.7918" lon="1.92141">
        <ele>709.3</ele>
        <time>2026-07-08T14:04:25.000Z</time>
      </trkpt>
      <trkpt lat="45.79179" lon="1.92141">
        <ele>709.3</ele>
        <time>2026-07-08T14:04:26.000Z</time>
      </trkpt>
      <trkpt lat="45.79179" lon="1.92141">
        <ele>709.3</ele>
        <time>2026-07-08T14:04:27.000Z</time>
      </trkpt>
      <trkpt lat="45.79178" lon="1.92141">
        <ele>709.3</ele>
        <time>2026-07-08T14:04:28.000Z</time>
      </trkpt>
      <trkpt lat="45.79178" lon="1.92141">
        <ele>709.3</ele>
        <time>2026-07-08T14:04:29.000Z</time>
      </trkpt>
      <trkpt lat="45.79178" lon="1.92141">
        <ele>709.3</ele>
        <time>2026-07-08T14:04:30.000Z</time>
      </trkpt>
      <trkpt lat="45.79178" lon="1.92141">
        <ele>709.3</ele>
        <time>2026-07-08T14:04:31.000Z</time>
      </trkpt>
      <trkpt lat="45.79178" lon="1.92141">
        <ele>709.3</ele>
        <time>2026-07-08T14:04:32.000Z</time>
      </trkpt>
      <trkpt lat="45.79178" lon="1.92142">
        <ele>709</ele>
        <time>2026-07-08T14:04:33.000Z</time>
      </trkpt>
      <trkpt lat="45.79181" lon="1.92141">
        <ele>708.3</ele>
        <time>2026-07-08T14:04:34.000Z</time>
      </trkpt>
      <trkpt lat="45.79181" lon="1.92141">
        <ele>707.4</ele>
        <time>2026-07-08T14:04:35.000Z</time>
      </trkpt>
      <trkpt lat="45.79181" lon="1.92143">
        <ele>707.5</ele>
        <time>2026-07-08T14:04:36.000Z</time>
      </trkpt>
      <trkpt lat="45.79179" lon="1.92147">
        <ele>707.5</ele>
        <time>2026-07-08T14:04:37.000Z</time>
      </trkpt>
      <trkpt lat="45.79179" lon="1.92148">
        <ele>707.5</ele>
        <time>2026-07-08T14:04:38.000Z</time>
      </trkpt>
      <trkpt lat="45.79179" lon="1.92151">
        <ele>707.4</ele>
        <time>2026-07-08T14:04:39.000Z</time>
      </trkpt>
      <trkpt lat="45.7918" lon="1.92152">
        <ele>707.4</ele>
        <time>2026-07-08T14:04:40.000Z</time>
      </trkpt>
      <trkpt lat="45.7918" lon="1.92156">
        <ele>707.5</ele>
        <time>2026-07-08T14:04:41.000Z</time>
      </trkpt>
      <trkpt lat="45.7918" lon="1.92156">
        <ele>707.3</ele>
        <time>2026-07-08T14:04:42.000Z</time>
      </trkpt>
      <trkpt lat="45.79181" lon="1.92156">
        <ele>707.5</ele>
        <time>2026-07-08T14:04:43.000Z</time>
      </trkpt>
      <trkpt lat="45.79181" lon="1.92155">
        <ele>707.5</ele>
        <time>2026-07-08T14:04:44.000Z</time>
      </trkpt>
      <trkpt lat="45.79181" lon="1.92155">
        <ele>707.5</ele>
        <time>2026-07-08T14:04:45.000Z</time>
      </trkpt>
      <trkpt lat="45.79181" lon="1.92155">
        <ele>707.5</ele>
        <time>2026-07-08T14:04:46.000Z</time>
      </trkpt>
      <trkpt lat="45.79181" lon="1.92155">
        <ele>707.7</ele>
        <time>2026-07-08T14:04:47.000Z</time>
      </trkpt>
      <trkpt lat="45.79182" lon="1.92154">
        <ele>707.5</ele>
        <time>2026-07-08T14:04:48.000Z</time>
      </trkpt>
      <trkpt lat="45.79183" lon="1.92153">
        <ele>707.1</ele>
        <time>2026-07-08T14:04:49.000Z</time>
      </trkpt>
      <trkpt lat="45.79183" lon="1.92153">
        <ele>707.1</ele>
        <time>2026-07-08T14:04:50.000Z</time>
      </trkpt>
      <trkpt lat="45.79183" lon="1.92152">
        <ele>707.1</ele>
        <time>2026-07-08T14:04:51.000Z</time>
      </trkpt>
      <trkpt lat="45.79184" lon="1.92152">
        <ele>707.1</ele>
        <time>2026-07-08T14:04:52.000Z</time>
      </trkpt>
      <trkpt lat="45.79185" lon="1.92151">
        <ele>707.1</ele>
        <time>2026-07-08T14:04:53.000Z</time>
      </trkpt>
      <trkpt lat="45.79185" lon="1.92151">
        <ele>707.1</ele>
        <time>2026-07-08T14:04:54.000Z</time>
      </trkpt>
      <trkpt lat="45.79185" lon="1.92151">
        <ele>707.1</ele>
        <time>2026-07-08T14:04:55.000Z</time>
      </trkpt>
      <trkpt lat="45.79185" lon="1.92151">
        <ele>707.1</ele>
        <time>2026-07-08T14:04:56.000Z</time>
      </trkpt>
      <trkpt lat="45.79185" lon="1.92151">
        <ele>707.2</ele>
        <time>2026-07-08T14:04:57.000Z</time>
      </trkpt>
      <trkpt lat="45.79185" lon="1.92151">
        <ele>706.8</ele>
        <time>2026-07-08T14:04:58.000Z</time>
      </trkpt>
      <trkpt lat="45.79185" lon="1.92151">
        <ele>706.7</ele>
        <time>2026-07-08T14:04:59.000Z</time>
      </trkpt>
      <trkpt lat="45.79184" lon="1.92151">
        <ele>706.7</ele>
        <time>2026-07-08T14:05:00.000Z</time>
      </trkpt>
      <trkpt lat="45.79184" lon="1.92151">
        <ele>706.7</ele>
        <time>2026-07-08T14:05:01.000Z</time>
      </trkpt>
      <trkpt lat="45.79184" lon="1.92151">
        <ele>706.7</ele>
        <time>2026-07-08T14:05:02.000Z</time>
      </trkpt>
      <trkpt lat="45.79184" lon="1.92151">
        <ele>706.8</ele>
        <time>2026-07-08T14:05:03.000Z</time>
      </trkpt>
      <trkpt lat="45.79184" lon="1.92151">
        <ele>706.4</ele>
        <time>2026-07-08T14:05:04.000Z</time>
      </trkpt>
      <trkpt lat="45.79184" lon="1.92151">
        <ele>706.3</ele>
        <time>2026-07-08T14:05:05.000Z</time>
      </trkpt>
      <trkpt lat="45.79184" lon="1.9215">
        <ele>706.4</ele>
        <time>2026-07-08T14:05:06.000Z</time>
      </trkpt>
      <trkpt lat="45.79184" lon="1.9215">
        <ele>706.1</ele>
        <time>2026-07-08T14:05:07.000Z</time>
      </trkpt>
      <trkpt lat="45.79184" lon="1.9215">
        <ele>706.1</ele>
        <time>2026-07-08T14:05:08.000Z</time>
      </trkpt>
      <trkpt lat="45.79184" lon="1.9215">
        <ele>706.1</ele>
        <time>2026-07-08T14:05:09.000Z</time>
      </trkpt>
      <trkpt lat="45.79184" lon="1.92149">
        <ele>705.5</ele>
        <time>2026-07-08T14:05:10.000Z</time>
      </trkpt>
      <trkpt lat="45.79184" lon="1.92149">
        <ele>705.6</ele>
        <time>2026-07-08T14:05:11.000Z</time>
      </trkpt>
      <trkpt lat="45.79184" lon="1.92149">
        <ele>705.4</ele>
        <time>2026-07-08T14:05:12.000Z</time>
      </trkpt>
      <trkpt lat="45.79186" lon="1.92149">
        <ele>705.6</ele>
        <time>2026-07-08T14:05:13.000Z</time>
      </trkpt>
      <trkpt lat="45.79186" lon="1.92149">
        <ele>705.5</ele>
        <time>2026-07-08T14:05:14.000Z</time>
      </trkpt>
      <trkpt lat="45.79186" lon="1.92149">
        <ele>705.7</ele>
        <time>2026-07-08T14:05:15.000Z</time>
      </trkpt>
      <trkpt lat="45.79187" lon="1.92149">
        <ele>705.3</ele>
        <time>2026-07-08T14:05:16.000Z</time>
      </trkpt>
      <trkpt lat="45.79188" lon="1.92149">
        <ele>705.2</ele>
        <time>2026-07-08T14:05:17.000Z</time>
      </trkpt>
      <trkpt lat="45.79189" lon="1.92148">
        <ele>704.7</ele>
        <time>2026-07-08T14:05:18.000Z</time>
      </trkpt>
      <trkpt lat="45.79191" lon="1.92147">
        <ele>704.9</ele>
        <time>2026-07-08T14:05:19.000Z</time>
      </trkpt>
      <trkpt lat="45.79194" lon="1.92146">
        <ele>705</ele>
        <time>2026-07-08T14:05:20.000Z</time>
      </trkpt>
      <trkpt lat="45.79195" lon="1.92146">
        <ele>705</ele>
        <time>2026-07-08T14:05:21.000Z</time>
      </trkpt>
      <trkpt lat="45.79197" lon="1.92146">
        <ele>705.1</ele>
        <time>2026-07-08T14:05:22.000Z</time>
      </trkpt>
      <trkpt lat="45.792" lon="1.92146">
        <ele>705.9</ele>
        <time>2026-07-08T14:05:23.000Z</time>
      </trkpt>
      <trkpt lat="45.79202" lon="1.92145">
        <ele>705.9</ele>
        <time>2026-07-08T14:05:24.000Z</time>
      </trkpt>
      <trkpt lat="45.79204" lon="1.92145">
        <ele>706.8</ele>
        <time>2026-07-08T14:05:25.000Z</time>
      </trkpt>
      <trkpt lat="45.79206" lon="1.92145">
        <ele>706.7</ele>
        <time>2026-07-08T14:05:26.000Z</time>
      </trkpt>
      <trkpt lat="45.79208" lon="1.92145">
        <ele>706.8</ele>
        <time>2026-07-08T14:05:27.000Z</time>
      </trkpt>
      <trkpt lat="45.7921" lon="1.92145">
        <ele>707.1</ele>
        <time>2026-07-08T14:05:28.000Z</time>
      </trkpt>
      <trkpt lat="45.79211" lon="1.92145">
        <ele>707</ele>
        <time>2026-07-08T14:05:29.000Z</time>
      </trkpt>
      <trkpt lat="45.79213" lon="1.92146">
        <ele>707.7</ele>
        <time>2026-07-08T14:05:30.000Z</time>
      </trkpt>
      <trkpt lat="45.79215" lon="1.92146">
        <ele>707.6</ele>
        <time>2026-07-08T14:05:31.000Z</time>
      </trkpt>
      <trkpt lat="45.79217" lon="1.92145">
        <ele>707.9</ele>
        <time>2026-07-08T14:05:32.000Z</time>
      </trkpt>
      <trkpt lat="45.79218" lon="1.92145">
        <ele>708.6</ele>
        <time>2026-07-08T14:05:33.000Z</time>
      </trkpt>
      <trkpt lat="45.7922" lon="1.92144">
        <ele>709.2</ele>
        <time>2026-07-08T14:05:34.000Z</time>
      </trkpt>
      <trkpt lat="45.79222" lon="1.92143">
        <ele>708.6</ele>
        <time>2026-07-08T14:05:35.000Z</time>
      </trkpt>
      <trkpt lat="45.79224" lon="1.92143">
        <ele>708</ele>
        <time>2026-07-08T14:05:36.000Z</time>
      </trkpt>
      <trkpt lat="45.79226" lon="1.92143">
        <ele>708</ele>
        <time>2026-07-08T14:05:37.000Z</time>
      </trkpt>
      <trkpt lat="45.79228" lon="1.92143">
        <ele>707.3</ele>
        <time>2026-07-08T14:05:38.000Z</time>
      </trkpt>
      <trkpt lat="45.7923" lon="1.92143">
        <ele>707.6</ele>
        <time>2026-07-08T14:05:39.000Z</time>
      </trkpt>
      <trkpt lat="45.79231" lon="1.92142">
        <ele>707.8</ele>
        <time>2026-07-08T14:05:40.000Z</time>
      </trkpt>
      <trkpt lat="45.79233" lon="1.92141">
        <ele>708</ele>
        <time>2026-07-08T14:05:41.000Z</time>
      </trkpt>
      <trkpt lat="45.79235" lon="1.92141">
        <ele>708</ele>
        <time>2026-07-08T14:05:42.000Z</time>
      </trkpt>
      <trkpt lat="45.79237" lon="1.9214">
        <ele>707.2</ele>
        <time>2026-07-08T14:05:43.000Z</time>
      </trkpt>
      <trkpt lat="45.79239" lon="1.92139">
        <ele>707.3</ele>
        <time>2026-07-08T14:05:44.000Z</time>
      </trkpt>
      <trkpt lat="45.7924" lon="1.92138">
        <ele>706.8</ele>
        <time>2026-07-08T14:05:45.000Z</time>
      </trkpt>
      <trkpt lat="45.79241" lon="1.92137">
        <ele>706.3</ele>
        <time>2026-07-08T14:05:46.000Z</time>
      </trkpt>
      <trkpt lat="45.79242" lon="1.92137">
        <ele>706.6</ele>
        <time>2026-07-08T14:05:47.000Z</time>
      </trkpt>
      <trkpt lat="45.79243" lon="1.92137">
        <ele>707.1</ele>
        <time>2026-07-08T14:05:48.000Z</time>
      </trkpt>
      <trkpt lat="45.79245" lon="1.92136">
        <ele>707.3</ele>
        <time>2026-07-08T14:05:49.000Z</time>
      </trkpt>
      <trkpt lat="45.79247" lon="1.92135">
        <ele>707.3</ele>
        <time>2026-07-08T14:05:50.000Z</time>
      </trkpt>
      <trkpt lat="45.79249" lon="1.92134">
        <ele>706.8</ele>
        <time>2026-07-08T14:05:51.000Z</time>
      </trkpt>
      <trkpt lat="45.79251" lon="1.92133">
        <ele>706.7</ele>
        <time>2026-07-08T14:05:52.000Z</time>
      </trkpt>
      <trkpt lat="45.79253" lon="1.92132">
        <ele>706.6</ele>
        <time>2026-07-08T14:05:53.000Z</time>
      </trkpt>
      <trkpt lat="45.79254" lon="1.92131">
        <ele>707.5</ele>
        <time>2026-07-08T14:05:54.000Z</time>
      </trkpt>
      <trkpt lat="45.79256" lon="1.92129">
        <ele>707.4</ele>
        <time>2026-07-08T14:05:55.000Z</time>
      </trkpt>
      <trkpt lat="45.79258" lon="1.92128">
        <ele>708.1</ele>
        <time>2026-07-08T14:05:56.000Z</time>
      </trkpt>
      <trkpt lat="45.79257" lon="1.92125">
        <ele>706.1</ele>
        <time>2026-07-08T14:05:57.000Z</time>
      </trkpt>
      <trkpt lat="45.79257" lon="1.92122">
        <ele>706.1</ele>
        <time>2026-07-08T14:05:58.000Z</time>
      </trkpt>
      <trkpt lat="45.79258" lon="1.9212">
        <ele>706.3</ele>
        <time>2026-07-08T14:05:59.000Z</time>
      </trkpt>
      <trkpt lat="45.7926" lon="1.92119">
        <ele>705.7</ele>
        <time>2026-07-08T14:06:00.000Z</time>
      </trkpt>
      <trkpt lat="45.79262" lon="1.92118">
        <ele>706.4</ele>
        <time>2026-07-08T14:06:01.000Z</time>
      </trkpt>
      <trkpt lat="45.79264" lon="1.92117">
        <ele>706.6</ele>
        <time>2026-07-08T14:06:02.000Z</time>
      </trkpt>
      <trkpt lat="45.79266" lon="1.92116">
        <ele>706.6</ele>
        <time>2026-07-08T14:06:03.000Z</time>
      </trkpt>
      <trkpt lat="45.79267" lon="1.92114">
        <ele>706.8</ele>
        <time>2026-07-08T14:06:04.000Z</time>
      </trkpt>
      <trkpt lat="45.79269" lon="1.92113">
        <ele>706.9</ele>
        <time>2026-07-08T14:06:05.000Z</time>
      </trkpt>
      <trkpt lat="45.7927" lon="1.92112">
        <ele>707.4</ele>
        <time>2026-07-08T14:06:06.000Z</time>
      </trkpt>
      <trkpt lat="45.79272" lon="1.9211">
        <ele>706.3</ele>
        <time>2026-07-08T14:06:07.000Z</time>
      </trkpt>
      <trkpt lat="45.79273" lon="1.92109">
        <ele>706.3</ele>
        <time>2026-07-08T14:06:08.000Z</time>
      </trkpt>
      <trkpt lat="45.79275" lon="1.92107">
        <ele>706.3</ele>
        <time>2026-07-08T14:06:09.000Z</time>
      </trkpt>
      <trkpt lat="45.79276" lon="1.92105">
        <ele>706.4</ele>
        <time>2026-07-08T14:06:10.000Z</time>
      </trkpt>
      <trkpt lat="45.79278" lon="1.92104">
        <ele>707.1</ele>
        <time>2026-07-08T14:06:11.000Z</time>
      </trkpt>
      <trkpt lat="45.79279" lon="1.92102">
        <ele>707.6</ele>
        <time>2026-07-08T14:06:12.000Z</time>
      </trkpt>
      <trkpt lat="45.79281" lon="1.921">
        <ele>709</ele>
        <time>2026-07-08T14:06:13.000Z</time>
      </trkpt>
      <trkpt lat="45.79282" lon="1.92098">
        <ele>709.3</ele>
        <time>2026-07-08T14:06:14.000Z</time>
      </trkpt>
      <trkpt lat="45.79284" lon="1.92097">
        <ele>708.6</ele>
        <time>2026-07-08T14:06:15.000Z</time>
      </trkpt>
      <trkpt lat="45.79285" lon="1.92095">
        <ele>708.4</ele>
        <time>2026-07-08T14:06:16.000Z</time>
      </trkpt>
      <trkpt lat="45.79286" lon="1.92094">
        <ele>708.7</ele>
        <time>2026-07-08T14:06:17.000Z</time>
      </trkpt>
      <trkpt lat="45.79287" lon="1.92092">
        <ele>708.8</ele>
        <time>2026-07-08T14:06:18.000Z</time>
      </trkpt>
      <trkpt lat="45.79289" lon="1.9209">
        <ele>708</ele>
        <time>2026-07-08T14:06:19.000Z</time>
      </trkpt>
      <trkpt lat="45.7929" lon="1.92088">
        <ele>707.7</ele>
        <time>2026-07-08T14:06:20.000Z</time>
      </trkpt>
      <trkpt lat="45.79292" lon="1.92086">
        <ele>707.4</ele>
        <time>2026-07-08T14:06:21.000Z</time>
      </trkpt>
      <trkpt lat="45.79293" lon="1.92084">
        <ele>707</ele>
        <time>2026-07-08T14:06:22.000Z</time>
      </trkpt>
      <trkpt lat="45.79294" lon="1.92082">
        <ele>707.3</ele>
        <time>2026-07-08T14:06:23.000Z</time>
      </trkpt>
      <trkpt lat="45.79295" lon="1.9208">
        <ele>707.1</ele>
        <time>2026-07-08T14:06:24.000Z</time>
      </trkpt>
      <trkpt lat="45.79296" lon="1.92077">
        <ele>707.8</ele>
        <time>2026-07-08T14:06:25.000Z</time>
      </trkpt>
      <trkpt lat="45.79298" lon="1.92076">
        <ele>708.9</ele>
        <time>2026-07-08T14:06:26.000Z</time>
      </trkpt>
      <trkpt lat="45.793" lon="1.92074">
        <ele>710</ele>
        <time>2026-07-08T14:06:27.000Z</time>
      </trkpt>
      <trkpt lat="45.79302" lon="1.92073">
        <ele>710.5</ele>
        <time>2026-07-08T14:06:28.000Z</time>
      </trkpt>
      <trkpt lat="45.79304" lon="1.92071">
        <ele>710.8</ele>
        <time>2026-07-08T14:06:29.000Z</time>
      </trkpt>
      <trkpt lat="45.79305" lon="1.9207">
        <ele>711.5</ele>
        <time>2026-07-08T14:06:30.000Z</time>
      </trkpt>
      <trkpt lat="45.79307" lon="1.92069">
        <ele>711.9</ele>
        <time>2026-07-08T14:06:31.000Z</time>
      </trkpt>
      <trkpt lat="45.79309" lon="1.92067">
        <ele>711.8</ele>
        <time>2026-07-08T14:06:32.000Z</time>
      </trkpt>
      <trkpt lat="45.79311" lon="1.92066">
        <ele>712.5</ele>
        <time>2026-07-08T14:06:33.000Z</time>
      </trkpt>
      <trkpt lat="45.79313" lon="1.92063">
        <ele>712.4</ele>
        <time>2026-07-08T14:06:34.000Z</time>
      </trkpt>
      <trkpt lat="45.79314" lon="1.92061">
        <ele>712.2</ele>
        <time>2026-07-08T14:06:35.000Z</time>
      </trkpt>
      <trkpt lat="45.79314" lon="1.92058">
        <ele>712.2</ele>
        <time>2026-07-08T14:06:36.000Z</time>
      </trkpt>
      <trkpt lat="45.79315" lon="1.92055">
        <ele>712.5</ele>
        <time>2026-07-08T14:06:37.000Z</time>
      </trkpt>
      <trkpt lat="45.79316" lon="1.92052">
        <ele>712.3</ele>
        <time>2026-07-08T14:06:38.000Z</time>
      </trkpt>
      <trkpt lat="45.79317" lon="1.9205">
        <ele>713</ele>
        <time>2026-07-08T14:06:39.000Z</time>
      </trkpt>
      <trkpt lat="45.79317" lon="1.92048">
        <ele>712.7</ele>
        <time>2026-07-08T14:06:40.000Z</time>
      </trkpt>
      <trkpt lat="45.79318" lon="1.92046">
        <ele>710.9</ele>
        <time>2026-07-08T14:06:41.000Z</time>
      </trkpt>
      <trkpt lat="45.79319" lon="1.92045">
        <ele>710.7</ele>
        <time>2026-07-08T14:06:42.000Z</time>
      </trkpt>
      <trkpt lat="45.79321" lon="1.92043">
        <ele>711.2</ele>
        <time>2026-07-08T14:06:43.000Z</time>
      </trkpt>
      <trkpt lat="45.79323" lon="1.92042">
        <ele>712.7</ele>
        <time>2026-07-08T14:06:44.000Z</time>
      </trkpt>
      <trkpt lat="45.79325" lon="1.9204">
        <ele>713.3</ele>
        <time>2026-07-08T14:06:45.000Z</time>
      </trkpt>
      <trkpt lat="45.79326" lon="1.92038">
        <ele>715.4</ele>
        <time>2026-07-08T14:06:46.000Z</time>
      </trkpt>
      <trkpt lat="45.79328" lon="1.92037">
        <ele>715.4</ele>
        <time>2026-07-08T14:06:47.000Z</time>
      </trkpt>
      <trkpt lat="45.79328" lon="1.92037">
        <ele>715.5</ele>
        <time>2026-07-08T14:06:48.000Z</time>
      </trkpt>
      <trkpt lat="45.79328" lon="1.92037">
        <ele>715.8</ele>
        <time>2026-07-08T14:06:49.000Z</time>
      </trkpt>
      <trkpt lat="45.79329" lon="1.92037">
        <ele>716.6</ele>
        <time>2026-07-08T14:06:50.000Z</time>
      </trkpt>
      <trkpt lat="45.79329" lon="1.92036">
        <ele>716.7</ele>
        <time>2026-07-08T14:06:51.000Z</time>
      </trkpt>
      <trkpt lat="45.7933" lon="1.92036">
        <ele>718.3</ele>
        <time>2026-07-08T14:06:52.000Z</time>
      </trkpt>
      <trkpt lat="45.79331" lon="1.92035">
        <ele>719.7</ele>
        <time>2026-07-08T14:06:53.000Z</time>
      </trkpt>
      <trkpt lat="45.79333" lon="1.92035">
        <ele>719.2</ele>
        <time>2026-07-08T14:06:54.000Z</time>
      </trkpt>
      <trkpt lat="45.79334" lon="1.92034">
        <ele>719.3</ele>
        <time>2026-07-08T14:06:55.000Z</time>
      </trkpt>
      <trkpt lat="45.79335" lon="1.92033">
        <ele>719.1</ele>
        <time>2026-07-08T14:06:56.000Z</time>
      </trkpt>
      <trkpt lat="45.79336" lon="1.92031">
        <ele>718.3</ele>
        <time>2026-07-08T14:06:57.000Z</time>
      </trkpt>
      <trkpt lat="45.79337" lon="1.92029">
        <ele>718.1</ele>
        <time>2026-07-08T14:06:58.000Z</time>
      </trkpt>
      <trkpt lat="45.79339" lon="1.92028">
        <ele>717.7</ele>
        <time>2026-07-08T14:06:59.000Z</time>
      </trkpt>
      <trkpt lat="45.7934" lon="1.92027">
        <ele>718.5</ele>
        <time>2026-07-08T14:07:00.000Z</time>
      </trkpt>
      <trkpt lat="45.79342" lon="1.92026">
        <ele>718.3</ele>
        <time>2026-07-08T14:07:01.000Z</time>
      </trkpt>
      <trkpt lat="45.79344" lon="1.92026">
        <ele>717.6</ele>
        <time>2026-07-08T14:07:02.000Z</time>
      </trkpt>
      <trkpt lat="45.79346" lon="1.92026">
        <ele>716.2</ele>
        <time>2026-07-08T14:07:03.000Z</time>
      </trkpt>
      <trkpt lat="45.79347" lon="1.92026">
        <ele>716.5</ele>
        <time>2026-07-08T14:07:04.000Z</time>
      </trkpt>
      <trkpt lat="45.79349" lon="1.92026">
        <ele>716.4</ele>
        <time>2026-07-08T14:07:05.000Z</time>
      </trkpt>
      <trkpt lat="45.79351" lon="1.92025">
        <ele>716.6</ele>
        <time>2026-07-08T14:07:06.000Z</time>
      </trkpt>
      <trkpt lat="45.79352" lon="1.92025">
        <ele>715.3</ele>
        <time>2026-07-08T14:07:07.000Z</time>
      </trkpt>
      <trkpt lat="45.79353" lon="1.92025">
        <ele>715.6</ele>
        <time>2026-07-08T14:07:08.000Z</time>
      </trkpt>
      <trkpt lat="45.79354" lon="1.92024">
        <ele>716.3</ele>
        <time>2026-07-08T14:07:09.000Z</time>
      </trkpt>
      <trkpt lat="45.79355" lon="1.92024">
        <ele>714.7</ele>
        <time>2026-07-08T14:07:10.000Z</time>
      </trkpt>
      <trkpt lat="45.79356" lon="1.92025">
        <ele>715.1</ele>
        <time>2026-07-08T14:07:11.000Z</time>
      </trkpt>
      <trkpt lat="45.79356" lon="1.92025">
        <ele>714.1</ele>
        <time>2026-07-08T14:07:12.000Z</time>
      </trkpt>
      <trkpt lat="45.79357" lon="1.92025">
        <ele>714.1</ele>
        <time>2026-07-08T14:07:13.000Z</time>
      </trkpt>
      <trkpt lat="45.79357" lon="1.92025">
        <ele>714.8</ele>
        <time>2026-07-08T14:07:14.000Z</time>
      </trkpt>
      <trkpt lat="45.79358" lon="1.92025">
        <ele>713.7</ele>
        <time>2026-07-08T14:07:15.000Z</time>
      </trkpt>
      <trkpt lat="45.79359" lon="1.92024">
        <ele>713.9</ele>
        <time>2026-07-08T14:07:16.000Z</time>
      </trkpt>
      <trkpt lat="45.79361" lon="1.92023">
        <ele>714.9</ele>
        <time>2026-07-08T14:07:17.000Z</time>
      </trkpt>
      <trkpt lat="45.79362" lon="1.92023">
        <ele>715.4</ele>
        <time>2026-07-08T14:07:18.000Z</time>
      </trkpt>
      <trkpt lat="45.79363" lon="1.92022">
        <ele>715.4</ele>
        <time>2026-07-08T14:07:19.000Z</time>
      </trkpt>
      <trkpt lat="45.79365" lon="1.92022">
        <ele>715.7</ele>
        <time>2026-07-08T14:07:20.000Z</time>
      </trkpt>
      <trkpt lat="45.79366" lon="1.92021">
        <ele>716</ele>
        <time>2026-07-08T14:07:21.000Z</time>
      </trkpt>
      <trkpt lat="45.79368" lon="1.9202">
        <ele>716.5</ele>
        <time>2026-07-08T14:07:22.000Z</time>
      </trkpt>
      <trkpt lat="45.79367" lon="1.9202">
        <ele>716.8</ele>
        <time>2026-07-08T14:07:23.000Z</time>
      </trkpt>
      <trkpt lat="45.79369" lon="1.9202">
        <ele>717.1</ele>
        <time>2026-07-08T14:07:24.000Z</time>
      </trkpt>
      <trkpt lat="45.7937" lon="1.92018">
        <ele>717.3</ele>
        <time>2026-07-08T14:07:25.000Z</time>
      </trkpt>
      <trkpt lat="45.79371" lon="1.92019">
        <ele>719.4</ele>
        <time>2026-07-08T14:07:26.000Z</time>
      </trkpt>
      <trkpt lat="45.79373" lon="1.92019">
        <ele>719.7</ele>
        <time>2026-07-08T14:07:27.000Z</time>
      </trkpt>
      <trkpt lat="45.79374" lon="1.92019">
        <ele>719.9</ele>
        <time>2026-07-08T14:07:28.000Z</time>
      </trkpt>
      <trkpt lat="45.79375" lon="1.92019">
        <ele>720</ele>
        <time>2026-07-08T14:07:29.000Z</time>
      </trkpt>
      <trkpt lat="45.79377" lon="1.92018">
        <ele>720</ele>
        <time>2026-07-08T14:07:30.000Z</time>
      </trkpt>
      <trkpt lat="45.79378" lon="1.92018">
        <ele>719.9</ele>
        <time>2026-07-08T14:07:31.000Z</time>
      </trkpt>
      <trkpt lat="45.79379" lon="1.92018">
        <ele>720.8</ele>
        <time>2026-07-08T14:07:32.000Z</time>
      </trkpt>
      <trkpt lat="45.7938" lon="1.92017">
        <ele>721.1</ele>
        <time>2026-07-08T14:07:33.000Z</time>
      </trkpt>
      <trkpt lat="45.79382" lon="1.92016">
        <ele>721.2</ele>
        <time>2026-07-08T14:07:34.000Z</time>
      </trkpt>
      <trkpt lat="45.79383" lon="1.92015">
        <ele>721</ele>
        <time>2026-07-08T14:07:35.000Z</time>
      </trkpt>
      <trkpt lat="45.79385" lon="1.92015">
        <ele>720.4</ele>
        <time>2026-07-08T14:07:36.000Z</time>
      </trkpt>
      <trkpt lat="45.79386" lon="1.92014">
        <ele>721.5</ele>
        <time>2026-07-08T14:07:37.000Z</time>
      </trkpt>
      <trkpt lat="45.79388" lon="1.92014">
        <ele>721.4</ele>
        <time>2026-07-08T14:07:38.000Z</time>
      </trkpt>
      <trkpt lat="45.79389" lon="1.92013">
        <ele>721.1</ele>
        <time>2026-07-08T14:07:39.000Z</time>
      </trkpt>
      <trkpt lat="45.79391" lon="1.92012">
        <ele>721.8</ele>
        <time>2026-07-08T14:07:40.000Z</time>
      </trkpt>
      <trkpt lat="45.79392" lon="1.92011">
        <ele>722.8</ele>
        <time>2026-07-08T14:07:41.000Z</time>
      </trkpt>
      <trkpt lat="45.79394" lon="1.92011">
        <ele>722.5</ele>
        <time>2026-07-08T14:07:42.000Z</time>
      </trkpt>
      <trkpt lat="45.79396" lon="1.9201">
        <ele>722</ele>
        <time>2026-07-08T14:07:43.000Z</time>
      </trkpt>
      <trkpt lat="45.79397" lon="1.92009">
        <ele>722</ele>
        <time>2026-07-08T14:07:44.000Z</time>
      </trkpt>
      <trkpt lat="45.79399" lon="1.92008">
        <ele>721.9</ele>
        <time>2026-07-08T14:07:45.000Z</time>
      </trkpt>
      <trkpt lat="45.794" lon="1.92008">
        <ele>721.9</ele>
        <time>2026-07-08T14:07:46.000Z</time>
      </trkpt>
      <trkpt lat="45.79402" lon="1.92006">
        <ele>721.9</ele>
        <time>2026-07-08T14:07:47.000Z</time>
      </trkpt>
      <trkpt lat="45.79403" lon="1.92005">
        <ele>722</ele>
        <time>2026-07-08T14:07:48.000Z</time>
      </trkpt>
      <trkpt lat="45.79404" lon="1.92005">
        <ele>722.5</ele>
        <time>2026-07-08T14:07:49.000Z</time>
      </trkpt>
      <trkpt lat="45.79406" lon="1.92004">
        <ele>722.3</ele>
        <time>2026-07-08T14:07:50.000Z</time>
      </trkpt>
      <trkpt lat="45.79408" lon="1.92004">
        <ele>722.5</ele>
        <time>2026-07-08T14:07:51.000Z</time>
      </trkpt>
      <trkpt lat="45.79409" lon="1.92003">
        <ele>722.3</ele>
        <time>2026-07-08T14:07:52.000Z</time>
      </trkpt>
      <trkpt lat="45.79411" lon="1.92002">
        <ele>722.7</ele>
        <time>2026-07-08T14:07:53.000Z</time>
      </trkpt>
      <trkpt lat="45.79413" lon="1.92001">
        <ele>723.5</ele>
        <time>2026-07-08T14:07:54.000Z</time>
      </trkpt>
      <trkpt lat="45.79414" lon="1.92">
        <ele>724</ele>
        <time>2026-07-08T14:07:55.000Z</time>
      </trkpt>
      <trkpt lat="45.79416" lon="1.91999">
        <ele>723.8</ele>
        <time>2026-07-08T14:07:56.000Z</time>
      </trkpt>
      <trkpt lat="45.79418" lon="1.91999">
        <ele>724</ele>
        <time>2026-07-08T14:07:57.000Z</time>
      </trkpt>
      <trkpt lat="45.7942" lon="1.91998">
        <ele>723.9</ele>
        <time>2026-07-08T14:07:58.000Z</time>
      </trkpt>
      <trkpt lat="45.79421" lon="1.91998">
        <ele>724</ele>
        <time>2026-07-08T14:07:59.000Z</time>
      </trkpt>
      <trkpt lat="45.79423" lon="1.91997">
        <ele>724.6</ele>
        <time>2026-07-08T14:08:00.000Z</time>
      </trkpt>
      <trkpt lat="45.79425" lon="1.91997">
        <ele>724.9</ele>
        <time>2026-07-08T14:08:01.000Z</time>
      </trkpt>
      <trkpt lat="45.79426" lon="1.91996">
        <ele>724.2</ele>
        <time>2026-07-08T14:08:02.000Z</time>
      </trkpt>
      <trkpt lat="45.79428" lon="1.91995">
        <ele>722.5</ele>
        <time>2026-07-08T14:08:03.000Z</time>
      </trkpt>
      <trkpt lat="45.7943" lon="1.91995">
        <ele>722.1</ele>
        <time>2026-07-08T14:08:04.000Z</time>
      </trkpt>
      <trkpt lat="45.79432" lon="1.91995">
        <ele>721.6</ele>
        <time>2026-07-08T14:08:05.000Z</time>
      </trkpt>
      <trkpt lat="45.79433" lon="1.91994">
        <ele>721.5</ele>
        <time>2026-07-08T14:08:06.000Z</time>
      </trkpt>
      <trkpt lat="45.79435" lon="1.91993">
        <ele>721.6</ele>
        <time>2026-07-08T14:08:07.000Z</time>
      </trkpt>
      <trkpt lat="45.79437" lon="1.91992">
        <ele>722.3</ele>
        <time>2026-07-08T14:08:08.000Z</time>
      </trkpt>
      <trkpt lat="45.79438" lon="1.91991">
        <ele>722.7</ele>
        <time>2026-07-08T14:08:09.000Z</time>
      </trkpt>
      <trkpt lat="45.7944" lon="1.9199">
        <ele>722.4</ele>
        <time>2026-07-08T14:08:10.000Z</time>
      </trkpt>
      <trkpt lat="45.79442" lon="1.91988">
        <ele>723.2</ele>
        <time>2026-07-08T14:08:11.000Z</time>
      </trkpt>
      <trkpt lat="45.79443" lon="1.91987">
        <ele>723.4</ele>
        <time>2026-07-08T14:08:12.000Z</time>
      </trkpt>
      <trkpt lat="45.79443" lon="1.91981">
        <ele>726.1</ele>
        <time>2026-07-08T14:08:13.000Z</time>
      </trkpt>
      <trkpt lat="45.79443" lon="1.91983">
        <ele>722.8</ele>
        <time>2026-07-08T14:08:14.000Z</time>
      </trkpt>
      <trkpt lat="45.79443" lon="1.91984">
        <ele>722</ele>
        <time>2026-07-08T14:08:15.000Z</time>
      </trkpt>
      <trkpt lat="45.79443" lon="1.91985">
        <ele>721.9</ele>
        <time>2026-07-08T14:08:16.000Z</time>
      </trkpt>
      <trkpt lat="45.79443" lon="1.91985">
        <ele>721.4</ele>
        <time>2026-07-08T14:08:17.000Z</time>
      </trkpt>
      <trkpt lat="45.79444" lon="1.91985">
        <ele>721.8</ele>
        <time>2026-07-08T14:08:18.000Z</time>
      </trkpt>
      <trkpt lat="45.79444" lon="1.91986">
        <ele>721.8</ele>
        <time>2026-07-08T14:08:19.000Z</time>
      </trkpt>
      <trkpt lat="45.79444" lon="1.91986">
        <ele>721.8</ele>
        <time>2026-07-08T14:08:20.000Z</time>
      </trkpt>
      <trkpt lat="45.79444" lon="1.91986">
        <ele>721.8</ele>
        <time>2026-07-08T14:08:21.000Z</time>
      </trkpt>
      <trkpt lat="45.79443" lon="1.91985">
        <ele>721.5</ele>
        <time>2026-07-08T14:08:22.000Z</time>
      </trkpt>
      <trkpt lat="45.79442" lon="1.91985">
        <ele>721.5</ele>
        <time>2026-07-08T14:08:23.000Z</time>
      </trkpt>
      <trkpt lat="45.7944" lon="1.91984">
        <ele>721.4</ele>
        <time>2026-07-08T14:08:24.000Z</time>
      </trkpt>
      <trkpt lat="45.79439" lon="1.91983">
        <ele>721.5</ele>
        <time>2026-07-08T14:08:25.000Z</time>
      </trkpt>
      <trkpt lat="45.79437" lon="1.91983">
        <ele>721.4</ele>
        <time>2026-07-08T14:08:26.000Z</time>
      </trkpt>
      <trkpt lat="45.79436" lon="1.91983">
        <ele>721.2</ele>
        <time>2026-07-08T14:08:27.000Z</time>
      </trkpt>
      <trkpt lat="45.79434" lon="1.91983">
        <ele>721.6</ele>
        <time>2026-07-08T14:08:28.000Z</time>
      </trkpt>
      <trkpt lat="45.79433" lon="1.91982">
        <ele>721.5</ele>
        <time>2026-07-08T14:08:29.000Z</time>
      </trkpt>
      <trkpt lat="45.79432" lon="1.91981">
        <ele>721.6</ele>
        <time>2026-07-08T14:08:30.000Z</time>
      </trkpt>
      <trkpt lat="45.79431" lon="1.9198">
        <ele>721.3</ele>
        <time>2026-07-08T14:08:31.000Z</time>
      </trkpt>
      <trkpt lat="45.7943" lon="1.91979">
        <ele>721.4</ele>
        <time>2026-07-08T14:08:32.000Z</time>
      </trkpt>
      <trkpt lat="45.79429" lon="1.91978">
        <ele>721.5</ele>
        <time>2026-07-08T14:08:33.000Z</time>
      </trkpt>
      <trkpt lat="45.79428" lon="1.91978">
        <ele>721.3</ele>
        <time>2026-07-08T14:08:34.000Z</time>
      </trkpt>
      <trkpt lat="45.79426" lon="1.91978">
        <ele>720.5</ele>
        <time>2026-07-08T14:08:35.000Z</time>
      </trkpt>
      <trkpt lat="45.79425" lon="1.91978">
        <ele>720.2</ele>
        <time>2026-07-08T14:08:36.000Z</time>
      </trkpt>
      <trkpt lat="45.79424" lon="1.91978">
        <ele>719.6</ele>
        <time>2026-07-08T14:08:37.000Z</time>
      </trkpt>
      <trkpt lat="45.79423" lon="1.91978">
        <ele>719.6</ele>
        <time>2026-07-08T14:08:38.000Z</time>
      </trkpt>
      <trkpt lat="45.79422" lon="1.91979">
        <ele>719.5</ele>
        <time>2026-07-08T14:08:39.000Z</time>
      </trkpt>
      <trkpt lat="45.79421" lon="1.91979">
        <ele>719.4</ele>
        <time>2026-07-08T14:08:40.000Z</time>
      </trkpt>
      <trkpt lat="45.7942" lon="1.91978">
        <ele>719</ele>
        <time>2026-07-08T14:08:41.000Z</time>
      </trkpt>
      <trkpt lat="45.7942" lon="1.91978">
        <ele>718.4</ele>
        <time>2026-07-08T14:08:42.000Z</time>
      </trkpt>
      <trkpt lat="45.79419" lon="1.91977">
        <ele>717.4</ele>
        <time>2026-07-08T14:08:43.000Z</time>
      </trkpt>
      <trkpt lat="45.79418" lon="1.91976">
        <ele>716.8</ele>
        <time>2026-07-08T14:08:44.000Z</time>
      </trkpt>
      <trkpt lat="45.79417" lon="1.91976">
        <ele>717.2</ele>
        <time>2026-07-08T14:08:45.000Z</time>
      </trkpt>
      <trkpt lat="45.79416" lon="1.91975">
        <ele>717.4</ele>
        <time>2026-07-08T14:08:46.000Z</time>
      </trkpt>
      <trkpt lat="45.79416" lon="1.91975">
        <ele>717.1</ele>
        <time>2026-07-08T14:08:47.000Z</time>
      </trkpt>
      <trkpt lat="45.79416" lon="1.91975">
        <ele>717.1</ele>
        <time>2026-07-08T14:08:48.000Z</time>
      </trkpt>
      <trkpt lat="45.79416" lon="1.91975">
        <ele>717.1</ele>
        <time>2026-07-08T14:08:49.000Z</time>
      </trkpt>
      <trkpt lat="45.79416" lon="1.91975">
        <ele>717.1</ele>
        <time>2026-07-08T14:08:50.000Z</time>
      </trkpt>
      <trkpt lat="45.79416" lon="1.91975">
        <ele>717.1</ele>
        <time>2026-07-08T14:08:51.000Z</time>
      </trkpt>
      <trkpt lat="45.79416" lon="1.91975">
        <ele>717.1</ele>
        <time>2026-07-08T14:08:52.000Z</time>
      </trkpt>
      <trkpt lat="45.79416" lon="1.91975">
        <ele>717.1</ele>
        <time>2026-07-08T14:08:53.000Z</time>
      </trkpt>
      <trkpt lat="45.79416" lon="1.91975">
        <ele>717.1</ele>
        <time>2026-07-08T14:08:54.000Z</time>
      </trkpt>
      <trkpt lat="45.79416" lon="1.91975">
        <ele>717.1</ele>
        <time>2026-07-08T14:08:55.000Z</time>
      </trkpt>
      <trkpt lat="45.79416" lon="1.91975">
        <ele>717.1</ele>
        <time>2026-07-08T14:08:56.000Z</time>
      </trkpt>
      <trkpt lat="45.79416" lon="1.91975">
        <ele>717.1</ele>
        <time>2026-07-08T14:08:57.000Z</time>
      </trkpt>
      <trkpt lat="45.79416" lon="1.91975">
        <ele>717.1</ele>
        <time>2026-07-08T14:08:58.000Z</time>
      </trkpt>
      <trkpt lat="45.79416" lon="1.91975">
        <ele>717.1</ele>
        <time>2026-07-08T14:08:59.000Z</time>
      </trkpt>
      <trkpt lat="45.79416" lon="1.91975">
        <ele>717.1</ele>
        <time>2026-07-08T14:09:00.000Z</time>
      </trkpt>
      <trkpt lat="45.79416" lon="1.91975">
        <ele>717.1</ele>
        <time>2026-07-08T14:09:01.000Z</time>
      </trkpt>
      <trkpt lat="45.79416" lon="1.91975">
        <ele>717.1</ele>
        <time>2026-07-08T14:09:02.000Z</time>
      </trkpt>
      <trkpt lat="45.79416" lon="1.91975">
        <ele>717.1</ele>
        <time>2026-07-08T14:09:03.000Z</time>
      </trkpt>
      <trkpt lat="45.79416" lon="1.91975">
        <ele>717.1</ele>
        <time>2026-07-08T14:09:04.000Z</time>
      </trkpt>
      <trkpt lat="45.79416" lon="1.91975">
        <ele>717.1</ele>
        <time>2026-07-08T14:09:05.000Z</time>
      </trkpt>
      <trkpt lat="45.79416" lon="1.91975">
        <ele>717.1</ele>
        <time>2026-07-08T14:09:06.000Z</time>
      </trkpt>
      <trkpt lat="45.79416" lon="1.91975">
        <ele>717.1</ele>
        <time>2026-07-08T14:09:07.000Z</time>
      </trkpt>
      <trkpt lat="45.79416" lon="1.91975">
        <ele>717.1</ele>
        <time>2026-07-08T14:09:08.000Z</time>
      </trkpt>
      <trkpt lat="45.79416" lon="1.91975">
        <ele>717.1</ele>
        <time>2026-07-08T14:09:09.000Z</time>
      </trkpt>
      <trkpt lat="45.79416" lon="1.91975">
        <ele>717.1</ele>
        <time>2026-07-08T14:09:10.000Z</time>
      </trkpt>
      <trkpt lat="45.79416" lon="1.91975">
        <ele>717.1</ele>
        <time>2026-07-08T14:09:11.000Z</time>
      </trkpt>
      <trkpt lat="45.79416" lon="1.91975">
        <ele>717.1</ele>
        <time>2026-07-08T14:09:12.000Z</time>
      </trkpt>
      <trkpt lat="45.79416" lon="1.91975">
        <ele>717.1</ele>
        <time>2026-07-08T14:09:13.000Z</time>
      </trkpt>
      <trkpt lat="45.79416" lon="1.91975">
        <ele>717.1</ele>
        <time>2026-07-08T14:09:14.000Z</time>
      </trkpt>
      <trkpt lat="45.79416" lon="1.91975">
        <ele>717.1</ele>
        <time>2026-07-08T14:09:15.000Z</time>
      </trkpt>
      <trkpt lat="45.79416" lon="1.91975">
        <ele>717.1</ele>
        <time>2026-07-08T14:09:16.000Z</time>
      </trkpt>
      <trkpt lat="45.79416" lon="1.91975">
        <ele>717.1</ele>
        <time>2026-07-08T14:09:17.000Z</time>
      </trkpt>
      <trkpt lat="45.79416" lon="1.91975">
        <ele>717.1</ele>
        <time>2026-07-08T14:09:18.000Z</time>
      </trkpt>
      <trkpt lat="45.79416" lon="1.91975">
        <ele>717.1</ele>
        <time>2026-07-08T14:09:19.000Z</time>
      </trkpt>
      <trkpt lat="45.79416" lon="1.91975">
        <ele>717.1</ele>
        <time>2026-07-08T14:09:20.000Z</time>
      </trkpt>
      <trkpt lat="45.79416" lon="1.91975">
        <ele>717.1</ele>
        <time>2026-07-08T14:09:21.000Z</time>
      </trkpt>
      <trkpt lat="45.79416" lon="1.91975">
        <ele>717.4</ele>
        <time>2026-07-08T14:09:22.000Z</time>
      </trkpt>
      <trkpt lat="45.79416" lon="1.91975">
        <ele>717.4</ele>
        <time>2026-07-08T14:09:23.000Z</time>
      </trkpt>
      <trkpt lat="45.79414" lon="1.91975">
        <ele>717.4</ele>
        <time>2026-07-08T14:09:24.000Z</time>
      </trkpt>
      <trkpt lat="45.79414" lon="1.91975">
        <ele>717.4</ele>
        <time>2026-07-08T14:09:25.000Z</time>
      </trkpt>
      <trkpt lat="45.79413" lon="1.91976">
        <ele>715.8</ele>
        <time>2026-07-08T14:09:26.000Z</time>
      </trkpt>
      <trkpt lat="45.79411" lon="1.91975">
        <ele>715.4</ele>
        <time>2026-07-08T14:09:27.000Z</time>
      </trkpt>
      <trkpt lat="45.7941" lon="1.91975">
        <ele>714.3</ele>
        <time>2026-07-08T14:09:28.000Z</time>
      </trkpt>
      <trkpt lat="45.79409" lon="1.91975">
        <ele>713.9</ele>
        <time>2026-07-08T14:09:29.000Z</time>
      </trkpt>
      <trkpt lat="45.79407" lon="1.91974">
        <ele>713.5</ele>
        <time>2026-07-08T14:09:30.000Z</time>
      </trkpt>
      <trkpt lat="45.79405" lon="1.91974">
        <ele>713.3</ele>
        <time>2026-07-08T14:09:31.000Z</time>
      </trkpt>
      <trkpt lat="45.79404" lon="1.91974">
        <ele>713.3</ele>
        <time>2026-07-08T14:09:32.000Z</time>
      </trkpt>
      <trkpt lat="45.79403" lon="1.91973">
        <ele>713.2</ele>
        <time>2026-07-08T14:09:33.000Z</time>
      </trkpt>
      <trkpt lat="45.79402" lon="1.91971">
        <ele>712.7</ele>
        <time>2026-07-08T14:09:34.000Z</time>
      </trkpt>
      <trkpt lat="45.794" lon="1.9197">
        <ele>712.9</ele>
        <time>2026-07-08T14:09:35.000Z</time>
      </trkpt>
      <trkpt lat="45.79398" lon="1.91969">
        <ele>712.6</ele>
        <time>2026-07-08T14:09:36.000Z</time>
      </trkpt>
      <trkpt lat="45.79397" lon="1.91968">
        <ele>712.5</ele>
        <time>2026-07-08T14:09:37.000Z</time>
      </trkpt>
      <trkpt lat="45.79395" lon="1.91967">
        <ele>712.2</ele>
        <time>2026-07-08T14:09:38.000Z</time>
      </trkpt>
      <trkpt lat="45.79394" lon="1.91966">
        <ele>711.9</ele>
        <time>2026-07-08T14:09:39.000Z</time>
      </trkpt>
      <trkpt lat="45.79393" lon="1.91965">
        <ele>711.1</ele>
        <time>2026-07-08T14:09:40.000Z</time>
      </trkpt>
      <trkpt lat="45.79392" lon="1.91963">
        <ele>710.9</ele>
        <time>2026-07-08T14:09:41.000Z</time>
      </trkpt>
      <trkpt lat="45.79391" lon="1.91962">
        <ele>711</ele>
        <time>2026-07-08T14:09:42.000Z</time>
      </trkpt>
      <trkpt lat="45.7939" lon="1.91961">
        <ele>710.9</ele>
        <time>2026-07-08T14:09:43.000Z</time>
      </trkpt>
      <trkpt lat="45.79389" lon="1.9196">
        <ele>710.8</ele>
        <time>2026-07-08T14:09:44.000Z</time>
      </trkpt>
      <trkpt lat="45.79388" lon="1.91959">
        <ele>710.8</ele>
        <time>2026-07-08T14:09:45.000Z</time>
      </trkpt>
      <trkpt lat="45.79387" lon="1.91957">
        <ele>709.6</ele>
        <time>2026-07-08T14:09:46.000Z</time>
      </trkpt>
      <trkpt lat="45.79386" lon="1.91956">
        <ele>708.6</ele>
        <time>2026-07-08T14:09:47.000Z</time>
      </trkpt>
      <trkpt lat="45.79385" lon="1.91955">
        <ele>707.6</ele>
        <time>2026-07-08T14:09:48.000Z</time>
      </trkpt>
      <trkpt lat="45.79384" lon="1.91953">
        <ele>706.6</ele>
        <time>2026-07-08T14:09:49.000Z</time>
      </trkpt>
      <trkpt lat="45.79383" lon="1.91951">
        <ele>706.3</ele>
        <time>2026-07-08T14:09:50.000Z</time>
      </trkpt>
      <trkpt lat="45.79382" lon="1.91949">
        <ele>706.1</ele>
        <time>2026-07-08T14:09:51.000Z</time>
      </trkpt>
      <trkpt lat="45.79381" lon="1.91947">
        <ele>705.6</ele>
        <time>2026-07-08T14:09:52.000Z</time>
      </trkpt>
      <trkpt lat="45.7938" lon="1.91945">
        <ele>705.5</ele>
        <time>2026-07-08T14:09:53.000Z</time>
      </trkpt>
      <trkpt lat="45.79379" lon="1.91944">
        <ele>705.1</ele>
        <time>2026-07-08T14:09:54.000Z</time>
      </trkpt>
      <trkpt lat="45.79378" lon="1.91943">
        <ele>704.1</ele>
        <time>2026-07-08T14:09:55.000Z</time>
      </trkpt>
      <trkpt lat="45.79377" lon="1.91941">
        <ele>703.7</ele>
        <time>2026-07-08T14:09:56.000Z</time>
      </trkpt>
      <trkpt lat="45.79376" lon="1.91939">
        <ele>703.2</ele>
        <time>2026-07-08T14:09:57.000Z</time>
      </trkpt>
      <trkpt lat="45.79376" lon="1.91937">
        <ele>703</ele>
        <time>2026-07-08T14:09:58.000Z</time>
      </trkpt>
      <trkpt lat="45.79375" lon="1.91935">
        <ele>702.9</ele>
        <time>2026-07-08T14:09:59.000Z</time>
      </trkpt>
      <trkpt lat="45.79375" lon="1.91933">
        <ele>703.2</ele>
        <time>2026-07-08T14:10:00.000Z</time>
      </trkpt>
      <trkpt lat="45.79375" lon="1.91931">
        <ele>703</ele>
        <time>2026-07-08T14:10:01.000Z</time>
      </trkpt>
      <trkpt lat="45.79377" lon="1.9193">
        <ele>703.2</ele>
        <time>2026-07-08T14:10:02.000Z</time>
      </trkpt>
      <trkpt lat="45.79378" lon="1.9193">
        <ele>703.8</ele>
        <time>2026-07-08T14:10:03.000Z</time>
      </trkpt>
      <trkpt lat="45.7938" lon="1.9193">
        <ele>704</ele>
        <time>2026-07-08T14:10:04.000Z</time>
      </trkpt>
      <trkpt lat="45.79382" lon="1.9193">
        <ele>704.5</ele>
        <time>2026-07-08T14:10:05.000Z</time>
      </trkpt>
      <trkpt lat="45.79384" lon="1.9193">
        <ele>705</ele>
        <time>2026-07-08T14:10:06.000Z</time>
      </trkpt>
      <trkpt lat="45.79386" lon="1.9193">
        <ele>705.2</ele>
        <time>2026-07-08T14:10:07.000Z</time>
      </trkpt>
      <trkpt lat="45.79388" lon="1.9193">
        <ele>705</ele>
        <time>2026-07-08T14:10:08.000Z</time>
      </trkpt>
      <trkpt lat="45.7939" lon="1.91929">
        <ele>705</ele>
        <time>2026-07-08T14:10:09.000Z</time>
      </trkpt>
      <trkpt lat="45.79392" lon="1.91929">
        <ele>705.7</ele>
        <time>2026-07-08T14:10:10.000Z</time>
      </trkpt>
      <trkpt lat="45.79394" lon="1.91928">
        <ele>705.8</ele>
        <time>2026-07-08T14:10:11.000Z</time>
      </trkpt>
      <trkpt lat="45.79396" lon="1.91928">
        <ele>705.6</ele>
        <time>2026-07-08T14:10:12.000Z</time>
      </trkpt>
      <trkpt lat="45.79398" lon="1.91927">
        <ele>706.8</ele>
        <time>2026-07-08T14:10:13.000Z</time>
      </trkpt>
      <trkpt lat="45.79401" lon="1.91926">
        <ele>707.8</ele>
        <time>2026-07-08T14:10:14.000Z</time>
      </trkpt>
      <trkpt lat="45.79403" lon="1.91925">
        <ele>707.8</ele>
        <time>2026-07-08T14:10:15.000Z</time>
      </trkpt>
      <trkpt lat="45.79405" lon="1.91926">
        <ele>707.2</ele>
        <time>2026-07-08T14:10:16.000Z</time>
      </trkpt>
      <trkpt lat="45.79407" lon="1.91925">
        <ele>707</ele>
        <time>2026-07-08T14:10:17.000Z</time>
      </trkpt>
      <trkpt lat="45.79409" lon="1.91925">
        <ele>707.3</ele>
        <time>2026-07-08T14:10:18.000Z</time>
      </trkpt>
      <trkpt lat="45.79411" lon="1.91925">
        <ele>705.8</ele>
        <time>2026-07-08T14:10:19.000Z</time>
      </trkpt>
      <trkpt lat="45.79412" lon="1.91925">
        <ele>705.3</ele>
        <time>2026-07-08T14:10:20.000Z</time>
      </trkpt>
      <trkpt lat="45.79414" lon="1.91926">
        <ele>705.2</ele>
        <time>2026-07-08T14:10:21.000Z</time>
      </trkpt>
      <trkpt lat="45.79416" lon="1.91927">
        <ele>705.8</ele>
        <time>2026-07-08T14:10:22.000Z</time>
      </trkpt>
      <trkpt lat="45.79417" lon="1.91928">
        <ele>705.6</ele>
        <time>2026-07-08T14:10:23.000Z</time>
      </trkpt>
      <trkpt lat="45.79419" lon="1.91928">
        <ele>706.2</ele>
        <time>2026-07-08T14:10:24.000Z</time>
      </trkpt>
      <trkpt lat="45.7942" lon="1.91929">
        <ele>707.3</ele>
        <time>2026-07-08T14:10:25.000Z</time>
      </trkpt>
      <trkpt lat="45.79421" lon="1.91928">
        <ele>706.8</ele>
        <time>2026-07-08T14:10:26.000Z</time>
      </trkpt>
      <trkpt lat="45.79423" lon="1.91926">
        <ele>705.8</ele>
        <time>2026-07-08T14:10:27.000Z</time>
      </trkpt>
      <trkpt lat="45.79424" lon="1.91924">
        <ele>706</ele>
        <time>2026-07-08T14:10:28.000Z</time>
      </trkpt>
      <trkpt lat="45.79426" lon="1.91922">
        <ele>706.9</ele>
        <time>2026-07-08T14:10:29.000Z</time>
      </trkpt>
      <trkpt lat="45.79428" lon="1.91921">
        <ele>707.8</ele>
        <time>2026-07-08T14:10:30.000Z</time>
      </trkpt>
      <trkpt lat="45.7943" lon="1.91919">
        <ele>707.9</ele>
        <time>2026-07-08T14:10:31.000Z</time>
      </trkpt>
      <trkpt lat="45.79431" lon="1.91918">
        <ele>708.9</ele>
        <time>2026-07-08T14:10:32.000Z</time>
      </trkpt>
      <trkpt lat="45.79432" lon="1.91916">
        <ele>708.7</ele>
        <time>2026-07-08T14:10:33.000Z</time>
      </trkpt>
      <trkpt lat="45.79433" lon="1.91914">
        <ele>708.7</ele>
        <time>2026-07-08T14:10:34.000Z</time>
      </trkpt>
      <trkpt lat="45.79434" lon="1.91912">
        <ele>709.1</ele>
        <time>2026-07-08T14:10:35.000Z</time>
      </trkpt>
      <trkpt lat="45.79435" lon="1.9191">
        <ele>708.7</ele>
        <time>2026-07-08T14:10:36.000Z</time>
      </trkpt>
      <trkpt lat="45.79435" lon="1.91908">
        <ele>709.1</ele>
        <time>2026-07-08T14:10:37.000Z</time>
      </trkpt>
      <trkpt lat="45.79436" lon="1.91905">
        <ele>708.6</ele>
        <time>2026-07-08T14:10:38.000Z</time>
      </trkpt>
      <trkpt lat="45.79438" lon="1.91903">
        <ele>708.8</ele>
        <time>2026-07-08T14:10:39.000Z</time>
      </trkpt>
      <trkpt lat="45.79439" lon="1.91902">
        <ele>708.9</ele>
        <time>2026-07-08T14:10:40.000Z</time>
      </trkpt>
      <trkpt lat="45.79439" lon="1.919">
        <ele>709.6</ele>
        <time>2026-07-08T14:10:41.000Z</time>
      </trkpt>
      <trkpt lat="45.7944" lon="1.91898">
        <ele>709.3</ele>
        <time>2026-07-08T14:10:42.000Z</time>
      </trkpt>
      <trkpt lat="45.79442" lon="1.91896">
        <ele>709.1</ele>
        <time>2026-07-08T14:10:43.000Z</time>
      </trkpt>
      <trkpt lat="45.79443" lon="1.91894">
        <ele>709.5</ele>
        <time>2026-07-08T14:10:44.000Z</time>
      </trkpt>
      <trkpt lat="45.79445" lon="1.91893">
        <ele>709.7</ele>
        <time>2026-07-08T14:10:45.000Z</time>
      </trkpt>
      <trkpt lat="45.79447" lon="1.91891">
        <ele>709.7</ele>
        <time>2026-07-08T14:10:46.000Z</time>
      </trkpt>
      <trkpt lat="45.79449" lon="1.9189">
        <ele>709.1</ele>
        <time>2026-07-08T14:10:47.000Z</time>
      </trkpt>
      <trkpt lat="45.79451" lon="1.9189">
        <ele>709.6</ele>
        <time>2026-07-08T14:10:48.000Z</time>
      </trkpt>
      <trkpt lat="45.79453" lon="1.9189">
        <ele>709.6</ele>
        <time>2026-07-08T14:10:49.000Z</time>
      </trkpt>
      <trkpt lat="45.79455" lon="1.9189">
        <ele>710</ele>
        <time>2026-07-08T14:10:50.000Z</time>
      </trkpt>
      <trkpt lat="45.79458" lon="1.91889">
        <ele>710.1</ele>
        <time>2026-07-08T14:10:51.000Z</time>
      </trkpt>
      <trkpt lat="45.7946" lon="1.91889">
        <ele>710.4</ele>
        <time>2026-07-08T14:10:52.000Z</time>
      </trkpt>
      <trkpt lat="45.79463" lon="1.91888">
        <ele>710.1</ele>
        <time>2026-07-08T14:10:53.000Z</time>
      </trkpt>
      <trkpt lat="45.79466" lon="1.91887">
        <ele>710.1</ele>
        <time>2026-07-08T14:10:54.000Z</time>
      </trkpt>
      <trkpt lat="45.79469" lon="1.91886">
        <ele>710.2</ele>
        <time>2026-07-08T14:10:55.000Z</time>
      </trkpt>
      <trkpt lat="45.79471" lon="1.91884">
        <ele>709.9</ele>
        <time>2026-07-08T14:10:56.000Z</time>
      </trkpt>
      <trkpt lat="45.79474" lon="1.91883">
        <ele>709.5</ele>
        <time>2026-07-08T14:10:57.000Z</time>
      </trkpt>
      <trkpt lat="45.79476" lon="1.9188">
        <ele>709.3</ele>
        <time>2026-07-08T14:10:58.000Z</time>
      </trkpt>
      <trkpt lat="45.79478" lon="1.91879">
        <ele>708.7</ele>
        <time>2026-07-08T14:10:59.000Z</time>
      </trkpt>
      <trkpt lat="45.79478" lon="1.91878">
        <ele>708.3</ele>
        <time>2026-07-08T14:11:00.000Z</time>
      </trkpt>
      <trkpt lat="45.79479" lon="1.91876">
        <ele>707.7</ele>
        <time>2026-07-08T14:11:01.000Z</time>
      </trkpt>
      <trkpt lat="45.79479" lon="1.91876">
        <ele>707.7</ele>
        <time>2026-07-08T14:11:02.000Z</time>
      </trkpt>
      <trkpt lat="45.7948" lon="1.91874">
        <ele>708.3</ele>
        <time>2026-07-08T14:11:03.000Z</time>
      </trkpt>
      <trkpt lat="45.79481" lon="1.91873">
        <ele>709.3</ele>
        <time>2026-07-08T14:11:04.000Z</time>
      </trkpt>
      <trkpt lat="45.79482" lon="1.91873">
        <ele>710.8</ele>
        <time>2026-07-08T14:11:05.000Z</time>
      </trkpt>
      <trkpt lat="45.79482" lon="1.91872">
        <ele>712.1</ele>
        <time>2026-07-08T14:11:06.000Z</time>
      </trkpt>
      <trkpt lat="45.79484" lon="1.9187">
        <ele>712.6</ele>
        <time>2026-07-08T14:11:07.000Z</time>
      </trkpt>
      <trkpt lat="45.79485" lon="1.91868">
        <ele>712.7</ele>
        <time>2026-07-08T14:11:08.000Z</time>
      </trkpt>
      <trkpt lat="45.79485" lon="1.91866">
        <ele>712.3</ele>
        <time>2026-07-08T14:11:09.000Z</time>
      </trkpt>
      <trkpt lat="45.79486" lon="1.91864">
        <ele>711.9</ele>
        <time>2026-07-08T14:11:10.000Z</time>
      </trkpt>
      <trkpt lat="45.79486" lon="1.91862">
        <ele>710.3</ele>
        <time>2026-07-08T14:11:11.000Z</time>
      </trkpt>
      <trkpt lat="45.79486" lon="1.9186">
        <ele>710.2</ele>
        <time>2026-07-08T14:11:12.000Z</time>
      </trkpt>
      <trkpt lat="45.79486" lon="1.91859">
        <ele>711.2</ele>
        <time>2026-07-08T14:11:13.000Z</time>
      </trkpt>
      <trkpt lat="45.79486" lon="1.91857">
        <ele>711.2</ele>
        <time>2026-07-08T14:11:14.000Z</time>
      </trkpt>
      <trkpt lat="45.79487" lon="1.91855">
        <ele>710.2</ele>
        <time>2026-07-08T14:11:15.000Z</time>
      </trkpt>
      <trkpt lat="45.79488" lon="1.91853">
        <ele>708.8</ele>
        <time>2026-07-08T14:11:16.000Z</time>
      </trkpt>
      <trkpt lat="45.79489" lon="1.9185">
        <ele>709</ele>
        <time>2026-07-08T14:11:17.000Z</time>
      </trkpt>
      <trkpt lat="45.7949" lon="1.91848">
        <ele>708.7</ele>
        <time>2026-07-08T14:11:18.000Z</time>
      </trkpt>
      <trkpt lat="45.79491" lon="1.91844">
        <ele>708.6</ele>
        <time>2026-07-08T14:11:19.000Z</time>
      </trkpt>
      <trkpt lat="45.79494" lon="1.91841">
        <ele>709.2</ele>
        <time>2026-07-08T14:11:20.000Z</time>
      </trkpt>
      <trkpt lat="45.79496" lon="1.91837">
        <ele>709.5</ele>
        <time>2026-07-08T14:11:21.000Z</time>
      </trkpt>
      <trkpt lat="45.79498" lon="1.91832">
        <ele>709.6</ele>
        <time>2026-07-08T14:11:22.000Z</time>
      </trkpt>
      <trkpt lat="45.79503" lon="1.91831">
        <ele>709.6</ele>
        <time>2026-07-08T14:11:23.000Z</time>
      </trkpt>
      <trkpt lat="45.79506" lon="1.9183">
        <ele>709.7</ele>
        <time>2026-07-08T14:11:24.000Z</time>
      </trkpt>
      <trkpt lat="45.79509" lon="1.91829">
        <ele>710.2</ele>
        <time>2026-07-08T14:11:25.000Z</time>
      </trkpt>
      <trkpt lat="45.79512" lon="1.91826">
        <ele>709.5</ele>
        <time>2026-07-08T14:11:26.000Z</time>
      </trkpt>
      <trkpt lat="45.79515" lon="1.91824">
        <ele>708.9</ele>
        <time>2026-07-08T14:11:27.000Z</time>
      </trkpt>
      <trkpt lat="45.79519" lon="1.91822">
        <ele>709.1</ele>
        <time>2026-07-08T14:11:28.000Z</time>
      </trkpt>
      <trkpt lat="45.79524" lon="1.91822">
        <ele>709</ele>
        <time>2026-07-08T14:11:29.000Z</time>
      </trkpt>
      <trkpt lat="45.79527" lon="1.91821">
        <ele>710.6</ele>
        <time>2026-07-08T14:11:30.000Z</time>
      </trkpt>
      <trkpt lat="45.7953" lon="1.9182">
        <ele>709.1</ele>
        <time>2026-07-08T14:11:31.000Z</time>
      </trkpt>
      <trkpt lat="45.79533" lon="1.9182">
        <ele>709.1</ele>
        <time>2026-07-08T14:11:32.000Z</time>
      </trkpt>
      <trkpt lat="45.79537" lon="1.91821">
        <ele>711.2</ele>
        <time>2026-07-08T14:11:33.000Z</time>
      </trkpt>
      <trkpt lat="45.7954" lon="1.91821">
        <ele>711.3</ele>
        <time>2026-07-08T14:11:34.000Z</time>
      </trkpt>
      <trkpt lat="45.79543" lon="1.9182">
        <ele>710.7</ele>
        <time>2026-07-08T14:11:35.000Z</time>
      </trkpt>
      <trkpt lat="45.79546" lon="1.91819">
        <ele>711.2</ele>
        <time>2026-07-08T14:11:36.000Z</time>
      </trkpt>
      <trkpt lat="45.7955" lon="1.91818">
        <ele>711.1</ele>
        <time>2026-07-08T14:11:37.000Z</time>
      </trkpt>
      <trkpt lat="45.79554" lon="1.91819">
        <ele>710.8</ele>
        <time>2026-07-08T14:11:38.000Z</time>
      </trkpt>
      <trkpt lat="45.79558" lon="1.9182">
        <ele>712</ele>
        <time>2026-07-08T14:11:39.000Z</time>
      </trkpt>
      <trkpt lat="45.79561" lon="1.91821">
        <ele>713.4</ele>
        <time>2026-07-08T14:11:40.000Z</time>
      </trkpt>
      <trkpt lat="45.79565" lon="1.91821">
        <ele>715.4</ele>
        <time>2026-07-08T14:11:41.000Z</time>
      </trkpt>
      <trkpt lat="45.79568" lon="1.9182">
        <ele>717.6</ele>
        <time>2026-07-08T14:11:42.000Z</time>
      </trkpt>
      <trkpt lat="45.79572" lon="1.9182">
        <ele>717.8</ele>
        <time>2026-07-08T14:11:43.000Z</time>
      </trkpt>
      <trkpt lat="45.79574" lon="1.91818">
        <ele>717</ele>
        <time>2026-07-08T14:11:44.000Z</time>
      </trkpt>
      <trkpt lat="45.79577" lon="1.91817">
        <ele>717.3</ele>
        <time>2026-07-08T14:11:45.000Z</time>
      </trkpt>
      <trkpt lat="45.7958" lon="1.91815">
        <ele>717</ele>
        <time>2026-07-08T14:11:46.000Z</time>
      </trkpt>
      <trkpt lat="45.79582" lon="1.91814">
        <ele>717.8</ele>
        <time>2026-07-08T14:11:47.000Z</time>
      </trkpt>
      <trkpt lat="45.79583" lon="1.91812">
        <ele>719.3</ele>
        <time>2026-07-08T14:11:48.000Z</time>
      </trkpt>
      <trkpt lat="45.79584" lon="1.9181">
        <ele>718.8</ele>
        <time>2026-07-08T14:11:49.000Z</time>
      </trkpt>
      <trkpt lat="45.79585" lon="1.91808">
        <ele>717.9</ele>
        <time>2026-07-08T14:11:50.000Z</time>
      </trkpt>
      <trkpt lat="45.79586" lon="1.91807">
        <ele>716.7</ele>
        <time>2026-07-08T14:11:51.000Z</time>
      </trkpt>
      <trkpt lat="45.79586" lon="1.91805">
        <ele>716.2</ele>
        <time>2026-07-08T14:11:52.000Z</time>
      </trkpt>
      <trkpt lat="45.79587" lon="1.91804">
        <ele>715.9</ele>
        <time>2026-07-08T14:11:53.000Z</time>
      </trkpt>
      <trkpt lat="45.79588" lon="1.91803">
        <ele>716.9</ele>
        <time>2026-07-08T14:11:54.000Z</time>
      </trkpt>
      <trkpt lat="45.79588" lon="1.91801">
        <ele>716.8</ele>
        <time>2026-07-08T14:11:55.000Z</time>
      </trkpt>
      <trkpt lat="45.79589" lon="1.91801">
        <ele>715.4</ele>
        <time>2026-07-08T14:11:56.000Z</time>
      </trkpt>
      <trkpt lat="45.7959" lon="1.918">
        <ele>715.7</ele>
        <time>2026-07-08T14:11:57.000Z</time>
      </trkpt>
      <trkpt lat="45.79591" lon="1.918">
        <ele>714.5</ele>
        <time>2026-07-08T14:11:58.000Z</time>
      </trkpt>
      <trkpt lat="45.79592" lon="1.918">
        <ele>714.8</ele>
        <time>2026-07-08T14:11:59.000Z</time>
      </trkpt>
      <trkpt lat="45.79592" lon="1.91799">
        <ele>714.6</ele>
        <time>2026-07-08T14:12:00.000Z</time>
      </trkpt>
      <trkpt lat="45.79593" lon="1.91797">
        <ele>714.5</ele>
        <time>2026-07-08T14:12:01.000Z</time>
      </trkpt>
      <trkpt lat="45.79594" lon="1.91796">
        <ele>713.5</ele>
        <time>2026-07-08T14:12:02.000Z</time>
      </trkpt>
      <trkpt lat="45.79595" lon="1.91794">
        <ele>714.1</ele>
        <time>2026-07-08T14:12:03.000Z</time>
      </trkpt>
      <trkpt lat="45.79595" lon="1.91793">
        <ele>714.4</ele>
        <time>2026-07-08T14:12:04.000Z</time>
      </trkpt>
      <trkpt lat="45.79597" lon="1.91792">
        <ele>714.7</ele>
        <time>2026-07-08T14:12:05.000Z</time>
      </trkpt>
      <trkpt lat="45.79598" lon="1.9179">
        <ele>713.3</ele>
        <time>2026-07-08T14:12:06.000Z</time>
      </trkpt>
      <trkpt lat="45.79599" lon="1.91789">
        <ele>712.6</ele>
        <time>2026-07-08T14:12:07.000Z</time>
      </trkpt>
      <trkpt lat="45.796" lon="1.91787">
        <ele>713.1</ele>
        <time>2026-07-08T14:12:08.000Z</time>
      </trkpt>
      <trkpt lat="45.79602" lon="1.91786">
        <ele>712.6</ele>
        <time>2026-07-08T14:12:09.000Z</time>
      </trkpt>
      <trkpt lat="45.79603" lon="1.91785">
        <ele>713.2</ele>
        <time>2026-07-08T14:12:10.000Z</time>
      </trkpt>
      <trkpt lat="45.79604" lon="1.91783">
        <ele>712.9</ele>
        <time>2026-07-08T14:12:11.000Z</time>
      </trkpt>
      <trkpt lat="45.79606" lon="1.91782">
        <ele>713.1</ele>
        <time>2026-07-08T14:12:12.000Z</time>
      </trkpt>
      <trkpt lat="45.79607" lon="1.9178">
        <ele>713.5</ele>
        <time>2026-07-08T14:12:13.000Z</time>
      </trkpt>
      <trkpt lat="45.79609" lon="1.9178">
        <ele>713.9</ele>
        <time>2026-07-08T14:12:14.000Z</time>
      </trkpt>
      <trkpt lat="45.7961" lon="1.91779">
        <ele>713.8</ele>
        <time>2026-07-08T14:12:15.000Z</time>
      </trkpt>
      <trkpt lat="45.79612" lon="1.91778">
        <ele>714</ele>
        <time>2026-07-08T14:12:16.000Z</time>
      </trkpt>
      <trkpt lat="45.79613" lon="1.91776">
        <ele>713.4</ele>
        <time>2026-07-08T14:12:17.000Z</time>
      </trkpt>
      <trkpt lat="45.79614" lon="1.91774">
        <ele>715.9</ele>
        <time>2026-07-08T14:12:18.000Z</time>
      </trkpt>
      <trkpt lat="45.79611" lon="1.91775">
        <ele>720</ele>
        <time>2026-07-08T14:12:19.000Z</time>
      </trkpt>
      <trkpt lat="45.7961" lon="1.91775">
        <ele>720.1</ele>
        <time>2026-07-08T14:12:20.000Z</time>
      </trkpt>
      <trkpt lat="45.7961" lon="1.91776">
        <ele>719.5</ele>
        <time>2026-07-08T14:12:21.000Z</time>
      </trkpt>
      <trkpt lat="45.79611" lon="1.91775">
        <ele>719.1</ele>
        <time>2026-07-08T14:12:22.000Z</time>
      </trkpt>
      <trkpt lat="45.79611" lon="1.91774">
        <ele>718.5</ele>
        <time>2026-07-08T14:12:23.000Z</time>
      </trkpt>
      <trkpt lat="45.79613" lon="1.91773">
        <ele>718.6</ele>
        <time>2026-07-08T14:12:24.000Z</time>
      </trkpt>
      <trkpt lat="45.79613" lon="1.91773">
        <ele>717.8</ele>
        <time>2026-07-08T14:12:25.000Z</time>
      </trkpt>
      <trkpt lat="45.79613" lon="1.91771">
        <ele>716.7</ele>
        <time>2026-07-08T14:12:26.000Z</time>
      </trkpt>
      <trkpt lat="45.79615" lon="1.9177">
        <ele>716.1</ele>
        <time>2026-07-08T14:12:27.000Z</time>
      </trkpt>
      <trkpt lat="45.79615" lon="1.9177">
        <ele>715.7</ele>
        <time>2026-07-08T14:12:28.000Z</time>
      </trkpt>
      <trkpt lat="45.79616" lon="1.91769">
        <ele>715.6</ele>
        <time>2026-07-08T14:12:29.000Z</time>
      </trkpt>
      <trkpt lat="45.79616" lon="1.9177">
        <ele>715.7</ele>
        <time>2026-07-08T14:12:30.000Z</time>
      </trkpt>
      <trkpt lat="45.79617" lon="1.91769">
        <ele>715.7</ele>
        <time>2026-07-08T14:12:31.000Z</time>
      </trkpt>
      <trkpt lat="45.79617" lon="1.9177">
        <ele>716.1</ele>
        <time>2026-07-08T14:12:32.000Z</time>
      </trkpt>
      <trkpt lat="45.79618" lon="1.91769">
        <ele>715.1</ele>
        <time>2026-07-08T14:12:33.000Z</time>
      </trkpt>
      <trkpt lat="45.7962" lon="1.91768">
        <ele>716</ele>
        <time>2026-07-08T14:12:34.000Z</time>
      </trkpt>
      <trkpt lat="45.7962" lon="1.91766">
        <ele>716.7</ele>
        <time>2026-07-08T14:12:35.000Z</time>
      </trkpt>
      <trkpt lat="45.79621" lon="1.91765">
        <ele>717.3</ele>
        <time>2026-07-08T14:12:36.000Z</time>
      </trkpt>
      <trkpt lat="45.79623" lon="1.91764">
        <ele>716.4</ele>
        <time>2026-07-08T14:12:37.000Z</time>
      </trkpt>
      <trkpt lat="45.79625" lon="1.91762">
        <ele>717.1</ele>
        <time>2026-07-08T14:12:38.000Z</time>
      </trkpt>
      <trkpt lat="45.79626" lon="1.91761">
        <ele>717</ele>
        <time>2026-07-08T14:12:39.000Z</time>
      </trkpt>
      <trkpt lat="45.79628" lon="1.91759">
        <ele>717.4</ele>
        <time>2026-07-08T14:12:40.000Z</time>
      </trkpt>
      <trkpt lat="45.79629" lon="1.91757">
        <ele>718.4</ele>
        <time>2026-07-08T14:12:41.000Z</time>
      </trkpt>
      <trkpt lat="45.7963" lon="1.91757">
        <ele>718.5</ele>
        <time>2026-07-08T14:12:42.000Z</time>
      </trkpt>
      <trkpt lat="45.79632" lon="1.91755">
        <ele>718.5</ele>
        <time>2026-07-08T14:12:43.000Z</time>
      </trkpt>
      <trkpt lat="45.79634" lon="1.91752">
        <ele>717.1</ele>
        <time>2026-07-08T14:12:44.000Z</time>
      </trkpt>
      <trkpt lat="45.79636" lon="1.91751">
        <ele>717.4</ele>
        <time>2026-07-08T14:12:45.000Z</time>
      </trkpt>
      <trkpt lat="45.79634" lon="1.91752">
        <ele>719.3</ele>
        <time>2026-07-08T14:12:46.000Z</time>
      </trkpt>
      <trkpt lat="45.79633" lon="1.91753">
        <ele>719.4</ele>
        <time>2026-07-08T14:12:47.000Z</time>
      </trkpt>
      <trkpt lat="45.79634" lon="1.91753">
        <ele>719</ele>
        <time>2026-07-08T14:12:48.000Z</time>
      </trkpt>
      <trkpt lat="45.79635" lon="1.91752">
        <ele>719</ele>
        <time>2026-07-08T14:12:49.000Z</time>
      </trkpt>
      <trkpt lat="45.79635" lon="1.91752">
        <ele>718.8</ele>
        <time>2026-07-08T14:12:50.000Z</time>
      </trkpt>
      <trkpt lat="45.79635" lon="1.91751">
        <ele>718.6</ele>
        <time>2026-07-08T14:12:51.000Z</time>
      </trkpt>
      <trkpt lat="45.79635" lon="1.91749">
        <ele>717.4</ele>
        <time>2026-07-08T14:12:52.000Z</time>
      </trkpt>
      <trkpt lat="45.79636" lon="1.91749">
        <ele>716.6</ele>
        <time>2026-07-08T14:12:53.000Z</time>
      </trkpt>
      <trkpt lat="45.79637" lon="1.91748">
        <ele>717.5</ele>
        <time>2026-07-08T14:12:54.000Z</time>
      </trkpt>
      <trkpt lat="45.79638" lon="1.91747">
        <ele>717.7</ele>
        <time>2026-07-08T14:12:55.000Z</time>
      </trkpt>
      <trkpt lat="45.79639" lon="1.91746">
        <ele>717.8</ele>
        <time>2026-07-08T14:12:56.000Z</time>
      </trkpt>
      <trkpt lat="45.79637" lon="1.91743">
        <ele>718.8</ele>
        <time>2026-07-08T14:12:57.000Z</time>
      </trkpt>
      <trkpt lat="45.79636" lon="1.91742">
        <ele>718.2</ele>
        <time>2026-07-08T14:12:58.000Z</time>
      </trkpt>
      <trkpt lat="45.79635" lon="1.9174">
        <ele>716.4</ele>
        <time>2026-07-08T14:12:59.000Z</time>
      </trkpt>
      <trkpt lat="45.79635" lon="1.91739">
        <ele>716.5</ele>
        <time>2026-07-08T14:13:00.000Z</time>
      </trkpt>
      <trkpt lat="45.79635" lon="1.9174">
        <ele>715.6</ele>
        <time>2026-07-08T14:13:01.000Z</time>
      </trkpt>
      <trkpt lat="45.79634" lon="1.91743">
        <ele>714.4</ele>
        <time>2026-07-08T14:13:02.000Z</time>
      </trkpt>
      <trkpt lat="45.79635" lon="1.91745">
        <ele>713.9</ele>
        <time>2026-07-08T14:13:03.000Z</time>
      </trkpt>
      <trkpt lat="45.79634" lon="1.91746">
        <ele>714.8</ele>
        <time>2026-07-08T14:13:04.000Z</time>
      </trkpt>
      <trkpt lat="45.79634" lon="1.91741">
        <ele>715.6</ele>
        <time>2026-07-08T14:13:05.000Z</time>
      </trkpt>
      <trkpt lat="45.79634" lon="1.91741">
        <ele>715.3</ele>
        <time>2026-07-08T14:13:06.000Z</time>
      </trkpt>
      <trkpt lat="45.79635" lon="1.91741">
        <ele>716.2</ele>
        <time>2026-07-08T14:13:07.000Z</time>
      </trkpt>
      <trkpt lat="45.79635" lon="1.91741">
        <ele>716.8</ele>
        <time>2026-07-08T14:13:08.000Z</time>
      </trkpt>
      <trkpt lat="45.79635" lon="1.9174">
        <ele>716.8</ele>
        <time>2026-07-08T14:13:09.000Z</time>
      </trkpt>
      <trkpt lat="45.79635" lon="1.9174">
        <ele>716.8</ele>
        <time>2026-07-08T14:13:10.000Z</time>
      </trkpt>
      <trkpt lat="45.79635" lon="1.91741">
        <ele>717.3</ele>
        <time>2026-07-08T14:13:11.000Z</time>
      </trkpt>
      <trkpt lat="45.79635" lon="1.91741">
        <ele>717.4</ele>
        <time>2026-07-08T14:13:12.000Z</time>
      </trkpt>
      <trkpt lat="45.79636" lon="1.91739">
        <ele>717.7</ele>
        <time>2026-07-08T14:13:13.000Z</time>
      </trkpt>
      <trkpt lat="45.79636" lon="1.91736">
        <ele>717.7</ele>
        <time>2026-07-08T14:13:14.000Z</time>
      </trkpt>
      <trkpt lat="45.79635" lon="1.91734">
        <ele>718.2</ele>
        <time>2026-07-08T14:13:15.000Z</time>
      </trkpt>
      <trkpt lat="45.79634" lon="1.91736">
        <ele>716.9</ele>
        <time>2026-07-08T14:13:16.000Z</time>
      </trkpt>
      <trkpt lat="45.79635" lon="1.91738">
        <ele>715</ele>
        <time>2026-07-08T14:13:17.000Z</time>
      </trkpt>
      <trkpt lat="45.79637" lon="1.91739">
        <ele>714.3</ele>
        <time>2026-07-08T14:13:18.000Z</time>
      </trkpt>
      <trkpt lat="45.79639" lon="1.9174">
        <ele>714.3</ele>
        <time>2026-07-08T14:13:19.000Z</time>
      </trkpt>
      <trkpt lat="45.79642" lon="1.9174">
        <ele>714.6</ele>
        <time>2026-07-08T14:13:20.000Z</time>
      </trkpt>
      <trkpt lat="45.79644" lon="1.9174">
        <ele>715.3</ele>
        <time>2026-07-08T14:13:21.000Z</time>
      </trkpt>
      <trkpt lat="45.79645" lon="1.91741">
        <ele>717.3</ele>
        <time>2026-07-08T14:13:22.000Z</time>
      </trkpt>
      <trkpt lat="45.79646" lon="1.91741">
        <ele>717.7</ele>
        <time>2026-07-08T14:13:23.000Z</time>
      </trkpt>
      <trkpt lat="45.79648" lon="1.9174">
        <ele>718.5</ele>
        <time>2026-07-08T14:13:24.000Z</time>
      </trkpt>
      <trkpt lat="45.79649" lon="1.9174">
        <ele>719.7</ele>
        <time>2026-07-08T14:13:25.000Z</time>
      </trkpt>
      <trkpt lat="45.79651" lon="1.91735">
        <ele>720.1</ele>
        <time>2026-07-08T14:13:26.000Z</time>
      </trkpt>
      <trkpt lat="45.79652" lon="1.91734">
        <ele>719.6</ele>
        <time>2026-07-08T14:13:27.000Z</time>
      </trkpt>
      <trkpt lat="45.79653" lon="1.91734">
        <ele>721</ele>
        <time>2026-07-08T14:13:28.000Z</time>
      </trkpt>
      <trkpt lat="45.79656" lon="1.9174">
        <ele>723.4</ele>
        <time>2026-07-08T14:13:29.000Z</time>
      </trkpt>
      <trkpt lat="45.79656" lon="1.91739">
        <ele>724.2</ele>
        <time>2026-07-08T14:13:30.000Z</time>
      </trkpt>
      <trkpt lat="45.79658" lon="1.91738">
        <ele>724.7</ele>
        <time>2026-07-08T14:13:31.000Z</time>
      </trkpt>
      <trkpt lat="45.7966" lon="1.91737">
        <ele>725.6</ele>
        <time>2026-07-08T14:13:32.000Z</time>
      </trkpt>
      <trkpt lat="45.79661" lon="1.91735">
        <ele>725.8</ele>
        <time>2026-07-08T14:13:33.000Z</time>
      </trkpt>
      <trkpt lat="45.79663" lon="1.91733">
        <ele>725</ele>
        <time>2026-07-08T14:13:34.000Z</time>
      </trkpt>
      <trkpt lat="45.79664" lon="1.91732">
        <ele>725.3</ele>
        <time>2026-07-08T14:13:35.000Z</time>
      </trkpt>
      <trkpt lat="45.79666" lon="1.9173">
        <ele>725.8</ele>
        <time>2026-07-08T14:13:36.000Z</time>
      </trkpt>
      <trkpt lat="45.79666" lon="1.91729">
        <ele>726.5</ele>
        <time>2026-07-08T14:13:37.000Z</time>
      </trkpt>
      <trkpt lat="45.79667" lon="1.91726">
        <ele>725.7</ele>
        <time>2026-07-08T14:13:38.000Z</time>
      </trkpt>
      <trkpt lat="45.79667" lon="1.91723">
        <ele>724.2</ele>
        <time>2026-07-08T14:13:39.000Z</time>
      </trkpt>
      <trkpt lat="45.79667" lon="1.9172">
        <ele>723.1</ele>
        <time>2026-07-08T14:13:40.000Z</time>
      </trkpt>
      <trkpt lat="45.79667" lon="1.91716">
        <ele>721.5</ele>
        <time>2026-07-08T14:13:41.000Z</time>
      </trkpt>
      <trkpt lat="45.79667" lon="1.91713">
        <ele>720.8</ele>
        <time>2026-07-08T14:13:42.000Z</time>
      </trkpt>
      <trkpt lat="45.79669" lon="1.9171">
        <ele>721.3</ele>
        <time>2026-07-08T14:13:43.000Z</time>
      </trkpt>
      <trkpt lat="45.79671" lon="1.91707">
        <ele>720.9</ele>
        <time>2026-07-08T14:13:44.000Z</time>
      </trkpt>
      <trkpt lat="45.79671" lon="1.91705">
        <ele>719</ele>
        <time>2026-07-08T14:13:45.000Z</time>
      </trkpt>
      <trkpt lat="45.79672" lon="1.91703">
        <ele>718.8</ele>
        <time>2026-07-08T14:13:46.000Z</time>
      </trkpt>
      <trkpt lat="45.79672" lon="1.91701">
        <ele>717.5</ele>
        <time>2026-07-08T14:13:47.000Z</time>
      </trkpt>
      <trkpt lat="45.79672" lon="1.91698">
        <ele>717.6</ele>
        <time>2026-07-08T14:13:48.000Z</time>
      </trkpt>
      <trkpt lat="45.79672" lon="1.91696">
        <ele>716.7</ele>
        <time>2026-07-08T14:13:49.000Z</time>
      </trkpt>
      <trkpt lat="45.79671" lon="1.91694">
        <ele>716.1</ele>
        <time>2026-07-08T14:13:50.000Z</time>
      </trkpt>
      <trkpt lat="45.79671" lon="1.91692">
        <ele>716.6</ele>
        <time>2026-07-08T14:13:51.000Z</time>
      </trkpt>
      <trkpt lat="45.79671" lon="1.91689">
        <ele>715.9</ele>
        <time>2026-07-08T14:13:52.000Z</time>
      </trkpt>
      <trkpt lat="45.7967" lon="1.91686">
        <ele>716</ele>
        <time>2026-07-08T14:13:53.000Z</time>
      </trkpt>
      <trkpt lat="45.79669" lon="1.91683">
        <ele>715.2</ele>
        <time>2026-07-08T14:13:54.000Z</time>
      </trkpt>
      <trkpt lat="45.79668" lon="1.91681">
        <ele>715.8</ele>
        <time>2026-07-08T14:13:55.000Z</time>
      </trkpt>
      <trkpt lat="45.79667" lon="1.91679">
        <ele>715.3</ele>
        <time>2026-07-08T14:13:56.000Z</time>
      </trkpt>
      <trkpt lat="45.79666" lon="1.91677">
        <ele>715.1</ele>
        <time>2026-07-08T14:13:57.000Z</time>
      </trkpt>
      <trkpt lat="45.79664" lon="1.91675">
        <ele>715</ele>
        <time>2026-07-08T14:13:58.000Z</time>
      </trkpt>
      <trkpt lat="45.79663" lon="1.91673">
        <ele>715.7</ele>
        <time>2026-07-08T14:13:59.000Z</time>
      </trkpt>
      <trkpt lat="45.79662" lon="1.91671">
        <ele>716.9</ele>
        <time>2026-07-08T14:14:00.000Z</time>
      </trkpt>
      <trkpt lat="45.79661" lon="1.9167">
        <ele>716.3</ele>
        <time>2026-07-08T14:14:01.000Z</time>
      </trkpt>
      <trkpt lat="45.7966" lon="1.91668">
        <ele>716.3</ele>
        <time>2026-07-08T14:14:02.000Z</time>
      </trkpt>
      <trkpt lat="45.79659" lon="1.91665">
        <ele>715.8</ele>
        <time>2026-07-08T14:14:03.000Z</time>
      </trkpt>
      <trkpt lat="45.79658" lon="1.91664">
        <ele>715.4</ele>
        <time>2026-07-08T14:14:04.000Z</time>
      </trkpt>
      <trkpt lat="45.79657" lon="1.91663">
        <ele>714</ele>
        <time>2026-07-08T14:14:05.000Z</time>
      </trkpt>
      <trkpt lat="45.79657" lon="1.91662">
        <ele>713.9</ele>
        <time>2026-07-08T14:14:06.000Z</time>
      </trkpt>
      <trkpt lat="45.79657" lon="1.9166">
        <ele>714.6</ele>
        <time>2026-07-08T14:14:07.000Z</time>
      </trkpt>
      <trkpt lat="45.79657" lon="1.91659">
        <ele>714.8</ele>
        <time>2026-07-08T14:14:08.000Z</time>
      </trkpt>
      <trkpt lat="45.79658" lon="1.91658">
        <ele>713.7</ele>
        <time>2026-07-08T14:14:09.000Z</time>
      </trkpt>
      <trkpt lat="45.79659" lon="1.91655">
        <ele>714.1</ele>
        <time>2026-07-08T14:14:10.000Z</time>
      </trkpt>
      <trkpt lat="45.7966" lon="1.91652">
        <ele>713.3</ele>
        <time>2026-07-08T14:14:11.000Z</time>
      </trkpt>
      <trkpt lat="45.79661" lon="1.9165">
        <ele>713.2</ele>
        <time>2026-07-08T14:14:12.000Z</time>
      </trkpt>
      <trkpt lat="45.79663" lon="1.91649">
        <ele>711.9</ele>
        <time>2026-07-08T14:14:13.000Z</time>
      </trkpt>
      <trkpt lat="45.79664" lon="1.91648">
        <ele>712.1</ele>
        <time>2026-07-08T14:14:14.000Z</time>
      </trkpt>
      <trkpt lat="45.79665" lon="1.91646">
        <ele>713</ele>
        <time>2026-07-08T14:14:15.000Z</time>
      </trkpt>
      <trkpt lat="45.79667" lon="1.91645">
        <ele>713.4</ele>
        <time>2026-07-08T14:14:16.000Z</time>
      </trkpt>
      <trkpt lat="45.79668" lon="1.91644">
        <ele>713.4</ele>
        <time>2026-07-08T14:14:17.000Z</time>
      </trkpt>
      <trkpt lat="45.79669" lon="1.91643">
        <ele>712.6</ele>
        <time>2026-07-08T14:14:18.000Z</time>
      </trkpt>
      <trkpt lat="45.79671" lon="1.91643">
        <ele>712</ele>
        <time>2026-07-08T14:14:19.000Z</time>
      </trkpt>
      <trkpt lat="45.79672" lon="1.91642">
        <ele>712</ele>
        <time>2026-07-08T14:14:20.000Z</time>
      </trkpt>
      <trkpt lat="45.79673" lon="1.91642">
        <ele>713.2</ele>
        <time>2026-07-08T14:14:21.000Z</time>
      </trkpt>
      <trkpt lat="45.79674" lon="1.91641">
        <ele>713.8</ele>
        <time>2026-07-08T14:14:22.000Z</time>
      </trkpt>
      <trkpt lat="45.79675" lon="1.9164">
        <ele>713.3</ele>
        <time>2026-07-08T14:14:23.000Z</time>
      </trkpt>
      <trkpt lat="45.79676" lon="1.9164">
        <ele>714.4</ele>
        <time>2026-07-08T14:14:24.000Z</time>
      </trkpt>
      <trkpt lat="45.79676" lon="1.9164">
        <ele>714.7</ele>
        <time>2026-07-08T14:14:25.000Z</time>
      </trkpt>
      <trkpt lat="45.79678" lon="1.91639">
        <ele>714.3</ele>
        <time>2026-07-08T14:14:26.000Z</time>
      </trkpt>
      <trkpt lat="45.79679" lon="1.9164">
        <ele>714.1</ele>
        <time>2026-07-08T14:14:27.000Z</time>
      </trkpt>
      <trkpt lat="45.7968" lon="1.9164">
        <ele>713.4</ele>
        <time>2026-07-08T14:14:28.000Z</time>
      </trkpt>
      <trkpt lat="45.79681" lon="1.9164">
        <ele>713.7</ele>
        <time>2026-07-08T14:14:29.000Z</time>
      </trkpt>
      <trkpt lat="45.79683" lon="1.9164">
        <ele>714</ele>
        <time>2026-07-08T14:14:30.000Z</time>
      </trkpt>
      <trkpt lat="45.79684" lon="1.9164">
        <ele>714.9</ele>
        <time>2026-07-08T14:14:31.000Z</time>
      </trkpt>
      <trkpt lat="45.79686" lon="1.9164">
        <ele>715.3</ele>
        <time>2026-07-08T14:14:32.000Z</time>
      </trkpt>
      <trkpt lat="45.79687" lon="1.91641">
        <ele>715.5</ele>
        <time>2026-07-08T14:14:33.000Z</time>
      </trkpt>
      <trkpt lat="45.79689" lon="1.91641">
        <ele>714.3</ele>
        <time>2026-07-08T14:14:34.000Z</time>
      </trkpt>
      <trkpt lat="45.79691" lon="1.9164">
        <ele>714.7</ele>
        <time>2026-07-08T14:14:35.000Z</time>
      </trkpt>
      <trkpt lat="45.79692" lon="1.9164">
        <ele>713.6</ele>
        <time>2026-07-08T14:14:36.000Z</time>
      </trkpt>
      <trkpt lat="45.79694" lon="1.9164">
        <ele>712.8</ele>
        <time>2026-07-08T14:14:37.000Z</time>
      </trkpt>
      <trkpt lat="45.79695" lon="1.9164">
        <ele>714.2</ele>
        <time>2026-07-08T14:14:38.000Z</time>
      </trkpt>
      <trkpt lat="45.79698" lon="1.91641">
        <ele>715.2</ele>
        <time>2026-07-08T14:14:39.000Z</time>
      </trkpt>
      <trkpt lat="45.797" lon="1.9164">
        <ele>714.7</ele>
        <time>2026-07-08T14:14:40.000Z</time>
      </trkpt>
      <trkpt lat="45.79702" lon="1.9164">
        <ele>714.8</ele>
        <time>2026-07-08T14:14:41.000Z</time>
      </trkpt>
      <trkpt lat="45.79704" lon="1.9164">
        <ele>714.8</ele>
        <time>2026-07-08T14:14:42.000Z</time>
      </trkpt>
      <trkpt lat="45.79705" lon="1.9164">
        <ele>715.3</ele>
        <time>2026-07-08T14:14:43.000Z</time>
      </trkpt>
      <trkpt lat="45.79707" lon="1.91641">
        <ele>715</ele>
        <time>2026-07-08T14:14:44.000Z</time>
      </trkpt>
      <trkpt lat="45.79708" lon="1.9164">
        <ele>714.8</ele>
        <time>2026-07-08T14:14:45.000Z</time>
      </trkpt>
      <trkpt lat="45.7971" lon="1.9164">
        <ele>713.7</ele>
        <time>2026-07-08T14:14:46.000Z</time>
      </trkpt>
      <trkpt lat="45.79711" lon="1.91641">
        <ele>713.3</ele>
        <time>2026-07-08T14:14:47.000Z</time>
      </trkpt>
      <trkpt lat="45.79713" lon="1.9164">
        <ele>713.5</ele>
        <time>2026-07-08T14:14:48.000Z</time>
      </trkpt>
      <trkpt lat="45.79715" lon="1.91639">
        <ele>713.5</ele>
        <time>2026-07-08T14:14:49.000Z</time>
      </trkpt>
      <trkpt lat="45.79717" lon="1.91638">
        <ele>712.9</ele>
        <time>2026-07-08T14:14:50.000Z</time>
      </trkpt>
      <trkpt lat="45.79719" lon="1.91638">
        <ele>713.2</ele>
        <time>2026-07-08T14:14:51.000Z</time>
      </trkpt>
      <trkpt lat="45.79721" lon="1.91637">
        <ele>714.1</ele>
        <time>2026-07-08T14:14:52.000Z</time>
      </trkpt>
      <trkpt lat="45.79723" lon="1.91636">
        <ele>714.1</ele>
        <time>2026-07-08T14:14:53.000Z</time>
      </trkpt>
      <trkpt lat="45.79725" lon="1.91636">
        <ele>714.5</ele>
        <time>2026-07-08T14:14:54.000Z</time>
      </trkpt>
      <trkpt lat="45.79727" lon="1.91636">
        <ele>714.3</ele>
        <time>2026-07-08T14:14:55.000Z</time>
      </trkpt>
      <trkpt lat="45.79728" lon="1.91636">
        <ele>714.3</ele>
        <time>2026-07-08T14:14:56.000Z</time>
      </trkpt>
      <trkpt lat="45.7973" lon="1.91636">
        <ele>715.2</ele>
        <time>2026-07-08T14:14:57.000Z</time>
      </trkpt>
      <trkpt lat="45.79731" lon="1.91636">
        <ele>715.5</ele>
        <time>2026-07-08T14:14:58.000Z</time>
      </trkpt>
      <trkpt lat="45.79732" lon="1.91637">
        <ele>714.8</ele>
        <time>2026-07-08T14:14:59.000Z</time>
      </trkpt>
      <trkpt lat="45.79734" lon="1.91639">
        <ele>715.3</ele>
        <time>2026-07-08T14:15:00.000Z</time>
      </trkpt>
      <trkpt lat="45.79735" lon="1.9164">
        <ele>716.6</ele>
        <time>2026-07-08T14:15:01.000Z</time>
      </trkpt>
      <trkpt lat="45.79736" lon="1.91642">
        <ele>717.8</ele>
        <time>2026-07-08T14:15:02.000Z</time>
      </trkpt>
      <trkpt lat="45.79737" lon="1.91644">
        <ele>718.6</ele>
        <time>2026-07-08T14:15:03.000Z</time>
      </trkpt>
      <trkpt lat="45.79738" lon="1.91646">
        <ele>719.1</ele>
        <time>2026-07-08T14:15:04.000Z</time>
      </trkpt>
      <trkpt lat="45.79739" lon="1.91647">
        <ele>719.4</ele>
        <time>2026-07-08T14:15:05.000Z</time>
      </trkpt>
      <trkpt lat="45.7974" lon="1.91649">
        <ele>719.8</ele>
        <time>2026-07-08T14:15:06.000Z</time>
      </trkpt>
      <trkpt lat="45.79742" lon="1.91649">
        <ele>720.4</ele>
        <time>2026-07-08T14:15:07.000Z</time>
      </trkpt>
      <trkpt lat="45.79743" lon="1.91649">
        <ele>720</ele>
        <time>2026-07-08T14:15:08.000Z</time>
      </trkpt>
      <trkpt lat="45.79745" lon="1.91649">
        <ele>718.3</ele>
        <time>2026-07-08T14:15:09.000Z</time>
      </trkpt>
      <trkpt lat="45.79746" lon="1.91648">
        <ele>717.8</ele>
        <time>2026-07-08T14:15:10.000Z</time>
      </trkpt>
      <trkpt lat="45.79747" lon="1.91647">
        <ele>717.7</ele>
        <time>2026-07-08T14:15:11.000Z</time>
      </trkpt>
      <trkpt lat="45.79748" lon="1.91646">
        <ele>718.5</ele>
        <time>2026-07-08T14:15:12.000Z</time>
      </trkpt>
      <trkpt lat="45.79749" lon="1.91645">
        <ele>718</ele>
        <time>2026-07-08T14:15:13.000Z</time>
      </trkpt>
      <trkpt lat="45.79751" lon="1.91644">
        <ele>718.9</ele>
        <time>2026-07-08T14:15:14.000Z</time>
      </trkpt>
      <trkpt lat="45.79752" lon="1.91643">
        <ele>719.6</ele>
        <time>2026-07-08T14:15:15.000Z</time>
      </trkpt>
      <trkpt lat="45.79752" lon="1.91641">
        <ele>718.6</ele>
        <time>2026-07-08T14:15:16.000Z</time>
      </trkpt>
      <trkpt lat="45.79753" lon="1.91639">
        <ele>718.5</ele>
        <time>2026-07-08T14:15:17.000Z</time>
      </trkpt>
      <trkpt lat="45.79754" lon="1.91637">
        <ele>717.6</ele>
        <time>2026-07-08T14:15:18.000Z</time>
      </trkpt>
      <trkpt lat="45.79755" lon="1.91634">
        <ele>716.9</ele>
        <time>2026-07-08T14:15:19.000Z</time>
      </trkpt>
      <trkpt lat="45.79756" lon="1.91633">
        <ele>717.1</ele>
        <time>2026-07-08T14:15:20.000Z</time>
      </trkpt>
      <trkpt lat="45.79757" lon="1.91631">
        <ele>716</ele>
        <time>2026-07-08T14:15:21.000Z</time>
      </trkpt>
      <trkpt lat="45.79758" lon="1.9163">
        <ele>716.2</ele>
        <time>2026-07-08T14:15:22.000Z</time>
      </trkpt>
      <trkpt lat="45.79759" lon="1.91629">
        <ele>718.1</ele>
        <time>2026-07-08T14:15:23.000Z</time>
      </trkpt>
      <trkpt lat="45.7976" lon="1.91627">
        <ele>718.1</ele>
        <time>2026-07-08T14:15:24.000Z</time>
      </trkpt>
      <trkpt lat="45.79761" lon="1.91626">
        <ele>717.3</ele>
        <time>2026-07-08T14:15:25.000Z</time>
      </trkpt>
      <trkpt lat="45.79762" lon="1.91625">
        <ele>716.7</ele>
        <time>2026-07-08T14:15:26.000Z</time>
      </trkpt>
      <trkpt lat="45.79762" lon="1.91623">
        <ele>715.4</ele>
        <time>2026-07-08T14:15:27.000Z</time>
      </trkpt>
      <trkpt lat="45.79763" lon="1.91622">
        <ele>716.1</ele>
        <time>2026-07-08T14:15:28.000Z</time>
      </trkpt>
      <trkpt lat="45.79764" lon="1.91621">
        <ele>715.2</ele>
        <time>2026-07-08T14:15:29.000Z</time>
      </trkpt>
      <trkpt lat="45.79766" lon="1.9162">
        <ele>716.4</ele>
        <time>2026-07-08T14:15:30.000Z</time>
      </trkpt>
      <trkpt lat="45.79768" lon="1.91618">
        <ele>715.8</ele>
        <time>2026-07-08T14:15:31.000Z</time>
      </trkpt>
      <trkpt lat="45.79769" lon="1.91617">
        <ele>715.9</ele>
        <time>2026-07-08T14:15:32.000Z</time>
      </trkpt>
      <trkpt lat="45.7977" lon="1.91617">
        <ele>717.3</ele>
        <time>2026-07-08T14:15:33.000Z</time>
      </trkpt>
      <trkpt lat="45.79772" lon="1.91617">
        <ele>717.9</ele>
        <time>2026-07-08T14:15:34.000Z</time>
      </trkpt>
      <trkpt lat="45.79774" lon="1.91616">
        <ele>718.9</ele>
        <time>2026-07-08T14:15:35.000Z</time>
      </trkpt>
      <trkpt lat="45.79775" lon="1.91616">
        <ele>719.4</ele>
        <time>2026-07-08T14:15:36.000Z</time>
      </trkpt>
      <trkpt lat="45.79777" lon="1.91616">
        <ele>718.7</ele>
        <time>2026-07-08T14:15:37.000Z</time>
      </trkpt>
      <trkpt lat="45.79779" lon="1.91617">
        <ele>718.8</ele>
        <time>2026-07-08T14:15:38.000Z</time>
      </trkpt>
      <trkpt lat="45.79781" lon="1.91617">
        <ele>719.1</ele>
        <time>2026-07-08T14:15:39.000Z</time>
      </trkpt>
      <trkpt lat="45.79783" lon="1.91617">
        <ele>719.6</ele>
        <time>2026-07-08T14:15:40.000Z</time>
      </trkpt>
      <trkpt lat="45.79786" lon="1.91617">
        <ele>720.5</ele>
        <time>2026-07-08T14:15:41.000Z</time>
      </trkpt>
      <trkpt lat="45.7979" lon="1.91618">
        <ele>720.1</ele>
        <time>2026-07-08T14:15:42.000Z</time>
      </trkpt>
      <trkpt lat="45.79794" lon="1.91619">
        <ele>720.1</ele>
        <time>2026-07-08T14:15:43.000Z</time>
      </trkpt>
      <trkpt lat="45.79799" lon="1.91618">
        <ele>721.6</ele>
        <time>2026-07-08T14:15:44.000Z</time>
      </trkpt>
      <trkpt lat="45.79803" lon="1.91616">
        <ele>720.4</ele>
        <time>2026-07-08T14:15:45.000Z</time>
      </trkpt>
      <trkpt lat="45.79806" lon="1.91614">
        <ele>720.2</ele>
        <time>2026-07-08T14:15:46.000Z</time>
      </trkpt>
      <trkpt lat="45.79809" lon="1.91612">
        <ele>720.4</ele>
        <time>2026-07-08T14:15:47.000Z</time>
      </trkpt>
      <trkpt lat="45.79812" lon="1.91612">
        <ele>720.5</ele>
        <time>2026-07-08T14:15:48.000Z</time>
      </trkpt>
      <trkpt lat="45.79816" lon="1.91613">
        <ele>719.8</ele>
        <time>2026-07-08T14:15:49.000Z</time>
      </trkpt>
      <trkpt lat="45.79818" lon="1.91614">
        <ele>719.1</ele>
        <time>2026-07-08T14:15:50.000Z</time>
      </trkpt>
      <trkpt lat="45.79822" lon="1.91614">
        <ele>719.1</ele>
        <time>2026-07-08T14:15:51.000Z</time>
      </trkpt>
      <trkpt lat="45.79827" lon="1.91613">
        <ele>718.1</ele>
        <time>2026-07-08T14:15:52.000Z</time>
      </trkpt>
      <trkpt lat="45.7983" lon="1.91611">
        <ele>717</ele>
        <time>2026-07-08T14:15:53.000Z</time>
      </trkpt>
      <trkpt lat="45.79832" lon="1.9161">
        <ele>717.2</ele>
        <time>2026-07-08T14:15:54.000Z</time>
      </trkpt>
      <trkpt lat="45.79834" lon="1.91608">
        <ele>718</ele>
        <time>2026-07-08T14:15:55.000Z</time>
      </trkpt>
      <trkpt lat="45.79837" lon="1.91607">
        <ele>718</ele>
        <time>2026-07-08T14:15:56.000Z</time>
      </trkpt>
      <trkpt lat="45.79839" lon="1.91606">
        <ele>717.9</ele>
        <time>2026-07-08T14:15:57.000Z</time>
      </trkpt>
      <trkpt lat="45.79842" lon="1.91605">
        <ele>717.8</ele>
        <time>2026-07-08T14:15:58.000Z</time>
      </trkpt>
      <trkpt lat="45.79844" lon="1.91604">
        <ele>716.7</ele>
        <time>2026-07-08T14:15:59.000Z</time>
      </trkpt>
      <trkpt lat="45.79846" lon="1.91603">
        <ele>715.4</ele>
        <time>2026-07-08T14:16:00.000Z</time>
      </trkpt>
      <trkpt lat="45.79847" lon="1.91602">
        <ele>715.4</ele>
        <time>2026-07-08T14:16:01.000Z</time>
      </trkpt>
      <trkpt lat="45.79849" lon="1.91601">
        <ele>715.6</ele>
        <time>2026-07-08T14:16:02.000Z</time>
      </trkpt>
      <trkpt lat="45.7985" lon="1.916">
        <ele>715.7</ele>
        <time>2026-07-08T14:16:03.000Z</time>
      </trkpt>
      <trkpt lat="45.79852" lon="1.91599">
        <ele>715.7</ele>
        <time>2026-07-08T14:16:04.000Z</time>
      </trkpt>
      <trkpt lat="45.79853" lon="1.91598">
        <ele>716.3</ele>
        <time>2026-07-08T14:16:05.000Z</time>
      </trkpt>
      <trkpt lat="45.79855" lon="1.91598">
        <ele>715.9</ele>
        <time>2026-07-08T14:16:06.000Z</time>
      </trkpt>
      <trkpt lat="45.79858" lon="1.91598">
        <ele>715.9</ele>
        <time>2026-07-08T14:16:07.000Z</time>
      </trkpt>
      <trkpt lat="45.79861" lon="1.91598">
        <ele>715.9</ele>
        <time>2026-07-08T14:16:08.000Z</time>
      </trkpt>
      <trkpt lat="45.79863" lon="1.91597">
        <ele>715.2</ele>
        <time>2026-07-08T14:16:09.000Z</time>
      </trkpt>
      <trkpt lat="45.79865" lon="1.91597">
        <ele>715</ele>
        <time>2026-07-08T14:16:10.000Z</time>
      </trkpt>
      <trkpt lat="45.79866" lon="1.91597">
        <ele>715.7</ele>
        <time>2026-07-08T14:16:11.000Z</time>
      </trkpt>
      <trkpt lat="45.79867" lon="1.91597">
        <ele>715.8</ele>
        <time>2026-07-08T14:16:12.000Z</time>
      </trkpt>
      <trkpt lat="45.79868" lon="1.91598">
        <ele>715.9</ele>
        <time>2026-07-08T14:16:13.000Z</time>
      </trkpt>
      <trkpt lat="45.79868" lon="1.91598">
        <ele>717.5</ele>
        <time>2026-07-08T14:16:14.000Z</time>
      </trkpt>
      <trkpt lat="45.79869" lon="1.91597">
        <ele>717</ele>
        <time>2026-07-08T14:16:15.000Z</time>
      </trkpt>
      <trkpt lat="45.7987" lon="1.91596">
        <ele>716</ele>
        <time>2026-07-08T14:16:16.000Z</time>
      </trkpt>
      <trkpt lat="45.79871" lon="1.91595">
        <ele>715.7</ele>
        <time>2026-07-08T14:16:17.000Z</time>
      </trkpt>
      <trkpt lat="45.79873" lon="1.91593">
        <ele>714.7</ele>
        <time>2026-07-08T14:16:18.000Z</time>
      </trkpt>
      <trkpt lat="45.79874" lon="1.91591">
        <ele>714.8</ele>
        <time>2026-07-08T14:16:19.000Z</time>
      </trkpt>
      <trkpt lat="45.79875" lon="1.9159">
        <ele>714.4</ele>
        <time>2026-07-08T14:16:20.000Z</time>
      </trkpt>
      <trkpt lat="45.79877" lon="1.91589">
        <ele>713.5</ele>
        <time>2026-07-08T14:16:21.000Z</time>
      </trkpt>
      <trkpt lat="45.79878" lon="1.91589">
        <ele>712.3</ele>
        <time>2026-07-08T14:16:22.000Z</time>
      </trkpt>
      <trkpt lat="45.79879" lon="1.91588">
        <ele>711.3</ele>
        <time>2026-07-08T14:16:23.000Z</time>
      </trkpt>
      <trkpt lat="45.7988" lon="1.91587">
        <ele>712.1</ele>
        <time>2026-07-08T14:16:24.000Z</time>
      </trkpt>
      <trkpt lat="45.79881" lon="1.91586">
        <ele>711.9</ele>
        <time>2026-07-08T14:16:25.000Z</time>
      </trkpt>
      <trkpt lat="45.79882" lon="1.91584">
        <ele>712.3</ele>
        <time>2026-07-08T14:16:26.000Z</time>
      </trkpt>
      <trkpt lat="45.79883" lon="1.91582">
        <ele>712.3</ele>
        <time>2026-07-08T14:16:27.000Z</time>
      </trkpt>
      <trkpt lat="45.79884" lon="1.91582">
        <ele>711.6</ele>
        <time>2026-07-08T14:16:28.000Z</time>
      </trkpt>
      <trkpt lat="45.79886" lon="1.91581">
        <ele>712.5</ele>
        <time>2026-07-08T14:16:29.000Z</time>
      </trkpt>
      <trkpt lat="45.79886" lon="1.91579">
        <ele>712.1</ele>
        <time>2026-07-08T14:16:30.000Z</time>
      </trkpt>
      <trkpt lat="45.79887" lon="1.91577">
        <ele>712.2</ele>
        <time>2026-07-08T14:16:31.000Z</time>
      </trkpt>
      <trkpt lat="45.79888" lon="1.91575">
        <ele>712.8</ele>
        <time>2026-07-08T14:16:32.000Z</time>
      </trkpt>
      <trkpt lat="45.79887" lon="1.91572">
        <ele>713.5</ele>
        <time>2026-07-08T14:16:33.000Z</time>
      </trkpt>
      <trkpt lat="45.79887" lon="1.91569">
        <ele>712.7</ele>
        <time>2026-07-08T14:16:34.000Z</time>
      </trkpt>
      <trkpt lat="45.79887" lon="1.91567">
        <ele>712.7</ele>
        <time>2026-07-08T14:16:35.000Z</time>
      </trkpt>
      <trkpt lat="45.79889" lon="1.91555">
        <ele>712.3</ele>
        <time>2026-07-08T14:16:36.000Z</time>
      </trkpt>
      <trkpt lat="45.7989" lon="1.91551">
        <ele>713.4</ele>
        <time>2026-07-08T14:16:37.000Z</time>
      </trkpt>
      <trkpt lat="45.79891" lon="1.91549">
        <ele>714</ele>
        <time>2026-07-08T14:16:38.000Z</time>
      </trkpt>
      <trkpt lat="45.79891" lon="1.9155">
        <ele>715.4</ele>
        <time>2026-07-08T14:16:39.000Z</time>
      </trkpt>
      <trkpt lat="45.79892" lon="1.91549">
        <ele>715.5</ele>
        <time>2026-07-08T14:16:40.000Z</time>
      </trkpt>
      <trkpt lat="45.79893" lon="1.91549">
        <ele>716.2</ele>
        <time>2026-07-08T14:16:41.000Z</time>
      </trkpt>
      <trkpt lat="45.79894" lon="1.9155">
        <ele>716.5</ele>
        <time>2026-07-08T14:16:42.000Z</time>
      </trkpt>
      <trkpt lat="45.79896" lon="1.91552">
        <ele>716.1</ele>
        <time>2026-07-08T14:16:43.000Z</time>
      </trkpt>
      <trkpt lat="45.79898" lon="1.91552">
        <ele>717.1</ele>
        <time>2026-07-08T14:16:44.000Z</time>
      </trkpt>
      <trkpt lat="45.79898" lon="1.91549">
        <ele>716.2</ele>
        <time>2026-07-08T14:16:45.000Z</time>
      </trkpt>
      <trkpt lat="45.79898" lon="1.91545">
        <ele>716.2</ele>
        <time>2026-07-08T14:16:46.000Z</time>
      </trkpt>
      <trkpt lat="45.79898" lon="1.91542">
        <ele>714.9</ele>
        <time>2026-07-08T14:16:47.000Z</time>
      </trkpt>
      <trkpt lat="45.79898" lon="1.91539">
        <ele>714.4</ele>
        <time>2026-07-08T14:16:48.000Z</time>
      </trkpt>
      <trkpt lat="45.79898" lon="1.91536">
        <ele>714.4</ele>
        <time>2026-07-08T14:16:49.000Z</time>
      </trkpt>
      <trkpt lat="45.79898" lon="1.91534">
        <ele>713.8</ele>
        <time>2026-07-08T14:16:50.000Z</time>
      </trkpt>
      <trkpt lat="45.79898" lon="1.9153">
        <ele>712.7</ele>
        <time>2026-07-08T14:16:51.000Z</time>
      </trkpt>
      <trkpt lat="45.79899" lon="1.91529">
        <ele>712.9</ele>
        <time>2026-07-08T14:16:52.000Z</time>
      </trkpt>
      <trkpt lat="45.799" lon="1.91527">
        <ele>713.3</ele>
        <time>2026-07-08T14:16:53.000Z</time>
      </trkpt>
      <trkpt lat="45.799" lon="1.91525">
        <ele>713.6</ele>
        <time>2026-07-08T14:16:54.000Z</time>
      </trkpt>
      <trkpt lat="45.79901" lon="1.91524">
        <ele>714</ele>
        <time>2026-07-08T14:16:55.000Z</time>
      </trkpt>
      <trkpt lat="45.79902" lon="1.91523">
        <ele>714.1</ele>
        <time>2026-07-08T14:16:56.000Z</time>
      </trkpt>
      <trkpt lat="45.79904" lon="1.91522">
        <ele>715.2</ele>
        <time>2026-07-08T14:16:57.000Z</time>
      </trkpt>
      <trkpt lat="45.79905" lon="1.91522">
        <ele>716.3</ele>
        <time>2026-07-08T14:16:58.000Z</time>
      </trkpt>
      <trkpt lat="45.79906" lon="1.91522">
        <ele>716.9</ele>
        <time>2026-07-08T14:16:59.000Z</time>
      </trkpt>
      <trkpt lat="45.79906" lon="1.91521">
        <ele>717.7</ele>
        <time>2026-07-08T14:17:00.000Z</time>
      </trkpt>
      <trkpt lat="45.79907" lon="1.91519">
        <ele>717.7</ele>
        <time>2026-07-08T14:17:01.000Z</time>
      </trkpt>
      <trkpt lat="45.79909" lon="1.91518">
        <ele>716.7</ele>
        <time>2026-07-08T14:17:02.000Z</time>
      </trkpt>
      <trkpt lat="45.7991" lon="1.91516">
        <ele>716.9</ele>
        <time>2026-07-08T14:17:03.000Z</time>
      </trkpt>
      <trkpt lat="45.79911" lon="1.91514">
        <ele>717.9</ele>
        <time>2026-07-08T14:17:04.000Z</time>
      </trkpt>
      <trkpt lat="45.79913" lon="1.91512">
        <ele>718.9</ele>
        <time>2026-07-08T14:17:05.000Z</time>
      </trkpt>
      <trkpt lat="45.79912" lon="1.91507">
        <ele>718.3</ele>
        <time>2026-07-08T14:17:06.000Z</time>
      </trkpt>
      <trkpt lat="45.79914" lon="1.91506">
        <ele>718.7</ele>
        <time>2026-07-08T14:17:07.000Z</time>
      </trkpt>
      <trkpt lat="45.79916" lon="1.91506">
        <ele>718.7</ele>
        <time>2026-07-08T14:17:08.000Z</time>
      </trkpt>
      <trkpt lat="45.79917" lon="1.91504">
        <ele>718.5</ele>
        <time>2026-07-08T14:17:09.000Z</time>
      </trkpt>
      <trkpt lat="45.79918" lon="1.91502">
        <ele>718.5</ele>
        <time>2026-07-08T14:17:10.000Z</time>
      </trkpt>
      <trkpt lat="45.79919" lon="1.91499">
        <ele>719.1</ele>
        <time>2026-07-08T14:17:11.000Z</time>
      </trkpt>
      <trkpt lat="45.7992" lon="1.91497">
        <ele>719.4</ele>
        <time>2026-07-08T14:17:12.000Z</time>
      </trkpt>
      <trkpt lat="45.7992" lon="1.91495">
        <ele>718.3</ele>
        <time>2026-07-08T14:17:13.000Z</time>
      </trkpt>
      <trkpt lat="45.79921" lon="1.91493">
        <ele>718.6</ele>
        <time>2026-07-08T14:17:14.000Z</time>
      </trkpt>
      <trkpt lat="45.79921" lon="1.91491">
        <ele>718.8</ele>
        <time>2026-07-08T14:17:15.000Z</time>
      </trkpt>
      <trkpt lat="45.79922" lon="1.91488">
        <ele>718.9</ele>
        <time>2026-07-08T14:17:16.000Z</time>
      </trkpt>
      <trkpt lat="45.79922" lon="1.91485">
        <ele>718.7</ele>
        <time>2026-07-08T14:17:17.000Z</time>
      </trkpt>
      <trkpt lat="45.79922" lon="1.91482">
        <ele>718.3</ele>
        <time>2026-07-08T14:17:18.000Z</time>
      </trkpt>
      <trkpt lat="45.79922" lon="1.9148">
        <ele>718.6</ele>
        <time>2026-07-08T14:17:19.000Z</time>
      </trkpt>
      <trkpt lat="45.79923" lon="1.91477">
        <ele>719</ele>
        <time>2026-07-08T14:17:20.000Z</time>
      </trkpt>
      <trkpt lat="45.79924" lon="1.91474">
        <ele>718.7</ele>
        <time>2026-07-08T14:17:21.000Z</time>
      </trkpt>
      <trkpt lat="45.79924" lon="1.91472">
        <ele>718.8</ele>
        <time>2026-07-08T14:17:22.000Z</time>
      </trkpt>
      <trkpt lat="45.79925" lon="1.91469">
        <ele>719</ele>
        <time>2026-07-08T14:17:23.000Z</time>
      </trkpt>
      <trkpt lat="45.79926" lon="1.91467">
        <ele>719</ele>
        <time>2026-07-08T14:17:24.000Z</time>
      </trkpt>
      <trkpt lat="45.79926" lon="1.91465">
        <ele>718.9</ele>
        <time>2026-07-08T14:17:25.000Z</time>
      </trkpt>
      <trkpt lat="45.79926" lon="1.91462">
        <ele>718.9</ele>
        <time>2026-07-08T14:17:26.000Z</time>
      </trkpt>
      <trkpt lat="45.79927" lon="1.9146">
        <ele>718.9</ele>
        <time>2026-07-08T14:17:27.000Z</time>
      </trkpt>
      <trkpt lat="45.79927" lon="1.91458">
        <ele>718.8</ele>
        <time>2026-07-08T14:17:28.000Z</time>
      </trkpt>
      <trkpt lat="45.79928" lon="1.91456">
        <ele>718.7</ele>
        <time>2026-07-08T14:17:29.000Z</time>
      </trkpt>
      <trkpt lat="45.79929" lon="1.91455">
        <ele>718.6</ele>
        <time>2026-07-08T14:17:30.000Z</time>
      </trkpt>
      <trkpt lat="45.7993" lon="1.91453">
        <ele>718.5</ele>
        <time>2026-07-08T14:17:31.000Z</time>
      </trkpt>
      <trkpt lat="45.79932" lon="1.91453">
        <ele>717.8</ele>
        <time>2026-07-08T14:17:32.000Z</time>
      </trkpt>
      <trkpt lat="45.79933" lon="1.91452">
        <ele>717.6</ele>
        <time>2026-07-08T14:17:33.000Z</time>
      </trkpt>
      <trkpt lat="45.79935" lon="1.91452">
        <ele>718.3</ele>
        <time>2026-07-08T14:17:34.000Z</time>
      </trkpt>
      <trkpt lat="45.79936" lon="1.91451">
        <ele>718.4</ele>
        <time>2026-07-08T14:17:35.000Z</time>
      </trkpt>
      <trkpt lat="45.79938" lon="1.91451">
        <ele>718.6</ele>
        <time>2026-07-08T14:17:36.000Z</time>
      </trkpt>
      <trkpt lat="45.7994" lon="1.91451">
        <ele>718.7</ele>
        <time>2026-07-08T14:17:37.000Z</time>
      </trkpt>
      <trkpt lat="45.79941" lon="1.9145">
        <ele>718.6</ele>
        <time>2026-07-08T14:17:38.000Z</time>
      </trkpt>
      <trkpt lat="45.79942" lon="1.91449">
        <ele>718.5</ele>
        <time>2026-07-08T14:17:39.000Z</time>
      </trkpt>
      <trkpt lat="45.79944" lon="1.91448">
        <ele>719</ele>
        <time>2026-07-08T14:17:40.000Z</time>
      </trkpt>
      <trkpt lat="45.79945" lon="1.91447">
        <ele>718.9</ele>
        <time>2026-07-08T14:17:41.000Z</time>
      </trkpt>
      <trkpt lat="45.79946" lon="1.91446">
        <ele>719.1</ele>
        <time>2026-07-08T14:17:42.000Z</time>
      </trkpt>
      <trkpt lat="45.79947" lon="1.91444">
        <ele>718.2</ele>
        <time>2026-07-08T14:17:43.000Z</time>
      </trkpt>
      <trkpt lat="45.79948" lon="1.91442">
        <ele>718.6</ele>
        <time>2026-07-08T14:17:44.000Z</time>
      </trkpt>
      <trkpt lat="45.79949" lon="1.9144">
        <ele>717.8</ele>
        <time>2026-07-08T14:17:45.000Z</time>
      </trkpt>
      <trkpt lat="45.79949" lon="1.91438">
        <ele>717.6</ele>
        <time>2026-07-08T14:17:46.000Z</time>
      </trkpt>
      <trkpt lat="45.79949" lon="1.91435">
        <ele>717.1</ele>
        <time>2026-07-08T14:17:47.000Z</time>
      </trkpt>
      <trkpt lat="45.79949" lon="1.91433">
        <ele>718</ele>
        <time>2026-07-08T14:17:48.000Z</time>
      </trkpt>
      <trkpt lat="45.79949" lon="1.91431">
        <ele>717.7</ele>
        <time>2026-07-08T14:17:49.000Z</time>
      </trkpt>
      <trkpt lat="45.7995" lon="1.91429">
        <ele>717.6</ele>
        <time>2026-07-08T14:17:50.000Z</time>
      </trkpt>
      <trkpt lat="45.79951" lon="1.91427">
        <ele>717.6</ele>
        <time>2026-07-08T14:17:51.000Z</time>
      </trkpt>
      <trkpt lat="45.79952" lon="1.91425">
        <ele>717.7</ele>
        <time>2026-07-08T14:17:52.000Z</time>
      </trkpt>
      <trkpt lat="45.79952" lon="1.91423">
        <ele>718</ele>
        <time>2026-07-08T14:17:53.000Z</time>
      </trkpt>
      <trkpt lat="45.79953" lon="1.91421">
        <ele>718.2</ele>
        <time>2026-07-08T14:17:54.000Z</time>
      </trkpt>
      <trkpt lat="45.79953" lon="1.91419">
        <ele>718.2</ele>
        <time>2026-07-08T14:17:55.000Z</time>
      </trkpt>
      <trkpt lat="45.79953" lon="1.91417">
        <ele>718.6</ele>
        <time>2026-07-08T14:17:56.000Z</time>
      </trkpt>
      <trkpt lat="45.79954" lon="1.91415">
        <ele>718.5</ele>
        <time>2026-07-08T14:17:57.000Z</time>
      </trkpt>
      <trkpt lat="45.79954" lon="1.91412">
        <ele>718.8</ele>
        <time>2026-07-08T14:17:58.000Z</time>
      </trkpt>
      <trkpt lat="45.79955" lon="1.9141">
        <ele>718.6</ele>
        <time>2026-07-08T14:17:59.000Z</time>
      </trkpt>
      <trkpt lat="45.79955" lon="1.91407">
        <ele>719</ele>
        <time>2026-07-08T14:18:00.000Z</time>
      </trkpt>
      <trkpt lat="45.79955" lon="1.91404">
        <ele>719.1</ele>
        <time>2026-07-08T14:18:01.000Z</time>
      </trkpt>
      <trkpt lat="45.79955" lon="1.91402">
        <ele>719.3</ele>
        <time>2026-07-08T14:18:02.000Z</time>
      </trkpt>
      <trkpt lat="45.79956" lon="1.91401">
        <ele>720.1</ele>
        <time>2026-07-08T14:18:03.000Z</time>
      </trkpt>
      <trkpt lat="45.79956" lon="1.914">
        <ele>719.1</ele>
        <time>2026-07-08T14:18:04.000Z</time>
      </trkpt>
      <trkpt lat="45.79957" lon="1.91399">
        <ele>718.1</ele>
        <time>2026-07-08T14:18:05.000Z</time>
      </trkpt>
      <trkpt lat="45.79958" lon="1.91397">
        <ele>716.9</ele>
        <time>2026-07-08T14:18:06.000Z</time>
      </trkpt>
      <trkpt lat="45.79959" lon="1.91395">
        <ele>717.1</ele>
        <time>2026-07-08T14:18:07.000Z</time>
      </trkpt>
      <trkpt lat="45.79961" lon="1.91394">
        <ele>715.9</ele>
        <time>2026-07-08T14:18:08.000Z</time>
      </trkpt>
      <trkpt lat="45.79962" lon="1.91393">
        <ele>714</ele>
        <time>2026-07-08T14:18:09.000Z</time>
      </trkpt>
      <trkpt lat="45.79964" lon="1.91392">
        <ele>715.6</ele>
        <time>2026-07-08T14:18:10.000Z</time>
      </trkpt>
      <trkpt lat="45.79965" lon="1.91392">
        <ele>715</ele>
        <time>2026-07-08T14:18:11.000Z</time>
      </trkpt>
      <trkpt lat="45.79965" lon="1.91391">
        <ele>715</ele>
        <time>2026-07-08T14:18:12.000Z</time>
      </trkpt>
      <trkpt lat="45.79966" lon="1.9139">
        <ele>715.7</ele>
        <time>2026-07-08T14:18:13.000Z</time>
      </trkpt>
      <trkpt lat="45.79967" lon="1.91391">
        <ele>716.1</ele>
        <time>2026-07-08T14:18:14.000Z</time>
      </trkpt>
      <trkpt lat="45.79968" lon="1.91391">
        <ele>716.2</ele>
        <time>2026-07-08T14:18:15.000Z</time>
      </trkpt>
      <trkpt lat="45.79969" lon="1.91392">
        <ele>716.1</ele>
        <time>2026-07-08T14:18:16.000Z</time>
      </trkpt>
      <trkpt lat="45.79971" lon="1.91392">
        <ele>715</ele>
        <time>2026-07-08T14:18:17.000Z</time>
      </trkpt>
      <trkpt lat="45.79972" lon="1.91392">
        <ele>713.1</ele>
        <time>2026-07-08T14:18:18.000Z</time>
      </trkpt>
      <trkpt lat="45.79973" lon="1.91393">
        <ele>713.3</ele>
        <time>2026-07-08T14:18:19.000Z</time>
      </trkpt>
      <trkpt lat="45.79974" lon="1.91393">
        <ele>713.7</ele>
        <time>2026-07-08T14:18:20.000Z</time>
      </trkpt>
      <trkpt lat="45.79976" lon="1.91393">
        <ele>714</ele>
        <time>2026-07-08T14:18:21.000Z</time>
      </trkpt>
      <trkpt lat="45.79978" lon="1.91396">
        <ele>714.9</ele>
        <time>2026-07-08T14:18:22.000Z</time>
      </trkpt>
      <trkpt lat="45.7998" lon="1.91397">
        <ele>715.1</ele>
        <time>2026-07-08T14:18:23.000Z</time>
      </trkpt>
      <trkpt lat="45.79981" lon="1.91397">
        <ele>713.8</ele>
        <time>2026-07-08T14:18:24.000Z</time>
      </trkpt>
      <trkpt lat="45.79982" lon="1.91397">
        <ele>713.5</ele>
        <time>2026-07-08T14:18:25.000Z</time>
      </trkpt>
      <trkpt lat="45.79984" lon="1.91397">
        <ele>713.4</ele>
        <time>2026-07-08T14:18:26.000Z</time>
      </trkpt>
      <trkpt lat="45.79985" lon="1.91397">
        <ele>712.8</ele>
        <time>2026-07-08T14:18:27.000Z</time>
      </trkpt>
      <trkpt lat="45.79986" lon="1.91398">
        <ele>713.1</ele>
        <time>2026-07-08T14:18:28.000Z</time>
      </trkpt>
      <trkpt lat="45.79987" lon="1.91399">
        <ele>712.9</ele>
        <time>2026-07-08T14:18:29.000Z</time>
      </trkpt>
      <trkpt lat="45.79988" lon="1.91398">
        <ele>712.8</ele>
        <time>2026-07-08T14:18:30.000Z</time>
      </trkpt>
      <trkpt lat="45.79989" lon="1.91398">
        <ele>713.9</ele>
        <time>2026-07-08T14:18:31.000Z</time>
      </trkpt>
      <trkpt lat="45.7999" lon="1.91398">
        <ele>714.9</ele>
        <time>2026-07-08T14:18:32.000Z</time>
      </trkpt>
      <trkpt lat="45.79992" lon="1.91397">
        <ele>714.3</ele>
        <time>2026-07-08T14:18:33.000Z</time>
      </trkpt>
      <trkpt lat="45.79994" lon="1.91396">
        <ele>712.2</ele>
        <time>2026-07-08T14:18:34.000Z</time>
      </trkpt>
      <trkpt lat="45.79996" lon="1.91395">
        <ele>712.3</ele>
        <time>2026-07-08T14:18:35.000Z</time>
      </trkpt>
      <trkpt lat="45.79998" lon="1.91393">
        <ele>712.1</ele>
        <time>2026-07-08T14:18:36.000Z</time>
      </trkpt>
      <trkpt lat="45.79999" lon="1.91391">
        <ele>712.5</ele>
        <time>2026-07-08T14:18:37.000Z</time>
      </trkpt>
      <trkpt lat="45.8" lon="1.9139">
        <ele>711.7</ele>
        <time>2026-07-08T14:18:38.000Z</time>
      </trkpt>
      <trkpt lat="45.80002" lon="1.9139">
        <ele>710.9</ele>
        <time>2026-07-08T14:18:39.000Z</time>
      </trkpt>
      <trkpt lat="45.80004" lon="1.9139">
        <ele>710.8</ele>
        <time>2026-07-08T14:18:40.000Z</time>
      </trkpt>
      <trkpt lat="45.80006" lon="1.91389">
        <ele>710.3</ele>
        <time>2026-07-08T14:18:41.000Z</time>
      </trkpt>
      <trkpt lat="45.80008" lon="1.91388">
        <ele>710.5</ele>
        <time>2026-07-08T14:18:42.000Z</time>
      </trkpt>
      <trkpt lat="45.80009" lon="1.91387">
        <ele>711.5</ele>
        <time>2026-07-08T14:18:43.000Z</time>
      </trkpt>
      <trkpt lat="45.80011" lon="1.91386">
        <ele>711.8</ele>
        <time>2026-07-08T14:18:44.000Z</time>
      </trkpt>
      <trkpt lat="45.80012" lon="1.91386">
        <ele>712</ele>
        <time>2026-07-08T14:18:45.000Z</time>
      </trkpt>
      <trkpt lat="45.80014" lon="1.91385">
        <ele>711.8</ele>
        <time>2026-07-08T14:18:46.000Z</time>
      </trkpt>
      <trkpt lat="45.80015" lon="1.91383">
        <ele>712.9</ele>
        <time>2026-07-08T14:18:47.000Z</time>
      </trkpt>
      <trkpt lat="45.80017" lon="1.91382">
        <ele>713</ele>
        <time>2026-07-08T14:18:48.000Z</time>
      </trkpt>
      <trkpt lat="45.80018" lon="1.9138">
        <ele>712.5</ele>
        <time>2026-07-08T14:18:49.000Z</time>
      </trkpt>
      <trkpt lat="45.80019" lon="1.9138">
        <ele>713.2</ele>
        <time>2026-07-08T14:18:50.000Z</time>
      </trkpt>
      <trkpt lat="45.8002" lon="1.91378">
        <ele>713.3</ele>
        <time>2026-07-08T14:18:51.000Z</time>
      </trkpt>
      <trkpt lat="45.80022" lon="1.91377">
        <ele>714.8</ele>
        <time>2026-07-08T14:18:52.000Z</time>
      </trkpt>
      <trkpt lat="45.80023" lon="1.91377">
        <ele>714.5</ele>
        <time>2026-07-08T14:18:53.000Z</time>
      </trkpt>
      <trkpt lat="45.80025" lon="1.91376">
        <ele>713.6</ele>
        <time>2026-07-08T14:18:54.000Z</time>
      </trkpt>
      <trkpt lat="45.80027" lon="1.91376">
        <ele>712.7</ele>
        <time>2026-07-08T14:18:55.000Z</time>
      </trkpt>
      <trkpt lat="45.80029" lon="1.91377">
        <ele>713.1</ele>
        <time>2026-07-08T14:18:56.000Z</time>
      </trkpt>
      <trkpt lat="45.80031" lon="1.91378">
        <ele>713.4</ele>
        <time>2026-07-08T14:18:57.000Z</time>
      </trkpt>
      <trkpt lat="45.80033" lon="1.91379">
        <ele>712.7</ele>
        <time>2026-07-08T14:18:58.000Z</time>
      </trkpt>
      <trkpt lat="45.80036" lon="1.91379">
        <ele>713</ele>
        <time>2026-07-08T14:18:59.000Z</time>
      </trkpt>
      <trkpt lat="45.80038" lon="1.91379">
        <ele>713.2</ele>
        <time>2026-07-08T14:19:00.000Z</time>
      </trkpt>
      <trkpt lat="45.80039" lon="1.91379">
        <ele>712.5</ele>
        <time>2026-07-08T14:19:01.000Z</time>
      </trkpt>
      <trkpt lat="45.80041" lon="1.91378">
        <ele>712.6</ele>
        <time>2026-07-08T14:19:02.000Z</time>
      </trkpt>
      <trkpt lat="45.80042" lon="1.91377">
        <ele>712</ele>
        <time>2026-07-08T14:19:03.000Z</time>
      </trkpt>
      <trkpt lat="45.80043" lon="1.91376">
        <ele>711.9</ele>
        <time>2026-07-08T14:19:04.000Z</time>
      </trkpt>
      <trkpt lat="45.80045" lon="1.91375">
        <ele>711.6</ele>
        <time>2026-07-08T14:19:05.000Z</time>
      </trkpt>
      <trkpt lat="45.80047" lon="1.91374">
        <ele>710.1</ele>
        <time>2026-07-08T14:19:06.000Z</time>
      </trkpt>
      <trkpt lat="45.80049" lon="1.91372">
        <ele>709.7</ele>
        <time>2026-07-08T14:19:07.000Z</time>
      </trkpt>
      <trkpt lat="45.8005" lon="1.91371">
        <ele>709.3</ele>
        <time>2026-07-08T14:19:08.000Z</time>
      </trkpt>
      <trkpt lat="45.80051" lon="1.91369">
        <ele>709.7</ele>
        <time>2026-07-08T14:19:09.000Z</time>
      </trkpt>
      <trkpt lat="45.80051" lon="1.91368">
        <ele>709.5</ele>
        <time>2026-07-08T14:19:10.000Z</time>
      </trkpt>
      <trkpt lat="45.80051" lon="1.91366">
        <ele>709</ele>
        <time>2026-07-08T14:19:11.000Z</time>
      </trkpt>
      <trkpt lat="45.80052" lon="1.91366">
        <ele>709.8</ele>
        <time>2026-07-08T14:19:12.000Z</time>
      </trkpt>
      <trkpt lat="45.80053" lon="1.91365">
        <ele>710.1</ele>
        <time>2026-07-08T14:19:13.000Z</time>
      </trkpt>
      <trkpt lat="45.80054" lon="1.91364">
        <ele>710.1</ele>
        <time>2026-07-08T14:19:14.000Z</time>
      </trkpt>
      <trkpt lat="45.80054" lon="1.91362">
        <ele>710</ele>
        <time>2026-07-08T14:19:15.000Z</time>
      </trkpt>
      <trkpt lat="45.80054" lon="1.91361">
        <ele>709.7</ele>
        <time>2026-07-08T14:19:16.000Z</time>
      </trkpt>
      <trkpt lat="45.80056" lon="1.9136">
        <ele>709.8</ele>
        <time>2026-07-08T14:19:17.000Z</time>
      </trkpt>
      <trkpt lat="45.80057" lon="1.91359">
        <ele>710.5</ele>
        <time>2026-07-08T14:19:18.000Z</time>
      </trkpt>
      <trkpt lat="45.80058" lon="1.91358">
        <ele>710.7</ele>
        <time>2026-07-08T14:19:19.000Z</time>
      </trkpt>
      <trkpt lat="45.80059" lon="1.91356">
        <ele>711</ele>
        <time>2026-07-08T14:19:20.000Z</time>
      </trkpt>
      <trkpt lat="45.80059" lon="1.91354">
        <ele>710.7</ele>
        <time>2026-07-08T14:19:21.000Z</time>
      </trkpt>
      <trkpt lat="45.80061" lon="1.91352">
        <ele>711.6</ele>
        <time>2026-07-08T14:19:22.000Z</time>
      </trkpt>
      <trkpt lat="45.80061" lon="1.9135">
        <ele>711.9</ele>
        <time>2026-07-08T14:19:23.000Z</time>
      </trkpt>
      <trkpt lat="45.80062" lon="1.91347">
        <ele>711.3</ele>
        <time>2026-07-08T14:19:24.000Z</time>
      </trkpt>
      <trkpt lat="45.80063" lon="1.91345">
        <ele>711</ele>
        <time>2026-07-08T14:19:25.000Z</time>
      </trkpt>
      <trkpt lat="45.80064" lon="1.91342">
        <ele>709.8</ele>
        <time>2026-07-08T14:19:26.000Z</time>
      </trkpt>
      <trkpt lat="45.80066" lon="1.9134">
        <ele>709.4</ele>
        <time>2026-07-08T14:19:27.000Z</time>
      </trkpt>
      <trkpt lat="45.80068" lon="1.91337">
        <ele>709.2</ele>
        <time>2026-07-08T14:19:28.000Z</time>
      </trkpt>
      <trkpt lat="45.80069" lon="1.91335">
        <ele>708.9</ele>
        <time>2026-07-08T14:19:29.000Z</time>
      </trkpt>
      <trkpt lat="45.80071" lon="1.91333">
        <ele>709.1</ele>
        <time>2026-07-08T14:19:30.000Z</time>
      </trkpt>
      <trkpt lat="45.80072" lon="1.9133">
        <ele>709.8</ele>
        <time>2026-07-08T14:19:31.000Z</time>
      </trkpt>
      <trkpt lat="45.80074" lon="1.91328">
        <ele>709.4</ele>
        <time>2026-07-08T14:19:32.000Z</time>
      </trkpt>
      <trkpt lat="45.80075" lon="1.91326">
        <ele>710.5</ele>
        <time>2026-07-08T14:19:33.000Z</time>
      </trkpt>
      <trkpt lat="45.80076" lon="1.91324">
        <ele>710.7</ele>
        <time>2026-07-08T14:19:34.000Z</time>
      </trkpt>
      <trkpt lat="45.80077" lon="1.91322">
        <ele>710.9</ele>
        <time>2026-07-08T14:19:35.000Z</time>
      </trkpt>
      <trkpt lat="45.80077" lon="1.9132">
        <ele>710.7</ele>
        <time>2026-07-08T14:19:36.000Z</time>
      </trkpt>
      <trkpt lat="45.80078" lon="1.91318">
        <ele>710.8</ele>
        <time>2026-07-08T14:19:37.000Z</time>
      </trkpt>
      <trkpt lat="45.80079" lon="1.91316">
        <ele>710.5</ele>
        <time>2026-07-08T14:19:38.000Z</time>
      </trkpt>
      <trkpt lat="45.8008" lon="1.91313">
        <ele>710.6</ele>
        <time>2026-07-08T14:19:39.000Z</time>
      </trkpt>
      <trkpt lat="45.8008" lon="1.91311">
        <ele>710.7</ele>
        <time>2026-07-08T14:19:40.000Z</time>
      </trkpt>
      <trkpt lat="45.80081" lon="1.91309">
        <ele>711.1</ele>
        <time>2026-07-08T14:19:41.000Z</time>
      </trkpt>
      <trkpt lat="45.80082" lon="1.91307">
        <ele>711.4</ele>
        <time>2026-07-08T14:19:42.000Z</time>
      </trkpt>
      <trkpt lat="45.80084" lon="1.91305">
        <ele>712.4</ele>
        <time>2026-07-08T14:19:43.000Z</time>
      </trkpt>
      <trkpt lat="45.80085" lon="1.91303">
        <ele>712.8</ele>
        <time>2026-07-08T14:19:44.000Z</time>
      </trkpt>
      <trkpt lat="45.80086" lon="1.91301">
        <ele>713</ele>
        <time>2026-07-08T14:19:45.000Z</time>
      </trkpt>
      <trkpt lat="45.80087" lon="1.913">
        <ele>712.5</ele>
        <time>2026-07-08T14:19:46.000Z</time>
      </trkpt>
      <trkpt lat="45.80087" lon="1.91298">
        <ele>713.1</ele>
        <time>2026-07-08T14:19:47.000Z</time>
      </trkpt>
      <trkpt lat="45.80088" lon="1.91296">
        <ele>713.2</ele>
        <time>2026-07-08T14:19:48.000Z</time>
      </trkpt>
      <trkpt lat="45.80088" lon="1.91294">
        <ele>714</ele>
        <time>2026-07-08T14:19:49.000Z</time>
      </trkpt>
      <trkpt lat="45.80089" lon="1.91291">
        <ele>714.9</ele>
        <time>2026-07-08T14:19:50.000Z</time>
      </trkpt>
      <trkpt lat="45.80091" lon="1.91289">
        <ele>715.4</ele>
        <time>2026-07-08T14:19:51.000Z</time>
      </trkpt>
      <trkpt lat="45.80091" lon="1.91287">
        <ele>715.7</ele>
        <time>2026-07-08T14:19:52.000Z</time>
      </trkpt>
      <trkpt lat="45.80092" lon="1.91285">
        <ele>716</ele>
        <time>2026-07-08T14:19:53.000Z</time>
      </trkpt>
      <trkpt lat="45.80094" lon="1.91284">
        <ele>715.9</ele>
        <time>2026-07-08T14:19:54.000Z</time>
      </trkpt>
      <trkpt lat="45.80094" lon="1.91281">
        <ele>716.3</ele>
        <time>2026-07-08T14:19:55.000Z</time>
      </trkpt>
      <trkpt lat="45.80093" lon="1.9128">
        <ele>716.4</ele>
        <time>2026-07-08T14:19:56.000Z</time>
      </trkpt>
      <trkpt lat="45.80093" lon="1.9128">
        <ele>716.4</ele>
        <time>2026-07-08T14:19:57.000Z</time>
      </trkpt>
      <trkpt lat="45.80092" lon="1.9128">
        <ele>716.4</ele>
        <time>2026-07-08T14:19:58.000Z</time>
      </trkpt>
      <trkpt lat="45.80092" lon="1.9128">
        <ele>716.1</ele>
        <time>2026-07-08T14:19:59.000Z</time>
      </trkpt>
      <trkpt lat="45.80092" lon="1.91279">
        <ele>716</ele>
        <time>2026-07-08T14:20:00.000Z</time>
      </trkpt>
      <trkpt lat="45.80092" lon="1.91276">
        <ele>716.5</ele>
        <time>2026-07-08T14:20:01.000Z</time>
      </trkpt>
      <trkpt lat="45.80092" lon="1.91275">
        <ele>715.3</ele>
        <time>2026-07-08T14:20:02.000Z</time>
      </trkpt>
      <trkpt lat="45.80091" lon="1.91274">
        <ele>713.5</ele>
        <time>2026-07-08T14:20:03.000Z</time>
      </trkpt>
      <trkpt lat="45.8009" lon="1.91273">
        <ele>712.6</ele>
        <time>2026-07-08T14:20:04.000Z</time>
      </trkpt>
      <trkpt lat="45.80089" lon="1.91272">
        <ele>712.5</ele>
        <time>2026-07-08T14:20:05.000Z</time>
      </trkpt>
      <trkpt lat="45.80088" lon="1.91271">
        <ele>711.6</ele>
        <time>2026-07-08T14:20:06.000Z</time>
      </trkpt>
      <trkpt lat="45.80086" lon="1.9127">
        <ele>711.2</ele>
        <time>2026-07-08T14:20:07.000Z</time>
      </trkpt>
      <trkpt lat="45.80084" lon="1.9127">
        <ele>709.9</ele>
        <time>2026-07-08T14:20:08.000Z</time>
      </trkpt>
      <trkpt lat="45.80083" lon="1.9127">
        <ele>710</ele>
        <time>2026-07-08T14:20:09.000Z</time>
      </trkpt>
      <trkpt lat="45.80081" lon="1.9127">
        <ele>710.6</ele>
        <time>2026-07-08T14:20:10.000Z</time>
      </trkpt>
      <trkpt lat="45.8008" lon="1.9127">
        <ele>711.7</ele>
        <time>2026-07-08T14:20:11.000Z</time>
      </trkpt>
      <trkpt lat="45.80079" lon="1.9127">
        <ele>711.2</ele>
        <time>2026-07-08T14:20:12.000Z</time>
      </trkpt>
      <trkpt lat="45.80078" lon="1.91268">
        <ele>711</ele>
        <time>2026-07-08T14:20:13.000Z</time>
      </trkpt>
      <trkpt lat="45.80077" lon="1.91267">
        <ele>709.8</ele>
        <time>2026-07-08T14:20:14.000Z</time>
      </trkpt>
      <trkpt lat="45.80077" lon="1.91264">
        <ele>709.4</ele>
        <time>2026-07-08T14:20:15.000Z</time>
      </trkpt>
      <trkpt lat="45.80077" lon="1.91262">
        <ele>708.8</ele>
        <time>2026-07-08T14:20:16.000Z</time>
      </trkpt>
      <trkpt lat="45.80078" lon="1.9126">
        <ele>709</ele>
        <time>2026-07-08T14:20:17.000Z</time>
      </trkpt>
      <trkpt lat="45.80079" lon="1.91258">
        <ele>710.3</ele>
        <time>2026-07-08T14:20:18.000Z</time>
      </trkpt>
      <trkpt lat="45.80079" lon="1.91256">
        <ele>710.8</ele>
        <time>2026-07-08T14:20:19.000Z</time>
      </trkpt>
      <trkpt lat="45.80079" lon="1.91254">
        <ele>710.6</ele>
        <time>2026-07-08T14:20:20.000Z</time>
      </trkpt>
      <trkpt lat="45.8008" lon="1.91252">
        <ele>711.1</ele>
        <time>2026-07-08T14:20:21.000Z</time>
      </trkpt>
      <trkpt lat="45.80081" lon="1.91251">
        <ele>712</ele>
        <time>2026-07-08T14:20:22.000Z</time>
      </trkpt>
      <trkpt lat="45.80082" lon="1.91251">
        <ele>711.5</ele>
        <time>2026-07-08T14:20:23.000Z</time>
      </trkpt>
      <trkpt lat="45.80083" lon="1.9125">
        <ele>712.5</ele>
        <time>2026-07-08T14:20:24.000Z</time>
      </trkpt>
      <trkpt lat="45.80083" lon="1.9125">
        <ele>711.7</ele>
        <time>2026-07-08T14:20:25.000Z</time>
      </trkpt>
      <trkpt lat="45.80083" lon="1.9125">
        <ele>711.7</ele>
        <time>2026-07-08T14:20:26.000Z</time>
      </trkpt>
      <trkpt lat="45.80083" lon="1.91251">
        <ele>711.7</ele>
        <time>2026-07-08T14:20:27.000Z</time>
      </trkpt>
      <trkpt lat="45.80083" lon="1.91251">
        <ele>712.2</ele>
        <time>2026-07-08T14:20:28.000Z</time>
      </trkpt>
      <trkpt lat="45.80083" lon="1.91249">
        <ele>712</ele>
        <time>2026-07-08T14:20:29.000Z</time>
      </trkpt>
      <trkpt lat="45.80084" lon="1.91248">
        <ele>712</ele>
        <time>2026-07-08T14:20:30.000Z</time>
      </trkpt>
      <trkpt lat="45.80084" lon="1.91246">
        <ele>712.4</ele>
        <time>2026-07-08T14:20:31.000Z</time>
      </trkpt>
      <trkpt lat="45.80084" lon="1.91244">
        <ele>712.3</ele>
        <time>2026-07-08T14:20:32.000Z</time>
      </trkpt>
      <trkpt lat="45.80084" lon="1.91242">
        <ele>712.3</ele>
        <time>2026-07-08T14:20:33.000Z</time>
      </trkpt>
      <trkpt lat="45.80085" lon="1.9124">
        <ele>712.7</ele>
        <time>2026-07-08T14:20:34.000Z</time>
      </trkpt>
      <trkpt lat="45.80085" lon="1.91238">
        <ele>712.1</ele>
        <time>2026-07-08T14:20:35.000Z</time>
      </trkpt>
      <trkpt lat="45.80085" lon="1.91236">
        <ele>712.7</ele>
        <time>2026-07-08T14:20:36.000Z</time>
      </trkpt>
      <trkpt lat="45.80086" lon="1.91233">
        <ele>712.6</ele>
        <time>2026-07-08T14:20:37.000Z</time>
      </trkpt>
      <trkpt lat="45.80087" lon="1.91231">
        <ele>713.2</ele>
        <time>2026-07-08T14:20:38.000Z</time>
      </trkpt>
      <trkpt lat="45.80088" lon="1.91228">
        <ele>713.6</ele>
        <time>2026-07-08T14:20:39.000Z</time>
      </trkpt>
      <trkpt lat="45.80089" lon="1.91226">
        <ele>713</ele>
        <time>2026-07-08T14:20:40.000Z</time>
      </trkpt>
      <trkpt lat="45.8009" lon="1.91224">
        <ele>713</ele>
        <time>2026-07-08T14:20:41.000Z</time>
      </trkpt>
      <trkpt lat="45.8009" lon="1.91222">
        <ele>712.5</ele>
        <time>2026-07-08T14:20:42.000Z</time>
      </trkpt>
      <trkpt lat="45.8009" lon="1.9122">
        <ele>712.6</ele>
        <time>2026-07-08T14:20:43.000Z</time>
      </trkpt>
      <trkpt lat="45.80091" lon="1.91218">
        <ele>712.1</ele>
        <time>2026-07-08T14:20:44.000Z</time>
      </trkpt>
      <trkpt lat="45.80093" lon="1.91216">
        <ele>712.4</ele>
        <time>2026-07-08T14:20:45.000Z</time>
      </trkpt>
      <trkpt lat="45.80093" lon="1.91214">
        <ele>712.9</ele>
        <time>2026-07-08T14:20:46.000Z</time>
      </trkpt>
      <trkpt lat="45.80094" lon="1.91211">
        <ele>713.6</ele>
        <time>2026-07-08T14:20:47.000Z</time>
      </trkpt>
      <trkpt lat="45.80094" lon="1.91208">
        <ele>713.7</ele>
        <time>2026-07-08T14:20:48.000Z</time>
      </trkpt>
      <trkpt lat="45.80093" lon="1.91206">
        <ele>713</ele>
        <time>2026-07-08T14:20:49.000Z</time>
      </trkpt>
      <trkpt lat="45.80093" lon="1.91204">
        <ele>712.1</ele>
        <time>2026-07-08T14:20:50.000Z</time>
      </trkpt>
      <trkpt lat="45.80092" lon="1.91201">
        <ele>711.6</ele>
        <time>2026-07-08T14:20:51.000Z</time>
      </trkpt>
      <trkpt lat="45.80091" lon="1.91199">
        <ele>711</ele>
        <time>2026-07-08T14:20:52.000Z</time>
      </trkpt>
      <trkpt lat="45.8009" lon="1.91197">
        <ele>710.7</ele>
        <time>2026-07-08T14:20:53.000Z</time>
      </trkpt>
      <trkpt lat="45.80089" lon="1.91195">
        <ele>710</ele>
        <time>2026-07-08T14:20:54.000Z</time>
      </trkpt>
      <trkpt lat="45.80089" lon="1.91192">
        <ele>709.9</ele>
        <time>2026-07-08T14:20:55.000Z</time>
      </trkpt>
      <trkpt lat="45.80088" lon="1.9119">
        <ele>709.5</ele>
        <time>2026-07-08T14:20:56.000Z</time>
      </trkpt>
      <trkpt lat="45.80087" lon="1.91187">
        <ele>709.4</ele>
        <time>2026-07-08T14:20:57.000Z</time>
      </trkpt>
      <trkpt lat="45.80087" lon="1.91185">
        <ele>709.4</ele>
        <time>2026-07-08T14:20:58.000Z</time>
      </trkpt>
      <trkpt lat="45.80087" lon="1.91183">
        <ele>708.6</ele>
        <time>2026-07-08T14:20:59.000Z</time>
      </trkpt>
      <trkpt lat="45.80086" lon="1.91181">
        <ele>708.6</ele>
        <time>2026-07-08T14:21:00.000Z</time>
      </trkpt>
      <trkpt lat="45.80087" lon="1.91178">
        <ele>708.7</ele>
        <time>2026-07-08T14:21:01.000Z</time>
      </trkpt>
      <trkpt lat="45.80087" lon="1.91176">
        <ele>708.8</ele>
        <time>2026-07-08T14:21:02.000Z</time>
      </trkpt>
      <trkpt lat="45.80087" lon="1.91173">
        <ele>709.2</ele>
        <time>2026-07-08T14:21:03.000Z</time>
      </trkpt>
      <trkpt lat="45.80088" lon="1.91171">
        <ele>708.8</ele>
        <time>2026-07-08T14:21:04.000Z</time>
      </trkpt>
      <trkpt lat="45.80088" lon="1.91169">
        <ele>708.8</ele>
        <time>2026-07-08T14:21:05.000Z</time>
      </trkpt>
      <trkpt lat="45.80089" lon="1.91167">
        <ele>708.6</ele>
        <time>2026-07-08T14:21:06.000Z</time>
      </trkpt>
      <trkpt lat="45.8009" lon="1.91164">
        <ele>708.3</ele>
        <time>2026-07-08T14:21:07.000Z</time>
      </trkpt>
      <trkpt lat="45.80092" lon="1.91161">
        <ele>708</ele>
        <time>2026-07-08T14:21:08.000Z</time>
      </trkpt>
      <trkpt lat="45.80093" lon="1.91159">
        <ele>707.7</ele>
        <time>2026-07-08T14:21:09.000Z</time>
      </trkpt>
      <trkpt lat="45.80095" lon="1.91157">
        <ele>708.1</ele>
        <time>2026-07-08T14:21:10.000Z</time>
      </trkpt>
      <trkpt lat="45.80096" lon="1.91155">
        <ele>707.8</ele>
        <time>2026-07-08T14:21:11.000Z</time>
      </trkpt>
      <trkpt lat="45.80097" lon="1.91153">
        <ele>707.2</ele>
        <time>2026-07-08T14:21:12.000Z</time>
      </trkpt>
      <trkpt lat="45.80099" lon="1.91152">
        <ele>706.5</ele>
        <time>2026-07-08T14:21:13.000Z</time>
      </trkpt>
      <trkpt lat="45.80102" lon="1.91153">
        <ele>706.2</ele>
        <time>2026-07-08T14:21:14.000Z</time>
      </trkpt>
      <trkpt lat="45.80105" lon="1.91152">
        <ele>706.1</ele>
        <time>2026-07-08T14:21:15.000Z</time>
      </trkpt>
      <trkpt lat="45.80107" lon="1.91151">
        <ele>706.2</ele>
        <time>2026-07-08T14:21:16.000Z</time>
      </trkpt>
      <trkpt lat="45.80109" lon="1.91149">
        <ele>705.9</ele>
        <time>2026-07-08T14:21:17.000Z</time>
      </trkpt>
      <trkpt lat="45.80111" lon="1.91149">
        <ele>705.4</ele>
        <time>2026-07-08T14:21:18.000Z</time>
      </trkpt>
      <trkpt lat="45.80114" lon="1.91148">
        <ele>705.7</ele>
        <time>2026-07-08T14:21:19.000Z</time>
      </trkpt>
      <trkpt lat="45.80116" lon="1.91147">
        <ele>706.2</ele>
        <time>2026-07-08T14:21:20.000Z</time>
      </trkpt>
      <trkpt lat="45.80117" lon="1.91145">
        <ele>704.9</ele>
        <time>2026-07-08T14:21:21.000Z</time>
      </trkpt>
      <trkpt lat="45.80118" lon="1.91144">
        <ele>703.7</ele>
        <time>2026-07-08T14:21:22.000Z</time>
      </trkpt>
      <trkpt lat="45.80118" lon="1.91143">
        <ele>703.5</ele>
        <time>2026-07-08T14:21:23.000Z</time>
      </trkpt>
      <trkpt lat="45.8012" lon="1.91141">
        <ele>703.9</ele>
        <time>2026-07-08T14:21:24.000Z</time>
      </trkpt>
      <trkpt lat="45.80121" lon="1.91141">
        <ele>704.1</ele>
        <time>2026-07-08T14:21:25.000Z</time>
      </trkpt>
      <trkpt lat="45.80123" lon="1.91141">
        <ele>704.4</ele>
        <time>2026-07-08T14:21:26.000Z</time>
      </trkpt>
      <trkpt lat="45.80125" lon="1.91141">
        <ele>704.6</ele>
        <time>2026-07-08T14:21:27.000Z</time>
      </trkpt>
      <trkpt lat="45.80127" lon="1.91141">
        <ele>705.6</ele>
        <time>2026-07-08T14:21:28.000Z</time>
      </trkpt>
      <trkpt lat="45.80129" lon="1.91141">
        <ele>706.1</ele>
        <time>2026-07-08T14:21:29.000Z</time>
      </trkpt>
      <trkpt lat="45.8013" lon="1.9114">
        <ele>705.6</ele>
        <time>2026-07-08T14:21:30.000Z</time>
      </trkpt>
      <trkpt lat="45.80132" lon="1.91137">
        <ele>704.7</ele>
        <time>2026-07-08T14:21:31.000Z</time>
      </trkpt>
      <trkpt lat="45.80134" lon="1.91132">
        <ele>705.4</ele>
        <time>2026-07-08T14:21:32.000Z</time>
      </trkpt>
      <trkpt lat="45.80135" lon="1.91128">
        <ele>706.3</ele>
        <time>2026-07-08T14:21:33.000Z</time>
      </trkpt>
      <trkpt lat="45.80137" lon="1.91124">
        <ele>706.8</ele>
        <time>2026-07-08T14:21:34.000Z</time>
      </trkpt>
      <trkpt lat="45.80138" lon="1.91121">
        <ele>706.7</ele>
        <time>2026-07-08T14:21:35.000Z</time>
      </trkpt>
      <trkpt lat="45.8014" lon="1.91117">
        <ele>706.4</ele>
        <time>2026-07-08T14:21:36.000Z</time>
      </trkpt>
      <trkpt lat="45.80141" lon="1.91113">
        <ele>706.1</ele>
        <time>2026-07-08T14:21:37.000Z</time>
      </trkpt>
      <trkpt lat="45.80142" lon="1.91105">
        <ele>706.9</ele>
        <time>2026-07-08T14:21:38.000Z</time>
      </trkpt>
      <trkpt lat="45.80144" lon="1.91096">
        <ele>708.5</ele>
        <time>2026-07-08T14:21:39.000Z</time>
      </trkpt>
      <trkpt lat="45.80148" lon="1.91095">
        <ele>708.6</ele>
        <time>2026-07-08T14:21:40.000Z</time>
      </trkpt>
      <trkpt lat="45.80149" lon="1.91095">
        <ele>707.4</ele>
        <time>2026-07-08T14:21:41.000Z</time>
      </trkpt>
      <trkpt lat="45.80151" lon="1.91094">
        <ele>707.8</ele>
        <time>2026-07-08T14:21:42.000Z</time>
      </trkpt>
      <trkpt lat="45.80152" lon="1.91093">
        <ele>708.3</ele>
        <time>2026-07-08T14:21:43.000Z</time>
      </trkpt>
      <trkpt lat="45.80153" lon="1.91091">
        <ele>708</ele>
        <time>2026-07-08T14:21:44.000Z</time>
      </trkpt>
      <trkpt lat="45.80154" lon="1.91089">
        <ele>707.6</ele>
        <time>2026-07-08T14:21:45.000Z</time>
      </trkpt>
      <trkpt lat="45.80154" lon="1.91086">
        <ele>707.4</ele>
        <time>2026-07-08T14:21:46.000Z</time>
      </trkpt>
      <trkpt lat="45.80154" lon="1.91083">
        <ele>707.7</ele>
        <time>2026-07-08T14:21:47.000Z</time>
      </trkpt>
      <trkpt lat="45.80154" lon="1.9108">
        <ele>707.2</ele>
        <time>2026-07-08T14:21:48.000Z</time>
      </trkpt>
      <trkpt lat="45.80155" lon="1.91077">
        <ele>706.6</ele>
        <time>2026-07-08T14:21:49.000Z</time>
      </trkpt>
      <trkpt lat="45.80156" lon="1.91075">
        <ele>706.2</ele>
        <time>2026-07-08T14:21:50.000Z</time>
      </trkpt>
      <trkpt lat="45.80158" lon="1.91072">
        <ele>705.9</ele>
        <time>2026-07-08T14:21:51.000Z</time>
      </trkpt>
      <trkpt lat="45.8016" lon="1.9107">
        <ele>705.7</ele>
        <time>2026-07-08T14:21:52.000Z</time>
      </trkpt>
      <trkpt lat="45.80161" lon="1.91068">
        <ele>705.4</ele>
        <time>2026-07-08T14:21:53.000Z</time>
      </trkpt>
      <trkpt lat="45.80162" lon="1.91067">
        <ele>707.8</ele>
        <time>2026-07-08T14:21:54.000Z</time>
      </trkpt>
      <trkpt lat="45.80162" lon="1.91065">
        <ele>707.8</ele>
        <time>2026-07-08T14:21:55.000Z</time>
      </trkpt>
      <trkpt lat="45.80164" lon="1.91063">
        <ele>708.5</ele>
        <time>2026-07-08T14:21:56.000Z</time>
      </trkpt>
      <trkpt lat="45.80165" lon="1.91061">
        <ele>708.2</ele>
        <time>2026-07-08T14:21:57.000Z</time>
      </trkpt>
      <trkpt lat="45.80167" lon="1.91059">
        <ele>708</ele>
        <time>2026-07-08T14:21:58.000Z</time>
      </trkpt>
      <trkpt lat="45.80169" lon="1.91057">
        <ele>708.5</ele>
        <time>2026-07-08T14:21:59.000Z</time>
      </trkpt>
      <trkpt lat="45.8017" lon="1.91055">
        <ele>708</ele>
        <time>2026-07-08T14:22:00.000Z</time>
      </trkpt>
      <trkpt lat="45.80171" lon="1.91053">
        <ele>709.6</ele>
        <time>2026-07-08T14:22:01.000Z</time>
      </trkpt>
      <trkpt lat="45.80171" lon="1.91052">
        <ele>709.9</ele>
        <time>2026-07-08T14:22:02.000Z</time>
      </trkpt>
      <trkpt lat="45.80172" lon="1.91051">
        <ele>709.1</ele>
        <time>2026-07-08T14:22:03.000Z</time>
      </trkpt>
      <trkpt lat="45.80172" lon="1.91048">
        <ele>708.8</ele>
        <time>2026-07-08T14:22:04.000Z</time>
      </trkpt>
      <trkpt lat="45.80173" lon="1.91046">
        <ele>708.3</ele>
        <time>2026-07-08T14:22:05.000Z</time>
      </trkpt>
      <trkpt lat="45.80174" lon="1.91044">
        <ele>706.7</ele>
        <time>2026-07-08T14:22:06.000Z</time>
      </trkpt>
      <trkpt lat="45.80175" lon="1.91042">
        <ele>706</ele>
        <time>2026-07-08T14:22:07.000Z</time>
      </trkpt>
      <trkpt lat="45.80175" lon="1.9104">
        <ele>705.4</ele>
        <time>2026-07-08T14:22:08.000Z</time>
      </trkpt>
      <trkpt lat="45.80176" lon="1.91038">
        <ele>704.6</ele>
        <time>2026-07-08T14:22:09.000Z</time>
      </trkpt>
      <trkpt lat="45.80177" lon="1.91035">
        <ele>704.5</ele>
        <time>2026-07-08T14:22:10.000Z</time>
      </trkpt>
      <trkpt lat="45.80178" lon="1.91032">
        <ele>705.3</ele>
        <time>2026-07-08T14:22:11.000Z</time>
      </trkpt>
      <trkpt lat="45.80178" lon="1.91029">
        <ele>705.8</ele>
        <time>2026-07-08T14:22:12.000Z</time>
      </trkpt>
      <trkpt lat="45.80179" lon="1.91027">
        <ele>706.1</ele>
        <time>2026-07-08T14:22:13.000Z</time>
      </trkpt>
      <trkpt lat="45.80181" lon="1.91024">
        <ele>706</ele>
        <time>2026-07-08T14:22:14.000Z</time>
      </trkpt>
      <trkpt lat="45.80181" lon="1.91021">
        <ele>706.2</ele>
        <time>2026-07-08T14:22:15.000Z</time>
      </trkpt>
      <trkpt lat="45.80182" lon="1.91018">
        <ele>706.6</ele>
        <time>2026-07-08T14:22:16.000Z</time>
      </trkpt>
      <trkpt lat="45.80184" lon="1.91016">
        <ele>708.1</ele>
        <time>2026-07-08T14:22:17.000Z</time>
      </trkpt>
      <trkpt lat="45.80185" lon="1.91014">
        <ele>707.7</ele>
        <time>2026-07-08T14:22:18.000Z</time>
      </trkpt>
      <trkpt lat="45.80186" lon="1.91011">
        <ele>707.3</ele>
        <time>2026-07-08T14:22:19.000Z</time>
      </trkpt>
      <trkpt lat="45.80187" lon="1.91009">
        <ele>708.2</ele>
        <time>2026-07-08T14:22:20.000Z</time>
      </trkpt>
      <trkpt lat="45.80188" lon="1.91007">
        <ele>708.7</ele>
        <time>2026-07-08T14:22:21.000Z</time>
      </trkpt>
      <trkpt lat="45.80189" lon="1.91005">
        <ele>708.3</ele>
        <time>2026-07-08T14:22:22.000Z</time>
      </trkpt>
      <trkpt lat="45.8019" lon="1.91003">
        <ele>708.5</ele>
        <time>2026-07-08T14:22:23.000Z</time>
      </trkpt>
      <trkpt lat="45.80191" lon="1.91">
        <ele>708.1</ele>
        <time>2026-07-08T14:22:24.000Z</time>
      </trkpt>
      <trkpt lat="45.80192" lon="1.90997">
        <ele>706.1</ele>
        <time>2026-07-08T14:22:25.000Z</time>
      </trkpt>
      <trkpt lat="45.80193" lon="1.90994">
        <ele>705.5</ele>
        <time>2026-07-08T14:22:26.000Z</time>
      </trkpt>
      <trkpt lat="45.80194" lon="1.90992">
        <ele>705.2</ele>
        <time>2026-07-08T14:22:27.000Z</time>
      </trkpt>
      <trkpt lat="45.80196" lon="1.90989">
        <ele>705.1</ele>
        <time>2026-07-08T14:22:28.000Z</time>
      </trkpt>
      <trkpt lat="45.80197" lon="1.90987">
        <ele>704.8</ele>
        <time>2026-07-08T14:22:29.000Z</time>
      </trkpt>
      <trkpt lat="45.80199" lon="1.90985">
        <ele>705.9</ele>
        <time>2026-07-08T14:22:30.000Z</time>
      </trkpt>
      <trkpt lat="45.802" lon="1.90983">
        <ele>707.8</ele>
        <time>2026-07-08T14:22:31.000Z</time>
      </trkpt>
      <trkpt lat="45.80202" lon="1.90982">
        <ele>707.4</ele>
        <time>2026-07-08T14:22:32.000Z</time>
      </trkpt>
      <trkpt lat="45.80203" lon="1.90982">
        <ele>707.2</ele>
        <time>2026-07-08T14:22:33.000Z</time>
      </trkpt>
      <trkpt lat="45.80204" lon="1.9098">
        <ele>706.2</ele>
        <time>2026-07-08T14:22:34.000Z</time>
      </trkpt>
      <trkpt lat="45.80206" lon="1.90979">
        <ele>706.6</ele>
        <time>2026-07-08T14:22:35.000Z</time>
      </trkpt>
      <trkpt lat="45.80207" lon="1.90979">
        <ele>708</ele>
        <time>2026-07-08T14:22:36.000Z</time>
      </trkpt>
      <trkpt lat="45.8021" lon="1.90979">
        <ele>709.3</ele>
        <time>2026-07-08T14:22:37.000Z</time>
      </trkpt>
      <trkpt lat="45.80211" lon="1.9098">
        <ele>708.7</ele>
        <time>2026-07-08T14:22:38.000Z</time>
      </trkpt>
      <trkpt lat="45.80213" lon="1.90981">
        <ele>708.4</ele>
        <time>2026-07-08T14:22:39.000Z</time>
      </trkpt>
      <trkpt lat="45.80215" lon="1.90983">
        <ele>707.1</ele>
        <time>2026-07-08T14:22:40.000Z</time>
      </trkpt>
      <trkpt lat="45.80217" lon="1.90985">
        <ele>707.3</ele>
        <time>2026-07-08T14:22:41.000Z</time>
      </trkpt>
      <trkpt lat="45.80218" lon="1.90987">
        <ele>707.8</ele>
        <time>2026-07-08T14:22:42.000Z</time>
      </trkpt>
      <trkpt lat="45.80219" lon="1.9099">
        <ele>709.5</ele>
        <time>2026-07-08T14:22:43.000Z</time>
      </trkpt>
      <trkpt lat="45.80221" lon="1.90991">
        <ele>709</ele>
        <time>2026-07-08T14:22:44.000Z</time>
      </trkpt>
      <trkpt lat="45.80223" lon="1.90994">
        <ele>709.6</ele>
        <time>2026-07-08T14:22:45.000Z</time>
      </trkpt>
      <trkpt lat="45.80225" lon="1.90995">
        <ele>709.5</ele>
        <time>2026-07-08T14:22:46.000Z</time>
      </trkpt>
      <trkpt lat="45.80226" lon="1.90997">
        <ele>709</ele>
        <time>2026-07-08T14:22:47.000Z</time>
      </trkpt>
      <trkpt lat="45.80228" lon="1.90999">
        <ele>709.1</ele>
        <time>2026-07-08T14:22:48.000Z</time>
      </trkpt>
      <trkpt lat="45.8023" lon="1.91">
        <ele>709</ele>
        <time>2026-07-08T14:22:49.000Z</time>
      </trkpt>
      <trkpt lat="45.8023" lon="1.91001">
        <ele>710</ele>
        <time>2026-07-08T14:22:50.000Z</time>
      </trkpt>
      <trkpt lat="45.80232" lon="1.91003">
        <ele>712.3</ele>
        <time>2026-07-08T14:22:51.000Z</time>
      </trkpt>
      <trkpt lat="45.80233" lon="1.91005">
        <ele>713.2</ele>
        <time>2026-07-08T14:22:52.000Z</time>
      </trkpt>
      <trkpt lat="45.80233" lon="1.91005">
        <ele>713.3</ele>
        <time>2026-07-08T14:22:53.000Z</time>
      </trkpt>
      <trkpt lat="45.80233" lon="1.91005">
        <ele>713.5</ele>
        <time>2026-07-08T14:22:54.000Z</time>
      </trkpt>
      <trkpt lat="45.80234" lon="1.91006">
        <ele>712.6</ele>
        <time>2026-07-08T14:22:55.000Z</time>
      </trkpt>
      <trkpt lat="45.80234" lon="1.91006">
        <ele>713</ele>
        <time>2026-07-08T14:22:56.000Z</time>
      </trkpt>
      <trkpt lat="45.80235" lon="1.91006">
        <ele>712.9</ele>
        <time>2026-07-08T14:22:57.000Z</time>
      </trkpt>
      <trkpt lat="45.80235" lon="1.91006">
        <ele>712.4</ele>
        <time>2026-07-08T14:22:58.000Z</time>
      </trkpt>
      <trkpt lat="45.80235" lon="1.91005">
        <ele>711.8</ele>
        <time>2026-07-08T14:22:59.000Z</time>
      </trkpt>
      <trkpt lat="45.80235" lon="1.91005">
        <ele>712.1</ele>
        <time>2026-07-08T14:23:00.000Z</time>
      </trkpt>
      <trkpt lat="45.80235" lon="1.91006">
        <ele>712.6</ele>
        <time>2026-07-08T14:23:01.000Z</time>
      </trkpt>
      <trkpt lat="45.80236" lon="1.91008">
        <ele>713.2</ele>
        <time>2026-07-08T14:23:02.000Z</time>
      </trkpt>
      <trkpt lat="45.80236" lon="1.91008">
        <ele>713.3</ele>
        <time>2026-07-08T14:23:03.000Z</time>
      </trkpt>
      <trkpt lat="45.80236" lon="1.91008">
        <ele>713.5</ele>
        <time>2026-07-08T14:23:04.000Z</time>
      </trkpt>
      <trkpt lat="45.80237" lon="1.9101">
        <ele>713.5</ele>
        <time>2026-07-08T14:23:05.000Z</time>
      </trkpt>
      <trkpt lat="45.80237" lon="1.91012">
        <ele>713.4</ele>
        <time>2026-07-08T14:23:06.000Z</time>
      </trkpt>
      <trkpt lat="45.80236" lon="1.91013">
        <ele>713.2</ele>
        <time>2026-07-08T14:23:07.000Z</time>
      </trkpt>
      <trkpt lat="45.80236" lon="1.91013">
        <ele>712.5</ele>
        <time>2026-07-08T14:23:08.000Z</time>
      </trkpt>
      <trkpt lat="45.80236" lon="1.91014">
        <ele>710.8</ele>
        <time>2026-07-08T14:23:09.000Z</time>
      </trkpt>
      <trkpt lat="45.80236" lon="1.91013">
        <ele>710.5</ele>
        <time>2026-07-08T14:23:10.000Z</time>
      </trkpt>
      <trkpt lat="45.80236" lon="1.91013">
        <ele>710.5</ele>
        <time>2026-07-08T14:23:11.000Z</time>
      </trkpt>
      <trkpt lat="45.80236" lon="1.91013">
        <ele>710.5</ele>
        <time>2026-07-08T14:23:12.000Z</time>
      </trkpt>
      <trkpt lat="45.80236" lon="1.91012">
        <ele>710.2</ele>
        <time>2026-07-08T14:23:13.000Z</time>
      </trkpt>
      <trkpt lat="45.80237" lon="1.91012">
        <ele>710.1</ele>
        <time>2026-07-08T14:23:14.000Z</time>
      </trkpt>
      <trkpt lat="45.80237" lon="1.91011">
        <ele>709.7</ele>
        <time>2026-07-08T14:23:15.000Z</time>
      </trkpt>
      <trkpt lat="45.80237" lon="1.91011">
        <ele>709.5</ele>
        <time>2026-07-08T14:23:16.000Z</time>
      </trkpt>
      <trkpt lat="45.80237" lon="1.91009">
        <ele>709.7</ele>
        <time>2026-07-08T14:23:17.000Z</time>
      </trkpt>
      <trkpt lat="45.80237" lon="1.91009">
        <ele>709.5</ele>
        <time>2026-07-08T14:23:18.000Z</time>
      </trkpt>
      <trkpt lat="45.80237" lon="1.91008">
        <ele>709.7</ele>
        <time>2026-07-08T14:23:19.000Z</time>
      </trkpt>
      <trkpt lat="45.80237" lon="1.91008">
        <ele>709.7</ele>
        <time>2026-07-08T14:23:20.000Z</time>
      </trkpt>
      <trkpt lat="45.80237" lon="1.91008">
        <ele>709.7</ele>
        <time>2026-07-08T14:23:21.000Z</time>
      </trkpt>
      <trkpt lat="45.80237" lon="1.91007">
        <ele>709.7</ele>
        <time>2026-07-08T14:23:22.000Z</time>
      </trkpt>
      <trkpt lat="45.80237" lon="1.91007">
        <ele>709.7</ele>
        <time>2026-07-08T14:23:23.000Z</time>
      </trkpt>
      <trkpt lat="45.80237" lon="1.91007">
        <ele>709.7</ele>
        <time>2026-07-08T14:23:24.000Z</time>
      </trkpt>
      <trkpt lat="45.80237" lon="1.91007">
        <ele>709.8</ele>
        <time>2026-07-08T14:23:25.000Z</time>
      </trkpt>
      <trkpt lat="45.80237" lon="1.91007">
        <ele>709.8</ele>
        <time>2026-07-08T14:23:26.000Z</time>
      </trkpt>
      <trkpt lat="45.80237" lon="1.91007">
        <ele>709.8</ele>
        <time>2026-07-08T14:23:27.000Z</time>
      </trkpt>
      <trkpt lat="45.80237" lon="1.91007">
        <ele>709.8</ele>
        <time>2026-07-08T14:23:28.000Z</time>
      </trkpt>
      <trkpt lat="45.80237" lon="1.91007">
        <ele>709.8</ele>
        <time>2026-07-08T14:23:29.000Z</time>
      </trkpt>
      <trkpt lat="45.80237" lon="1.91007">
        <ele>709.8</ele>
        <time>2026-07-08T14:23:30.000Z</time>
      </trkpt>
      <trkpt lat="45.80237" lon="1.91007">
        <ele>710.1</ele>
        <time>2026-07-08T14:23:31.000Z</time>
      </trkpt>
      <trkpt lat="45.80237" lon="1.91007">
        <ele>710.4</ele>
        <time>2026-07-08T14:23:32.000Z</time>
      </trkpt>
      <trkpt lat="45.80237" lon="1.91007">
        <ele>710.4</ele>
        <time>2026-07-08T14:23:33.000Z</time>
      </trkpt>
      <trkpt lat="45.80237" lon="1.91007">
        <ele>710.4</ele>
        <time>2026-07-08T14:23:34.000Z</time>
      </trkpt>
      <trkpt lat="45.80237" lon="1.91007">
        <ele>710.3</ele>
        <time>2026-07-08T14:23:35.000Z</time>
      </trkpt>
      <trkpt lat="45.80237" lon="1.91007">
        <ele>710.3</ele>
        <time>2026-07-08T14:23:36.000Z</time>
      </trkpt>
      <trkpt lat="45.80237" lon="1.91007">
        <ele>710.3</ele>
        <time>2026-07-08T14:23:37.000Z</time>
      </trkpt>
      <trkpt lat="45.80237" lon="1.91007">
        <ele>710.3</ele>
        <time>2026-07-08T14:23:38.000Z</time>
      </trkpt>
      <trkpt lat="45.80237" lon="1.91007">
        <ele>710.2</ele>
        <time>2026-07-08T14:23:39.000Z</time>
      </trkpt>
      <trkpt lat="45.80237" lon="1.91007">
        <ele>710.2</ele>
        <time>2026-07-08T14:23:40.000Z</time>
      </trkpt>
      <trkpt lat="45.80237" lon="1.91008">
        <ele>710.2</ele>
        <time>2026-07-08T14:23:41.000Z</time>
      </trkpt>
      <trkpt lat="45.80237" lon="1.91009">
        <ele>709.9</ele>
        <time>2026-07-08T14:23:42.000Z</time>
      </trkpt>
      <trkpt lat="45.80237" lon="1.91009">
        <ele>709.9</ele>
        <time>2026-07-08T14:23:43.000Z</time>
      </trkpt>
      <trkpt lat="45.80237" lon="1.91009">
        <ele>709.9</ele>
        <time>2026-07-08T14:23:44.000Z</time>
      </trkpt>
      <trkpt lat="45.80237" lon="1.91009">
        <ele>710.1</ele>
        <time>2026-07-08T14:23:45.000Z</time>
      </trkpt>
      <trkpt lat="45.80236" lon="1.9101">
        <ele>709.9</ele>
        <time>2026-07-08T14:23:46.000Z</time>
      </trkpt>
      <trkpt lat="45.80236" lon="1.9101">
        <ele>709.9</ele>
        <time>2026-07-08T14:23:47.000Z</time>
      </trkpt>
      <trkpt lat="45.80236" lon="1.9101">
        <ele>709.9</ele>
        <time>2026-07-08T14:23:48.000Z</time>
      </trkpt>
      <trkpt lat="45.80235" lon="1.9101">
        <ele>709.7</ele>
        <time>2026-07-08T14:23:49.000Z</time>
      </trkpt>
      <trkpt lat="45.80235" lon="1.91009">
        <ele>709.7</ele>
        <time>2026-07-08T14:23:50.000Z</time>
      </trkpt>
      <trkpt lat="45.80234" lon="1.91009">
        <ele>709</ele>
        <time>2026-07-08T14:23:51.000Z</time>
      </trkpt>
      <trkpt lat="45.80234" lon="1.91009">
        <ele>709.1</ele>
        <time>2026-07-08T14:23:52.000Z</time>
      </trkpt>
      <trkpt lat="45.80234" lon="1.91009">
        <ele>709.1</ele>
        <time>2026-07-08T14:23:53.000Z</time>
      </trkpt>
      <trkpt lat="45.80234" lon="1.91008">
        <ele>709.1</ele>
        <time>2026-07-08T14:23:54.000Z</time>
      </trkpt>
      <trkpt lat="45.80234" lon="1.91008">
        <ele>709.1</ele>
        <time>2026-07-08T14:23:55.000Z</time>
      </trkpt>
      <trkpt lat="45.80234" lon="1.91008">
        <ele>709.1</ele>
        <time>2026-07-08T14:23:56.000Z</time>
      </trkpt>
      <trkpt lat="45.80234" lon="1.91008">
        <ele>709</ele>
        <time>2026-07-08T14:23:57.000Z</time>
      </trkpt>
      <trkpt lat="45.80234" lon="1.91008">
        <ele>709</ele>
        <time>2026-07-08T14:23:58.000Z</time>
      </trkpt>
      <trkpt lat="45.80234" lon="1.91008">
        <ele>709</ele>
        <time>2026-07-08T14:23:59.000Z</time>
      </trkpt>
      <trkpt lat="45.80234" lon="1.91008">
        <ele>709</ele>
        <time>2026-07-08T14:24:00.000Z</time>
      </trkpt>
      <trkpt lat="45.80234" lon="1.91008">
        <ele>709</ele>
        <time>2026-07-08T14:24:01.000Z</time>
      </trkpt>
      <trkpt lat="45.80234" lon="1.91008">
        <ele>709.1</ele>
        <time>2026-07-08T14:24:02.000Z</time>
      </trkpt>
      <trkpt lat="45.80234" lon="1.91008">
        <ele>709.1</ele>
        <time>2026-07-08T14:24:03.000Z</time>
      </trkpt>
      <trkpt lat="45.80235" lon="1.91009">
        <ele>709.3</ele>
        <time>2026-07-08T14:24:04.000Z</time>
      </trkpt>
      <trkpt lat="45.80235" lon="1.91008">
        <ele>709.6</ele>
        <time>2026-07-08T14:24:05.000Z</time>
      </trkpt>
      <trkpt lat="45.80235" lon="1.91008">
        <ele>710.1</ele>
        <time>2026-07-08T14:24:06.000Z</time>
      </trkpt>
      <trkpt lat="45.80235" lon="1.91008">
        <ele>710.1</ele>
        <time>2026-07-08T14:24:07.000Z</time>
      </trkpt>
      <trkpt lat="45.80235" lon="1.91008">
        <ele>710.1</ele>
        <time>2026-07-08T14:24:08.000Z</time>
      </trkpt>
      <trkpt lat="45.80235" lon="1.91008">
        <ele>710.1</ele>
        <time>2026-07-08T14:24:09.000Z</time>
      </trkpt>
      <trkpt lat="45.80235" lon="1.91008">
        <ele>710.1</ele>
        <time>2026-07-08T14:24:10.000Z</time>
      </trkpt>
      <trkpt lat="45.80235" lon="1.91008">
        <ele>710.1</ele>
        <time>2026-07-08T14:24:11.000Z</time>
      </trkpt>
      <trkpt lat="45.80235" lon="1.91008">
        <ele>710.4</ele>
        <time>2026-07-08T14:24:12.000Z</time>
      </trkpt>
      <trkpt lat="45.80235" lon="1.91008">
        <ele>710.4</ele>
        <time>2026-07-08T14:24:13.000Z</time>
      </trkpt>
      <trkpt lat="45.80235" lon="1.91009">
        <ele>710.7</ele>
        <time>2026-07-08T14:24:14.000Z</time>
      </trkpt>
      <trkpt lat="45.80236" lon="1.91009">
        <ele>710.9</ele>
        <time>2026-07-08T14:24:15.000Z</time>
      </trkpt>
      <trkpt lat="45.80236" lon="1.91009">
        <ele>711.1</ele>
        <time>2026-07-08T14:24:16.000Z</time>
      </trkpt>
      <trkpt lat="45.80236" lon="1.91009">
        <ele>711.1</ele>
        <time>2026-07-08T14:24:17.000Z</time>
      </trkpt>
      <trkpt lat="45.80236" lon="1.91009">
        <ele>711.1</ele>
        <time>2026-07-08T14:24:18.000Z</time>
      </trkpt>
      <trkpt lat="45.80236" lon="1.91008">
        <ele>711</ele>
        <time>2026-07-08T14:24:19.000Z</time>
      </trkpt>
      <trkpt lat="45.80236" lon="1.91008">
        <ele>711</ele>
        <time>2026-07-08T14:24:20.000Z</time>
      </trkpt>
      <trkpt lat="45.80236" lon="1.91008">
        <ele>711</ele>
        <time>2026-07-08T14:24:21.000Z</time>
      </trkpt>
      <trkpt lat="45.80236" lon="1.91008">
        <ele>711</ele>
        <time>2026-07-08T14:24:22.000Z</time>
      </trkpt>
      <trkpt lat="45.80236" lon="1.91008">
        <ele>711</ele>
        <time>2026-07-08T14:24:23.000Z</time>
      </trkpt>
      <trkpt lat="45.80237" lon="1.91008">
        <ele>711.5</ele>
        <time>2026-07-08T14:24:24.000Z</time>
      </trkpt>
      <trkpt lat="45.80237" lon="1.91008">
        <ele>711.5</ele>
        <time>2026-07-08T14:24:25.000Z</time>
      </trkpt>
      <trkpt lat="45.80237" lon="1.91008">
        <ele>711.5</ele>
        <time>2026-07-08T14:24:26.000Z</time>
      </trkpt>
      <trkpt lat="45.80237" lon="1.91008">
        <ele>711.5</ele>
        <time>2026-07-08T14:24:27.000Z</time>
      </trkpt>
      <trkpt lat="45.80237" lon="1.91008">
        <ele>711.5</ele>
        <time>2026-07-08T14:24:28.000Z</time>
      </trkpt>
      <trkpt lat="45.80237" lon="1.91008">
        <ele>711.5</ele>
        <time>2026-07-08T14:24:29.000Z</time>
      </trkpt>
      <trkpt lat="45.80237" lon="1.91008">
        <ele>711.5</ele>
        <time>2026-07-08T14:24:30.000Z</time>
      </trkpt>
      <trkpt lat="45.80237" lon="1.91008">
        <ele>711.5</ele>
        <time>2026-07-08T14:24:31.000Z</time>
      </trkpt>
      <trkpt lat="45.80237" lon="1.91008">
        <ele>711.6</ele>
        <time>2026-07-08T14:24:32.000Z</time>
      </trkpt>
      <trkpt lat="45.80237" lon="1.91007">
        <ele>711.9</ele>
        <time>2026-07-08T14:24:33.000Z</time>
      </trkpt>
      <trkpt lat="45.80237" lon="1.91007">
        <ele>711.9</ele>
        <time>2026-07-08T14:24:34.000Z</time>
      </trkpt>
      <trkpt lat="45.80237" lon="1.91008">
        <ele>712.4</ele>
        <time>2026-07-08T14:24:35.000Z</time>
      </trkpt>
      <trkpt lat="45.80237" lon="1.91009">
        <ele>712.7</ele>
        <time>2026-07-08T14:24:36.000Z</time>
      </trkpt>
      <trkpt lat="45.80237" lon="1.91009">
        <ele>712.8</ele>
        <time>2026-07-08T14:24:37.000Z</time>
      </trkpt>
      <trkpt lat="45.80238" lon="1.91009">
        <ele>713</ele>
        <time>2026-07-08T14:24:38.000Z</time>
      </trkpt>
      <trkpt lat="45.80238" lon="1.91009">
        <ele>713</ele>
        <time>2026-07-08T14:24:39.000Z</time>
      </trkpt>
      <trkpt lat="45.80238" lon="1.91009">
        <ele>713</ele>
        <time>2026-07-08T14:24:40.000Z</time>
      </trkpt>
      <trkpt lat="45.80238" lon="1.91009">
        <ele>713</ele>
        <time>2026-07-08T14:24:41.000Z</time>
      </trkpt>
      <trkpt lat="45.80238" lon="1.91009">
        <ele>713</ele>
        <time>2026-07-08T14:24:42.000Z</time>
      </trkpt>
      <trkpt lat="45.80238" lon="1.91009">
        <ele>713</ele>
        <time>2026-07-08T14:24:43.000Z</time>
      </trkpt>
      <trkpt lat="45.80238" lon="1.91009">
        <ele>713</ele>
        <time>2026-07-08T14:24:44.000Z</time>
      </trkpt>
      <trkpt lat="45.80238" lon="1.91011">
        <ele>712.9</ele>
        <time>2026-07-08T14:24:45.000Z</time>
      </trkpt>
      <trkpt lat="45.80238" lon="1.91012">
        <ele>712.9</ele>
        <time>2026-07-08T14:24:46.000Z</time>
      </trkpt>
      <trkpt lat="45.80238" lon="1.91012">
        <ele>713.2</ele>
        <time>2026-07-08T14:24:47.000Z</time>
      </trkpt>
      <trkpt lat="45.80237" lon="1.91012">
        <ele>713.1</ele>
        <time>2026-07-08T14:24:48.000Z</time>
      </trkpt>
      <trkpt lat="45.80237" lon="1.91013">
        <ele>712.3</ele>
        <time>2026-07-08T14:24:49.000Z</time>
      </trkpt>
      <trkpt lat="45.80237" lon="1.91013">
        <ele>712.1</ele>
        <time>2026-07-08T14:24:50.000Z</time>
      </trkpt>
      <trkpt lat="45.80236" lon="1.91014">
        <ele>712.3</ele>
        <time>2026-07-08T14:24:51.000Z</time>
      </trkpt>
      <trkpt lat="45.80236" lon="1.91016">
        <ele>712.2</ele>
        <time>2026-07-08T14:24:52.000Z</time>
      </trkpt>
      <trkpt lat="45.80237" lon="1.91016">
        <ele>713</ele>
        <time>2026-07-08T14:24:53.000Z</time>
      </trkpt>
      <trkpt lat="45.80237" lon="1.91016">
        <ele>713.1</ele>
        <time>2026-07-08T14:24:54.000Z</time>
      </trkpt>
      <trkpt lat="45.80237" lon="1.91015">
        <ele>713.1</ele>
        <time>2026-07-08T14:24:55.000Z</time>
      </trkpt>
      <trkpt lat="45.80237" lon="1.91015">
        <ele>713.1</ele>
        <time>2026-07-08T14:24:56.000Z</time>
      </trkpt>
      <trkpt lat="45.80238" lon="1.91016">
        <ele>713.3</ele>
        <time>2026-07-08T14:24:57.000Z</time>
      </trkpt>
      <trkpt lat="45.80238" lon="1.91016">
        <ele>713.2</ele>
        <time>2026-07-08T14:24:58.000Z</time>
      </trkpt>
      <trkpt lat="45.80238" lon="1.91016">
        <ele>713.3</ele>
        <time>2026-07-08T14:24:59.000Z</time>
      </trkpt>
      <trkpt lat="45.80238" lon="1.91015">
        <ele>713.3</ele>
        <time>2026-07-08T14:25:00.000Z</time>
      </trkpt>
      <trkpt lat="45.80238" lon="1.91015">
        <ele>713.3</ele>
        <time>2026-07-08T14:25:01.000Z</time>
      </trkpt>
      <trkpt lat="45.80238" lon="1.91015">
        <ele>713.3</ele>
        <time>2026-07-08T14:25:02.000Z</time>
      </trkpt>
      <trkpt lat="45.80238" lon="1.91015">
        <ele>713.3</ele>
        <time>2026-07-08T14:25:03.000Z</time>
      </trkpt>
      <trkpt lat="45.80238" lon="1.91015">
        <ele>713.3</ele>
        <time>2026-07-08T14:25:04.000Z</time>
      </trkpt>
      <trkpt lat="45.80238" lon="1.91015">
        <ele>713.3</ele>
        <time>2026-07-08T14:25:05.000Z</time>
      </trkpt>
      <trkpt lat="45.80238" lon="1.91015">
        <ele>713.3</ele>
        <time>2026-07-08T14:25:06.000Z</time>
      </trkpt>
      <trkpt lat="45.80238" lon="1.91015">
        <ele>713.3</ele>
        <time>2026-07-08T14:25:07.000Z</time>
      </trkpt>
      <trkpt lat="45.80238" lon="1.91014">
        <ele>713.6</ele>
        <time>2026-07-08T14:25:08.000Z</time>
      </trkpt>
      <trkpt lat="45.80237" lon="1.91014">
        <ele>713.5</ele>
        <time>2026-07-08T14:25:09.000Z</time>
      </trkpt>
      <trkpt lat="45.80237" lon="1.91013">
        <ele>713.6</ele>
        <time>2026-07-08T14:25:10.000Z</time>
      </trkpt>
      <trkpt lat="45.80237" lon="1.91013">
        <ele>713.6</ele>
        <time>2026-07-08T14:25:11.000Z</time>
      </trkpt>
      <trkpt lat="45.80236" lon="1.91013">
        <ele>713.7</ele>
        <time>2026-07-08T14:25:12.000Z</time>
      </trkpt>
      <trkpt lat="45.80234" lon="1.91014">
        <ele>714.5</ele>
        <time>2026-07-08T14:25:13.000Z</time>
      </trkpt>
      <trkpt lat="45.80233" lon="1.91017">
        <ele>714.9</ele>
        <time>2026-07-08T14:25:14.000Z</time>
      </trkpt>
      <trkpt lat="45.80233" lon="1.91021">
        <ele>715</ele>
        <time>2026-07-08T14:25:15.000Z</time>
      </trkpt>
      <trkpt lat="45.80232" lon="1.91024">
        <ele>714.9</ele>
        <time>2026-07-08T14:25:16.000Z</time>
      </trkpt>
      <trkpt lat="45.80232" lon="1.91027">
        <ele>715</ele>
        <time>2026-07-08T14:25:17.000Z</time>
      </trkpt>
      <trkpt lat="45.80231" lon="1.91029">
        <ele>715.1</ele>
        <time>2026-07-08T14:25:18.000Z</time>
      </trkpt>
      <trkpt lat="45.80231" lon="1.91032">
        <ele>715.3</ele>
        <time>2026-07-08T14:25:19.000Z</time>
      </trkpt>
      <trkpt lat="45.80231" lon="1.91034">
        <ele>715.5</ele>
        <time>2026-07-08T14:25:20.000Z</time>
      </trkpt>
      <trkpt lat="45.8023" lon="1.91037">
        <ele>713</ele>
        <time>2026-07-08T14:25:21.000Z</time>
      </trkpt>
      <trkpt lat="45.8023" lon="1.9104">
        <ele>711.9</ele>
        <time>2026-07-08T14:25:22.000Z</time>
      </trkpt>
      <trkpt lat="45.80229" lon="1.91043">
        <ele>712</ele>
        <time>2026-07-08T14:25:23.000Z</time>
      </trkpt>
      <trkpt lat="45.80229" lon="1.91046">
        <ele>711</ele>
        <time>2026-07-08T14:25:24.000Z</time>
      </trkpt>
      <trkpt lat="45.80228" lon="1.91049">
        <ele>712.2</ele>
        <time>2026-07-08T14:25:25.000Z</time>
      </trkpt>
      <trkpt lat="45.80228" lon="1.91052">
        <ele>711.9</ele>
        <time>2026-07-08T14:25:26.000Z</time>
      </trkpt>
      <trkpt lat="45.80227" lon="1.91055">
        <ele>711.9</ele>
        <time>2026-07-08T14:25:27.000Z</time>
      </trkpt>
      <trkpt lat="45.80226" lon="1.91058">
        <ele>712</ele>
        <time>2026-07-08T14:25:28.000Z</time>
      </trkpt>
      <trkpt lat="45.80226" lon="1.91061">
        <ele>712.3</ele>
        <time>2026-07-08T14:25:29.000Z</time>
      </trkpt>
      <trkpt lat="45.80225" lon="1.91065">
        <ele>713.4</ele>
        <time>2026-07-08T14:25:30.000Z</time>
      </trkpt>
      <trkpt lat="45.80225" lon="1.91068">
        <ele>714</ele>
        <time>2026-07-08T14:25:31.000Z</time>
      </trkpt>
      <trkpt lat="45.80225" lon="1.91071">
        <ele>714.1</ele>
        <time>2026-07-08T14:25:32.000Z</time>
      </trkpt>
      <trkpt lat="45.80225" lon="1.91073">
        <ele>714.3</ele>
        <time>2026-07-08T14:25:33.000Z</time>
      </trkpt>
      <trkpt lat="45.80226" lon="1.91076">
        <ele>714.6</ele>
        <time>2026-07-08T14:25:34.000Z</time>
      </trkpt>
      <trkpt lat="45.80227" lon="1.91079">
        <ele>715.2</ele>
        <time>2026-07-08T14:25:35.000Z</time>
      </trkpt>
      <trkpt lat="45.80227" lon="1.91082">
        <ele>717</ele>
        <time>2026-07-08T14:25:36.000Z</time>
      </trkpt>
      <trkpt lat="45.80229" lon="1.91085">
        <ele>718.7</ele>
        <time>2026-07-08T14:25:37.000Z</time>
      </trkpt>
      <trkpt lat="45.80231" lon="1.91086">
        <ele>719.2</ele>
        <time>2026-07-08T14:25:38.000Z</time>
      </trkpt>
      <trkpt lat="45.80233" lon="1.91087">
        <ele>719.2</ele>
        <time>2026-07-08T14:25:39.000Z</time>
      </trkpt>
      <trkpt lat="45.80235" lon="1.91087">
        <ele>719.4</ele>
        <time>2026-07-08T14:25:40.000Z</time>
      </trkpt>
      <trkpt lat="45.80237" lon="1.91086">
        <ele>718.9</ele>
        <time>2026-07-08T14:25:41.000Z</time>
      </trkpt>
      <trkpt lat="45.80238" lon="1.91087">
        <ele>716</ele>
        <time>2026-07-08T14:25:42.000Z</time>
      </trkpt>
      <trkpt lat="45.80239" lon="1.91089">
        <ele>714.8</ele>
        <time>2026-07-08T14:25:43.000Z</time>
      </trkpt>
      <trkpt lat="45.8024" lon="1.9109">
        <ele>712.4</ele>
        <time>2026-07-08T14:25:44.000Z</time>
      </trkpt>
      <trkpt lat="45.80242" lon="1.91089">
        <ele>712.7</ele>
        <time>2026-07-08T14:25:45.000Z</time>
      </trkpt>
      <trkpt lat="45.80244" lon="1.91085">
        <ele>716.9</ele>
        <time>2026-07-08T14:25:46.000Z</time>
      </trkpt>
      <trkpt lat="45.80244" lon="1.91081">
        <ele>719.6</ele>
        <time>2026-07-08T14:25:47.000Z</time>
      </trkpt>
      <trkpt lat="45.80242" lon="1.91078">
        <ele>721.1</ele>
        <time>2026-07-08T14:25:48.000Z</time>
      </trkpt>
      <trkpt lat="45.80241" lon="1.91077">
        <ele>721.1</ele>
        <time>2026-07-08T14:25:49.000Z</time>
      </trkpt>
      <trkpt lat="45.80241" lon="1.91077">
        <ele>721.1</ele>
        <time>2026-07-08T14:25:50.000Z</time>
      </trkpt>
      <trkpt lat="45.80241" lon="1.91077">
        <ele>721.1</ele>
        <time>2026-07-08T14:25:51.000Z</time>
      </trkpt>
      <trkpt lat="45.80241" lon="1.91077">
        <ele>721.1</ele>
        <time>2026-07-08T14:25:52.000Z</time>
      </trkpt>
      <trkpt lat="45.80241" lon="1.91077">
        <ele>721.1</ele>
        <time>2026-07-08T14:25:53.000Z</time>
      </trkpt>
      <trkpt lat="45.80241" lon="1.91077">
        <ele>721.1</ele>
        <time>2026-07-08T14:25:54.000Z</time>
      </trkpt>
      <trkpt lat="45.80242" lon="1.91076">
        <ele>721.3</ele>
        <time>2026-07-08T14:25:55.000Z</time>
      </trkpt>
      <trkpt lat="45.80243" lon="1.91076">
        <ele>721.4</ele>
        <time>2026-07-08T14:25:56.000Z</time>
      </trkpt>
      <trkpt lat="45.80244" lon="1.91076">
        <ele>721.7</ele>
        <time>2026-07-08T14:25:57.000Z</time>
      </trkpt>
      <trkpt lat="45.80245" lon="1.91076">
        <ele>722.1</ele>
        <time>2026-07-08T14:25:58.000Z</time>
      </trkpt>
      <trkpt lat="45.80246" lon="1.91075">
        <ele>721.8</ele>
        <time>2026-07-08T14:25:59.000Z</time>
      </trkpt>
      <trkpt lat="45.80247" lon="1.91074">
        <ele>722.3</ele>
        <time>2026-07-08T14:26:00.000Z</time>
      </trkpt>
      <trkpt lat="45.80248" lon="1.91073">
        <ele>723.1</ele>
        <time>2026-07-08T14:26:01.000Z</time>
      </trkpt>
      <trkpt lat="45.8025" lon="1.91073">
        <ele>723.9</ele>
        <time>2026-07-08T14:26:02.000Z</time>
      </trkpt>
      <trkpt lat="45.80251" lon="1.91072">
        <ele>725</ele>
        <time>2026-07-08T14:26:03.000Z</time>
      </trkpt>
      <trkpt lat="45.80253" lon="1.91071">
        <ele>723.3</ele>
        <time>2026-07-08T14:26:04.000Z</time>
      </trkpt>
      <trkpt lat="45.80254" lon="1.9107">
        <ele>721.8</ele>
        <time>2026-07-08T14:26:05.000Z</time>
      </trkpt>
      <trkpt lat="45.80255" lon="1.91068">
        <ele>720.6</ele>
        <time>2026-07-08T14:26:06.000Z</time>
      </trkpt>
      <trkpt lat="45.80257" lon="1.91067">
        <ele>719.7</ele>
        <time>2026-07-08T14:26:07.000Z</time>
      </trkpt>
      <trkpt lat="45.80258" lon="1.91066">
        <ele>719.6</ele>
        <time>2026-07-08T14:26:08.000Z</time>
      </trkpt>
      <trkpt lat="45.8026" lon="1.91065">
        <ele>719.4</ele>
        <time>2026-07-08T14:26:09.000Z</time>
      </trkpt>
      <trkpt lat="45.80261" lon="1.91064">
        <ele>719.3</ele>
        <time>2026-07-08T14:26:10.000Z</time>
      </trkpt>
      <trkpt lat="45.80263" lon="1.91063">
        <ele>719.5</ele>
        <time>2026-07-08T14:26:11.000Z</time>
      </trkpt>
      <trkpt lat="45.80265" lon="1.9106">
        <ele>720.4</ele>
        <time>2026-07-08T14:26:12.000Z</time>
      </trkpt>
      <trkpt lat="45.80267" lon="1.91058">
        <ele>720.6</ele>
        <time>2026-07-08T14:26:13.000Z</time>
      </trkpt>
      <trkpt lat="45.80269" lon="1.91055">
        <ele>720.4</ele>
        <time>2026-07-08T14:26:14.000Z</time>
      </trkpt>
      <trkpt lat="45.80271" lon="1.91053">
        <ele>719.5</ele>
        <time>2026-07-08T14:26:15.000Z</time>
      </trkpt>
      <trkpt lat="45.80273" lon="1.91051">
        <ele>719.6</ele>
        <time>2026-07-08T14:26:16.000Z</time>
      </trkpt>
      <trkpt lat="45.80275" lon="1.9105">
        <ele>720</ele>
        <time>2026-07-08T14:26:17.000Z</time>
      </trkpt>
      <trkpt lat="45.80278" lon="1.91048">
        <ele>720.1</ele>
        <time>2026-07-08T14:26:18.000Z</time>
      </trkpt>
      <trkpt lat="45.8028" lon="1.91046">
        <ele>720.3</ele>
        <time>2026-07-08T14:26:19.000Z</time>
      </trkpt>
      <trkpt lat="45.80282" lon="1.91044">
        <ele>719.9</ele>
        <time>2026-07-08T14:26:20.000Z</time>
      </trkpt>
      <trkpt lat="45.80283" lon="1.91041">
        <ele>718.9</ele>
        <time>2026-07-08T14:26:21.000Z</time>
      </trkpt>
      <trkpt lat="45.80285" lon="1.91039">
        <ele>718.8</ele>
        <time>2026-07-08T14:26:22.000Z</time>
      </trkpt>
      <trkpt lat="45.80287" lon="1.91038">
        <ele>718.6</ele>
        <time>2026-07-08T14:26:23.000Z</time>
      </trkpt>
      <trkpt lat="45.80289" lon="1.91037">
        <ele>717.9</ele>
        <time>2026-07-08T14:26:24.000Z</time>
      </trkpt>
      <trkpt lat="45.80291" lon="1.91034">
        <ele>718.1</ele>
        <time>2026-07-08T14:26:25.000Z</time>
      </trkpt>
      <trkpt lat="45.80294" lon="1.91032">
        <ele>718.1</ele>
        <time>2026-07-08T14:26:26.000Z</time>
      </trkpt>
      <trkpt lat="45.80296" lon="1.9103">
        <ele>717.4</ele>
        <time>2026-07-08T14:26:27.000Z</time>
      </trkpt>
      <trkpt lat="45.80299" lon="1.91027">
        <ele>717.3</ele>
        <time>2026-07-08T14:26:28.000Z</time>
      </trkpt>
      <trkpt lat="45.80302" lon="1.91025">
        <ele>716.9</ele>
        <time>2026-07-08T14:26:29.000Z</time>
      </trkpt>
      <trkpt lat="45.80304" lon="1.91022">
        <ele>715.9</ele>
        <time>2026-07-08T14:26:30.000Z</time>
      </trkpt>
      <trkpt lat="45.80307" lon="1.9102">
        <ele>714.7</ele>
        <time>2026-07-08T14:26:31.000Z</time>
      </trkpt>
      <trkpt lat="45.80309" lon="1.91018">
        <ele>714.8</ele>
        <time>2026-07-08T14:26:32.000Z</time>
      </trkpt>
      <trkpt lat="45.8031" lon="1.91018">
        <ele>713.5</ele>
        <time>2026-07-08T14:26:33.000Z</time>
      </trkpt>
      <trkpt lat="45.80312" lon="1.91016">
        <ele>712.5</ele>
        <time>2026-07-08T14:26:34.000Z</time>
      </trkpt>
      <trkpt lat="45.80315" lon="1.91015">
        <ele>712.2</ele>
        <time>2026-07-08T14:26:35.000Z</time>
      </trkpt>
      <trkpt lat="45.80317" lon="1.91013">
        <ele>712</ele>
        <time>2026-07-08T14:26:36.000Z</time>
      </trkpt>
      <trkpt lat="45.8032" lon="1.91012">
        <ele>711.7</ele>
        <time>2026-07-08T14:26:37.000Z</time>
      </trkpt>
      <trkpt lat="45.80322" lon="1.91012">
        <ele>711.4</ele>
        <time>2026-07-08T14:26:38.000Z</time>
      </trkpt>
      <trkpt lat="45.80325" lon="1.91011">
        <ele>710.5</ele>
        <time>2026-07-08T14:26:39.000Z</time>
      </trkpt>
      <trkpt lat="45.80327" lon="1.9101">
        <ele>710</ele>
        <time>2026-07-08T14:26:40.000Z</time>
      </trkpt>
      <trkpt lat="45.80326" lon="1.91008">
        <ele>710</ele>
        <time>2026-07-08T14:26:41.000Z</time>
      </trkpt>
      <trkpt lat="45.80327" lon="1.91006">
        <ele>709.2</ele>
        <time>2026-07-08T14:26:42.000Z</time>
      </trkpt>
      <trkpt lat="45.80329" lon="1.91004">
        <ele>709.3</ele>
        <time>2026-07-08T14:26:43.000Z</time>
      </trkpt>
      <trkpt lat="45.80332" lon="1.91002">
        <ele>709.7</ele>
        <time>2026-07-08T14:26:44.000Z</time>
      </trkpt>
      <trkpt lat="45.80333" lon="1.91001">
        <ele>708.9</ele>
        <time>2026-07-08T14:26:45.000Z</time>
      </trkpt>
      <trkpt lat="45.80334" lon="1.91">
        <ele>709.2</ele>
        <time>2026-07-08T14:26:46.000Z</time>
      </trkpt>
      <trkpt lat="45.80334" lon="1.90998">
        <ele>714.4</ele>
        <time>2026-07-08T14:26:47.000Z</time>
      </trkpt>
      <trkpt lat="45.80335" lon="1.90997">
        <ele>715.4</ele>
        <time>2026-07-08T14:26:48.000Z</time>
      </trkpt>
      <trkpt lat="45.80335" lon="1.90997">
        <ele>716.7</ele>
        <time>2026-07-08T14:26:49.000Z</time>
      </trkpt>
      <trkpt lat="45.80335" lon="1.90997">
        <ele>717</ele>
        <time>2026-07-08T14:26:50.000Z</time>
      </trkpt>
      <trkpt lat="45.80336" lon="1.90997">
        <ele>717</ele>
        <time>2026-07-08T14:26:51.000Z</time>
      </trkpt>
      <trkpt lat="45.80336" lon="1.90997">
        <ele>717</ele>
        <time>2026-07-08T14:26:52.000Z</time>
      </trkpt>
      <trkpt lat="45.80336" lon="1.90997">
        <ele>717</ele>
        <time>2026-07-08T14:26:53.000Z</time>
      </trkpt>
      <trkpt lat="45.80336" lon="1.90997">
        <ele>717.1</ele>
        <time>2026-07-08T14:26:54.000Z</time>
      </trkpt>
      <trkpt lat="45.80336" lon="1.90997">
        <ele>717.6</ele>
        <time>2026-07-08T14:26:55.000Z</time>
      </trkpt>
      <trkpt lat="45.80335" lon="1.90997">
        <ele>718.6</ele>
        <time>2026-07-08T14:26:56.000Z</time>
      </trkpt>
      <trkpt lat="45.80335" lon="1.90998">
        <ele>719.8</ele>
        <time>2026-07-08T14:26:57.000Z</time>
      </trkpt>
      <trkpt lat="45.80334" lon="1.90998">
        <ele>720.2</ele>
        <time>2026-07-08T14:26:58.000Z</time>
      </trkpt>
      <trkpt lat="45.80334" lon="1.90997">
        <ele>720.2</ele>
        <time>2026-07-08T14:26:59.000Z</time>
      </trkpt>
      <trkpt lat="45.80334" lon="1.90997">
        <ele>720.3</ele>
        <time>2026-07-08T14:27:00.000Z</time>
      </trkpt>
      <trkpt lat="45.80334" lon="1.90997">
        <ele>720.3</ele>
        <time>2026-07-08T14:27:01.000Z</time>
      </trkpt>
      <trkpt lat="45.80334" lon="1.90997">
        <ele>720.3</ele>
        <time>2026-07-08T14:27:02.000Z</time>
      </trkpt>
      <trkpt lat="45.80334" lon="1.90997">
        <ele>720.3</ele>
        <time>2026-07-08T14:27:03.000Z</time>
      </trkpt>
      <trkpt lat="45.80334" lon="1.90997">
        <ele>720.3</ele>
        <time>2026-07-08T14:27:04.000Z</time>
      </trkpt>
      <trkpt lat="45.80334" lon="1.90997">
        <ele>720.3</ele>
        <time>2026-07-08T14:27:05.000Z</time>
      </trkpt>
      <trkpt lat="45.80334" lon="1.90997">
        <ele>720.2</ele>
        <time>2026-07-08T14:27:06.000Z</time>
      </trkpt>
      <trkpt lat="45.80335" lon="1.90997">
        <ele>719.9</ele>
        <time>2026-07-08T14:27:07.000Z</time>
      </trkpt>
      <trkpt lat="45.80335" lon="1.90997">
        <ele>719.9</ele>
        <time>2026-07-08T14:27:08.000Z</time>
      </trkpt>
      <trkpt lat="45.80335" lon="1.90997">
        <ele>719.9</ele>
        <time>2026-07-08T14:27:09.000Z</time>
      </trkpt>
      <trkpt lat="45.80337" lon="1.90996">
        <ele>719.8</ele>
        <time>2026-07-08T14:27:10.000Z</time>
      </trkpt>
      <trkpt lat="45.80338" lon="1.90995">
        <ele>719.9</ele>
        <time>2026-07-08T14:27:11.000Z</time>
      </trkpt>
      <trkpt lat="45.80339" lon="1.90995">
        <ele>720.7</ele>
        <time>2026-07-08T14:27:12.000Z</time>
      </trkpt>
      <trkpt lat="45.80339" lon="1.90997">
        <ele>719.2</ele>
        <time>2026-07-08T14:27:13.000Z</time>
      </trkpt>
      <trkpt lat="45.80338" lon="1.90998">
        <ele>719.2</ele>
        <time>2026-07-08T14:27:14.000Z</time>
      </trkpt>
      <trkpt lat="45.80337" lon="1.90998">
        <ele>719.3</ele>
        <time>2026-07-08T14:27:15.000Z</time>
      </trkpt>
      <trkpt lat="45.80335" lon="1.90997">
        <ele>718.9</ele>
        <time>2026-07-08T14:27:16.000Z</time>
      </trkpt>
      <trkpt lat="45.80333" lon="1.90996">
        <ele>718.5</ele>
        <time>2026-07-08T14:27:17.000Z</time>
      </trkpt>
      <trkpt lat="45.80331" lon="1.90993">
        <ele>718.2</ele>
        <time>2026-07-08T14:27:18.000Z</time>
      </trkpt>
      <trkpt lat="45.80331" lon="1.90991">
        <ele>718.5</ele>
        <time>2026-07-08T14:27:19.000Z</time>
      </trkpt>
      <trkpt lat="45.80331" lon="1.90988">
        <ele>717.7</ele>
        <time>2026-07-08T14:27:20.000Z</time>
      </trkpt>
      <trkpt lat="45.80332" lon="1.90985">
        <ele>719.4</ele>
        <time>2026-07-08T14:27:21.000Z</time>
      </trkpt>
      <trkpt lat="45.80332" lon="1.90982">
        <ele>719.1</ele>
        <time>2026-07-08T14:27:22.000Z</time>
      </trkpt>
      <trkpt lat="45.80333" lon="1.9098">
        <ele>718.1</ele>
        <time>2026-07-08T14:27:23.000Z</time>
      </trkpt>
      <trkpt lat="45.80333" lon="1.90978">
        <ele>717.9</ele>
        <time>2026-07-08T14:27:24.000Z</time>
      </trkpt>
      <trkpt lat="45.80332" lon="1.90975">
        <ele>717.6</ele>
        <time>2026-07-08T14:27:25.000Z</time>
      </trkpt>
      <trkpt lat="45.80332" lon="1.90972">
        <ele>718.5</ele>
        <time>2026-07-08T14:27:26.000Z</time>
      </trkpt>
      <trkpt lat="45.80333" lon="1.9097">
        <ele>718.7</ele>
        <time>2026-07-08T14:27:27.000Z</time>
      </trkpt>
      <trkpt lat="45.80332" lon="1.90967">
        <ele>718.5</ele>
        <time>2026-07-08T14:27:28.000Z</time>
      </trkpt>
      <trkpt lat="45.80332" lon="1.90965">
        <ele>717.9</ele>
        <time>2026-07-08T14:27:29.000Z</time>
      </trkpt>
      <trkpt lat="45.80333" lon="1.90964">
        <ele>716.2</ele>
        <time>2026-07-08T14:27:30.000Z</time>
      </trkpt>
      <trkpt lat="45.80333" lon="1.90962">
        <ele>716.1</ele>
        <time>2026-07-08T14:27:31.000Z</time>
      </trkpt>
      <trkpt lat="45.80333" lon="1.9096">
        <ele>715.7</ele>
        <time>2026-07-08T14:27:32.000Z</time>
      </trkpt>
      <trkpt lat="45.80333" lon="1.90959">
        <ele>715.5</ele>
        <time>2026-07-08T14:27:33.000Z</time>
      </trkpt>
      <trkpt lat="45.80333" lon="1.90957">
        <ele>716.2</ele>
        <time>2026-07-08T14:27:34.000Z</time>
      </trkpt>
      <trkpt lat="45.80334" lon="1.90955">
        <ele>716.6</ele>
        <time>2026-07-08T14:27:35.000Z</time>
      </trkpt>
      <trkpt lat="45.80335" lon="1.90953">
        <ele>715.4</ele>
        <time>2026-07-08T14:27:36.000Z</time>
      </trkpt>
      <trkpt lat="45.80335" lon="1.90951">
        <ele>714.1</ele>
        <time>2026-07-08T14:27:37.000Z</time>
      </trkpt>
      <trkpt lat="45.80335" lon="1.90948">
        <ele>713.2</ele>
        <time>2026-07-08T14:27:38.000Z</time>
      </trkpt>
      <trkpt lat="45.80335" lon="1.90946">
        <ele>712.4</ele>
        <time>2026-07-08T14:27:39.000Z</time>
      </trkpt>
      <trkpt lat="45.80335" lon="1.90944">
        <ele>712.3</ele>
        <time>2026-07-08T14:27:40.000Z</time>
      </trkpt>
      <trkpt lat="45.80336" lon="1.90942">
        <ele>711.5</ele>
        <time>2026-07-08T14:27:41.000Z</time>
      </trkpt>
      <trkpt lat="45.80336" lon="1.9094">
        <ele>711.9</ele>
        <time>2026-07-08T14:27:42.000Z</time>
      </trkpt>
      <trkpt lat="45.80336" lon="1.90938">
        <ele>712.1</ele>
        <time>2026-07-08T14:27:43.000Z</time>
      </trkpt>
      <trkpt lat="45.80337" lon="1.90936">
        <ele>712.2</ele>
        <time>2026-07-08T14:27:44.000Z</time>
      </trkpt>
      <trkpt lat="45.80337" lon="1.90933">
        <ele>711.8</ele>
        <time>2026-07-08T14:27:45.000Z</time>
      </trkpt>
      <trkpt lat="45.80337" lon="1.9093">
        <ele>712.5</ele>
        <time>2026-07-08T14:27:46.000Z</time>
      </trkpt>
      <trkpt lat="45.80338" lon="1.90928">
        <ele>712.3</ele>
        <time>2026-07-08T14:27:47.000Z</time>
      </trkpt>
      <trkpt lat="45.80339" lon="1.90926">
        <ele>712.3</ele>
        <time>2026-07-08T14:27:48.000Z</time>
      </trkpt>
      <trkpt lat="45.80339" lon="1.90925">
        <ele>711.2</ele>
        <time>2026-07-08T14:27:49.000Z</time>
      </trkpt>
      <trkpt lat="45.8034" lon="1.90923">
        <ele>710.5</ele>
        <time>2026-07-08T14:27:50.000Z</time>
      </trkpt>
      <trkpt lat="45.8034" lon="1.90921">
        <ele>708.9</ele>
        <time>2026-07-08T14:27:51.000Z</time>
      </trkpt>
      <trkpt lat="45.80339" lon="1.90918">
        <ele>709</ele>
        <time>2026-07-08T14:27:52.000Z</time>
      </trkpt>
      <trkpt lat="45.80339" lon="1.90915">
        <ele>709</ele>
        <time>2026-07-08T14:27:53.000Z</time>
      </trkpt>
      <trkpt lat="45.80339" lon="1.90913">
        <ele>709.5</ele>
        <time>2026-07-08T14:27:54.000Z</time>
      </trkpt>
      <trkpt lat="45.8034" lon="1.90911">
        <ele>708.8</ele>
        <time>2026-07-08T14:27:55.000Z</time>
      </trkpt>
      <trkpt lat="45.8034" lon="1.90909">
        <ele>708.4</ele>
        <time>2026-07-08T14:27:56.000Z</time>
      </trkpt>
      <trkpt lat="45.80341" lon="1.90906">
        <ele>707.2</ele>
        <time>2026-07-08T14:27:57.000Z</time>
      </trkpt>
      <trkpt lat="45.80341" lon="1.90903">
        <ele>706</ele>
        <time>2026-07-08T14:27:58.000Z</time>
      </trkpt>
      <trkpt lat="45.80341" lon="1.90899">
        <ele>706.9</ele>
        <time>2026-07-08T14:27:59.000Z</time>
      </trkpt>
      <trkpt lat="45.80341" lon="1.90896">
        <ele>706.8</ele>
        <time>2026-07-08T14:28:00.000Z</time>
      </trkpt>
      <trkpt lat="45.80341" lon="1.90895">
        <ele>706.1</ele>
        <time>2026-07-08T14:28:01.000Z</time>
      </trkpt>
      <trkpt lat="45.80342" lon="1.90895">
        <ele>705.6</ele>
        <time>2026-07-08T14:28:02.000Z</time>
      </trkpt>
      <trkpt lat="45.80343" lon="1.90895">
        <ele>704.5</ele>
        <time>2026-07-08T14:28:03.000Z</time>
      </trkpt>
      <trkpt lat="45.80342" lon="1.90893">
        <ele>705.2</ele>
        <time>2026-07-08T14:28:04.000Z</time>
      </trkpt>
      <trkpt lat="45.80342" lon="1.9089">
        <ele>708.9</ele>
        <time>2026-07-08T14:28:05.000Z</time>
      </trkpt>
      <trkpt lat="45.80343" lon="1.9089">
        <ele>707.2</ele>
        <time>2026-07-08T14:28:06.000Z</time>
      </trkpt>
      <trkpt lat="45.80343" lon="1.90891">
        <ele>706.7</ele>
        <time>2026-07-08T14:28:07.000Z</time>
      </trkpt>
      <trkpt lat="45.80343" lon="1.90891">
        <ele>706.6</ele>
        <time>2026-07-08T14:28:08.000Z</time>
      </trkpt>
      <trkpt lat="45.80344" lon="1.90892">
        <ele>707.2</ele>
        <time>2026-07-08T14:28:09.000Z</time>
      </trkpt>
      <trkpt lat="45.80344" lon="1.9089">
        <ele>708.3</ele>
        <time>2026-07-08T14:28:10.000Z</time>
      </trkpt>
      <trkpt lat="45.80344" lon="1.90889">
        <ele>708.5</ele>
        <time>2026-07-08T14:28:11.000Z</time>
      </trkpt>
      <trkpt lat="45.80343" lon="1.90887">
        <ele>709.9</ele>
        <time>2026-07-08T14:28:12.000Z</time>
      </trkpt>
      <trkpt lat="45.80342" lon="1.90886">
        <ele>711.7</ele>
        <time>2026-07-08T14:28:13.000Z</time>
      </trkpt>
      <trkpt lat="45.80342" lon="1.90883">
        <ele>711.7</ele>
        <time>2026-07-08T14:28:14.000Z</time>
      </trkpt>
      <trkpt lat="45.80342" lon="1.90883">
        <ele>711.7</ele>
        <time>2026-07-08T14:28:15.000Z</time>
      </trkpt>
      <trkpt lat="45.80342" lon="1.90882">
        <ele>711.7</ele>
        <time>2026-07-08T14:28:16.000Z</time>
      </trkpt>
      <trkpt lat="45.80342" lon="1.90882">
        <ele>711.7</ele>
        <time>2026-07-08T14:28:17.000Z</time>
      </trkpt>
      <trkpt lat="45.80342" lon="1.90882">
        <ele>710.9</ele>
        <time>2026-07-08T14:28:18.000Z</time>
      </trkpt>
      <trkpt lat="45.80343" lon="1.9088">
        <ele>710.2</ele>
        <time>2026-07-08T14:28:19.000Z</time>
      </trkpt>
      <trkpt lat="45.80344" lon="1.90879">
        <ele>709.7</ele>
        <time>2026-07-08T14:28:20.000Z</time>
      </trkpt>
      <trkpt lat="45.80346" lon="1.90877">
        <ele>709.8</ele>
        <time>2026-07-08T14:28:21.000Z</time>
      </trkpt>
      <trkpt lat="45.80346" lon="1.90875">
        <ele>710.2</ele>
        <time>2026-07-08T14:28:22.000Z</time>
      </trkpt>
      <trkpt lat="45.80347" lon="1.90873">
        <ele>710.1</ele>
        <time>2026-07-08T14:28:23.000Z</time>
      </trkpt>
      <trkpt lat="45.80348" lon="1.90871">
        <ele>710.3</ele>
        <time>2026-07-08T14:28:24.000Z</time>
      </trkpt>
      <trkpt lat="45.80349" lon="1.9087">
        <ele>710.1</ele>
        <time>2026-07-08T14:28:25.000Z</time>
      </trkpt>
      <trkpt lat="45.8035" lon="1.90869">
        <ele>709.6</ele>
        <time>2026-07-08T14:28:26.000Z</time>
      </trkpt>
      <trkpt lat="45.80351" lon="1.90868">
        <ele>709.3</ele>
        <time>2026-07-08T14:28:27.000Z</time>
      </trkpt>
      <trkpt lat="45.80352" lon="1.90867">
        <ele>708.8</ele>
        <time>2026-07-08T14:28:28.000Z</time>
      </trkpt>
      <trkpt lat="45.80353" lon="1.90866">
        <ele>708.7</ele>
        <time>2026-07-08T14:28:29.000Z</time>
      </trkpt>
      <trkpt lat="45.80354" lon="1.90865">
        <ele>708.5</ele>
        <time>2026-07-08T14:28:30.000Z</time>
      </trkpt>
      <trkpt lat="45.80356" lon="1.90864">
        <ele>708.4</ele>
        <time>2026-07-08T14:28:31.000Z</time>
      </trkpt>
      <trkpt lat="45.80357" lon="1.90863">
        <ele>708</ele>
        <time>2026-07-08T14:28:32.000Z</time>
      </trkpt>
      <trkpt lat="45.80358" lon="1.90862">
        <ele>707.7</ele>
        <time>2026-07-08T14:28:33.000Z</time>
      </trkpt>
      <trkpt lat="45.80359" lon="1.9086">
        <ele>706.8</ele>
        <time>2026-07-08T14:28:34.000Z</time>
      </trkpt>
      <trkpt lat="45.8036" lon="1.90858">
        <ele>706.1</ele>
        <time>2026-07-08T14:28:35.000Z</time>
      </trkpt>
      <trkpt lat="45.80362" lon="1.90857">
        <ele>705.7</ele>
        <time>2026-07-08T14:28:36.000Z</time>
      </trkpt>
      <trkpt lat="45.80363" lon="1.90856">
        <ele>705.5</ele>
        <time>2026-07-08T14:28:37.000Z</time>
      </trkpt>
      <trkpt lat="45.80365" lon="1.90856">
        <ele>705.5</ele>
        <time>2026-07-08T14:28:38.000Z</time>
      </trkpt>
      <trkpt lat="45.80366" lon="1.90855">
        <ele>705.5</ele>
        <time>2026-07-08T14:28:39.000Z</time>
      </trkpt>
      <trkpt lat="45.80368" lon="1.90854">
        <ele>705.6</ele>
        <time>2026-07-08T14:28:40.000Z</time>
      </trkpt>
      <trkpt lat="45.80368" lon="1.90854">
        <ele>704.9</ele>
        <time>2026-07-08T14:28:41.000Z</time>
      </trkpt>
      <trkpt lat="45.80369" lon="1.90854">
        <ele>705.2</ele>
        <time>2026-07-08T14:28:42.000Z</time>
      </trkpt>
      <trkpt lat="45.8037" lon="1.90855">
        <ele>704.5</ele>
        <time>2026-07-08T14:28:43.000Z</time>
      </trkpt>
      <trkpt lat="45.80371" lon="1.90855">
        <ele>705.1</ele>
        <time>2026-07-08T14:28:44.000Z</time>
      </trkpt>
      <trkpt lat="45.80372" lon="1.90854">
        <ele>705</ele>
        <time>2026-07-08T14:28:45.000Z</time>
      </trkpt>
      <trkpt lat="45.80374" lon="1.90853">
        <ele>704.6</ele>
        <time>2026-07-08T14:28:46.000Z</time>
      </trkpt>
      <trkpt lat="45.80375" lon="1.90853">
        <ele>703.8</ele>
        <time>2026-07-08T14:28:47.000Z</time>
      </trkpt>
      <trkpt lat="45.80377" lon="1.90853">
        <ele>704.1</ele>
        <time>2026-07-08T14:28:48.000Z</time>
      </trkpt>
      <trkpt lat="45.80379" lon="1.90853">
        <ele>704.3</ele>
        <time>2026-07-08T14:28:49.000Z</time>
      </trkpt>
      <trkpt lat="45.80381" lon="1.90853">
        <ele>705.2</ele>
        <time>2026-07-08T14:28:50.000Z</time>
      </trkpt>
      <trkpt lat="45.80382" lon="1.90852">
        <ele>704.8</ele>
        <time>2026-07-08T14:28:51.000Z</time>
      </trkpt>
      <trkpt lat="45.80384" lon="1.90852">
        <ele>704.5</ele>
        <time>2026-07-08T14:28:52.000Z</time>
      </trkpt>
      <trkpt lat="45.80385" lon="1.90851">
        <ele>705.7</ele>
        <time>2026-07-08T14:28:53.000Z</time>
      </trkpt>
      <trkpt lat="45.80386" lon="1.9085">
        <ele>705</ele>
        <time>2026-07-08T14:28:54.000Z</time>
      </trkpt>
      <trkpt lat="45.80387" lon="1.90849">
        <ele>704.7</ele>
        <time>2026-07-08T14:28:55.000Z</time>
      </trkpt>
      <trkpt lat="45.80388" lon="1.90849">
        <ele>704.7</ele>
        <time>2026-07-08T14:28:56.000Z</time>
      </trkpt>
      <trkpt lat="45.8039" lon="1.90848">
        <ele>703.4</ele>
        <time>2026-07-08T14:28:57.000Z</time>
      </trkpt>
      <trkpt lat="45.80392" lon="1.90848">
        <ele>703</ele>
        <time>2026-07-08T14:28:58.000Z</time>
      </trkpt>
      <trkpt lat="45.80394" lon="1.90847">
        <ele>702.6</ele>
        <time>2026-07-08T14:28:59.000Z</time>
      </trkpt>
      <trkpt lat="45.80396" lon="1.90845">
        <ele>702.7</ele>
        <time>2026-07-08T14:29:00.000Z</time>
      </trkpt>
      <trkpt lat="45.80397" lon="1.90844">
        <ele>702.7</ele>
        <time>2026-07-08T14:29:01.000Z</time>
      </trkpt>
      <trkpt lat="45.80399" lon="1.90843">
        <ele>702.7</ele>
        <time>2026-07-08T14:29:02.000Z</time>
      </trkpt>
      <trkpt lat="45.80401" lon="1.90841">
        <ele>702.5</ele>
        <time>2026-07-08T14:29:03.000Z</time>
      </trkpt>
      <trkpt lat="45.80402" lon="1.9084">
        <ele>702.6</ele>
        <time>2026-07-08T14:29:04.000Z</time>
      </trkpt>
      <trkpt lat="45.80403" lon="1.90838">
        <ele>702.8</ele>
        <time>2026-07-08T14:29:05.000Z</time>
      </trkpt>
      <trkpt lat="45.80404" lon="1.90837">
        <ele>702.5</ele>
        <time>2026-07-08T14:29:06.000Z</time>
      </trkpt>
      <trkpt lat="45.80404" lon="1.90835">
        <ele>702.2</ele>
        <time>2026-07-08T14:29:07.000Z</time>
      </trkpt>
      <trkpt lat="45.80404" lon="1.90834">
        <ele>702.4</ele>
        <time>2026-07-08T14:29:08.000Z</time>
      </trkpt>
      <trkpt lat="45.80404" lon="1.90832">
        <ele>703</ele>
        <time>2026-07-08T14:29:09.000Z</time>
      </trkpt>
      <trkpt lat="45.80405" lon="1.90831">
        <ele>703.4</ele>
        <time>2026-07-08T14:29:10.000Z</time>
      </trkpt>
      <trkpt lat="45.80405" lon="1.90831">
        <ele>703.8</ele>
        <time>2026-07-08T14:29:11.000Z</time>
      </trkpt>
      <trkpt lat="45.80405" lon="1.90831">
        <ele>703.8</ele>
        <time>2026-07-08T14:29:12.000Z</time>
      </trkpt>
      <trkpt lat="45.80404" lon="1.90832">
        <ele>703.9</ele>
        <time>2026-07-08T14:29:13.000Z</time>
      </trkpt>
      <trkpt lat="45.80403" lon="1.90832">
        <ele>703.4</ele>
        <time>2026-07-08T14:29:14.000Z</time>
      </trkpt>
      <trkpt lat="45.80403" lon="1.90832">
        <ele>703.4</ele>
        <time>2026-07-08T14:29:15.000Z</time>
      </trkpt>
      <trkpt lat="45.80403" lon="1.90832">
        <ele>703.4</ele>
        <time>2026-07-08T14:29:16.000Z</time>
      </trkpt>
      <trkpt lat="45.80403" lon="1.90832">
        <ele>703.4</ele>
        <time>2026-07-08T14:29:17.000Z</time>
      </trkpt>
      <trkpt lat="45.80403" lon="1.90832">
        <ele>703.4</ele>
        <time>2026-07-08T14:29:18.000Z</time>
      </trkpt>
      <trkpt lat="45.80403" lon="1.90832">
        <ele>703.4</ele>
        <time>2026-07-08T14:29:19.000Z</time>
      </trkpt>
      <trkpt lat="45.80403" lon="1.90832">
        <ele>703.5</ele>
        <time>2026-07-08T14:29:20.000Z</time>
      </trkpt>
      <trkpt lat="45.80403" lon="1.90831">
        <ele>703.2</ele>
        <time>2026-07-08T14:29:21.000Z</time>
      </trkpt>
      <trkpt lat="45.80402" lon="1.90831">
        <ele>703</ele>
        <time>2026-07-08T14:29:22.000Z</time>
      </trkpt>
      <trkpt lat="45.80401" lon="1.90831">
        <ele>703</ele>
        <time>2026-07-08T14:29:23.000Z</time>
      </trkpt>
      <trkpt lat="45.804" lon="1.90832">
        <ele>703.4</ele>
        <time>2026-07-08T14:29:24.000Z</time>
      </trkpt>
      <trkpt lat="45.804" lon="1.90832">
        <ele>703.2</ele>
        <time>2026-07-08T14:29:25.000Z</time>
      </trkpt>
      <trkpt lat="45.80399" lon="1.90832">
        <ele>703.2</ele>
        <time>2026-07-08T14:29:26.000Z</time>
      </trkpt>
      <trkpt lat="45.80399" lon="1.90831">
        <ele>702.8</ele>
        <time>2026-07-08T14:29:27.000Z</time>
      </trkpt>
      <trkpt lat="45.80398" lon="1.9083">
        <ele>702.7</ele>
        <time>2026-07-08T14:29:28.000Z</time>
      </trkpt>
      <trkpt lat="45.80397" lon="1.90829">
        <ele>702.4</ele>
        <time>2026-07-08T14:29:29.000Z</time>
      </trkpt>
      <trkpt lat="45.80396" lon="1.90829">
        <ele>702.3</ele>
        <time>2026-07-08T14:29:30.000Z</time>
      </trkpt>
      <trkpt lat="45.80396" lon="1.90829">
        <ele>702.2</ele>
        <time>2026-07-08T14:29:31.000Z</time>
      </trkpt>
      <trkpt lat="45.80396" lon="1.90829">
        <ele>702.1</ele>
        <time>2026-07-08T14:29:32.000Z</time>
      </trkpt>
      <trkpt lat="45.80396" lon="1.90829">
        <ele>702.1</ele>
        <time>2026-07-08T14:29:33.000Z</time>
      </trkpt>
      <trkpt lat="45.80396" lon="1.90829">
        <ele>702.1</ele>
        <time>2026-07-08T14:29:34.000Z</time>
      </trkpt>
      <trkpt lat="45.80396" lon="1.90829">
        <ele>702.1</ele>
        <time>2026-07-08T14:29:35.000Z</time>
      </trkpt>
      <trkpt lat="45.80396" lon="1.90829">
        <ele>702.1</ele>
        <time>2026-07-08T14:29:36.000Z</time>
      </trkpt>
      <trkpt lat="45.80396" lon="1.90829">
        <ele>702.1</ele>
        <time>2026-07-08T14:29:37.000Z</time>
      </trkpt>
      <trkpt lat="45.80396" lon="1.90829">
        <ele>702.1</ele>
        <time>2026-07-08T14:29:38.000Z</time>
      </trkpt>
      <trkpt lat="45.80396" lon="1.90829">
        <ele>702.1</ele>
        <time>2026-07-08T14:29:39.000Z</time>
      </trkpt>
      <trkpt lat="45.80396" lon="1.90829">
        <ele>702.1</ele>
        <time>2026-07-08T14:29:40.000Z</time>
      </trkpt>
      <trkpt lat="45.80396" lon="1.90829">
        <ele>702.1</ele>
        <time>2026-07-08T14:29:41.000Z</time>
      </trkpt>
      <trkpt lat="45.80396" lon="1.90829">
        <ele>702.1</ele>
        <time>2026-07-08T14:29:42.000Z</time>
      </trkpt>
      <trkpt lat="45.80396" lon="1.90829">
        <ele>702.1</ele>
        <time>2026-07-08T14:29:43.000Z</time>
      </trkpt>
      <trkpt lat="45.80396" lon="1.90829">
        <ele>702.1</ele>
        <time>2026-07-08T14:29:44.000Z</time>
      </trkpt>
      <trkpt lat="45.80396" lon="1.90829">
        <ele>702.1</ele>
        <time>2026-07-08T14:29:45.000Z</time>
      </trkpt>
      <trkpt lat="45.80396" lon="1.90829">
        <ele>702.1</ele>
        <time>2026-07-08T14:29:46.000Z</time>
      </trkpt>
      <trkpt lat="45.80396" lon="1.90829">
        <ele>702.1</ele>
        <time>2026-07-08T14:29:47.000Z</time>
      </trkpt>
      <trkpt lat="45.80396" lon="1.90829">
        <ele>702.1</ele>
        <time>2026-07-08T14:29:48.000Z</time>
      </trkpt>
      <trkpt lat="45.80396" lon="1.90829">
        <ele>702.1</ele>
        <time>2026-07-08T14:29:49.000Z</time>
      </trkpt>
      <trkpt lat="45.80396" lon="1.90829">
        <ele>702.1</ele>
        <time>2026-07-08T14:29:50.000Z</time>
      </trkpt>
      <trkpt lat="45.80396" lon="1.90829">
        <ele>702.1</ele>
        <time>2026-07-08T14:29:51.000Z</time>
      </trkpt>
      <trkpt lat="45.80395" lon="1.90829">
        <ele>702.4</ele>
        <time>2026-07-08T14:29:52.000Z</time>
      </trkpt>
      <trkpt lat="45.80395" lon="1.90829">
        <ele>702.6</ele>
        <time>2026-07-08T14:29:53.000Z</time>
      </trkpt>
      <trkpt lat="45.80395" lon="1.90828">
        <ele>702.7</ele>
        <time>2026-07-08T14:29:54.000Z</time>
      </trkpt>
      <trkpt lat="45.80396" lon="1.90827">
        <ele>702.7</ele>
        <time>2026-07-08T14:29:55.000Z</time>
      </trkpt>
      <trkpt lat="45.80397" lon="1.90827">
        <ele>702.8</ele>
        <time>2026-07-08T14:29:56.000Z</time>
      </trkpt>
      <trkpt lat="45.80398" lon="1.90828">
        <ele>702.9</ele>
        <time>2026-07-08T14:29:57.000Z</time>
      </trkpt>
      <trkpt lat="45.80398" lon="1.90828">
        <ele>702.9</ele>
        <time>2026-07-08T14:29:58.000Z</time>
      </trkpt>
      <trkpt lat="45.80398" lon="1.90828">
        <ele>702.8</ele>
        <time>2026-07-08T14:29:59.000Z</time>
      </trkpt>
      <trkpt lat="45.80398" lon="1.90829">
        <ele>702.8</ele>
        <time>2026-07-08T14:30:00.000Z</time>
      </trkpt>
      <trkpt lat="45.80398" lon="1.90829">
        <ele>702.8</ele>
        <time>2026-07-08T14:30:01.000Z</time>
      </trkpt>
      <trkpt lat="45.80399" lon="1.90828">
        <ele>702.6</ele>
        <time>2026-07-08T14:30:02.000Z</time>
      </trkpt>
      <trkpt lat="45.80399" lon="1.90827">
        <ele>702.6</ele>
        <time>2026-07-08T14:30:03.000Z</time>
      </trkpt>
      <trkpt lat="45.80399" lon="1.90827">
        <ele>702.6</ele>
        <time>2026-07-08T14:30:04.000Z</time>
      </trkpt>
      <trkpt lat="45.80399" lon="1.90827">
        <ele>702.6</ele>
        <time>2026-07-08T14:30:05.000Z</time>
      </trkpt>
      <trkpt lat="45.80399" lon="1.90827">
        <ele>702.6</ele>
        <time>2026-07-08T14:30:06.000Z</time>
      </trkpt>
      <trkpt lat="45.80399" lon="1.90827">
        <ele>702.6</ele>
        <time>2026-07-08T14:30:07.000Z</time>
      </trkpt>
      <trkpt lat="45.80399" lon="1.90827">
        <ele>702.6</ele>
        <time>2026-07-08T14:30:08.000Z</time>
      </trkpt>
      <trkpt lat="45.80399" lon="1.90827">
        <ele>702.6</ele>
        <time>2026-07-08T14:30:09.000Z</time>
      </trkpt>
      <trkpt lat="45.80399" lon="1.90827">
        <ele>702.6</ele>
        <time>2026-07-08T14:30:10.000Z</time>
      </trkpt>
      <trkpt lat="45.80399" lon="1.90827">
        <ele>702.6</ele>
        <time>2026-07-08T14:30:11.000Z</time>
      </trkpt>
      <trkpt lat="45.80399" lon="1.90827">
        <ele>702.6</ele>
        <time>2026-07-08T14:30:12.000Z</time>
      </trkpt>
      <trkpt lat="45.80399" lon="1.90827">
        <ele>702.6</ele>
        <time>2026-07-08T14:30:13.000Z</time>
      </trkpt>
      <trkpt lat="45.80399" lon="1.90826">
        <ele>702.6</ele>
        <time>2026-07-08T14:30:14.000Z</time>
      </trkpt>
      <trkpt lat="45.80399" lon="1.90826">
        <ele>702.6</ele>
        <time>2026-07-08T14:30:15.000Z</time>
      </trkpt>
      <trkpt lat="45.80399" lon="1.90826">
        <ele>702.6</ele>
        <time>2026-07-08T14:30:16.000Z</time>
      </trkpt>
      <trkpt lat="45.80399" lon="1.90826">
        <ele>702.7</ele>
        <time>2026-07-08T14:30:17.000Z</time>
      </trkpt>
      <trkpt lat="45.80399" lon="1.90826">
        <ele>702.7</ele>
        <time>2026-07-08T14:30:18.000Z</time>
      </trkpt>
      <trkpt lat="45.80399" lon="1.90826">
        <ele>702.7</ele>
        <time>2026-07-08T14:30:19.000Z</time>
      </trkpt>
      <trkpt lat="45.80399" lon="1.90826">
        <ele>702.7</ele>
        <time>2026-07-08T14:30:20.000Z</time>
      </trkpt>
      <trkpt lat="45.80399" lon="1.90826">
        <ele>702.7</ele>
        <time>2026-07-08T14:30:21.000Z</time>
      </trkpt>
      <trkpt lat="45.80399" lon="1.90826">
        <ele>702.5</ele>
        <time>2026-07-08T14:30:22.000Z</time>
      </trkpt>
      <trkpt lat="45.804" lon="1.90827">
        <ele>702.5</ele>
        <time>2026-07-08T14:30:23.000Z</time>
      </trkpt>
      <trkpt lat="45.804" lon="1.90827">
        <ele>702.5</ele>
        <time>2026-07-08T14:30:24.000Z</time>
      </trkpt>
      <trkpt lat="45.80402" lon="1.90827">
        <ele>702.6</ele>
        <time>2026-07-08T14:30:25.000Z</time>
      </trkpt>
      <trkpt lat="45.80403" lon="1.90828">
        <ele>702.8</ele>
        <time>2026-07-08T14:30:26.000Z</time>
      </trkpt>
      <trkpt lat="45.80404" lon="1.90829">
        <ele>703.1</ele>
        <time>2026-07-08T14:30:27.000Z</time>
      </trkpt>
      <trkpt lat="45.80404" lon="1.9083">
        <ele>703.3</ele>
        <time>2026-07-08T14:30:28.000Z</time>
      </trkpt>
      <trkpt lat="45.80406" lon="1.90831">
        <ele>703.5</ele>
        <time>2026-07-08T14:30:29.000Z</time>
      </trkpt>
      <trkpt lat="45.80407" lon="1.90831">
        <ele>703.5</ele>
        <time>2026-07-08T14:30:30.000Z</time>
      </trkpt>
      <trkpt lat="45.80408" lon="1.90831">
        <ele>703.6</ele>
        <time>2026-07-08T14:30:31.000Z</time>
      </trkpt>
      <trkpt lat="45.8041" lon="1.90831">
        <ele>703.5</ele>
        <time>2026-07-08T14:30:32.000Z</time>
      </trkpt>
      <trkpt lat="45.80411" lon="1.90832">
        <ele>702.8</ele>
        <time>2026-07-08T14:30:33.000Z</time>
      </trkpt>
      <trkpt lat="45.80412" lon="1.90831">
        <ele>703.2</ele>
        <time>2026-07-08T14:30:34.000Z</time>
      </trkpt>
      <trkpt lat="45.80414" lon="1.9083">
        <ele>703.4</ele>
        <time>2026-07-08T14:30:35.000Z</time>
      </trkpt>
      <trkpt lat="45.80415" lon="1.90829">
        <ele>703.9</ele>
        <time>2026-07-08T14:30:36.000Z</time>
      </trkpt>
      <trkpt lat="45.80417" lon="1.90827">
        <ele>703.4</ele>
        <time>2026-07-08T14:30:37.000Z</time>
      </trkpt>
      <trkpt lat="45.80418" lon="1.90825">
        <ele>703.8</ele>
        <time>2026-07-08T14:30:38.000Z</time>
      </trkpt>
      <trkpt lat="45.80419" lon="1.90823">
        <ele>702.7</ele>
        <time>2026-07-08T14:30:39.000Z</time>
      </trkpt>
      <trkpt lat="45.80421" lon="1.90822">
        <ele>702.2</ele>
        <time>2026-07-08T14:30:40.000Z</time>
      </trkpt>
      <trkpt lat="45.80422" lon="1.9082">
        <ele>702.3</ele>
        <time>2026-07-08T14:30:41.000Z</time>
      </trkpt>
      <trkpt lat="45.80424" lon="1.90818">
        <ele>702</ele>
        <time>2026-07-08T14:30:42.000Z</time>
      </trkpt>
      <trkpt lat="45.80425" lon="1.90816">
        <ele>702.2</ele>
        <time>2026-07-08T14:30:43.000Z</time>
      </trkpt>
      <trkpt lat="45.80427" lon="1.90815">
        <ele>702.7</ele>
        <time>2026-07-08T14:30:44.000Z</time>
      </trkpt>
      <trkpt lat="45.80428" lon="1.90814">
        <ele>702.5</ele>
        <time>2026-07-08T14:30:45.000Z</time>
      </trkpt>
      <trkpt lat="45.8043" lon="1.90812">
        <ele>702.2</ele>
        <time>2026-07-08T14:30:46.000Z</time>
      </trkpt>
      <trkpt lat="45.80431" lon="1.9081">
        <ele>702</ele>
        <time>2026-07-08T14:30:47.000Z</time>
      </trkpt>
      <trkpt lat="45.80432" lon="1.90809">
        <ele>702.7</ele>
        <time>2026-07-08T14:30:48.000Z</time>
      </trkpt>
      <trkpt lat="45.80433" lon="1.90807">
        <ele>702.7</ele>
        <time>2026-07-08T14:30:49.000Z</time>
      </trkpt>
      <trkpt lat="45.80434" lon="1.90804">
        <ele>702.8</ele>
        <time>2026-07-08T14:30:50.000Z</time>
      </trkpt>
      <trkpt lat="45.80435" lon="1.90801">
        <ele>702.6</ele>
        <time>2026-07-08T14:30:51.000Z</time>
      </trkpt>
      <trkpt lat="45.80437" lon="1.90797">
        <ele>702.1</ele>
        <time>2026-07-08T14:30:52.000Z</time>
      </trkpt>
      <trkpt lat="45.80439" lon="1.90794">
        <ele>702.3</ele>
        <time>2026-07-08T14:30:53.000Z</time>
      </trkpt>
      <trkpt lat="45.8044" lon="1.90792">
        <ele>702.3</ele>
        <time>2026-07-08T14:30:54.000Z</time>
      </trkpt>
      <trkpt lat="45.80442" lon="1.90791">
        <ele>702.5</ele>
        <time>2026-07-08T14:30:55.000Z</time>
      </trkpt>
      <trkpt lat="45.80443" lon="1.90789">
        <ele>702.3</ele>
        <time>2026-07-08T14:30:56.000Z</time>
      </trkpt>
      <trkpt lat="45.80444" lon="1.90788">
        <ele>704.5</ele>
        <time>2026-07-08T14:30:57.000Z</time>
      </trkpt>
      <trkpt lat="45.80445" lon="1.90786">
        <ele>704.2</ele>
        <time>2026-07-08T14:30:58.000Z</time>
      </trkpt>
      <trkpt lat="45.80447" lon="1.90784">
        <ele>704.1</ele>
        <time>2026-07-08T14:30:59.000Z</time>
      </trkpt>
      <trkpt lat="45.80448" lon="1.90781">
        <ele>705.4</ele>
        <time>2026-07-08T14:31:00.000Z</time>
      </trkpt>
      <trkpt lat="45.80448" lon="1.90778">
        <ele>705.3</ele>
        <time>2026-07-08T14:31:01.000Z</time>
      </trkpt>
      <trkpt lat="45.80448" lon="1.90776">
        <ele>704.9</ele>
        <time>2026-07-08T14:31:02.000Z</time>
      </trkpt>
      <trkpt lat="45.80447" lon="1.90774">
        <ele>705.3</ele>
        <time>2026-07-08T14:31:03.000Z</time>
      </trkpt>
      <trkpt lat="45.80446" lon="1.90772">
        <ele>704.7</ele>
        <time>2026-07-08T14:31:04.000Z</time>
      </trkpt>
      <trkpt lat="45.80445" lon="1.9077">
        <ele>705.6</ele>
        <time>2026-07-08T14:31:05.000Z</time>
      </trkpt>
      <trkpt lat="45.80444" lon="1.90768">
        <ele>706</ele>
        <time>2026-07-08T14:31:06.000Z</time>
      </trkpt>
      <trkpt lat="45.80444" lon="1.90767">
        <ele>706.9</ele>
        <time>2026-07-08T14:31:07.000Z</time>
      </trkpt>
      <trkpt lat="45.80443" lon="1.90763">
        <ele>706.9</ele>
        <time>2026-07-08T14:31:08.000Z</time>
      </trkpt>
      <trkpt lat="45.80443" lon="1.9076">
        <ele>706.7</ele>
        <time>2026-07-08T14:31:09.000Z</time>
      </trkpt>
      <trkpt lat="45.80444" lon="1.90757">
        <ele>706.4</ele>
        <time>2026-07-08T14:31:10.000Z</time>
      </trkpt>
      <trkpt lat="45.80444" lon="1.90755">
        <ele>706.9</ele>
        <time>2026-07-08T14:31:11.000Z</time>
      </trkpt>
      <trkpt lat="45.80445" lon="1.90752">
        <ele>707.5</ele>
        <time>2026-07-08T14:31:12.000Z</time>
      </trkpt>
      <trkpt lat="45.80445" lon="1.90749">
        <ele>707.9</ele>
        <time>2026-07-08T14:31:13.000Z</time>
      </trkpt>
      <trkpt lat="45.80444" lon="1.90746">
        <ele>707.6</ele>
        <time>2026-07-08T14:31:14.000Z</time>
      </trkpt>
      <trkpt lat="45.80443" lon="1.90744">
        <ele>707.7</ele>
        <time>2026-07-08T14:31:15.000Z</time>
      </trkpt>
      <trkpt lat="45.80443" lon="1.90741">
        <ele>707.9</ele>
        <time>2026-07-08T14:31:16.000Z</time>
      </trkpt>
      <trkpt lat="45.80443" lon="1.90738">
        <ele>707.5</ele>
        <time>2026-07-08T14:31:17.000Z</time>
      </trkpt>
      <trkpt lat="45.80443" lon="1.90736">
        <ele>706.3</ele>
        <time>2026-07-08T14:31:18.000Z</time>
      </trkpt>
      <trkpt lat="45.80444" lon="1.90733">
        <ele>706</ele>
        <time>2026-07-08T14:31:19.000Z</time>
      </trkpt>
      <trkpt lat="45.80444" lon="1.9073">
        <ele>705.6</ele>
        <time>2026-07-08T14:31:20.000Z</time>
      </trkpt>
      <trkpt lat="45.80444" lon="1.90727">
        <ele>706.8</ele>
        <time>2026-07-08T14:31:21.000Z</time>
      </trkpt>
      <trkpt lat="45.80443" lon="1.90724">
        <ele>707</ele>
        <time>2026-07-08T14:31:22.000Z</time>
      </trkpt>
      <trkpt lat="45.80442" lon="1.90723">
        <ele>706.3</ele>
        <time>2026-07-08T14:31:23.000Z</time>
      </trkpt>
      <trkpt lat="45.80441" lon="1.9072">
        <ele>706.5</ele>
        <time>2026-07-08T14:31:24.000Z</time>
      </trkpt>
      <trkpt lat="45.80441" lon="1.90718">
        <ele>706.2</ele>
        <time>2026-07-08T14:31:25.000Z</time>
      </trkpt>
      <trkpt lat="45.8044" lon="1.90716">
        <ele>706</ele>
        <time>2026-07-08T14:31:26.000Z</time>
      </trkpt>
      <trkpt lat="45.8044" lon="1.90713">
        <ele>707.5</ele>
        <time>2026-07-08T14:31:27.000Z</time>
      </trkpt>
      <trkpt lat="45.8044" lon="1.9071">
        <ele>707.9</ele>
        <time>2026-07-08T14:31:28.000Z</time>
      </trkpt>
      <trkpt lat="45.8044" lon="1.90707">
        <ele>709.2</ele>
        <time>2026-07-08T14:31:29.000Z</time>
      </trkpt>
      <trkpt lat="45.8044" lon="1.90704">
        <ele>710.3</ele>
        <time>2026-07-08T14:31:30.000Z</time>
      </trkpt>
      <trkpt lat="45.8044" lon="1.90702">
        <ele>710.7</ele>
        <time>2026-07-08T14:31:31.000Z</time>
      </trkpt>
      <trkpt lat="45.80439" lon="1.90699">
        <ele>709.7</ele>
        <time>2026-07-08T14:31:32.000Z</time>
      </trkpt>
      <trkpt lat="45.80439" lon="1.90696">
        <ele>708.8</ele>
        <time>2026-07-08T14:31:33.000Z</time>
      </trkpt>
      <trkpt lat="45.80439" lon="1.90692">
        <ele>708</ele>
        <time>2026-07-08T14:31:34.000Z</time>
      </trkpt>
      <trkpt lat="45.8044" lon="1.9069">
        <ele>707.4</ele>
        <time>2026-07-08T14:31:35.000Z</time>
      </trkpt>
      <trkpt lat="45.80441" lon="1.90688">
        <ele>707.7</ele>
        <time>2026-07-08T14:31:36.000Z</time>
      </trkpt>
      <trkpt lat="45.80443" lon="1.90686">
        <ele>708</ele>
        <time>2026-07-08T14:31:37.000Z</time>
      </trkpt>
      <trkpt lat="45.80444" lon="1.90685">
        <ele>709.8</ele>
        <time>2026-07-08T14:31:38.000Z</time>
      </trkpt>
      <trkpt lat="45.80446" lon="1.90684">
        <ele>709.9</ele>
        <time>2026-07-08T14:31:39.000Z</time>
      </trkpt>
      <trkpt lat="45.80447" lon="1.90683">
        <ele>709.8</ele>
        <time>2026-07-08T14:31:40.000Z</time>
      </trkpt>
      <trkpt lat="45.80449" lon="1.90681">
        <ele>710.3</ele>
        <time>2026-07-08T14:31:41.000Z</time>
      </trkpt>
      <trkpt lat="45.80451" lon="1.90678">
        <ele>710.4</ele>
        <time>2026-07-08T14:31:42.000Z</time>
      </trkpt>
      <trkpt lat="45.80452" lon="1.90674">
        <ele>710.2</ele>
        <time>2026-07-08T14:31:43.000Z</time>
      </trkpt>
      <trkpt lat="45.80452" lon="1.90671">
        <ele>710.3</ele>
        <time>2026-07-08T14:31:44.000Z</time>
      </trkpt>
      <trkpt lat="45.80453" lon="1.90668">
        <ele>711.2</ele>
        <time>2026-07-08T14:31:45.000Z</time>
      </trkpt>
      <trkpt lat="45.80454" lon="1.90665">
        <ele>711.5</ele>
        <time>2026-07-08T14:31:46.000Z</time>
      </trkpt>
      <trkpt lat="45.80455" lon="1.90662">
        <ele>711.4</ele>
        <time>2026-07-08T14:31:47.000Z</time>
      </trkpt>
      <trkpt lat="45.80457" lon="1.90658">
        <ele>711.4</ele>
        <time>2026-07-08T14:31:48.000Z</time>
      </trkpt>
      <trkpt lat="45.80458" lon="1.90655">
        <ele>711.1</ele>
        <time>2026-07-08T14:31:49.000Z</time>
      </trkpt>
      <trkpt lat="45.8046" lon="1.90651">
        <ele>710.7</ele>
        <time>2026-07-08T14:31:50.000Z</time>
      </trkpt>
      <trkpt lat="45.80462" lon="1.90649">
        <ele>709.7</ele>
        <time>2026-07-08T14:31:51.000Z</time>
      </trkpt>
      <trkpt lat="45.80463" lon="1.90647">
        <ele>709.5</ele>
        <time>2026-07-08T14:31:52.000Z</time>
      </trkpt>
      <trkpt lat="45.80464" lon="1.90645">
        <ele>709.6</ele>
        <time>2026-07-08T14:31:53.000Z</time>
      </trkpt>
      <trkpt lat="45.80466" lon="1.90644">
        <ele>711</ele>
        <time>2026-07-08T14:31:54.000Z</time>
      </trkpt>
      <trkpt lat="45.80467" lon="1.90642">
        <ele>710.7</ele>
        <time>2026-07-08T14:31:55.000Z</time>
      </trkpt>
      <trkpt lat="45.80469" lon="1.90641">
        <ele>710.2</ele>
        <time>2026-07-08T14:31:56.000Z</time>
      </trkpt>
      <trkpt lat="45.80471" lon="1.9064">
        <ele>710</ele>
        <time>2026-07-08T14:31:57.000Z</time>
      </trkpt>
      <trkpt lat="45.80473" lon="1.9064">
        <ele>710</ele>
        <time>2026-07-08T14:31:58.000Z</time>
      </trkpt>
      <trkpt lat="45.80475" lon="1.90639">
        <ele>710</ele>
        <time>2026-07-08T14:31:59.000Z</time>
      </trkpt>
      <trkpt lat="45.80477" lon="1.90638">
        <ele>710.9</ele>
        <time>2026-07-08T14:32:00.000Z</time>
      </trkpt>
      <trkpt lat="45.80477" lon="1.90635">
        <ele>712.8</ele>
        <time>2026-07-08T14:32:01.000Z</time>
      </trkpt>
      <trkpt lat="45.80479" lon="1.90633">
        <ele>712.5</ele>
        <time>2026-07-08T14:32:02.000Z</time>
      </trkpt>
      <trkpt lat="45.80481" lon="1.90631">
        <ele>712.1</ele>
        <time>2026-07-08T14:32:03.000Z</time>
      </trkpt>
      <trkpt lat="45.80483" lon="1.90629">
        <ele>711.3</ele>
        <time>2026-07-08T14:32:04.000Z</time>
      </trkpt>
      <trkpt lat="45.80484" lon="1.90627">
        <ele>711.3</ele>
        <time>2026-07-08T14:32:05.000Z</time>
      </trkpt>
      <trkpt lat="45.80486" lon="1.90626">
        <ele>711.6</ele>
        <time>2026-07-08T14:32:06.000Z</time>
      </trkpt>
      <trkpt lat="45.80487" lon="1.90624">
        <ele>711.3</ele>
        <time>2026-07-08T14:32:07.000Z</time>
      </trkpt>
      <trkpt lat="45.80489" lon="1.90623">
        <ele>710.2</ele>
        <time>2026-07-08T14:32:08.000Z</time>
      </trkpt>
      <trkpt lat="45.80491" lon="1.90622">
        <ele>709.9</ele>
        <time>2026-07-08T14:32:09.000Z</time>
      </trkpt>
      <trkpt lat="45.80493" lon="1.90622">
        <ele>708.8</ele>
        <time>2026-07-08T14:32:10.000Z</time>
      </trkpt>
      <trkpt lat="45.80495" lon="1.90623">
        <ele>707.9</ele>
        <time>2026-07-08T14:32:11.000Z</time>
      </trkpt>
      <trkpt lat="45.80497" lon="1.90623">
        <ele>707</ele>
        <time>2026-07-08T14:32:12.000Z</time>
      </trkpt>
      <trkpt lat="45.80499" lon="1.90624">
        <ele>707.1</ele>
        <time>2026-07-08T14:32:13.000Z</time>
      </trkpt>
      <trkpt lat="45.80501" lon="1.90625">
        <ele>707.1</ele>
        <time>2026-07-08T14:32:14.000Z</time>
      </trkpt>
      <trkpt lat="45.80503" lon="1.90625">
        <ele>707.1</ele>
        <time>2026-07-08T14:32:15.000Z</time>
      </trkpt>
      <trkpt lat="45.80504" lon="1.90626">
        <ele>706.9</ele>
        <time>2026-07-08T14:32:16.000Z</time>
      </trkpt>
      <trkpt lat="45.80505" lon="1.90626">
        <ele>707.1</ele>
        <time>2026-07-08T14:32:17.000Z</time>
      </trkpt>
      <trkpt lat="45.80507" lon="1.90626">
        <ele>707</ele>
        <time>2026-07-08T14:32:18.000Z</time>
      </trkpt>
      <trkpt lat="45.80508" lon="1.90626">
        <ele>706.9</ele>
        <time>2026-07-08T14:32:19.000Z</time>
      </trkpt>
      <trkpt lat="45.80509" lon="1.90626">
        <ele>707.2</ele>
        <time>2026-07-08T14:32:20.000Z</time>
      </trkpt>
      <trkpt lat="45.80511" lon="1.90627">
        <ele>706.7</ele>
        <time>2026-07-08T14:32:21.000Z</time>
      </trkpt>
      <trkpt lat="45.80513" lon="1.90627">
        <ele>706.6</ele>
        <time>2026-07-08T14:32:22.000Z</time>
      </trkpt>
      <trkpt lat="45.80514" lon="1.90628">
        <ele>706.9</ele>
        <time>2026-07-08T14:32:23.000Z</time>
      </trkpt>
      <trkpt lat="45.80516" lon="1.90628">
        <ele>707</ele>
        <time>2026-07-08T14:32:24.000Z</time>
      </trkpt>
      <trkpt lat="45.80518" lon="1.90629">
        <ele>706.9</ele>
        <time>2026-07-08T14:32:25.000Z</time>
      </trkpt>
      <trkpt lat="45.80519" lon="1.90629">
        <ele>706.9</ele>
        <time>2026-07-08T14:32:26.000Z</time>
      </trkpt>
      <trkpt lat="45.80521" lon="1.90629">
        <ele>706.9</ele>
        <time>2026-07-08T14:32:27.000Z</time>
      </trkpt>
      <trkpt lat="45.80522" lon="1.9063">
        <ele>706.6</ele>
        <time>2026-07-08T14:32:28.000Z</time>
      </trkpt>
      <trkpt lat="45.80524" lon="1.90631">
        <ele>706.6</ele>
        <time>2026-07-08T14:32:29.000Z</time>
      </trkpt>
      <trkpt lat="45.80525" lon="1.90631">
        <ele>706.4</ele>
        <time>2026-07-08T14:32:30.000Z</time>
      </trkpt>
      <trkpt lat="45.80527" lon="1.90632">
        <ele>706.5</ele>
        <time>2026-07-08T14:32:31.000Z</time>
      </trkpt>
      <trkpt lat="45.80528" lon="1.90633">
        <ele>706.6</ele>
        <time>2026-07-08T14:32:32.000Z</time>
      </trkpt>
      <trkpt lat="45.8053" lon="1.90634">
        <ele>706.4</ele>
        <time>2026-07-08T14:32:33.000Z</time>
      </trkpt>
      <trkpt lat="45.80531" lon="1.90634">
        <ele>706.4</ele>
        <time>2026-07-08T14:32:34.000Z</time>
      </trkpt>
      <trkpt lat="45.80533" lon="1.90635">
        <ele>705.1</ele>
        <time>2026-07-08T14:32:35.000Z</time>
      </trkpt>
      <trkpt lat="45.80534" lon="1.90636">
        <ele>704.3</ele>
        <time>2026-07-08T14:32:36.000Z</time>
      </trkpt>
      <trkpt lat="45.80535" lon="1.90636">
        <ele>703.8</ele>
        <time>2026-07-08T14:32:37.000Z</time>
      </trkpt>
      <trkpt lat="45.80536" lon="1.90637">
        <ele>704.1</ele>
        <time>2026-07-08T14:32:38.000Z</time>
      </trkpt>
      <trkpt lat="45.80538" lon="1.90638">
        <ele>703.2</ele>
        <time>2026-07-08T14:32:39.000Z</time>
      </trkpt>
      <trkpt lat="45.80539" lon="1.90639">
        <ele>703.2</ele>
        <time>2026-07-08T14:32:40.000Z</time>
      </trkpt>
      <trkpt lat="45.80541" lon="1.9064">
        <ele>703</ele>
        <time>2026-07-08T14:32:41.000Z</time>
      </trkpt>
      <trkpt lat="45.80542" lon="1.90641">
        <ele>702.7</ele>
        <time>2026-07-08T14:32:42.000Z</time>
      </trkpt>
      <trkpt lat="45.80544" lon="1.90643">
        <ele>702.9</ele>
        <time>2026-07-08T14:32:43.000Z</time>
      </trkpt>
      <trkpt lat="45.80546" lon="1.90644">
        <ele>702.8</ele>
        <time>2026-07-08T14:32:44.000Z</time>
      </trkpt>
      <trkpt lat="45.80548" lon="1.90645">
        <ele>702.7</ele>
        <time>2026-07-08T14:32:45.000Z</time>
      </trkpt>
      <trkpt lat="45.80549" lon="1.90645">
        <ele>702.9</ele>
        <time>2026-07-08T14:32:46.000Z</time>
      </trkpt>
      <trkpt lat="45.8055" lon="1.90646">
        <ele>702.9</ele>
        <time>2026-07-08T14:32:47.000Z</time>
      </trkpt>
      <trkpt lat="45.80552" lon="1.90647">
        <ele>703.1</ele>
        <time>2026-07-08T14:32:48.000Z</time>
      </trkpt>
      <trkpt lat="45.80554" lon="1.90648">
        <ele>703.1</ele>
        <time>2026-07-08T14:32:49.000Z</time>
      </trkpt>
      <trkpt lat="45.80556" lon="1.90649">
        <ele>703.2</ele>
        <time>2026-07-08T14:32:50.000Z</time>
      </trkpt>
      <trkpt lat="45.80558" lon="1.90649">
        <ele>703.4</ele>
        <time>2026-07-08T14:32:51.000Z</time>
      </trkpt>
      <trkpt lat="45.8056" lon="1.9065">
        <ele>703.6</ele>
        <time>2026-07-08T14:32:52.000Z</time>
      </trkpt>
      <trkpt lat="45.80561" lon="1.9065">
        <ele>703.6</ele>
        <time>2026-07-08T14:32:53.000Z</time>
      </trkpt>
      <trkpt lat="45.80563" lon="1.90651">
        <ele>703.8</ele>
        <time>2026-07-08T14:32:54.000Z</time>
      </trkpt>
      <trkpt lat="45.80565" lon="1.90651">
        <ele>704</ele>
        <time>2026-07-08T14:32:55.000Z</time>
      </trkpt>
      <trkpt lat="45.80567" lon="1.90652">
        <ele>703.7</ele>
        <time>2026-07-08T14:32:56.000Z</time>
      </trkpt>
      <trkpt lat="45.80568" lon="1.90652">
        <ele>703.5</ele>
        <time>2026-07-08T14:32:57.000Z</time>
      </trkpt>
      <trkpt lat="45.8057" lon="1.90653">
        <ele>703.4</ele>
        <time>2026-07-08T14:32:58.000Z</time>
      </trkpt>
      <trkpt lat="45.80572" lon="1.90654">
        <ele>703.4</ele>
        <time>2026-07-08T14:32:59.000Z</time>
      </trkpt>
      <trkpt lat="45.80573" lon="1.90654">
        <ele>703.4</ele>
        <time>2026-07-08T14:33:00.000Z</time>
      </trkpt>
      <trkpt lat="45.80575" lon="1.90654">
        <ele>703.5</ele>
        <time>2026-07-08T14:33:01.000Z</time>
      </trkpt>
      <trkpt lat="45.80577" lon="1.90655">
        <ele>703.5</ele>
        <time>2026-07-08T14:33:02.000Z</time>
      </trkpt>
      <trkpt lat="45.80579" lon="1.90655">
        <ele>703.6</ele>
        <time>2026-07-08T14:33:03.000Z</time>
      </trkpt>
      <trkpt lat="45.80581" lon="1.90655">
        <ele>703.7</ele>
        <time>2026-07-08T14:33:04.000Z</time>
      </trkpt>
      <trkpt lat="45.80582" lon="1.90654">
        <ele>703.6</ele>
        <time>2026-07-08T14:33:05.000Z</time>
      </trkpt>
      <trkpt lat="45.80584" lon="1.90654">
        <ele>703</ele>
        <time>2026-07-08T14:33:06.000Z</time>
      </trkpt>
      <trkpt lat="45.80587" lon="1.90653">
        <ele>703.3</ele>
        <time>2026-07-08T14:33:07.000Z</time>
      </trkpt>
      <trkpt lat="45.80589" lon="1.90652">
        <ele>703.4</ele>
        <time>2026-07-08T14:33:08.000Z</time>
      </trkpt>
      <trkpt lat="45.80591" lon="1.90651">
        <ele>702.8</ele>
        <time>2026-07-08T14:33:09.000Z</time>
      </trkpt>
      <trkpt lat="45.80593" lon="1.9065">
        <ele>703</ele>
        <time>2026-07-08T14:33:10.000Z</time>
      </trkpt>
      <trkpt lat="45.80596" lon="1.90648">
        <ele>703.5</ele>
        <time>2026-07-08T14:33:11.000Z</time>
      </trkpt>
      <trkpt lat="45.80597" lon="1.90648">
        <ele>703.6</ele>
        <time>2026-07-08T14:33:12.000Z</time>
      </trkpt>
      <trkpt lat="45.80599" lon="1.90647">
        <ele>702.8</ele>
        <time>2026-07-08T14:33:13.000Z</time>
      </trkpt>
      <trkpt lat="45.80601" lon="1.90647">
        <ele>702.9</ele>
        <time>2026-07-08T14:33:14.000Z</time>
      </trkpt>
      <trkpt lat="45.80602" lon="1.90645">
        <ele>703.3</ele>
        <time>2026-07-08T14:33:15.000Z</time>
      </trkpt>
      <trkpt lat="45.80604" lon="1.90644">
        <ele>703.7</ele>
        <time>2026-07-08T14:33:16.000Z</time>
      </trkpt>
      <trkpt lat="45.80605" lon="1.90642">
        <ele>704.2</ele>
        <time>2026-07-08T14:33:17.000Z</time>
      </trkpt>
      <trkpt lat="45.80606" lon="1.9064">
        <ele>703.7</ele>
        <time>2026-07-08T14:33:18.000Z</time>
      </trkpt>
      <trkpt lat="45.80607" lon="1.90639">
        <ele>703.9</ele>
        <time>2026-07-08T14:33:19.000Z</time>
      </trkpt>
      <trkpt lat="45.80608" lon="1.90637">
        <ele>703.7</ele>
        <time>2026-07-08T14:33:20.000Z</time>
      </trkpt>
      <trkpt lat="45.80609" lon="1.90634">
        <ele>704.6</ele>
        <time>2026-07-08T14:33:21.000Z</time>
      </trkpt>
      <trkpt lat="45.8061" lon="1.90632">
        <ele>705.3</ele>
        <time>2026-07-08T14:33:22.000Z</time>
      </trkpt>
      <trkpt lat="45.80612" lon="1.9063">
        <ele>704.9</ele>
        <time>2026-07-08T14:33:23.000Z</time>
      </trkpt>
      <trkpt lat="45.80613" lon="1.90628">
        <ele>704.7</ele>
        <time>2026-07-08T14:33:24.000Z</time>
      </trkpt>
      <trkpt lat="45.80614" lon="1.90627">
        <ele>705.2</ele>
        <time>2026-07-08T14:33:25.000Z</time>
      </trkpt>
      <trkpt lat="45.80615" lon="1.90625">
        <ele>704.4</ele>
        <time>2026-07-08T14:33:26.000Z</time>
      </trkpt>
      <trkpt lat="45.80616" lon="1.90623">
        <ele>704.6</ele>
        <time>2026-07-08T14:33:27.000Z</time>
      </trkpt>
      <trkpt lat="45.80617" lon="1.90621">
        <ele>704.5</ele>
        <time>2026-07-08T14:33:28.000Z</time>
      </trkpt>
      <trkpt lat="45.80618" lon="1.9062">
        <ele>703.8</ele>
        <time>2026-07-08T14:33:29.000Z</time>
      </trkpt>
      <trkpt lat="45.8062" lon="1.90618">
        <ele>703.7</ele>
        <time>2026-07-08T14:33:30.000Z</time>
      </trkpt>
      <trkpt lat="45.80621" lon="1.90617">
        <ele>703.4</ele>
        <time>2026-07-08T14:33:31.000Z</time>
      </trkpt>
      <trkpt lat="45.80623" lon="1.90616">
        <ele>703.8</ele>
        <time>2026-07-08T14:33:32.000Z</time>
      </trkpt>
      <trkpt lat="45.80624" lon="1.90616">
        <ele>703.9</ele>
        <time>2026-07-08T14:33:33.000Z</time>
      </trkpt>
      <trkpt lat="45.80625" lon="1.90615">
        <ele>704.2</ele>
        <time>2026-07-08T14:33:34.000Z</time>
      </trkpt>
      <trkpt lat="45.80627" lon="1.90614">
        <ele>704.2</ele>
        <time>2026-07-08T14:33:35.000Z</time>
      </trkpt>
      <trkpt lat="45.80628" lon="1.90613">
        <ele>704.1</ele>
        <time>2026-07-08T14:33:36.000Z</time>
      </trkpt>
      <trkpt lat="45.8063" lon="1.90612">
        <ele>704.3</ele>
        <time>2026-07-08T14:33:37.000Z</time>
      </trkpt>
      <trkpt lat="45.80632" lon="1.90611">
        <ele>704.4</ele>
        <time>2026-07-08T14:33:38.000Z</time>
      </trkpt>
      <trkpt lat="45.80633" lon="1.9061">
        <ele>704.9</ele>
        <time>2026-07-08T14:33:39.000Z</time>
      </trkpt>
      <trkpt lat="45.80635" lon="1.90608">
        <ele>705.5</ele>
        <time>2026-07-08T14:33:40.000Z</time>
      </trkpt>
      <trkpt lat="45.80636" lon="1.90607">
        <ele>706.2</ele>
        <time>2026-07-08T14:33:41.000Z</time>
      </trkpt>
      <trkpt lat="45.80638" lon="1.90605">
        <ele>705.8</ele>
        <time>2026-07-08T14:33:42.000Z</time>
      </trkpt>
      <trkpt lat="45.80639" lon="1.90604">
        <ele>706.7</ele>
        <time>2026-07-08T14:33:43.000Z</time>
      </trkpt>
      <trkpt lat="45.8064" lon="1.90602">
        <ele>706.2</ele>
        <time>2026-07-08T14:33:44.000Z</time>
      </trkpt>
      <trkpt lat="45.80641" lon="1.90601">
        <ele>706.2</ele>
        <time>2026-07-08T14:33:45.000Z</time>
      </trkpt>
      <trkpt lat="45.80643" lon="1.90599">
        <ele>706</ele>
        <time>2026-07-08T14:33:46.000Z</time>
      </trkpt>
      <trkpt lat="45.80645" lon="1.90598">
        <ele>706</ele>
        <time>2026-07-08T14:33:47.000Z</time>
      </trkpt>
      <trkpt lat="45.80647" lon="1.90596">
        <ele>705.7</ele>
        <time>2026-07-08T14:33:48.000Z</time>
      </trkpt>
      <trkpt lat="45.80649" lon="1.90595">
        <ele>705.7</ele>
        <time>2026-07-08T14:33:49.000Z</time>
      </trkpt>
      <trkpt lat="45.8065" lon="1.90593">
        <ele>706</ele>
        <time>2026-07-08T14:33:50.000Z</time>
      </trkpt>
      <trkpt lat="45.80652" lon="1.90592">
        <ele>706.9</ele>
        <time>2026-07-08T14:33:51.000Z</time>
      </trkpt>
      <trkpt lat="45.80654" lon="1.90591">
        <ele>707.7</ele>
        <time>2026-07-08T14:33:52.000Z</time>
      </trkpt>
      <trkpt lat="45.80656" lon="1.9059">
        <ele>708</ele>
        <time>2026-07-08T14:33:53.000Z</time>
      </trkpt>
      <trkpt lat="45.80658" lon="1.90589">
        <ele>708.2</ele>
        <time>2026-07-08T14:33:54.000Z</time>
      </trkpt>
      <trkpt lat="45.80659" lon="1.90588">
        <ele>707.7</ele>
        <time>2026-07-08T14:33:55.000Z</time>
      </trkpt>
      <trkpt lat="45.80661" lon="1.90586">
        <ele>708.9</ele>
        <time>2026-07-08T14:33:56.000Z</time>
      </trkpt>
      <trkpt lat="45.80663" lon="1.90585">
        <ele>708.1</ele>
        <time>2026-07-08T14:33:57.000Z</time>
      </trkpt>
      <trkpt lat="45.80665" lon="1.90583">
        <ele>707.7</ele>
        <time>2026-07-08T14:33:58.000Z</time>
      </trkpt>
      <trkpt lat="45.80667" lon="1.90582">
        <ele>708.2</ele>
        <time>2026-07-08T14:33:59.000Z</time>
      </trkpt>
      <trkpt lat="45.80669" lon="1.90582">
        <ele>708.7</ele>
        <time>2026-07-08T14:34:00.000Z</time>
      </trkpt>
      <trkpt lat="45.8067" lon="1.90581">
        <ele>709.2</ele>
        <time>2026-07-08T14:34:01.000Z</time>
      </trkpt>
      <trkpt lat="45.80671" lon="1.9058">
        <ele>708.5</ele>
        <time>2026-07-08T14:34:02.000Z</time>
      </trkpt>
      <trkpt lat="45.80673" lon="1.90579">
        <ele>707.6</ele>
        <time>2026-07-08T14:34:03.000Z</time>
      </trkpt>
      <trkpt lat="45.80674" lon="1.90577">
        <ele>707.3</ele>
        <time>2026-07-08T14:34:04.000Z</time>
      </trkpt>
      <trkpt lat="45.80676" lon="1.90575">
        <ele>706.3</ele>
        <time>2026-07-08T14:34:05.000Z</time>
      </trkpt>
      <trkpt lat="45.80677" lon="1.90573">
        <ele>705.6</ele>
        <time>2026-07-08T14:34:06.000Z</time>
      </trkpt>
      <trkpt lat="45.80679" lon="1.90572">
        <ele>704.8</ele>
        <time>2026-07-08T14:34:07.000Z</time>
      </trkpt>
      <trkpt lat="45.80681" lon="1.90571">
        <ele>705.6</ele>
        <time>2026-07-08T14:34:08.000Z</time>
      </trkpt>
      <trkpt lat="45.80683" lon="1.9057">
        <ele>705.1</ele>
        <time>2026-07-08T14:34:09.000Z</time>
      </trkpt>
      <trkpt lat="45.80685" lon="1.90569">
        <ele>704.2</ele>
        <time>2026-07-08T14:34:10.000Z</time>
      </trkpt>
      <trkpt lat="45.80687" lon="1.90569">
        <ele>705.2</ele>
        <time>2026-07-08T14:34:11.000Z</time>
      </trkpt>
      <trkpt lat="45.80689" lon="1.90569">
        <ele>705.4</ele>
        <time>2026-07-08T14:34:12.000Z</time>
      </trkpt>
      <trkpt lat="45.80691" lon="1.90569">
        <ele>704.4</ele>
        <time>2026-07-08T14:34:13.000Z</time>
      </trkpt>
      <trkpt lat="45.80694" lon="1.90568">
        <ele>704.7</ele>
        <time>2026-07-08T14:34:14.000Z</time>
      </trkpt>
      <trkpt lat="45.80697" lon="1.90567">
        <ele>703.4</ele>
        <time>2026-07-08T14:34:15.000Z</time>
      </trkpt>
      <trkpt lat="45.80699" lon="1.90566">
        <ele>703.5</ele>
        <time>2026-07-08T14:34:16.000Z</time>
      </trkpt>
      <trkpt lat="45.80701" lon="1.90564">
        <ele>701.2</ele>
        <time>2026-07-08T14:34:17.000Z</time>
      </trkpt>
      <trkpt lat="45.80703" lon="1.90563">
        <ele>701.1</ele>
        <time>2026-07-08T14:34:18.000Z</time>
      </trkpt>
      <trkpt lat="45.80705" lon="1.90561">
        <ele>701.1</ele>
        <time>2026-07-08T14:34:19.000Z</time>
      </trkpt>
      <trkpt lat="45.80707" lon="1.90561">
        <ele>701.7</ele>
        <time>2026-07-08T14:34:20.000Z</time>
      </trkpt>
      <trkpt lat="45.80709" lon="1.90559">
        <ele>701.5</ele>
        <time>2026-07-08T14:34:21.000Z</time>
      </trkpt>
      <trkpt lat="45.80711" lon="1.90559">
        <ele>702.1</ele>
        <time>2026-07-08T14:34:22.000Z</time>
      </trkpt>
      <trkpt lat="45.80713" lon="1.90558">
        <ele>701.2</ele>
        <time>2026-07-08T14:34:23.000Z</time>
      </trkpt>
      <trkpt lat="45.80715" lon="1.90557">
        <ele>701.9</ele>
        <time>2026-07-08T14:34:24.000Z</time>
      </trkpt>
      <trkpt lat="45.80718" lon="1.90557">
        <ele>703.1</ele>
        <time>2026-07-08T14:34:25.000Z</time>
      </trkpt>
      <trkpt lat="45.80721" lon="1.90558">
        <ele>704.7</ele>
        <time>2026-07-08T14:34:26.000Z</time>
      </trkpt>
      <trkpt lat="45.80723" lon="1.90558">
        <ele>704.8</ele>
        <time>2026-07-08T14:34:27.000Z</time>
      </trkpt>
      <trkpt lat="45.80726" lon="1.90558">
        <ele>706.1</ele>
        <time>2026-07-08T14:34:28.000Z</time>
      </trkpt>
      <trkpt lat="45.80729" lon="1.90557">
        <ele>704.6</ele>
        <time>2026-07-08T14:34:29.000Z</time>
      </trkpt>
      <trkpt lat="45.80731" lon="1.90558">
        <ele>705.8</ele>
        <time>2026-07-08T14:34:30.000Z</time>
      </trkpt>
      <trkpt lat="45.80733" lon="1.90558">
        <ele>706.3</ele>
        <time>2026-07-08T14:34:31.000Z</time>
      </trkpt>
      <trkpt lat="45.80735" lon="1.90558">
        <ele>706.3</ele>
        <time>2026-07-08T14:34:32.000Z</time>
      </trkpt>
      <trkpt lat="45.80737" lon="1.90559">
        <ele>708</ele>
        <time>2026-07-08T14:34:33.000Z</time>
      </trkpt>
      <trkpt lat="45.80739" lon="1.9056">
        <ele>709.1</ele>
        <time>2026-07-08T14:34:34.000Z</time>
      </trkpt>
      <trkpt lat="45.80741" lon="1.90561">
        <ele>710.2</ele>
        <time>2026-07-08T14:34:35.000Z</time>
      </trkpt>
      <trkpt lat="45.80743" lon="1.90561">
        <ele>711</ele>
        <time>2026-07-08T14:34:36.000Z</time>
      </trkpt>
      <trkpt lat="45.80745" lon="1.90561">
        <ele>712.7</ele>
        <time>2026-07-08T14:34:37.000Z</time>
      </trkpt>
      <trkpt lat="45.80748" lon="1.9056">
        <ele>712.8</ele>
        <time>2026-07-08T14:34:38.000Z</time>
      </trkpt>
      <trkpt lat="45.8075" lon="1.9056">
        <ele>712.5</ele>
        <time>2026-07-08T14:34:39.000Z</time>
      </trkpt>
      <trkpt lat="45.80752" lon="1.90559">
        <ele>712.8</ele>
        <time>2026-07-08T14:34:40.000Z</time>
      </trkpt>
      <trkpt lat="45.80754" lon="1.90558">
        <ele>713.3</ele>
        <time>2026-07-08T14:34:41.000Z</time>
      </trkpt>
      <trkpt lat="45.80756" lon="1.90557">
        <ele>713.3</ele>
        <time>2026-07-08T14:34:42.000Z</time>
      </trkpt>
      <trkpt lat="45.80758" lon="1.90555">
        <ele>713.3</ele>
        <time>2026-07-08T14:34:43.000Z</time>
      </trkpt>
      <trkpt lat="45.80759" lon="1.90552">
        <ele>712.4</ele>
        <time>2026-07-08T14:34:44.000Z</time>
      </trkpt>
      <trkpt lat="45.80761" lon="1.90549">
        <ele>711.7</ele>
        <time>2026-07-08T14:34:45.000Z</time>
      </trkpt>
      <trkpt lat="45.80762" lon="1.90547">
        <ele>713</ele>
        <time>2026-07-08T14:34:46.000Z</time>
      </trkpt>
      <trkpt lat="45.80764" lon="1.90545">
        <ele>712.8</ele>
        <time>2026-07-08T14:34:47.000Z</time>
      </trkpt>
      <trkpt lat="45.80766" lon="1.90543">
        <ele>711.8</ele>
        <time>2026-07-08T14:34:48.000Z</time>
      </trkpt>
      <trkpt lat="45.80767" lon="1.90541">
        <ele>711.1</ele>
        <time>2026-07-08T14:34:49.000Z</time>
      </trkpt>
      <trkpt lat="45.80768" lon="1.90538">
        <ele>711.6</ele>
        <time>2026-07-08T14:34:50.000Z</time>
      </trkpt>
      <trkpt lat="45.8077" lon="1.90536">
        <ele>711.5</ele>
        <time>2026-07-08T14:34:51.000Z</time>
      </trkpt>
      <trkpt lat="45.80771" lon="1.90534">
        <ele>711.2</ele>
        <time>2026-07-08T14:34:52.000Z</time>
      </trkpt>
      <trkpt lat="45.80773" lon="1.90531">
        <ele>711.8</ele>
        <time>2026-07-08T14:34:53.000Z</time>
      </trkpt>
      <trkpt lat="45.80774" lon="1.90528">
        <ele>711.9</ele>
        <time>2026-07-08T14:34:54.000Z</time>
      </trkpt>
      <trkpt lat="45.80775" lon="1.90526">
        <ele>711.7</ele>
        <time>2026-07-08T14:34:55.000Z</time>
      </trkpt>
      <trkpt lat="45.80776" lon="1.90524">
        <ele>711.7</ele>
        <time>2026-07-08T14:34:56.000Z</time>
      </trkpt>
      <trkpt lat="45.80778" lon="1.90521">
        <ele>712.1</ele>
        <time>2026-07-08T14:34:57.000Z</time>
      </trkpt>
      <trkpt lat="45.80778" lon="1.90519">
        <ele>712.7</ele>
        <time>2026-07-08T14:34:58.000Z</time>
      </trkpt>
      <trkpt lat="45.8078" lon="1.90516">
        <ele>713.1</ele>
        <time>2026-07-08T14:34:59.000Z</time>
      </trkpt>
      <trkpt lat="45.80781" lon="1.90515">
        <ele>711.4</ele>
        <time>2026-07-08T14:35:00.000Z</time>
      </trkpt>
      <trkpt lat="45.80783" lon="1.90513">
        <ele>709.4</ele>
        <time>2026-07-08T14:35:01.000Z</time>
      </trkpt>
      <trkpt lat="45.80785" lon="1.90512">
        <ele>709.8</ele>
        <time>2026-07-08T14:35:02.000Z</time>
      </trkpt>
      <trkpt lat="45.80787" lon="1.90511">
        <ele>710.6</ele>
        <time>2026-07-08T14:35:03.000Z</time>
      </trkpt>
      <trkpt lat="45.80789" lon="1.9051">
        <ele>710.2</ele>
        <time>2026-07-08T14:35:04.000Z</time>
      </trkpt>
      <trkpt lat="45.8079" lon="1.90509">
        <ele>709.8</ele>
        <time>2026-07-08T14:35:05.000Z</time>
      </trkpt>
      <trkpt lat="45.80792" lon="1.90509">
        <ele>709.5</ele>
        <time>2026-07-08T14:35:06.000Z</time>
      </trkpt>
      <trkpt lat="45.80794" lon="1.90508">
        <ele>709.7</ele>
        <time>2026-07-08T14:35:07.000Z</time>
      </trkpt>
      <trkpt lat="45.80795" lon="1.90506">
        <ele>710.1</ele>
        <time>2026-07-08T14:35:08.000Z</time>
      </trkpt>
      <trkpt lat="45.80797" lon="1.90505">
        <ele>709.5</ele>
        <time>2026-07-08T14:35:09.000Z</time>
      </trkpt>
      <trkpt lat="45.808" lon="1.90504">
        <ele>709.4</ele>
        <time>2026-07-08T14:35:10.000Z</time>
      </trkpt>
      <trkpt lat="45.80803" lon="1.90503">
        <ele>710.3</ele>
        <time>2026-07-08T14:35:11.000Z</time>
      </trkpt>
      <trkpt lat="45.80806" lon="1.90502">
        <ele>711.3</ele>
        <time>2026-07-08T14:35:12.000Z</time>
      </trkpt>
      <trkpt lat="45.80809" lon="1.90501">
        <ele>711.2</ele>
        <time>2026-07-08T14:35:13.000Z</time>
      </trkpt>
      <trkpt lat="45.80812" lon="1.905">
        <ele>710.8</ele>
        <time>2026-07-08T14:35:14.000Z</time>
      </trkpt>
      <trkpt lat="45.80815" lon="1.90498">
        <ele>709.7</ele>
        <time>2026-07-08T14:35:15.000Z</time>
      </trkpt>
      <trkpt lat="45.80818" lon="1.90497">
        <ele>708.8</ele>
        <time>2026-07-08T14:35:16.000Z</time>
      </trkpt>
      <trkpt lat="45.8082" lon="1.90495">
        <ele>708.2</ele>
        <time>2026-07-08T14:35:17.000Z</time>
      </trkpt>
      <trkpt lat="45.80823" lon="1.90493">
        <ele>707.7</ele>
        <time>2026-07-08T14:35:18.000Z</time>
      </trkpt>
      <trkpt lat="45.80826" lon="1.90492">
        <ele>709</ele>
        <time>2026-07-08T14:35:19.000Z</time>
      </trkpt>
      <trkpt lat="45.80828" lon="1.90491">
        <ele>709.7</ele>
        <time>2026-07-08T14:35:20.000Z</time>
      </trkpt>
      <trkpt lat="45.8083" lon="1.9049">
        <ele>710.9</ele>
        <time>2026-07-08T14:35:21.000Z</time>
      </trkpt>
      <trkpt lat="45.80832" lon="1.90489">
        <ele>710.2</ele>
        <time>2026-07-08T14:35:22.000Z</time>
      </trkpt>
      <trkpt lat="45.80835" lon="1.90488">
        <ele>709.1</ele>
        <time>2026-07-08T14:35:23.000Z</time>
      </trkpt>
      <trkpt lat="45.80837" lon="1.90487">
        <ele>709.1</ele>
        <time>2026-07-08T14:35:24.000Z</time>
      </trkpt>
      <trkpt lat="45.8084" lon="1.90486">
        <ele>707.9</ele>
        <time>2026-07-08T14:35:25.000Z</time>
      </trkpt>
      <trkpt lat="45.80844" lon="1.90484">
        <ele>708.1</ele>
        <time>2026-07-08T14:35:26.000Z</time>
      </trkpt>
      <trkpt lat="45.80848" lon="1.90482">
        <ele>707.5</ele>
        <time>2026-07-08T14:35:27.000Z</time>
      </trkpt>
      <trkpt lat="45.80852" lon="1.9048">
        <ele>708.2</ele>
        <time>2026-07-08T14:35:28.000Z</time>
      </trkpt>
      <trkpt lat="45.80856" lon="1.90478">
        <ele>708.4</ele>
        <time>2026-07-08T14:35:29.000Z</time>
      </trkpt>
      <trkpt lat="45.80862" lon="1.90474">
        <ele>707.9</ele>
        <time>2026-07-08T14:35:30.000Z</time>
      </trkpt>
      <trkpt lat="45.80868" lon="1.9047">
        <ele>708.2</ele>
        <time>2026-07-08T14:35:31.000Z</time>
      </trkpt>
      <trkpt lat="45.80873" lon="1.90469">
        <ele>709.3</ele>
        <time>2026-07-08T14:35:32.000Z</time>
      </trkpt>
      <trkpt lat="45.80877" lon="1.90467">
        <ele>710.4</ele>
        <time>2026-07-08T14:35:33.000Z</time>
      </trkpt>
      <trkpt lat="45.80879" lon="1.90463">
        <ele>710.6</ele>
        <time>2026-07-08T14:35:34.000Z</time>
      </trkpt>
      <trkpt lat="45.80881" lon="1.9046">
        <ele>710.8</ele>
        <time>2026-07-08T14:35:35.000Z</time>
      </trkpt>
      <trkpt lat="45.80885" lon="1.90455">
        <ele>711</ele>
        <time>2026-07-08T14:35:36.000Z</time>
      </trkpt>
      <trkpt lat="45.80889" lon="1.90451">
        <ele>708.5</ele>
        <time>2026-07-08T14:35:37.000Z</time>
      </trkpt>
      <trkpt lat="45.80893" lon="1.90448">
        <ele>709</ele>
        <time>2026-07-08T14:35:38.000Z</time>
      </trkpt>
      <trkpt lat="45.80897" lon="1.90446">
        <ele>708.3</ele>
        <time>2026-07-08T14:35:39.000Z</time>
      </trkpt>
      <trkpt lat="45.80901" lon="1.90443">
        <ele>708.1</ele>
        <time>2026-07-08T14:35:40.000Z</time>
      </trkpt>
      <trkpt lat="45.80905" lon="1.90439">
        <ele>707.7</ele>
        <time>2026-07-08T14:35:41.000Z</time>
      </trkpt>
      <trkpt lat="45.80908" lon="1.90434">
        <ele>707.7</ele>
        <time>2026-07-08T14:35:42.000Z</time>
      </trkpt>
      <trkpt lat="45.80911" lon="1.9043">
        <ele>707.6</ele>
        <time>2026-07-08T14:35:43.000Z</time>
      </trkpt>
      <trkpt lat="45.80915" lon="1.90427">
        <ele>707.9</ele>
        <time>2026-07-08T14:35:44.000Z</time>
      </trkpt>
      <trkpt lat="45.80918" lon="1.90424">
        <ele>708.1</ele>
        <time>2026-07-08T14:35:45.000Z</time>
      </trkpt>
      <trkpt lat="45.80922" lon="1.9042">
        <ele>706.4</ele>
        <time>2026-07-08T14:35:46.000Z</time>
      </trkpt>
      <trkpt lat="45.80926" lon="1.90415">
        <ele>706.7</ele>
        <time>2026-07-08T14:35:47.000Z</time>
      </trkpt>
      <trkpt lat="45.8093" lon="1.90412">
        <ele>705.3</ele>
        <time>2026-07-08T14:35:48.000Z</time>
      </trkpt>
      <trkpt lat="45.80934" lon="1.90408">
        <ele>705.7</ele>
        <time>2026-07-08T14:35:49.000Z</time>
      </trkpt>
      <trkpt lat="45.80938" lon="1.90405">
        <ele>705.6</ele>
        <time>2026-07-08T14:35:50.000Z</time>
      </trkpt>
      <trkpt lat="45.80943" lon="1.90401">
        <ele>705</ele>
        <time>2026-07-08T14:35:51.000Z</time>
      </trkpt>
      <trkpt lat="45.80947" lon="1.90398">
        <ele>705.5</ele>
        <time>2026-07-08T14:35:52.000Z</time>
      </trkpt>
      <trkpt lat="45.80952" lon="1.90397">
        <ele>705.7</ele>
        <time>2026-07-08T14:35:53.000Z</time>
      </trkpt>
      <trkpt lat="45.80958" lon="1.90396">
        <ele>705.1</ele>
        <time>2026-07-08T14:35:54.000Z</time>
      </trkpt>
      <trkpt lat="45.80964" lon="1.90395">
        <ele>704.9</ele>
        <time>2026-07-08T14:35:55.000Z</time>
      </trkpt>
      <trkpt lat="45.80969" lon="1.90394">
        <ele>704.5</ele>
        <time>2026-07-08T14:35:56.000Z</time>
      </trkpt>
      <trkpt lat="45.80973" lon="1.90395">
        <ele>705.1</ele>
        <time>2026-07-08T14:35:57.000Z</time>
      </trkpt>
      <trkpt lat="45.80976" lon="1.90395">
        <ele>705.2</ele>
        <time>2026-07-08T14:35:58.000Z</time>
      </trkpt>
      <trkpt lat="45.80979" lon="1.90395">
        <ele>705.6</ele>
        <time>2026-07-08T14:35:59.000Z</time>
      </trkpt>
      <trkpt lat="45.80981" lon="1.90395">
        <ele>705.8</ele>
        <time>2026-07-08T14:36:00.000Z</time>
      </trkpt>
      <trkpt lat="45.80984" lon="1.90396">
        <ele>705.7</ele>
        <time>2026-07-08T14:36:01.000Z</time>
      </trkpt>
      <trkpt lat="45.80984" lon="1.90396">
        <ele>705.5</ele>
        <time>2026-07-08T14:36:02.000Z</time>
      </trkpt>
      <trkpt lat="45.80985" lon="1.90397">
        <ele>705.7</ele>
        <time>2026-07-08T14:36:03.000Z</time>
      </trkpt>
      <trkpt lat="45.80986" lon="1.90398">
        <ele>705.3</ele>
        <time>2026-07-08T14:36:04.000Z</time>
      </trkpt>
      <trkpt lat="45.80988" lon="1.90399">
        <ele>704.8</ele>
        <time>2026-07-08T14:36:05.000Z</time>
      </trkpt>
      <trkpt lat="45.80985" lon="1.90398">
        <ele>705.4</ele>
        <time>2026-07-08T14:36:06.000Z</time>
      </trkpt>
      <trkpt lat="45.80988" lon="1.904">
        <ele>703.3</ele>
        <time>2026-07-08T14:36:07.000Z</time>
      </trkpt>
      <trkpt lat="45.80985" lon="1.90399">
        <ele>704.3</ele>
        <time>2026-07-08T14:36:08.000Z</time>
      </trkpt>
      <trkpt lat="45.80984" lon="1.90399">
        <ele>704.3</ele>
        <time>2026-07-08T14:36:09.000Z</time>
      </trkpt>
      <trkpt lat="45.80984" lon="1.90399">
        <ele>704.3</ele>
        <time>2026-07-08T14:36:10.000Z</time>
      </trkpt>
      <trkpt lat="45.80984" lon="1.90399">
        <ele>704.3</ele>
        <time>2026-07-08T14:36:11.000Z</time>
      </trkpt>
      <trkpt lat="45.80984" lon="1.90399">
        <ele>704.3</ele>
        <time>2026-07-08T14:36:12.000Z</time>
      </trkpt>
      <trkpt lat="45.80984" lon="1.90399">
        <ele>704.5</ele>
        <time>2026-07-08T14:36:13.000Z</time>
      </trkpt>
      <trkpt lat="45.80984" lon="1.90398">
        <ele>704.4</ele>
        <time>2026-07-08T14:36:14.000Z</time>
      </trkpt>
      <trkpt lat="45.80984" lon="1.90397">
        <ele>704.4</ele>
        <time>2026-07-08T14:36:15.000Z</time>
      </trkpt>
      <trkpt lat="45.80985" lon="1.90397">
        <ele>704.4</ele>
        <time>2026-07-08T14:36:16.000Z</time>
      </trkpt>
      <trkpt lat="45.80985" lon="1.90397">
        <ele>704.4</ele>
        <time>2026-07-08T14:36:17.000Z</time>
      </trkpt>
      <trkpt lat="45.80985" lon="1.90397">
        <ele>704.4</ele>
        <time>2026-07-08T14:36:18.000Z</time>
      </trkpt>
      <trkpt lat="45.80985" lon="1.90397">
        <ele>704.4</ele>
        <time>2026-07-08T14:36:19.000Z</time>
      </trkpt>
      <trkpt lat="45.80985" lon="1.90397">
        <ele>704.4</ele>
        <time>2026-07-08T14:36:20.000Z</time>
      </trkpt>
      <trkpt lat="45.80985" lon="1.90396">
        <ele>704.7</ele>
        <time>2026-07-08T14:36:21.000Z</time>
      </trkpt>
      <trkpt lat="45.80984" lon="1.90396">
        <ele>704.7</ele>
        <time>2026-07-08T14:36:22.000Z</time>
      </trkpt>
      <trkpt lat="45.80984" lon="1.90395">
        <ele>704.4</ele>
        <time>2026-07-08T14:36:23.000Z</time>
      </trkpt>
      <trkpt lat="45.80984" lon="1.90395">
        <ele>704.4</ele>
        <time>2026-07-08T14:36:24.000Z</time>
      </trkpt>
      <trkpt lat="45.80984" lon="1.90394">
        <ele>704.7</ele>
        <time>2026-07-08T14:36:25.000Z</time>
      </trkpt>
      <trkpt lat="45.80984" lon="1.90394">
        <ele>704.2</ele>
        <time>2026-07-08T14:36:26.000Z</time>
      </trkpt>
      <trkpt lat="45.80984" lon="1.90394">
        <ele>704.1</ele>
        <time>2026-07-08T14:36:27.000Z</time>
      </trkpt>
      <trkpt lat="45.80984" lon="1.90394">
        <ele>704.1</ele>
        <time>2026-07-08T14:36:28.000Z</time>
      </trkpt>
      <trkpt lat="45.80984" lon="1.90394">
        <ele>704.1</ele>
        <time>2026-07-08T14:36:29.000Z</time>
      </trkpt>
      <trkpt lat="45.80984" lon="1.90394">
        <ele>704.1</ele>
        <time>2026-07-08T14:36:30.000Z</time>
      </trkpt>
      <trkpt lat="45.80984" lon="1.90394">
        <ele>704.1</ele>
        <time>2026-07-08T14:36:31.000Z</time>
      </trkpt>
      <trkpt lat="45.80984" lon="1.90394">
        <ele>704.1</ele>
        <time>2026-07-08T14:36:32.000Z</time>
      </trkpt>
      <trkpt lat="45.80984" lon="1.90394">
        <ele>704.1</ele>
        <time>2026-07-08T14:36:33.000Z</time>
      </trkpt>
      <trkpt lat="45.80984" lon="1.90394">
        <ele>704.1</ele>
        <time>2026-07-08T14:36:34.000Z</time>
      </trkpt>
      <trkpt lat="45.80984" lon="1.90394">
        <ele>704.1</ele>
        <time>2026-07-08T14:36:35.000Z</time>
      </trkpt>
      <trkpt lat="45.80984" lon="1.90394">
        <ele>704.1</ele>
        <time>2026-07-08T14:36:36.000Z</time>
      </trkpt>
      <trkpt lat="45.80984" lon="1.90394">
        <ele>704.1</ele>
        <time>2026-07-08T14:36:37.000Z</time>
      </trkpt>
      <trkpt lat="45.80984" lon="1.90394">
        <ele>704.1</ele>
        <time>2026-07-08T14:36:38.000Z</time>
      </trkpt>
      <trkpt lat="45.80984" lon="1.90393">
        <ele>704.1</ele>
        <time>2026-07-08T14:36:39.000Z</time>
      </trkpt>
      <trkpt lat="45.80985" lon="1.90394">
        <ele>703.9</ele>
        <time>2026-07-08T14:36:40.000Z</time>
      </trkpt>
      <trkpt lat="45.80987" lon="1.90394">
        <ele>703.1</ele>
        <time>2026-07-08T14:36:41.000Z</time>
      </trkpt>
      <trkpt lat="45.80988" lon="1.90395">
        <ele>702.3</ele>
        <time>2026-07-08T14:36:42.000Z</time>
      </trkpt>
      <trkpt lat="45.80989" lon="1.90397">
        <ele>702.3</ele>
        <time>2026-07-08T14:36:43.000Z</time>
      </trkpt>
      <trkpt lat="45.80991" lon="1.90397">
        <ele>701.9</ele>
        <time>2026-07-08T14:36:44.000Z</time>
      </trkpt>
      <trkpt lat="45.80992" lon="1.90399">
        <ele>702.4</ele>
        <time>2026-07-08T14:36:45.000Z</time>
      </trkpt>
      <trkpt lat="45.80993" lon="1.90399">
        <ele>701.8</ele>
        <time>2026-07-08T14:36:46.000Z</time>
      </trkpt>
      <trkpt lat="45.80995" lon="1.90402">
        <ele>702.7</ele>
        <time>2026-07-08T14:36:47.000Z</time>
      </trkpt>
      <trkpt lat="45.80996" lon="1.90405">
        <ele>703.3</ele>
        <time>2026-07-08T14:36:48.000Z</time>
      </trkpt>
      <trkpt lat="45.80998" lon="1.90408">
        <ele>704.8</ele>
        <time>2026-07-08T14:36:49.000Z</time>
      </trkpt>
      <trkpt lat="45.81" lon="1.90409">
        <ele>704.3</ele>
        <time>2026-07-08T14:36:50.000Z</time>
      </trkpt>
      <trkpt lat="45.81002" lon="1.90412">
        <ele>704.2</ele>
        <time>2026-07-08T14:36:51.000Z</time>
      </trkpt>
      <trkpt lat="45.81004" lon="1.90413">
        <ele>704.2</ele>
        <time>2026-07-08T14:36:52.000Z</time>
      </trkpt>
      <trkpt lat="45.81006" lon="1.90415">
        <ele>704.9</ele>
        <time>2026-07-08T14:36:53.000Z</time>
      </trkpt>
      <trkpt lat="45.81008" lon="1.90417">
        <ele>704.8</ele>
        <time>2026-07-08T14:36:54.000Z</time>
      </trkpt>
      <trkpt lat="45.81009" lon="1.90419">
        <ele>705.1</ele>
        <time>2026-07-08T14:36:55.000Z</time>
      </trkpt>
      <trkpt lat="45.8101" lon="1.90421">
        <ele>705.5</ele>
        <time>2026-07-08T14:36:56.000Z</time>
      </trkpt>
      <trkpt lat="45.81011" lon="1.90422">
        <ele>705.6</ele>
        <time>2026-07-08T14:36:57.000Z</time>
      </trkpt>
      <trkpt lat="45.81013" lon="1.90424">
        <ele>706.2</ele>
        <time>2026-07-08T14:36:58.000Z</time>
      </trkpt>
      <trkpt lat="45.81014" lon="1.90425">
        <ele>706.1</ele>
        <time>2026-07-08T14:36:59.000Z</time>
      </trkpt>
      <trkpt lat="45.81016" lon="1.90426">
        <ele>706.8</ele>
        <time>2026-07-08T14:37:00.000Z</time>
      </trkpt>
      <trkpt lat="45.81018" lon="1.90428">
        <ele>706.8</ele>
        <time>2026-07-08T14:37:01.000Z</time>
      </trkpt>
      <trkpt lat="45.81019" lon="1.9043">
        <ele>705.9</ele>
        <time>2026-07-08T14:37:02.000Z</time>
      </trkpt>
      <trkpt lat="45.8102" lon="1.90431">
        <ele>705.7</ele>
        <time>2026-07-08T14:37:03.000Z</time>
      </trkpt>
      <trkpt lat="45.81023" lon="1.90431">
        <ele>704.9</ele>
        <time>2026-07-08T14:37:04.000Z</time>
      </trkpt>
      <trkpt lat="45.81025" lon="1.90432">
        <ele>704.8</ele>
        <time>2026-07-08T14:37:05.000Z</time>
      </trkpt>
      <trkpt lat="45.81028" lon="1.90434">
        <ele>706.7</ele>
        <time>2026-07-08T14:37:06.000Z</time>
      </trkpt>
      <trkpt lat="45.8103" lon="1.90436">
        <ele>707</ele>
        <time>2026-07-08T14:37:07.000Z</time>
      </trkpt>
      <trkpt lat="45.81032" lon="1.90438">
        <ele>707.4</ele>
        <time>2026-07-08T14:37:08.000Z</time>
      </trkpt>
      <trkpt lat="45.81034" lon="1.9044">
        <ele>708.4</ele>
        <time>2026-07-08T14:37:09.000Z</time>
      </trkpt>
      <trkpt lat="45.81036" lon="1.90442">
        <ele>707.9</ele>
        <time>2026-07-08T14:37:10.000Z</time>
      </trkpt>
      <trkpt lat="45.81038" lon="1.90442">
        <ele>708.6</ele>
        <time>2026-07-08T14:37:11.000Z</time>
      </trkpt>
      <trkpt lat="45.8104" lon="1.90444">
        <ele>708.9</ele>
        <time>2026-07-08T14:37:12.000Z</time>
      </trkpt>
      <trkpt lat="45.81043" lon="1.90446">
        <ele>708.1</ele>
        <time>2026-07-08T14:37:13.000Z</time>
      </trkpt>
      <trkpt lat="45.81045" lon="1.90447">
        <ele>708.2</ele>
        <time>2026-07-08T14:37:14.000Z</time>
      </trkpt>
      <trkpt lat="45.81048" lon="1.90448">
        <ele>707.7</ele>
        <time>2026-07-08T14:37:15.000Z</time>
      </trkpt>
      <trkpt lat="45.81051" lon="1.90449">
        <ele>707.8</ele>
        <time>2026-07-08T14:37:16.000Z</time>
      </trkpt>
      <trkpt lat="45.81054" lon="1.9045">
        <ele>707.7</ele>
        <time>2026-07-08T14:37:17.000Z</time>
      </trkpt>
      <trkpt lat="45.81056" lon="1.9045">
        <ele>707.6</ele>
        <time>2026-07-08T14:37:18.000Z</time>
      </trkpt>
      <trkpt lat="45.81058" lon="1.90452">
        <ele>707.1</ele>
        <time>2026-07-08T14:37:19.000Z</time>
      </trkpt>
      <trkpt lat="45.81061" lon="1.90453">
        <ele>705.6</ele>
        <time>2026-07-08T14:37:20.000Z</time>
      </trkpt>
      <trkpt lat="45.81064" lon="1.90456">
        <ele>705.1</ele>
        <time>2026-07-08T14:37:21.000Z</time>
      </trkpt>
      <trkpt lat="45.81066" lon="1.90457">
        <ele>704.7</ele>
        <time>2026-07-08T14:37:22.000Z</time>
      </trkpt>
      <trkpt lat="45.81068" lon="1.90459">
        <ele>704.9</ele>
        <time>2026-07-08T14:37:23.000Z</time>
      </trkpt>
      <trkpt lat="45.8107" lon="1.90462">
        <ele>704</ele>
        <time>2026-07-08T14:37:24.000Z</time>
      </trkpt>
      <trkpt lat="45.81072" lon="1.90465">
        <ele>704.1</ele>
        <time>2026-07-08T14:37:25.000Z</time>
      </trkpt>
      <trkpt lat="45.81074" lon="1.90468">
        <ele>703.7</ele>
        <time>2026-07-08T14:37:26.000Z</time>
      </trkpt>
      <trkpt lat="45.81077" lon="1.9047">
        <ele>702.8</ele>
        <time>2026-07-08T14:37:27.000Z</time>
      </trkpt>
      <trkpt lat="45.81079" lon="1.90472">
        <ele>703.4</ele>
        <time>2026-07-08T14:37:28.000Z</time>
      </trkpt>
      <trkpt lat="45.81082" lon="1.90475">
        <ele>704.6</ele>
        <time>2026-07-08T14:37:29.000Z</time>
      </trkpt>
      <trkpt lat="45.81085" lon="1.90478">
        <ele>704.5</ele>
        <time>2026-07-08T14:37:30.000Z</time>
      </trkpt>
      <trkpt lat="45.81089" lon="1.90481">
        <ele>704.3</ele>
        <time>2026-07-08T14:37:31.000Z</time>
      </trkpt>
      <trkpt lat="45.81091" lon="1.90484">
        <ele>704.2</ele>
        <time>2026-07-08T14:37:32.000Z</time>
      </trkpt>
      <trkpt lat="45.81094" lon="1.90485">
        <ele>704.1</ele>
        <time>2026-07-08T14:37:33.000Z</time>
      </trkpt>
      <trkpt lat="45.81098" lon="1.90487">
        <ele>704.1</ele>
        <time>2026-07-08T14:37:34.000Z</time>
      </trkpt>
      <trkpt lat="45.81101" lon="1.90488">
        <ele>704.8</ele>
        <time>2026-07-08T14:37:35.000Z</time>
      </trkpt>
      <trkpt lat="45.81105" lon="1.90489">
        <ele>706.1</ele>
        <time>2026-07-08T14:37:36.000Z</time>
      </trkpt>
      <trkpt lat="45.81108" lon="1.9049">
        <ele>705.3</ele>
        <time>2026-07-08T14:37:37.000Z</time>
      </trkpt>
      <trkpt lat="45.81112" lon="1.9049">
        <ele>704.6</ele>
        <time>2026-07-08T14:37:38.000Z</time>
      </trkpt>
      <trkpt lat="45.81115" lon="1.90489">
        <ele>703.9</ele>
        <time>2026-07-08T14:37:39.000Z</time>
      </trkpt>
      <trkpt lat="45.81119" lon="1.90489">
        <ele>703.3</ele>
        <time>2026-07-08T14:37:40.000Z</time>
      </trkpt>
      <trkpt lat="45.81122" lon="1.90489">
        <ele>702.8</ele>
        <time>2026-07-08T14:37:41.000Z</time>
      </trkpt>
      <trkpt lat="45.81126" lon="1.90489">
        <ele>702.9</ele>
        <time>2026-07-08T14:37:42.000Z</time>
      </trkpt>
      <trkpt lat="45.81129" lon="1.90489">
        <ele>704</ele>
        <time>2026-07-08T14:37:43.000Z</time>
      </trkpt>
      <trkpt lat="45.81133" lon="1.90491">
        <ele>703.6</ele>
        <time>2026-07-08T14:37:44.000Z</time>
      </trkpt>
      <trkpt lat="45.81136" lon="1.90493">
        <ele>703.8</ele>
        <time>2026-07-08T14:37:45.000Z</time>
      </trkpt>
      <trkpt lat="45.81139" lon="1.90495">
        <ele>703.4</ele>
        <time>2026-07-08T14:37:46.000Z</time>
      </trkpt>
      <trkpt lat="45.81143" lon="1.90498">
        <ele>703.5</ele>
        <time>2026-07-08T14:37:47.000Z</time>
      </trkpt>
      <trkpt lat="45.81147" lon="1.90499">
        <ele>703.1</ele>
        <time>2026-07-08T14:37:48.000Z</time>
      </trkpt>
      <trkpt lat="45.81151" lon="1.90501">
        <ele>703.6</ele>
        <time>2026-07-08T14:37:49.000Z</time>
      </trkpt>
      <trkpt lat="45.81154" lon="1.90502">
        <ele>703</ele>
        <time>2026-07-08T14:37:50.000Z</time>
      </trkpt>
      <trkpt lat="45.81156" lon="1.90501">
        <ele>703.9</ele>
        <time>2026-07-08T14:37:51.000Z</time>
      </trkpt>
      <trkpt lat="45.81157" lon="1.90501">
        <ele>704</ele>
        <time>2026-07-08T14:37:52.000Z</time>
      </trkpt>
      <trkpt lat="45.81159" lon="1.90501">
        <ele>704.2</ele>
        <time>2026-07-08T14:37:53.000Z</time>
      </trkpt>
      <trkpt lat="45.81158" lon="1.90506">
        <ele>702.9</ele>
        <time>2026-07-08T14:37:54.000Z</time>
      </trkpt>
      <trkpt lat="45.81158" lon="1.90508">
        <ele>701</ele>
        <time>2026-07-08T14:37:55.000Z</time>
      </trkpt>
      <trkpt lat="45.81158" lon="1.90509">
        <ele>701.6</ele>
        <time>2026-07-08T14:37:56.000Z</time>
      </trkpt>
      <trkpt lat="45.81159" lon="1.9051">
        <ele>703</ele>
        <time>2026-07-08T14:37:57.000Z</time>
      </trkpt>
      <trkpt lat="45.81161" lon="1.9051">
        <ele>704.7</ele>
        <time>2026-07-08T14:37:58.000Z</time>
      </trkpt>
      <trkpt lat="45.81161" lon="1.9051">
        <ele>703.8</ele>
        <time>2026-07-08T14:37:59.000Z</time>
      </trkpt>
      <trkpt lat="45.81162" lon="1.90512">
        <ele>704</ele>
        <time>2026-07-08T14:38:00.000Z</time>
      </trkpt>
      <trkpt lat="45.81161" lon="1.90511">
        <ele>703.8</ele>
        <time>2026-07-08T14:38:01.000Z</time>
      </trkpt>
      <trkpt lat="45.81161" lon="1.9051">
        <ele>703.8</ele>
        <time>2026-07-08T14:38:02.000Z</time>
      </trkpt>
      <trkpt lat="45.81161" lon="1.9051">
        <ele>704.2</ele>
        <time>2026-07-08T14:38:03.000Z</time>
      </trkpt>
      <trkpt lat="45.81161" lon="1.9051">
        <ele>704.2</ele>
        <time>2026-07-08T14:38:04.000Z</time>
      </trkpt>
      <trkpt lat="45.81161" lon="1.9051">
        <ele>703.9</ele>
        <time>2026-07-08T14:38:05.000Z</time>
      </trkpt>
      <trkpt lat="45.81161" lon="1.9051">
        <ele>703.9</ele>
        <time>2026-07-08T14:38:06.000Z</time>
      </trkpt>
      <trkpt lat="45.81161" lon="1.9051">
        <ele>703.9</ele>
        <time>2026-07-08T14:38:07.000Z</time>
      </trkpt>
      <trkpt lat="45.81162" lon="1.9051">
        <ele>704.8</ele>
        <time>2026-07-08T14:38:08.000Z</time>
      </trkpt>
      <trkpt lat="45.81162" lon="1.90511">
        <ele>707.3</ele>
        <time>2026-07-08T14:38:09.000Z</time>
      </trkpt>
      <trkpt lat="45.81163" lon="1.90511">
        <ele>707</ele>
        <time>2026-07-08T14:38:10.000Z</time>
      </trkpt>
      <trkpt lat="45.81164" lon="1.90511">
        <ele>707</ele>
        <time>2026-07-08T14:38:11.000Z</time>
      </trkpt>
      <trkpt lat="45.81165" lon="1.90512">
        <ele>707</ele>
        <time>2026-07-08T14:38:12.000Z</time>
      </trkpt>
      <trkpt lat="45.81166" lon="1.90512">
        <ele>707.1</ele>
        <time>2026-07-08T14:38:13.000Z</time>
      </trkpt>
      <trkpt lat="45.81167" lon="1.90512">
        <ele>707.2</ele>
        <time>2026-07-08T14:38:14.000Z</time>
      </trkpt>
      <trkpt lat="45.81168" lon="1.90511">
        <ele>707.3</ele>
        <time>2026-07-08T14:38:15.000Z</time>
      </trkpt>
      <trkpt lat="45.81169" lon="1.9051">
        <ele>705.2</ele>
        <time>2026-07-08T14:38:16.000Z</time>
      </trkpt>
      <trkpt lat="45.81169" lon="1.90509">
        <ele>705.4</ele>
        <time>2026-07-08T14:38:17.000Z</time>
      </trkpt>
      <trkpt lat="45.81169" lon="1.90509">
        <ele>705.4</ele>
        <time>2026-07-08T14:38:18.000Z</time>
      </trkpt>
      <trkpt lat="45.81169" lon="1.90509">
        <ele>705.4</ele>
        <time>2026-07-08T14:38:19.000Z</time>
      </trkpt>
      <trkpt lat="45.81169" lon="1.90509">
        <ele>705.4</ele>
        <time>2026-07-08T14:38:20.000Z</time>
      </trkpt>
      <trkpt lat="45.8117" lon="1.90508">
        <ele>705.1</ele>
        <time>2026-07-08T14:38:21.000Z</time>
      </trkpt>
      <trkpt lat="45.81171" lon="1.90508">
        <ele>705</ele>
        <time>2026-07-08T14:38:22.000Z</time>
      </trkpt>
      <trkpt lat="45.81173" lon="1.90508">
        <ele>705.3</ele>
        <time>2026-07-08T14:38:23.000Z</time>
      </trkpt>
      <trkpt lat="45.81175" lon="1.90508">
        <ele>704.8</ele>
        <time>2026-07-08T14:38:24.000Z</time>
      </trkpt>
      <trkpt lat="45.81177" lon="1.90508">
        <ele>703.7</ele>
        <time>2026-07-08T14:38:25.000Z</time>
      </trkpt>
      <trkpt lat="45.81179" lon="1.90508">
        <ele>703.3</ele>
        <time>2026-07-08T14:38:26.000Z</time>
      </trkpt>
      <trkpt lat="45.8118" lon="1.90509">
        <ele>704.2</ele>
        <time>2026-07-08T14:38:27.000Z</time>
      </trkpt>
      <trkpt lat="45.81182" lon="1.9051">
        <ele>705</ele>
        <time>2026-07-08T14:38:28.000Z</time>
      </trkpt>
      <trkpt lat="45.81183" lon="1.90511">
        <ele>704.7</ele>
        <time>2026-07-08T14:38:29.000Z</time>
      </trkpt>
      <trkpt lat="45.81185" lon="1.90512">
        <ele>704.7</ele>
        <time>2026-07-08T14:38:30.000Z</time>
      </trkpt>
      <trkpt lat="45.81187" lon="1.90514">
        <ele>704.5</ele>
        <time>2026-07-08T14:38:31.000Z</time>
      </trkpt>
      <trkpt lat="45.81189" lon="1.90515">
        <ele>705.1</ele>
        <time>2026-07-08T14:38:32.000Z</time>
      </trkpt>
      <trkpt lat="45.8119" lon="1.90516">
        <ele>705</ele>
        <time>2026-07-08T14:38:33.000Z</time>
      </trkpt>
      <trkpt lat="45.81192" lon="1.90517">
        <ele>704.6</ele>
        <time>2026-07-08T14:38:34.000Z</time>
      </trkpt>
      <trkpt lat="45.81194" lon="1.90518">
        <ele>704.7</ele>
        <time>2026-07-08T14:38:35.000Z</time>
      </trkpt>
      <trkpt lat="45.81196" lon="1.90518">
        <ele>704.3</ele>
        <time>2026-07-08T14:38:36.000Z</time>
      </trkpt>
      <trkpt lat="45.81198" lon="1.90519">
        <ele>704.2</ele>
        <time>2026-07-08T14:38:37.000Z</time>
      </trkpt>
      <trkpt lat="45.812" lon="1.9052">
        <ele>703.8</ele>
        <time>2026-07-08T14:38:38.000Z</time>
      </trkpt>
      <trkpt lat="45.81202" lon="1.90521">
        <ele>702.4</ele>
        <time>2026-07-08T14:38:39.000Z</time>
      </trkpt>
      <trkpt lat="45.81204" lon="1.90522">
        <ele>703</ele>
        <time>2026-07-08T14:38:40.000Z</time>
      </trkpt>
      <trkpt lat="45.81206" lon="1.90523">
        <ele>703.2</ele>
        <time>2026-07-08T14:38:41.000Z</time>
      </trkpt>
      <trkpt lat="45.81208" lon="1.90523">
        <ele>704.4</ele>
        <time>2026-07-08T14:38:42.000Z</time>
      </trkpt>
      <trkpt lat="45.8121" lon="1.90523">
        <ele>705.3</ele>
        <time>2026-07-08T14:38:43.000Z</time>
      </trkpt>
      <trkpt lat="45.81212" lon="1.90524">
        <ele>704.2</ele>
        <time>2026-07-08T14:38:44.000Z</time>
      </trkpt>
      <trkpt lat="45.81213" lon="1.90524">
        <ele>704.7</ele>
        <time>2026-07-08T14:38:45.000Z</time>
      </trkpt>
      <trkpt lat="45.81215" lon="1.90525">
        <ele>704.7</ele>
        <time>2026-07-08T14:38:46.000Z</time>
      </trkpt>
      <trkpt lat="45.81216" lon="1.90527">
        <ele>705.2</ele>
        <time>2026-07-08T14:38:47.000Z</time>
      </trkpt>
      <trkpt lat="45.81218" lon="1.9053">
        <ele>705.3</ele>
        <time>2026-07-08T14:38:48.000Z</time>
      </trkpt>
      <trkpt lat="45.8122" lon="1.90531">
        <ele>704.5</ele>
        <time>2026-07-08T14:38:49.000Z</time>
      </trkpt>
      <trkpt lat="45.81221" lon="1.90532">
        <ele>705.3</ele>
        <time>2026-07-08T14:38:50.000Z</time>
      </trkpt>
      <trkpt lat="45.81223" lon="1.90532">
        <ele>704.6</ele>
        <time>2026-07-08T14:38:51.000Z</time>
      </trkpt>
      <trkpt lat="45.81225" lon="1.90534">
        <ele>703.6</ele>
        <time>2026-07-08T14:38:52.000Z</time>
      </trkpt>
      <trkpt lat="45.81227" lon="1.90535">
        <ele>704.5</ele>
        <time>2026-07-08T14:38:53.000Z</time>
      </trkpt>
      <trkpt lat="45.81229" lon="1.90537">
        <ele>704.4</ele>
        <time>2026-07-08T14:38:54.000Z</time>
      </trkpt>
      <trkpt lat="45.81231" lon="1.90539">
        <ele>704.9</ele>
        <time>2026-07-08T14:38:55.000Z</time>
      </trkpt>
      <trkpt lat="45.81233" lon="1.90541">
        <ele>704.7</ele>
        <time>2026-07-08T14:38:56.000Z</time>
      </trkpt>
      <trkpt lat="45.81235" lon="1.90542">
        <ele>704.7</ele>
        <time>2026-07-08T14:38:57.000Z</time>
      </trkpt>
      <trkpt lat="45.81237" lon="1.90544">
        <ele>704.5</ele>
        <time>2026-07-08T14:38:58.000Z</time>
      </trkpt>
      <trkpt lat="45.81239" lon="1.90546">
        <ele>705.7</ele>
        <time>2026-07-08T14:38:59.000Z</time>
      </trkpt>
      <trkpt lat="45.8124" lon="1.90548">
        <ele>705.5</ele>
        <time>2026-07-08T14:39:00.000Z</time>
      </trkpt>
      <trkpt lat="45.81242" lon="1.90549">
        <ele>705.7</ele>
        <time>2026-07-08T14:39:01.000Z</time>
      </trkpt>
      <trkpt lat="45.81243" lon="1.90551">
        <ele>705.1</ele>
        <time>2026-07-08T14:39:02.000Z</time>
      </trkpt>
      <trkpt lat="45.81246" lon="1.90553">
        <ele>705.7</ele>
        <time>2026-07-08T14:39:03.000Z</time>
      </trkpt>
      <trkpt lat="45.81248" lon="1.90554">
        <ele>706</ele>
        <time>2026-07-08T14:39:04.000Z</time>
      </trkpt>
      <trkpt lat="45.8125" lon="1.90555">
        <ele>705.5</ele>
        <time>2026-07-08T14:39:05.000Z</time>
      </trkpt>
      <trkpt lat="45.81252" lon="1.90557">
        <ele>705.1</ele>
        <time>2026-07-08T14:39:06.000Z</time>
      </trkpt>
      <trkpt lat="45.81254" lon="1.90559">
        <ele>704.6</ele>
        <time>2026-07-08T14:39:07.000Z</time>
      </trkpt>
      <trkpt lat="45.81256" lon="1.90561">
        <ele>705.2</ele>
        <time>2026-07-08T14:39:08.000Z</time>
      </trkpt>
      <trkpt lat="45.81258" lon="1.90562">
        <ele>706.3</ele>
        <time>2026-07-08T14:39:09.000Z</time>
      </trkpt>
      <trkpt lat="45.81259" lon="1.90564">
        <ele>706.2</ele>
        <time>2026-07-08T14:39:10.000Z</time>
      </trkpt>
      <trkpt lat="45.81261" lon="1.90565">
        <ele>705.8</ele>
        <time>2026-07-08T14:39:11.000Z</time>
      </trkpt>
      <trkpt lat="45.81262" lon="1.90566">
        <ele>706.1</ele>
        <time>2026-07-08T14:39:12.000Z</time>
      </trkpt>
      <trkpt lat="45.81264" lon="1.90568">
        <ele>706.6</ele>
        <time>2026-07-08T14:39:13.000Z</time>
      </trkpt>
      <trkpt lat="45.81266" lon="1.90571">
        <ele>707.1</ele>
        <time>2026-07-08T14:39:14.000Z</time>
      </trkpt>
      <trkpt lat="45.81269" lon="1.90574">
        <ele>706.7</ele>
        <time>2026-07-08T14:39:15.000Z</time>
      </trkpt>
      <trkpt lat="45.81274" lon="1.90578">
        <ele>705.3</ele>
        <time>2026-07-08T14:39:16.000Z</time>
      </trkpt>
      <trkpt lat="45.81278" lon="1.90582">
        <ele>703.6</ele>
        <time>2026-07-08T14:39:17.000Z</time>
      </trkpt>
      <trkpt lat="45.81283" lon="1.90584">
        <ele>704.6</ele>
        <time>2026-07-08T14:39:18.000Z</time>
      </trkpt>
      <trkpt lat="45.81287" lon="1.90588">
        <ele>704.5</ele>
        <time>2026-07-08T14:39:19.000Z</time>
      </trkpt>
      <trkpt lat="45.81292" lon="1.90591">
        <ele>705.7</ele>
        <time>2026-07-08T14:39:20.000Z</time>
      </trkpt>
      <trkpt lat="45.81296" lon="1.90594">
        <ele>706.9</ele>
        <time>2026-07-08T14:39:21.000Z</time>
      </trkpt>
      <trkpt lat="45.813" lon="1.90597">
        <ele>707.5</ele>
        <time>2026-07-08T14:39:22.000Z</time>
      </trkpt>
      <trkpt lat="45.81302" lon="1.90599">
        <ele>707.7</ele>
        <time>2026-07-08T14:39:23.000Z</time>
      </trkpt>
      <trkpt lat="45.81305" lon="1.90602">
        <ele>707.6</ele>
        <time>2026-07-08T14:39:24.000Z</time>
      </trkpt>
      <trkpt lat="45.81308" lon="1.90604">
        <ele>707.3</ele>
        <time>2026-07-08T14:39:25.000Z</time>
      </trkpt>
      <trkpt lat="45.81311" lon="1.90604">
        <ele>707.8</ele>
        <time>2026-07-08T14:39:26.000Z</time>
      </trkpt>
      <trkpt lat="45.81314" lon="1.90604">
        <ele>708.2</ele>
        <time>2026-07-08T14:39:27.000Z</time>
      </trkpt>
      <trkpt lat="45.81319" lon="1.90604">
        <ele>708.5</ele>
        <time>2026-07-08T14:39:28.000Z</time>
      </trkpt>
      <trkpt lat="45.81323" lon="1.90605">
        <ele>706.4</ele>
        <time>2026-07-08T14:39:29.000Z</time>
      </trkpt>
      <trkpt lat="45.81324" lon="1.90607">
        <ele>708.2</ele>
        <time>2026-07-08T14:39:30.000Z</time>
      </trkpt>
      <trkpt lat="45.81326" lon="1.90609">
        <ele>708.9</ele>
        <time>2026-07-08T14:39:31.000Z</time>
      </trkpt>
      <trkpt lat="45.81327" lon="1.9061">
        <ele>708.6</ele>
        <time>2026-07-08T14:39:32.000Z</time>
      </trkpt>
      <trkpt lat="45.81328" lon="1.90612">
        <ele>708.7</ele>
        <time>2026-07-08T14:39:33.000Z</time>
      </trkpt>
      <trkpt lat="45.8133" lon="1.90612">
        <ele>709.2</ele>
        <time>2026-07-08T14:39:34.000Z</time>
      </trkpt>
      <trkpt lat="45.81331" lon="1.90613">
        <ele>709.6</ele>
        <time>2026-07-08T14:39:35.000Z</time>
      </trkpt>
      <trkpt lat="45.81333" lon="1.90614">
        <ele>710.2</ele>
        <time>2026-07-08T14:39:36.000Z</time>
      </trkpt>
      <trkpt lat="45.81334" lon="1.90614">
        <ele>708.5</ele>
        <time>2026-07-08T14:39:37.000Z</time>
      </trkpt>
      <trkpt lat="45.81335" lon="1.90615">
        <ele>708</ele>
        <time>2026-07-08T14:39:38.000Z</time>
      </trkpt>
      <trkpt lat="45.81336" lon="1.90616">
        <ele>708.1</ele>
        <time>2026-07-08T14:39:39.000Z</time>
      </trkpt>
      <trkpt lat="45.81338" lon="1.90616">
        <ele>707.7</ele>
        <time>2026-07-08T14:39:40.000Z</time>
      </trkpt>
      <trkpt lat="45.81339" lon="1.90617">
        <ele>707.3</ele>
        <time>2026-07-08T14:39:41.000Z</time>
      </trkpt>
      <trkpt lat="45.8134" lon="1.90618">
        <ele>708</ele>
        <time>2026-07-08T14:39:42.000Z</time>
      </trkpt>
      <trkpt lat="45.81341" lon="1.90619">
        <ele>707.9</ele>
        <time>2026-07-08T14:39:43.000Z</time>
      </trkpt>
      <trkpt lat="45.81343" lon="1.9062">
        <ele>708</ele>
        <time>2026-07-08T14:39:44.000Z</time>
      </trkpt>
      <trkpt lat="45.81345" lon="1.90621">
        <ele>706.7</ele>
        <time>2026-07-08T14:39:45.000Z</time>
      </trkpt>
      <trkpt lat="45.81346" lon="1.90622">
        <ele>706.3</ele>
        <time>2026-07-08T14:39:46.000Z</time>
      </trkpt>
      <trkpt lat="45.81348" lon="1.90623">
        <ele>706</ele>
        <time>2026-07-08T14:39:47.000Z</time>
      </trkpt>
      <trkpt lat="45.8135" lon="1.90624">
        <ele>706.8</ele>
        <time>2026-07-08T14:39:48.000Z</time>
      </trkpt>
      <trkpt lat="45.81351" lon="1.90625">
        <ele>706.2</ele>
        <time>2026-07-08T14:39:49.000Z</time>
      </trkpt>
      <trkpt lat="45.81353" lon="1.90626">
        <ele>705.8</ele>
        <time>2026-07-08T14:39:50.000Z</time>
      </trkpt>
      <trkpt lat="45.81355" lon="1.90627">
        <ele>706</ele>
        <time>2026-07-08T14:39:51.000Z</time>
      </trkpt>
      <trkpt lat="45.81356" lon="1.90627">
        <ele>706</ele>
        <time>2026-07-08T14:39:52.000Z</time>
      </trkpt>
      <trkpt lat="45.81358" lon="1.9063">
        <ele>706.8</ele>
        <time>2026-07-08T14:39:53.000Z</time>
      </trkpt>
      <trkpt lat="45.8136" lon="1.90631">
        <ele>706.7</ele>
        <time>2026-07-08T14:39:54.000Z</time>
      </trkpt>
      <trkpt lat="45.81361" lon="1.90633">
        <ele>706.1</ele>
        <time>2026-07-08T14:39:55.000Z</time>
      </trkpt>
      <trkpt lat="45.81362" lon="1.90634">
        <ele>706.2</ele>
        <time>2026-07-08T14:39:56.000Z</time>
      </trkpt>
      <trkpt lat="45.81363" lon="1.90635">
        <ele>706.3</ele>
        <time>2026-07-08T14:39:57.000Z</time>
      </trkpt>
      <trkpt lat="45.81365" lon="1.90637">
        <ele>706</ele>
        <time>2026-07-08T14:39:58.000Z</time>
      </trkpt>
      <trkpt lat="45.81367" lon="1.90639">
        <ele>706</ele>
        <time>2026-07-08T14:39:59.000Z</time>
      </trkpt>
      <trkpt lat="45.8137" lon="1.90641">
        <ele>705.4</ele>
        <time>2026-07-08T14:40:00.000Z</time>
      </trkpt>
      <trkpt lat="45.81373" lon="1.90644">
        <ele>706.1</ele>
        <time>2026-07-08T14:40:01.000Z</time>
      </trkpt>
      <trkpt lat="45.81376" lon="1.90647">
        <ele>705.6</ele>
        <time>2026-07-08T14:40:02.000Z</time>
      </trkpt>
      <trkpt lat="45.81379" lon="1.9065">
        <ele>706.1</ele>
        <time>2026-07-08T14:40:03.000Z</time>
      </trkpt>
      <trkpt lat="45.8138" lon="1.90651">
        <ele>704.8</ele>
        <time>2026-07-08T14:40:04.000Z</time>
      </trkpt>
      <trkpt lat="45.8138" lon="1.90652">
        <ele>704.5</ele>
        <time>2026-07-08T14:40:05.000Z</time>
      </trkpt>
      <trkpt lat="45.81382" lon="1.90653">
        <ele>705.6</ele>
        <time>2026-07-08T14:40:06.000Z</time>
      </trkpt>
      <trkpt lat="45.81384" lon="1.90655">
        <ele>705.4</ele>
        <time>2026-07-08T14:40:07.000Z</time>
      </trkpt>
      <trkpt lat="45.81386" lon="1.90657">
        <ele>704.5</ele>
        <time>2026-07-08T14:40:08.000Z</time>
      </trkpt>
      <trkpt lat="45.81388" lon="1.90659">
        <ele>704.4</ele>
        <time>2026-07-08T14:40:09.000Z</time>
      </trkpt>
      <trkpt lat="45.8139" lon="1.90661">
        <ele>704</ele>
        <time>2026-07-08T14:40:10.000Z</time>
      </trkpt>
      <trkpt lat="45.81392" lon="1.90664">
        <ele>704.4</ele>
        <time>2026-07-08T14:40:11.000Z</time>
      </trkpt>
      <trkpt lat="45.81394" lon="1.90667">
        <ele>704.8</ele>
        <time>2026-07-08T14:40:12.000Z</time>
      </trkpt>
      <trkpt lat="45.81396" lon="1.90669">
        <ele>703.4</ele>
        <time>2026-07-08T14:40:13.000Z</time>
      </trkpt>
      <trkpt lat="45.81399" lon="1.90672">
        <ele>702.3</ele>
        <time>2026-07-08T14:40:14.000Z</time>
      </trkpt>
      <trkpt lat="45.81401" lon="1.90674">
        <ele>701.7</ele>
        <time>2026-07-08T14:40:15.000Z</time>
      </trkpt>
      <trkpt lat="45.81404" lon="1.90676">
        <ele>701.3</ele>
        <time>2026-07-08T14:40:16.000Z</time>
      </trkpt>
      <trkpt lat="45.81405" lon="1.90678">
        <ele>701.5</ele>
        <time>2026-07-08T14:40:17.000Z</time>
      </trkpt>
      <trkpt lat="45.81407" lon="1.9068">
        <ele>702</ele>
        <time>2026-07-08T14:40:18.000Z</time>
      </trkpt>
      <trkpt lat="45.8141" lon="1.90682">
        <ele>703.7</ele>
        <time>2026-07-08T14:40:19.000Z</time>
      </trkpt>
      <trkpt lat="45.81413" lon="1.90685">
        <ele>703</ele>
        <time>2026-07-08T14:40:20.000Z</time>
      </trkpt>
      <trkpt lat="45.81416" lon="1.90689">
        <ele>703.5</ele>
        <time>2026-07-08T14:40:21.000Z</time>
      </trkpt>
      <trkpt lat="45.81421" lon="1.90692">
        <ele>704.3</ele>
        <time>2026-07-08T14:40:22.000Z</time>
      </trkpt>
      <trkpt lat="45.81426" lon="1.90696">
        <ele>702.9</ele>
        <time>2026-07-08T14:40:23.000Z</time>
      </trkpt>
      <trkpt lat="45.81432" lon="1.90699">
        <ele>703.6</ele>
        <time>2026-07-08T14:40:24.000Z</time>
      </trkpt>
      <trkpt lat="45.81437" lon="1.907">
        <ele>703.9</ele>
        <time>2026-07-08T14:40:25.000Z</time>
      </trkpt>
      <trkpt lat="45.81441" lon="1.90703">
        <ele>703.5</ele>
        <time>2026-07-08T14:40:26.000Z</time>
      </trkpt>
      <trkpt lat="45.81446" lon="1.90705">
        <ele>702.2</ele>
        <time>2026-07-08T14:40:27.000Z</time>
      </trkpt>
      <trkpt lat="45.81452" lon="1.90706">
        <ele>702.7</ele>
        <time>2026-07-08T14:40:28.000Z</time>
      </trkpt>
      <trkpt lat="45.81459" lon="1.90707">
        <ele>702.9</ele>
        <time>2026-07-08T14:40:29.000Z</time>
      </trkpt>
      <trkpt lat="45.81465" lon="1.90707">
        <ele>703.2</ele>
        <time>2026-07-08T14:40:30.000Z</time>
      </trkpt>
      <trkpt lat="45.81468" lon="1.90707">
        <ele>703.6</ele>
        <time>2026-07-08T14:40:31.000Z</time>
      </trkpt>
      <trkpt lat="45.81472" lon="1.90708">
        <ele>704.8</ele>
        <time>2026-07-08T14:40:32.000Z</time>
      </trkpt>
      <trkpt lat="45.81477" lon="1.9071">
        <ele>705.1</ele>
        <time>2026-07-08T14:40:33.000Z</time>
      </trkpt>
      <trkpt lat="45.81482" lon="1.90713">
        <ele>705.9</ele>
        <time>2026-07-08T14:40:34.000Z</time>
      </trkpt>
      <trkpt lat="45.81486" lon="1.90714">
        <ele>707.1</ele>
        <time>2026-07-08T14:40:35.000Z</time>
      </trkpt>
      <trkpt lat="45.81491" lon="1.90716">
        <ele>707.3</ele>
        <time>2026-07-08T14:40:36.000Z</time>
      </trkpt>
      <trkpt lat="45.81495" lon="1.90717">
        <ele>707.5</ele>
        <time>2026-07-08T14:40:37.000Z</time>
      </trkpt>
      <trkpt lat="45.81498" lon="1.9072">
        <ele>706.7</ele>
        <time>2026-07-08T14:40:38.000Z</time>
      </trkpt>
      <trkpt lat="45.81501" lon="1.90723">
        <ele>707.1</ele>
        <time>2026-07-08T14:40:39.000Z</time>
      </trkpt>
      <trkpt lat="45.81505" lon="1.90726">
        <ele>706.4</ele>
        <time>2026-07-08T14:40:40.000Z</time>
      </trkpt>
      <trkpt lat="45.81508" lon="1.9073">
        <ele>707.2</ele>
        <time>2026-07-08T14:40:41.000Z</time>
      </trkpt>
      <trkpt lat="45.8151" lon="1.90736">
        <ele>706.3</ele>
        <time>2026-07-08T14:40:42.000Z</time>
      </trkpt>
      <trkpt lat="45.81511" lon="1.90736">
        <ele>706.3</ele>
        <time>2026-07-08T14:40:43.000Z</time>
      </trkpt>
      <trkpt lat="45.81512" lon="1.90734">
        <ele>707.2</ele>
        <time>2026-07-08T14:40:44.000Z</time>
      </trkpt>
      <trkpt lat="45.81513" lon="1.90732">
        <ele>705.7</ele>
        <time>2026-07-08T14:40:45.000Z</time>
      </trkpt>
      <trkpt lat="45.81514" lon="1.90732">
        <ele>706</ele>
        <time>2026-07-08T14:40:46.000Z</time>
      </trkpt>
      <trkpt lat="45.81516" lon="1.90732">
        <ele>706</ele>
        <time>2026-07-08T14:40:47.000Z</time>
      </trkpt>
      <trkpt lat="45.81518" lon="1.90732">
        <ele>706.3</ele>
        <time>2026-07-08T14:40:48.000Z</time>
      </trkpt>
      <trkpt lat="45.8152" lon="1.90732">
        <ele>705.4</ele>
        <time>2026-07-08T14:40:49.000Z</time>
      </trkpt>
      <trkpt lat="45.81521" lon="1.90733">
        <ele>705.1</ele>
        <time>2026-07-08T14:40:50.000Z</time>
      </trkpt>
      <trkpt lat="45.81523" lon="1.90733">
        <ele>704.7</ele>
        <time>2026-07-08T14:40:51.000Z</time>
      </trkpt>
      <trkpt lat="45.81525" lon="1.90733">
        <ele>704.3</ele>
        <time>2026-07-08T14:40:52.000Z</time>
      </trkpt>
      <trkpt lat="45.81527" lon="1.90732">
        <ele>703.8</ele>
        <time>2026-07-08T14:40:53.000Z</time>
      </trkpt>
      <trkpt lat="45.8153" lon="1.90732">
        <ele>703.6</ele>
        <time>2026-07-08T14:40:54.000Z</time>
      </trkpt>
      <trkpt lat="45.81531" lon="1.90731">
        <ele>703.4</ele>
        <time>2026-07-08T14:40:55.000Z</time>
      </trkpt>
      <trkpt lat="45.81533" lon="1.9073">
        <ele>703.6</ele>
        <time>2026-07-08T14:40:56.000Z</time>
      </trkpt>
      <trkpt lat="45.81536" lon="1.90728">
        <ele>703.6</ele>
        <time>2026-07-08T14:40:57.000Z</time>
      </trkpt>
      <trkpt lat="45.81538" lon="1.90726">
        <ele>704</ele>
        <time>2026-07-08T14:40:58.000Z</time>
      </trkpt>
      <trkpt lat="45.8154" lon="1.90725">
        <ele>703.9</ele>
        <time>2026-07-08T14:40:59.000Z</time>
      </trkpt>
      <trkpt lat="45.81541" lon="1.90723">
        <ele>703.7</ele>
        <time>2026-07-08T14:41:00.000Z</time>
      </trkpt>
      <trkpt lat="45.81543" lon="1.90722">
        <ele>703.9</ele>
        <time>2026-07-08T14:41:01.000Z</time>
      </trkpt>
      <trkpt lat="45.81545" lon="1.9072">
        <ele>704</ele>
        <time>2026-07-08T14:41:02.000Z</time>
      </trkpt>
      <trkpt lat="45.81546" lon="1.90719">
        <ele>704</ele>
        <time>2026-07-08T14:41:03.000Z</time>
      </trkpt>
      <trkpt lat="45.81548" lon="1.90718">
        <ele>704.2</ele>
        <time>2026-07-08T14:41:04.000Z</time>
      </trkpt>
      <trkpt lat="45.8155" lon="1.90716">
        <ele>704.3</ele>
        <time>2026-07-08T14:41:05.000Z</time>
      </trkpt>
      <trkpt lat="45.81551" lon="1.90715">
        <ele>704.5</ele>
        <time>2026-07-08T14:41:06.000Z</time>
      </trkpt>
      <trkpt lat="45.81553" lon="1.90714">
        <ele>704.4</ele>
        <time>2026-07-08T14:41:07.000Z</time>
      </trkpt>
      <trkpt lat="45.81554" lon="1.90712">
        <ele>704.5</ele>
        <time>2026-07-08T14:41:08.000Z</time>
      </trkpt>
      <trkpt lat="45.81555" lon="1.90709">
        <ele>704.6</ele>
        <time>2026-07-08T14:41:09.000Z</time>
      </trkpt>
      <trkpt lat="45.81554" lon="1.90706">
        <ele>704.7</ele>
        <time>2026-07-08T14:41:10.000Z</time>
      </trkpt>
      <trkpt lat="45.81554" lon="1.90703">
        <ele>704.5</ele>
        <time>2026-07-08T14:41:11.000Z</time>
      </trkpt>
      <trkpt lat="45.81554" lon="1.90701">
        <ele>704.4</ele>
        <time>2026-07-08T14:41:12.000Z</time>
      </trkpt>
      <trkpt lat="45.81554" lon="1.90698">
        <ele>704.4</ele>
        <time>2026-07-08T14:41:13.000Z</time>
      </trkpt>
      <trkpt lat="45.81553" lon="1.90695">
        <ele>704.4</ele>
        <time>2026-07-08T14:41:14.000Z</time>
      </trkpt>
      <trkpt lat="45.81552" lon="1.90693">
        <ele>704.2</ele>
        <time>2026-07-08T14:41:15.000Z</time>
      </trkpt>
      <trkpt lat="45.8155" lon="1.90691">
        <ele>704.2</ele>
        <time>2026-07-08T14:41:16.000Z</time>
      </trkpt>
      <trkpt lat="45.81549" lon="1.9069">
        <ele>704.3</ele>
        <time>2026-07-08T14:41:17.000Z</time>
      </trkpt>
      <trkpt lat="45.81547" lon="1.9069">
        <ele>704.1</ele>
        <time>2026-07-08T14:41:18.000Z</time>
      </trkpt>
      <trkpt lat="45.81546" lon="1.90688">
        <ele>703.9</ele>
        <time>2026-07-08T14:41:19.000Z</time>
      </trkpt>
      <trkpt lat="45.81546" lon="1.90685">
        <ele>703.8</ele>
        <time>2026-07-08T14:41:20.000Z</time>
      </trkpt>
      <trkpt lat="45.81546" lon="1.90682">
        <ele>703.6</ele>
        <time>2026-07-08T14:41:21.000Z</time>
      </trkpt>
      <trkpt lat="45.81546" lon="1.9068">
        <ele>703.2</ele>
        <time>2026-07-08T14:41:22.000Z</time>
      </trkpt>
      <trkpt lat="45.81546" lon="1.90677">
        <ele>703.7</ele>
        <time>2026-07-08T14:41:23.000Z</time>
      </trkpt>
      <trkpt lat="45.81546" lon="1.90674">
        <ele>704</ele>
        <time>2026-07-08T14:41:24.000Z</time>
      </trkpt>
      <trkpt lat="45.81546" lon="1.90671">
        <ele>704.2</ele>
        <time>2026-07-08T14:41:25.000Z</time>
      </trkpt>
      <trkpt lat="45.81546" lon="1.90669">
        <ele>704.3</ele>
        <time>2026-07-08T14:41:26.000Z</time>
      </trkpt>
      <trkpt lat="45.81545" lon="1.90666">
        <ele>704.3</ele>
        <time>2026-07-08T14:41:27.000Z</time>
      </trkpt>
      <trkpt lat="45.81545" lon="1.90663">
        <ele>704.6</ele>
        <time>2026-07-08T14:41:28.000Z</time>
      </trkpt>
      <trkpt lat="45.81544" lon="1.9066">
        <ele>704.8</ele>
        <time>2026-07-08T14:41:29.000Z</time>
      </trkpt>
      <trkpt lat="45.81544" lon="1.90657">
        <ele>705.2</ele>
        <time>2026-07-08T14:41:30.000Z</time>
      </trkpt>
      <trkpt lat="45.81543" lon="1.90654">
        <ele>705.3</ele>
        <time>2026-07-08T14:41:31.000Z</time>
      </trkpt>
      <trkpt lat="45.81543" lon="1.90651">
        <ele>705.4</ele>
        <time>2026-07-08T14:41:32.000Z</time>
      </trkpt>
      <trkpt lat="45.81543" lon="1.90648">
        <ele>705.3</ele>
        <time>2026-07-08T14:41:33.000Z</time>
      </trkpt>
      <trkpt lat="45.81543" lon="1.90645">
        <ele>705.3</ele>
        <time>2026-07-08T14:41:34.000Z</time>
      </trkpt>
      <trkpt lat="45.81543" lon="1.90642">
        <ele>705.4</ele>
        <time>2026-07-08T14:41:35.000Z</time>
      </trkpt>
      <trkpt lat="45.81542" lon="1.90638">
        <ele>705.5</ele>
        <time>2026-07-08T14:41:36.000Z</time>
      </trkpt>
      <trkpt lat="45.81542" lon="1.90635">
        <ele>705.8</ele>
        <time>2026-07-08T14:41:37.000Z</time>
      </trkpt>
      <trkpt lat="45.81542" lon="1.90631">
        <ele>705.7</ele>
        <time>2026-07-08T14:41:38.000Z</time>
      </trkpt>
      <trkpt lat="45.81542" lon="1.90628">
        <ele>705.7</ele>
        <time>2026-07-08T14:41:39.000Z</time>
      </trkpt>
      <trkpt lat="45.81541" lon="1.90624">
        <ele>705.9</ele>
        <time>2026-07-08T14:41:40.000Z</time>
      </trkpt>
      <trkpt lat="45.81541" lon="1.90622">
        <ele>706.1</ele>
        <time>2026-07-08T14:41:41.000Z</time>
      </trkpt>
      <trkpt lat="45.81541" lon="1.90619">
        <ele>706.4</ele>
        <time>2026-07-08T14:41:42.000Z</time>
      </trkpt>
      <trkpt lat="45.81541" lon="1.90616">
        <ele>706.4</ele>
        <time>2026-07-08T14:41:43.000Z</time>
      </trkpt>
      <trkpt lat="45.81541" lon="1.90612">
        <ele>706.7</ele>
        <time>2026-07-08T14:41:44.000Z</time>
      </trkpt>
      <trkpt lat="45.81541" lon="1.90609">
        <ele>706.8</ele>
        <time>2026-07-08T14:41:45.000Z</time>
      </trkpt>
      <trkpt lat="45.81541" lon="1.90605">
        <ele>707.1</ele>
        <time>2026-07-08T14:41:46.000Z</time>
      </trkpt>
      <trkpt lat="45.81541" lon="1.90602">
        <ele>707.1</ele>
        <time>2026-07-08T14:41:47.000Z</time>
      </trkpt>
      <trkpt lat="45.81541" lon="1.90601">
        <ele>707</ele>
        <time>2026-07-08T14:41:48.000Z</time>
      </trkpt>
      <trkpt lat="45.81542" lon="1.90599">
        <ele>706.6</ele>
        <time>2026-07-08T14:41:49.000Z</time>
      </trkpt>
      <trkpt lat="45.81541" lon="1.90596">
        <ele>706.3</ele>
        <time>2026-07-08T14:41:50.000Z</time>
      </trkpt>
      <trkpt lat="45.81541" lon="1.90593">
        <ele>705.2</ele>
        <time>2026-07-08T14:41:51.000Z</time>
      </trkpt>
      <trkpt lat="45.81541" lon="1.9059">
        <ele>705.4</ele>
        <time>2026-07-08T14:41:52.000Z</time>
      </trkpt>
      <trkpt lat="45.81545" lon="1.90578">
        <ele>707.3</ele>
        <time>2026-07-08T14:41:53.000Z</time>
      </trkpt>
      <trkpt lat="45.81546" lon="1.90574">
        <ele>707.9</ele>
        <time>2026-07-08T14:41:54.000Z</time>
      </trkpt>
      <trkpt lat="45.81547" lon="1.90571">
        <ele>708</ele>
        <time>2026-07-08T14:41:55.000Z</time>
      </trkpt>
      <trkpt lat="45.81548" lon="1.90568">
        <ele>707.9</ele>
        <time>2026-07-08T14:41:56.000Z</time>
      </trkpt>
      <trkpt lat="45.81549" lon="1.90565">
        <ele>708.2</ele>
        <time>2026-07-08T14:41:57.000Z</time>
      </trkpt>
      <trkpt lat="45.8155" lon="1.90562">
        <ele>708.6</ele>
        <time>2026-07-08T14:41:58.000Z</time>
      </trkpt>
      <trkpt lat="45.81551" lon="1.9056">
        <ele>708.5</ele>
        <time>2026-07-08T14:41:59.000Z</time>
      </trkpt>
      <trkpt lat="45.81552" lon="1.90557">
        <ele>708.6</ele>
        <time>2026-07-08T14:42:00.000Z</time>
      </trkpt>
      <trkpt lat="45.81553" lon="1.90555">
        <ele>708.9</ele>
        <time>2026-07-08T14:42:01.000Z</time>
      </trkpt>
      <trkpt lat="45.81553" lon="1.90552">
        <ele>708.9</ele>
        <time>2026-07-08T14:42:02.000Z</time>
      </trkpt>
      <trkpt lat="45.81553" lon="1.9055">
        <ele>709.1</ele>
        <time>2026-07-08T14:42:03.000Z</time>
      </trkpt>
      <trkpt lat="45.81553" lon="1.90547">
        <ele>708.6</ele>
        <time>2026-07-08T14:42:04.000Z</time>
      </trkpt>
      <trkpt lat="45.81552" lon="1.90544">
        <ele>708.6</ele>
        <time>2026-07-08T14:42:05.000Z</time>
      </trkpt>
      <trkpt lat="45.81551" lon="1.90542">
        <ele>708.4</ele>
        <time>2026-07-08T14:42:06.000Z</time>
      </trkpt>
      <trkpt lat="45.8155" lon="1.9054">
        <ele>707.9</ele>
        <time>2026-07-08T14:42:07.000Z</time>
      </trkpt>
      <trkpt lat="45.81549" lon="1.90538">
        <ele>707.4</ele>
        <time>2026-07-08T14:42:08.000Z</time>
      </trkpt>
      <trkpt lat="45.81547" lon="1.90537">
        <ele>707.3</ele>
        <time>2026-07-08T14:42:09.000Z</time>
      </trkpt>
      <trkpt lat="45.81545" lon="1.90536">
        <ele>706.8</ele>
        <time>2026-07-08T14:42:10.000Z</time>
      </trkpt>
      <trkpt lat="45.81543" lon="1.90535">
        <ele>707</ele>
        <time>2026-07-08T14:42:11.000Z</time>
      </trkpt>
      <trkpt lat="45.81542" lon="1.90535">
        <ele>707.2</ele>
        <time>2026-07-08T14:42:12.000Z</time>
      </trkpt>
      <trkpt lat="45.8154" lon="1.90533">
        <ele>707.1</ele>
        <time>2026-07-08T14:42:13.000Z</time>
      </trkpt>
      <trkpt lat="45.81539" lon="1.90531">
        <ele>707.1</ele>
        <time>2026-07-08T14:42:14.000Z</time>
      </trkpt>
      <trkpt lat="45.81539" lon="1.90529">
        <ele>706.2</ele>
        <time>2026-07-08T14:42:15.000Z</time>
      </trkpt>
      <trkpt lat="45.81537" lon="1.90527">
        <ele>706.4</ele>
        <time>2026-07-08T14:42:16.000Z</time>
      </trkpt>
      <trkpt lat="45.81537" lon="1.90526">
        <ele>706.4</ele>
        <time>2026-07-08T14:42:17.000Z</time>
      </trkpt>
      <trkpt lat="45.81536" lon="1.90524">
        <ele>706.5</ele>
        <time>2026-07-08T14:42:18.000Z</time>
      </trkpt>
      <trkpt lat="45.81535" lon="1.90522">
        <ele>706.9</ele>
        <time>2026-07-08T14:42:19.000Z</time>
      </trkpt>
      <trkpt lat="45.81533" lon="1.90521">
        <ele>707.5</ele>
        <time>2026-07-08T14:42:20.000Z</time>
      </trkpt>
      <trkpt lat="45.81532" lon="1.90519">
        <ele>707</ele>
        <time>2026-07-08T14:42:21.000Z</time>
      </trkpt>
      <trkpt lat="45.81531" lon="1.90517">
        <ele>706.7</ele>
        <time>2026-07-08T14:42:22.000Z</time>
      </trkpt>
      <trkpt lat="45.8153" lon="1.90514">
        <ele>706.2</ele>
        <time>2026-07-08T14:42:23.000Z</time>
      </trkpt>
      <trkpt lat="45.81529" lon="1.90512">
        <ele>706.2</ele>
        <time>2026-07-08T14:42:24.000Z</time>
      </trkpt>
      <trkpt lat="45.81527" lon="1.90509">
        <ele>706.2</ele>
        <time>2026-07-08T14:42:25.000Z</time>
      </trkpt>
      <trkpt lat="45.81526" lon="1.90507">
        <ele>706.2</ele>
        <time>2026-07-08T14:42:26.000Z</time>
      </trkpt>
      <trkpt lat="45.81525" lon="1.90504">
        <ele>704.9</ele>
        <time>2026-07-08T14:42:27.000Z</time>
      </trkpt>
      <trkpt lat="45.81525" lon="1.90501">
        <ele>704.6</ele>
        <time>2026-07-08T14:42:28.000Z</time>
      </trkpt>
      <trkpt lat="45.81524" lon="1.90498">
        <ele>705.5</ele>
        <time>2026-07-08T14:42:29.000Z</time>
      </trkpt>
      <trkpt lat="45.81524" lon="1.90495">
        <ele>705.3</ele>
        <time>2026-07-08T14:42:30.000Z</time>
      </trkpt>
      <trkpt lat="45.81524" lon="1.90492">
        <ele>705.6</ele>
        <time>2026-07-08T14:42:31.000Z</time>
      </trkpt>
      <trkpt lat="45.81523" lon="1.90489">
        <ele>705.3</ele>
        <time>2026-07-08T14:42:32.000Z</time>
      </trkpt>
      <trkpt lat="45.81523" lon="1.90486">
        <ele>704</ele>
        <time>2026-07-08T14:42:33.000Z</time>
      </trkpt>
      <trkpt lat="45.81524" lon="1.90482">
        <ele>703.6</ele>
        <time>2026-07-08T14:42:34.000Z</time>
      </trkpt>
      <trkpt lat="45.81524" lon="1.90478">
        <ele>702.6</ele>
        <time>2026-07-08T14:42:35.000Z</time>
      </trkpt>
      <trkpt lat="45.81524" lon="1.90473">
        <ele>703</ele>
        <time>2026-07-08T14:42:36.000Z</time>
      </trkpt>
      <trkpt lat="45.81523" lon="1.90469">
        <ele>703.2</ele>
        <time>2026-07-08T14:42:37.000Z</time>
      </trkpt>
      <trkpt lat="45.81522" lon="1.90464">
        <ele>704.2</ele>
        <time>2026-07-08T14:42:38.000Z</time>
      </trkpt>
      <trkpt lat="45.81521" lon="1.9046">
        <ele>704</ele>
        <time>2026-07-08T14:42:39.000Z</time>
      </trkpt>
      <trkpt lat="45.81521" lon="1.90456">
        <ele>704.4</ele>
        <time>2026-07-08T14:42:40.000Z</time>
      </trkpt>
      <trkpt lat="45.8152" lon="1.90452">
        <ele>705.1</ele>
        <time>2026-07-08T14:42:41.000Z</time>
      </trkpt>
      <trkpt lat="45.81519" lon="1.90447">
        <ele>703.9</ele>
        <time>2026-07-08T14:42:42.000Z</time>
      </trkpt>
      <trkpt lat="45.81519" lon="1.90443">
        <ele>703.7</ele>
        <time>2026-07-08T14:42:43.000Z</time>
      </trkpt>
      <trkpt lat="45.81518" lon="1.90439">
        <ele>704</ele>
        <time>2026-07-08T14:42:44.000Z</time>
      </trkpt>
      <trkpt lat="45.81518" lon="1.90435">
        <ele>704.7</ele>
        <time>2026-07-08T14:42:45.000Z</time>
      </trkpt>
      <trkpt lat="45.81518" lon="1.90431">
        <ele>704.4</ele>
        <time>2026-07-08T14:42:46.000Z</time>
      </trkpt>
      <trkpt lat="45.81517" lon="1.90426">
        <ele>704.1</ele>
        <time>2026-07-08T14:42:47.000Z</time>
      </trkpt>
      <trkpt lat="45.81517" lon="1.90422">
        <ele>704.2</ele>
        <time>2026-07-08T14:42:48.000Z</time>
      </trkpt>
      <trkpt lat="45.81516" lon="1.9042">
        <ele>704.2</ele>
        <time>2026-07-08T14:42:49.000Z</time>
      </trkpt>
      <trkpt lat="45.81515" lon="1.90416">
        <ele>705.4</ele>
        <time>2026-07-08T14:42:50.000Z</time>
      </trkpt>
      <trkpt lat="45.81514" lon="1.90412">
        <ele>703.8</ele>
        <time>2026-07-08T14:42:51.000Z</time>
      </trkpt>
      <trkpt lat="45.81513" lon="1.90407">
        <ele>703.5</ele>
        <time>2026-07-08T14:42:52.000Z</time>
      </trkpt>
      <trkpt lat="45.81512" lon="1.90403">
        <ele>702.7</ele>
        <time>2026-07-08T14:42:53.000Z</time>
      </trkpt>
      <trkpt lat="45.81512" lon="1.90398">
        <ele>701.6</ele>
        <time>2026-07-08T14:42:54.000Z</time>
      </trkpt>
      <trkpt lat="45.81511" lon="1.90393">
        <ele>702.1</ele>
        <time>2026-07-08T14:42:55.000Z</time>
      </trkpt>
      <trkpt lat="45.81511" lon="1.90389">
        <ele>701.7</ele>
        <time>2026-07-08T14:42:56.000Z</time>
      </trkpt>
      <trkpt lat="45.8151" lon="1.90385">
        <ele>701.4</ele>
        <time>2026-07-08T14:42:57.000Z</time>
      </trkpt>
      <trkpt lat="45.81509" lon="1.90381">
        <ele>701.3</ele>
        <time>2026-07-08T14:42:58.000Z</time>
      </trkpt>
      <trkpt lat="45.81508" lon="1.90378">
        <ele>702.5</ele>
        <time>2026-07-08T14:42:59.000Z</time>
      </trkpt>
      <trkpt lat="45.81508" lon="1.90374">
        <ele>702.7</ele>
        <time>2026-07-08T14:43:00.000Z</time>
      </trkpt>
      <trkpt lat="45.81508" lon="1.90371">
        <ele>703.8</ele>
        <time>2026-07-08T14:43:01.000Z</time>
      </trkpt>
      <trkpt lat="45.81507" lon="1.90368">
        <ele>703.7</ele>
        <time>2026-07-08T14:43:02.000Z</time>
      </trkpt>
      <trkpt lat="45.81507" lon="1.90365">
        <ele>704.4</ele>
        <time>2026-07-08T14:43:03.000Z</time>
      </trkpt>
      <trkpt lat="45.81506" lon="1.90362">
        <ele>704.4</ele>
        <time>2026-07-08T14:43:04.000Z</time>
      </trkpt>
      <trkpt lat="45.81505" lon="1.9036">
        <ele>704.3</ele>
        <time>2026-07-08T14:43:05.000Z</time>
      </trkpt>
      <trkpt lat="45.81505" lon="1.90357">
        <ele>704.4</ele>
        <time>2026-07-08T14:43:06.000Z</time>
      </trkpt>
      <trkpt lat="45.81504" lon="1.90355">
        <ele>704.5</ele>
        <time>2026-07-08T14:43:07.000Z</time>
      </trkpt>
      <trkpt lat="45.81503" lon="1.90352">
        <ele>703.7</ele>
        <time>2026-07-08T14:43:08.000Z</time>
      </trkpt>
      <trkpt lat="45.81502" lon="1.90349">
        <ele>704</ele>
        <time>2026-07-08T14:43:09.000Z</time>
      </trkpt>
      <trkpt lat="45.81501" lon="1.90346">
        <ele>703.8</ele>
        <time>2026-07-08T14:43:10.000Z</time>
      </trkpt>
      <trkpt lat="45.815" lon="1.90344">
        <ele>703.7</ele>
        <time>2026-07-08T14:43:11.000Z</time>
      </trkpt>
      <trkpt lat="45.81499" lon="1.90342">
        <ele>702.6</ele>
        <time>2026-07-08T14:43:12.000Z</time>
      </trkpt>
      <trkpt lat="45.81498" lon="1.90341">
        <ele>700.9</ele>
        <time>2026-07-08T14:43:13.000Z</time>
      </trkpt>
      <trkpt lat="45.81496" lon="1.90339">
        <ele>700.2</ele>
        <time>2026-07-08T14:43:14.000Z</time>
      </trkpt>
      <trkpt lat="45.81495" lon="1.90338">
        <ele>698.6</ele>
        <time>2026-07-08T14:43:15.000Z</time>
      </trkpt>
      <trkpt lat="45.81493" lon="1.90336">
        <ele>698.4</ele>
        <time>2026-07-08T14:43:16.000Z</time>
      </trkpt>
      <trkpt lat="45.81491" lon="1.90335">
        <ele>696.8</ele>
        <time>2026-07-08T14:43:17.000Z</time>
      </trkpt>
      <trkpt lat="45.81488" lon="1.90333">
        <ele>697.7</ele>
        <time>2026-07-08T14:43:18.000Z</time>
      </trkpt>
      <trkpt lat="45.81485" lon="1.90331">
        <ele>698.6</ele>
        <time>2026-07-08T14:43:19.000Z</time>
      </trkpt>
      <trkpt lat="45.81483" lon="1.90329">
        <ele>698.9</ele>
        <time>2026-07-08T14:43:20.000Z</time>
      </trkpt>
      <trkpt lat="45.81482" lon="1.90327">
        <ele>699.8</ele>
        <time>2026-07-08T14:43:21.000Z</time>
      </trkpt>
      <trkpt lat="45.8148" lon="1.90325">
        <ele>700</ele>
        <time>2026-07-08T14:43:22.000Z</time>
      </trkpt>
      <trkpt lat="45.81479" lon="1.90324">
        <ele>701.2</ele>
        <time>2026-07-08T14:43:23.000Z</time>
      </trkpt>
      <trkpt lat="45.81477" lon="1.90322">
        <ele>700.4</ele>
        <time>2026-07-08T14:43:24.000Z</time>
      </trkpt>
      <trkpt lat="45.81476" lon="1.9032">
        <ele>702.2</ele>
        <time>2026-07-08T14:43:25.000Z</time>
      </trkpt>
      <trkpt lat="45.81475" lon="1.90318">
        <ele>701.9</ele>
        <time>2026-07-08T14:43:26.000Z</time>
      </trkpt>
      <trkpt lat="45.81474" lon="1.90316">
        <ele>701.3</ele>
        <time>2026-07-08T14:43:27.000Z</time>
      </trkpt>
      <trkpt lat="45.81472" lon="1.90315">
        <ele>700.7</ele>
        <time>2026-07-08T14:43:28.000Z</time>
      </trkpt>
      <trkpt lat="45.81471" lon="1.90313">
        <ele>699.3</ele>
        <time>2026-07-08T14:43:29.000Z</time>
      </trkpt>
      <trkpt lat="45.81469" lon="1.9031">
        <ele>697.6</ele>
        <time>2026-07-08T14:43:30.000Z</time>
      </trkpt>
      <trkpt lat="45.81468" lon="1.9031">
        <ele>696.5</ele>
        <time>2026-07-08T14:43:31.000Z</time>
      </trkpt>
      <trkpt lat="45.81466" lon="1.90309">
        <ele>696.4</ele>
        <time>2026-07-08T14:43:32.000Z</time>
      </trkpt>
      <trkpt lat="45.81465" lon="1.90308">
        <ele>696.6</ele>
        <time>2026-07-08T14:43:33.000Z</time>
      </trkpt>
      <trkpt lat="45.81463" lon="1.90306">
        <ele>696.9</ele>
        <time>2026-07-08T14:43:34.000Z</time>
      </trkpt>
      <trkpt lat="45.81462" lon="1.90305">
        <ele>696.1</ele>
        <time>2026-07-08T14:43:35.000Z</time>
      </trkpt>
      <trkpt lat="45.81461" lon="1.90304">
        <ele>696.5</ele>
        <time>2026-07-08T14:43:36.000Z</time>
      </trkpt>
      <trkpt lat="45.81459" lon="1.90302">
        <ele>696.7</ele>
        <time>2026-07-08T14:43:37.000Z</time>
      </trkpt>
      <trkpt lat="45.81457" lon="1.903">
        <ele>696.4</ele>
        <time>2026-07-08T14:43:38.000Z</time>
      </trkpt>
      <trkpt lat="45.81455" lon="1.90299">
        <ele>696.6</ele>
        <time>2026-07-08T14:43:39.000Z</time>
      </trkpt>
      <trkpt lat="45.81453" lon="1.90297">
        <ele>697.1</ele>
        <time>2026-07-08T14:43:40.000Z</time>
      </trkpt>
      <trkpt lat="45.81451" lon="1.90296">
        <ele>697</ele>
        <time>2026-07-08T14:43:41.000Z</time>
      </trkpt>
      <trkpt lat="45.81449" lon="1.90291">
        <ele>697.9</ele>
        <time>2026-07-08T14:43:42.000Z</time>
      </trkpt>
      <trkpt lat="45.81447" lon="1.90291">
        <ele>698.7</ele>
        <time>2026-07-08T14:43:43.000Z</time>
      </trkpt>
      <trkpt lat="45.81444" lon="1.9029">
        <ele>699.4</ele>
        <time>2026-07-08T14:43:44.000Z</time>
      </trkpt>
      <trkpt lat="45.81442" lon="1.90289">
        <ele>699.7</ele>
        <time>2026-07-08T14:43:45.000Z</time>
      </trkpt>
      <trkpt lat="45.8144" lon="1.90288">
        <ele>699.9</ele>
        <time>2026-07-08T14:43:46.000Z</time>
      </trkpt>
      <trkpt lat="45.81437" lon="1.90287">
        <ele>700.8</ele>
        <time>2026-07-08T14:43:47.000Z</time>
      </trkpt>
      <trkpt lat="45.81435" lon="1.90287">
        <ele>700.6</ele>
        <time>2026-07-08T14:43:48.000Z</time>
      </trkpt>
      <trkpt lat="45.81432" lon="1.90286">
        <ele>700.6</ele>
        <time>2026-07-08T14:43:49.000Z</time>
      </trkpt>
      <trkpt lat="45.81429" lon="1.90286">
        <ele>700.9</ele>
        <time>2026-07-08T14:43:50.000Z</time>
      </trkpt>
      <trkpt lat="45.81426" lon="1.90287">
        <ele>701.2</ele>
        <time>2026-07-08T14:43:51.000Z</time>
      </trkpt>
      <trkpt lat="45.81422" lon="1.90287">
        <ele>700.6</ele>
        <time>2026-07-08T14:43:52.000Z</time>
      </trkpt>
      <trkpt lat="45.81419" lon="1.90289">
        <ele>700</ele>
        <time>2026-07-08T14:43:53.000Z</time>
      </trkpt>
      <trkpt lat="45.81416" lon="1.90289">
        <ele>699.9</ele>
        <time>2026-07-08T14:43:54.000Z</time>
      </trkpt>
      <trkpt lat="45.81412" lon="1.90289">
        <ele>699.7</ele>
        <time>2026-07-08T14:43:55.000Z</time>
      </trkpt>
      <trkpt lat="45.81409" lon="1.90289">
        <ele>699.6</ele>
        <time>2026-07-08T14:43:56.000Z</time>
      </trkpt>
      <trkpt lat="45.81406" lon="1.90289">
        <ele>699.5</ele>
        <time>2026-07-08T14:43:57.000Z</time>
      </trkpt>
      <trkpt lat="45.81403" lon="1.90289">
        <ele>699.5</ele>
        <time>2026-07-08T14:43:58.000Z</time>
      </trkpt>
      <trkpt lat="45.81399" lon="1.9029">
        <ele>699.7</ele>
        <time>2026-07-08T14:43:59.000Z</time>
      </trkpt>
      <trkpt lat="45.81395" lon="1.9029">
        <ele>700</ele>
        <time>2026-07-08T14:44:00.000Z</time>
      </trkpt>
      <trkpt lat="45.81392" lon="1.9029">
        <ele>699.9</ele>
        <time>2026-07-08T14:44:01.000Z</time>
      </trkpt>
      <trkpt lat="45.81389" lon="1.90291">
        <ele>698.2</ele>
        <time>2026-07-08T14:44:02.000Z</time>
      </trkpt>
      <trkpt lat="45.81385" lon="1.90291">
        <ele>698.3</ele>
        <time>2026-07-08T14:44:03.000Z</time>
      </trkpt>
      <trkpt lat="45.81382" lon="1.90292">
        <ele>697.9</ele>
        <time>2026-07-08T14:44:04.000Z</time>
      </trkpt>
      <trkpt lat="45.81379" lon="1.90293">
        <ele>698.3</ele>
        <time>2026-07-08T14:44:05.000Z</time>
      </trkpt>
      <trkpt lat="45.81375" lon="1.90293">
        <ele>698.6</ele>
        <time>2026-07-08T14:44:06.000Z</time>
      </trkpt>
      <trkpt lat="45.81372" lon="1.90294">
        <ele>697.7</ele>
        <time>2026-07-08T14:44:07.000Z</time>
      </trkpt>
      <trkpt lat="45.81368" lon="1.90294">
        <ele>698</ele>
        <time>2026-07-08T14:44:08.000Z</time>
      </trkpt>
      <trkpt lat="45.81365" lon="1.90294">
        <ele>697.1</ele>
        <time>2026-07-08T14:44:09.000Z</time>
      </trkpt>
      <trkpt lat="45.81361" lon="1.90293">
        <ele>696.1</ele>
        <time>2026-07-08T14:44:10.000Z</time>
      </trkpt>
      <trkpt lat="45.81358" lon="1.90293">
        <ele>695.9</ele>
        <time>2026-07-08T14:44:11.000Z</time>
      </trkpt>
      <trkpt lat="45.81355" lon="1.90293">
        <ele>695.4</ele>
        <time>2026-07-08T14:44:12.000Z</time>
      </trkpt>
      <trkpt lat="45.81351" lon="1.90293">
        <ele>695.2</ele>
        <time>2026-07-08T14:44:13.000Z</time>
      </trkpt>
      <trkpt lat="45.81349" lon="1.90292">
        <ele>694.9</ele>
        <time>2026-07-08T14:44:14.000Z</time>
      </trkpt>
      <trkpt lat="45.81346" lon="1.90291">
        <ele>692.9</ele>
        <time>2026-07-08T14:44:15.000Z</time>
      </trkpt>
      <trkpt lat="45.81344" lon="1.90288">
        <ele>691.8</ele>
        <time>2026-07-08T14:44:16.000Z</time>
      </trkpt>
      <trkpt lat="45.81343" lon="1.90285">
        <ele>695.7</ele>
        <time>2026-07-08T14:44:17.000Z</time>
      </trkpt>
      <trkpt lat="45.81342" lon="1.90283">
        <ele>697.6</ele>
        <time>2026-07-08T14:44:18.000Z</time>
      </trkpt>
      <trkpt lat="45.81341" lon="1.90282">
        <ele>697.8</ele>
        <time>2026-07-08T14:44:19.000Z</time>
      </trkpt>
      <trkpt lat="45.81341" lon="1.90279">
        <ele>698.2</ele>
        <time>2026-07-08T14:44:20.000Z</time>
      </trkpt>
      <trkpt lat="45.8134" lon="1.90277">
        <ele>699.3</ele>
        <time>2026-07-08T14:44:21.000Z</time>
      </trkpt>
      <trkpt lat="45.81338" lon="1.90275">
        <ele>698.5</ele>
        <time>2026-07-08T14:44:22.000Z</time>
      </trkpt>
      <trkpt lat="45.81336" lon="1.90273">
        <ele>699.1</ele>
        <time>2026-07-08T14:44:23.000Z</time>
      </trkpt>
      <trkpt lat="45.81333" lon="1.90272">
        <ele>699</ele>
        <time>2026-07-08T14:44:24.000Z</time>
      </trkpt>
      <trkpt lat="45.81331" lon="1.90272">
        <ele>699.1</ele>
        <time>2026-07-08T14:44:25.000Z</time>
      </trkpt>
      <trkpt lat="45.81329" lon="1.90273">
        <ele>700.5</ele>
        <time>2026-07-08T14:44:26.000Z</time>
      </trkpt>
      <trkpt lat="45.81327" lon="1.90274">
        <ele>700.4</ele>
        <time>2026-07-08T14:44:27.000Z</time>
      </trkpt>
      <trkpt lat="45.81324" lon="1.90275">
        <ele>700.9</ele>
        <time>2026-07-08T14:44:28.000Z</time>
      </trkpt>
      <trkpt lat="45.81322" lon="1.90277">
        <ele>700.6</ele>
        <time>2026-07-08T14:44:29.000Z</time>
      </trkpt>
      <trkpt lat="45.81319" lon="1.90278">
        <ele>701.1</ele>
        <time>2026-07-08T14:44:30.000Z</time>
      </trkpt>
      <trkpt lat="45.81317" lon="1.9028">
        <ele>701.4</ele>
        <time>2026-07-08T14:44:31.000Z</time>
      </trkpt>
      <trkpt lat="45.81315" lon="1.9028">
        <ele>701.1</ele>
        <time>2026-07-08T14:44:32.000Z</time>
      </trkpt>
      <trkpt lat="45.81312" lon="1.90282">
        <ele>701.1</ele>
        <time>2026-07-08T14:44:33.000Z</time>
      </trkpt>
      <trkpt lat="45.81311" lon="1.90282">
        <ele>702.4</ele>
        <time>2026-07-08T14:44:34.000Z</time>
      </trkpt>
      <trkpt lat="45.81309" lon="1.90282">
        <ele>702.6</ele>
        <time>2026-07-08T14:44:35.000Z</time>
      </trkpt>
      <trkpt lat="45.81307" lon="1.90283">
        <ele>702.7</ele>
        <time>2026-07-08T14:44:36.000Z</time>
      </trkpt>
      <trkpt lat="45.81305" lon="1.90283">
        <ele>705.3</ele>
        <time>2026-07-08T14:44:37.000Z</time>
      </trkpt>
      <trkpt lat="45.81303" lon="1.90283">
        <ele>705.4</ele>
        <time>2026-07-08T14:44:38.000Z</time>
      </trkpt>
      <trkpt lat="45.81301" lon="1.90283">
        <ele>705.2</ele>
        <time>2026-07-08T14:44:39.000Z</time>
      </trkpt>
      <trkpt lat="45.81299" lon="1.90283">
        <ele>705.4</ele>
        <time>2026-07-08T14:44:40.000Z</time>
      </trkpt>
      <trkpt lat="45.81298" lon="1.90282">
        <ele>703</ele>
        <time>2026-07-08T14:44:41.000Z</time>
      </trkpt>
      <trkpt lat="45.81296" lon="1.90281">
        <ele>703.4</ele>
        <time>2026-07-08T14:44:42.000Z</time>
      </trkpt>
      <trkpt lat="45.81295" lon="1.90281">
        <ele>704.1</ele>
        <time>2026-07-08T14:44:43.000Z</time>
      </trkpt>
      <trkpt lat="45.81293" lon="1.90281">
        <ele>705.4</ele>
        <time>2026-07-08T14:44:44.000Z</time>
      </trkpt>
      <trkpt lat="45.81291" lon="1.9028">
        <ele>705.8</ele>
        <time>2026-07-08T14:44:45.000Z</time>
      </trkpt>
      <trkpt lat="45.8129" lon="1.9028">
        <ele>705.7</ele>
        <time>2026-07-08T14:44:46.000Z</time>
      </trkpt>
      <trkpt lat="45.81288" lon="1.9028">
        <ele>705.6</ele>
        <time>2026-07-08T14:44:47.000Z</time>
      </trkpt>
      <trkpt lat="45.81286" lon="1.9028">
        <ele>706.6</ele>
        <time>2026-07-08T14:44:48.000Z</time>
      </trkpt>
      <trkpt lat="45.81284" lon="1.9028">
        <ele>706.6</ele>
        <time>2026-07-08T14:44:49.000Z</time>
      </trkpt>
      <trkpt lat="45.81282" lon="1.9028">
        <ele>706.8</ele>
        <time>2026-07-08T14:44:50.000Z</time>
      </trkpt>
      <trkpt lat="45.81279" lon="1.90281">
        <ele>706.3</ele>
        <time>2026-07-08T14:44:51.000Z</time>
      </trkpt>
      <trkpt lat="45.81277" lon="1.90283">
        <ele>706.4</ele>
        <time>2026-07-08T14:44:52.000Z</time>
      </trkpt>
      <trkpt lat="45.81275" lon="1.90284">
        <ele>705.5</ele>
        <time>2026-07-08T14:44:53.000Z</time>
      </trkpt>
      <trkpt lat="45.81273" lon="1.90284">
        <ele>705.9</ele>
        <time>2026-07-08T14:44:54.000Z</time>
      </trkpt>
      <trkpt lat="45.81271" lon="1.90285">
        <ele>705.3</ele>
        <time>2026-07-08T14:44:55.000Z</time>
      </trkpt>
      <trkpt lat="45.81269" lon="1.90285">
        <ele>704.9</ele>
        <time>2026-07-08T14:44:56.000Z</time>
      </trkpt>
      <trkpt lat="45.81268" lon="1.90286">
        <ele>705.2</ele>
        <time>2026-07-08T14:44:57.000Z</time>
      </trkpt>
      <trkpt lat="45.81266" lon="1.90286">
        <ele>705.8</ele>
        <time>2026-07-08T14:44:58.000Z</time>
      </trkpt>
      <trkpt lat="45.81264" lon="1.90287">
        <ele>705.6</ele>
        <time>2026-07-08T14:44:59.000Z</time>
      </trkpt>
      <trkpt lat="45.81261" lon="1.90288">
        <ele>705.4</ele>
        <time>2026-07-08T14:45:00.000Z</time>
      </trkpt>
      <trkpt lat="45.81259" lon="1.90289">
        <ele>704.8</ele>
        <time>2026-07-08T14:45:01.000Z</time>
      </trkpt>
      <trkpt lat="45.81257" lon="1.90289">
        <ele>702.9</ele>
        <time>2026-07-08T14:45:02.000Z</time>
      </trkpt>
      <trkpt lat="45.81255" lon="1.90289">
        <ele>703.7</ele>
        <time>2026-07-08T14:45:03.000Z</time>
      </trkpt>
      <trkpt lat="45.81254" lon="1.9029">
        <ele>703.4</ele>
        <time>2026-07-08T14:45:04.000Z</time>
      </trkpt>
      <trkpt lat="45.81252" lon="1.9029">
        <ele>705.6</ele>
        <time>2026-07-08T14:45:05.000Z</time>
      </trkpt>
      <trkpt lat="45.8125" lon="1.9029">
        <ele>706.1</ele>
        <time>2026-07-08T14:45:06.000Z</time>
      </trkpt>
      <trkpt lat="45.81248" lon="1.9029">
        <ele>707.5</ele>
        <time>2026-07-08T14:45:07.000Z</time>
      </trkpt>
      <trkpt lat="45.81247" lon="1.9029">
        <ele>707.3</ele>
        <time>2026-07-08T14:45:08.000Z</time>
      </trkpt>
      <trkpt lat="45.81245" lon="1.90291">
        <ele>707.7</ele>
        <time>2026-07-08T14:45:09.000Z</time>
      </trkpt>
      <trkpt lat="45.81243" lon="1.90291">
        <ele>707.8</ele>
        <time>2026-07-08T14:45:10.000Z</time>
      </trkpt>
      <trkpt lat="45.81241" lon="1.90292">
        <ele>707.5</ele>
        <time>2026-07-08T14:45:11.000Z</time>
      </trkpt>
      <trkpt lat="45.8124" lon="1.90292">
        <ele>707.1</ele>
        <time>2026-07-08T14:45:12.000Z</time>
      </trkpt>
      <trkpt lat="45.81238" lon="1.90293">
        <ele>706.7</ele>
        <time>2026-07-08T14:45:13.000Z</time>
      </trkpt>
      <trkpt lat="45.81236" lon="1.90294">
        <ele>707.1</ele>
        <time>2026-07-08T14:45:14.000Z</time>
      </trkpt>
      <trkpt lat="45.81235" lon="1.90294">
        <ele>707.4</ele>
        <time>2026-07-08T14:45:15.000Z</time>
      </trkpt>
      <trkpt lat="45.81234" lon="1.90295">
        <ele>708.4</ele>
        <time>2026-07-08T14:45:16.000Z</time>
      </trkpt>
      <trkpt lat="45.81234" lon="1.90294">
        <ele>709</ele>
        <time>2026-07-08T14:45:17.000Z</time>
      </trkpt>
      <trkpt lat="45.81233" lon="1.90294">
        <ele>709.2</ele>
        <time>2026-07-08T14:45:18.000Z</time>
      </trkpt>
      <trkpt lat="45.81231" lon="1.90294">
        <ele>709.3</ele>
        <time>2026-07-08T14:45:19.000Z</time>
      </trkpt>
      <trkpt lat="45.81229" lon="1.90293">
        <ele>709.5</ele>
        <time>2026-07-08T14:45:20.000Z</time>
      </trkpt>
      <trkpt lat="45.81227" lon="1.90293">
        <ele>710.1</ele>
        <time>2026-07-08T14:45:21.000Z</time>
      </trkpt>
      <trkpt lat="45.81225" lon="1.90293">
        <ele>710.2</ele>
        <time>2026-07-08T14:45:22.000Z</time>
      </trkpt>
      <trkpt lat="45.81223" lon="1.90293">
        <ele>710.3</ele>
        <time>2026-07-08T14:45:23.000Z</time>
      </trkpt>
      <trkpt lat="45.81221" lon="1.90292">
        <ele>710.3</ele>
        <time>2026-07-08T14:45:24.000Z</time>
      </trkpt>
      <trkpt lat="45.81219" lon="1.90292">
        <ele>710.1</ele>
        <time>2026-07-08T14:45:25.000Z</time>
      </trkpt>
      <trkpt lat="45.81218" lon="1.90291">
        <ele>709.8</ele>
        <time>2026-07-08T14:45:26.000Z</time>
      </trkpt>
      <trkpt lat="45.81216" lon="1.9029">
        <ele>710</ele>
        <time>2026-07-08T14:45:27.000Z</time>
      </trkpt>
      <trkpt lat="45.81215" lon="1.9029">
        <ele>709.5</ele>
        <time>2026-07-08T14:45:28.000Z</time>
      </trkpt>
      <trkpt lat="45.81213" lon="1.90289">
        <ele>709</ele>
        <time>2026-07-08T14:45:29.000Z</time>
      </trkpt>
      <trkpt lat="45.81212" lon="1.90288">
        <ele>709</ele>
        <time>2026-07-08T14:45:30.000Z</time>
      </trkpt>
      <trkpt lat="45.8121" lon="1.90288">
        <ele>707.6</ele>
        <time>2026-07-08T14:45:31.000Z</time>
      </trkpt>
      <trkpt lat="45.81209" lon="1.90289">
        <ele>707.7</ele>
        <time>2026-07-08T14:45:32.000Z</time>
      </trkpt>
      <trkpt lat="45.81207" lon="1.90289">
        <ele>708.6</ele>
        <time>2026-07-08T14:45:33.000Z</time>
      </trkpt>
      <trkpt lat="45.81205" lon="1.90289">
        <ele>708.2</ele>
        <time>2026-07-08T14:45:34.000Z</time>
      </trkpt>
      <trkpt lat="45.81203" lon="1.9029">
        <ele>708.7</ele>
        <time>2026-07-08T14:45:35.000Z</time>
      </trkpt>
      <trkpt lat="45.81201" lon="1.90289">
        <ele>709.4</ele>
        <time>2026-07-08T14:45:36.000Z</time>
      </trkpt>
      <trkpt lat="45.812" lon="1.90289">
        <ele>709.1</ele>
        <time>2026-07-08T14:45:37.000Z</time>
      </trkpt>
      <trkpt lat="45.81198" lon="1.90289">
        <ele>711.6</ele>
        <time>2026-07-08T14:45:38.000Z</time>
      </trkpt>
      <trkpt lat="45.81196" lon="1.90288">
        <ele>712.6</ele>
        <time>2026-07-08T14:45:39.000Z</time>
      </trkpt>
      <trkpt lat="45.81194" lon="1.90286">
        <ele>712.7</ele>
        <time>2026-07-08T14:45:40.000Z</time>
      </trkpt>
      <trkpt lat="45.81192" lon="1.90285">
        <ele>711.9</ele>
        <time>2026-07-08T14:45:41.000Z</time>
      </trkpt>
      <trkpt lat="45.81189" lon="1.90285">
        <ele>711.1</ele>
        <time>2026-07-08T14:45:42.000Z</time>
      </trkpt>
      <trkpt lat="45.81188" lon="1.90285">
        <ele>711.8</ele>
        <time>2026-07-08T14:45:43.000Z</time>
      </trkpt>
      <trkpt lat="45.81186" lon="1.90285">
        <ele>711.7</ele>
        <time>2026-07-08T14:45:44.000Z</time>
      </trkpt>
      <trkpt lat="45.81183" lon="1.90285">
        <ele>710.9</ele>
        <time>2026-07-08T14:45:45.000Z</time>
      </trkpt>
      <trkpt lat="45.81181" lon="1.90285">
        <ele>710.1</ele>
        <time>2026-07-08T14:45:46.000Z</time>
      </trkpt>
      <trkpt lat="45.81179" lon="1.90285">
        <ele>709.4</ele>
        <time>2026-07-08T14:45:47.000Z</time>
      </trkpt>
      <trkpt lat="45.81177" lon="1.90285">
        <ele>709</ele>
        <time>2026-07-08T14:45:48.000Z</time>
      </trkpt>
      <trkpt lat="45.81174" lon="1.90286">
        <ele>708.7</ele>
        <time>2026-07-08T14:45:49.000Z</time>
      </trkpt>
      <trkpt lat="45.81172" lon="1.90286">
        <ele>708.5</ele>
        <time>2026-07-08T14:45:50.000Z</time>
      </trkpt>
      <trkpt lat="45.81171" lon="1.90284">
        <ele>708.4</ele>
        <time>2026-07-08T14:45:51.000Z</time>
      </trkpt>
      <trkpt lat="45.81169" lon="1.90285">
        <ele>708.2</ele>
        <time>2026-07-08T14:45:52.000Z</time>
      </trkpt>
      <trkpt lat="45.81166" lon="1.90286">
        <ele>706.9</ele>
        <time>2026-07-08T14:45:53.000Z</time>
      </trkpt>
      <trkpt lat="45.81166" lon="1.9029">
        <ele>706.1</ele>
        <time>2026-07-08T14:45:54.000Z</time>
      </trkpt>
      <trkpt lat="45.81166" lon="1.90294">
        <ele>705.2</ele>
        <time>2026-07-08T14:45:55.000Z</time>
      </trkpt>
      <trkpt lat="45.81167" lon="1.90293">
        <ele>705.6</ele>
        <time>2026-07-08T14:45:56.000Z</time>
      </trkpt>
      <trkpt lat="45.81164" lon="1.90295">
        <ele>702.9</ele>
        <time>2026-07-08T14:45:57.000Z</time>
      </trkpt>
      <trkpt lat="45.81163" lon="1.90293">
        <ele>704.7</ele>
        <time>2026-07-08T14:45:58.000Z</time>
      </trkpt>
      <trkpt lat="45.81161" lon="1.90291">
        <ele>705.6</ele>
        <time>2026-07-08T14:45:59.000Z</time>
      </trkpt>
      <trkpt lat="45.8116" lon="1.9029">
        <ele>705.8</ele>
        <time>2026-07-08T14:46:00.000Z</time>
      </trkpt>
      <trkpt lat="45.81159" lon="1.9029">
        <ele>705.5</ele>
        <time>2026-07-08T14:46:01.000Z</time>
      </trkpt>
      <trkpt lat="45.81157" lon="1.90289">
        <ele>704.9</ele>
        <time>2026-07-08T14:46:02.000Z</time>
      </trkpt>
      <trkpt lat="45.81156" lon="1.90287">
        <ele>703.9</ele>
        <time>2026-07-08T14:46:03.000Z</time>
      </trkpt>
      <trkpt lat="45.81155" lon="1.90286">
        <ele>702.5</ele>
        <time>2026-07-08T14:46:04.000Z</time>
      </trkpt>
      <trkpt lat="45.81153" lon="1.90284">
        <ele>701.7</ele>
        <time>2026-07-08T14:46:05.000Z</time>
      </trkpt>
      <trkpt lat="45.81152" lon="1.90282">
        <ele>701.7</ele>
        <time>2026-07-08T14:46:06.000Z</time>
      </trkpt>
      <trkpt lat="45.81151" lon="1.9028">
        <ele>701.4</ele>
        <time>2026-07-08T14:46:07.000Z</time>
      </trkpt>
      <trkpt lat="45.81149" lon="1.90279">
        <ele>700.8</ele>
        <time>2026-07-08T14:46:08.000Z</time>
      </trkpt>
      <trkpt lat="45.81147" lon="1.90277">
        <ele>700.1</ele>
        <time>2026-07-08T14:46:09.000Z</time>
      </trkpt>
      <trkpt lat="45.81145" lon="1.90275">
        <ele>699.7</ele>
        <time>2026-07-08T14:46:10.000Z</time>
      </trkpt>
      <trkpt lat="45.81143" lon="1.90273">
        <ele>702</ele>
        <time>2026-07-08T14:46:11.000Z</time>
      </trkpt>
      <trkpt lat="45.81142" lon="1.90269">
        <ele>704.5</ele>
        <time>2026-07-08T14:46:12.000Z</time>
      </trkpt>
      <trkpt lat="45.8114" lon="1.90266">
        <ele>703.7</ele>
        <time>2026-07-08T14:46:13.000Z</time>
      </trkpt>
      <trkpt lat="45.81138" lon="1.90264">
        <ele>703.6</ele>
        <time>2026-07-08T14:46:14.000Z</time>
      </trkpt>
      <trkpt lat="45.81137" lon="1.90262">
        <ele>703.3</ele>
        <time>2026-07-08T14:46:15.000Z</time>
      </trkpt>
      <trkpt lat="45.81136" lon="1.90262">
        <ele>702.9</ele>
        <time>2026-07-08T14:46:16.000Z</time>
      </trkpt>
      <trkpt lat="45.81135" lon="1.9026">
        <ele>703</ele>
        <time>2026-07-08T14:46:17.000Z</time>
      </trkpt>
      <trkpt lat="45.81135" lon="1.90261">
        <ele>700.7</ele>
        <time>2026-07-08T14:46:18.000Z</time>
      </trkpt>
      <trkpt lat="45.81134" lon="1.90259">
        <ele>700.7</ele>
        <time>2026-07-08T14:46:19.000Z</time>
      </trkpt>
      <trkpt lat="45.81134" lon="1.90259">
        <ele>700.6</ele>
        <time>2026-07-08T14:46:20.000Z</time>
      </trkpt>
      <trkpt lat="45.81132" lon="1.90257">
        <ele>700.8</ele>
        <time>2026-07-08T14:46:21.000Z</time>
      </trkpt>
      <trkpt lat="45.81129" lon="1.90255">
        <ele>700.2</ele>
        <time>2026-07-08T14:46:22.000Z</time>
      </trkpt>
      <trkpt lat="45.81129" lon="1.90253">
        <ele>703</ele>
        <time>2026-07-08T14:46:23.000Z</time>
      </trkpt>
      <trkpt lat="45.81128" lon="1.90249">
        <ele>704.2</ele>
        <time>2026-07-08T14:46:24.000Z</time>
      </trkpt>
      <trkpt lat="45.81127" lon="1.90244">
        <ele>706.3</ele>
        <time>2026-07-08T14:46:25.000Z</time>
      </trkpt>
      <trkpt lat="45.81126" lon="1.9024">
        <ele>706.8</ele>
        <time>2026-07-08T14:46:26.000Z</time>
      </trkpt>
      <trkpt lat="45.81126" lon="1.90236">
        <ele>706.7</ele>
        <time>2026-07-08T14:46:27.000Z</time>
      </trkpt>
      <trkpt lat="45.81127" lon="1.90233">
        <ele>707.7</ele>
        <time>2026-07-08T14:46:28.000Z</time>
      </trkpt>
      <trkpt lat="45.81127" lon="1.90229">
        <ele>707</ele>
        <time>2026-07-08T14:46:29.000Z</time>
      </trkpt>
      <trkpt lat="45.81128" lon="1.90226">
        <ele>706.9</ele>
        <time>2026-07-08T14:46:30.000Z</time>
      </trkpt>
      <trkpt lat="45.81129" lon="1.90224">
        <ele>706.9</ele>
        <time>2026-07-08T14:46:31.000Z</time>
      </trkpt>
      <trkpt lat="45.8113" lon="1.90221">
        <ele>707.4</ele>
        <time>2026-07-08T14:46:32.000Z</time>
      </trkpt>
      <trkpt lat="45.81131" lon="1.90218">
        <ele>707.2</ele>
        <time>2026-07-08T14:46:33.000Z</time>
      </trkpt>
      <trkpt lat="45.81132" lon="1.90216">
        <ele>707.6</ele>
        <time>2026-07-08T14:46:34.000Z</time>
      </trkpt>
      <trkpt lat="45.81133" lon="1.90213">
        <ele>707.2</ele>
        <time>2026-07-08T14:46:35.000Z</time>
      </trkpt>
      <trkpt lat="45.81134" lon="1.90211">
        <ele>707.4</ele>
        <time>2026-07-08T14:46:36.000Z</time>
      </trkpt>
      <trkpt lat="45.81135" lon="1.90208">
        <ele>707.6</ele>
        <time>2026-07-08T14:46:37.000Z</time>
      </trkpt>
      <trkpt lat="45.81136" lon="1.90207">
        <ele>707.9</ele>
        <time>2026-07-08T14:46:38.000Z</time>
      </trkpt>
      <trkpt lat="45.81137" lon="1.90205">
        <ele>707.8</ele>
        <time>2026-07-08T14:46:39.000Z</time>
      </trkpt>
      <trkpt lat="45.81139" lon="1.90203">
        <ele>707.9</ele>
        <time>2026-07-08T14:46:40.000Z</time>
      </trkpt>
      <trkpt lat="45.81139" lon="1.90201">
        <ele>707.8</ele>
        <time>2026-07-08T14:46:41.000Z</time>
      </trkpt>
      <trkpt lat="45.8114" lon="1.90199">
        <ele>707.7</ele>
        <time>2026-07-08T14:46:42.000Z</time>
      </trkpt>
      <trkpt lat="45.81141" lon="1.90196">
        <ele>708.1</ele>
        <time>2026-07-08T14:46:43.000Z</time>
      </trkpt>
      <trkpt lat="45.81141" lon="1.90193">
        <ele>707.2</ele>
        <time>2026-07-08T14:46:44.000Z</time>
      </trkpt>
      <trkpt lat="45.81141" lon="1.90191">
        <ele>707</ele>
        <time>2026-07-08T14:46:45.000Z</time>
      </trkpt>
      <trkpt lat="45.81141" lon="1.90188">
        <ele>706.5</ele>
        <time>2026-07-08T14:46:46.000Z</time>
      </trkpt>
      <trkpt lat="45.81142" lon="1.90185">
        <ele>706.9</ele>
        <time>2026-07-08T14:46:47.000Z</time>
      </trkpt>
      <trkpt lat="45.81142" lon="1.90182">
        <ele>707.7</ele>
        <time>2026-07-08T14:46:48.000Z</time>
      </trkpt>
      <trkpt lat="45.81141" lon="1.9018">
        <ele>707.3</ele>
        <time>2026-07-08T14:46:49.000Z</time>
      </trkpt>
      <trkpt lat="45.8114" lon="1.90178">
        <ele>707.5</ele>
        <time>2026-07-08T14:46:50.000Z</time>
      </trkpt>
      <trkpt lat="45.81139" lon="1.90176">
        <ele>706.3</ele>
        <time>2026-07-08T14:46:51.000Z</time>
      </trkpt>
      <trkpt lat="45.81139" lon="1.90174">
        <ele>706.9</ele>
        <time>2026-07-08T14:46:52.000Z</time>
      </trkpt>
      <trkpt lat="45.81138" lon="1.90171">
        <ele>707.1</ele>
        <time>2026-07-08T14:46:53.000Z</time>
      </trkpt>
      <trkpt lat="45.81137" lon="1.90169">
        <ele>707.8</ele>
        <time>2026-07-08T14:46:54.000Z</time>
      </trkpt>
      <trkpt lat="45.81136" lon="1.90167">
        <ele>708.2</ele>
        <time>2026-07-08T14:46:55.000Z</time>
      </trkpt>
      <trkpt lat="45.81135" lon="1.90164">
        <ele>708.4</ele>
        <time>2026-07-08T14:46:56.000Z</time>
      </trkpt>
      <trkpt lat="45.81134" lon="1.90162">
        <ele>708.2</ele>
        <time>2026-07-08T14:46:57.000Z</time>
      </trkpt>
      <trkpt lat="45.81133" lon="1.9016">
        <ele>708</ele>
        <time>2026-07-08T14:46:58.000Z</time>
      </trkpt>
      <trkpt lat="45.81132" lon="1.90158">
        <ele>707.5</ele>
        <time>2026-07-08T14:46:59.000Z</time>
      </trkpt>
      <trkpt lat="45.81131" lon="1.90156">
        <ele>707</ele>
        <time>2026-07-08T14:47:00.000Z</time>
      </trkpt>
      <trkpt lat="45.8113" lon="1.90153">
        <ele>707.7</ele>
        <time>2026-07-08T14:47:01.000Z</time>
      </trkpt>
      <trkpt lat="45.81129" lon="1.9015">
        <ele>708</ele>
        <time>2026-07-08T14:47:02.000Z</time>
      </trkpt>
      <trkpt lat="45.81128" lon="1.90148">
        <ele>708.7</ele>
        <time>2026-07-08T14:47:03.000Z</time>
      </trkpt>
      <trkpt lat="45.81127" lon="1.90146">
        <ele>709.3</ele>
        <time>2026-07-08T14:47:04.000Z</time>
      </trkpt>
      <trkpt lat="45.81126" lon="1.90144">
        <ele>709.8</ele>
        <time>2026-07-08T14:47:05.000Z</time>
      </trkpt>
      <trkpt lat="45.81125" lon="1.90141">
        <ele>709.3</ele>
        <time>2026-07-08T14:47:06.000Z</time>
      </trkpt>
      <trkpt lat="45.81124" lon="1.90139">
        <ele>709.2</ele>
        <time>2026-07-08T14:47:07.000Z</time>
      </trkpt>
      <trkpt lat="45.81123" lon="1.90137">
        <ele>708.1</ele>
        <time>2026-07-08T14:47:08.000Z</time>
      </trkpt>
      <trkpt lat="45.81122" lon="1.90135">
        <ele>708.3</ele>
        <time>2026-07-08T14:47:09.000Z</time>
      </trkpt>
      <trkpt lat="45.81122" lon="1.90132">
        <ele>709.1</ele>
        <time>2026-07-08T14:47:10.000Z</time>
      </trkpt>
      <trkpt lat="45.81122" lon="1.9013">
        <ele>709.1</ele>
        <time>2026-07-08T14:47:11.000Z</time>
      </trkpt>
      <trkpt lat="45.81121" lon="1.90127">
        <ele>709.5</ele>
        <time>2026-07-08T14:47:12.000Z</time>
      </trkpt>
      <trkpt lat="45.81119" lon="1.90125">
        <ele>710.1</ele>
        <time>2026-07-08T14:47:13.000Z</time>
      </trkpt>
      <trkpt lat="45.81118" lon="1.90123">
        <ele>709.9</ele>
        <time>2026-07-08T14:47:14.000Z</time>
      </trkpt>
      <trkpt lat="45.81117" lon="1.90121">
        <ele>710</ele>
        <time>2026-07-08T14:47:15.000Z</time>
      </trkpt>
      <trkpt lat="45.81116" lon="1.90119">
        <ele>709.3</ele>
        <time>2026-07-08T14:47:16.000Z</time>
      </trkpt>
      <trkpt lat="45.81115" lon="1.90117">
        <ele>709.2</ele>
        <time>2026-07-08T14:47:17.000Z</time>
      </trkpt>
      <trkpt lat="45.81114" lon="1.90115">
        <ele>709.3</ele>
        <time>2026-07-08T14:47:18.000Z</time>
      </trkpt>
      <trkpt lat="45.81114" lon="1.90112">
        <ele>708.9</ele>
        <time>2026-07-08T14:47:19.000Z</time>
      </trkpt>
      <trkpt lat="45.81113" lon="1.90111">
        <ele>709.2</ele>
        <time>2026-07-08T14:47:20.000Z</time>
      </trkpt>
      <trkpt lat="45.81112" lon="1.90109">
        <ele>709</ele>
        <time>2026-07-08T14:47:21.000Z</time>
      </trkpt>
      <trkpt lat="45.8111" lon="1.90107">
        <ele>708.8</ele>
        <time>2026-07-08T14:47:22.000Z</time>
      </trkpt>
      <trkpt lat="45.81109" lon="1.90104">
        <ele>709.6</ele>
        <time>2026-07-08T14:47:23.000Z</time>
      </trkpt>
      <trkpt lat="45.81108" lon="1.90102">
        <ele>710.6</ele>
        <time>2026-07-08T14:47:24.000Z</time>
      </trkpt>
      <trkpt lat="45.81107" lon="1.90099">
        <ele>710.1</ele>
        <time>2026-07-08T14:47:25.000Z</time>
      </trkpt>
      <trkpt lat="45.81106" lon="1.90097">
        <ele>709.5</ele>
        <time>2026-07-08T14:47:26.000Z</time>
      </trkpt>
      <trkpt lat="45.81105" lon="1.90094">
        <ele>709.9</ele>
        <time>2026-07-08T14:47:27.000Z</time>
      </trkpt>
      <trkpt lat="45.81104" lon="1.90091">
        <ele>709</ele>
        <time>2026-07-08T14:47:28.000Z</time>
      </trkpt>
      <trkpt lat="45.81103" lon="1.90088">
        <ele>709.8</ele>
        <time>2026-07-08T14:47:29.000Z</time>
      </trkpt>
      <trkpt lat="45.81103" lon="1.90085">
        <ele>710.1</ele>
        <time>2026-07-08T14:47:30.000Z</time>
      </trkpt>
      <trkpt lat="45.81103" lon="1.90083">
        <ele>709.6</ele>
        <time>2026-07-08T14:47:31.000Z</time>
      </trkpt>
      <trkpt lat="45.81102" lon="1.9008">
        <ele>710.2</ele>
        <time>2026-07-08T14:47:32.000Z</time>
      </trkpt>
      <trkpt lat="45.81101" lon="1.90077">
        <ele>709.6</ele>
        <time>2026-07-08T14:47:33.000Z</time>
      </trkpt>
      <trkpt lat="45.811" lon="1.90074">
        <ele>709.5</ele>
        <time>2026-07-08T14:47:34.000Z</time>
      </trkpt>
      <trkpt lat="45.81101" lon="1.90072">
        <ele>710</ele>
        <time>2026-07-08T14:47:35.000Z</time>
      </trkpt>
      <trkpt lat="45.811" lon="1.90069">
        <ele>709.6</ele>
        <time>2026-07-08T14:47:36.000Z</time>
      </trkpt>
      <trkpt lat="45.81099" lon="1.90066">
        <ele>709.8</ele>
        <time>2026-07-08T14:47:37.000Z</time>
      </trkpt>
      <trkpt lat="45.81099" lon="1.90064">
        <ele>709.3</ele>
        <time>2026-07-08T14:47:38.000Z</time>
      </trkpt>
      <trkpt lat="45.81099" lon="1.90061">
        <ele>709.9</ele>
        <time>2026-07-08T14:47:39.000Z</time>
      </trkpt>
      <trkpt lat="45.81099" lon="1.90058">
        <ele>710.2</ele>
        <time>2026-07-08T14:47:40.000Z</time>
      </trkpt>
      <trkpt lat="45.81099" lon="1.90056">
        <ele>710.6</ele>
        <time>2026-07-08T14:47:41.000Z</time>
      </trkpt>
      <trkpt lat="45.81099" lon="1.90053">
        <ele>710.6</ele>
        <time>2026-07-08T14:47:42.000Z</time>
      </trkpt>
      <trkpt lat="45.81099" lon="1.90051">
        <ele>711</ele>
        <time>2026-07-08T14:47:43.000Z</time>
      </trkpt>
      <trkpt lat="45.81099" lon="1.90048">
        <ele>711.1</ele>
        <time>2026-07-08T14:47:44.000Z</time>
      </trkpt>
      <trkpt lat="45.81099" lon="1.90046">
        <ele>710.7</ele>
        <time>2026-07-08T14:47:45.000Z</time>
      </trkpt>
      <trkpt lat="45.81099" lon="1.90043">
        <ele>709.5</ele>
        <time>2026-07-08T14:47:46.000Z</time>
      </trkpt>
      <trkpt lat="45.81098" lon="1.9004">
        <ele>709.1</ele>
        <time>2026-07-08T14:47:47.000Z</time>
      </trkpt>
      <trkpt lat="45.81098" lon="1.90038">
        <ele>707.9</ele>
        <time>2026-07-08T14:47:48.000Z</time>
      </trkpt>
      <trkpt lat="45.81097" lon="1.90035">
        <ele>707.9</ele>
        <time>2026-07-08T14:47:49.000Z</time>
      </trkpt>
      <trkpt lat="45.81097" lon="1.90033">
        <ele>707.1</ele>
        <time>2026-07-08T14:47:50.000Z</time>
      </trkpt>
      <trkpt lat="45.81096" lon="1.9003">
        <ele>706.8</ele>
        <time>2026-07-08T14:47:51.000Z</time>
      </trkpt>
      <trkpt lat="45.81095" lon="1.90027">
        <ele>706.4</ele>
        <time>2026-07-08T14:47:52.000Z</time>
      </trkpt>
      <trkpt lat="45.81093" lon="1.90025">
        <ele>706.3</ele>
        <time>2026-07-08T14:47:53.000Z</time>
      </trkpt>
      <trkpt lat="45.81092" lon="1.90022">
        <ele>706.3</ele>
        <time>2026-07-08T14:47:54.000Z</time>
      </trkpt>
      <trkpt lat="45.81091" lon="1.90019">
        <ele>705.9</ele>
        <time>2026-07-08T14:47:55.000Z</time>
      </trkpt>
      <trkpt lat="45.8109" lon="1.90016">
        <ele>707.7</ele>
        <time>2026-07-08T14:47:56.000Z</time>
      </trkpt>
      <trkpt lat="45.81089" lon="1.90014">
        <ele>708</ele>
        <time>2026-07-08T14:47:57.000Z</time>
      </trkpt>
      <trkpt lat="45.81087" lon="1.90013">
        <ele>708.3</ele>
        <time>2026-07-08T14:47:58.000Z</time>
      </trkpt>
      <trkpt lat="45.81086" lon="1.90011">
        <ele>709.8</ele>
        <time>2026-07-08T14:47:59.000Z</time>
      </trkpt>
      <trkpt lat="45.81085" lon="1.90009">
        <ele>711.6</ele>
        <time>2026-07-08T14:48:00.000Z</time>
      </trkpt>
      <trkpt lat="45.81084" lon="1.90007">
        <ele>712.1</ele>
        <time>2026-07-08T14:48:01.000Z</time>
      </trkpt>
      <trkpt lat="45.81083" lon="1.90005">
        <ele>712.4</ele>
        <time>2026-07-08T14:48:02.000Z</time>
      </trkpt>
      <trkpt lat="45.81082" lon="1.90003">
        <ele>711.7</ele>
        <time>2026-07-08T14:48:03.000Z</time>
      </trkpt>
      <trkpt lat="45.81082" lon="1.9">
        <ele>712.7</ele>
        <time>2026-07-08T14:48:04.000Z</time>
      </trkpt>
      <trkpt lat="45.81081" lon="1.89997">
        <ele>712.8</ele>
        <time>2026-07-08T14:48:05.000Z</time>
      </trkpt>
      <trkpt lat="45.81081" lon="1.89993">
        <ele>713.1</ele>
        <time>2026-07-08T14:48:06.000Z</time>
      </trkpt>
      <trkpt lat="45.81081" lon="1.8999">
        <ele>713.7</ele>
        <time>2026-07-08T14:48:07.000Z</time>
      </trkpt>
      <trkpt lat="45.81081" lon="1.89987">
        <ele>714.3</ele>
        <time>2026-07-08T14:48:08.000Z</time>
      </trkpt>
      <trkpt lat="45.81081" lon="1.89983">
        <ele>714.3</ele>
        <time>2026-07-08T14:48:09.000Z</time>
      </trkpt>
      <trkpt lat="45.8108" lon="1.89981">
        <ele>714.2</ele>
        <time>2026-07-08T14:48:10.000Z</time>
      </trkpt>
      <trkpt lat="45.8108" lon="1.89978">
        <ele>713.7</ele>
        <time>2026-07-08T14:48:11.000Z</time>
      </trkpt>
      <trkpt lat="45.81081" lon="1.89975">
        <ele>714.5</ele>
        <time>2026-07-08T14:48:12.000Z</time>
      </trkpt>
      <trkpt lat="45.81081" lon="1.89972">
        <ele>714.8</ele>
        <time>2026-07-08T14:48:13.000Z</time>
      </trkpt>
      <trkpt lat="45.81081" lon="1.89968">
        <ele>714.7</ele>
        <time>2026-07-08T14:48:14.000Z</time>
      </trkpt>
      <trkpt lat="45.81081" lon="1.89965">
        <ele>714.5</ele>
        <time>2026-07-08T14:48:15.000Z</time>
      </trkpt>
      <trkpt lat="45.81081" lon="1.89961">
        <ele>714.5</ele>
        <time>2026-07-08T14:48:16.000Z</time>
      </trkpt>
      <trkpt lat="45.81082" lon="1.89957">
        <ele>713.5</ele>
        <time>2026-07-08T14:48:17.000Z</time>
      </trkpt>
      <trkpt lat="45.81083" lon="1.89954">
        <ele>713.6</ele>
        <time>2026-07-08T14:48:18.000Z</time>
      </trkpt>
      <trkpt lat="45.81084" lon="1.89951">
        <ele>714</ele>
        <time>2026-07-08T14:48:19.000Z</time>
      </trkpt>
      <trkpt lat="45.81085" lon="1.89948">
        <ele>714.3</ele>
        <time>2026-07-08T14:48:20.000Z</time>
      </trkpt>
      <trkpt lat="45.81086" lon="1.89946">
        <ele>714.4</ele>
        <time>2026-07-08T14:48:21.000Z</time>
      </trkpt>
      <trkpt lat="45.81087" lon="1.89944">
        <ele>714.4</ele>
        <time>2026-07-08T14:48:22.000Z</time>
      </trkpt>
      <trkpt lat="45.81088" lon="1.89941">
        <ele>713.5</ele>
        <time>2026-07-08T14:48:23.000Z</time>
      </trkpt>
      <trkpt lat="45.81089" lon="1.8994">
        <ele>712.8</ele>
        <time>2026-07-08T14:48:24.000Z</time>
      </trkpt>
      <trkpt lat="45.81089" lon="1.89938">
        <ele>712.5</ele>
        <time>2026-07-08T14:48:25.000Z</time>
      </trkpt>
      <trkpt lat="45.8109" lon="1.89936">
        <ele>712.1</ele>
        <time>2026-07-08T14:48:26.000Z</time>
      </trkpt>
      <trkpt lat="45.81092" lon="1.89933">
        <ele>711.3</ele>
        <time>2026-07-08T14:48:27.000Z</time>
      </trkpt>
      <trkpt lat="45.81093" lon="1.89929">
        <ele>710.7</ele>
        <time>2026-07-08T14:48:28.000Z</time>
      </trkpt>
      <trkpt lat="45.81094" lon="1.89926">
        <ele>710.7</ele>
        <time>2026-07-08T14:48:29.000Z</time>
      </trkpt>
      <trkpt lat="45.81094" lon="1.89924">
        <ele>710.6</ele>
        <time>2026-07-08T14:48:30.000Z</time>
      </trkpt>
      <trkpt lat="45.81094" lon="1.89922">
        <ele>710.1</ele>
        <time>2026-07-08T14:48:31.000Z</time>
      </trkpt>
      <trkpt lat="45.81094" lon="1.89919">
        <ele>709.9</ele>
        <time>2026-07-08T14:48:32.000Z</time>
      </trkpt>
      <trkpt lat="45.81095" lon="1.89917">
        <ele>709.5</ele>
        <time>2026-07-08T14:48:33.000Z</time>
      </trkpt>
      <trkpt lat="45.81096" lon="1.89915">
        <ele>708.6</ele>
        <time>2026-07-08T14:48:34.000Z</time>
      </trkpt>
      <trkpt lat="45.81096" lon="1.89913">
        <ele>707.5</ele>
        <time>2026-07-08T14:48:35.000Z</time>
      </trkpt>
      <trkpt lat="45.81096" lon="1.89912">
        <ele>707</ele>
        <time>2026-07-08T14:48:36.000Z</time>
      </trkpt>
      <trkpt lat="45.81097" lon="1.89912">
        <ele>707.8</ele>
        <time>2026-07-08T14:48:37.000Z</time>
      </trkpt>
      <trkpt lat="45.81097" lon="1.89912">
        <ele>707.7</ele>
        <time>2026-07-08T14:48:38.000Z</time>
      </trkpt>
      <trkpt lat="45.81097" lon="1.89909">
        <ele>707.1</ele>
        <time>2026-07-08T14:48:39.000Z</time>
      </trkpt>
      <trkpt lat="45.81098" lon="1.89907">
        <ele>706.4</ele>
        <time>2026-07-08T14:48:40.000Z</time>
      </trkpt>
      <trkpt lat="45.81098" lon="1.89905">
        <ele>707</ele>
        <time>2026-07-08T14:48:41.000Z</time>
      </trkpt>
      <trkpt lat="45.81099" lon="1.89903">
        <ele>707.9</ele>
        <time>2026-07-08T14:48:42.000Z</time>
      </trkpt>
      <trkpt lat="45.81099" lon="1.89902">
        <ele>708.4</ele>
        <time>2026-07-08T14:48:43.000Z</time>
      </trkpt>
      <trkpt lat="45.81099" lon="1.89899">
        <ele>708.2</ele>
        <time>2026-07-08T14:48:44.000Z</time>
      </trkpt>
      <trkpt lat="45.81098" lon="1.89898">
        <ele>708.5</ele>
        <time>2026-07-08T14:48:45.000Z</time>
      </trkpt>
      <trkpt lat="45.81098" lon="1.89895">
        <ele>708.6</ele>
        <time>2026-07-08T14:48:46.000Z</time>
      </trkpt>
      <trkpt lat="45.81098" lon="1.89892">
        <ele>709.6</ele>
        <time>2026-07-08T14:48:47.000Z</time>
      </trkpt>
      <trkpt lat="45.81097" lon="1.89889">
        <ele>709.6</ele>
        <time>2026-07-08T14:48:48.000Z</time>
      </trkpt>
      <trkpt lat="45.81097" lon="1.89888">
        <ele>709.2</ele>
        <time>2026-07-08T14:48:49.000Z</time>
      </trkpt>
      <trkpt lat="45.81097" lon="1.89886">
        <ele>708.1</ele>
        <time>2026-07-08T14:48:50.000Z</time>
      </trkpt>
      <trkpt lat="45.81097" lon="1.89883">
        <ele>708.6</ele>
        <time>2026-07-08T14:48:51.000Z</time>
      </trkpt>
      <trkpt lat="45.81097" lon="1.89881">
        <ele>708.1</ele>
        <time>2026-07-08T14:48:52.000Z</time>
      </trkpt>
      <trkpt lat="45.81096" lon="1.89878">
        <ele>708.4</ele>
        <time>2026-07-08T14:48:53.000Z</time>
      </trkpt>
      <trkpt lat="45.81096" lon="1.89876">
        <ele>707.6</ele>
        <time>2026-07-08T14:48:54.000Z</time>
      </trkpt>
      <trkpt lat="45.81095" lon="1.89873">
        <ele>708.9</ele>
        <time>2026-07-08T14:48:55.000Z</time>
      </trkpt>
      <trkpt lat="45.81093" lon="1.89871">
        <ele>709.3</ele>
        <time>2026-07-08T14:48:56.000Z</time>
      </trkpt>
      <trkpt lat="45.81092" lon="1.89869">
        <ele>709.8</ele>
        <time>2026-07-08T14:48:57.000Z</time>
      </trkpt>
      <trkpt lat="45.81092" lon="1.89867">
        <ele>710.9</ele>
        <time>2026-07-08T14:48:58.000Z</time>
      </trkpt>
      <trkpt lat="45.8109" lon="1.89864">
        <ele>711.5</ele>
        <time>2026-07-08T14:48:59.000Z</time>
      </trkpt>
      <trkpt lat="45.81089" lon="1.89862">
        <ele>712</ele>
        <time>2026-07-08T14:49:00.000Z</time>
      </trkpt>
      <trkpt lat="45.81087" lon="1.89859">
        <ele>711.3</ele>
        <time>2026-07-08T14:49:01.000Z</time>
      </trkpt>
      <trkpt lat="45.81085" lon="1.89858">
        <ele>710.9</ele>
        <time>2026-07-08T14:49:02.000Z</time>
      </trkpt>
      <trkpt lat="45.81084" lon="1.89857">
        <ele>711.3</ele>
        <time>2026-07-08T14:49:03.000Z</time>
      </trkpt>
      <trkpt lat="45.81083" lon="1.89856">
        <ele>711.1</ele>
        <time>2026-07-08T14:49:04.000Z</time>
      </trkpt>
      <trkpt lat="45.81081" lon="1.89856">
        <ele>711.3</ele>
        <time>2026-07-08T14:49:05.000Z</time>
      </trkpt>
      <trkpt lat="45.81079" lon="1.89855">
        <ele>710.9</ele>
        <time>2026-07-08T14:49:06.000Z</time>
      </trkpt>
      <trkpt lat="45.81076" lon="1.89855">
        <ele>710.2</ele>
        <time>2026-07-08T14:49:07.000Z</time>
      </trkpt>
      <trkpt lat="45.81074" lon="1.89855">
        <ele>711</ele>
        <time>2026-07-08T14:49:08.000Z</time>
      </trkpt>
      <trkpt lat="45.81072" lon="1.89855">
        <ele>711.3</ele>
        <time>2026-07-08T14:49:09.000Z</time>
      </trkpt>
      <trkpt lat="45.8107" lon="1.89855">
        <ele>712.5</ele>
        <time>2026-07-08T14:49:10.000Z</time>
      </trkpt>
      <trkpt lat="45.81069" lon="1.89855">
        <ele>714</ele>
        <time>2026-07-08T14:49:11.000Z</time>
      </trkpt>
      <trkpt lat="45.81067" lon="1.89855">
        <ele>713</ele>
        <time>2026-07-08T14:49:12.000Z</time>
      </trkpt>
      <trkpt lat="45.81065" lon="1.89856">
        <ele>712.6</ele>
        <time>2026-07-08T14:49:13.000Z</time>
      </trkpt>
      <trkpt lat="45.81063" lon="1.89856">
        <ele>712.8</ele>
        <time>2026-07-08T14:49:14.000Z</time>
      </trkpt>
      <trkpt lat="45.81061" lon="1.89856">
        <ele>711.9</ele>
        <time>2026-07-08T14:49:15.000Z</time>
      </trkpt>
      <trkpt lat="45.8106" lon="1.89857">
        <ele>712.4</ele>
        <time>2026-07-08T14:49:16.000Z</time>
      </trkpt>
      <trkpt lat="45.81058" lon="1.89858">
        <ele>711.7</ele>
        <time>2026-07-08T14:49:17.000Z</time>
      </trkpt>
      <trkpt lat="45.81056" lon="1.89859">
        <ele>711.8</ele>
        <time>2026-07-08T14:49:18.000Z</time>
      </trkpt>
      <trkpt lat="45.81054" lon="1.89859">
        <ele>712</ele>
        <time>2026-07-08T14:49:19.000Z</time>
      </trkpt>
      <trkpt lat="45.81053" lon="1.89859">
        <ele>711.3</ele>
        <time>2026-07-08T14:49:20.000Z</time>
      </trkpt>
      <trkpt lat="45.81051" lon="1.89859">
        <ele>711.7</ele>
        <time>2026-07-08T14:49:21.000Z</time>
      </trkpt>
      <trkpt lat="45.8105" lon="1.8986">
        <ele>713.6</ele>
        <time>2026-07-08T14:49:22.000Z</time>
      </trkpt>
      <trkpt lat="45.81049" lon="1.8986">
        <ele>713.8</ele>
        <time>2026-07-08T14:49:23.000Z</time>
      </trkpt>
      <trkpt lat="45.81048" lon="1.8986">
        <ele>714.5</ele>
        <time>2026-07-08T14:49:24.000Z</time>
      </trkpt>
      <trkpt lat="45.81046" lon="1.8986">
        <ele>714.1</ele>
        <time>2026-07-08T14:49:25.000Z</time>
      </trkpt>
      <trkpt lat="45.81044" lon="1.89861">
        <ele>714.3</ele>
        <time>2026-07-08T14:49:26.000Z</time>
      </trkpt>
      <trkpt lat="45.81043" lon="1.89861">
        <ele>713.9</ele>
        <time>2026-07-08T14:49:27.000Z</time>
      </trkpt>
      <trkpt lat="45.81041" lon="1.89862">
        <ele>714.1</ele>
        <time>2026-07-08T14:49:28.000Z</time>
      </trkpt>
      <trkpt lat="45.81039" lon="1.89862">
        <ele>713.2</ele>
        <time>2026-07-08T14:49:29.000Z</time>
      </trkpt>
      <trkpt lat="45.81038" lon="1.89863">
        <ele>713.5</ele>
        <time>2026-07-08T14:49:30.000Z</time>
      </trkpt>
      <trkpt lat="45.81036" lon="1.89863">
        <ele>713.3</ele>
        <time>2026-07-08T14:49:31.000Z</time>
      </trkpt>
      <trkpt lat="45.81034" lon="1.89864">
        <ele>713</ele>
        <time>2026-07-08T14:49:32.000Z</time>
      </trkpt>
      <trkpt lat="45.81032" lon="1.89864">
        <ele>712.5</ele>
        <time>2026-07-08T14:49:33.000Z</time>
      </trkpt>
      <trkpt lat="45.8103" lon="1.89864">
        <ele>712.6</ele>
        <time>2026-07-08T14:49:34.000Z</time>
      </trkpt>
      <trkpt lat="45.81028" lon="1.89865">
        <ele>712.6</ele>
        <time>2026-07-08T14:49:35.000Z</time>
      </trkpt>
      <trkpt lat="45.81026" lon="1.89866">
        <ele>713</ele>
        <time>2026-07-08T14:49:36.000Z</time>
      </trkpt>
      <trkpt lat="45.81025" lon="1.89867">
        <ele>713.2</ele>
        <time>2026-07-08T14:49:37.000Z</time>
      </trkpt>
      <trkpt lat="45.81023" lon="1.89869">
        <ele>713.7</ele>
        <time>2026-07-08T14:49:38.000Z</time>
      </trkpt>
      <trkpt lat="45.8102" lon="1.89869">
        <ele>714.1</ele>
        <time>2026-07-08T14:49:39.000Z</time>
      </trkpt>
      <trkpt lat="45.81018" lon="1.89869">
        <ele>713.7</ele>
        <time>2026-07-08T14:49:40.000Z</time>
      </trkpt>
      <trkpt lat="45.81016" lon="1.8987">
        <ele>714.1</ele>
        <time>2026-07-08T14:49:41.000Z</time>
      </trkpt>
      <trkpt lat="45.81014" lon="1.89869">
        <ele>714.3</ele>
        <time>2026-07-08T14:49:42.000Z</time>
      </trkpt>
      <trkpt lat="45.81012" lon="1.89869">
        <ele>713.2</ele>
        <time>2026-07-08T14:49:43.000Z</time>
      </trkpt>
      <trkpt lat="45.8101" lon="1.8987">
        <ele>714</ele>
        <time>2026-07-08T14:49:44.000Z</time>
      </trkpt>
      <trkpt lat="45.81008" lon="1.89871">
        <ele>714.6</ele>
        <time>2026-07-08T14:49:45.000Z</time>
      </trkpt>
      <trkpt lat="45.81006" lon="1.89872">
        <ele>713.8</ele>
        <time>2026-07-08T14:49:46.000Z</time>
      </trkpt>
      <trkpt lat="45.81005" lon="1.89874">
        <ele>712.5</ele>
        <time>2026-07-08T14:49:47.000Z</time>
      </trkpt>
      <trkpt lat="45.81004" lon="1.89875">
        <ele>711</ele>
        <time>2026-07-08T14:49:48.000Z</time>
      </trkpt>
      <trkpt lat="45.81003" lon="1.89875">
        <ele>710.5</ele>
        <time>2026-07-08T14:49:49.000Z</time>
      </trkpt>
      <trkpt lat="45.81002" lon="1.89875">
        <ele>710.6</ele>
        <time>2026-07-08T14:49:50.000Z</time>
      </trkpt>
      <trkpt lat="45.80998" lon="1.89876">
        <ele>709.5</ele>
        <time>2026-07-08T14:49:51.000Z</time>
      </trkpt>
      <trkpt lat="45.80996" lon="1.89879">
        <ele>708.1</ele>
        <time>2026-07-08T14:49:52.000Z</time>
      </trkpt>
      <trkpt lat="45.80993" lon="1.89881">
        <ele>707.4</ele>
        <time>2026-07-08T14:49:53.000Z</time>
      </trkpt>
      <trkpt lat="45.80991" lon="1.89883">
        <ele>707.2</ele>
        <time>2026-07-08T14:49:54.000Z</time>
      </trkpt>
      <trkpt lat="45.80988" lon="1.89886">
        <ele>706.9</ele>
        <time>2026-07-08T14:49:55.000Z</time>
      </trkpt>
      <trkpt lat="45.80985" lon="1.89887">
        <ele>707</ele>
        <time>2026-07-08T14:49:56.000Z</time>
      </trkpt>
      <trkpt lat="45.80983" lon="1.89887">
        <ele>706.3</ele>
        <time>2026-07-08T14:49:57.000Z</time>
      </trkpt>
      <trkpt lat="45.8098" lon="1.89886">
        <ele>705.7</ele>
        <time>2026-07-08T14:49:58.000Z</time>
      </trkpt>
      <trkpt lat="45.80978" lon="1.89885">
        <ele>706.9</ele>
        <time>2026-07-08T14:49:59.000Z</time>
      </trkpt>
      <trkpt lat="45.80976" lon="1.89884">
        <ele>707.2</ele>
        <time>2026-07-08T14:50:00.000Z</time>
      </trkpt>
      <trkpt lat="45.80975" lon="1.89883">
        <ele>707.3</ele>
        <time>2026-07-08T14:50:01.000Z</time>
      </trkpt>
      <trkpt lat="45.80974" lon="1.89882">
        <ele>706.6</ele>
        <time>2026-07-08T14:50:02.000Z</time>
      </trkpt>
      <trkpt lat="45.80973" lon="1.89881">
        <ele>706.1</ele>
        <time>2026-07-08T14:50:03.000Z</time>
      </trkpt>
      <trkpt lat="45.80971" lon="1.89879">
        <ele>707.4</ele>
        <time>2026-07-08T14:50:04.000Z</time>
      </trkpt>
      <trkpt lat="45.80969" lon="1.89877">
        <ele>707.4</ele>
        <time>2026-07-08T14:50:05.000Z</time>
      </trkpt>
      <trkpt lat="45.80968" lon="1.89876">
        <ele>707.6</ele>
        <time>2026-07-08T14:50:06.000Z</time>
      </trkpt>
      <trkpt lat="45.80967" lon="1.89874">
        <ele>707.5</ele>
        <time>2026-07-08T14:50:07.000Z</time>
      </trkpt>
      <trkpt lat="45.80966" lon="1.89872">
        <ele>709.2</ele>
        <time>2026-07-08T14:50:08.000Z</time>
      </trkpt>
      <trkpt lat="45.80965" lon="1.89869">
        <ele>709.2</ele>
        <time>2026-07-08T14:50:09.000Z</time>
      </trkpt>
      <trkpt lat="45.80964" lon="1.89867">
        <ele>708.8</ele>
        <time>2026-07-08T14:50:10.000Z</time>
      </trkpt>
      <trkpt lat="45.80963" lon="1.89865">
        <ele>709.4</ele>
        <time>2026-07-08T14:50:11.000Z</time>
      </trkpt>
      <trkpt lat="45.80962" lon="1.89862">
        <ele>709.6</ele>
        <time>2026-07-08T14:50:12.000Z</time>
      </trkpt>
      <trkpt lat="45.80962" lon="1.89859">
        <ele>710</ele>
        <time>2026-07-08T14:50:13.000Z</time>
      </trkpt>
      <trkpt lat="45.80961" lon="1.89857">
        <ele>709.9</ele>
        <time>2026-07-08T14:50:14.000Z</time>
      </trkpt>
      <trkpt lat="45.80961" lon="1.89855">
        <ele>710.3</ele>
        <time>2026-07-08T14:50:15.000Z</time>
      </trkpt>
      <trkpt lat="45.80961" lon="1.89852">
        <ele>709.8</ele>
        <time>2026-07-08T14:50:16.000Z</time>
      </trkpt>
      <trkpt lat="45.8096" lon="1.8985">
        <ele>710.2</ele>
        <time>2026-07-08T14:50:17.000Z</time>
      </trkpt>
      <trkpt lat="45.80959" lon="1.89847">
        <ele>709</ele>
        <time>2026-07-08T14:50:18.000Z</time>
      </trkpt>
      <trkpt lat="45.80959" lon="1.89845">
        <ele>708.7</ele>
        <time>2026-07-08T14:50:19.000Z</time>
      </trkpt>
      <trkpt lat="45.80959" lon="1.89842">
        <ele>708.2</ele>
        <time>2026-07-08T14:50:20.000Z</time>
      </trkpt>
      <trkpt lat="45.80959" lon="1.8984">
        <ele>709.2</ele>
        <time>2026-07-08T14:50:21.000Z</time>
      </trkpt>
      <trkpt lat="45.80959" lon="1.89837">
        <ele>709.6</ele>
        <time>2026-07-08T14:50:22.000Z</time>
      </trkpt>
      <trkpt lat="45.80958" lon="1.89835">
        <ele>708.9</ele>
        <time>2026-07-08T14:50:23.000Z</time>
      </trkpt>
      <trkpt lat="45.80957" lon="1.89832">
        <ele>709.4</ele>
        <time>2026-07-08T14:50:24.000Z</time>
      </trkpt>
      <trkpt lat="45.80956" lon="1.8983">
        <ele>708.7</ele>
        <time>2026-07-08T14:50:25.000Z</time>
      </trkpt>
      <trkpt lat="45.80956" lon="1.89828">
        <ele>708.6</ele>
        <time>2026-07-08T14:50:26.000Z</time>
      </trkpt>
      <trkpt lat="45.80956" lon="1.89827">
        <ele>708.5</ele>
        <time>2026-07-08T14:50:27.000Z</time>
      </trkpt>
      <trkpt lat="45.80955" lon="1.89825">
        <ele>708.1</ele>
        <time>2026-07-08T14:50:28.000Z</time>
      </trkpt>
      <trkpt lat="45.80955" lon="1.89822">
        <ele>707.9</ele>
        <time>2026-07-08T14:50:29.000Z</time>
      </trkpt>
      <trkpt lat="45.80954" lon="1.8982">
        <ele>707.7</ele>
        <time>2026-07-08T14:50:30.000Z</time>
      </trkpt>
      <trkpt lat="45.80954" lon="1.89817">
        <ele>707.5</ele>
        <time>2026-07-08T14:50:31.000Z</time>
      </trkpt>
      <trkpt lat="45.80953" lon="1.89815">
        <ele>706.4</ele>
        <time>2026-07-08T14:50:32.000Z</time>
      </trkpt>
      <trkpt lat="45.80952" lon="1.89813">
        <ele>706.4</ele>
        <time>2026-07-08T14:50:33.000Z</time>
      </trkpt>
      <trkpt lat="45.80951" lon="1.8981">
        <ele>706.4</ele>
        <time>2026-07-08T14:50:34.000Z</time>
      </trkpt>
      <trkpt lat="45.8095" lon="1.89808">
        <ele>707</ele>
        <time>2026-07-08T14:50:35.000Z</time>
      </trkpt>
      <trkpt lat="45.8095" lon="1.89806">
        <ele>708.2</ele>
        <time>2026-07-08T14:50:36.000Z</time>
      </trkpt>
      <trkpt lat="45.8095" lon="1.89805">
        <ele>706.7</ele>
        <time>2026-07-08T14:50:37.000Z</time>
      </trkpt>
      <trkpt lat="45.80949" lon="1.89802">
        <ele>706</ele>
        <time>2026-07-08T14:50:38.000Z</time>
      </trkpt>
      <trkpt lat="45.80947" lon="1.898">
        <ele>706</ele>
        <time>2026-07-08T14:50:39.000Z</time>
      </trkpt>
      <trkpt lat="45.80946" lon="1.89797">
        <ele>705.4</ele>
        <time>2026-07-08T14:50:40.000Z</time>
      </trkpt>
      <trkpt lat="45.80945" lon="1.89794">
        <ele>706</ele>
        <time>2026-07-08T14:50:41.000Z</time>
      </trkpt>
      <trkpt lat="45.80944" lon="1.89792">
        <ele>706.4</ele>
        <time>2026-07-08T14:50:42.000Z</time>
      </trkpt>
      <trkpt lat="45.80944" lon="1.89789">
        <ele>707</ele>
        <time>2026-07-08T14:50:43.000Z</time>
      </trkpt>
      <trkpt lat="45.80943" lon="1.89787">
        <ele>707.5</ele>
        <time>2026-07-08T14:50:44.000Z</time>
      </trkpt>
      <trkpt lat="45.80942" lon="1.89785">
        <ele>708.7</ele>
        <time>2026-07-08T14:50:45.000Z</time>
      </trkpt>
      <trkpt lat="45.80941" lon="1.89782">
        <ele>708.5</ele>
        <time>2026-07-08T14:50:46.000Z</time>
      </trkpt>
      <trkpt lat="45.8094" lon="1.8978">
        <ele>708.9</ele>
        <time>2026-07-08T14:50:47.000Z</time>
      </trkpt>
      <trkpt lat="45.80939" lon="1.89777">
        <ele>708.6</ele>
        <time>2026-07-08T14:50:48.000Z</time>
      </trkpt>
      <trkpt lat="45.80939" lon="1.89774">
        <ele>708.2</ele>
        <time>2026-07-08T14:50:49.000Z</time>
      </trkpt>
      <trkpt lat="45.80938" lon="1.89771">
        <ele>709.1</ele>
        <time>2026-07-08T14:50:50.000Z</time>
      </trkpt>
      <trkpt lat="45.80938" lon="1.89769">
        <ele>708.4</ele>
        <time>2026-07-08T14:50:51.000Z</time>
      </trkpt>
      <trkpt lat="45.80937" lon="1.89766">
        <ele>707.3</ele>
        <time>2026-07-08T14:50:52.000Z</time>
      </trkpt>
      <trkpt lat="45.80936" lon="1.89764">
        <ele>707.9</ele>
        <time>2026-07-08T14:50:53.000Z</time>
      </trkpt>
      <trkpt lat="45.80936" lon="1.89761">
        <ele>708</ele>
        <time>2026-07-08T14:50:54.000Z</time>
      </trkpt>
      <trkpt lat="45.80935" lon="1.89758">
        <ele>707.4</ele>
        <time>2026-07-08T14:50:55.000Z</time>
      </trkpt>
      <trkpt lat="45.80935" lon="1.89756">
        <ele>707.8</ele>
        <time>2026-07-08T14:50:56.000Z</time>
      </trkpt>
      <trkpt lat="45.80934" lon="1.89753">
        <ele>708</ele>
        <time>2026-07-08T14:50:57.000Z</time>
      </trkpt>
      <trkpt lat="45.80933" lon="1.8975">
        <ele>707.7</ele>
        <time>2026-07-08T14:50:58.000Z</time>
      </trkpt>
      <trkpt lat="45.80932" lon="1.89748">
        <ele>707.9</ele>
        <time>2026-07-08T14:50:59.000Z</time>
      </trkpt>
      <trkpt lat="45.80932" lon="1.89745">
        <ele>708.4</ele>
        <time>2026-07-08T14:51:00.000Z</time>
      </trkpt>
      <trkpt lat="45.8093" lon="1.89743">
        <ele>708.6</ele>
        <time>2026-07-08T14:51:01.000Z</time>
      </trkpt>
      <trkpt lat="45.8093" lon="1.8974">
        <ele>708.1</ele>
        <time>2026-07-08T14:51:02.000Z</time>
      </trkpt>
      <trkpt lat="45.80929" lon="1.89738">
        <ele>710</ele>
        <time>2026-07-08T14:51:03.000Z</time>
      </trkpt>
      <trkpt lat="45.80927" lon="1.89738">
        <ele>709.4</ele>
        <time>2026-07-08T14:51:04.000Z</time>
      </trkpt>
      <trkpt lat="45.80926" lon="1.89736">
        <ele>709.2</ele>
        <time>2026-07-08T14:51:05.000Z</time>
      </trkpt>
      <trkpt lat="45.80925" lon="1.89736">
        <ele>709</ele>
        <time>2026-07-08T14:51:06.000Z</time>
      </trkpt>
      <trkpt lat="45.80926" lon="1.89737">
        <ele>707.3</ele>
        <time>2026-07-08T14:51:07.000Z</time>
      </trkpt>
      <trkpt lat="45.80926" lon="1.89738">
        <ele>707.3</ele>
        <time>2026-07-08T14:51:08.000Z</time>
      </trkpt>
      <trkpt lat="45.80926" lon="1.89738">
        <ele>707.6</ele>
        <time>2026-07-08T14:51:09.000Z</time>
      </trkpt>
      <trkpt lat="45.80925" lon="1.89738">
        <ele>707</ele>
        <time>2026-07-08T14:51:10.000Z</time>
      </trkpt>
      <trkpt lat="45.80924" lon="1.89738">
        <ele>706.9</ele>
        <time>2026-07-08T14:51:11.000Z</time>
      </trkpt>
      <trkpt lat="45.80923" lon="1.89738">
        <ele>706.9</ele>
        <time>2026-07-08T14:51:12.000Z</time>
      </trkpt>
      <trkpt lat="45.80922" lon="1.89737">
        <ele>706.8</ele>
        <time>2026-07-08T14:51:13.000Z</time>
      </trkpt>
      <trkpt lat="45.8092" lon="1.89737">
        <ele>706.7</ele>
        <time>2026-07-08T14:51:14.000Z</time>
      </trkpt>
      <trkpt lat="45.80919" lon="1.89736">
        <ele>707.3</ele>
        <time>2026-07-08T14:51:15.000Z</time>
      </trkpt>
      <trkpt lat="45.80919" lon="1.89734">
        <ele>708.8</ele>
        <time>2026-07-08T14:51:16.000Z</time>
      </trkpt>
      <trkpt lat="45.80919" lon="1.89731">
        <ele>708.7</ele>
        <time>2026-07-08T14:51:17.000Z</time>
      </trkpt>
      <trkpt lat="45.80919" lon="1.89728">
        <ele>709.6</ele>
        <time>2026-07-08T14:51:18.000Z</time>
      </trkpt>
      <trkpt lat="45.80919" lon="1.89725">
        <ele>710.5</ele>
        <time>2026-07-08T14:51:19.000Z</time>
      </trkpt>
      <trkpt lat="45.80918" lon="1.89723">
        <ele>710.8</ele>
        <time>2026-07-08T14:51:20.000Z</time>
      </trkpt>
      <trkpt lat="45.80918" lon="1.89719">
        <ele>710.9</ele>
        <time>2026-07-08T14:51:21.000Z</time>
      </trkpt>
      <trkpt lat="45.80918" lon="1.89717">
        <ele>710.5</ele>
        <time>2026-07-08T14:51:22.000Z</time>
      </trkpt>
      <trkpt lat="45.80918" lon="1.89714">
        <ele>709</ele>
        <time>2026-07-08T14:51:23.000Z</time>
      </trkpt>
      <trkpt lat="45.80918" lon="1.89711">
        <ele>706.9</ele>
        <time>2026-07-08T14:51:24.000Z</time>
      </trkpt>
      <trkpt lat="45.80919" lon="1.89708">
        <ele>706.4</ele>
        <time>2026-07-08T14:51:25.000Z</time>
      </trkpt>
      <trkpt lat="45.8092" lon="1.89704">
        <ele>705.7</ele>
        <time>2026-07-08T14:51:26.000Z</time>
      </trkpt>
      <trkpt lat="45.80921" lon="1.89702">
        <ele>704.9</ele>
        <time>2026-07-08T14:51:27.000Z</time>
      </trkpt>
      <trkpt lat="45.80921" lon="1.897">
        <ele>705</ele>
        <time>2026-07-08T14:51:28.000Z</time>
      </trkpt>
      <trkpt lat="45.80922" lon="1.89698">
        <ele>703.5</ele>
        <time>2026-07-08T14:51:29.000Z</time>
      </trkpt>
      <trkpt lat="45.80922" lon="1.89695">
        <ele>702.9</ele>
        <time>2026-07-08T14:51:30.000Z</time>
      </trkpt>
      <trkpt lat="45.8092" lon="1.89693">
        <ele>703.4</ele>
        <time>2026-07-08T14:51:31.000Z</time>
      </trkpt>
      <trkpt lat="45.80919" lon="1.89696">
        <ele>703.7</ele>
        <time>2026-07-08T14:51:32.000Z</time>
      </trkpt>
      <trkpt lat="45.80918" lon="1.89697">
        <ele>703.7</ele>
        <time>2026-07-08T14:51:33.000Z</time>
      </trkpt>
      <trkpt lat="45.80918" lon="1.89697">
        <ele>703.7</ele>
        <time>2026-07-08T14:51:34.000Z</time>
      </trkpt>
      <trkpt lat="45.80918" lon="1.89697">
        <ele>703.7</ele>
        <time>2026-07-08T14:51:35.000Z</time>
      </trkpt>
      <trkpt lat="45.80918" lon="1.89697">
        <ele>703.5</ele>
        <time>2026-07-08T14:51:36.000Z</time>
      </trkpt>
      <trkpt lat="45.8092" lon="1.89696">
        <ele>702.8</ele>
        <time>2026-07-08T14:51:37.000Z</time>
      </trkpt>
      <trkpt lat="45.80922" lon="1.89697">
        <ele>701.6</ele>
        <time>2026-07-08T14:51:38.000Z</time>
      </trkpt>
      <trkpt lat="45.80924" lon="1.89696">
        <ele>701.1</ele>
        <time>2026-07-08T14:51:39.000Z</time>
      </trkpt>
      <trkpt lat="45.80925" lon="1.89694">
        <ele>700.9</ele>
        <time>2026-07-08T14:51:40.000Z</time>
      </trkpt>
      <trkpt lat="45.80927" lon="1.89693">
        <ele>700.7</ele>
        <time>2026-07-08T14:51:41.000Z</time>
      </trkpt>
      <trkpt lat="45.80928" lon="1.89692">
        <ele>701.5</ele>
        <time>2026-07-08T14:51:42.000Z</time>
      </trkpt>
      <trkpt lat="45.8093" lon="1.89691">
        <ele>701.7</ele>
        <time>2026-07-08T14:51:43.000Z</time>
      </trkpt>
      <trkpt lat="45.8093" lon="1.8969">
        <ele>703.1</ele>
        <time>2026-07-08T14:51:44.000Z</time>
      </trkpt>
      <trkpt lat="45.80931" lon="1.89689">
        <ele>702.8</ele>
        <time>2026-07-08T14:51:45.000Z</time>
      </trkpt>
      <trkpt lat="45.8093" lon="1.89688">
        <ele>702.2</ele>
        <time>2026-07-08T14:51:46.000Z</time>
      </trkpt>
      <trkpt lat="45.80927" lon="1.89687">
        <ele>703</ele>
        <time>2026-07-08T14:51:47.000Z</time>
      </trkpt>
      <trkpt lat="45.80925" lon="1.89687">
        <ele>703.6</ele>
        <time>2026-07-08T14:51:48.000Z</time>
      </trkpt>
      <trkpt lat="45.80926" lon="1.89687">
        <ele>703.6</ele>
        <time>2026-07-08T14:51:49.000Z</time>
      </trkpt>
      <trkpt lat="45.80926" lon="1.89688">
        <ele>703.6</ele>
        <time>2026-07-08T14:51:50.000Z</time>
      </trkpt>
      <trkpt lat="45.80926" lon="1.89688">
        <ele>703.6</ele>
        <time>2026-07-08T14:51:51.000Z</time>
      </trkpt>
      <trkpt lat="45.80926" lon="1.89688">
        <ele>703.6</ele>
        <time>2026-07-08T14:51:52.000Z</time>
      </trkpt>
      <trkpt lat="45.80926" lon="1.89688">
        <ele>703.6</ele>
        <time>2026-07-08T14:51:53.000Z</time>
      </trkpt>
      <trkpt lat="45.80926" lon="1.89688">
        <ele>703.6</ele>
        <time>2026-07-08T14:51:54.000Z</time>
      </trkpt>
      <trkpt lat="45.80926" lon="1.89688">
        <ele>703.6</ele>
        <time>2026-07-08T14:51:55.000Z</time>
      </trkpt>
      <trkpt lat="45.80926" lon="1.89688">
        <ele>703.3</ele>
        <time>2026-07-08T14:51:56.000Z</time>
      </trkpt>
      <trkpt lat="45.80926" lon="1.89688">
        <ele>703.3</ele>
        <time>2026-07-08T14:51:57.000Z</time>
      </trkpt>
      <trkpt lat="45.80925" lon="1.89687">
        <ele>703.2</ele>
        <time>2026-07-08T14:51:58.000Z</time>
      </trkpt>
      <trkpt lat="45.80924" lon="1.89686">
        <ele>703.3</ele>
        <time>2026-07-08T14:51:59.000Z</time>
      </trkpt>
      <trkpt lat="45.80924" lon="1.89685">
        <ele>703.8</ele>
        <time>2026-07-08T14:52:00.000Z</time>
      </trkpt>
      <trkpt lat="45.80923" lon="1.89684">
        <ele>705.5</ele>
        <time>2026-07-08T14:52:01.000Z</time>
      </trkpt>
      <trkpt lat="45.80923" lon="1.89683">
        <ele>705.4</ele>
        <time>2026-07-08T14:52:02.000Z</time>
      </trkpt>
      <trkpt lat="45.80923" lon="1.89681">
        <ele>706.8</ele>
        <time>2026-07-08T14:52:03.000Z</time>
      </trkpt>
      <trkpt lat="45.80923" lon="1.8968">
        <ele>706.9</ele>
        <time>2026-07-08T14:52:04.000Z</time>
      </trkpt>
      <trkpt lat="45.80923" lon="1.89678">
        <ele>707</ele>
        <time>2026-07-08T14:52:05.000Z</time>
      </trkpt>
      <trkpt lat="45.80922" lon="1.89677">
        <ele>707.8</ele>
        <time>2026-07-08T14:52:06.000Z</time>
      </trkpt>
      <trkpt lat="45.80921" lon="1.89676">
        <ele>707.5</ele>
        <time>2026-07-08T14:52:07.000Z</time>
      </trkpt>
      <trkpt lat="45.80919" lon="1.89676">
        <ele>708.1</ele>
        <time>2026-07-08T14:52:08.000Z</time>
      </trkpt>
      <trkpt lat="45.80918" lon="1.89677">
        <ele>707.9</ele>
        <time>2026-07-08T14:52:09.000Z</time>
      </trkpt>
      <trkpt lat="45.80917" lon="1.89678">
        <ele>707.9</ele>
        <time>2026-07-08T14:52:10.000Z</time>
      </trkpt>
      <trkpt lat="45.80916" lon="1.89679">
        <ele>707.7</ele>
        <time>2026-07-08T14:52:11.000Z</time>
      </trkpt>
      <trkpt lat="45.80915" lon="1.89678">
        <ele>707.4</ele>
        <time>2026-07-08T14:52:12.000Z</time>
      </trkpt>
      <trkpt lat="45.80914" lon="1.89677">
        <ele>706.7</ele>
        <time>2026-07-08T14:52:13.000Z</time>
      </trkpt>
      <trkpt lat="45.80915" lon="1.89677">
        <ele>706.6</ele>
        <time>2026-07-08T14:52:14.000Z</time>
      </trkpt>
      <trkpt lat="45.80916" lon="1.89677">
        <ele>707.5</ele>
        <time>2026-07-08T14:52:15.000Z</time>
      </trkpt>
      <trkpt lat="45.80917" lon="1.89678">
        <ele>708.8</ele>
        <time>2026-07-08T14:52:16.000Z</time>
      </trkpt>
      <trkpt lat="45.80918" lon="1.8968">
        <ele>708.7</ele>
        <time>2026-07-08T14:52:17.000Z</time>
      </trkpt>
      <trkpt lat="45.80918" lon="1.8968">
        <ele>707.2</ele>
        <time>2026-07-08T14:52:18.000Z</time>
      </trkpt>
      <trkpt lat="45.80917" lon="1.8968">
        <ele>706.2</ele>
        <time>2026-07-08T14:52:19.000Z</time>
      </trkpt>
      <trkpt lat="45.80916" lon="1.89679">
        <ele>706.6</ele>
        <time>2026-07-08T14:52:20.000Z</time>
      </trkpt>
      <trkpt lat="45.80914" lon="1.89678">
        <ele>705.9</ele>
        <time>2026-07-08T14:52:21.000Z</time>
      </trkpt>
      <trkpt lat="45.80913" lon="1.89678">
        <ele>705.4</ele>
        <time>2026-07-08T14:52:22.000Z</time>
      </trkpt>
      <trkpt lat="45.80911" lon="1.89677">
        <ele>704.4</ele>
        <time>2026-07-08T14:52:23.000Z</time>
      </trkpt>
      <trkpt lat="45.8091" lon="1.89676">
        <ele>704</ele>
        <time>2026-07-08T14:52:24.000Z</time>
      </trkpt>
      <trkpt lat="45.80908" lon="1.89676">
        <ele>704.3</ele>
        <time>2026-07-08T14:52:25.000Z</time>
      </trkpt>
      <trkpt lat="45.80908" lon="1.89675">
        <ele>704.8</ele>
        <time>2026-07-08T14:52:26.000Z</time>
      </trkpt>
      <trkpt lat="45.80908" lon="1.89675">
        <ele>704.9</ele>
        <time>2026-07-08T14:52:27.000Z</time>
      </trkpt>
      <trkpt lat="45.80906" lon="1.89674">
        <ele>706.1</ele>
        <time>2026-07-08T14:52:28.000Z</time>
      </trkpt>
      <trkpt lat="45.80907" lon="1.89674">
        <ele>705.5</ele>
        <time>2026-07-08T14:52:29.000Z</time>
      </trkpt>
      <trkpt lat="45.80908" lon="1.89675">
        <ele>705.1</ele>
        <time>2026-07-08T14:52:30.000Z</time>
      </trkpt>
      <trkpt lat="45.80908" lon="1.89675">
        <ele>706.2</ele>
        <time>2026-07-08T14:52:31.000Z</time>
      </trkpt>
      <trkpt lat="45.80909" lon="1.89675">
        <ele>706.1</ele>
        <time>2026-07-08T14:52:32.000Z</time>
      </trkpt>
      <trkpt lat="45.80908" lon="1.89675">
        <ele>706</ele>
        <time>2026-07-08T14:52:33.000Z</time>
      </trkpt>
      <trkpt lat="45.80907" lon="1.89674">
        <ele>705.5</ele>
        <time>2026-07-08T14:52:34.000Z</time>
      </trkpt>
      <trkpt lat="45.80907" lon="1.89674">
        <ele>705.4</ele>
        <time>2026-07-08T14:52:35.000Z</time>
      </trkpt>
      <trkpt lat="45.80907" lon="1.89674">
        <ele>705.4</ele>
        <time>2026-07-08T14:52:36.000Z</time>
      </trkpt>
      <trkpt lat="45.80907" lon="1.89674">
        <ele>705.4</ele>
        <time>2026-07-08T14:52:37.000Z</time>
      </trkpt>
      <trkpt lat="45.80907" lon="1.89674">
        <ele>705.4</ele>
        <time>2026-07-08T14:52:38.000Z</time>
      </trkpt>
      <trkpt lat="45.80907" lon="1.89674">
        <ele>705.4</ele>
        <time>2026-07-08T14:52:39.000Z</time>
      </trkpt>
      <trkpt lat="45.80907" lon="1.89674">
        <ele>705.4</ele>
        <time>2026-07-08T14:52:40.000Z</time>
      </trkpt>
      <trkpt lat="45.80907" lon="1.89674">
        <ele>705.4</ele>
        <time>2026-07-08T14:52:41.000Z</time>
      </trkpt>
      <trkpt lat="45.80907" lon="1.89674">
        <ele>705.4</ele>
        <time>2026-07-08T14:52:42.000Z</time>
      </trkpt>
      <trkpt lat="45.80907" lon="1.89674">
        <ele>705.4</ele>
        <time>2026-07-08T14:52:43.000Z</time>
      </trkpt>
      <trkpt lat="45.80907" lon="1.89674">
        <ele>705.4</ele>
        <time>2026-07-08T14:52:44.000Z</time>
      </trkpt>
      <trkpt lat="45.80907" lon="1.89674">
        <ele>705.4</ele>
        <time>2026-07-08T14:52:45.000Z</time>
      </trkpt>
      <trkpt lat="45.80907" lon="1.89674">
        <ele>705.4</ele>
        <time>2026-07-08T14:52:46.000Z</time>
      </trkpt>
      <trkpt lat="45.80907" lon="1.89674">
        <ele>705.3</ele>
        <time>2026-07-08T14:52:47.000Z</time>
      </trkpt>
      <trkpt lat="45.80907" lon="1.89674">
        <ele>705.3</ele>
        <time>2026-07-08T14:52:48.000Z</time>
      </trkpt>
      <trkpt lat="45.80907" lon="1.89674">
        <ele>705.3</ele>
        <time>2026-07-08T14:52:49.000Z</time>
      </trkpt>
      <trkpt lat="45.80907" lon="1.89674">
        <ele>705.3</ele>
        <time>2026-07-08T14:52:50.000Z</time>
      </trkpt>
      <trkpt lat="45.80907" lon="1.89675">
        <ele>705</ele>
        <time>2026-07-08T14:52:51.000Z</time>
      </trkpt>
      <trkpt lat="45.80907" lon="1.89675">
        <ele>705</ele>
        <time>2026-07-08T14:52:52.000Z</time>
      </trkpt>
      <trkpt lat="45.80907" lon="1.89675">
        <ele>705</ele>
        <time>2026-07-08T14:52:53.000Z</time>
      </trkpt>
      <trkpt lat="45.80907" lon="1.89675">
        <ele>705</ele>
        <time>2026-07-08T14:52:54.000Z</time>
      </trkpt>
      <trkpt lat="45.80907" lon="1.89675">
        <ele>705</ele>
        <time>2026-07-08T14:52:55.000Z</time>
      </trkpt>
      <trkpt lat="45.80907" lon="1.89675">
        <ele>705</ele>
        <time>2026-07-08T14:52:56.000Z</time>
      </trkpt>
      <trkpt lat="45.80907" lon="1.89675">
        <ele>705</ele>
        <time>2026-07-08T14:52:57.000Z</time>
      </trkpt>
      <trkpt lat="45.80907" lon="1.89675">
        <ele>705</ele>
        <time>2026-07-08T14:52:58.000Z</time>
      </trkpt>
      <trkpt lat="45.80907" lon="1.89675">
        <ele>705</ele>
        <time>2026-07-08T14:52:59.000Z</time>
      </trkpt>
      <trkpt lat="45.80907" lon="1.89675">
        <ele>704.9</ele>
        <time>2026-07-08T14:53:00.000Z</time>
      </trkpt>
      <trkpt lat="45.80906" lon="1.89674">
        <ele>704.7</ele>
        <time>2026-07-08T14:53:01.000Z</time>
      </trkpt>
      <trkpt lat="45.80906" lon="1.89673">
        <ele>704.2</ele>
        <time>2026-07-08T14:53:02.000Z</time>
      </trkpt>
      <trkpt lat="45.80908" lon="1.89667">
        <ele>704.2</ele>
        <time>2026-07-08T14:53:03.000Z</time>
      </trkpt>
      <trkpt lat="45.80906" lon="1.89667">
        <ele>703.9</ele>
        <time>2026-07-08T14:53:04.000Z</time>
      </trkpt>
      <trkpt lat="45.80905" lon="1.89667">
        <ele>704</ele>
        <time>2026-07-08T14:53:05.000Z</time>
      </trkpt>
      <trkpt lat="45.80905" lon="1.89666">
        <ele>703.8</ele>
        <time>2026-07-08T14:53:06.000Z</time>
      </trkpt>
      <trkpt lat="45.80904" lon="1.89666">
        <ele>703.5</ele>
        <time>2026-07-08T14:53:07.000Z</time>
      </trkpt>
      <trkpt lat="45.80904" lon="1.89665">
        <ele>703</ele>
        <time>2026-07-08T14:53:08.000Z</time>
      </trkpt>
      <trkpt lat="45.80903" lon="1.89665">
        <ele>703.3</ele>
        <time>2026-07-08T14:53:09.000Z</time>
      </trkpt>
      <trkpt lat="45.80903" lon="1.89664">
        <ele>702.7</ele>
        <time>2026-07-08T14:53:10.000Z</time>
      </trkpt>
      <trkpt lat="45.80903" lon="1.89662">
        <ele>702.4</ele>
        <time>2026-07-08T14:53:11.000Z</time>
      </trkpt>
      <trkpt lat="45.80905" lon="1.89662">
        <ele>702.1</ele>
        <time>2026-07-08T14:53:12.000Z</time>
      </trkpt>
      <trkpt lat="45.80906" lon="1.89662">
        <ele>702.4</ele>
        <time>2026-07-08T14:53:13.000Z</time>
      </trkpt>
      <trkpt lat="45.80906" lon="1.89661">
        <ele>702.8</ele>
        <time>2026-07-08T14:53:14.000Z</time>
      </trkpt>
      <trkpt lat="45.80906" lon="1.89659">
        <ele>702.8</ele>
        <time>2026-07-08T14:53:15.000Z</time>
      </trkpt>
      <trkpt lat="45.80906" lon="1.89658">
        <ele>703</ele>
        <time>2026-07-08T14:53:16.000Z</time>
      </trkpt>
      <trkpt lat="45.80906" lon="1.89657">
        <ele>702.7</ele>
        <time>2026-07-08T14:53:17.000Z</time>
      </trkpt>
      <trkpt lat="45.80906" lon="1.89656">
        <ele>702.6</ele>
        <time>2026-07-08T14:53:18.000Z</time>
      </trkpt>
      <trkpt lat="45.80905" lon="1.89655">
        <ele>702.2</ele>
        <time>2026-07-08T14:53:19.000Z</time>
      </trkpt>
      <trkpt lat="45.80905" lon="1.89654">
        <ele>702.2</ele>
        <time>2026-07-08T14:53:20.000Z</time>
      </trkpt>
      <trkpt lat="45.80906" lon="1.89652">
        <ele>702.5</ele>
        <time>2026-07-08T14:53:21.000Z</time>
      </trkpt>
      <trkpt lat="45.80905" lon="1.89651">
        <ele>702</ele>
        <time>2026-07-08T14:53:22.000Z</time>
      </trkpt>
      <trkpt lat="45.80905" lon="1.89649">
        <ele>702.2</ele>
        <time>2026-07-08T14:53:23.000Z</time>
      </trkpt>
      <trkpt lat="45.80906" lon="1.89647">
        <ele>702.4</ele>
        <time>2026-07-08T14:53:24.000Z</time>
      </trkpt>
      <trkpt lat="45.80906" lon="1.89646">
        <ele>702.2</ele>
        <time>2026-07-08T14:53:25.000Z</time>
      </trkpt>
      <trkpt lat="45.80907" lon="1.89645">
        <ele>702.4</ele>
        <time>2026-07-08T14:53:26.000Z</time>
      </trkpt>
      <trkpt lat="45.80908" lon="1.89643">
        <ele>702.3</ele>
        <time>2026-07-08T14:53:27.000Z</time>
      </trkpt>
      <trkpt lat="45.80908" lon="1.89642">
        <ele>702</ele>
        <time>2026-07-08T14:53:28.000Z</time>
      </trkpt>
      <trkpt lat="45.80907" lon="1.8964">
        <ele>701.5</ele>
        <time>2026-07-08T14:53:29.000Z</time>
      </trkpt>
      <trkpt lat="45.80907" lon="1.89639">
        <ele>701.2</ele>
        <time>2026-07-08T14:53:30.000Z</time>
      </trkpt>
      <trkpt lat="45.80906" lon="1.89638">
        <ele>701</ele>
        <time>2026-07-08T14:53:31.000Z</time>
      </trkpt>
      <trkpt lat="45.80905" lon="1.89637">
        <ele>700.8</ele>
        <time>2026-07-08T14:53:32.000Z</time>
      </trkpt>
      <trkpt lat="45.80904" lon="1.89636">
        <ele>701.2</ele>
        <time>2026-07-08T14:53:33.000Z</time>
      </trkpt>
      <trkpt lat="45.80903" lon="1.89636">
        <ele>701.2</ele>
        <time>2026-07-08T14:53:34.000Z</time>
      </trkpt>
      <trkpt lat="45.80903" lon="1.89636">
        <ele>701.4</ele>
        <time>2026-07-08T14:53:35.000Z</time>
      </trkpt>
      <trkpt lat="45.80903" lon="1.89638">
        <ele>701.4</ele>
        <time>2026-07-08T14:53:36.000Z</time>
      </trkpt>
      <trkpt lat="45.80904" lon="1.89638">
        <ele>701.6</ele>
        <time>2026-07-08T14:53:37.000Z</time>
      </trkpt>
      <trkpt lat="45.80904" lon="1.89639">
        <ele>701.8</ele>
        <time>2026-07-08T14:53:38.000Z</time>
      </trkpt>
      <trkpt lat="45.80904" lon="1.89639">
        <ele>701.5</ele>
        <time>2026-07-08T14:53:39.000Z</time>
      </trkpt>
      <trkpt lat="45.80904" lon="1.89639">
        <ele>701.3</ele>
        <time>2026-07-08T14:53:40.000Z</time>
      </trkpt>
      <trkpt lat="45.80904" lon="1.8964">
        <ele>701.6</ele>
        <time>2026-07-08T14:53:41.000Z</time>
      </trkpt>
      <trkpt lat="45.80903" lon="1.8964">
        <ele>701.3</ele>
        <time>2026-07-08T14:53:42.000Z</time>
      </trkpt>
      <trkpt lat="45.80902" lon="1.89641">
        <ele>700.8</ele>
        <time>2026-07-08T14:53:43.000Z</time>
      </trkpt>
      <trkpt lat="45.80902" lon="1.89642">
        <ele>700.9</ele>
        <time>2026-07-08T14:53:44.000Z</time>
      </trkpt>
      <trkpt lat="45.80901" lon="1.89642">
        <ele>700.7</ele>
        <time>2026-07-08T14:53:45.000Z</time>
      </trkpt>
      <trkpt lat="45.809" lon="1.89642">
        <ele>700.7</ele>
        <time>2026-07-08T14:53:46.000Z</time>
      </trkpt>
      <trkpt lat="45.809" lon="1.89642">
        <ele>700.6</ele>
        <time>2026-07-08T14:53:47.000Z</time>
      </trkpt>
      <trkpt lat="45.809" lon="1.89641">
        <ele>700.8</ele>
        <time>2026-07-08T14:53:48.000Z</time>
      </trkpt>
      <trkpt lat="45.80901" lon="1.8964">
        <ele>700.9</ele>
        <time>2026-07-08T14:53:49.000Z</time>
      </trkpt>
      <trkpt lat="45.80902" lon="1.8964">
        <ele>701.1</ele>
        <time>2026-07-08T14:53:50.000Z</time>
      </trkpt>
      <trkpt lat="45.80902" lon="1.89641">
        <ele>701.1</ele>
        <time>2026-07-08T14:53:51.000Z</time>
      </trkpt>
      <trkpt lat="45.80903" lon="1.89642">
        <ele>701.2</ele>
        <time>2026-07-08T14:53:52.000Z</time>
      </trkpt>
      <trkpt lat="45.80903" lon="1.89642">
        <ele>701.2</ele>
        <time>2026-07-08T14:53:53.000Z</time>
      </trkpt>
      <trkpt lat="45.80904" lon="1.89642">
        <ele>701.6</ele>
        <time>2026-07-08T14:53:54.000Z</time>
      </trkpt>
      <trkpt lat="45.80905" lon="1.89642">
        <ele>701.5</ele>
        <time>2026-07-08T14:53:55.000Z</time>
      </trkpt>
      <trkpt lat="45.80906" lon="1.89642">
        <ele>701.6</ele>
        <time>2026-07-08T14:53:56.000Z</time>
      </trkpt>
      <trkpt lat="45.80908" lon="1.89642">
        <ele>702</ele>
        <time>2026-07-08T14:53:57.000Z</time>
      </trkpt>
      <trkpt lat="45.8091" lon="1.89643">
        <ele>702.3</ele>
        <time>2026-07-08T14:53:58.000Z</time>
      </trkpt>
      <trkpt lat="45.80911" lon="1.89642">
        <ele>702.5</ele>
        <time>2026-07-08T14:53:59.000Z</time>
      </trkpt>
      <trkpt lat="45.80912" lon="1.89641">
        <ele>702.6</ele>
        <time>2026-07-08T14:54:00.000Z</time>
      </trkpt>
      <trkpt lat="45.80912" lon="1.89639">
        <ele>702.5</ele>
        <time>2026-07-08T14:54:01.000Z</time>
      </trkpt>
      <trkpt lat="45.80913" lon="1.89637">
        <ele>702.4</ele>
        <time>2026-07-08T14:54:02.000Z</time>
      </trkpt>
      <trkpt lat="45.80912" lon="1.89634">
        <ele>702.3</ele>
        <time>2026-07-08T14:54:03.000Z</time>
      </trkpt>
      <trkpt lat="45.80912" lon="1.89632">
        <ele>702.3</ele>
        <time>2026-07-08T14:54:04.000Z</time>
      </trkpt>
      <trkpt lat="45.80912" lon="1.8963">
        <ele>702.7</ele>
        <time>2026-07-08T14:54:05.000Z</time>
      </trkpt>
      <trkpt lat="45.80912" lon="1.89628">
        <ele>702.7</ele>
        <time>2026-07-08T14:54:06.000Z</time>
      </trkpt>
      <trkpt lat="45.80911" lon="1.89626">
        <ele>702.5</ele>
        <time>2026-07-08T14:54:07.000Z</time>
      </trkpt>
      <trkpt lat="45.8091" lon="1.89624">
        <ele>702.4</ele>
        <time>2026-07-08T14:54:08.000Z</time>
      </trkpt>
      <trkpt lat="45.80909" lon="1.89624">
        <ele>702.2</ele>
        <time>2026-07-08T14:54:09.000Z</time>
      </trkpt>
      <trkpt lat="45.80908" lon="1.89623">
        <ele>702</ele>
        <time>2026-07-08T14:54:10.000Z</time>
      </trkpt>
      <trkpt lat="45.80907" lon="1.89622">
        <ele>701.7</ele>
        <time>2026-07-08T14:54:11.000Z</time>
      </trkpt>
      <trkpt lat="45.80906" lon="1.89622">
        <ele>701.5</ele>
        <time>2026-07-08T14:54:12.000Z</time>
      </trkpt>
      <trkpt lat="45.80905" lon="1.89622">
        <ele>701.5</ele>
        <time>2026-07-08T14:54:13.000Z</time>
      </trkpt>
      <trkpt lat="45.80904" lon="1.89623">
        <ele>701.4</ele>
        <time>2026-07-08T14:54:14.000Z</time>
      </trkpt>
      <trkpt lat="45.80904" lon="1.89623">
        <ele>701.2</ele>
        <time>2026-07-08T14:54:15.000Z</time>
      </trkpt>
      <trkpt lat="45.80904" lon="1.89623">
        <ele>701.1</ele>
        <time>2026-07-08T14:54:16.000Z</time>
      </trkpt>
      <trkpt lat="45.80904" lon="1.89622">
        <ele>701.3</ele>
        <time>2026-07-08T14:54:17.000Z</time>
      </trkpt>
      <trkpt lat="45.80904" lon="1.89622">
        <ele>701.2</ele>
        <time>2026-07-08T14:54:18.000Z</time>
      </trkpt>
      <trkpt lat="45.80904" lon="1.89623">
        <ele>701.4</ele>
        <time>2026-07-08T14:54:19.000Z</time>
      </trkpt>
      <trkpt lat="45.80904" lon="1.89623">
        <ele>701.3</ele>
        <time>2026-07-08T14:54:20.000Z</time>
      </trkpt>
      <trkpt lat="45.80904" lon="1.89623">
        <ele>701.5</ele>
        <time>2026-07-08T14:54:21.000Z</time>
      </trkpt>
      <trkpt lat="45.80906" lon="1.8962">
        <ele>702.1</ele>
        <time>2026-07-08T14:54:22.000Z</time>
      </trkpt>
      <trkpt lat="45.80906" lon="1.8962">
        <ele>702.1</ele>
        <time>2026-07-08T14:54:23.000Z</time>
      </trkpt>
      <trkpt lat="45.80906" lon="1.8962">
        <ele>702.1</ele>
        <time>2026-07-08T14:54:24.000Z</time>
      </trkpt>
      <trkpt lat="45.80905" lon="1.8962">
        <ele>702.2</ele>
        <time>2026-07-08T14:54:25.000Z</time>
      </trkpt>
      <trkpt lat="45.80905" lon="1.89621">
        <ele>702.1</ele>
        <time>2026-07-08T14:54:26.000Z</time>
      </trkpt>
      <trkpt lat="45.80905" lon="1.89622">
        <ele>702.2</ele>
        <time>2026-07-08T14:54:27.000Z</time>
      </trkpt>
      <trkpt lat="45.80904" lon="1.89622">
        <ele>702</ele>
        <time>2026-07-08T14:54:28.000Z</time>
      </trkpt>
      <trkpt lat="45.80904" lon="1.89622">
        <ele>701.8</ele>
        <time>2026-07-08T14:54:29.000Z</time>
      </trkpt>
      <trkpt lat="45.80904" lon="1.89622">
        <ele>701.8</ele>
        <time>2026-07-08T14:54:30.000Z</time>
      </trkpt>
      <trkpt lat="45.80904" lon="1.89622">
        <ele>702</ele>
        <time>2026-07-08T14:54:31.000Z</time>
      </trkpt>
      <trkpt lat="45.80905" lon="1.89622">
        <ele>701.9</ele>
        <time>2026-07-08T14:54:32.000Z</time>
      </trkpt>
      <trkpt lat="45.80906" lon="1.89623">
        <ele>702.2</ele>
        <time>2026-07-08T14:54:33.000Z</time>
      </trkpt>
      <trkpt lat="45.80907" lon="1.89624">
        <ele>702.5</ele>
        <time>2026-07-08T14:54:34.000Z</time>
      </trkpt>
      <trkpt lat="45.80908" lon="1.89624">
        <ele>702.8</ele>
        <time>2026-07-08T14:54:35.000Z</time>
      </trkpt>
      <trkpt lat="45.80908" lon="1.89624">
        <ele>702.8</ele>
        <time>2026-07-08T14:54:36.000Z</time>
      </trkpt>
      <trkpt lat="45.80908" lon="1.89624">
        <ele>702.9</ele>
        <time>2026-07-08T14:54:37.000Z</time>
      </trkpt>
      <trkpt lat="45.80907" lon="1.89624">
        <ele>703.1</ele>
        <time>2026-07-08T14:54:38.000Z</time>
      </trkpt>
      <trkpt lat="45.80907" lon="1.89624">
        <ele>703.3</ele>
        <time>2026-07-08T14:54:39.000Z</time>
      </trkpt>
      <trkpt lat="45.80908" lon="1.89625">
        <ele>703.2</ele>
        <time>2026-07-08T14:54:40.000Z</time>
      </trkpt>
      <trkpt lat="45.80908" lon="1.89625">
        <ele>703.1</ele>
        <time>2026-07-08T14:54:41.000Z</time>
      </trkpt>
      <trkpt lat="45.80908" lon="1.89625">
        <ele>703.1</ele>
        <time>2026-07-08T14:54:42.000Z</time>
      </trkpt>
      <trkpt lat="45.80908" lon="1.89625">
        <ele>703.4</ele>
        <time>2026-07-08T14:54:43.000Z</time>
      </trkpt>
      <trkpt lat="45.80908" lon="1.89625">
        <ele>703.4</ele>
        <time>2026-07-08T14:54:44.000Z</time>
      </trkpt>
      <trkpt lat="45.80908" lon="1.89625">
        <ele>703.5</ele>
        <time>2026-07-08T14:54:45.000Z</time>
      </trkpt>
      <trkpt lat="45.80908" lon="1.89625">
        <ele>703.5</ele>
        <time>2026-07-08T14:54:46.000Z</time>
      </trkpt>
      <trkpt lat="45.80909" lon="1.89625">
        <ele>703.7</ele>
        <time>2026-07-08T14:54:47.000Z</time>
      </trkpt>
      <trkpt lat="45.80909" lon="1.89626">
        <ele>703.8</ele>
        <time>2026-07-08T14:54:48.000Z</time>
      </trkpt>
      <trkpt lat="45.80909" lon="1.89626">
        <ele>704.1</ele>
        <time>2026-07-08T14:54:49.000Z</time>
      </trkpt>
      <trkpt lat="45.80909" lon="1.89626">
        <ele>704.3</ele>
        <time>2026-07-08T14:54:50.000Z</time>
      </trkpt>
      <trkpt lat="45.80909" lon="1.89626">
        <ele>704.5</ele>
        <time>2026-07-08T14:54:51.000Z</time>
      </trkpt>
      <trkpt lat="45.80909" lon="1.89625">
        <ele>704.6</ele>
        <time>2026-07-08T14:54:52.000Z</time>
      </trkpt>
      <trkpt lat="45.80908" lon="1.89625">
        <ele>704.7</ele>
        <time>2026-07-08T14:54:53.000Z</time>
      </trkpt>
      <trkpt lat="45.80908" lon="1.89625">
        <ele>704.5</ele>
        <time>2026-07-08T14:54:54.000Z</time>
      </trkpt>
      <trkpt lat="45.80909" lon="1.89625">
        <ele>704.5</ele>
        <time>2026-07-08T14:54:55.000Z</time>
      </trkpt>
      <trkpt lat="45.80909" lon="1.89625">
        <ele>704.2</ele>
        <time>2026-07-08T14:54:56.000Z</time>
      </trkpt>
      <trkpt lat="45.80908" lon="1.89624">
        <ele>703.9</ele>
        <time>2026-07-08T14:54:57.000Z</time>
      </trkpt>
      <trkpt lat="45.80907" lon="1.89623">
        <ele>703.5</ele>
        <time>2026-07-08T14:54:58.000Z</time>
      </trkpt>
      <trkpt lat="45.80906" lon="1.89622">
        <ele>703.3</ele>
        <time>2026-07-08T14:54:59.000Z</time>
      </trkpt>
      <trkpt lat="45.80905" lon="1.89622">
        <ele>703.2</ele>
        <time>2026-07-08T14:55:00.000Z</time>
      </trkpt>
      <trkpt lat="45.80905" lon="1.89622">
        <ele>703.2</ele>
        <time>2026-07-08T14:55:01.000Z</time>
      </trkpt>
      <trkpt lat="45.80905" lon="1.89622">
        <ele>702.9</ele>
        <time>2026-07-08T14:55:02.000Z</time>
      </trkpt>
      <trkpt lat="45.80905" lon="1.89622">
        <ele>703.2</ele>
        <time>2026-07-08T14:55:03.000Z</time>
      </trkpt>
      <trkpt lat="45.80905" lon="1.89621">
        <ele>703.4</ele>
        <time>2026-07-08T14:55:04.000Z</time>
      </trkpt>
      <trkpt lat="45.80905" lon="1.89621">
        <ele>703.1</ele>
        <time>2026-07-08T14:55:05.000Z</time>
      </trkpt>
      <trkpt lat="45.80904" lon="1.8962">
        <ele>702.9</ele>
        <time>2026-07-08T14:55:06.000Z</time>
      </trkpt>
      <trkpt lat="45.80903" lon="1.89619">
        <ele>702.8</ele>
        <time>2026-07-08T14:55:07.000Z</time>
      </trkpt>
      <trkpt lat="45.80903" lon="1.89618">
        <ele>702.7</ele>
        <time>2026-07-08T14:55:08.000Z</time>
      </trkpt>
      <trkpt lat="45.80902" lon="1.89617">
        <ele>702.6</ele>
        <time>2026-07-08T14:55:09.000Z</time>
      </trkpt>
      <trkpt lat="45.80902" lon="1.89617">
        <ele>702.1</ele>
        <time>2026-07-08T14:55:10.000Z</time>
      </trkpt>
      <trkpt lat="45.80902" lon="1.89617">
        <ele>701.9</ele>
        <time>2026-07-08T14:55:11.000Z</time>
      </trkpt>
      <trkpt lat="45.80902" lon="1.89615">
        <ele>702.2</ele>
        <time>2026-07-08T14:55:12.000Z</time>
      </trkpt>
      <trkpt lat="45.80903" lon="1.89615">
        <ele>702.2</ele>
        <time>2026-07-08T14:55:13.000Z</time>
      </trkpt>
      <trkpt lat="45.80905" lon="1.89614">
        <ele>702.3</ele>
        <time>2026-07-08T14:55:14.000Z</time>
      </trkpt>
      <trkpt lat="45.80906" lon="1.89615">
        <ele>702.4</ele>
        <time>2026-07-08T14:55:15.000Z</time>
      </trkpt>
      <trkpt lat="45.80907" lon="1.89615">
        <ele>702.2</ele>
        <time>2026-07-08T14:55:16.000Z</time>
      </trkpt>
      <trkpt lat="45.80907" lon="1.89611">
        <ele>702</ele>
        <time>2026-07-08T14:55:17.000Z</time>
      </trkpt>
      <trkpt lat="45.80907" lon="1.89612">
        <ele>702</ele>
        <time>2026-07-08T14:55:18.000Z</time>
      </trkpt>
      <trkpt lat="45.80904" lon="1.89614">
        <ele>701.6</ele>
        <time>2026-07-08T14:55:19.000Z</time>
      </trkpt>
      <trkpt lat="45.80903" lon="1.89613">
        <ele>702.1</ele>
        <time>2026-07-08T14:55:20.000Z</time>
      </trkpt>
      <trkpt lat="45.80902" lon="1.89613">
        <ele>702.9</ele>
        <time>2026-07-08T14:55:21.000Z</time>
      </trkpt>
      <trkpt lat="45.80902" lon="1.89617">
        <ele>703</ele>
        <time>2026-07-08T14:55:22.000Z</time>
      </trkpt>
      <trkpt lat="45.80903" lon="1.89619">
        <ele>702.9</ele>
        <time>2026-07-08T14:55:23.000Z</time>
      </trkpt>
      <trkpt lat="45.80903" lon="1.89619">
        <ele>702.9</ele>
        <time>2026-07-08T14:55:24.000Z</time>
      </trkpt>
      <trkpt lat="45.80903" lon="1.89619">
        <ele>702.9</ele>
        <time>2026-07-08T14:55:25.000Z</time>
      </trkpt>
      <trkpt lat="45.80904" lon="1.89621">
        <ele>702.7</ele>
        <time>2026-07-08T14:55:26.000Z</time>
      </trkpt>
      <trkpt lat="45.80904" lon="1.89622">
        <ele>702.4</ele>
        <time>2026-07-08T14:55:27.000Z</time>
      </trkpt>
      <trkpt lat="45.80905" lon="1.89623">
        <ele>703</ele>
        <time>2026-07-08T14:55:28.000Z</time>
      </trkpt>
      <trkpt lat="45.80905" lon="1.89624">
        <ele>703.6</ele>
        <time>2026-07-08T14:55:29.000Z</time>
      </trkpt>
      <trkpt lat="45.80905" lon="1.89624">
        <ele>703.6</ele>
        <time>2026-07-08T14:55:30.000Z</time>
      </trkpt>
      <trkpt lat="45.80905" lon="1.89624">
        <ele>703.6</ele>
        <time>2026-07-08T14:55:31.000Z</time>
      </trkpt>
      <trkpt lat="45.80906" lon="1.89625">
        <ele>703.7</ele>
        <time>2026-07-08T14:55:32.000Z</time>
      </trkpt>
      <trkpt lat="45.80906" lon="1.89625">
        <ele>703.1</ele>
        <time>2026-07-08T14:55:33.000Z</time>
      </trkpt>
      <trkpt lat="45.80906" lon="1.89623">
        <ele>703</ele>
        <time>2026-07-08T14:55:34.000Z</time>
      </trkpt>
      <trkpt lat="45.80906" lon="1.89621">
        <ele>702.8</ele>
        <time>2026-07-08T14:55:35.000Z</time>
      </trkpt>
      <trkpt lat="45.80905" lon="1.89619">
        <ele>702.4</ele>
        <time>2026-07-08T14:55:36.000Z</time>
      </trkpt>
      <trkpt lat="45.80905" lon="1.89618">
        <ele>702.3</ele>
        <time>2026-07-08T14:55:37.000Z</time>
      </trkpt>
      <trkpt lat="45.80904" lon="1.89617">
        <ele>702.3</ele>
        <time>2026-07-08T14:55:38.000Z</time>
      </trkpt>
      <trkpt lat="45.80904" lon="1.89615">
        <ele>702.7</ele>
        <time>2026-07-08T14:55:39.000Z</time>
      </trkpt>
      <trkpt lat="45.80905" lon="1.89613">
        <ele>702.7</ele>
        <time>2026-07-08T14:55:40.000Z</time>
      </trkpt>
      <trkpt lat="45.80906" lon="1.89612">
        <ele>703.1</ele>
        <time>2026-07-08T14:55:41.000Z</time>
      </trkpt>
      <trkpt lat="45.80907" lon="1.89611">
        <ele>703</ele>
        <time>2026-07-08T14:55:42.000Z</time>
      </trkpt>
      <trkpt lat="45.80907" lon="1.89611">
        <ele>703.2</ele>
        <time>2026-07-08T14:55:43.000Z</time>
      </trkpt>
      <trkpt lat="45.80907" lon="1.89611">
        <ele>702.9</ele>
        <time>2026-07-08T14:55:44.000Z</time>
      </trkpt>
      <trkpt lat="45.80907" lon="1.8961">
        <ele>702.6</ele>
        <time>2026-07-08T14:55:45.000Z</time>
      </trkpt>
      <trkpt lat="45.80908" lon="1.89609">
        <ele>702.8</ele>
        <time>2026-07-08T14:55:46.000Z</time>
      </trkpt>
      <trkpt lat="45.8091" lon="1.89607">
        <ele>702.9</ele>
        <time>2026-07-08T14:55:47.000Z</time>
      </trkpt>
      <trkpt lat="45.80911" lon="1.89604">
        <ele>702.9</ele>
        <time>2026-07-08T14:55:48.000Z</time>
      </trkpt>
      <trkpt lat="45.80913" lon="1.89602">
        <ele>702.9</ele>
        <time>2026-07-08T14:55:49.000Z</time>
      </trkpt>
      <trkpt lat="45.80915" lon="1.896">
        <ele>702.4</ele>
        <time>2026-07-08T14:55:50.000Z</time>
      </trkpt>
      <trkpt lat="45.80917" lon="1.89599">
        <ele>702.3</ele>
        <time>2026-07-08T14:55:51.000Z</time>
      </trkpt>
      <trkpt lat="45.80919" lon="1.89596">
        <ele>702.6</ele>
        <time>2026-07-08T14:55:52.000Z</time>
      </trkpt>
      <trkpt lat="45.8092" lon="1.89594">
        <ele>702.8</ele>
        <time>2026-07-08T14:55:53.000Z</time>
      </trkpt>
      <trkpt lat="45.80921" lon="1.89591">
        <ele>702.5</ele>
        <time>2026-07-08T14:55:54.000Z</time>
      </trkpt>
      <trkpt lat="45.80922" lon="1.89588">
        <ele>702.4</ele>
        <time>2026-07-08T14:55:55.000Z</time>
      </trkpt>
      <trkpt lat="45.80923" lon="1.89586">
        <ele>702.2</ele>
        <time>2026-07-08T14:55:56.000Z</time>
      </trkpt>
      <trkpt lat="45.80925" lon="1.89584">
        <ele>702.3</ele>
        <time>2026-07-08T14:55:57.000Z</time>
      </trkpt>
      <trkpt lat="45.80926" lon="1.89582">
        <ele>702.1</ele>
        <time>2026-07-08T14:55:58.000Z</time>
      </trkpt>
      <trkpt lat="45.80927" lon="1.8958">
        <ele>702.4</ele>
        <time>2026-07-08T14:55:59.000Z</time>
      </trkpt>
      <trkpt lat="45.80927" lon="1.89577">
        <ele>702.3</ele>
        <time>2026-07-08T14:56:00.000Z</time>
      </trkpt>
      <trkpt lat="45.80927" lon="1.89574">
        <ele>702.2</ele>
        <time>2026-07-08T14:56:01.000Z</time>
      </trkpt>
      <trkpt lat="45.80927" lon="1.89571">
        <ele>702.6</ele>
        <time>2026-07-08T14:56:02.000Z</time>
      </trkpt>
      <trkpt lat="45.80927" lon="1.89568">
        <ele>702.9</ele>
        <time>2026-07-08T14:56:03.000Z</time>
      </trkpt>
      <trkpt lat="45.80927" lon="1.89565">
        <ele>702.7</ele>
        <time>2026-07-08T14:56:04.000Z</time>
      </trkpt>
      <trkpt lat="45.80928" lon="1.89562">
        <ele>702.2</ele>
        <time>2026-07-08T14:56:05.000Z</time>
      </trkpt>
      <trkpt lat="45.80929" lon="1.8956">
        <ele>701.7</ele>
        <time>2026-07-08T14:56:06.000Z</time>
      </trkpt>
      <trkpt lat="45.80931" lon="1.89558">
        <ele>701.4</ele>
        <time>2026-07-08T14:56:07.000Z</time>
      </trkpt>
      <trkpt lat="45.80933" lon="1.89556">
        <ele>701.6</ele>
        <time>2026-07-08T14:56:08.000Z</time>
      </trkpt>
      <trkpt lat="45.80934" lon="1.89554">
        <ele>700.7</ele>
        <time>2026-07-08T14:56:09.000Z</time>
      </trkpt>
      <trkpt lat="45.80936" lon="1.89552">
        <ele>700.4</ele>
        <time>2026-07-08T14:56:10.000Z</time>
      </trkpt>
      <trkpt lat="45.80936" lon="1.89551">
        <ele>700.8</ele>
        <time>2026-07-08T14:56:11.000Z</time>
      </trkpt>
      <trkpt lat="45.80936" lon="1.89551">
        <ele>701.5</ele>
        <time>2026-07-08T14:56:12.000Z</time>
      </trkpt>
      <trkpt lat="45.80936" lon="1.89551">
        <ele>702</ele>
        <time>2026-07-08T14:56:13.000Z</time>
      </trkpt>
      <trkpt lat="45.80936" lon="1.89552">
        <ele>702</ele>
        <time>2026-07-08T14:56:14.000Z</time>
      </trkpt>
      <trkpt lat="45.80936" lon="1.89552">
        <ele>702</ele>
        <time>2026-07-08T14:56:15.000Z</time>
      </trkpt>
      <trkpt lat="45.80936" lon="1.89552">
        <ele>701.8</ele>
        <time>2026-07-08T14:56:16.000Z</time>
      </trkpt>
      <trkpt lat="45.80936" lon="1.89551">
        <ele>702.4</ele>
        <time>2026-07-08T14:56:17.000Z</time>
      </trkpt>
      <trkpt lat="45.80938" lon="1.89549">
        <ele>702.9</ele>
        <time>2026-07-08T14:56:18.000Z</time>
      </trkpt>
      <trkpt lat="45.80939" lon="1.89549">
        <ele>703.8</ele>
        <time>2026-07-08T14:56:19.000Z</time>
      </trkpt>
      <trkpt lat="45.8094" lon="1.89549">
        <ele>703.7</ele>
        <time>2026-07-08T14:56:20.000Z</time>
      </trkpt>
      <trkpt lat="45.80941" lon="1.89549">
        <ele>703.8</ele>
        <time>2026-07-08T14:56:21.000Z</time>
      </trkpt>
      <trkpt lat="45.80941" lon="1.8955">
        <ele>703.9</ele>
        <time>2026-07-08T14:56:22.000Z</time>
      </trkpt>
      <trkpt lat="45.80941" lon="1.89551">
        <ele>703.9</ele>
        <time>2026-07-08T14:56:23.000Z</time>
      </trkpt>
      <trkpt lat="45.80942" lon="1.89552">
        <ele>703.9</ele>
        <time>2026-07-08T14:56:24.000Z</time>
      </trkpt>
      <trkpt lat="45.80942" lon="1.89552">
        <ele>703.9</ele>
        <time>2026-07-08T14:56:25.000Z</time>
      </trkpt>
      <trkpt lat="45.80942" lon="1.89552">
        <ele>703.9</ele>
        <time>2026-07-08T14:56:26.000Z</time>
      </trkpt>
      <trkpt lat="45.80942" lon="1.89552">
        <ele>703.7</ele>
        <time>2026-07-08T14:56:27.000Z</time>
      </trkpt>
      <trkpt lat="45.80942" lon="1.89552">
        <ele>703.5</ele>
        <time>2026-07-08T14:56:28.000Z</time>
      </trkpt>
      <trkpt lat="45.80942" lon="1.89552">
        <ele>703.8</ele>
        <time>2026-07-08T14:56:29.000Z</time>
      </trkpt>
      <trkpt lat="45.80942" lon="1.89553">
        <ele>703.8</ele>
        <time>2026-07-08T14:56:30.000Z</time>
      </trkpt>
      <trkpt lat="45.80943" lon="1.8955">
        <ele>703.7</ele>
        <time>2026-07-08T14:56:31.000Z</time>
      </trkpt>
      <trkpt lat="45.80943" lon="1.89548">
        <ele>703.7</ele>
        <time>2026-07-08T14:56:32.000Z</time>
      </trkpt>
      <trkpt lat="45.80942" lon="1.89549">
        <ele>703.7</ele>
        <time>2026-07-08T14:56:33.000Z</time>
      </trkpt>
      <trkpt lat="45.80941" lon="1.89551">
        <ele>703.7</ele>
        <time>2026-07-08T14:56:34.000Z</time>
      </trkpt>
      <trkpt lat="45.80941" lon="1.89551">
        <ele>703.6</ele>
        <time>2026-07-08T14:56:35.000Z</time>
      </trkpt>
      <trkpt lat="45.8094" lon="1.89551">
        <ele>703.6</ele>
        <time>2026-07-08T14:56:36.000Z</time>
      </trkpt>
      <trkpt lat="45.8094" lon="1.89551">
        <ele>703.6</ele>
        <time>2026-07-08T14:56:37.000Z</time>
      </trkpt>
      <trkpt lat="45.8094" lon="1.89551">
        <ele>703.7</ele>
        <time>2026-07-08T14:56:38.000Z</time>
      </trkpt>
      <trkpt lat="45.8094" lon="1.89551">
        <ele>703.7</ele>
        <time>2026-07-08T14:56:39.000Z</time>
      </trkpt>
      <trkpt lat="45.8094" lon="1.89551">
        <ele>704.1</ele>
        <time>2026-07-08T14:56:40.000Z</time>
      </trkpt>
      <trkpt lat="45.8094" lon="1.89551">
        <ele>705.1</ele>
        <time>2026-07-08T14:56:41.000Z</time>
      </trkpt>
      <trkpt lat="45.80941" lon="1.89551">
        <ele>705.3</ele>
        <time>2026-07-08T14:56:42.000Z</time>
      </trkpt>
      <trkpt lat="45.80942" lon="1.89552">
        <ele>705.2</ele>
        <time>2026-07-08T14:56:43.000Z</time>
      </trkpt>
      <trkpt lat="45.80942" lon="1.89553">
        <ele>705.5</ele>
        <time>2026-07-08T14:56:44.000Z</time>
      </trkpt>
      <trkpt lat="45.80943" lon="1.89554">
        <ele>705.3</ele>
        <time>2026-07-08T14:56:45.000Z</time>
      </trkpt>
      <trkpt lat="45.80943" lon="1.89556">
        <ele>705.6</ele>
        <time>2026-07-08T14:56:46.000Z</time>
      </trkpt>
      <trkpt lat="45.80943" lon="1.89557">
        <ele>705.6</ele>
        <time>2026-07-08T14:56:47.000Z</time>
      </trkpt>
      <trkpt lat="45.80943" lon="1.89559">
        <ele>705.8</ele>
        <time>2026-07-08T14:56:48.000Z</time>
      </trkpt>
      <trkpt lat="45.80944" lon="1.8956">
        <ele>706</ele>
        <time>2026-07-08T14:56:49.000Z</time>
      </trkpt>
      <trkpt lat="45.80945" lon="1.89561">
        <ele>705.7</ele>
        <time>2026-07-08T14:56:50.000Z</time>
      </trkpt>
      <trkpt lat="45.80946" lon="1.89561">
        <ele>705.6</ele>
        <time>2026-07-08T14:56:51.000Z</time>
      </trkpt>
      <trkpt lat="45.80947" lon="1.89563">
        <ele>705.7</ele>
        <time>2026-07-08T14:56:52.000Z</time>
      </trkpt>
      <trkpt lat="45.80948" lon="1.89564">
        <ele>706.2</ele>
        <time>2026-07-08T14:56:53.000Z</time>
      </trkpt>
      <trkpt lat="45.80949" lon="1.89566">
        <ele>706</ele>
        <time>2026-07-08T14:56:54.000Z</time>
      </trkpt>
      <trkpt lat="45.8095" lon="1.89567">
        <ele>706.1</ele>
        <time>2026-07-08T14:56:55.000Z</time>
      </trkpt>
      <trkpt lat="45.80951" lon="1.89569">
        <ele>706.6</ele>
        <time>2026-07-08T14:56:56.000Z</time>
      </trkpt>
      <trkpt lat="45.80953" lon="1.89571">
        <ele>706</ele>
        <time>2026-07-08T14:56:57.000Z</time>
      </trkpt>
      <trkpt lat="45.80955" lon="1.89572">
        <ele>706.8</ele>
        <time>2026-07-08T14:56:58.000Z</time>
      </trkpt>
      <trkpt lat="45.80954" lon="1.89578">
        <ele>706.5</ele>
        <time>2026-07-08T14:56:59.000Z</time>
      </trkpt>
      <trkpt lat="45.80951" lon="1.89579">
        <ele>707.2</ele>
        <time>2026-07-08T14:57:00.000Z</time>
      </trkpt>
      <trkpt lat="45.80949" lon="1.89575">
        <ele>704.7</ele>
        <time>2026-07-08T14:57:01.000Z</time>
      </trkpt>
      <trkpt lat="45.80948" lon="1.89573">
        <ele>704.6</ele>
        <time>2026-07-08T14:57:02.000Z</time>
      </trkpt>
      <trkpt lat="45.80948" lon="1.89573">
        <ele>704.6</ele>
        <time>2026-07-08T14:57:03.000Z</time>
      </trkpt>
      <trkpt lat="45.80948" lon="1.89573">
        <ele>704.6</ele>
        <time>2026-07-08T14:57:04.000Z</time>
      </trkpt>
      <trkpt lat="45.80948" lon="1.89573">
        <ele>704.6</ele>
        <time>2026-07-08T14:57:05.000Z</time>
      </trkpt>
    </trkseg>
  </trk>
</gpx>